<?xml version="1.0" encoding="UTF-8" standalone="no" ?>
<gpx xmlns="http://www.topografix.com/GPX/1/1" xmlns:xsi="http://www.w3.org/2001/XMLSchema-instance" xsi:schemaLocation="http://www.topografix.com/GPX/1/1 http://www.topografix.com/GPX/1/1/gpx.xsd" version="1.1" creator="VisuGPX - https://www.visugpx.com">
  <metadata>
    <name>Rando St Nicolas au bois </name>
  </metadata>
  <trk>
    <name><![CDATA[Trace 1759652449000]]></name>
    <trkseg>
      <trkpt lat="49.59479" lon="3.43855">
        <ele>162</ele>
        <time>2025-10-05T08:20:49.000Z</time>
      </trkpt>
      <trkpt lat="49.59479" lon="3.43855">
        <ele>161.8</ele>
        <time>2025-10-05T08:20:50.000Z</time>
      </trkpt>
      <trkpt lat="49.59479" lon="3.43855">
        <ele>161.9</ele>
        <time>2025-10-05T08:20:51.000Z</time>
      </trkpt>
      <trkpt lat="49.59479" lon="3.43856">
        <ele>162</ele>
        <time>2025-10-05T08:20:52.000Z</time>
      </trkpt>
      <trkpt lat="49.59478" lon="3.43857">
        <ele>162.6</ele>
        <time>2025-10-05T08:20:53.000Z</time>
      </trkpt>
      <trkpt lat="49.59478" lon="3.43858">
        <ele>162.7</ele>
        <time>2025-10-05T08:20:54.000Z</time>
      </trkpt>
      <trkpt lat="49.59477" lon="3.43859">
        <ele>163.1</ele>
        <time>2025-10-05T08:20:55.000Z</time>
      </trkpt>
      <trkpt lat="49.59477" lon="3.4386">
        <ele>163.7</ele>
        <time>2025-10-05T08:20:56.000Z</time>
      </trkpt>
      <trkpt lat="49.59477" lon="3.43862">
        <ele>164.5</ele>
        <time>2025-10-05T08:20:57.000Z</time>
      </trkpt>
      <trkpt lat="49.59476" lon="3.43863">
        <ele>165.1</ele>
        <time>2025-10-05T08:20:58.000Z</time>
      </trkpt>
      <trkpt lat="49.59475" lon="3.43863">
        <ele>164.9</ele>
        <time>2025-10-05T08:20:59.000Z</time>
      </trkpt>
      <trkpt lat="49.59473" lon="3.43864">
        <ele>164.9</ele>
        <time>2025-10-05T08:21:00.000Z</time>
      </trkpt>
      <trkpt lat="49.59471" lon="3.43865">
        <ele>164.7</ele>
        <time>2025-10-05T08:21:01.000Z</time>
      </trkpt>
      <trkpt lat="49.5947" lon="3.43866">
        <ele>164.5</ele>
        <time>2025-10-05T08:21:02.000Z</time>
      </trkpt>
      <trkpt lat="49.59468" lon="3.43867">
        <ele>164</ele>
        <time>2025-10-05T08:21:03.000Z</time>
      </trkpt>
      <trkpt lat="49.59466" lon="3.43868">
        <ele>163.4</ele>
        <time>2025-10-05T08:21:04.000Z</time>
      </trkpt>
      <trkpt lat="49.59465" lon="3.43869">
        <ele>162.7</ele>
        <time>2025-10-05T08:21:05.000Z</time>
      </trkpt>
      <trkpt lat="49.59464" lon="3.43871">
        <ele>162.2</ele>
        <time>2025-10-05T08:21:06.000Z</time>
      </trkpt>
      <trkpt lat="49.59463" lon="3.43871">
        <ele>161.8</ele>
        <time>2025-10-05T08:21:07.000Z</time>
      </trkpt>
      <trkpt lat="49.59461" lon="3.43873">
        <ele>161.7</ele>
        <time>2025-10-05T08:21:08.000Z</time>
      </trkpt>
      <trkpt lat="49.5946" lon="3.43874">
        <ele>161.9</ele>
        <time>2025-10-05T08:21:09.000Z</time>
      </trkpt>
      <trkpt lat="49.59459" lon="3.43875">
        <ele>162.3</ele>
        <time>2025-10-05T08:21:10.000Z</time>
      </trkpt>
      <trkpt lat="49.59458" lon="3.43876">
        <ele>162.2</ele>
        <time>2025-10-05T08:21:11.000Z</time>
      </trkpt>
      <trkpt lat="49.59458" lon="3.43876">
        <ele>162.3</ele>
        <time>2025-10-05T08:21:12.000Z</time>
      </trkpt>
      <trkpt lat="49.59457" lon="3.43876">
        <ele>162.5</ele>
        <time>2025-10-05T08:21:13.000Z</time>
      </trkpt>
      <trkpt lat="49.59457" lon="3.43877">
        <ele>163</ele>
        <time>2025-10-05T08:21:14.000Z</time>
      </trkpt>
      <trkpt lat="49.59457" lon="3.43878">
        <ele>163.3</ele>
        <time>2025-10-05T08:21:15.000Z</time>
      </trkpt>
      <trkpt lat="49.59456" lon="3.43879">
        <ele>163.7</ele>
        <time>2025-10-05T08:21:16.000Z</time>
      </trkpt>
      <trkpt lat="49.59456" lon="3.4388">
        <ele>164.3</ele>
        <time>2025-10-05T08:21:17.000Z</time>
      </trkpt>
      <trkpt lat="49.59455" lon="3.43881">
        <ele>164.5</ele>
        <time>2025-10-05T08:21:18.000Z</time>
      </trkpt>
      <trkpt lat="49.59455" lon="3.43882">
        <ele>165</ele>
        <time>2025-10-05T08:21:19.000Z</time>
      </trkpt>
      <trkpt lat="49.59454" lon="3.43885">
        <ele>165.4</ele>
        <time>2025-10-05T08:21:20.000Z</time>
      </trkpt>
      <trkpt lat="49.59453" lon="3.43886">
        <ele>165.6</ele>
        <time>2025-10-05T08:21:21.000Z</time>
      </trkpt>
      <trkpt lat="49.59453" lon="3.43888">
        <ele>165.8</ele>
        <time>2025-10-05T08:21:22.000Z</time>
      </trkpt>
      <trkpt lat="49.59452" lon="3.4389">
        <ele>165.9</ele>
        <time>2025-10-05T08:21:23.000Z</time>
      </trkpt>
      <trkpt lat="49.59451" lon="3.43893">
        <ele>166.2</ele>
        <time>2025-10-05T08:21:24.000Z</time>
      </trkpt>
      <trkpt lat="49.5945" lon="3.43894">
        <ele>166.1</ele>
        <time>2025-10-05T08:21:25.000Z</time>
      </trkpt>
      <trkpt lat="49.5945" lon="3.43896">
        <ele>166.2</ele>
        <time>2025-10-05T08:21:26.000Z</time>
      </trkpt>
      <trkpt lat="49.59449" lon="3.43898">
        <ele>166</ele>
        <time>2025-10-05T08:21:27.000Z</time>
      </trkpt>
      <trkpt lat="49.59448" lon="3.43899">
        <ele>165.8</ele>
        <time>2025-10-05T08:21:28.000Z</time>
      </trkpt>
      <trkpt lat="49.59448" lon="3.43901">
        <ele>165.8</ele>
        <time>2025-10-05T08:21:29.000Z</time>
      </trkpt>
      <trkpt lat="49.59447" lon="3.43902">
        <ele>165.7</ele>
        <time>2025-10-05T08:21:30.000Z</time>
      </trkpt>
      <trkpt lat="49.59447" lon="3.43903">
        <ele>165.7</ele>
        <time>2025-10-05T08:21:31.000Z</time>
      </trkpt>
      <trkpt lat="49.59446" lon="3.43904">
        <ele>165.7</ele>
        <time>2025-10-05T08:21:32.000Z</time>
      </trkpt>
      <trkpt lat="49.59445" lon="3.43905">
        <ele>165.7</ele>
        <time>2025-10-05T08:21:33.000Z</time>
      </trkpt>
      <trkpt lat="49.59444" lon="3.43907">
        <ele>165.7</ele>
        <time>2025-10-05T08:21:34.000Z</time>
      </trkpt>
      <trkpt lat="49.59444" lon="3.43908">
        <ele>165.7</ele>
        <time>2025-10-05T08:21:35.000Z</time>
      </trkpt>
      <trkpt lat="49.59443" lon="3.43909">
        <ele>165.5</ele>
        <time>2025-10-05T08:21:36.000Z</time>
      </trkpt>
      <trkpt lat="49.59442" lon="3.4391">
        <ele>165.5</ele>
        <time>2025-10-05T08:21:37.000Z</time>
      </trkpt>
      <trkpt lat="49.59442" lon="3.43911">
        <ele>165.7</ele>
        <time>2025-10-05T08:21:38.000Z</time>
      </trkpt>
      <trkpt lat="49.59442" lon="3.43912">
        <ele>165.7</ele>
        <time>2025-10-05T08:21:39.000Z</time>
      </trkpt>
      <trkpt lat="49.59441" lon="3.43914">
        <ele>165.6</ele>
        <time>2025-10-05T08:21:40.000Z</time>
      </trkpt>
      <trkpt lat="49.59441" lon="3.43915">
        <ele>165.7</ele>
        <time>2025-10-05T08:21:41.000Z</time>
      </trkpt>
      <trkpt lat="49.5944" lon="3.43917">
        <ele>165.8</ele>
        <time>2025-10-05T08:21:42.000Z</time>
      </trkpt>
      <trkpt lat="49.5944" lon="3.43918">
        <ele>166</ele>
        <time>2025-10-05T08:21:43.000Z</time>
      </trkpt>
      <trkpt lat="49.59439" lon="3.43919">
        <ele>166</ele>
        <time>2025-10-05T08:21:44.000Z</time>
      </trkpt>
      <trkpt lat="49.59439" lon="3.4392">
        <ele>166</ele>
        <time>2025-10-05T08:21:45.000Z</time>
      </trkpt>
      <trkpt lat="49.59438" lon="3.43921">
        <ele>166.1</ele>
        <time>2025-10-05T08:21:46.000Z</time>
      </trkpt>
      <trkpt lat="49.59438" lon="3.43923">
        <ele>166.2</ele>
        <time>2025-10-05T08:21:47.000Z</time>
      </trkpt>
      <trkpt lat="49.59437" lon="3.43925">
        <ele>166.4</ele>
        <time>2025-10-05T08:21:48.000Z</time>
      </trkpt>
      <trkpt lat="49.59436" lon="3.43926">
        <ele>166.6</ele>
        <time>2025-10-05T08:21:49.000Z</time>
      </trkpt>
      <trkpt lat="49.59436" lon="3.43929">
        <ele>166.7</ele>
        <time>2025-10-05T08:21:50.000Z</time>
      </trkpt>
      <trkpt lat="49.59435" lon="3.4393">
        <ele>166.9</ele>
        <time>2025-10-05T08:21:51.000Z</time>
      </trkpt>
      <trkpt lat="49.59434" lon="3.43932">
        <ele>167</ele>
        <time>2025-10-05T08:21:52.000Z</time>
      </trkpt>
      <trkpt lat="49.59434" lon="3.43933">
        <ele>166.9</ele>
        <time>2025-10-05T08:21:53.000Z</time>
      </trkpt>
      <trkpt lat="49.59433" lon="3.43934">
        <ele>167</ele>
        <time>2025-10-05T08:21:54.000Z</time>
      </trkpt>
      <trkpt lat="49.59433" lon="3.43936">
        <ele>166.9</ele>
        <time>2025-10-05T08:21:55.000Z</time>
      </trkpt>
      <trkpt lat="49.59432" lon="3.43937">
        <ele>167</ele>
        <time>2025-10-05T08:21:56.000Z</time>
      </trkpt>
      <trkpt lat="49.59432" lon="3.43938">
        <ele>167.2</ele>
        <time>2025-10-05T08:21:57.000Z</time>
      </trkpt>
      <trkpt lat="49.59431" lon="3.4394">
        <ele>167.4</ele>
        <time>2025-10-05T08:21:58.000Z</time>
      </trkpt>
      <trkpt lat="49.5943" lon="3.43941">
        <ele>167.4</ele>
        <time>2025-10-05T08:21:59.000Z</time>
      </trkpt>
      <trkpt lat="49.5943" lon="3.43944">
        <ele>167.5</ele>
        <time>2025-10-05T08:22:00.000Z</time>
      </trkpt>
      <trkpt lat="49.59429" lon="3.43946">
        <ele>167.4</ele>
        <time>2025-10-05T08:22:01.000Z</time>
      </trkpt>
      <trkpt lat="49.59428" lon="3.43948">
        <ele>167</ele>
        <time>2025-10-05T08:22:02.000Z</time>
      </trkpt>
      <trkpt lat="49.59427" lon="3.4395">
        <ele>166.9</ele>
        <time>2025-10-05T08:22:03.000Z</time>
      </trkpt>
      <trkpt lat="49.59427" lon="3.43952">
        <ele>166.9</ele>
        <time>2025-10-05T08:22:04.000Z</time>
      </trkpt>
      <trkpt lat="49.59426" lon="3.43953">
        <ele>166.8</ele>
        <time>2025-10-05T08:22:05.000Z</time>
      </trkpt>
      <trkpt lat="49.59426" lon="3.43953">
        <ele>166.8</ele>
        <time>2025-10-05T08:22:06.000Z</time>
      </trkpt>
      <trkpt lat="49.59425" lon="3.43954">
        <ele>167</ele>
        <time>2025-10-05T08:22:07.000Z</time>
      </trkpt>
      <trkpt lat="49.59425" lon="3.43956">
        <ele>167.1</ele>
        <time>2025-10-05T08:22:08.000Z</time>
      </trkpt>
      <trkpt lat="49.59424" lon="3.43958">
        <ele>167.3</ele>
        <time>2025-10-05T08:22:09.000Z</time>
      </trkpt>
      <trkpt lat="49.59424" lon="3.43959">
        <ele>167.5</ele>
        <time>2025-10-05T08:22:10.000Z</time>
      </trkpt>
      <trkpt lat="49.59423" lon="3.43961">
        <ele>167.7</ele>
        <time>2025-10-05T08:22:11.000Z</time>
      </trkpt>
      <trkpt lat="49.59423" lon="3.43962">
        <ele>168</ele>
        <time>2025-10-05T08:22:12.000Z</time>
      </trkpt>
      <trkpt lat="49.59422" lon="3.43963">
        <ele>168.3</ele>
        <time>2025-10-05T08:22:13.000Z</time>
      </trkpt>
      <trkpt lat="49.59422" lon="3.43964">
        <ele>168.4</ele>
        <time>2025-10-05T08:22:14.000Z</time>
      </trkpt>
      <trkpt lat="49.59421" lon="3.43965">
        <ele>168.7</ele>
        <time>2025-10-05T08:22:15.000Z</time>
      </trkpt>
      <trkpt lat="49.59421" lon="3.43965">
        <ele>168.8</ele>
        <time>2025-10-05T08:22:16.000Z</time>
      </trkpt>
      <trkpt lat="49.5942" lon="3.43967">
        <ele>169.1</ele>
        <time>2025-10-05T08:22:17.000Z</time>
      </trkpt>
      <trkpt lat="49.5942" lon="3.43968">
        <ele>169.2</ele>
        <time>2025-10-05T08:22:18.000Z</time>
      </trkpt>
      <trkpt lat="49.59419" lon="3.43969">
        <ele>169.3</ele>
        <time>2025-10-05T08:22:19.000Z</time>
      </trkpt>
      <trkpt lat="49.59419" lon="3.4397">
        <ele>169.5</ele>
        <time>2025-10-05T08:22:20.000Z</time>
      </trkpt>
      <trkpt lat="49.59418" lon="3.43971">
        <ele>169.9</ele>
        <time>2025-10-05T08:22:21.000Z</time>
      </trkpt>
      <trkpt lat="49.59417" lon="3.43971">
        <ele>170</ele>
        <time>2025-10-05T08:22:22.000Z</time>
      </trkpt>
      <trkpt lat="49.59417" lon="3.43971">
        <ele>170.1</ele>
        <time>2025-10-05T08:22:23.000Z</time>
      </trkpt>
      <trkpt lat="49.59416" lon="3.43971">
        <ele>170.3</ele>
        <time>2025-10-05T08:22:24.000Z</time>
      </trkpt>
      <trkpt lat="49.59415" lon="3.43972">
        <ele>170.7</ele>
        <time>2025-10-05T08:22:25.000Z</time>
      </trkpt>
      <trkpt lat="49.59415" lon="3.43973">
        <ele>171.2</ele>
        <time>2025-10-05T08:22:26.000Z</time>
      </trkpt>
      <trkpt lat="49.59414" lon="3.43975">
        <ele>171.9</ele>
        <time>2025-10-05T08:22:27.000Z</time>
      </trkpt>
      <trkpt lat="49.59414" lon="3.43975">
        <ele>172.5</ele>
        <time>2025-10-05T08:22:28.000Z</time>
      </trkpt>
      <trkpt lat="49.59414" lon="3.43976">
        <ele>173</ele>
        <time>2025-10-05T08:22:29.000Z</time>
      </trkpt>
      <trkpt lat="49.59414" lon="3.43977">
        <ele>173.5</ele>
        <time>2025-10-05T08:22:30.000Z</time>
      </trkpt>
      <trkpt lat="49.59414" lon="3.43977">
        <ele>174</ele>
        <time>2025-10-05T08:22:31.000Z</time>
      </trkpt>
      <trkpt lat="49.59414" lon="3.43978">
        <ele>174.4</ele>
        <time>2025-10-05T08:22:32.000Z</time>
      </trkpt>
      <trkpt lat="49.59414" lon="3.43979">
        <ele>174.5</ele>
        <time>2025-10-05T08:22:33.000Z</time>
      </trkpt>
      <trkpt lat="49.59413" lon="3.43981">
        <ele>174.7</ele>
        <time>2025-10-05T08:22:34.000Z</time>
      </trkpt>
      <trkpt lat="49.59412" lon="3.43983">
        <ele>174.9</ele>
        <time>2025-10-05T08:22:35.000Z</time>
      </trkpt>
      <trkpt lat="49.59412" lon="3.43985">
        <ele>174.9</ele>
        <time>2025-10-05T08:22:36.000Z</time>
      </trkpt>
      <trkpt lat="49.59411" lon="3.43987">
        <ele>175.1</ele>
        <time>2025-10-05T08:22:37.000Z</time>
      </trkpt>
      <trkpt lat="49.5941" lon="3.43988">
        <ele>175</ele>
        <time>2025-10-05T08:22:38.000Z</time>
      </trkpt>
      <trkpt lat="49.59409" lon="3.43991">
        <ele>174.8</ele>
        <time>2025-10-05T08:22:39.000Z</time>
      </trkpt>
      <trkpt lat="49.59408" lon="3.43993">
        <ele>175</ele>
        <time>2025-10-05T08:22:40.000Z</time>
      </trkpt>
      <trkpt lat="49.59407" lon="3.43995">
        <ele>175.2</ele>
        <time>2025-10-05T08:22:41.000Z</time>
      </trkpt>
      <trkpt lat="49.59406" lon="3.43997">
        <ele>175.1</ele>
        <time>2025-10-05T08:22:42.000Z</time>
      </trkpt>
      <trkpt lat="49.59406" lon="3.43999">
        <ele>175.4</ele>
        <time>2025-10-05T08:22:43.000Z</time>
      </trkpt>
      <trkpt lat="49.59405" lon="3.44">
        <ele>175.6</ele>
        <time>2025-10-05T08:22:44.000Z</time>
      </trkpt>
      <trkpt lat="49.59405" lon="3.44002">
        <ele>175.8</ele>
        <time>2025-10-05T08:22:45.000Z</time>
      </trkpt>
      <trkpt lat="49.59404" lon="3.44003">
        <ele>176.1</ele>
        <time>2025-10-05T08:22:46.000Z</time>
      </trkpt>
      <trkpt lat="49.59403" lon="3.44004">
        <ele>176.4</ele>
        <time>2025-10-05T08:22:47.000Z</time>
      </trkpt>
      <trkpt lat="49.59402" lon="3.44005">
        <ele>176.4</ele>
        <time>2025-10-05T08:22:48.000Z</time>
      </trkpt>
      <trkpt lat="49.59402" lon="3.44006">
        <ele>176.4</ele>
        <time>2025-10-05T08:22:49.000Z</time>
      </trkpt>
      <trkpt lat="49.59402" lon="3.44007">
        <ele>176.4</ele>
        <time>2025-10-05T08:22:50.000Z</time>
      </trkpt>
      <trkpt lat="49.59402" lon="3.44008">
        <ele>176.4</ele>
        <time>2025-10-05T08:22:51.000Z</time>
      </trkpt>
      <trkpt lat="49.59401" lon="3.44009">
        <ele>176.4</ele>
        <time>2025-10-05T08:22:52.000Z</time>
      </trkpt>
      <trkpt lat="49.59401" lon="3.44011">
        <ele>176.3</ele>
        <time>2025-10-05T08:22:53.000Z</time>
      </trkpt>
      <trkpt lat="49.59401" lon="3.44012">
        <ele>176.4</ele>
        <time>2025-10-05T08:22:54.000Z</time>
      </trkpt>
      <trkpt lat="49.59401" lon="3.44014">
        <ele>176.3</ele>
        <time>2025-10-05T08:22:55.000Z</time>
      </trkpt>
      <trkpt lat="49.59401" lon="3.44015">
        <ele>176.2</ele>
        <time>2025-10-05T08:22:56.000Z</time>
      </trkpt>
      <trkpt lat="49.59401" lon="3.44018">
        <ele>175.7</ele>
        <time>2025-10-05T08:22:57.000Z</time>
      </trkpt>
      <trkpt lat="49.594" lon="3.4402">
        <ele>175.4</ele>
        <time>2025-10-05T08:22:58.000Z</time>
      </trkpt>
      <trkpt lat="49.594" lon="3.44022">
        <ele>175.4</ele>
        <time>2025-10-05T08:22:59.000Z</time>
      </trkpt>
      <trkpt lat="49.59399" lon="3.44024">
        <ele>175.1</ele>
        <time>2025-10-05T08:23:00.000Z</time>
      </trkpt>
      <trkpt lat="49.59399" lon="3.44025">
        <ele>174.6</ele>
        <time>2025-10-05T08:23:01.000Z</time>
      </trkpt>
      <trkpt lat="49.59399" lon="3.44027">
        <ele>174.4</ele>
        <time>2025-10-05T08:23:02.000Z</time>
      </trkpt>
      <trkpt lat="49.59399" lon="3.44028">
        <ele>174.5</ele>
        <time>2025-10-05T08:23:03.000Z</time>
      </trkpt>
      <trkpt lat="49.59398" lon="3.4403">
        <ele>174.2</ele>
        <time>2025-10-05T08:23:04.000Z</time>
      </trkpt>
      <trkpt lat="49.59398" lon="3.44031">
        <ele>174</ele>
        <time>2025-10-05T08:23:05.000Z</time>
      </trkpt>
      <trkpt lat="49.59397" lon="3.44032">
        <ele>173.8</ele>
        <time>2025-10-05T08:23:06.000Z</time>
      </trkpt>
      <trkpt lat="49.59397" lon="3.44033">
        <ele>173.7</ele>
        <time>2025-10-05T08:23:07.000Z</time>
      </trkpt>
      <trkpt lat="49.59397" lon="3.44034">
        <ele>173.7</ele>
        <time>2025-10-05T08:23:08.000Z</time>
      </trkpt>
      <trkpt lat="49.59396" lon="3.44034">
        <ele>173.9</ele>
        <time>2025-10-05T08:23:09.000Z</time>
      </trkpt>
      <trkpt lat="49.59396" lon="3.44035">
        <ele>173.9</ele>
        <time>2025-10-05T08:23:10.000Z</time>
      </trkpt>
      <trkpt lat="49.59395" lon="3.44037">
        <ele>173.8</ele>
        <time>2025-10-05T08:23:11.000Z</time>
      </trkpt>
      <trkpt lat="49.59394" lon="3.44038">
        <ele>173.8</ele>
        <time>2025-10-05T08:23:12.000Z</time>
      </trkpt>
      <trkpt lat="49.59394" lon="3.44039">
        <ele>173.8</ele>
        <time>2025-10-05T08:23:13.000Z</time>
      </trkpt>
      <trkpt lat="49.59393" lon="3.44039">
        <ele>174.1</ele>
        <time>2025-10-05T08:23:14.000Z</time>
      </trkpt>
      <trkpt lat="49.59393" lon="3.4404">
        <ele>174.4</ele>
        <time>2025-10-05T08:23:15.000Z</time>
      </trkpt>
      <trkpt lat="49.59392" lon="3.44042">
        <ele>174.6</ele>
        <time>2025-10-05T08:23:16.000Z</time>
      </trkpt>
      <trkpt lat="49.59392" lon="3.44044">
        <ele>174.6</ele>
        <time>2025-10-05T08:23:17.000Z</time>
      </trkpt>
      <trkpt lat="49.59391" lon="3.44045">
        <ele>174.6</ele>
        <time>2025-10-05T08:23:18.000Z</time>
      </trkpt>
      <trkpt lat="49.59391" lon="3.44046">
        <ele>174.6</ele>
        <time>2025-10-05T08:23:19.000Z</time>
      </trkpt>
      <trkpt lat="49.5939" lon="3.44048">
        <ele>174.6</ele>
        <time>2025-10-05T08:23:20.000Z</time>
      </trkpt>
      <trkpt lat="49.5939" lon="3.4405">
        <ele>174.7</ele>
        <time>2025-10-05T08:23:21.000Z</time>
      </trkpt>
      <trkpt lat="49.59389" lon="3.44051">
        <ele>175.1</ele>
        <time>2025-10-05T08:23:22.000Z</time>
      </trkpt>
      <trkpt lat="49.59389" lon="3.44052">
        <ele>175.3</ele>
        <time>2025-10-05T08:23:23.000Z</time>
      </trkpt>
      <trkpt lat="49.59388" lon="3.44053">
        <ele>175.3</ele>
        <time>2025-10-05T08:23:24.000Z</time>
      </trkpt>
      <trkpt lat="49.59387" lon="3.44055">
        <ele>175.4</ele>
        <time>2025-10-05T08:23:25.000Z</time>
      </trkpt>
      <trkpt lat="49.59387" lon="3.44057">
        <ele>175.1</ele>
        <time>2025-10-05T08:23:26.000Z</time>
      </trkpt>
      <trkpt lat="49.59386" lon="3.44058">
        <ele>174.7</ele>
        <time>2025-10-05T08:23:27.000Z</time>
      </trkpt>
      <trkpt lat="49.59385" lon="3.44059">
        <ele>174.5</ele>
        <time>2025-10-05T08:23:28.000Z</time>
      </trkpt>
      <trkpt lat="49.59384" lon="3.44061">
        <ele>174.1</ele>
        <time>2025-10-05T08:23:29.000Z</time>
      </trkpt>
      <trkpt lat="49.59383" lon="3.44062">
        <ele>173.8</ele>
        <time>2025-10-05T08:23:30.000Z</time>
      </trkpt>
      <trkpt lat="49.59382" lon="3.44063">
        <ele>173.5</ele>
        <time>2025-10-05T08:23:31.000Z</time>
      </trkpt>
      <trkpt lat="49.59382" lon="3.44065">
        <ele>173.1</ele>
        <time>2025-10-05T08:23:32.000Z</time>
      </trkpt>
      <trkpt lat="49.59381" lon="3.44067">
        <ele>172.9</ele>
        <time>2025-10-05T08:23:33.000Z</time>
      </trkpt>
      <trkpt lat="49.5938" lon="3.44068">
        <ele>172.6</ele>
        <time>2025-10-05T08:23:34.000Z</time>
      </trkpt>
      <trkpt lat="49.59379" lon="3.4407">
        <ele>172.4</ele>
        <time>2025-10-05T08:23:35.000Z</time>
      </trkpt>
      <trkpt lat="49.59378" lon="3.44071">
        <ele>172.1</ele>
        <time>2025-10-05T08:23:36.000Z</time>
      </trkpt>
      <trkpt lat="49.59378" lon="3.44072">
        <ele>171.7</ele>
        <time>2025-10-05T08:23:37.000Z</time>
      </trkpt>
      <trkpt lat="49.59377" lon="3.44074">
        <ele>171.1</ele>
        <time>2025-10-05T08:23:38.000Z</time>
      </trkpt>
      <trkpt lat="49.59376" lon="3.44076">
        <ele>170.5</ele>
        <time>2025-10-05T08:23:39.000Z</time>
      </trkpt>
      <trkpt lat="49.59375" lon="3.44077">
        <ele>170</ele>
        <time>2025-10-05T08:23:40.000Z</time>
      </trkpt>
      <trkpt lat="49.59375" lon="3.44078">
        <ele>169.6</ele>
        <time>2025-10-05T08:23:41.000Z</time>
      </trkpt>
      <trkpt lat="49.59375" lon="3.44078">
        <ele>169.5</ele>
        <time>2025-10-05T08:23:42.000Z</time>
      </trkpt>
      <trkpt lat="49.59375" lon="3.44079">
        <ele>169.2</ele>
        <time>2025-10-05T08:23:43.000Z</time>
      </trkpt>
      <trkpt lat="49.59375" lon="3.4408">
        <ele>168.8</ele>
        <time>2025-10-05T08:23:44.000Z</time>
      </trkpt>
      <trkpt lat="49.59374" lon="3.44081">
        <ele>168.2</ele>
        <time>2025-10-05T08:23:45.000Z</time>
      </trkpt>
      <trkpt lat="49.59374" lon="3.44082">
        <ele>167.8</ele>
        <time>2025-10-05T08:23:46.000Z</time>
      </trkpt>
      <trkpt lat="49.59373" lon="3.44084">
        <ele>167.5</ele>
        <time>2025-10-05T08:23:47.000Z</time>
      </trkpt>
      <trkpt lat="49.59373" lon="3.44085">
        <ele>167.2</ele>
        <time>2025-10-05T08:23:48.000Z</time>
      </trkpt>
      <trkpt lat="49.59372" lon="3.44086">
        <ele>166.9</ele>
        <time>2025-10-05T08:23:49.000Z</time>
      </trkpt>
      <trkpt lat="49.59371" lon="3.44088">
        <ele>166.7</ele>
        <time>2025-10-05T08:23:50.000Z</time>
      </trkpt>
      <trkpt lat="49.59371" lon="3.44089">
        <ele>166.6</ele>
        <time>2025-10-05T08:23:51.000Z</time>
      </trkpt>
      <trkpt lat="49.5937" lon="3.4409">
        <ele>166.5</ele>
        <time>2025-10-05T08:23:52.000Z</time>
      </trkpt>
      <trkpt lat="49.59369" lon="3.44092">
        <ele>166.4</ele>
        <time>2025-10-05T08:23:53.000Z</time>
      </trkpt>
      <trkpt lat="49.59368" lon="3.44093">
        <ele>166.5</ele>
        <time>2025-10-05T08:23:54.000Z</time>
      </trkpt>
      <trkpt lat="49.59367" lon="3.44094">
        <ele>166.7</ele>
        <time>2025-10-05T08:23:55.000Z</time>
      </trkpt>
      <trkpt lat="49.59366" lon="3.44095">
        <ele>167</ele>
        <time>2025-10-05T08:23:56.000Z</time>
      </trkpt>
      <trkpt lat="49.59366" lon="3.44096">
        <ele>167.2</ele>
        <time>2025-10-05T08:23:57.000Z</time>
      </trkpt>
      <trkpt lat="49.59365" lon="3.44097">
        <ele>167.4</ele>
        <time>2025-10-05T08:23:58.000Z</time>
      </trkpt>
      <trkpt lat="49.59365" lon="3.44099">
        <ele>167.4</ele>
        <time>2025-10-05T08:23:59.000Z</time>
      </trkpt>
      <trkpt lat="49.59364" lon="3.441">
        <ele>167.5</ele>
        <time>2025-10-05T08:24:00.000Z</time>
      </trkpt>
      <trkpt lat="49.59363" lon="3.44102">
        <ele>167.8</ele>
        <time>2025-10-05T08:24:01.000Z</time>
      </trkpt>
      <trkpt lat="49.59361" lon="3.44103">
        <ele>168</ele>
        <time>2025-10-05T08:24:02.000Z</time>
      </trkpt>
      <trkpt lat="49.5936" lon="3.44104">
        <ele>168.3</ele>
        <time>2025-10-05T08:24:03.000Z</time>
      </trkpt>
      <trkpt lat="49.59359" lon="3.44105">
        <ele>168.6</ele>
        <time>2025-10-05T08:24:04.000Z</time>
      </trkpt>
      <trkpt lat="49.59358" lon="3.44107">
        <ele>168.8</ele>
        <time>2025-10-05T08:24:05.000Z</time>
      </trkpt>
      <trkpt lat="49.59358" lon="3.44108">
        <ele>168.5</ele>
        <time>2025-10-05T08:24:06.000Z</time>
      </trkpt>
      <trkpt lat="49.59358" lon="3.44109">
        <ele>168.7</ele>
        <time>2025-10-05T08:24:07.000Z</time>
      </trkpt>
      <trkpt lat="49.59358" lon="3.4411">
        <ele>168.6</ele>
        <time>2025-10-05T08:24:08.000Z</time>
      </trkpt>
      <trkpt lat="49.59357" lon="3.4411">
        <ele>168.5</ele>
        <time>2025-10-05T08:24:09.000Z</time>
      </trkpt>
      <trkpt lat="49.59357" lon="3.44111">
        <ele>168.6</ele>
        <time>2025-10-05T08:24:10.000Z</time>
      </trkpt>
      <trkpt lat="49.59356" lon="3.44113">
        <ele>168.7</ele>
        <time>2025-10-05T08:24:11.000Z</time>
      </trkpt>
      <trkpt lat="49.59355" lon="3.44114">
        <ele>169.1</ele>
        <time>2025-10-05T08:24:12.000Z</time>
      </trkpt>
      <trkpt lat="49.59354" lon="3.44116">
        <ele>169.6</ele>
        <time>2025-10-05T08:24:13.000Z</time>
      </trkpt>
      <trkpt lat="49.59353" lon="3.44117">
        <ele>170.1</ele>
        <time>2025-10-05T08:24:14.000Z</time>
      </trkpt>
      <trkpt lat="49.59353" lon="3.44118">
        <ele>170.2</ele>
        <time>2025-10-05T08:24:15.000Z</time>
      </trkpt>
      <trkpt lat="49.59352" lon="3.44119">
        <ele>170.2</ele>
        <time>2025-10-05T08:24:16.000Z</time>
      </trkpt>
      <trkpt lat="49.59351" lon="3.4412">
        <ele>170.1</ele>
        <time>2025-10-05T08:24:17.000Z</time>
      </trkpt>
      <trkpt lat="49.59351" lon="3.44122">
        <ele>169.9</ele>
        <time>2025-10-05T08:24:18.000Z</time>
      </trkpt>
      <trkpt lat="49.59351" lon="3.44123">
        <ele>169.8</ele>
        <time>2025-10-05T08:24:19.000Z</time>
      </trkpt>
      <trkpt lat="49.5935" lon="3.44124">
        <ele>169.7</ele>
        <time>2025-10-05T08:24:20.000Z</time>
      </trkpt>
      <trkpt lat="49.5935" lon="3.44124">
        <ele>169.7</ele>
        <time>2025-10-05T08:24:21.000Z</time>
      </trkpt>
      <trkpt lat="49.5935" lon="3.44124">
        <ele>169.7</ele>
        <time>2025-10-05T08:24:22.000Z</time>
      </trkpt>
      <trkpt lat="49.59349" lon="3.44125">
        <ele>169.4</ele>
        <time>2025-10-05T08:24:23.000Z</time>
      </trkpt>
      <trkpt lat="49.59349" lon="3.44126">
        <ele>169.3</ele>
        <time>2025-10-05T08:24:24.000Z</time>
      </trkpt>
      <trkpt lat="49.59349" lon="3.44127">
        <ele>169.2</ele>
        <time>2025-10-05T08:24:25.000Z</time>
      </trkpt>
      <trkpt lat="49.59349" lon="3.44128">
        <ele>169.3</ele>
        <time>2025-10-05T08:24:26.000Z</time>
      </trkpt>
      <trkpt lat="49.59349" lon="3.4413">
        <ele>169.3</ele>
        <time>2025-10-05T08:24:27.000Z</time>
      </trkpt>
      <trkpt lat="49.59348" lon="3.44132">
        <ele>169.3</ele>
        <time>2025-10-05T08:24:28.000Z</time>
      </trkpt>
      <trkpt lat="49.59348" lon="3.44134">
        <ele>169.2</ele>
        <time>2025-10-05T08:24:29.000Z</time>
      </trkpt>
      <trkpt lat="49.59348" lon="3.44135">
        <ele>169.1</ele>
        <time>2025-10-05T08:24:30.000Z</time>
      </trkpt>
      <trkpt lat="49.59347" lon="3.44136">
        <ele>168.9</ele>
        <time>2025-10-05T08:24:31.000Z</time>
      </trkpt>
      <trkpt lat="49.59347" lon="3.44137">
        <ele>168.9</ele>
        <time>2025-10-05T08:24:32.000Z</time>
      </trkpt>
      <trkpt lat="49.59346" lon="3.44139">
        <ele>168.6</ele>
        <time>2025-10-05T08:24:33.000Z</time>
      </trkpt>
      <trkpt lat="49.59345" lon="3.4414">
        <ele>168.6</ele>
        <time>2025-10-05T08:24:34.000Z</time>
      </trkpt>
      <trkpt lat="49.59344" lon="3.44142">
        <ele>168.6</ele>
        <time>2025-10-05T08:24:35.000Z</time>
      </trkpt>
      <trkpt lat="49.59343" lon="3.44143">
        <ele>168.5</ele>
        <time>2025-10-05T08:24:36.000Z</time>
      </trkpt>
      <trkpt lat="49.59342" lon="3.44144">
        <ele>168.4</ele>
        <time>2025-10-05T08:24:37.000Z</time>
      </trkpt>
      <trkpt lat="49.59341" lon="3.44145">
        <ele>168.4</ele>
        <time>2025-10-05T08:24:38.000Z</time>
      </trkpt>
      <trkpt lat="49.59341" lon="3.44146">
        <ele>168.4</ele>
        <time>2025-10-05T08:24:39.000Z</time>
      </trkpt>
      <trkpt lat="49.5934" lon="3.44148">
        <ele>168.4</ele>
        <time>2025-10-05T08:24:40.000Z</time>
      </trkpt>
      <trkpt lat="49.59341" lon="3.44149">
        <ele>168.4</ele>
        <time>2025-10-05T08:24:41.000Z</time>
      </trkpt>
      <trkpt lat="49.5934" lon="3.4415">
        <ele>168.4</ele>
        <time>2025-10-05T08:24:42.000Z</time>
      </trkpt>
      <trkpt lat="49.5934" lon="3.44151">
        <ele>168.3</ele>
        <time>2025-10-05T08:24:43.000Z</time>
      </trkpt>
      <trkpt lat="49.59339" lon="3.44152">
        <ele>168.3</ele>
        <time>2025-10-05T08:24:44.000Z</time>
      </trkpt>
      <trkpt lat="49.59339" lon="3.44153">
        <ele>168.5</ele>
        <time>2025-10-05T08:24:45.000Z</time>
      </trkpt>
      <trkpt lat="49.59338" lon="3.44154">
        <ele>168.8</ele>
        <time>2025-10-05T08:24:46.000Z</time>
      </trkpt>
      <trkpt lat="49.59338" lon="3.44156">
        <ele>169</ele>
        <time>2025-10-05T08:24:47.000Z</time>
      </trkpt>
      <trkpt lat="49.59337" lon="3.44157">
        <ele>169.1</ele>
        <time>2025-10-05T08:24:48.000Z</time>
      </trkpt>
      <trkpt lat="49.59336" lon="3.44158">
        <ele>169.3</ele>
        <time>2025-10-05T08:24:49.000Z</time>
      </trkpt>
      <trkpt lat="49.59336" lon="3.4416">
        <ele>169.4</ele>
        <time>2025-10-05T08:24:50.000Z</time>
      </trkpt>
      <trkpt lat="49.59335" lon="3.44162">
        <ele>169.4</ele>
        <time>2025-10-05T08:24:51.000Z</time>
      </trkpt>
      <trkpt lat="49.59334" lon="3.44163">
        <ele>169.3</ele>
        <time>2025-10-05T08:24:52.000Z</time>
      </trkpt>
      <trkpt lat="49.59334" lon="3.44164">
        <ele>169.3</ele>
        <time>2025-10-05T08:24:53.000Z</time>
      </trkpt>
      <trkpt lat="49.59334" lon="3.44166">
        <ele>169.1</ele>
        <time>2025-10-05T08:24:54.000Z</time>
      </trkpt>
      <trkpt lat="49.59333" lon="3.44166">
        <ele>169</ele>
        <time>2025-10-05T08:24:55.000Z</time>
      </trkpt>
      <trkpt lat="49.59333" lon="3.44168">
        <ele>168.8</ele>
        <time>2025-10-05T08:24:56.000Z</time>
      </trkpt>
      <trkpt lat="49.59333" lon="3.44169">
        <ele>168.7</ele>
        <time>2025-10-05T08:24:57.000Z</time>
      </trkpt>
      <trkpt lat="49.59333" lon="3.44171">
        <ele>168.7</ele>
        <time>2025-10-05T08:24:58.000Z</time>
      </trkpt>
      <trkpt lat="49.59332" lon="3.44172">
        <ele>168.8</ele>
        <time>2025-10-05T08:24:59.000Z</time>
      </trkpt>
      <trkpt lat="49.59332" lon="3.44174">
        <ele>168.8</ele>
        <time>2025-10-05T08:25:00.000Z</time>
      </trkpt>
      <trkpt lat="49.59331" lon="3.44176">
        <ele>168.7</ele>
        <time>2025-10-05T08:25:01.000Z</time>
      </trkpt>
      <trkpt lat="49.5933" lon="3.44177">
        <ele>168.5</ele>
        <time>2025-10-05T08:25:02.000Z</time>
      </trkpt>
      <trkpt lat="49.59329" lon="3.44179">
        <ele>168.5</ele>
        <time>2025-10-05T08:25:03.000Z</time>
      </trkpt>
      <trkpt lat="49.59327" lon="3.4418">
        <ele>168.5</ele>
        <time>2025-10-05T08:25:04.000Z</time>
      </trkpt>
      <trkpt lat="49.59326" lon="3.44181">
        <ele>168.7</ele>
        <time>2025-10-05T08:25:05.000Z</time>
      </trkpt>
      <trkpt lat="49.59325" lon="3.44182">
        <ele>169</ele>
        <time>2025-10-05T08:25:06.000Z</time>
      </trkpt>
      <trkpt lat="49.59323" lon="3.44183">
        <ele>169.3</ele>
        <time>2025-10-05T08:25:07.000Z</time>
      </trkpt>
      <trkpt lat="49.59323" lon="3.44184">
        <ele>169.6</ele>
        <time>2025-10-05T08:25:08.000Z</time>
      </trkpt>
      <trkpt lat="49.59322" lon="3.44185">
        <ele>169.4</ele>
        <time>2025-10-05T08:25:09.000Z</time>
      </trkpt>
      <trkpt lat="49.59322" lon="3.44186">
        <ele>169.4</ele>
        <time>2025-10-05T08:25:10.000Z</time>
      </trkpt>
      <trkpt lat="49.59322" lon="3.44186">
        <ele>169.5</ele>
        <time>2025-10-05T08:25:11.000Z</time>
      </trkpt>
      <trkpt lat="49.59321" lon="3.44187">
        <ele>169.5</ele>
        <time>2025-10-05T08:25:12.000Z</time>
      </trkpt>
      <trkpt lat="49.5932" lon="3.44188">
        <ele>169.6</ele>
        <time>2025-10-05T08:25:13.000Z</time>
      </trkpt>
      <trkpt lat="49.59319" lon="3.44189">
        <ele>169.6</ele>
        <time>2025-10-05T08:25:14.000Z</time>
      </trkpt>
      <trkpt lat="49.59318" lon="3.4419">
        <ele>169.3</ele>
        <time>2025-10-05T08:25:15.000Z</time>
      </trkpt>
      <trkpt lat="49.59317" lon="3.44191">
        <ele>169.2</ele>
        <time>2025-10-05T08:25:16.000Z</time>
      </trkpt>
      <trkpt lat="49.59316" lon="3.44192">
        <ele>169.4</ele>
        <time>2025-10-05T08:25:17.000Z</time>
      </trkpt>
      <trkpt lat="49.59315" lon="3.44193">
        <ele>169.6</ele>
        <time>2025-10-05T08:25:18.000Z</time>
      </trkpt>
      <trkpt lat="49.59315" lon="3.44194">
        <ele>169.7</ele>
        <time>2025-10-05T08:25:19.000Z</time>
      </trkpt>
      <trkpt lat="49.59314" lon="3.44194">
        <ele>170</ele>
        <time>2025-10-05T08:25:20.000Z</time>
      </trkpt>
      <trkpt lat="49.59313" lon="3.44194">
        <ele>170.1</ele>
        <time>2025-10-05T08:25:21.000Z</time>
      </trkpt>
      <trkpt lat="49.59313" lon="3.44195">
        <ele>170.2</ele>
        <time>2025-10-05T08:25:22.000Z</time>
      </trkpt>
      <trkpt lat="49.59312" lon="3.44196">
        <ele>170.3</ele>
        <time>2025-10-05T08:25:23.000Z</time>
      </trkpt>
      <trkpt lat="49.59311" lon="3.44197">
        <ele>170.2</ele>
        <time>2025-10-05T08:25:24.000Z</time>
      </trkpt>
      <trkpt lat="49.5931" lon="3.44198">
        <ele>170.1</ele>
        <time>2025-10-05T08:25:25.000Z</time>
      </trkpt>
      <trkpt lat="49.59309" lon="3.44198">
        <ele>170.2</ele>
        <time>2025-10-05T08:25:26.000Z</time>
      </trkpt>
      <trkpt lat="49.59307" lon="3.44199">
        <ele>170.1</ele>
        <time>2025-10-05T08:25:27.000Z</time>
      </trkpt>
      <trkpt lat="49.59306" lon="3.442">
        <ele>170</ele>
        <time>2025-10-05T08:25:28.000Z</time>
      </trkpt>
      <trkpt lat="49.59304" lon="3.44201">
        <ele>169.9</ele>
        <time>2025-10-05T08:25:29.000Z</time>
      </trkpt>
      <trkpt lat="49.59303" lon="3.44202">
        <ele>170</ele>
        <time>2025-10-05T08:25:30.000Z</time>
      </trkpt>
      <trkpt lat="49.59302" lon="3.44203">
        <ele>170</ele>
        <time>2025-10-05T08:25:31.000Z</time>
      </trkpt>
      <trkpt lat="49.59301" lon="3.44204">
        <ele>170.1</ele>
        <time>2025-10-05T08:25:32.000Z</time>
      </trkpt>
      <trkpt lat="49.59301" lon="3.44205">
        <ele>170</ele>
        <time>2025-10-05T08:25:33.000Z</time>
      </trkpt>
      <trkpt lat="49.593" lon="3.44206">
        <ele>169.9</ele>
        <time>2025-10-05T08:25:34.000Z</time>
      </trkpt>
      <trkpt lat="49.59299" lon="3.44207">
        <ele>169.9</ele>
        <time>2025-10-05T08:25:35.000Z</time>
      </trkpt>
      <trkpt lat="49.59298" lon="3.44207">
        <ele>169.9</ele>
        <time>2025-10-05T08:25:36.000Z</time>
      </trkpt>
      <trkpt lat="49.59298" lon="3.44208">
        <ele>169.9</ele>
        <time>2025-10-05T08:25:37.000Z</time>
      </trkpt>
      <trkpt lat="49.59297" lon="3.44209">
        <ele>170</ele>
        <time>2025-10-05T08:25:38.000Z</time>
      </trkpt>
      <trkpt lat="49.59297" lon="3.44209">
        <ele>170</ele>
        <time>2025-10-05T08:25:39.000Z</time>
      </trkpt>
      <trkpt lat="49.59295" lon="3.4421">
        <ele>170</ele>
        <time>2025-10-05T08:25:40.000Z</time>
      </trkpt>
      <trkpt lat="49.59294" lon="3.44211">
        <ele>170</ele>
        <time>2025-10-05T08:25:41.000Z</time>
      </trkpt>
      <trkpt lat="49.59294" lon="3.44211">
        <ele>170</ele>
        <time>2025-10-05T08:25:42.000Z</time>
      </trkpt>
      <trkpt lat="49.59293" lon="3.44211">
        <ele>170</ele>
        <time>2025-10-05T08:25:43.000Z</time>
      </trkpt>
      <trkpt lat="49.59293" lon="3.44212">
        <ele>169.9</ele>
        <time>2025-10-05T08:25:44.000Z</time>
      </trkpt>
      <trkpt lat="49.59293" lon="3.44212">
        <ele>169.8</ele>
        <time>2025-10-05T08:25:45.000Z</time>
      </trkpt>
      <trkpt lat="49.59292" lon="3.44212">
        <ele>169.8</ele>
        <time>2025-10-05T08:25:46.000Z</time>
      </trkpt>
      <trkpt lat="49.59292" lon="3.44213">
        <ele>170</ele>
        <time>2025-10-05T08:25:47.000Z</time>
      </trkpt>
      <trkpt lat="49.59291" lon="3.44213">
        <ele>170.1</ele>
        <time>2025-10-05T08:25:48.000Z</time>
      </trkpt>
      <trkpt lat="49.5929" lon="3.44213">
        <ele>170.3</ele>
        <time>2025-10-05T08:25:49.000Z</time>
      </trkpt>
      <trkpt lat="49.59289" lon="3.44213">
        <ele>170.4</ele>
        <time>2025-10-05T08:25:50.000Z</time>
      </trkpt>
      <trkpt lat="49.59288" lon="3.44213">
        <ele>170.4</ele>
        <time>2025-10-05T08:25:51.000Z</time>
      </trkpt>
      <trkpt lat="49.59288" lon="3.44213">
        <ele>170.6</ele>
        <time>2025-10-05T08:25:52.000Z</time>
      </trkpt>
      <trkpt lat="49.59287" lon="3.44214">
        <ele>170.7</ele>
        <time>2025-10-05T08:25:53.000Z</time>
      </trkpt>
      <trkpt lat="49.59286" lon="3.44215">
        <ele>170.9</ele>
        <time>2025-10-05T08:25:54.000Z</time>
      </trkpt>
      <trkpt lat="49.59285" lon="3.44216">
        <ele>171.1</ele>
        <time>2025-10-05T08:25:55.000Z</time>
      </trkpt>
      <trkpt lat="49.59284" lon="3.44217">
        <ele>171.3</ele>
        <time>2025-10-05T08:25:56.000Z</time>
      </trkpt>
      <trkpt lat="49.59283" lon="3.44218">
        <ele>171.3</ele>
        <time>2025-10-05T08:25:57.000Z</time>
      </trkpt>
      <trkpt lat="49.59282" lon="3.44218">
        <ele>171.2</ele>
        <time>2025-10-05T08:25:58.000Z</time>
      </trkpt>
      <trkpt lat="49.59281" lon="3.44218">
        <ele>171.1</ele>
        <time>2025-10-05T08:25:59.000Z</time>
      </trkpt>
      <trkpt lat="49.59281" lon="3.44219">
        <ele>171.1</ele>
        <time>2025-10-05T08:26:00.000Z</time>
      </trkpt>
      <trkpt lat="49.59279" lon="3.44219">
        <ele>171.1</ele>
        <time>2025-10-05T08:26:01.000Z</time>
      </trkpt>
      <trkpt lat="49.59278" lon="3.44218">
        <ele>171</ele>
        <time>2025-10-05T08:26:02.000Z</time>
      </trkpt>
      <trkpt lat="49.59276" lon="3.44218">
        <ele>170.9</ele>
        <time>2025-10-05T08:26:03.000Z</time>
      </trkpt>
      <trkpt lat="49.59275" lon="3.44217">
        <ele>170.9</ele>
        <time>2025-10-05T08:26:04.000Z</time>
      </trkpt>
      <trkpt lat="49.59274" lon="3.44217">
        <ele>170.7</ele>
        <time>2025-10-05T08:26:05.000Z</time>
      </trkpt>
      <trkpt lat="49.59274" lon="3.44216">
        <ele>170.2</ele>
        <time>2025-10-05T08:26:06.000Z</time>
      </trkpt>
      <trkpt lat="49.59273" lon="3.44216">
        <ele>169.8</ele>
        <time>2025-10-05T08:26:07.000Z</time>
      </trkpt>
      <trkpt lat="49.59272" lon="3.44216">
        <ele>169.3</ele>
        <time>2025-10-05T08:26:08.000Z</time>
      </trkpt>
      <trkpt lat="49.59272" lon="3.44216">
        <ele>168.8</ele>
        <time>2025-10-05T08:26:09.000Z</time>
      </trkpt>
      <trkpt lat="49.59271" lon="3.44215">
        <ele>168.3</ele>
        <time>2025-10-05T08:26:10.000Z</time>
      </trkpt>
      <trkpt lat="49.5927" lon="3.44214">
        <ele>167.6</ele>
        <time>2025-10-05T08:26:11.000Z</time>
      </trkpt>
      <trkpt lat="49.59269" lon="3.44214">
        <ele>167.1</ele>
        <time>2025-10-05T08:26:12.000Z</time>
      </trkpt>
      <trkpt lat="49.59269" lon="3.44213">
        <ele>166.7</ele>
        <time>2025-10-05T08:26:13.000Z</time>
      </trkpt>
      <trkpt lat="49.59268" lon="3.44212">
        <ele>166.6</ele>
        <time>2025-10-05T08:26:14.000Z</time>
      </trkpt>
      <trkpt lat="49.59266" lon="3.44211">
        <ele>167</ele>
        <time>2025-10-05T08:26:15.000Z</time>
      </trkpt>
      <trkpt lat="49.59265" lon="3.4421">
        <ele>167.2</ele>
        <time>2025-10-05T08:26:16.000Z</time>
      </trkpt>
      <trkpt lat="49.59264" lon="3.44209">
        <ele>167.6</ele>
        <time>2025-10-05T08:26:17.000Z</time>
      </trkpt>
      <trkpt lat="49.59263" lon="3.44208">
        <ele>167.9</ele>
        <time>2025-10-05T08:26:18.000Z</time>
      </trkpt>
      <trkpt lat="49.59262" lon="3.44207">
        <ele>168.1</ele>
        <time>2025-10-05T08:26:19.000Z</time>
      </trkpt>
      <trkpt lat="49.59262" lon="3.44206">
        <ele>168.4</ele>
        <time>2025-10-05T08:26:20.000Z</time>
      </trkpt>
      <trkpt lat="49.59261" lon="3.44205">
        <ele>168.6</ele>
        <time>2025-10-05T08:26:21.000Z</time>
      </trkpt>
      <trkpt lat="49.59261" lon="3.44205">
        <ele>168.8</ele>
        <time>2025-10-05T08:26:22.000Z</time>
      </trkpt>
      <trkpt lat="49.5926" lon="3.44205">
        <ele>168.9</ele>
        <time>2025-10-05T08:26:23.000Z</time>
      </trkpt>
      <trkpt lat="49.59259" lon="3.44204">
        <ele>168.8</ele>
        <time>2025-10-05T08:26:24.000Z</time>
      </trkpt>
      <trkpt lat="49.59258" lon="3.44204">
        <ele>168.6</ele>
        <time>2025-10-05T08:26:25.000Z</time>
      </trkpt>
      <trkpt lat="49.59257" lon="3.44203">
        <ele>168.5</ele>
        <time>2025-10-05T08:26:26.000Z</time>
      </trkpt>
      <trkpt lat="49.59256" lon="3.44203">
        <ele>168.7</ele>
        <time>2025-10-05T08:26:27.000Z</time>
      </trkpt>
      <trkpt lat="49.59256" lon="3.44203">
        <ele>168.7</ele>
        <time>2025-10-05T08:26:28.000Z</time>
      </trkpt>
      <trkpt lat="49.59255" lon="3.44202">
        <ele>168.7</ele>
        <time>2025-10-05T08:26:29.000Z</time>
      </trkpt>
      <trkpt lat="49.59255" lon="3.44201">
        <ele>168.8</ele>
        <time>2025-10-05T08:26:30.000Z</time>
      </trkpt>
      <trkpt lat="49.59255" lon="3.44201">
        <ele>169.1</ele>
        <time>2025-10-05T08:26:31.000Z</time>
      </trkpt>
      <trkpt lat="49.59254" lon="3.442">
        <ele>169.3</ele>
        <time>2025-10-05T08:26:32.000Z</time>
      </trkpt>
      <trkpt lat="49.59253" lon="3.44199">
        <ele>169.5</ele>
        <time>2025-10-05T08:26:33.000Z</time>
      </trkpt>
      <trkpt lat="49.59252" lon="3.44198">
        <ele>169.8</ele>
        <time>2025-10-05T08:26:34.000Z</time>
      </trkpt>
      <trkpt lat="49.59251" lon="3.44197">
        <ele>170</ele>
        <time>2025-10-05T08:26:35.000Z</time>
      </trkpt>
      <trkpt lat="49.5925" lon="3.44197">
        <ele>170.1</ele>
        <time>2025-10-05T08:26:36.000Z</time>
      </trkpt>
      <trkpt lat="49.5925" lon="3.44197">
        <ele>170.3</ele>
        <time>2025-10-05T08:26:37.000Z</time>
      </trkpt>
      <trkpt lat="49.59249" lon="3.44197">
        <ele>170.7</ele>
        <time>2025-10-05T08:26:38.000Z</time>
      </trkpt>
      <trkpt lat="49.59248" lon="3.44196">
        <ele>171.1</ele>
        <time>2025-10-05T08:26:39.000Z</time>
      </trkpt>
      <trkpt lat="49.59247" lon="3.44195">
        <ele>171.3</ele>
        <time>2025-10-05T08:26:40.000Z</time>
      </trkpt>
      <trkpt lat="49.59247" lon="3.44195">
        <ele>171.4</ele>
        <time>2025-10-05T08:26:41.000Z</time>
      </trkpt>
      <trkpt lat="49.59246" lon="3.44194">
        <ele>171.3</ele>
        <time>2025-10-05T08:26:42.000Z</time>
      </trkpt>
      <trkpt lat="49.59246" lon="3.44193">
        <ele>171.3</ele>
        <time>2025-10-05T08:26:43.000Z</time>
      </trkpt>
      <trkpt lat="49.59245" lon="3.44193">
        <ele>171</ele>
        <time>2025-10-05T08:26:44.000Z</time>
      </trkpt>
      <trkpt lat="49.59244" lon="3.44192">
        <ele>171.2</ele>
        <time>2025-10-05T08:26:45.000Z</time>
      </trkpt>
      <trkpt lat="49.59243" lon="3.44192">
        <ele>171.5</ele>
        <time>2025-10-05T08:26:46.000Z</time>
      </trkpt>
      <trkpt lat="49.59243" lon="3.44192">
        <ele>171.8</ele>
        <time>2025-10-05T08:26:47.000Z</time>
      </trkpt>
      <trkpt lat="49.59242" lon="3.44192">
        <ele>172</ele>
        <time>2025-10-05T08:26:48.000Z</time>
      </trkpt>
      <trkpt lat="49.59242" lon="3.44193">
        <ele>172.2</ele>
        <time>2025-10-05T08:26:49.000Z</time>
      </trkpt>
      <trkpt lat="49.59242" lon="3.44193">
        <ele>172.4</ele>
        <time>2025-10-05T08:26:50.000Z</time>
      </trkpt>
      <trkpt lat="49.59241" lon="3.44193">
        <ele>172.5</ele>
        <time>2025-10-05T08:26:51.000Z</time>
      </trkpt>
      <trkpt lat="49.59241" lon="3.44193">
        <ele>172.5</ele>
        <time>2025-10-05T08:26:52.000Z</time>
      </trkpt>
      <trkpt lat="49.59241" lon="3.44193">
        <ele>172.5</ele>
        <time>2025-10-05T08:26:53.000Z</time>
      </trkpt>
      <trkpt lat="49.59241" lon="3.44193">
        <ele>172.5</ele>
        <time>2025-10-05T08:26:54.000Z</time>
      </trkpt>
      <trkpt lat="49.59241" lon="3.44193">
        <ele>172.5</ele>
        <time>2025-10-05T08:26:55.000Z</time>
      </trkpt>
      <trkpt lat="49.59241" lon="3.44193">
        <ele>172.5</ele>
        <time>2025-10-05T08:26:56.000Z</time>
      </trkpt>
      <trkpt lat="49.59241" lon="3.44193">
        <ele>172.5</ele>
        <time>2025-10-05T08:26:57.000Z</time>
      </trkpt>
      <trkpt lat="49.59241" lon="3.44193">
        <ele>172.5</ele>
        <time>2025-10-05T08:26:58.000Z</time>
      </trkpt>
      <trkpt lat="49.59241" lon="3.44193">
        <ele>172.5</ele>
        <time>2025-10-05T08:26:59.000Z</time>
      </trkpt>
      <trkpt lat="49.59241" lon="3.44193">
        <ele>172.5</ele>
        <time>2025-10-05T08:27:00.000Z</time>
      </trkpt>
      <trkpt lat="49.59241" lon="3.44193">
        <ele>172.5</ele>
        <time>2025-10-05T08:27:01.000Z</time>
      </trkpt>
      <trkpt lat="49.59241" lon="3.44193">
        <ele>172.5</ele>
        <time>2025-10-05T08:27:02.000Z</time>
      </trkpt>
      <trkpt lat="49.59241" lon="3.44193">
        <ele>172.5</ele>
        <time>2025-10-05T08:27:03.000Z</time>
      </trkpt>
      <trkpt lat="49.59241" lon="3.44193">
        <ele>172.5</ele>
        <time>2025-10-05T08:27:04.000Z</time>
      </trkpt>
      <trkpt lat="49.59241" lon="3.44193">
        <ele>172.5</ele>
        <time>2025-10-05T08:27:05.000Z</time>
      </trkpt>
      <trkpt lat="49.59241" lon="3.44193">
        <ele>172.5</ele>
        <time>2025-10-05T08:27:06.000Z</time>
      </trkpt>
      <trkpt lat="49.59241" lon="3.44193">
        <ele>172.5</ele>
        <time>2025-10-05T08:27:07.000Z</time>
      </trkpt>
      <trkpt lat="49.59241" lon="3.44193">
        <ele>172.5</ele>
        <time>2025-10-05T08:27:08.000Z</time>
      </trkpt>
      <trkpt lat="49.59241" lon="3.44193">
        <ele>172.5</ele>
        <time>2025-10-05T08:27:09.000Z</time>
      </trkpt>
      <trkpt lat="49.59241" lon="3.44193">
        <ele>172.5</ele>
        <time>2025-10-05T08:27:10.000Z</time>
      </trkpt>
      <trkpt lat="49.59241" lon="3.44193">
        <ele>172.5</ele>
        <time>2025-10-05T08:27:11.000Z</time>
      </trkpt>
      <trkpt lat="49.59241" lon="3.44193">
        <ele>172.5</ele>
        <time>2025-10-05T08:27:12.000Z</time>
      </trkpt>
      <trkpt lat="49.59241" lon="3.44193">
        <ele>172.5</ele>
        <time>2025-10-05T08:27:13.000Z</time>
      </trkpt>
      <trkpt lat="49.59241" lon="3.44193">
        <ele>172.5</ele>
        <time>2025-10-05T08:27:14.000Z</time>
      </trkpt>
      <trkpt lat="49.59241" lon="3.44193">
        <ele>172.5</ele>
        <time>2025-10-05T08:27:15.000Z</time>
      </trkpt>
      <trkpt lat="49.59241" lon="3.44193">
        <ele>172.5</ele>
        <time>2025-10-05T08:27:16.000Z</time>
      </trkpt>
      <trkpt lat="49.59241" lon="3.44193">
        <ele>172.5</ele>
        <time>2025-10-05T08:27:17.000Z</time>
      </trkpt>
      <trkpt lat="49.59241" lon="3.44193">
        <ele>172.5</ele>
        <time>2025-10-05T08:27:18.000Z</time>
      </trkpt>
      <trkpt lat="49.59241" lon="3.44193">
        <ele>172.5</ele>
        <time>2025-10-05T08:27:19.000Z</time>
      </trkpt>
      <trkpt lat="49.59241" lon="3.44193">
        <ele>172.5</ele>
        <time>2025-10-05T08:27:20.000Z</time>
      </trkpt>
      <trkpt lat="49.59241" lon="3.44193">
        <ele>172.5</ele>
        <time>2025-10-05T08:27:21.000Z</time>
      </trkpt>
      <trkpt lat="49.59241" lon="3.44193">
        <ele>172.5</ele>
        <time>2025-10-05T08:27:22.000Z</time>
      </trkpt>
      <trkpt lat="49.59241" lon="3.44193">
        <ele>172.5</ele>
        <time>2025-10-05T08:27:23.000Z</time>
      </trkpt>
      <trkpt lat="49.59241" lon="3.44193">
        <ele>172.5</ele>
        <time>2025-10-05T08:27:24.000Z</time>
      </trkpt>
      <trkpt lat="49.59241" lon="3.44193">
        <ele>172.5</ele>
        <time>2025-10-05T08:27:25.000Z</time>
      </trkpt>
      <trkpt lat="49.59241" lon="3.44193">
        <ele>172.5</ele>
        <time>2025-10-05T08:27:26.000Z</time>
      </trkpt>
      <trkpt lat="49.59241" lon="3.44193">
        <ele>172.5</ele>
        <time>2025-10-05T08:27:27.000Z</time>
      </trkpt>
      <trkpt lat="49.59241" lon="3.44193">
        <ele>172.5</ele>
        <time>2025-10-05T08:27:28.000Z</time>
      </trkpt>
      <trkpt lat="49.59241" lon="3.44193">
        <ele>172.5</ele>
        <time>2025-10-05T08:27:29.000Z</time>
      </trkpt>
      <trkpt lat="49.59241" lon="3.44193">
        <ele>172.5</ele>
        <time>2025-10-05T08:27:30.000Z</time>
      </trkpt>
      <trkpt lat="49.59241" lon="3.44193">
        <ele>172.5</ele>
        <time>2025-10-05T08:27:31.000Z</time>
      </trkpt>
      <trkpt lat="49.59241" lon="3.44193">
        <ele>172.5</ele>
        <time>2025-10-05T08:27:32.000Z</time>
      </trkpt>
      <trkpt lat="49.59241" lon="3.44193">
        <ele>172.5</ele>
        <time>2025-10-05T08:27:33.000Z</time>
      </trkpt>
      <trkpt lat="49.59241" lon="3.44193">
        <ele>172.5</ele>
        <time>2025-10-05T08:27:34.000Z</time>
      </trkpt>
      <trkpt lat="49.59241" lon="3.44193">
        <ele>172.5</ele>
        <time>2025-10-05T08:27:35.000Z</time>
      </trkpt>
      <trkpt lat="49.59241" lon="3.44193">
        <ele>172.5</ele>
        <time>2025-10-05T08:27:36.000Z</time>
      </trkpt>
      <trkpt lat="49.59241" lon="3.44193">
        <ele>172.5</ele>
        <time>2025-10-05T08:27:37.000Z</time>
      </trkpt>
      <trkpt lat="49.59241" lon="3.44193">
        <ele>172.5</ele>
        <time>2025-10-05T08:27:38.000Z</time>
      </trkpt>
      <trkpt lat="49.59241" lon="3.44193">
        <ele>172.5</ele>
        <time>2025-10-05T08:27:39.000Z</time>
      </trkpt>
      <trkpt lat="49.59241" lon="3.44193">
        <ele>172.5</ele>
        <time>2025-10-05T08:27:40.000Z</time>
      </trkpt>
      <trkpt lat="49.59241" lon="3.44193">
        <ele>172.5</ele>
        <time>2025-10-05T08:27:41.000Z</time>
      </trkpt>
      <trkpt lat="49.59241" lon="3.44193">
        <ele>172.5</ele>
        <time>2025-10-05T08:27:42.000Z</time>
      </trkpt>
      <trkpt lat="49.59241" lon="3.44193">
        <ele>172.5</ele>
        <time>2025-10-05T08:27:43.000Z</time>
      </trkpt>
      <trkpt lat="49.59241" lon="3.44193">
        <ele>172.5</ele>
        <time>2025-10-05T08:27:44.000Z</time>
      </trkpt>
      <trkpt lat="49.59241" lon="3.44193">
        <ele>172.5</ele>
        <time>2025-10-05T08:27:45.000Z</time>
      </trkpt>
      <trkpt lat="49.59241" lon="3.44193">
        <ele>172.5</ele>
        <time>2025-10-05T08:27:46.000Z</time>
      </trkpt>
      <trkpt lat="49.59241" lon="3.44193">
        <ele>172.5</ele>
        <time>2025-10-05T08:27:47.000Z</time>
      </trkpt>
      <trkpt lat="49.59241" lon="3.44193">
        <ele>172.5</ele>
        <time>2025-10-05T08:27:48.000Z</time>
      </trkpt>
      <trkpt lat="49.59241" lon="3.44193">
        <ele>172.5</ele>
        <time>2025-10-05T08:27:49.000Z</time>
      </trkpt>
      <trkpt lat="49.59241" lon="3.44193">
        <ele>172.5</ele>
        <time>2025-10-05T08:27:50.000Z</time>
      </trkpt>
      <trkpt lat="49.59241" lon="3.44193">
        <ele>172.5</ele>
        <time>2025-10-05T08:27:51.000Z</time>
      </trkpt>
      <trkpt lat="49.59241" lon="3.44193">
        <ele>172.5</ele>
        <time>2025-10-05T08:27:52.000Z</time>
      </trkpt>
      <trkpt lat="49.59241" lon="3.44193">
        <ele>172.5</ele>
        <time>2025-10-05T08:27:53.000Z</time>
      </trkpt>
      <trkpt lat="49.59241" lon="3.44193">
        <ele>175.8</ele>
        <time>2025-10-05T08:27:54.000Z</time>
      </trkpt>
      <trkpt lat="49.59241" lon="3.44193">
        <ele>175.7</ele>
        <time>2025-10-05T08:27:55.000Z</time>
      </trkpt>
      <trkpt lat="49.59241" lon="3.44193">
        <ele>175.5</ele>
        <time>2025-10-05T08:27:56.000Z</time>
      </trkpt>
      <trkpt lat="49.59242" lon="3.44193">
        <ele>175.2</ele>
        <time>2025-10-05T08:27:57.000Z</time>
      </trkpt>
      <trkpt lat="49.59242" lon="3.44192">
        <ele>175</ele>
        <time>2025-10-05T08:27:58.000Z</time>
      </trkpt>
      <trkpt lat="49.59241" lon="3.44192">
        <ele>174.8</ele>
        <time>2025-10-05T08:27:59.000Z</time>
      </trkpt>
      <trkpt lat="49.59241" lon="3.44192">
        <ele>174.6</ele>
        <time>2025-10-05T08:28:00.000Z</time>
      </trkpt>
      <trkpt lat="49.59241" lon="3.44193">
        <ele>174.5</ele>
        <time>2025-10-05T08:28:01.000Z</time>
      </trkpt>
      <trkpt lat="49.5924" lon="3.44193">
        <ele>174.2</ele>
        <time>2025-10-05T08:28:02.000Z</time>
      </trkpt>
      <trkpt lat="49.5924" lon="3.44192">
        <ele>174.2</ele>
        <time>2025-10-05T08:28:03.000Z</time>
      </trkpt>
      <trkpt lat="49.5924" lon="3.44192">
        <ele>174.1</ele>
        <time>2025-10-05T08:28:04.000Z</time>
      </trkpt>
      <trkpt lat="49.59241" lon="3.44192">
        <ele>174.1</ele>
        <time>2025-10-05T08:28:05.000Z</time>
      </trkpt>
      <trkpt lat="49.59241" lon="3.44192">
        <ele>174.1</ele>
        <time>2025-10-05T08:28:06.000Z</time>
      </trkpt>
      <trkpt lat="49.59241" lon="3.44191">
        <ele>174.2</ele>
        <time>2025-10-05T08:28:07.000Z</time>
      </trkpt>
      <trkpt lat="49.59241" lon="3.44191">
        <ele>174.2</ele>
        <time>2025-10-05T08:28:08.000Z</time>
      </trkpt>
      <trkpt lat="49.59241" lon="3.44191">
        <ele>174.2</ele>
        <time>2025-10-05T08:28:09.000Z</time>
      </trkpt>
      <trkpt lat="49.59241" lon="3.44191">
        <ele>174.2</ele>
        <time>2025-10-05T08:28:10.000Z</time>
      </trkpt>
      <trkpt lat="49.59241" lon="3.44191">
        <ele>174.2</ele>
        <time>2025-10-05T08:28:11.000Z</time>
      </trkpt>
      <trkpt lat="49.59241" lon="3.44191">
        <ele>174.2</ele>
        <time>2025-10-05T08:28:12.000Z</time>
      </trkpt>
      <trkpt lat="49.59241" lon="3.44191">
        <ele>174.2</ele>
        <time>2025-10-05T08:28:13.000Z</time>
      </trkpt>
      <trkpt lat="49.59241" lon="3.44191">
        <ele>174.2</ele>
        <time>2025-10-05T08:28:14.000Z</time>
      </trkpt>
      <trkpt lat="49.59241" lon="3.44191">
        <ele>174.2</ele>
        <time>2025-10-05T08:28:15.000Z</time>
      </trkpt>
      <trkpt lat="49.59241" lon="3.44191">
        <ele>174.2</ele>
        <time>2025-10-05T08:28:16.000Z</time>
      </trkpt>
      <trkpt lat="49.59241" lon="3.44191">
        <ele>174.2</ele>
        <time>2025-10-05T08:28:17.000Z</time>
      </trkpt>
      <trkpt lat="49.59241" lon="3.44191">
        <ele>174.2</ele>
        <time>2025-10-05T08:28:18.000Z</time>
      </trkpt>
      <trkpt lat="49.59241" lon="3.44191">
        <ele>174.2</ele>
        <time>2025-10-05T08:28:19.000Z</time>
      </trkpt>
      <trkpt lat="49.59241" lon="3.44191">
        <ele>174.2</ele>
        <time>2025-10-05T08:28:20.000Z</time>
      </trkpt>
      <trkpt lat="49.59241" lon="3.44191">
        <ele>174.2</ele>
        <time>2025-10-05T08:28:21.000Z</time>
      </trkpt>
      <trkpt lat="49.59241" lon="3.44191">
        <ele>174.2</ele>
        <time>2025-10-05T08:28:22.000Z</time>
      </trkpt>
      <trkpt lat="49.59241" lon="3.44191">
        <ele>174.2</ele>
        <time>2025-10-05T08:28:23.000Z</time>
      </trkpt>
      <trkpt lat="49.59241" lon="3.44191">
        <ele>174.2</ele>
        <time>2025-10-05T08:28:24.000Z</time>
      </trkpt>
      <trkpt lat="49.59241" lon="3.44191">
        <ele>174.2</ele>
        <time>2025-10-05T08:28:25.000Z</time>
      </trkpt>
      <trkpt lat="49.59241" lon="3.44191">
        <ele>174.2</ele>
        <time>2025-10-05T08:28:26.000Z</time>
      </trkpt>
      <trkpt lat="49.59241" lon="3.44191">
        <ele>174.2</ele>
        <time>2025-10-05T08:28:27.000Z</time>
      </trkpt>
      <trkpt lat="49.59241" lon="3.44191">
        <ele>174.2</ele>
        <time>2025-10-05T08:28:28.000Z</time>
      </trkpt>
      <trkpt lat="49.59241" lon="3.44191">
        <ele>174.2</ele>
        <time>2025-10-05T08:28:29.000Z</time>
      </trkpt>
      <trkpt lat="49.59241" lon="3.44191">
        <ele>174.2</ele>
        <time>2025-10-05T08:28:30.000Z</time>
      </trkpt>
      <trkpt lat="49.59241" lon="3.44191">
        <ele>174.2</ele>
        <time>2025-10-05T08:28:31.000Z</time>
      </trkpt>
      <trkpt lat="49.59241" lon="3.44191">
        <ele>174.2</ele>
        <time>2025-10-05T08:28:32.000Z</time>
      </trkpt>
      <trkpt lat="49.59241" lon="3.44191">
        <ele>174.2</ele>
        <time>2025-10-05T08:28:33.000Z</time>
      </trkpt>
      <trkpt lat="49.59241" lon="3.44191">
        <ele>174.2</ele>
        <time>2025-10-05T08:28:34.000Z</time>
      </trkpt>
      <trkpt lat="49.59241" lon="3.44191">
        <ele>174.2</ele>
        <time>2025-10-05T08:28:35.000Z</time>
      </trkpt>
      <trkpt lat="49.59241" lon="3.44191">
        <ele>174.2</ele>
        <time>2025-10-05T08:28:36.000Z</time>
      </trkpt>
      <trkpt lat="49.59241" lon="3.44191">
        <ele>174.2</ele>
        <time>2025-10-05T08:28:37.000Z</time>
      </trkpt>
      <trkpt lat="49.59241" lon="3.44191">
        <ele>174.2</ele>
        <time>2025-10-05T08:28:38.000Z</time>
      </trkpt>
      <trkpt lat="49.59241" lon="3.44191">
        <ele>174.2</ele>
        <time>2025-10-05T08:28:39.000Z</time>
      </trkpt>
      <trkpt lat="49.59241" lon="3.44191">
        <ele>174.2</ele>
        <time>2025-10-05T08:28:40.000Z</time>
      </trkpt>
      <trkpt lat="49.59241" lon="3.44191">
        <ele>174.2</ele>
        <time>2025-10-05T08:28:41.000Z</time>
      </trkpt>
      <trkpt lat="49.59241" lon="3.44191">
        <ele>174.2</ele>
        <time>2025-10-05T08:28:42.000Z</time>
      </trkpt>
      <trkpt lat="49.59241" lon="3.44191">
        <ele>174.2</ele>
        <time>2025-10-05T08:28:43.000Z</time>
      </trkpt>
      <trkpt lat="49.59241" lon="3.44191">
        <ele>174.2</ele>
        <time>2025-10-05T08:28:44.000Z</time>
      </trkpt>
      <trkpt lat="49.59241" lon="3.44191">
        <ele>174.2</ele>
        <time>2025-10-05T08:28:45.000Z</time>
      </trkpt>
      <trkpt lat="49.59241" lon="3.44191">
        <ele>174.2</ele>
        <time>2025-10-05T08:28:46.000Z</time>
      </trkpt>
      <trkpt lat="49.59241" lon="3.44191">
        <ele>174.2</ele>
        <time>2025-10-05T08:28:47.000Z</time>
      </trkpt>
      <trkpt lat="49.59241" lon="3.44191">
        <ele>174.2</ele>
        <time>2025-10-05T08:28:48.000Z</time>
      </trkpt>
      <trkpt lat="49.59241" lon="3.44191">
        <ele>174.2</ele>
        <time>2025-10-05T08:28:49.000Z</time>
      </trkpt>
      <trkpt lat="49.59241" lon="3.44191">
        <ele>174.2</ele>
        <time>2025-10-05T08:28:50.000Z</time>
      </trkpt>
      <trkpt lat="49.59241" lon="3.44191">
        <ele>174.2</ele>
        <time>2025-10-05T08:28:51.000Z</time>
      </trkpt>
      <trkpt lat="49.59241" lon="3.44191">
        <ele>174.2</ele>
        <time>2025-10-05T08:28:52.000Z</time>
      </trkpt>
      <trkpt lat="49.59241" lon="3.44191">
        <ele>174.2</ele>
        <time>2025-10-05T08:28:53.000Z</time>
      </trkpt>
      <trkpt lat="49.59241" lon="3.44191">
        <ele>174.2</ele>
        <time>2025-10-05T08:28:54.000Z</time>
      </trkpt>
      <trkpt lat="49.59241" lon="3.44191">
        <ele>174.2</ele>
        <time>2025-10-05T08:28:55.000Z</time>
      </trkpt>
      <trkpt lat="49.59241" lon="3.44191">
        <ele>174.2</ele>
        <time>2025-10-05T08:28:56.000Z</time>
      </trkpt>
      <trkpt lat="49.59241" lon="3.44191">
        <ele>174.2</ele>
        <time>2025-10-05T08:28:57.000Z</time>
      </trkpt>
      <trkpt lat="49.59241" lon="3.44191">
        <ele>174.2</ele>
        <time>2025-10-05T08:28:58.000Z</time>
      </trkpt>
      <trkpt lat="49.59241" lon="3.44191">
        <ele>174.2</ele>
        <time>2025-10-05T08:28:59.000Z</time>
      </trkpt>
      <trkpt lat="49.59241" lon="3.44191">
        <ele>174.2</ele>
        <time>2025-10-05T08:29:00.000Z</time>
      </trkpt>
      <trkpt lat="49.59241" lon="3.44191">
        <ele>174.2</ele>
        <time>2025-10-05T08:29:01.000Z</time>
      </trkpt>
      <trkpt lat="49.59241" lon="3.44191">
        <ele>174.2</ele>
        <time>2025-10-05T08:29:02.000Z</time>
      </trkpt>
      <trkpt lat="49.59241" lon="3.44191">
        <ele>174.2</ele>
        <time>2025-10-05T08:29:03.000Z</time>
      </trkpt>
      <trkpt lat="49.59241" lon="3.44191">
        <ele>174.2</ele>
        <time>2025-10-05T08:29:04.000Z</time>
      </trkpt>
      <trkpt lat="49.59241" lon="3.44191">
        <ele>174.2</ele>
        <time>2025-10-05T08:29:05.000Z</time>
      </trkpt>
      <trkpt lat="49.59241" lon="3.44191">
        <ele>174.2</ele>
        <time>2025-10-05T08:29:06.000Z</time>
      </trkpt>
      <trkpt lat="49.59241" lon="3.44191">
        <ele>174.2</ele>
        <time>2025-10-05T08:29:07.000Z</time>
      </trkpt>
      <trkpt lat="49.59241" lon="3.44191">
        <ele>174.2</ele>
        <time>2025-10-05T08:29:08.000Z</time>
      </trkpt>
      <trkpt lat="49.59241" lon="3.44191">
        <ele>174.2</ele>
        <time>2025-10-05T08:29:09.000Z</time>
      </trkpt>
      <trkpt lat="49.59241" lon="3.44191">
        <ele>174.2</ele>
        <time>2025-10-05T08:29:10.000Z</time>
      </trkpt>
      <trkpt lat="49.59241" lon="3.44191">
        <ele>174.2</ele>
        <time>2025-10-05T08:29:11.000Z</time>
      </trkpt>
      <trkpt lat="49.59241" lon="3.44191">
        <ele>174.2</ele>
        <time>2025-10-05T08:29:12.000Z</time>
      </trkpt>
      <trkpt lat="49.59238" lon="3.44193">
        <ele>172.6</ele>
        <time>2025-10-05T08:29:13.000Z</time>
      </trkpt>
      <trkpt lat="49.59238" lon="3.44192">
        <ele>172.5</ele>
        <time>2025-10-05T08:29:14.000Z</time>
      </trkpt>
      <trkpt lat="49.59239" lon="3.44192">
        <ele>172.4</ele>
        <time>2025-10-05T08:29:15.000Z</time>
      </trkpt>
      <trkpt lat="49.59239" lon="3.44192">
        <ele>172.3</ele>
        <time>2025-10-05T08:29:16.000Z</time>
      </trkpt>
      <trkpt lat="49.59239" lon="3.44192">
        <ele>172.1</ele>
        <time>2025-10-05T08:29:17.000Z</time>
      </trkpt>
      <trkpt lat="49.59239" lon="3.44192">
        <ele>172</ele>
        <time>2025-10-05T08:29:18.000Z</time>
      </trkpt>
      <trkpt lat="49.59239" lon="3.44192">
        <ele>172</ele>
        <time>2025-10-05T08:29:19.000Z</time>
      </trkpt>
      <trkpt lat="49.59239" lon="3.44192">
        <ele>172</ele>
        <time>2025-10-05T08:29:20.000Z</time>
      </trkpt>
      <trkpt lat="49.59239" lon="3.44192">
        <ele>172</ele>
        <time>2025-10-05T08:29:21.000Z</time>
      </trkpt>
      <trkpt lat="49.59239" lon="3.44192">
        <ele>172</ele>
        <time>2025-10-05T08:29:22.000Z</time>
      </trkpt>
      <trkpt lat="49.59239" lon="3.44192">
        <ele>172</ele>
        <time>2025-10-05T08:29:23.000Z</time>
      </trkpt>
      <trkpt lat="49.59239" lon="3.44192">
        <ele>172</ele>
        <time>2025-10-05T08:29:24.000Z</time>
      </trkpt>
      <trkpt lat="49.59239" lon="3.44192">
        <ele>172</ele>
        <time>2025-10-05T08:29:25.000Z</time>
      </trkpt>
      <trkpt lat="49.59239" lon="3.44192">
        <ele>172</ele>
        <time>2025-10-05T08:29:26.000Z</time>
      </trkpt>
      <trkpt lat="49.59239" lon="3.44192">
        <ele>172</ele>
        <time>2025-10-05T08:29:27.000Z</time>
      </trkpt>
      <trkpt lat="49.59239" lon="3.44192">
        <ele>172</ele>
        <time>2025-10-05T08:29:28.000Z</time>
      </trkpt>
      <trkpt lat="49.59239" lon="3.44192">
        <ele>172</ele>
        <time>2025-10-05T08:29:29.000Z</time>
      </trkpt>
      <trkpt lat="49.59239" lon="3.44192">
        <ele>172</ele>
        <time>2025-10-05T08:29:30.000Z</time>
      </trkpt>
      <trkpt lat="49.59239" lon="3.44192">
        <ele>172</ele>
        <time>2025-10-05T08:29:31.000Z</time>
      </trkpt>
      <trkpt lat="49.59239" lon="3.44192">
        <ele>172</ele>
        <time>2025-10-05T08:29:32.000Z</time>
      </trkpt>
      <trkpt lat="49.59239" lon="3.44192">
        <ele>172</ele>
        <time>2025-10-05T08:29:33.000Z</time>
      </trkpt>
      <trkpt lat="49.59239" lon="3.44192">
        <ele>172</ele>
        <time>2025-10-05T08:29:34.000Z</time>
      </trkpt>
      <trkpt lat="49.59239" lon="3.44192">
        <ele>172</ele>
        <time>2025-10-05T08:29:35.000Z</time>
      </trkpt>
      <trkpt lat="49.59239" lon="3.44192">
        <ele>172</ele>
        <time>2025-10-05T08:29:36.000Z</time>
      </trkpt>
      <trkpt lat="49.59239" lon="3.44192">
        <ele>172</ele>
        <time>2025-10-05T08:29:37.000Z</time>
      </trkpt>
      <trkpt lat="49.59239" lon="3.44192">
        <ele>172</ele>
        <time>2025-10-05T08:29:38.000Z</time>
      </trkpt>
      <trkpt lat="49.59239" lon="3.44192">
        <ele>172</ele>
        <time>2025-10-05T08:29:39.000Z</time>
      </trkpt>
      <trkpt lat="49.59239" lon="3.44191">
        <ele>171</ele>
        <time>2025-10-05T08:29:40.000Z</time>
      </trkpt>
      <trkpt lat="49.59239" lon="3.44192">
        <ele>171.1</ele>
        <time>2025-10-05T08:29:41.000Z</time>
      </trkpt>
      <trkpt lat="49.59238" lon="3.44192">
        <ele>171.1</ele>
        <time>2025-10-05T08:29:42.000Z</time>
      </trkpt>
      <trkpt lat="49.59238" lon="3.44192">
        <ele>171.1</ele>
        <time>2025-10-05T08:29:43.000Z</time>
      </trkpt>
      <trkpt lat="49.59238" lon="3.44193">
        <ele>171.3</ele>
        <time>2025-10-05T08:29:44.000Z</time>
      </trkpt>
      <trkpt lat="49.59238" lon="3.44193">
        <ele>171.3</ele>
        <time>2025-10-05T08:29:45.000Z</time>
      </trkpt>
      <trkpt lat="49.59239" lon="3.44192">
        <ele>171.4</ele>
        <time>2025-10-05T08:29:46.000Z</time>
      </trkpt>
      <trkpt lat="49.59239" lon="3.44192">
        <ele>171.4</ele>
        <time>2025-10-05T08:29:47.000Z</time>
      </trkpt>
      <trkpt lat="49.59239" lon="3.44192">
        <ele>171.3</ele>
        <time>2025-10-05T08:29:48.000Z</time>
      </trkpt>
      <trkpt lat="49.59239" lon="3.44192">
        <ele>171.2</ele>
        <time>2025-10-05T08:29:49.000Z</time>
      </trkpt>
      <trkpt lat="49.59239" lon="3.44192">
        <ele>171.1</ele>
        <time>2025-10-05T08:29:50.000Z</time>
      </trkpt>
      <trkpt lat="49.59239" lon="3.44192">
        <ele>170.9</ele>
        <time>2025-10-05T08:29:51.000Z</time>
      </trkpt>
      <trkpt lat="49.5924" lon="3.44192">
        <ele>170.7</ele>
        <time>2025-10-05T08:29:52.000Z</time>
      </trkpt>
      <trkpt lat="49.5924" lon="3.44191">
        <ele>170.6</ele>
        <time>2025-10-05T08:29:53.000Z</time>
      </trkpt>
      <trkpt lat="49.5924" lon="3.44191">
        <ele>170.7</ele>
        <time>2025-10-05T08:29:54.000Z</time>
      </trkpt>
      <trkpt lat="49.5924" lon="3.44191">
        <ele>170.7</ele>
        <time>2025-10-05T08:29:55.000Z</time>
      </trkpt>
      <trkpt lat="49.5924" lon="3.4419">
        <ele>170.7</ele>
        <time>2025-10-05T08:29:56.000Z</time>
      </trkpt>
      <trkpt lat="49.5924" lon="3.4419">
        <ele>170.7</ele>
        <time>2025-10-05T08:29:57.000Z</time>
      </trkpt>
      <trkpt lat="49.5924" lon="3.4419">
        <ele>170.7</ele>
        <time>2025-10-05T08:29:58.000Z</time>
      </trkpt>
      <trkpt lat="49.5924" lon="3.4419">
        <ele>170.8</ele>
        <time>2025-10-05T08:29:59.000Z</time>
      </trkpt>
      <trkpt lat="49.59241" lon="3.44189">
        <ele>170.9</ele>
        <time>2025-10-05T08:30:00.000Z</time>
      </trkpt>
      <trkpt lat="49.59241" lon="3.44188">
        <ele>171</ele>
        <time>2025-10-05T08:30:01.000Z</time>
      </trkpt>
      <trkpt lat="49.5924" lon="3.44187">
        <ele>171.1</ele>
        <time>2025-10-05T08:30:02.000Z</time>
      </trkpt>
      <trkpt lat="49.5924" lon="3.44186">
        <ele>171.3</ele>
        <time>2025-10-05T08:30:03.000Z</time>
      </trkpt>
      <trkpt lat="49.5924" lon="3.44184">
        <ele>171.2</ele>
        <time>2025-10-05T08:30:04.000Z</time>
      </trkpt>
      <trkpt lat="49.59241" lon="3.44181">
        <ele>171.2</ele>
        <time>2025-10-05T08:30:05.000Z</time>
      </trkpt>
      <trkpt lat="49.59242" lon="3.4418">
        <ele>171.1</ele>
        <time>2025-10-05T08:30:06.000Z</time>
      </trkpt>
      <trkpt lat="49.59242" lon="3.44178">
        <ele>171.1</ele>
        <time>2025-10-05T08:30:07.000Z</time>
      </trkpt>
      <trkpt lat="49.59242" lon="3.44178">
        <ele>171.2</ele>
        <time>2025-10-05T08:30:08.000Z</time>
      </trkpt>
      <trkpt lat="49.59242" lon="3.44177">
        <ele>171.3</ele>
        <time>2025-10-05T08:30:09.000Z</time>
      </trkpt>
      <trkpt lat="49.59242" lon="3.44177">
        <ele>171.5</ele>
        <time>2025-10-05T08:30:10.000Z</time>
      </trkpt>
      <trkpt lat="49.59242" lon="3.44176">
        <ele>171.7</ele>
        <time>2025-10-05T08:30:11.000Z</time>
      </trkpt>
      <trkpt lat="49.59242" lon="3.44174">
        <ele>171.9</ele>
        <time>2025-10-05T08:30:12.000Z</time>
      </trkpt>
      <trkpt lat="49.59243" lon="3.44172">
        <ele>171.9</ele>
        <time>2025-10-05T08:30:13.000Z</time>
      </trkpt>
      <trkpt lat="49.59243" lon="3.4417">
        <ele>171.8</ele>
        <time>2025-10-05T08:30:14.000Z</time>
      </trkpt>
      <trkpt lat="49.59244" lon="3.44168">
        <ele>171.8</ele>
        <time>2025-10-05T08:30:15.000Z</time>
      </trkpt>
      <trkpt lat="49.59244" lon="3.44167">
        <ele>171.9</ele>
        <time>2025-10-05T08:30:16.000Z</time>
      </trkpt>
      <trkpt lat="49.59244" lon="3.44166">
        <ele>172.2</ele>
        <time>2025-10-05T08:30:17.000Z</time>
      </trkpt>
      <trkpt lat="49.59244" lon="3.44164">
        <ele>172.2</ele>
        <time>2025-10-05T08:30:18.000Z</time>
      </trkpt>
      <trkpt lat="49.59244" lon="3.44162">
        <ele>172.1</ele>
        <time>2025-10-05T08:30:19.000Z</time>
      </trkpt>
      <trkpt lat="49.59245" lon="3.4416">
        <ele>172.1</ele>
        <time>2025-10-05T08:30:20.000Z</time>
      </trkpt>
      <trkpt lat="49.59245" lon="3.44158">
        <ele>172.1</ele>
        <time>2025-10-05T08:30:21.000Z</time>
      </trkpt>
      <trkpt lat="49.59245" lon="3.44157">
        <ele>172.2</ele>
        <time>2025-10-05T08:30:22.000Z</time>
      </trkpt>
      <trkpt lat="49.59245" lon="3.44156">
        <ele>172.3</ele>
        <time>2025-10-05T08:30:23.000Z</time>
      </trkpt>
      <trkpt lat="49.59245" lon="3.44154">
        <ele>172.4</ele>
        <time>2025-10-05T08:30:24.000Z</time>
      </trkpt>
      <trkpt lat="49.59245" lon="3.44153">
        <ele>172.4</ele>
        <time>2025-10-05T08:30:25.000Z</time>
      </trkpt>
      <trkpt lat="49.59245" lon="3.4415">
        <ele>172.3</ele>
        <time>2025-10-05T08:30:26.000Z</time>
      </trkpt>
      <trkpt lat="49.59246" lon="3.44148">
        <ele>172.3</ele>
        <time>2025-10-05T08:30:27.000Z</time>
      </trkpt>
      <trkpt lat="49.59246" lon="3.44145">
        <ele>172.3</ele>
        <time>2025-10-05T08:30:28.000Z</time>
      </trkpt>
      <trkpt lat="49.59247" lon="3.44143">
        <ele>172.2</ele>
        <time>2025-10-05T08:30:29.000Z</time>
      </trkpt>
      <trkpt lat="49.59247" lon="3.44141">
        <ele>172.2</ele>
        <time>2025-10-05T08:30:30.000Z</time>
      </trkpt>
      <trkpt lat="49.59247" lon="3.44139">
        <ele>172.4</ele>
        <time>2025-10-05T08:30:31.000Z</time>
      </trkpt>
      <trkpt lat="49.59247" lon="3.44138">
        <ele>172.4</ele>
        <time>2025-10-05T08:30:32.000Z</time>
      </trkpt>
      <trkpt lat="49.59247" lon="3.44137">
        <ele>172.7</ele>
        <time>2025-10-05T08:30:33.000Z</time>
      </trkpt>
      <trkpt lat="49.59246" lon="3.44136">
        <ele>172.9</ele>
        <time>2025-10-05T08:30:34.000Z</time>
      </trkpt>
      <trkpt lat="49.59246" lon="3.44136">
        <ele>173.2</ele>
        <time>2025-10-05T08:30:35.000Z</time>
      </trkpt>
      <trkpt lat="49.59246" lon="3.44135">
        <ele>173.4</ele>
        <time>2025-10-05T08:30:36.000Z</time>
      </trkpt>
      <trkpt lat="49.59246" lon="3.44134">
        <ele>173.6</ele>
        <time>2025-10-05T08:30:37.000Z</time>
      </trkpt>
      <trkpt lat="49.59247" lon="3.44133">
        <ele>173.8</ele>
        <time>2025-10-05T08:30:38.000Z</time>
      </trkpt>
      <trkpt lat="49.59247" lon="3.44131">
        <ele>174</ele>
        <time>2025-10-05T08:30:39.000Z</time>
      </trkpt>
      <trkpt lat="49.59247" lon="3.4413">
        <ele>174.2</ele>
        <time>2025-10-05T08:30:40.000Z</time>
      </trkpt>
      <trkpt lat="49.59247" lon="3.44127">
        <ele>174.2</ele>
        <time>2025-10-05T08:30:41.000Z</time>
      </trkpt>
      <trkpt lat="49.59248" lon="3.44125">
        <ele>174.3</ele>
        <time>2025-10-05T08:30:42.000Z</time>
      </trkpt>
      <trkpt lat="49.59248" lon="3.44123">
        <ele>174.3</ele>
        <time>2025-10-05T08:30:43.000Z</time>
      </trkpt>
      <trkpt lat="49.59249" lon="3.44121">
        <ele>174.1</ele>
        <time>2025-10-05T08:30:44.000Z</time>
      </trkpt>
      <trkpt lat="49.59249" lon="3.44119">
        <ele>173.7</ele>
        <time>2025-10-05T08:30:45.000Z</time>
      </trkpt>
      <trkpt lat="49.5925" lon="3.44118">
        <ele>173.4</ele>
        <time>2025-10-05T08:30:46.000Z</time>
      </trkpt>
      <trkpt lat="49.5925" lon="3.44116">
        <ele>173.3</ele>
        <time>2025-10-05T08:30:47.000Z</time>
      </trkpt>
      <trkpt lat="49.5925" lon="3.44114">
        <ele>173.5</ele>
        <time>2025-10-05T08:30:48.000Z</time>
      </trkpt>
      <trkpt lat="49.5925" lon="3.44113">
        <ele>173.3</ele>
        <time>2025-10-05T08:30:49.000Z</time>
      </trkpt>
      <trkpt lat="49.5925" lon="3.44112">
        <ele>173.5</ele>
        <time>2025-10-05T08:30:50.000Z</time>
      </trkpt>
      <trkpt lat="49.5925" lon="3.44112">
        <ele>173.7</ele>
        <time>2025-10-05T08:30:51.000Z</time>
      </trkpt>
      <trkpt lat="49.5925" lon="3.4411">
        <ele>173.8</ele>
        <time>2025-10-05T08:30:52.000Z</time>
      </trkpt>
      <trkpt lat="49.5925" lon="3.44109">
        <ele>173.7</ele>
        <time>2025-10-05T08:30:53.000Z</time>
      </trkpt>
      <trkpt lat="49.5925" lon="3.44107">
        <ele>173.7</ele>
        <time>2025-10-05T08:30:54.000Z</time>
      </trkpt>
      <trkpt lat="49.5925" lon="3.44105">
        <ele>173.6</ele>
        <time>2025-10-05T08:30:55.000Z</time>
      </trkpt>
      <trkpt lat="49.59251" lon="3.44103">
        <ele>173.6</ele>
        <time>2025-10-05T08:30:56.000Z</time>
      </trkpt>
      <trkpt lat="49.59251" lon="3.441">
        <ele>173.4</ele>
        <time>2025-10-05T08:30:57.000Z</time>
      </trkpt>
      <trkpt lat="49.59251" lon="3.44097">
        <ele>173.1</ele>
        <time>2025-10-05T08:30:58.000Z</time>
      </trkpt>
      <trkpt lat="49.59251" lon="3.44094">
        <ele>173</ele>
        <time>2025-10-05T08:30:59.000Z</time>
      </trkpt>
      <trkpt lat="49.5925" lon="3.44092">
        <ele>172.9</ele>
        <time>2025-10-05T08:31:00.000Z</time>
      </trkpt>
      <trkpt lat="49.5925" lon="3.4409">
        <ele>172.6</ele>
        <time>2025-10-05T08:31:01.000Z</time>
      </trkpt>
      <trkpt lat="49.5925" lon="3.44089">
        <ele>172.4</ele>
        <time>2025-10-05T08:31:02.000Z</time>
      </trkpt>
      <trkpt lat="49.5925" lon="3.44088">
        <ele>172.1</ele>
        <time>2025-10-05T08:31:03.000Z</time>
      </trkpt>
      <trkpt lat="49.5925" lon="3.44087">
        <ele>171.8</ele>
        <time>2025-10-05T08:31:04.000Z</time>
      </trkpt>
      <trkpt lat="49.5925" lon="3.44086">
        <ele>171.8</ele>
        <time>2025-10-05T08:31:05.000Z</time>
      </trkpt>
      <trkpt lat="49.5925" lon="3.44085">
        <ele>171.7</ele>
        <time>2025-10-05T08:31:06.000Z</time>
      </trkpt>
      <trkpt lat="49.5925" lon="3.44083">
        <ele>171.5</ele>
        <time>2025-10-05T08:31:07.000Z</time>
      </trkpt>
      <trkpt lat="49.5925" lon="3.44081">
        <ele>171.5</ele>
        <time>2025-10-05T08:31:08.000Z</time>
      </trkpt>
      <trkpt lat="49.59251" lon="3.44079">
        <ele>171.5</ele>
        <time>2025-10-05T08:31:09.000Z</time>
      </trkpt>
      <trkpt lat="49.59252" lon="3.44077">
        <ele>171.4</ele>
        <time>2025-10-05T08:31:10.000Z</time>
      </trkpt>
      <trkpt lat="49.59252" lon="3.44075">
        <ele>171.4</ele>
        <time>2025-10-05T08:31:11.000Z</time>
      </trkpt>
      <trkpt lat="49.59252" lon="3.44073">
        <ele>171.1</ele>
        <time>2025-10-05T08:31:12.000Z</time>
      </trkpt>
      <trkpt lat="49.59251" lon="3.44071">
        <ele>171.1</ele>
        <time>2025-10-05T08:31:13.000Z</time>
      </trkpt>
      <trkpt lat="49.59252" lon="3.4407">
        <ele>171</ele>
        <time>2025-10-05T08:31:14.000Z</time>
      </trkpt>
      <trkpt lat="49.59252" lon="3.44069">
        <ele>170.9</ele>
        <time>2025-10-05T08:31:15.000Z</time>
      </trkpt>
      <trkpt lat="49.59252" lon="3.44067">
        <ele>170.8</ele>
        <time>2025-10-05T08:31:16.000Z</time>
      </trkpt>
      <trkpt lat="49.59252" lon="3.44066">
        <ele>170.6</ele>
        <time>2025-10-05T08:31:17.000Z</time>
      </trkpt>
      <trkpt lat="49.59253" lon="3.44064">
        <ele>170.6</ele>
        <time>2025-10-05T08:31:18.000Z</time>
      </trkpt>
      <trkpt lat="49.59253" lon="3.44063">
        <ele>170.7</ele>
        <time>2025-10-05T08:31:19.000Z</time>
      </trkpt>
      <trkpt lat="49.59253" lon="3.44062">
        <ele>170.8</ele>
        <time>2025-10-05T08:31:20.000Z</time>
      </trkpt>
      <trkpt lat="49.59253" lon="3.4406">
        <ele>170.9</ele>
        <time>2025-10-05T08:31:21.000Z</time>
      </trkpt>
      <trkpt lat="49.59253" lon="3.44059">
        <ele>170.9</ele>
        <time>2025-10-05T08:31:22.000Z</time>
      </trkpt>
      <trkpt lat="49.59253" lon="3.44058">
        <ele>170.9</ele>
        <time>2025-10-05T08:31:23.000Z</time>
      </trkpt>
      <trkpt lat="49.59253" lon="3.44056">
        <ele>170.9</ele>
        <time>2025-10-05T08:31:24.000Z</time>
      </trkpt>
      <trkpt lat="49.59253" lon="3.44054">
        <ele>170.7</ele>
        <time>2025-10-05T08:31:25.000Z</time>
      </trkpt>
      <trkpt lat="49.59253" lon="3.44051">
        <ele>170.3</ele>
        <time>2025-10-05T08:31:26.000Z</time>
      </trkpt>
      <trkpt lat="49.59253" lon="3.44049">
        <ele>170.2</ele>
        <time>2025-10-05T08:31:27.000Z</time>
      </trkpt>
      <trkpt lat="49.59253" lon="3.44046">
        <ele>170</ele>
        <time>2025-10-05T08:31:28.000Z</time>
      </trkpt>
      <trkpt lat="49.59253" lon="3.44045">
        <ele>169.8</ele>
        <time>2025-10-05T08:31:29.000Z</time>
      </trkpt>
      <trkpt lat="49.59252" lon="3.44044">
        <ele>169.6</ele>
        <time>2025-10-05T08:31:30.000Z</time>
      </trkpt>
      <trkpt lat="49.59251" lon="3.44044">
        <ele>169.4</ele>
        <time>2025-10-05T08:31:31.000Z</time>
      </trkpt>
      <trkpt lat="49.59251" lon="3.44042">
        <ele>169.3</ele>
        <time>2025-10-05T08:31:32.000Z</time>
      </trkpt>
      <trkpt lat="49.59251" lon="3.44041">
        <ele>169</ele>
        <time>2025-10-05T08:31:33.000Z</time>
      </trkpt>
      <trkpt lat="49.59251" lon="3.44039">
        <ele>168.8</ele>
        <time>2025-10-05T08:31:34.000Z</time>
      </trkpt>
      <trkpt lat="49.5925" lon="3.44037">
        <ele>168.6</ele>
        <time>2025-10-05T08:31:35.000Z</time>
      </trkpt>
      <trkpt lat="49.59251" lon="3.44035">
        <ele>168.5</ele>
        <time>2025-10-05T08:31:36.000Z</time>
      </trkpt>
      <trkpt lat="49.59251" lon="3.44033">
        <ele>168.6</ele>
        <time>2025-10-05T08:31:37.000Z</time>
      </trkpt>
      <trkpt lat="49.59251" lon="3.44031">
        <ele>168.5</ele>
        <time>2025-10-05T08:31:38.000Z</time>
      </trkpt>
      <trkpt lat="49.59251" lon="3.44028">
        <ele>168.5</ele>
        <time>2025-10-05T08:31:39.000Z</time>
      </trkpt>
      <trkpt lat="49.59251" lon="3.44026">
        <ele>168.6</ele>
        <time>2025-10-05T08:31:40.000Z</time>
      </trkpt>
      <trkpt lat="49.59251" lon="3.44024">
        <ele>168.9</ele>
        <time>2025-10-05T08:31:41.000Z</time>
      </trkpt>
      <trkpt lat="49.5925" lon="3.44023">
        <ele>169</ele>
        <time>2025-10-05T08:31:42.000Z</time>
      </trkpt>
      <trkpt lat="49.5925" lon="3.44023">
        <ele>168.9</ele>
        <time>2025-10-05T08:31:43.000Z</time>
      </trkpt>
      <trkpt lat="49.59249" lon="3.44022">
        <ele>168.8</ele>
        <time>2025-10-05T08:31:44.000Z</time>
      </trkpt>
      <trkpt lat="49.59249" lon="3.44021">
        <ele>168.6</ele>
        <time>2025-10-05T08:31:45.000Z</time>
      </trkpt>
      <trkpt lat="49.59249" lon="3.44019">
        <ele>168.4</ele>
        <time>2025-10-05T08:31:46.000Z</time>
      </trkpt>
      <trkpt lat="49.59248" lon="3.44018">
        <ele>168.3</ele>
        <time>2025-10-05T08:31:47.000Z</time>
      </trkpt>
      <trkpt lat="49.59248" lon="3.44015">
        <ele>168.2</ele>
        <time>2025-10-05T08:31:48.000Z</time>
      </trkpt>
      <trkpt lat="49.59248" lon="3.44013">
        <ele>168</ele>
        <time>2025-10-05T08:31:49.000Z</time>
      </trkpt>
      <trkpt lat="49.59248" lon="3.4401">
        <ele>167.8</ele>
        <time>2025-10-05T08:31:50.000Z</time>
      </trkpt>
      <trkpt lat="49.59248" lon="3.44008">
        <ele>167.8</ele>
        <time>2025-10-05T08:31:51.000Z</time>
      </trkpt>
      <trkpt lat="49.59249" lon="3.44006">
        <ele>167.8</ele>
        <time>2025-10-05T08:31:52.000Z</time>
      </trkpt>
      <trkpt lat="49.59249" lon="3.44004">
        <ele>168</ele>
        <time>2025-10-05T08:31:53.000Z</time>
      </trkpt>
      <trkpt lat="49.59248" lon="3.44002">
        <ele>168.1</ele>
        <time>2025-10-05T08:31:54.000Z</time>
      </trkpt>
      <trkpt lat="49.59248" lon="3.44">
        <ele>168.4</ele>
        <time>2025-10-05T08:31:55.000Z</time>
      </trkpt>
      <trkpt lat="49.59248" lon="3.43999">
        <ele>168.6</ele>
        <time>2025-10-05T08:31:56.000Z</time>
      </trkpt>
      <trkpt lat="49.59248" lon="3.43997">
        <ele>168.7</ele>
        <time>2025-10-05T08:31:57.000Z</time>
      </trkpt>
      <trkpt lat="49.59248" lon="3.43996">
        <ele>168.8</ele>
        <time>2025-10-05T08:31:58.000Z</time>
      </trkpt>
      <trkpt lat="49.59248" lon="3.43995">
        <ele>168.8</ele>
        <time>2025-10-05T08:31:59.000Z</time>
      </trkpt>
      <trkpt lat="49.59248" lon="3.43995">
        <ele>168.8</ele>
        <time>2025-10-05T08:32:00.000Z</time>
      </trkpt>
      <trkpt lat="49.59247" lon="3.43993">
        <ele>168.7</ele>
        <time>2025-10-05T08:32:01.000Z</time>
      </trkpt>
      <trkpt lat="49.59247" lon="3.43991">
        <ele>168.6</ele>
        <time>2025-10-05T08:32:02.000Z</time>
      </trkpt>
      <trkpt lat="49.59246" lon="3.43988">
        <ele>168.6</ele>
        <time>2025-10-05T08:32:03.000Z</time>
      </trkpt>
      <trkpt lat="49.59246" lon="3.43986">
        <ele>168.6</ele>
        <time>2025-10-05T08:32:04.000Z</time>
      </trkpt>
      <trkpt lat="49.59245" lon="3.43983">
        <ele>168.5</ele>
        <time>2025-10-05T08:32:05.000Z</time>
      </trkpt>
      <trkpt lat="49.59245" lon="3.43981">
        <ele>168.6</ele>
        <time>2025-10-05T08:32:06.000Z</time>
      </trkpt>
      <trkpt lat="49.59245" lon="3.4398">
        <ele>168.7</ele>
        <time>2025-10-05T08:32:07.000Z</time>
      </trkpt>
      <trkpt lat="49.59245" lon="3.43978">
        <ele>168.9</ele>
        <time>2025-10-05T08:32:08.000Z</time>
      </trkpt>
      <trkpt lat="49.59245" lon="3.43977">
        <ele>168.9</ele>
        <time>2025-10-05T08:32:09.000Z</time>
      </trkpt>
      <trkpt lat="49.59245" lon="3.43975">
        <ele>168.9</ele>
        <time>2025-10-05T08:32:10.000Z</time>
      </trkpt>
      <trkpt lat="49.59245" lon="3.43974">
        <ele>169.1</ele>
        <time>2025-10-05T08:32:11.000Z</time>
      </trkpt>
      <trkpt lat="49.59245" lon="3.43973">
        <ele>169.2</ele>
        <time>2025-10-05T08:32:12.000Z</time>
      </trkpt>
      <trkpt lat="49.59245" lon="3.43972">
        <ele>169.3</ele>
        <time>2025-10-05T08:32:13.000Z</time>
      </trkpt>
      <trkpt lat="49.59245" lon="3.43971">
        <ele>169.6</ele>
        <time>2025-10-05T08:32:14.000Z</time>
      </trkpt>
      <trkpt lat="49.59245" lon="3.43969">
        <ele>169.8</ele>
        <time>2025-10-05T08:32:15.000Z</time>
      </trkpt>
      <trkpt lat="49.59245" lon="3.43967">
        <ele>170</ele>
        <time>2025-10-05T08:32:16.000Z</time>
      </trkpt>
      <trkpt lat="49.59245" lon="3.43964">
        <ele>169.9</ele>
        <time>2025-10-05T08:32:17.000Z</time>
      </trkpt>
      <trkpt lat="49.59244" lon="3.43962">
        <ele>169.8</ele>
        <time>2025-10-05T08:32:18.000Z</time>
      </trkpt>
      <trkpt lat="49.59244" lon="3.4396">
        <ele>169.8</ele>
        <time>2025-10-05T08:32:19.000Z</time>
      </trkpt>
      <trkpt lat="49.59244" lon="3.43958">
        <ele>169.8</ele>
        <time>2025-10-05T08:32:20.000Z</time>
      </trkpt>
      <trkpt lat="49.59244" lon="3.43957">
        <ele>169.9</ele>
        <time>2025-10-05T08:32:21.000Z</time>
      </trkpt>
      <trkpt lat="49.59244" lon="3.43955">
        <ele>169.7</ele>
        <time>2025-10-05T08:32:22.000Z</time>
      </trkpt>
      <trkpt lat="49.59244" lon="3.43954">
        <ele>169.5</ele>
        <time>2025-10-05T08:32:23.000Z</time>
      </trkpt>
      <trkpt lat="49.59244" lon="3.43952">
        <ele>169.5</ele>
        <time>2025-10-05T08:32:24.000Z</time>
      </trkpt>
      <trkpt lat="49.59244" lon="3.4395">
        <ele>169.4</ele>
        <time>2025-10-05T08:32:25.000Z</time>
      </trkpt>
      <trkpt lat="49.59244" lon="3.43948">
        <ele>169.3</ele>
        <time>2025-10-05T08:32:26.000Z</time>
      </trkpt>
      <trkpt lat="49.59244" lon="3.43946">
        <ele>169.1</ele>
        <time>2025-10-05T08:32:27.000Z</time>
      </trkpt>
      <trkpt lat="49.59244" lon="3.43944">
        <ele>168.7</ele>
        <time>2025-10-05T08:32:28.000Z</time>
      </trkpt>
      <trkpt lat="49.59245" lon="3.43942">
        <ele>168.4</ele>
        <time>2025-10-05T08:32:29.000Z</time>
      </trkpt>
      <trkpt lat="49.59245" lon="3.4394">
        <ele>168.4</ele>
        <time>2025-10-05T08:32:30.000Z</time>
      </trkpt>
      <trkpt lat="49.59245" lon="3.43939">
        <ele>168</ele>
        <time>2025-10-05T08:32:31.000Z</time>
      </trkpt>
      <trkpt lat="49.59245" lon="3.43937">
        <ele>167.8</ele>
        <time>2025-10-05T08:32:32.000Z</time>
      </trkpt>
      <trkpt lat="49.59245" lon="3.43937">
        <ele>167.6</ele>
        <time>2025-10-05T08:32:33.000Z</time>
      </trkpt>
      <trkpt lat="49.59245" lon="3.43936">
        <ele>167.6</ele>
        <time>2025-10-05T08:32:34.000Z</time>
      </trkpt>
      <trkpt lat="49.59245" lon="3.43935">
        <ele>167.7</ele>
        <time>2025-10-05T08:32:35.000Z</time>
      </trkpt>
      <trkpt lat="49.59245" lon="3.43934">
        <ele>167.7</ele>
        <time>2025-10-05T08:32:36.000Z</time>
      </trkpt>
      <trkpt lat="49.59245" lon="3.43933">
        <ele>167.8</ele>
        <time>2025-10-05T08:32:37.000Z</time>
      </trkpt>
      <trkpt lat="49.59245" lon="3.43932">
        <ele>168</ele>
        <time>2025-10-05T08:32:38.000Z</time>
      </trkpt>
      <trkpt lat="49.59245" lon="3.4393">
        <ele>168</ele>
        <time>2025-10-05T08:32:39.000Z</time>
      </trkpt>
      <trkpt lat="49.59246" lon="3.43929">
        <ele>168</ele>
        <time>2025-10-05T08:32:40.000Z</time>
      </trkpt>
      <trkpt lat="49.59246" lon="3.43926">
        <ele>167.9</ele>
        <time>2025-10-05T08:32:41.000Z</time>
      </trkpt>
      <trkpt lat="49.59247" lon="3.43924">
        <ele>168</ele>
        <time>2025-10-05T08:32:42.000Z</time>
      </trkpt>
      <trkpt lat="49.59247" lon="3.43922">
        <ele>168</ele>
        <time>2025-10-05T08:32:43.000Z</time>
      </trkpt>
      <trkpt lat="49.59248" lon="3.4392">
        <ele>168</ele>
        <time>2025-10-05T08:32:44.000Z</time>
      </trkpt>
      <trkpt lat="49.59248" lon="3.43918">
        <ele>167.9</ele>
        <time>2025-10-05T08:32:45.000Z</time>
      </trkpt>
      <trkpt lat="49.59248" lon="3.43917">
        <ele>167.8</ele>
        <time>2025-10-05T08:32:46.000Z</time>
      </trkpt>
      <trkpt lat="49.59248" lon="3.43916">
        <ele>167.8</ele>
        <time>2025-10-05T08:32:47.000Z</time>
      </trkpt>
      <trkpt lat="49.59248" lon="3.43915">
        <ele>167.9</ele>
        <time>2025-10-05T08:32:48.000Z</time>
      </trkpt>
      <trkpt lat="49.59247" lon="3.43914">
        <ele>168.1</ele>
        <time>2025-10-05T08:32:49.000Z</time>
      </trkpt>
      <trkpt lat="49.59247" lon="3.43913">
        <ele>168.3</ele>
        <time>2025-10-05T08:32:50.000Z</time>
      </trkpt>
      <trkpt lat="49.59247" lon="3.43912">
        <ele>168.5</ele>
        <time>2025-10-05T08:32:51.000Z</time>
      </trkpt>
      <trkpt lat="49.59246" lon="3.43911">
        <ele>168.7</ele>
        <time>2025-10-05T08:32:52.000Z</time>
      </trkpt>
      <trkpt lat="49.59247" lon="3.43909">
        <ele>169</ele>
        <time>2025-10-05T08:32:53.000Z</time>
      </trkpt>
      <trkpt lat="49.59247" lon="3.43907">
        <ele>169.1</ele>
        <time>2025-10-05T08:32:54.000Z</time>
      </trkpt>
      <trkpt lat="49.59247" lon="3.43905">
        <ele>169.3</ele>
        <time>2025-10-05T08:32:55.000Z</time>
      </trkpt>
      <trkpt lat="49.59248" lon="3.43903">
        <ele>169.5</ele>
        <time>2025-10-05T08:32:56.000Z</time>
      </trkpt>
      <trkpt lat="49.59248" lon="3.43901">
        <ele>169.9</ele>
        <time>2025-10-05T08:32:57.000Z</time>
      </trkpt>
      <trkpt lat="49.59249" lon="3.43898">
        <ele>170.4</ele>
        <time>2025-10-05T08:32:58.000Z</time>
      </trkpt>
      <trkpt lat="49.5925" lon="3.43894">
        <ele>170.3</ele>
        <time>2025-10-05T08:32:59.000Z</time>
      </trkpt>
      <trkpt lat="49.59251" lon="3.43891">
        <ele>170</ele>
        <time>2025-10-05T08:33:00.000Z</time>
      </trkpt>
      <trkpt lat="49.59252" lon="3.43889">
        <ele>169.8</ele>
        <time>2025-10-05T08:33:01.000Z</time>
      </trkpt>
      <trkpt lat="49.59252" lon="3.43887">
        <ele>169.6</ele>
        <time>2025-10-05T08:33:02.000Z</time>
      </trkpt>
      <trkpt lat="49.59252" lon="3.43885">
        <ele>169.5</ele>
        <time>2025-10-05T08:33:03.000Z</time>
      </trkpt>
      <trkpt lat="49.59253" lon="3.43882">
        <ele>169.6</ele>
        <time>2025-10-05T08:33:04.000Z</time>
      </trkpt>
      <trkpt lat="49.59254" lon="3.4388">
        <ele>169.7</ele>
        <time>2025-10-05T08:33:05.000Z</time>
      </trkpt>
      <trkpt lat="49.59255" lon="3.43878">
        <ele>169.8</ele>
        <time>2025-10-05T08:33:06.000Z</time>
      </trkpt>
      <trkpt lat="49.59255" lon="3.43876">
        <ele>169.9</ele>
        <time>2025-10-05T08:33:07.000Z</time>
      </trkpt>
      <trkpt lat="49.59256" lon="3.43874">
        <ele>170</ele>
        <time>2025-10-05T08:33:08.000Z</time>
      </trkpt>
      <trkpt lat="49.59257" lon="3.43872">
        <ele>170.2</ele>
        <time>2025-10-05T08:33:09.000Z</time>
      </trkpt>
      <trkpt lat="49.59257" lon="3.43871">
        <ele>170.3</ele>
        <time>2025-10-05T08:33:10.000Z</time>
      </trkpt>
      <trkpt lat="49.59258" lon="3.43869">
        <ele>170.3</ele>
        <time>2025-10-05T08:33:11.000Z</time>
      </trkpt>
      <trkpt lat="49.59258" lon="3.43868">
        <ele>170.2</ele>
        <time>2025-10-05T08:33:12.000Z</time>
      </trkpt>
      <trkpt lat="49.59257" lon="3.43867">
        <ele>170.1</ele>
        <time>2025-10-05T08:33:13.000Z</time>
      </trkpt>
      <trkpt lat="49.59257" lon="3.43867">
        <ele>169.9</ele>
        <time>2025-10-05T08:33:14.000Z</time>
      </trkpt>
      <trkpt lat="49.59256" lon="3.43866">
        <ele>169.5</ele>
        <time>2025-10-05T08:33:15.000Z</time>
      </trkpt>
      <trkpt lat="49.59256" lon="3.43866">
        <ele>169.3</ele>
        <time>2025-10-05T08:33:16.000Z</time>
      </trkpt>
      <trkpt lat="49.59256" lon="3.43865">
        <ele>168.8</ele>
        <time>2025-10-05T08:33:17.000Z</time>
      </trkpt>
      <trkpt lat="49.59255" lon="3.43863">
        <ele>168.6</ele>
        <time>2025-10-05T08:33:18.000Z</time>
      </trkpt>
      <trkpt lat="49.59256" lon="3.43862">
        <ele>168.8</ele>
        <time>2025-10-05T08:33:19.000Z</time>
      </trkpt>
      <trkpt lat="49.59256" lon="3.4386">
        <ele>168.9</ele>
        <time>2025-10-05T08:33:20.000Z</time>
      </trkpt>
      <trkpt lat="49.59256" lon="3.43857">
        <ele>168.8</ele>
        <time>2025-10-05T08:33:21.000Z</time>
      </trkpt>
      <trkpt lat="49.59256" lon="3.43854">
        <ele>168.7</ele>
        <time>2025-10-05T08:33:22.000Z</time>
      </trkpt>
      <trkpt lat="49.59257" lon="3.43852">
        <ele>168.8</ele>
        <time>2025-10-05T08:33:23.000Z</time>
      </trkpt>
      <trkpt lat="49.59258" lon="3.43849">
        <ele>168.8</ele>
        <time>2025-10-05T08:33:24.000Z</time>
      </trkpt>
      <trkpt lat="49.59259" lon="3.43846">
        <ele>168.8</ele>
        <time>2025-10-05T08:33:25.000Z</time>
      </trkpt>
      <trkpt lat="49.5926" lon="3.43845">
        <ele>168.7</ele>
        <time>2025-10-05T08:33:26.000Z</time>
      </trkpt>
      <trkpt lat="49.5926" lon="3.43844">
        <ele>168.8</ele>
        <time>2025-10-05T08:33:27.000Z</time>
      </trkpt>
      <trkpt lat="49.5926" lon="3.43843">
        <ele>168.6</ele>
        <time>2025-10-05T08:33:28.000Z</time>
      </trkpt>
      <trkpt lat="49.5926" lon="3.43843">
        <ele>168.3</ele>
        <time>2025-10-05T08:33:29.000Z</time>
      </trkpt>
      <trkpt lat="49.5926" lon="3.43842">
        <ele>168.1</ele>
        <time>2025-10-05T08:33:30.000Z</time>
      </trkpt>
      <trkpt lat="49.5926" lon="3.43841">
        <ele>168</ele>
        <time>2025-10-05T08:33:31.000Z</time>
      </trkpt>
      <trkpt lat="49.59259" lon="3.43839">
        <ele>167.8</ele>
        <time>2025-10-05T08:33:32.000Z</time>
      </trkpt>
      <trkpt lat="49.59259" lon="3.43837">
        <ele>167.8</ele>
        <time>2025-10-05T08:33:33.000Z</time>
      </trkpt>
      <trkpt lat="49.59259" lon="3.43835">
        <ele>167.8</ele>
        <time>2025-10-05T08:33:34.000Z</time>
      </trkpt>
      <trkpt lat="49.59259" lon="3.43832">
        <ele>167.7</ele>
        <time>2025-10-05T08:33:35.000Z</time>
      </trkpt>
      <trkpt lat="49.59259" lon="3.43829">
        <ele>167.6</ele>
        <time>2025-10-05T08:33:36.000Z</time>
      </trkpt>
      <trkpt lat="49.59259" lon="3.43827">
        <ele>167.6</ele>
        <time>2025-10-05T08:33:37.000Z</time>
      </trkpt>
      <trkpt lat="49.59259" lon="3.43825">
        <ele>167.6</ele>
        <time>2025-10-05T08:33:38.000Z</time>
      </trkpt>
      <trkpt lat="49.59259" lon="3.43824">
        <ele>167.8</ele>
        <time>2025-10-05T08:33:39.000Z</time>
      </trkpt>
      <trkpt lat="49.59259" lon="3.43824">
        <ele>168.1</ele>
        <time>2025-10-05T08:33:40.000Z</time>
      </trkpt>
      <trkpt lat="49.59259" lon="3.43823">
        <ele>168.4</ele>
        <time>2025-10-05T08:33:41.000Z</time>
      </trkpt>
      <trkpt lat="49.59259" lon="3.43821">
        <ele>168.6</ele>
        <time>2025-10-05T08:33:42.000Z</time>
      </trkpt>
      <trkpt lat="49.59259" lon="3.4382">
        <ele>168.9</ele>
        <time>2025-10-05T08:33:43.000Z</time>
      </trkpt>
      <trkpt lat="49.5926" lon="3.43818">
        <ele>169.1</ele>
        <time>2025-10-05T08:33:44.000Z</time>
      </trkpt>
      <trkpt lat="49.5926" lon="3.43815">
        <ele>169.4</ele>
        <time>2025-10-05T08:33:45.000Z</time>
      </trkpt>
      <trkpt lat="49.59261" lon="3.43812">
        <ele>169.3</ele>
        <time>2025-10-05T08:33:46.000Z</time>
      </trkpt>
      <trkpt lat="49.59261" lon="3.4381">
        <ele>169.2</ele>
        <time>2025-10-05T08:33:47.000Z</time>
      </trkpt>
      <trkpt lat="49.59261" lon="3.43808">
        <ele>169.1</ele>
        <time>2025-10-05T08:33:48.000Z</time>
      </trkpt>
      <trkpt lat="49.59261" lon="3.43807">
        <ele>169</ele>
        <time>2025-10-05T08:33:49.000Z</time>
      </trkpt>
      <trkpt lat="49.59261" lon="3.43806">
        <ele>168.8</ele>
        <time>2025-10-05T08:33:50.000Z</time>
      </trkpt>
      <trkpt lat="49.59261" lon="3.43805">
        <ele>168.5</ele>
        <time>2025-10-05T08:33:51.000Z</time>
      </trkpt>
      <trkpt lat="49.59261" lon="3.43805">
        <ele>168.2</ele>
        <time>2025-10-05T08:33:52.000Z</time>
      </trkpt>
      <trkpt lat="49.59261" lon="3.43804">
        <ele>168.1</ele>
        <time>2025-10-05T08:33:53.000Z</time>
      </trkpt>
      <trkpt lat="49.59261" lon="3.43802">
        <ele>168.1</ele>
        <time>2025-10-05T08:33:54.000Z</time>
      </trkpt>
      <trkpt lat="49.59261" lon="3.438">
        <ele>168.1</ele>
        <time>2025-10-05T08:33:55.000Z</time>
      </trkpt>
      <trkpt lat="49.59262" lon="3.43797">
        <ele>168.1</ele>
        <time>2025-10-05T08:33:56.000Z</time>
      </trkpt>
      <trkpt lat="49.59262" lon="3.43794">
        <ele>167.9</ele>
        <time>2025-10-05T08:33:57.000Z</time>
      </trkpt>
      <trkpt lat="49.59263" lon="3.43792">
        <ele>167.8</ele>
        <time>2025-10-05T08:33:58.000Z</time>
      </trkpt>
      <trkpt lat="49.59263" lon="3.43789">
        <ele>167.5</ele>
        <time>2025-10-05T08:33:59.000Z</time>
      </trkpt>
      <trkpt lat="49.59263" lon="3.43788">
        <ele>167.6</ele>
        <time>2025-10-05T08:34:00.000Z</time>
      </trkpt>
      <trkpt lat="49.59263" lon="3.43787">
        <ele>167.4</ele>
        <time>2025-10-05T08:34:01.000Z</time>
      </trkpt>
      <trkpt lat="49.59263" lon="3.43787">
        <ele>167.1</ele>
        <time>2025-10-05T08:34:02.000Z</time>
      </trkpt>
      <trkpt lat="49.59263" lon="3.43786">
        <ele>166.9</ele>
        <time>2025-10-05T08:34:03.000Z</time>
      </trkpt>
      <trkpt lat="49.59263" lon="3.43786">
        <ele>167.1</ele>
        <time>2025-10-05T08:34:04.000Z</time>
      </trkpt>
      <trkpt lat="49.59263" lon="3.43785">
        <ele>166.9</ele>
        <time>2025-10-05T08:34:05.000Z</time>
      </trkpt>
      <trkpt lat="49.59263" lon="3.43784">
        <ele>166.7</ele>
        <time>2025-10-05T08:34:06.000Z</time>
      </trkpt>
      <trkpt lat="49.59263" lon="3.43783">
        <ele>166.5</ele>
        <time>2025-10-05T08:34:07.000Z</time>
      </trkpt>
      <trkpt lat="49.59263" lon="3.43782">
        <ele>166.5</ele>
        <time>2025-10-05T08:34:08.000Z</time>
      </trkpt>
      <trkpt lat="49.59264" lon="3.4378">
        <ele>166.4</ele>
        <time>2025-10-05T08:34:09.000Z</time>
      </trkpt>
      <trkpt lat="49.59264" lon="3.43779">
        <ele>166.3</ele>
        <time>2025-10-05T08:34:10.000Z</time>
      </trkpt>
      <trkpt lat="49.59264" lon="3.43778">
        <ele>166.2</ele>
        <time>2025-10-05T08:34:11.000Z</time>
      </trkpt>
      <trkpt lat="49.59264" lon="3.43777">
        <ele>166.4</ele>
        <time>2025-10-05T08:34:12.000Z</time>
      </trkpt>
      <trkpt lat="49.59265" lon="3.43776">
        <ele>166.6</ele>
        <time>2025-10-05T08:34:13.000Z</time>
      </trkpt>
      <trkpt lat="49.59266" lon="3.43774">
        <ele>166.8</ele>
        <time>2025-10-05T08:34:14.000Z</time>
      </trkpt>
      <trkpt lat="49.59266" lon="3.43772">
        <ele>166.9</ele>
        <time>2025-10-05T08:34:15.000Z</time>
      </trkpt>
      <trkpt lat="49.59266" lon="3.43769">
        <ele>166.8</ele>
        <time>2025-10-05T08:34:16.000Z</time>
      </trkpt>
      <trkpt lat="49.59266" lon="3.43767">
        <ele>166.8</ele>
        <time>2025-10-05T08:34:17.000Z</time>
      </trkpt>
      <trkpt lat="49.59266" lon="3.43765">
        <ele>166.9</ele>
        <time>2025-10-05T08:34:18.000Z</time>
      </trkpt>
      <trkpt lat="49.59266" lon="3.43764">
        <ele>166.9</ele>
        <time>2025-10-05T08:34:19.000Z</time>
      </trkpt>
      <trkpt lat="49.59266" lon="3.43763">
        <ele>167</ele>
        <time>2025-10-05T08:34:20.000Z</time>
      </trkpt>
      <trkpt lat="49.59266" lon="3.43763">
        <ele>167</ele>
        <time>2025-10-05T08:34:21.000Z</time>
      </trkpt>
      <trkpt lat="49.59266" lon="3.43762">
        <ele>167</ele>
        <time>2025-10-05T08:34:22.000Z</time>
      </trkpt>
      <trkpt lat="49.59266" lon="3.4376">
        <ele>167</ele>
        <time>2025-10-05T08:34:23.000Z</time>
      </trkpt>
      <trkpt lat="49.59266" lon="3.43758">
        <ele>167</ele>
        <time>2025-10-05T08:34:24.000Z</time>
      </trkpt>
      <trkpt lat="49.59266" lon="3.43756">
        <ele>166.9</ele>
        <time>2025-10-05T08:34:25.000Z</time>
      </trkpt>
      <trkpt lat="49.59267" lon="3.43753">
        <ele>166.8</ele>
        <time>2025-10-05T08:34:26.000Z</time>
      </trkpt>
      <trkpt lat="49.59267" lon="3.43751">
        <ele>166.9</ele>
        <time>2025-10-05T08:34:27.000Z</time>
      </trkpt>
      <trkpt lat="49.59268" lon="3.43749">
        <ele>167</ele>
        <time>2025-10-05T08:34:28.000Z</time>
      </trkpt>
      <trkpt lat="49.59268" lon="3.43747">
        <ele>167.2</ele>
        <time>2025-10-05T08:34:29.000Z</time>
      </trkpt>
      <trkpt lat="49.59269" lon="3.43747">
        <ele>167.4</ele>
        <time>2025-10-05T08:34:30.000Z</time>
      </trkpt>
      <trkpt lat="49.59269" lon="3.43745">
        <ele>167.4</ele>
        <time>2025-10-05T08:34:31.000Z</time>
      </trkpt>
      <trkpt lat="49.59269" lon="3.43744">
        <ele>167.5</ele>
        <time>2025-10-05T08:34:32.000Z</time>
      </trkpt>
      <trkpt lat="49.5927" lon="3.43742">
        <ele>167.7</ele>
        <time>2025-10-05T08:34:33.000Z</time>
      </trkpt>
      <trkpt lat="49.59271" lon="3.43741">
        <ele>167.9</ele>
        <time>2025-10-05T08:34:34.000Z</time>
      </trkpt>
      <trkpt lat="49.59271" lon="3.43739">
        <ele>168.3</ele>
        <time>2025-10-05T08:34:35.000Z</time>
      </trkpt>
      <trkpt lat="49.59271" lon="3.43738">
        <ele>168.3</ele>
        <time>2025-10-05T08:34:36.000Z</time>
      </trkpt>
      <trkpt lat="49.59271" lon="3.43736">
        <ele>168.5</ele>
        <time>2025-10-05T08:34:37.000Z</time>
      </trkpt>
      <trkpt lat="49.59271" lon="3.43734">
        <ele>168.8</ele>
        <time>2025-10-05T08:34:38.000Z</time>
      </trkpt>
      <trkpt lat="49.59271" lon="3.43731">
        <ele>169.3</ele>
        <time>2025-10-05T08:34:39.000Z</time>
      </trkpt>
      <trkpt lat="49.59271" lon="3.43729">
        <ele>169.8</ele>
        <time>2025-10-05T08:34:40.000Z</time>
      </trkpt>
      <trkpt lat="49.59271" lon="3.43727">
        <ele>170.3</ele>
        <time>2025-10-05T08:34:41.000Z</time>
      </trkpt>
      <trkpt lat="49.59271" lon="3.43725">
        <ele>170.5</ele>
        <time>2025-10-05T08:34:42.000Z</time>
      </trkpt>
      <trkpt lat="49.59271" lon="3.43723">
        <ele>170.9</ele>
        <time>2025-10-05T08:34:43.000Z</time>
      </trkpt>
      <trkpt lat="49.59271" lon="3.43721">
        <ele>171.2</ele>
        <time>2025-10-05T08:34:44.000Z</time>
      </trkpt>
      <trkpt lat="49.59273" lon="3.4372">
        <ele>171.8</ele>
        <time>2025-10-05T08:34:45.000Z</time>
      </trkpt>
      <trkpt lat="49.59273" lon="3.43719">
        <ele>171.7</ele>
        <time>2025-10-05T08:34:46.000Z</time>
      </trkpt>
      <trkpt lat="49.59273" lon="3.43718">
        <ele>171.5</ele>
        <time>2025-10-05T08:34:47.000Z</time>
      </trkpt>
      <trkpt lat="49.59273" lon="3.43717">
        <ele>171.3</ele>
        <time>2025-10-05T08:34:48.000Z</time>
      </trkpt>
      <trkpt lat="49.59273" lon="3.43715">
        <ele>170.9</ele>
        <time>2025-10-05T08:34:49.000Z</time>
      </trkpt>
      <trkpt lat="49.59273" lon="3.43714">
        <ele>170.6</ele>
        <time>2025-10-05T08:34:50.000Z</time>
      </trkpt>
      <trkpt lat="49.59274" lon="3.43713">
        <ele>170</ele>
        <time>2025-10-05T08:34:51.000Z</time>
      </trkpt>
      <trkpt lat="49.59274" lon="3.43711">
        <ele>169.7</ele>
        <time>2025-10-05T08:34:52.000Z</time>
      </trkpt>
      <trkpt lat="49.59274" lon="3.4371">
        <ele>169.3</ele>
        <time>2025-10-05T08:34:53.000Z</time>
      </trkpt>
      <trkpt lat="49.59274" lon="3.43708">
        <ele>169.4</ele>
        <time>2025-10-05T08:34:54.000Z</time>
      </trkpt>
      <trkpt lat="49.59274" lon="3.43706">
        <ele>169.2</ele>
        <time>2025-10-05T08:34:55.000Z</time>
      </trkpt>
      <trkpt lat="49.59274" lon="3.43704">
        <ele>169</ele>
        <time>2025-10-05T08:34:56.000Z</time>
      </trkpt>
      <trkpt lat="49.59275" lon="3.43703">
        <ele>168.8</ele>
        <time>2025-10-05T08:34:57.000Z</time>
      </trkpt>
      <trkpt lat="49.59275" lon="3.43701">
        <ele>169.1</ele>
        <time>2025-10-05T08:34:58.000Z</time>
      </trkpt>
      <trkpt lat="49.59275" lon="3.43699">
        <ele>169.2</ele>
        <time>2025-10-05T08:34:59.000Z</time>
      </trkpt>
      <trkpt lat="49.59275" lon="3.43698">
        <ele>169.4</ele>
        <time>2025-10-05T08:35:00.000Z</time>
      </trkpt>
      <trkpt lat="49.59275" lon="3.43697">
        <ele>169.6</ele>
        <time>2025-10-05T08:35:01.000Z</time>
      </trkpt>
      <trkpt lat="49.59275" lon="3.43697">
        <ele>169.6</ele>
        <time>2025-10-05T08:35:02.000Z</time>
      </trkpt>
      <trkpt lat="49.59275" lon="3.43696">
        <ele>169.5</ele>
        <time>2025-10-05T08:35:03.000Z</time>
      </trkpt>
      <trkpt lat="49.59275" lon="3.43695">
        <ele>169.6</ele>
        <time>2025-10-05T08:35:04.000Z</time>
      </trkpt>
      <trkpt lat="49.59275" lon="3.43694">
        <ele>169.7</ele>
        <time>2025-10-05T08:35:05.000Z</time>
      </trkpt>
      <trkpt lat="49.59275" lon="3.43693">
        <ele>169.5</ele>
        <time>2025-10-05T08:35:06.000Z</time>
      </trkpt>
      <trkpt lat="49.59275" lon="3.43693">
        <ele>169.7</ele>
        <time>2025-10-05T08:35:07.000Z</time>
      </trkpt>
      <trkpt lat="49.59276" lon="3.43692">
        <ele>169.6</ele>
        <time>2025-10-05T08:35:08.000Z</time>
      </trkpt>
      <trkpt lat="49.59276" lon="3.43691">
        <ele>169.6</ele>
        <time>2025-10-05T08:35:09.000Z</time>
      </trkpt>
      <trkpt lat="49.59276" lon="3.43691">
        <ele>169.8</ele>
        <time>2025-10-05T08:35:10.000Z</time>
      </trkpt>
      <trkpt lat="49.59276" lon="3.4369">
        <ele>170</ele>
        <time>2025-10-05T08:35:11.000Z</time>
      </trkpt>
      <trkpt lat="49.59276" lon="3.4369">
        <ele>170.2</ele>
        <time>2025-10-05T08:35:12.000Z</time>
      </trkpt>
      <trkpt lat="49.59276" lon="3.43689">
        <ele>170.2</ele>
        <time>2025-10-05T08:35:13.000Z</time>
      </trkpt>
      <trkpt lat="49.59276" lon="3.43688">
        <ele>170.3</ele>
        <time>2025-10-05T08:35:14.000Z</time>
      </trkpt>
      <trkpt lat="49.59276" lon="3.43687">
        <ele>170.4</ele>
        <time>2025-10-05T08:35:15.000Z</time>
      </trkpt>
      <trkpt lat="49.59276" lon="3.43687">
        <ele>170.5</ele>
        <time>2025-10-05T08:35:16.000Z</time>
      </trkpt>
      <trkpt lat="49.59276" lon="3.43687">
        <ele>170.5</ele>
        <time>2025-10-05T08:35:17.000Z</time>
      </trkpt>
      <trkpt lat="49.59276" lon="3.43687">
        <ele>170.5</ele>
        <time>2025-10-05T08:35:18.000Z</time>
      </trkpt>
      <trkpt lat="49.59276" lon="3.43687">
        <ele>170.5</ele>
        <time>2025-10-05T08:35:19.000Z</time>
      </trkpt>
      <trkpt lat="49.59276" lon="3.43687">
        <ele>170.5</ele>
        <time>2025-10-05T08:35:20.000Z</time>
      </trkpt>
      <trkpt lat="49.59276" lon="3.43687">
        <ele>170.5</ele>
        <time>2025-10-05T08:35:21.000Z</time>
      </trkpt>
      <trkpt lat="49.59276" lon="3.43687">
        <ele>170.5</ele>
        <time>2025-10-05T08:35:22.000Z</time>
      </trkpt>
      <trkpt lat="49.59276" lon="3.43685">
        <ele>170.7</ele>
        <time>2025-10-05T08:35:23.000Z</time>
      </trkpt>
      <trkpt lat="49.59276" lon="3.43685">
        <ele>170.3</ele>
        <time>2025-10-05T08:35:24.000Z</time>
      </trkpt>
      <trkpt lat="49.59275" lon="3.43685">
        <ele>170</ele>
        <time>2025-10-05T08:35:25.000Z</time>
      </trkpt>
      <trkpt lat="49.59275" lon="3.43685">
        <ele>169.9</ele>
        <time>2025-10-05T08:35:26.000Z</time>
      </trkpt>
      <trkpt lat="49.59275" lon="3.43685">
        <ele>169.8</ele>
        <time>2025-10-05T08:35:27.000Z</time>
      </trkpt>
      <trkpt lat="49.59274" lon="3.43685">
        <ele>169.8</ele>
        <time>2025-10-05T08:35:28.000Z</time>
      </trkpt>
      <trkpt lat="49.59274" lon="3.43684">
        <ele>169.9</ele>
        <time>2025-10-05T08:35:29.000Z</time>
      </trkpt>
      <trkpt lat="49.59274" lon="3.43684">
        <ele>170.2</ele>
        <time>2025-10-05T08:35:30.000Z</time>
      </trkpt>
      <trkpt lat="49.59274" lon="3.43684">
        <ele>170.5</ele>
        <time>2025-10-05T08:35:31.000Z</time>
      </trkpt>
      <trkpt lat="49.59274" lon="3.43684">
        <ele>170.5</ele>
        <time>2025-10-05T08:35:32.000Z</time>
      </trkpt>
      <trkpt lat="49.59274" lon="3.43684">
        <ele>170.5</ele>
        <time>2025-10-05T08:35:33.000Z</time>
      </trkpt>
      <trkpt lat="49.59274" lon="3.43684">
        <ele>170.5</ele>
        <time>2025-10-05T08:35:34.000Z</time>
      </trkpt>
      <trkpt lat="49.59274" lon="3.43684">
        <ele>170.5</ele>
        <time>2025-10-05T08:35:35.000Z</time>
      </trkpt>
      <trkpt lat="49.59274" lon="3.43684">
        <ele>170.5</ele>
        <time>2025-10-05T08:35:36.000Z</time>
      </trkpt>
      <trkpt lat="49.59274" lon="3.43684">
        <ele>170.5</ele>
        <time>2025-10-05T08:35:37.000Z</time>
      </trkpt>
      <trkpt lat="49.59274" lon="3.43684">
        <ele>170.5</ele>
        <time>2025-10-05T08:35:38.000Z</time>
      </trkpt>
      <trkpt lat="49.59274" lon="3.43684">
        <ele>170.5</ele>
        <time>2025-10-05T08:35:39.000Z</time>
      </trkpt>
      <trkpt lat="49.59274" lon="3.43684">
        <ele>170.5</ele>
        <time>2025-10-05T08:35:40.000Z</time>
      </trkpt>
      <trkpt lat="49.59276" lon="3.43677">
        <ele>172.3</ele>
        <time>2025-10-05T08:35:41.000Z</time>
      </trkpt>
      <trkpt lat="49.59276" lon="3.43675">
        <ele>172.3</ele>
        <time>2025-10-05T08:35:42.000Z</time>
      </trkpt>
      <trkpt lat="49.59276" lon="3.43674">
        <ele>172.4</ele>
        <time>2025-10-05T08:35:43.000Z</time>
      </trkpt>
      <trkpt lat="49.59276" lon="3.43672">
        <ele>172.5</ele>
        <time>2025-10-05T08:35:44.000Z</time>
      </trkpt>
      <trkpt lat="49.59276" lon="3.43671">
        <ele>172.5</ele>
        <time>2025-10-05T08:35:45.000Z</time>
      </trkpt>
      <trkpt lat="49.59276" lon="3.43671">
        <ele>172.5</ele>
        <time>2025-10-05T08:35:46.000Z</time>
      </trkpt>
      <trkpt lat="49.59277" lon="3.4367">
        <ele>172.5</ele>
        <time>2025-10-05T08:35:47.000Z</time>
      </trkpt>
      <trkpt lat="49.59277" lon="3.4367">
        <ele>172.3</ele>
        <time>2025-10-05T08:35:48.000Z</time>
      </trkpt>
      <trkpt lat="49.59277" lon="3.43669">
        <ele>172.2</ele>
        <time>2025-10-05T08:35:49.000Z</time>
      </trkpt>
      <trkpt lat="49.59277" lon="3.43668">
        <ele>172.1</ele>
        <time>2025-10-05T08:35:50.000Z</time>
      </trkpt>
      <trkpt lat="49.59277" lon="3.43667">
        <ele>172.1</ele>
        <time>2025-10-05T08:35:51.000Z</time>
      </trkpt>
      <trkpt lat="49.59277" lon="3.43667">
        <ele>172</ele>
        <time>2025-10-05T08:35:52.000Z</time>
      </trkpt>
      <trkpt lat="49.59277" lon="3.43666">
        <ele>171.8</ele>
        <time>2025-10-05T08:35:53.000Z</time>
      </trkpt>
      <trkpt lat="49.59277" lon="3.43665">
        <ele>171.7</ele>
        <time>2025-10-05T08:35:54.000Z</time>
      </trkpt>
      <trkpt lat="49.59277" lon="3.43664">
        <ele>171.5</ele>
        <time>2025-10-05T08:35:55.000Z</time>
      </trkpt>
      <trkpt lat="49.59277" lon="3.43664">
        <ele>171.5</ele>
        <time>2025-10-05T08:35:56.000Z</time>
      </trkpt>
      <trkpt lat="49.59277" lon="3.43663">
        <ele>171.5</ele>
        <time>2025-10-05T08:35:57.000Z</time>
      </trkpt>
      <trkpt lat="49.59277" lon="3.43663">
        <ele>171.7</ele>
        <time>2025-10-05T08:35:58.000Z</time>
      </trkpt>
      <trkpt lat="49.59276" lon="3.43662">
        <ele>171.9</ele>
        <time>2025-10-05T08:35:59.000Z</time>
      </trkpt>
      <trkpt lat="49.59276" lon="3.43662">
        <ele>172</ele>
        <time>2025-10-05T08:36:00.000Z</time>
      </trkpt>
      <trkpt lat="49.59276" lon="3.43661">
        <ele>172</ele>
        <time>2025-10-05T08:36:01.000Z</time>
      </trkpt>
      <trkpt lat="49.59276" lon="3.43661">
        <ele>172</ele>
        <time>2025-10-05T08:36:02.000Z</time>
      </trkpt>
      <trkpt lat="49.59276" lon="3.43661">
        <ele>172</ele>
        <time>2025-10-05T08:36:03.000Z</time>
      </trkpt>
      <trkpt lat="49.59276" lon="3.43661">
        <ele>172</ele>
        <time>2025-10-05T08:36:04.000Z</time>
      </trkpt>
      <trkpt lat="49.59276" lon="3.43661">
        <ele>172</ele>
        <time>2025-10-05T08:36:05.000Z</time>
      </trkpt>
      <trkpt lat="49.59276" lon="3.43661">
        <ele>172</ele>
        <time>2025-10-05T08:36:06.000Z</time>
      </trkpt>
      <trkpt lat="49.59276" lon="3.43661">
        <ele>172</ele>
        <time>2025-10-05T08:36:07.000Z</time>
      </trkpt>
      <trkpt lat="49.59276" lon="3.43661">
        <ele>172</ele>
        <time>2025-10-05T08:36:08.000Z</time>
      </trkpt>
      <trkpt lat="49.59276" lon="3.43661">
        <ele>172</ele>
        <time>2025-10-05T08:36:09.000Z</time>
      </trkpt>
      <trkpt lat="49.59276" lon="3.43661">
        <ele>172</ele>
        <time>2025-10-05T08:36:10.000Z</time>
      </trkpt>
      <trkpt lat="49.59276" lon="3.43661">
        <ele>172</ele>
        <time>2025-10-05T08:36:11.000Z</time>
      </trkpt>
      <trkpt lat="49.59276" lon="3.43661">
        <ele>172</ele>
        <time>2025-10-05T08:36:12.000Z</time>
      </trkpt>
      <trkpt lat="49.59276" lon="3.43661">
        <ele>172</ele>
        <time>2025-10-05T08:36:13.000Z</time>
      </trkpt>
      <trkpt lat="49.59276" lon="3.43661">
        <ele>172</ele>
        <time>2025-10-05T08:36:14.000Z</time>
      </trkpt>
      <trkpt lat="49.59276" lon="3.43661">
        <ele>172</ele>
        <time>2025-10-05T08:36:15.000Z</time>
      </trkpt>
      <trkpt lat="49.59276" lon="3.43661">
        <ele>172</ele>
        <time>2025-10-05T08:36:16.000Z</time>
      </trkpt>
      <trkpt lat="49.59276" lon="3.43661">
        <ele>172</ele>
        <time>2025-10-05T08:36:17.000Z</time>
      </trkpt>
      <trkpt lat="49.59276" lon="3.43661">
        <ele>172</ele>
        <time>2025-10-05T08:36:18.000Z</time>
      </trkpt>
      <trkpt lat="49.59276" lon="3.43661">
        <ele>172</ele>
        <time>2025-10-05T08:36:19.000Z</time>
      </trkpt>
      <trkpt lat="49.59276" lon="3.43661">
        <ele>172</ele>
        <time>2025-10-05T08:36:20.000Z</time>
      </trkpt>
      <trkpt lat="49.59276" lon="3.43661">
        <ele>172</ele>
        <time>2025-10-05T08:36:21.000Z</time>
      </trkpt>
      <trkpt lat="49.59276" lon="3.43661">
        <ele>172</ele>
        <time>2025-10-05T08:36:22.000Z</time>
      </trkpt>
      <trkpt lat="49.59275" lon="3.4366">
        <ele>171</ele>
        <time>2025-10-05T08:36:23.000Z</time>
      </trkpt>
      <trkpt lat="49.59275" lon="3.43659">
        <ele>170.9</ele>
        <time>2025-10-05T08:36:24.000Z</time>
      </trkpt>
      <trkpt lat="49.59275" lon="3.43657">
        <ele>170.7</ele>
        <time>2025-10-05T08:36:25.000Z</time>
      </trkpt>
      <trkpt lat="49.59275" lon="3.43656">
        <ele>170.6</ele>
        <time>2025-10-05T08:36:26.000Z</time>
      </trkpt>
      <trkpt lat="49.59275" lon="3.43654">
        <ele>170.4</ele>
        <time>2025-10-05T08:36:27.000Z</time>
      </trkpt>
      <trkpt lat="49.59275" lon="3.43653">
        <ele>170.3</ele>
        <time>2025-10-05T08:36:28.000Z</time>
      </trkpt>
      <trkpt lat="49.59276" lon="3.43651">
        <ele>170.1</ele>
        <time>2025-10-05T08:36:29.000Z</time>
      </trkpt>
      <trkpt lat="49.59276" lon="3.4365">
        <ele>170</ele>
        <time>2025-10-05T08:36:30.000Z</time>
      </trkpt>
      <trkpt lat="49.59276" lon="3.43648">
        <ele>169.8</ele>
        <time>2025-10-05T08:36:31.000Z</time>
      </trkpt>
      <trkpt lat="49.59276" lon="3.43647">
        <ele>169.7</ele>
        <time>2025-10-05T08:36:32.000Z</time>
      </trkpt>
      <trkpt lat="49.59276" lon="3.43646">
        <ele>169.5</ele>
        <time>2025-10-05T08:36:33.000Z</time>
      </trkpt>
      <trkpt lat="49.59276" lon="3.43645">
        <ele>169.3</ele>
        <time>2025-10-05T08:36:34.000Z</time>
      </trkpt>
      <trkpt lat="49.59277" lon="3.43644">
        <ele>169.5</ele>
        <time>2025-10-05T08:36:35.000Z</time>
      </trkpt>
      <trkpt lat="49.59278" lon="3.43643">
        <ele>169.6</ele>
        <time>2025-10-05T08:36:36.000Z</time>
      </trkpt>
      <trkpt lat="49.59278" lon="3.43642">
        <ele>169.8</ele>
        <time>2025-10-05T08:36:37.000Z</time>
      </trkpt>
      <trkpt lat="49.59279" lon="3.4364">
        <ele>169.7</ele>
        <time>2025-10-05T08:36:38.000Z</time>
      </trkpt>
      <trkpt lat="49.59279" lon="3.43639">
        <ele>169.6</ele>
        <time>2025-10-05T08:36:39.000Z</time>
      </trkpt>
      <trkpt lat="49.59279" lon="3.43637">
        <ele>169.7</ele>
        <time>2025-10-05T08:36:40.000Z</time>
      </trkpt>
      <trkpt lat="49.59279" lon="3.43635">
        <ele>169.6</ele>
        <time>2025-10-05T08:36:41.000Z</time>
      </trkpt>
      <trkpt lat="49.5928" lon="3.43634">
        <ele>169.7</ele>
        <time>2025-10-05T08:36:42.000Z</time>
      </trkpt>
      <trkpt lat="49.5928" lon="3.43633">
        <ele>169.7</ele>
        <time>2025-10-05T08:36:43.000Z</time>
      </trkpt>
      <trkpt lat="49.5928" lon="3.43632">
        <ele>169.7</ele>
        <time>2025-10-05T08:36:44.000Z</time>
      </trkpt>
      <trkpt lat="49.5928" lon="3.4363">
        <ele>169.9</ele>
        <time>2025-10-05T08:36:45.000Z</time>
      </trkpt>
      <trkpt lat="49.5928" lon="3.43629">
        <ele>169.9</ele>
        <time>2025-10-05T08:36:46.000Z</time>
      </trkpt>
      <trkpt lat="49.59279" lon="3.43627">
        <ele>170.1</ele>
        <time>2025-10-05T08:36:47.000Z</time>
      </trkpt>
      <trkpt lat="49.59279" lon="3.43625">
        <ele>170.2</ele>
        <time>2025-10-05T08:36:48.000Z</time>
      </trkpt>
      <trkpt lat="49.59278" lon="3.43623">
        <ele>170.3</ele>
        <time>2025-10-05T08:36:49.000Z</time>
      </trkpt>
      <trkpt lat="49.59278" lon="3.43621">
        <ele>170.5</ele>
        <time>2025-10-05T08:36:50.000Z</time>
      </trkpt>
      <trkpt lat="49.59278" lon="3.43619">
        <ele>170.9</ele>
        <time>2025-10-05T08:36:51.000Z</time>
      </trkpt>
      <trkpt lat="49.59278" lon="3.43617">
        <ele>170.9</ele>
        <time>2025-10-05T08:36:52.000Z</time>
      </trkpt>
      <trkpt lat="49.59278" lon="3.43615">
        <ele>171</ele>
        <time>2025-10-05T08:36:53.000Z</time>
      </trkpt>
      <trkpt lat="49.59278" lon="3.43614">
        <ele>171.3</ele>
        <time>2025-10-05T08:36:54.000Z</time>
      </trkpt>
      <trkpt lat="49.59278" lon="3.43611">
        <ele>171.8</ele>
        <time>2025-10-05T08:36:55.000Z</time>
      </trkpt>
      <trkpt lat="49.59278" lon="3.4361">
        <ele>172</ele>
        <time>2025-10-05T08:36:56.000Z</time>
      </trkpt>
      <trkpt lat="49.59278" lon="3.43608">
        <ele>171.9</ele>
        <time>2025-10-05T08:36:57.000Z</time>
      </trkpt>
      <trkpt lat="49.59278" lon="3.43606">
        <ele>172.1</ele>
        <time>2025-10-05T08:36:58.000Z</time>
      </trkpt>
      <trkpt lat="49.59278" lon="3.43604">
        <ele>172.2</ele>
        <time>2025-10-05T08:36:59.000Z</time>
      </trkpt>
      <trkpt lat="49.59278" lon="3.43603">
        <ele>172.1</ele>
        <time>2025-10-05T08:37:00.000Z</time>
      </trkpt>
      <trkpt lat="49.59278" lon="3.43602">
        <ele>171.8</ele>
        <time>2025-10-05T08:37:01.000Z</time>
      </trkpt>
      <trkpt lat="49.59278" lon="3.43601">
        <ele>171.4</ele>
        <time>2025-10-05T08:37:02.000Z</time>
      </trkpt>
      <trkpt lat="49.59278" lon="3.436">
        <ele>170.9</ele>
        <time>2025-10-05T08:37:03.000Z</time>
      </trkpt>
      <trkpt lat="49.59277" lon="3.43599">
        <ele>170.5</ele>
        <time>2025-10-05T08:37:04.000Z</time>
      </trkpt>
      <trkpt lat="49.59277" lon="3.43599">
        <ele>170.4</ele>
        <time>2025-10-05T08:37:05.000Z</time>
      </trkpt>
      <trkpt lat="49.59277" lon="3.43598">
        <ele>170.4</ele>
        <time>2025-10-05T08:37:06.000Z</time>
      </trkpt>
      <trkpt lat="49.59277" lon="3.43598">
        <ele>170.3</ele>
        <time>2025-10-05T08:37:07.000Z</time>
      </trkpt>
      <trkpt lat="49.59277" lon="3.43598">
        <ele>170.3</ele>
        <time>2025-10-05T08:37:08.000Z</time>
      </trkpt>
      <trkpt lat="49.59277" lon="3.43597">
        <ele>170.1</ele>
        <time>2025-10-05T08:37:09.000Z</time>
      </trkpt>
      <trkpt lat="49.59277" lon="3.43596">
        <ele>170</ele>
        <time>2025-10-05T08:37:10.000Z</time>
      </trkpt>
      <trkpt lat="49.59277" lon="3.43596">
        <ele>169.9</ele>
        <time>2025-10-05T08:37:11.000Z</time>
      </trkpt>
      <trkpt lat="49.59277" lon="3.43596">
        <ele>169.9</ele>
        <time>2025-10-05T08:37:12.000Z</time>
      </trkpt>
      <trkpt lat="49.59277" lon="3.43596">
        <ele>169.9</ele>
        <time>2025-10-05T08:37:13.000Z</time>
      </trkpt>
      <trkpt lat="49.59277" lon="3.43596">
        <ele>169.9</ele>
        <time>2025-10-05T08:37:14.000Z</time>
      </trkpt>
      <trkpt lat="49.59277" lon="3.43596">
        <ele>169.9</ele>
        <time>2025-10-05T08:37:15.000Z</time>
      </trkpt>
      <trkpt lat="49.59277" lon="3.43596">
        <ele>169.9</ele>
        <time>2025-10-05T08:37:16.000Z</time>
      </trkpt>
      <trkpt lat="49.59277" lon="3.43596">
        <ele>169.9</ele>
        <time>2025-10-05T08:37:17.000Z</time>
      </trkpt>
      <trkpt lat="49.59277" lon="3.43596">
        <ele>169.9</ele>
        <time>2025-10-05T08:37:18.000Z</time>
      </trkpt>
      <trkpt lat="49.59277" lon="3.43596">
        <ele>169.9</ele>
        <time>2025-10-05T08:37:19.000Z</time>
      </trkpt>
      <trkpt lat="49.59277" lon="3.43596">
        <ele>169.9</ele>
        <time>2025-10-05T08:37:20.000Z</time>
      </trkpt>
      <trkpt lat="49.59278" lon="3.43592">
        <ele>169.8</ele>
        <time>2025-10-05T08:37:21.000Z</time>
      </trkpt>
      <trkpt lat="49.59277" lon="3.43591">
        <ele>169.7</ele>
        <time>2025-10-05T08:37:22.000Z</time>
      </trkpt>
      <trkpt lat="49.59277" lon="3.43591">
        <ele>169.6</ele>
        <time>2025-10-05T08:37:23.000Z</time>
      </trkpt>
      <trkpt lat="49.59277" lon="3.43589">
        <ele>169.5</ele>
        <time>2025-10-05T08:37:24.000Z</time>
      </trkpt>
      <trkpt lat="49.59277" lon="3.43588">
        <ele>169.3</ele>
        <time>2025-10-05T08:37:25.000Z</time>
      </trkpt>
      <trkpt lat="49.59276" lon="3.43587">
        <ele>169.2</ele>
        <time>2025-10-05T08:37:26.000Z</time>
      </trkpt>
      <trkpt lat="49.59276" lon="3.43585">
        <ele>169.5</ele>
        <time>2025-10-05T08:37:27.000Z</time>
      </trkpt>
      <trkpt lat="49.59275" lon="3.43584">
        <ele>169.9</ele>
        <time>2025-10-05T08:37:28.000Z</time>
      </trkpt>
      <trkpt lat="49.59275" lon="3.43582">
        <ele>170</ele>
        <time>2025-10-05T08:37:29.000Z</time>
      </trkpt>
      <trkpt lat="49.59275" lon="3.43581">
        <ele>169.8</ele>
        <time>2025-10-05T08:37:30.000Z</time>
      </trkpt>
      <trkpt lat="49.59274" lon="3.43579">
        <ele>169.7</ele>
        <time>2025-10-05T08:37:31.000Z</time>
      </trkpt>
      <trkpt lat="49.59274" lon="3.43578">
        <ele>169.8</ele>
        <time>2025-10-05T08:37:32.000Z</time>
      </trkpt>
      <trkpt lat="49.59274" lon="3.43576">
        <ele>170</ele>
        <time>2025-10-05T08:37:33.000Z</time>
      </trkpt>
      <trkpt lat="49.59274" lon="3.43574">
        <ele>170.2</ele>
        <time>2025-10-05T08:37:34.000Z</time>
      </trkpt>
      <trkpt lat="49.59273" lon="3.43572">
        <ele>170.2</ele>
        <time>2025-10-05T08:37:35.000Z</time>
      </trkpt>
      <trkpt lat="49.59273" lon="3.4357">
        <ele>170.3</ele>
        <time>2025-10-05T08:37:36.000Z</time>
      </trkpt>
      <trkpt lat="49.59273" lon="3.43568">
        <ele>170.4</ele>
        <time>2025-10-05T08:37:37.000Z</time>
      </trkpt>
      <trkpt lat="49.59273" lon="3.43566">
        <ele>170.5</ele>
        <time>2025-10-05T08:37:38.000Z</time>
      </trkpt>
      <trkpt lat="49.59273" lon="3.43564">
        <ele>170.2</ele>
        <time>2025-10-05T08:37:39.000Z</time>
      </trkpt>
      <trkpt lat="49.59272" lon="3.43562">
        <ele>170.2</ele>
        <time>2025-10-05T08:37:40.000Z</time>
      </trkpt>
      <trkpt lat="49.59272" lon="3.43561">
        <ele>170</ele>
        <time>2025-10-05T08:37:41.000Z</time>
      </trkpt>
      <trkpt lat="49.59271" lon="3.4356">
        <ele>170</ele>
        <time>2025-10-05T08:37:42.000Z</time>
      </trkpt>
      <trkpt lat="49.59271" lon="3.43559">
        <ele>170.1</ele>
        <time>2025-10-05T08:37:43.000Z</time>
      </trkpt>
      <trkpt lat="49.59271" lon="3.43557">
        <ele>170</ele>
        <time>2025-10-05T08:37:44.000Z</time>
      </trkpt>
      <trkpt lat="49.5927" lon="3.43555">
        <ele>169.7</ele>
        <time>2025-10-05T08:37:45.000Z</time>
      </trkpt>
      <trkpt lat="49.5927" lon="3.43553">
        <ele>169.4</ele>
        <time>2025-10-05T08:37:46.000Z</time>
      </trkpt>
      <trkpt lat="49.5927" lon="3.43551">
        <ele>169.2</ele>
        <time>2025-10-05T08:37:47.000Z</time>
      </trkpt>
      <trkpt lat="49.59269" lon="3.43549">
        <ele>168.9</ele>
        <time>2025-10-05T08:37:48.000Z</time>
      </trkpt>
      <trkpt lat="49.59269" lon="3.43547">
        <ele>168.4</ele>
        <time>2025-10-05T08:37:49.000Z</time>
      </trkpt>
      <trkpt lat="49.59269" lon="3.43546">
        <ele>168.1</ele>
        <time>2025-10-05T08:37:50.000Z</time>
      </trkpt>
      <trkpt lat="49.59268" lon="3.43544">
        <ele>168.1</ele>
        <time>2025-10-05T08:37:51.000Z</time>
      </trkpt>
      <trkpt lat="49.59267" lon="3.43543">
        <ele>168</ele>
        <time>2025-10-05T08:37:52.000Z</time>
      </trkpt>
      <trkpt lat="49.59267" lon="3.43543">
        <ele>168.2</ele>
        <time>2025-10-05T08:37:53.000Z</time>
      </trkpt>
      <trkpt lat="49.59266" lon="3.43542">
        <ele>168.3</ele>
        <time>2025-10-05T08:37:54.000Z</time>
      </trkpt>
      <trkpt lat="49.59265" lon="3.43541">
        <ele>168.3</ele>
        <time>2025-10-05T08:37:55.000Z</time>
      </trkpt>
      <trkpt lat="49.59265" lon="3.43539">
        <ele>168.4</ele>
        <time>2025-10-05T08:37:56.000Z</time>
      </trkpt>
      <trkpt lat="49.59264" lon="3.43539">
        <ele>168.6</ele>
        <time>2025-10-05T08:37:57.000Z</time>
      </trkpt>
      <trkpt lat="49.59264" lon="3.43538">
        <ele>168.7</ele>
        <time>2025-10-05T08:37:58.000Z</time>
      </trkpt>
      <trkpt lat="49.59263" lon="3.43536">
        <ele>168.7</ele>
        <time>2025-10-05T08:37:59.000Z</time>
      </trkpt>
      <trkpt lat="49.59262" lon="3.43535">
        <ele>168.9</ele>
        <time>2025-10-05T08:38:00.000Z</time>
      </trkpt>
      <trkpt lat="49.59262" lon="3.43533">
        <ele>169.2</ele>
        <time>2025-10-05T08:38:01.000Z</time>
      </trkpt>
      <trkpt lat="49.59261" lon="3.43531">
        <ele>169.4</ele>
        <time>2025-10-05T08:38:02.000Z</time>
      </trkpt>
      <trkpt lat="49.59261" lon="3.4353">
        <ele>169.5</ele>
        <time>2025-10-05T08:38:03.000Z</time>
      </trkpt>
      <trkpt lat="49.5926" lon="3.43528">
        <ele>169.6</ele>
        <time>2025-10-05T08:38:04.000Z</time>
      </trkpt>
      <trkpt lat="49.59259" lon="3.43526">
        <ele>169.6</ele>
        <time>2025-10-05T08:38:05.000Z</time>
      </trkpt>
      <trkpt lat="49.59258" lon="3.43523">
        <ele>169.7</ele>
        <time>2025-10-05T08:38:06.000Z</time>
      </trkpt>
      <trkpt lat="49.59257" lon="3.43521">
        <ele>169.6</ele>
        <time>2025-10-05T08:38:07.000Z</time>
      </trkpt>
      <trkpt lat="49.59257" lon="3.4352">
        <ele>169.5</ele>
        <time>2025-10-05T08:38:08.000Z</time>
      </trkpt>
      <trkpt lat="49.59256" lon="3.43518">
        <ele>169.5</ele>
        <time>2025-10-05T08:38:09.000Z</time>
      </trkpt>
      <trkpt lat="49.59256" lon="3.43517">
        <ele>169.8</ele>
        <time>2025-10-05T08:38:10.000Z</time>
      </trkpt>
      <trkpt lat="49.59255" lon="3.43515">
        <ele>170.3</ele>
        <time>2025-10-05T08:38:11.000Z</time>
      </trkpt>
      <trkpt lat="49.59254" lon="3.43513">
        <ele>170.4</ele>
        <time>2025-10-05T08:38:12.000Z</time>
      </trkpt>
      <trkpt lat="49.59253" lon="3.43512">
        <ele>170.6</ele>
        <time>2025-10-05T08:38:13.000Z</time>
      </trkpt>
      <trkpt lat="49.59252" lon="3.43511">
        <ele>170.5</ele>
        <time>2025-10-05T08:38:14.000Z</time>
      </trkpt>
      <trkpt lat="49.59251" lon="3.43509">
        <ele>170.2</ele>
        <time>2025-10-05T08:38:15.000Z</time>
      </trkpt>
      <trkpt lat="49.5925" lon="3.43508">
        <ele>169.9</ele>
        <time>2025-10-05T08:38:16.000Z</time>
      </trkpt>
      <trkpt lat="49.5925" lon="3.43507">
        <ele>169.7</ele>
        <time>2025-10-05T08:38:17.000Z</time>
      </trkpt>
      <trkpt lat="49.59249" lon="3.43507">
        <ele>169.5</ele>
        <time>2025-10-05T08:38:18.000Z</time>
      </trkpt>
      <trkpt lat="49.59248" lon="3.43506">
        <ele>169.5</ele>
        <time>2025-10-05T08:38:19.000Z</time>
      </trkpt>
      <trkpt lat="49.59247" lon="3.43505">
        <ele>169.6</ele>
        <time>2025-10-05T08:38:20.000Z</time>
      </trkpt>
      <trkpt lat="49.59246" lon="3.43504">
        <ele>169.7</ele>
        <time>2025-10-05T08:38:21.000Z</time>
      </trkpt>
      <trkpt lat="49.59246" lon="3.43503">
        <ele>169.8</ele>
        <time>2025-10-05T08:38:22.000Z</time>
      </trkpt>
      <trkpt lat="49.59245" lon="3.43503">
        <ele>169.8</ele>
        <time>2025-10-05T08:38:23.000Z</time>
      </trkpt>
      <trkpt lat="49.59245" lon="3.43502">
        <ele>169.9</ele>
        <time>2025-10-05T08:38:24.000Z</time>
      </trkpt>
      <trkpt lat="49.59244" lon="3.43501">
        <ele>169.8</ele>
        <time>2025-10-05T08:38:25.000Z</time>
      </trkpt>
      <trkpt lat="49.59244" lon="3.435">
        <ele>169.8</ele>
        <time>2025-10-05T08:38:26.000Z</time>
      </trkpt>
      <trkpt lat="49.59243" lon="3.43499">
        <ele>169.8</ele>
        <time>2025-10-05T08:38:27.000Z</time>
      </trkpt>
      <trkpt lat="49.59242" lon="3.43499">
        <ele>169.8</ele>
        <time>2025-10-05T08:38:28.000Z</time>
      </trkpt>
      <trkpt lat="49.59242" lon="3.43498">
        <ele>169.8</ele>
        <time>2025-10-05T08:38:29.000Z</time>
      </trkpt>
      <trkpt lat="49.5924" lon="3.43498">
        <ele>169.9</ele>
        <time>2025-10-05T08:38:30.000Z</time>
      </trkpt>
      <trkpt lat="49.5924" lon="3.43497">
        <ele>169.9</ele>
        <time>2025-10-05T08:38:31.000Z</time>
      </trkpt>
      <trkpt lat="49.59239" lon="3.43496">
        <ele>169.7</ele>
        <time>2025-10-05T08:38:32.000Z</time>
      </trkpt>
      <trkpt lat="49.59238" lon="3.43495">
        <ele>169.2</ele>
        <time>2025-10-05T08:38:33.000Z</time>
      </trkpt>
      <trkpt lat="49.59237" lon="3.43494">
        <ele>168.6</ele>
        <time>2025-10-05T08:38:34.000Z</time>
      </trkpt>
      <trkpt lat="49.59236" lon="3.43493">
        <ele>167.9</ele>
        <time>2025-10-05T08:38:35.000Z</time>
      </trkpt>
      <trkpt lat="49.59234" lon="3.43492">
        <ele>167.6</ele>
        <time>2025-10-05T08:38:36.000Z</time>
      </trkpt>
      <trkpt lat="49.59233" lon="3.43491">
        <ele>167</ele>
        <time>2025-10-05T08:38:37.000Z</time>
      </trkpt>
      <trkpt lat="49.59232" lon="3.4349">
        <ele>166.8</ele>
        <time>2025-10-05T08:38:38.000Z</time>
      </trkpt>
      <trkpt lat="49.59231" lon="3.43489">
        <ele>167</ele>
        <time>2025-10-05T08:38:39.000Z</time>
      </trkpt>
      <trkpt lat="49.5923" lon="3.43488">
        <ele>166.5</ele>
        <time>2025-10-05T08:38:40.000Z</time>
      </trkpt>
      <trkpt lat="49.59229" lon="3.43488">
        <ele>166.2</ele>
        <time>2025-10-05T08:38:41.000Z</time>
      </trkpt>
      <trkpt lat="49.59228" lon="3.43487">
        <ele>166.2</ele>
        <time>2025-10-05T08:38:42.000Z</time>
      </trkpt>
      <trkpt lat="49.59227" lon="3.43486">
        <ele>166.2</ele>
        <time>2025-10-05T08:38:43.000Z</time>
      </trkpt>
      <trkpt lat="49.59226" lon="3.43486">
        <ele>166</ele>
        <time>2025-10-05T08:38:44.000Z</time>
      </trkpt>
      <trkpt lat="49.59225" lon="3.43485">
        <ele>165.9</ele>
        <time>2025-10-05T08:38:45.000Z</time>
      </trkpt>
      <trkpt lat="49.59225" lon="3.43484">
        <ele>165.8</ele>
        <time>2025-10-05T08:38:46.000Z</time>
      </trkpt>
      <trkpt lat="49.59224" lon="3.43484">
        <ele>165.9</ele>
        <time>2025-10-05T08:38:47.000Z</time>
      </trkpt>
      <trkpt lat="49.59223" lon="3.43484">
        <ele>166.1</ele>
        <time>2025-10-05T08:38:48.000Z</time>
      </trkpt>
      <trkpt lat="49.59223" lon="3.43483">
        <ele>166.5</ele>
        <time>2025-10-05T08:38:49.000Z</time>
      </trkpt>
      <trkpt lat="49.59222" lon="3.43483">
        <ele>166.9</ele>
        <time>2025-10-05T08:38:50.000Z</time>
      </trkpt>
      <trkpt lat="49.59221" lon="3.43483">
        <ele>167.2</ele>
        <time>2025-10-05T08:38:51.000Z</time>
      </trkpt>
      <trkpt lat="49.5922" lon="3.43483">
        <ele>167.3</ele>
        <time>2025-10-05T08:38:52.000Z</time>
      </trkpt>
      <trkpt lat="49.59219" lon="3.43483">
        <ele>167.4</ele>
        <time>2025-10-05T08:38:53.000Z</time>
      </trkpt>
      <trkpt lat="49.59218" lon="3.43483">
        <ele>167.6</ele>
        <time>2025-10-05T08:38:54.000Z</time>
      </trkpt>
      <trkpt lat="49.59217" lon="3.43483">
        <ele>167.8</ele>
        <time>2025-10-05T08:38:55.000Z</time>
      </trkpt>
      <trkpt lat="49.59215" lon="3.43484">
        <ele>168</ele>
        <time>2025-10-05T08:38:56.000Z</time>
      </trkpt>
      <trkpt lat="49.59214" lon="3.43484">
        <ele>168.1</ele>
        <time>2025-10-05T08:38:57.000Z</time>
      </trkpt>
      <trkpt lat="49.59213" lon="3.43483">
        <ele>168.4</ele>
        <time>2025-10-05T08:38:58.000Z</time>
      </trkpt>
      <trkpt lat="49.59212" lon="3.43483">
        <ele>168.7</ele>
        <time>2025-10-05T08:38:59.000Z</time>
      </trkpt>
      <trkpt lat="49.59211" lon="3.43483">
        <ele>168.9</ele>
        <time>2025-10-05T08:39:00.000Z</time>
      </trkpt>
      <trkpt lat="49.5921" lon="3.43483">
        <ele>169.1</ele>
        <time>2025-10-05T08:39:01.000Z</time>
      </trkpt>
      <trkpt lat="49.59209" lon="3.43483">
        <ele>169</ele>
        <time>2025-10-05T08:39:02.000Z</time>
      </trkpt>
      <trkpt lat="49.59208" lon="3.43483">
        <ele>168.9</ele>
        <time>2025-10-05T08:39:03.000Z</time>
      </trkpt>
      <trkpt lat="49.59207" lon="3.43483">
        <ele>168.8</ele>
        <time>2025-10-05T08:39:04.000Z</time>
      </trkpt>
      <trkpt lat="49.59206" lon="3.43483">
        <ele>169</ele>
        <time>2025-10-05T08:39:05.000Z</time>
      </trkpt>
      <trkpt lat="49.59205" lon="3.43483">
        <ele>169.1</ele>
        <time>2025-10-05T08:39:06.000Z</time>
      </trkpt>
      <trkpt lat="49.59203" lon="3.43483">
        <ele>169.1</ele>
        <time>2025-10-05T08:39:07.000Z</time>
      </trkpt>
      <trkpt lat="49.59202" lon="3.43483">
        <ele>169.3</ele>
        <time>2025-10-05T08:39:08.000Z</time>
      </trkpt>
      <trkpt lat="49.59201" lon="3.43484">
        <ele>169.4</ele>
        <time>2025-10-05T08:39:09.000Z</time>
      </trkpt>
      <trkpt lat="49.592" lon="3.43484">
        <ele>169.4</ele>
        <time>2025-10-05T08:39:10.000Z</time>
      </trkpt>
      <trkpt lat="49.59199" lon="3.43484">
        <ele>169.3</ele>
        <time>2025-10-05T08:39:11.000Z</time>
      </trkpt>
      <trkpt lat="49.59198" lon="3.43484">
        <ele>169.3</ele>
        <time>2025-10-05T08:39:12.000Z</time>
      </trkpt>
      <trkpt lat="49.59197" lon="3.43484">
        <ele>169.1</ele>
        <time>2025-10-05T08:39:13.000Z</time>
      </trkpt>
      <trkpt lat="49.59196" lon="3.43484">
        <ele>168.9</ele>
        <time>2025-10-05T08:39:14.000Z</time>
      </trkpt>
      <trkpt lat="49.59194" lon="3.43484">
        <ele>168.5</ele>
        <time>2025-10-05T08:39:15.000Z</time>
      </trkpt>
      <trkpt lat="49.59193" lon="3.43485">
        <ele>168.2</ele>
        <time>2025-10-05T08:39:16.000Z</time>
      </trkpt>
      <trkpt lat="49.59192" lon="3.43485">
        <ele>167.9</ele>
        <time>2025-10-05T08:39:17.000Z</time>
      </trkpt>
      <trkpt lat="49.59192" lon="3.43485">
        <ele>167.6</ele>
        <time>2025-10-05T08:39:18.000Z</time>
      </trkpt>
      <trkpt lat="49.5919" lon="3.43485">
        <ele>167.7</ele>
        <time>2025-10-05T08:39:19.000Z</time>
      </trkpt>
      <trkpt lat="49.59189" lon="3.43485">
        <ele>167.7</ele>
        <time>2025-10-05T08:39:20.000Z</time>
      </trkpt>
      <trkpt lat="49.59187" lon="3.43486">
        <ele>167.8</ele>
        <time>2025-10-05T08:39:21.000Z</time>
      </trkpt>
      <trkpt lat="49.59187" lon="3.43487">
        <ele>167.7</ele>
        <time>2025-10-05T08:39:22.000Z</time>
      </trkpt>
      <trkpt lat="49.59185" lon="3.43487">
        <ele>167.5</ele>
        <time>2025-10-05T08:39:23.000Z</time>
      </trkpt>
      <trkpt lat="49.59184" lon="3.43488">
        <ele>167.4</ele>
        <time>2025-10-05T08:39:24.000Z</time>
      </trkpt>
      <trkpt lat="49.59184" lon="3.43488">
        <ele>167.7</ele>
        <time>2025-10-05T08:39:25.000Z</time>
      </trkpt>
      <trkpt lat="49.59184" lon="3.43488">
        <ele>167.8</ele>
        <time>2025-10-05T08:39:26.000Z</time>
      </trkpt>
      <trkpt lat="49.59183" lon="3.43488">
        <ele>167.9</ele>
        <time>2025-10-05T08:39:27.000Z</time>
      </trkpt>
      <trkpt lat="49.59182" lon="3.43487">
        <ele>168.3</ele>
        <time>2025-10-05T08:39:28.000Z</time>
      </trkpt>
      <trkpt lat="49.59181" lon="3.43487">
        <ele>168.5</ele>
        <time>2025-10-05T08:39:29.000Z</time>
      </trkpt>
      <trkpt lat="49.59179" lon="3.43487">
        <ele>168.8</ele>
        <time>2025-10-05T08:39:30.000Z</time>
      </trkpt>
      <trkpt lat="49.59177" lon="3.43487">
        <ele>169.1</ele>
        <time>2025-10-05T08:39:31.000Z</time>
      </trkpt>
      <trkpt lat="49.59175" lon="3.43487">
        <ele>169.4</ele>
        <time>2025-10-05T08:39:32.000Z</time>
      </trkpt>
      <trkpt lat="49.59173" lon="3.43488">
        <ele>169.8</ele>
        <time>2025-10-05T08:39:33.000Z</time>
      </trkpt>
      <trkpt lat="49.59172" lon="3.43488">
        <ele>170.3</ele>
        <time>2025-10-05T08:39:34.000Z</time>
      </trkpt>
      <trkpt lat="49.5917" lon="3.43487">
        <ele>170.5</ele>
        <time>2025-10-05T08:39:35.000Z</time>
      </trkpt>
      <trkpt lat="49.59168" lon="3.43487">
        <ele>170.7</ele>
        <time>2025-10-05T08:39:36.000Z</time>
      </trkpt>
      <trkpt lat="49.59167" lon="3.43488">
        <ele>171</ele>
        <time>2025-10-05T08:39:37.000Z</time>
      </trkpt>
      <trkpt lat="49.59165" lon="3.43488">
        <ele>171.1</ele>
        <time>2025-10-05T08:39:38.000Z</time>
      </trkpt>
      <trkpt lat="49.59164" lon="3.43488">
        <ele>171.8</ele>
        <time>2025-10-05T08:39:39.000Z</time>
      </trkpt>
      <trkpt lat="49.59162" lon="3.43487">
        <ele>172.3</ele>
        <time>2025-10-05T08:39:40.000Z</time>
      </trkpt>
      <trkpt lat="49.59161" lon="3.43487">
        <ele>172.5</ele>
        <time>2025-10-05T08:39:41.000Z</time>
      </trkpt>
      <trkpt lat="49.5916" lon="3.43488">
        <ele>172.6</ele>
        <time>2025-10-05T08:39:42.000Z</time>
      </trkpt>
      <trkpt lat="49.59158" lon="3.43487">
        <ele>172.3</ele>
        <time>2025-10-05T08:39:43.000Z</time>
      </trkpt>
      <trkpt lat="49.59157" lon="3.43487">
        <ele>172.3</ele>
        <time>2025-10-05T08:39:44.000Z</time>
      </trkpt>
      <trkpt lat="49.59156" lon="3.43487">
        <ele>172.2</ele>
        <time>2025-10-05T08:39:45.000Z</time>
      </trkpt>
      <trkpt lat="49.59155" lon="3.43486">
        <ele>172.3</ele>
        <time>2025-10-05T08:39:46.000Z</time>
      </trkpt>
      <trkpt lat="49.59154" lon="3.43486">
        <ele>172.5</ele>
        <time>2025-10-05T08:39:47.000Z</time>
      </trkpt>
      <trkpt lat="49.59153" lon="3.43485">
        <ele>172.6</ele>
        <time>2025-10-05T08:39:48.000Z</time>
      </trkpt>
      <trkpt lat="49.59152" lon="3.43485">
        <ele>172.7</ele>
        <time>2025-10-05T08:39:49.000Z</time>
      </trkpt>
      <trkpt lat="49.59151" lon="3.43486">
        <ele>172.5</ele>
        <time>2025-10-05T08:39:50.000Z</time>
      </trkpt>
      <trkpt lat="49.5915" lon="3.43486">
        <ele>172.1</ele>
        <time>2025-10-05T08:39:51.000Z</time>
      </trkpt>
      <trkpt lat="49.5915" lon="3.43486">
        <ele>172.2</ele>
        <time>2025-10-05T08:39:52.000Z</time>
      </trkpt>
      <trkpt lat="49.59149" lon="3.43487">
        <ele>171.9</ele>
        <time>2025-10-05T08:39:53.000Z</time>
      </trkpt>
      <trkpt lat="49.59148" lon="3.43486">
        <ele>171.9</ele>
        <time>2025-10-05T08:39:54.000Z</time>
      </trkpt>
      <trkpt lat="49.59147" lon="3.43485">
        <ele>171.8</ele>
        <time>2025-10-05T08:39:55.000Z</time>
      </trkpt>
      <trkpt lat="49.59147" lon="3.43485">
        <ele>171.8</ele>
        <time>2025-10-05T08:39:56.000Z</time>
      </trkpt>
      <trkpt lat="49.59146" lon="3.43485">
        <ele>171.5</ele>
        <time>2025-10-05T08:39:57.000Z</time>
      </trkpt>
      <trkpt lat="49.59146" lon="3.43485">
        <ele>171.5</ele>
        <time>2025-10-05T08:39:58.000Z</time>
      </trkpt>
      <trkpt lat="49.59146" lon="3.43485">
        <ele>171.5</ele>
        <time>2025-10-05T08:39:59.000Z</time>
      </trkpt>
      <trkpt lat="49.59146" lon="3.43485">
        <ele>171.6</ele>
        <time>2025-10-05T08:40:00.000Z</time>
      </trkpt>
      <trkpt lat="49.59145" lon="3.43485">
        <ele>171.6</ele>
        <time>2025-10-05T08:40:01.000Z</time>
      </trkpt>
      <trkpt lat="49.59145" lon="3.43485">
        <ele>171.7</ele>
        <time>2025-10-05T08:40:02.000Z</time>
      </trkpt>
      <trkpt lat="49.59144" lon="3.43485">
        <ele>171.7</ele>
        <time>2025-10-05T08:40:03.000Z</time>
      </trkpt>
      <trkpt lat="49.59144" lon="3.43484">
        <ele>171.9</ele>
        <time>2025-10-05T08:40:04.000Z</time>
      </trkpt>
      <trkpt lat="49.59143" lon="3.43484">
        <ele>171.8</ele>
        <time>2025-10-05T08:40:05.000Z</time>
      </trkpt>
      <trkpt lat="49.59143" lon="3.43484">
        <ele>171.8</ele>
        <time>2025-10-05T08:40:06.000Z</time>
      </trkpt>
      <trkpt lat="49.59142" lon="3.43484">
        <ele>172.1</ele>
        <time>2025-10-05T08:40:07.000Z</time>
      </trkpt>
      <trkpt lat="49.59142" lon="3.43484">
        <ele>172.1</ele>
        <time>2025-10-05T08:40:08.000Z</time>
      </trkpt>
      <trkpt lat="49.59141" lon="3.43484">
        <ele>172</ele>
        <time>2025-10-05T08:40:09.000Z</time>
      </trkpt>
      <trkpt lat="49.5914" lon="3.43484">
        <ele>171.7</ele>
        <time>2025-10-05T08:40:10.000Z</time>
      </trkpt>
      <trkpt lat="49.59139" lon="3.43485">
        <ele>171.5</ele>
        <time>2025-10-05T08:40:11.000Z</time>
      </trkpt>
      <trkpt lat="49.59138" lon="3.43485">
        <ele>171.3</ele>
        <time>2025-10-05T08:40:12.000Z</time>
      </trkpt>
      <trkpt lat="49.59137" lon="3.43485">
        <ele>171.3</ele>
        <time>2025-10-05T08:40:13.000Z</time>
      </trkpt>
      <trkpt lat="49.59136" lon="3.43486">
        <ele>171.3</ele>
        <time>2025-10-05T08:40:14.000Z</time>
      </trkpt>
      <trkpt lat="49.59136" lon="3.43486">
        <ele>171.3</ele>
        <time>2025-10-05T08:40:15.000Z</time>
      </trkpt>
      <trkpt lat="49.59135" lon="3.43487">
        <ele>171.1</ele>
        <time>2025-10-05T08:40:16.000Z</time>
      </trkpt>
      <trkpt lat="49.59134" lon="3.43487">
        <ele>171.1</ele>
        <time>2025-10-05T08:40:17.000Z</time>
      </trkpt>
      <trkpt lat="49.59133" lon="3.43486">
        <ele>171.2</ele>
        <time>2025-10-05T08:40:18.000Z</time>
      </trkpt>
      <trkpt lat="49.59131" lon="3.43487">
        <ele>171.3</ele>
        <time>2025-10-05T08:40:19.000Z</time>
      </trkpt>
      <trkpt lat="49.59129" lon="3.43487">
        <ele>171</ele>
        <time>2025-10-05T08:40:20.000Z</time>
      </trkpt>
      <trkpt lat="49.59128" lon="3.43488">
        <ele>170.6</ele>
        <time>2025-10-05T08:40:21.000Z</time>
      </trkpt>
      <trkpt lat="49.59126" lon="3.43487">
        <ele>170</ele>
        <time>2025-10-05T08:40:22.000Z</time>
      </trkpt>
      <trkpt lat="49.59125" lon="3.43487">
        <ele>169.5</ele>
        <time>2025-10-05T08:40:23.000Z</time>
      </trkpt>
      <trkpt lat="49.59124" lon="3.43486">
        <ele>169.3</ele>
        <time>2025-10-05T08:40:24.000Z</time>
      </trkpt>
      <trkpt lat="49.59124" lon="3.43486">
        <ele>169.3</ele>
        <time>2025-10-05T08:40:25.000Z</time>
      </trkpt>
      <trkpt lat="49.59123" lon="3.43486">
        <ele>169.2</ele>
        <time>2025-10-05T08:40:26.000Z</time>
      </trkpt>
      <trkpt lat="49.59122" lon="3.43486">
        <ele>169.2</ele>
        <time>2025-10-05T08:40:27.000Z</time>
      </trkpt>
      <trkpt lat="49.59122" lon="3.43486">
        <ele>169.4</ele>
        <time>2025-10-05T08:40:28.000Z</time>
      </trkpt>
      <trkpt lat="49.59121" lon="3.43486">
        <ele>169.6</ele>
        <time>2025-10-05T08:40:29.000Z</time>
      </trkpt>
      <trkpt lat="49.5912" lon="3.43485">
        <ele>170</ele>
        <time>2025-10-05T08:40:30.000Z</time>
      </trkpt>
      <trkpt lat="49.59119" lon="3.43485">
        <ele>170.2</ele>
        <time>2025-10-05T08:40:31.000Z</time>
      </trkpt>
      <trkpt lat="49.59118" lon="3.43484">
        <ele>170.2</ele>
        <time>2025-10-05T08:40:32.000Z</time>
      </trkpt>
      <trkpt lat="49.59116" lon="3.43483">
        <ele>170.1</ele>
        <time>2025-10-05T08:40:33.000Z</time>
      </trkpt>
      <trkpt lat="49.59115" lon="3.43483">
        <ele>169.8</ele>
        <time>2025-10-05T08:40:34.000Z</time>
      </trkpt>
      <trkpt lat="49.59113" lon="3.43482">
        <ele>169.4</ele>
        <time>2025-10-05T08:40:35.000Z</time>
      </trkpt>
      <trkpt lat="49.59112" lon="3.43482">
        <ele>169.3</ele>
        <time>2025-10-05T08:40:36.000Z</time>
      </trkpt>
      <trkpt lat="49.59111" lon="3.43482">
        <ele>169.3</ele>
        <time>2025-10-05T08:40:37.000Z</time>
      </trkpt>
      <trkpt lat="49.5911" lon="3.43481">
        <ele>169.5</ele>
        <time>2025-10-05T08:40:38.000Z</time>
      </trkpt>
      <trkpt lat="49.59109" lon="3.43481">
        <ele>169.6</ele>
        <time>2025-10-05T08:40:39.000Z</time>
      </trkpt>
      <trkpt lat="49.59108" lon="3.43481">
        <ele>169.6</ele>
        <time>2025-10-05T08:40:40.000Z</time>
      </trkpt>
      <trkpt lat="49.59107" lon="3.43481">
        <ele>169.4</ele>
        <time>2025-10-05T08:40:41.000Z</time>
      </trkpt>
      <trkpt lat="49.59106" lon="3.43481">
        <ele>169.2</ele>
        <time>2025-10-05T08:40:42.000Z</time>
      </trkpt>
      <trkpt lat="49.59105" lon="3.43481">
        <ele>169.1</ele>
        <time>2025-10-05T08:40:43.000Z</time>
      </trkpt>
      <trkpt lat="49.59104" lon="3.43481">
        <ele>169</ele>
        <time>2025-10-05T08:40:44.000Z</time>
      </trkpt>
      <trkpt lat="49.59103" lon="3.43481">
        <ele>168.7</ele>
        <time>2025-10-05T08:40:45.000Z</time>
      </trkpt>
      <trkpt lat="49.59102" lon="3.4348">
        <ele>168.5</ele>
        <time>2025-10-05T08:40:46.000Z</time>
      </trkpt>
      <trkpt lat="49.591" lon="3.4348">
        <ele>168.5</ele>
        <time>2025-10-05T08:40:47.000Z</time>
      </trkpt>
      <trkpt lat="49.59099" lon="3.4348">
        <ele>168.5</ele>
        <time>2025-10-05T08:40:48.000Z</time>
      </trkpt>
      <trkpt lat="49.59098" lon="3.43479">
        <ele>168.4</ele>
        <time>2025-10-05T08:40:49.000Z</time>
      </trkpt>
      <trkpt lat="49.59097" lon="3.4348">
        <ele>168.2</ele>
        <time>2025-10-05T08:40:50.000Z</time>
      </trkpt>
      <trkpt lat="49.59096" lon="3.4348">
        <ele>168.1</ele>
        <time>2025-10-05T08:40:51.000Z</time>
      </trkpt>
      <trkpt lat="49.59095" lon="3.4348">
        <ele>168.2</ele>
        <time>2025-10-05T08:40:52.000Z</time>
      </trkpt>
      <trkpt lat="49.59094" lon="3.4348">
        <ele>168.3</ele>
        <time>2025-10-05T08:40:53.000Z</time>
      </trkpt>
      <trkpt lat="49.59094" lon="3.4348">
        <ele>168.4</ele>
        <time>2025-10-05T08:40:54.000Z</time>
      </trkpt>
      <trkpt lat="49.59093" lon="3.4348">
        <ele>168.5</ele>
        <time>2025-10-05T08:40:55.000Z</time>
      </trkpt>
      <trkpt lat="49.59092" lon="3.43481">
        <ele>168.4</ele>
        <time>2025-10-05T08:40:56.000Z</time>
      </trkpt>
      <trkpt lat="49.59091" lon="3.43481">
        <ele>168.6</ele>
        <time>2025-10-05T08:40:57.000Z</time>
      </trkpt>
      <trkpt lat="49.5909" lon="3.43481">
        <ele>168.8</ele>
        <time>2025-10-05T08:40:58.000Z</time>
      </trkpt>
      <trkpt lat="49.59088" lon="3.43481">
        <ele>168.6</ele>
        <time>2025-10-05T08:40:59.000Z</time>
      </trkpt>
      <trkpt lat="49.59087" lon="3.43481">
        <ele>168.6</ele>
        <time>2025-10-05T08:41:00.000Z</time>
      </trkpt>
      <trkpt lat="49.59086" lon="3.4348">
        <ele>168.4</ele>
        <time>2025-10-05T08:41:01.000Z</time>
      </trkpt>
      <trkpt lat="49.59084" lon="3.43481">
        <ele>168.2</ele>
        <time>2025-10-05T08:41:02.000Z</time>
      </trkpt>
      <trkpt lat="49.59083" lon="3.43481">
        <ele>167.9</ele>
        <time>2025-10-05T08:41:03.000Z</time>
      </trkpt>
      <trkpt lat="49.59082" lon="3.4348">
        <ele>167.9</ele>
        <time>2025-10-05T08:41:04.000Z</time>
      </trkpt>
      <trkpt lat="49.5908" lon="3.43479">
        <ele>167.7</ele>
        <time>2025-10-05T08:41:05.000Z</time>
      </trkpt>
      <trkpt lat="49.59079" lon="3.43479">
        <ele>167.6</ele>
        <time>2025-10-05T08:41:06.000Z</time>
      </trkpt>
      <trkpt lat="49.59077" lon="3.43479">
        <ele>167.5</ele>
        <time>2025-10-05T08:41:07.000Z</time>
      </trkpt>
      <trkpt lat="49.59076" lon="3.43478">
        <ele>167.5</ele>
        <time>2025-10-05T08:41:08.000Z</time>
      </trkpt>
      <trkpt lat="49.59075" lon="3.43478">
        <ele>167.4</ele>
        <time>2025-10-05T08:41:09.000Z</time>
      </trkpt>
      <trkpt lat="49.59074" lon="3.43478">
        <ele>167.1</ele>
        <time>2025-10-05T08:41:10.000Z</time>
      </trkpt>
      <trkpt lat="49.59073" lon="3.43479">
        <ele>166.5</ele>
        <time>2025-10-05T08:41:11.000Z</time>
      </trkpt>
      <trkpt lat="49.59072" lon="3.43479">
        <ele>166</ele>
        <time>2025-10-05T08:41:12.000Z</time>
      </trkpt>
      <trkpt lat="49.59071" lon="3.43479">
        <ele>166.1</ele>
        <time>2025-10-05T08:41:13.000Z</time>
      </trkpt>
      <trkpt lat="49.5907" lon="3.43479">
        <ele>166.3</ele>
        <time>2025-10-05T08:41:14.000Z</time>
      </trkpt>
      <trkpt lat="49.59069" lon="3.43479">
        <ele>166</ele>
        <time>2025-10-05T08:41:15.000Z</time>
      </trkpt>
      <trkpt lat="49.59069" lon="3.43479">
        <ele>165.8</ele>
        <time>2025-10-05T08:41:16.000Z</time>
      </trkpt>
      <trkpt lat="49.59068" lon="3.43479">
        <ele>165.9</ele>
        <time>2025-10-05T08:41:17.000Z</time>
      </trkpt>
      <trkpt lat="49.59066" lon="3.43479">
        <ele>166.1</ele>
        <time>2025-10-05T08:41:18.000Z</time>
      </trkpt>
      <trkpt lat="49.59066" lon="3.43479">
        <ele>166.3</ele>
        <time>2025-10-05T08:41:19.000Z</time>
      </trkpt>
      <trkpt lat="49.59065" lon="3.43479">
        <ele>166.4</ele>
        <time>2025-10-05T08:41:20.000Z</time>
      </trkpt>
      <trkpt lat="49.59064" lon="3.43479">
        <ele>166.2</ele>
        <time>2025-10-05T08:41:21.000Z</time>
      </trkpt>
      <trkpt lat="49.59062" lon="3.43479">
        <ele>166.1</ele>
        <time>2025-10-05T08:41:22.000Z</time>
      </trkpt>
      <trkpt lat="49.59061" lon="3.43479">
        <ele>166.1</ele>
        <time>2025-10-05T08:41:23.000Z</time>
      </trkpt>
      <trkpt lat="49.5906" lon="3.43479">
        <ele>166.1</ele>
        <time>2025-10-05T08:41:24.000Z</time>
      </trkpt>
      <trkpt lat="49.59058" lon="3.43479">
        <ele>166.1</ele>
        <time>2025-10-05T08:41:25.000Z</time>
      </trkpt>
      <trkpt lat="49.59057" lon="3.43478">
        <ele>166.2</ele>
        <time>2025-10-05T08:41:26.000Z</time>
      </trkpt>
      <trkpt lat="49.59056" lon="3.43478">
        <ele>166.1</ele>
        <time>2025-10-05T08:41:27.000Z</time>
      </trkpt>
      <trkpt lat="49.59054" lon="3.43477">
        <ele>166.1</ele>
        <time>2025-10-05T08:41:28.000Z</time>
      </trkpt>
      <trkpt lat="49.59052" lon="3.43477">
        <ele>166.3</ele>
        <time>2025-10-05T08:41:29.000Z</time>
      </trkpt>
      <trkpt lat="49.59051" lon="3.43477">
        <ele>166.6</ele>
        <time>2025-10-05T08:41:30.000Z</time>
      </trkpt>
      <trkpt lat="49.5905" lon="3.43477">
        <ele>166.8</ele>
        <time>2025-10-05T08:41:31.000Z</time>
      </trkpt>
      <trkpt lat="49.59049" lon="3.43477">
        <ele>166.9</ele>
        <time>2025-10-05T08:41:32.000Z</time>
      </trkpt>
      <trkpt lat="49.59048" lon="3.43477">
        <ele>166.9</ele>
        <time>2025-10-05T08:41:33.000Z</time>
      </trkpt>
      <trkpt lat="49.59046" lon="3.43475">
        <ele>166.8</ele>
        <time>2025-10-05T08:41:34.000Z</time>
      </trkpt>
      <trkpt lat="49.59046" lon="3.43475">
        <ele>166.7</ele>
        <time>2025-10-05T08:41:35.000Z</time>
      </trkpt>
      <trkpt lat="49.59045" lon="3.43474">
        <ele>167.1</ele>
        <time>2025-10-05T08:41:36.000Z</time>
      </trkpt>
      <trkpt lat="49.59044" lon="3.43474">
        <ele>167</ele>
        <time>2025-10-05T08:41:37.000Z</time>
      </trkpt>
      <trkpt lat="49.59043" lon="3.43473">
        <ele>167</ele>
        <time>2025-10-05T08:41:38.000Z</time>
      </trkpt>
      <trkpt lat="49.59043" lon="3.43473">
        <ele>166.9</ele>
        <time>2025-10-05T08:41:39.000Z</time>
      </trkpt>
      <trkpt lat="49.59042" lon="3.43473">
        <ele>166.9</ele>
        <time>2025-10-05T08:41:40.000Z</time>
      </trkpt>
      <trkpt lat="49.59042" lon="3.43473">
        <ele>166.8</ele>
        <time>2025-10-05T08:41:41.000Z</time>
      </trkpt>
      <trkpt lat="49.59041" lon="3.43474">
        <ele>167.1</ele>
        <time>2025-10-05T08:41:42.000Z</time>
      </trkpt>
      <trkpt lat="49.5904" lon="3.43475">
        <ele>167.5</ele>
        <time>2025-10-05T08:41:43.000Z</time>
      </trkpt>
      <trkpt lat="49.59039" lon="3.43476">
        <ele>167.8</ele>
        <time>2025-10-05T08:41:44.000Z</time>
      </trkpt>
      <trkpt lat="49.59038" lon="3.43476">
        <ele>167.9</ele>
        <time>2025-10-05T08:41:45.000Z</time>
      </trkpt>
      <trkpt lat="49.59037" lon="3.43477">
        <ele>167.8</ele>
        <time>2025-10-05T08:41:46.000Z</time>
      </trkpt>
      <trkpt lat="49.59035" lon="3.43478">
        <ele>167.9</ele>
        <time>2025-10-05T08:41:47.000Z</time>
      </trkpt>
      <trkpt lat="49.59034" lon="3.43479">
        <ele>168.2</ele>
        <time>2025-10-05T08:41:48.000Z</time>
      </trkpt>
      <trkpt lat="49.59032" lon="3.4348">
        <ele>168.6</ele>
        <time>2025-10-05T08:41:49.000Z</time>
      </trkpt>
      <trkpt lat="49.59031" lon="3.43481">
        <ele>168.5</ele>
        <time>2025-10-05T08:41:50.000Z</time>
      </trkpt>
      <trkpt lat="49.59029" lon="3.43482">
        <ele>168.5</ele>
        <time>2025-10-05T08:41:51.000Z</time>
      </trkpt>
      <trkpt lat="49.59027" lon="3.43484">
        <ele>168.2</ele>
        <time>2025-10-05T08:41:52.000Z</time>
      </trkpt>
      <trkpt lat="49.59026" lon="3.43486">
        <ele>168</ele>
        <time>2025-10-05T08:41:53.000Z</time>
      </trkpt>
      <trkpt lat="49.59024" lon="3.43487">
        <ele>167.6</ele>
        <time>2025-10-05T08:41:54.000Z</time>
      </trkpt>
      <trkpt lat="49.59023" lon="3.43488">
        <ele>167.4</ele>
        <time>2025-10-05T08:41:55.000Z</time>
      </trkpt>
      <trkpt lat="49.59023" lon="3.43489">
        <ele>167.4</ele>
        <time>2025-10-05T08:41:56.000Z</time>
      </trkpt>
      <trkpt lat="49.59022" lon="3.4349">
        <ele>166.6</ele>
        <time>2025-10-05T08:41:57.000Z</time>
      </trkpt>
      <trkpt lat="49.59022" lon="3.4349">
        <ele>166.2</ele>
        <time>2025-10-05T08:41:58.000Z</time>
      </trkpt>
      <trkpt lat="49.59021" lon="3.43491">
        <ele>165.8</ele>
        <time>2025-10-05T08:41:59.000Z</time>
      </trkpt>
      <trkpt lat="49.59021" lon="3.43492">
        <ele>165.4</ele>
        <time>2025-10-05T08:42:00.000Z</time>
      </trkpt>
      <trkpt lat="49.59021" lon="3.43493">
        <ele>165.2</ele>
        <time>2025-10-05T08:42:01.000Z</time>
      </trkpt>
      <trkpt lat="49.59019" lon="3.43493">
        <ele>164.7</ele>
        <time>2025-10-05T08:42:02.000Z</time>
      </trkpt>
      <trkpt lat="49.59018" lon="3.43494">
        <ele>164.5</ele>
        <time>2025-10-05T08:42:03.000Z</time>
      </trkpt>
      <trkpt lat="49.59017" lon="3.43495">
        <ele>164.3</ele>
        <time>2025-10-05T08:42:04.000Z</time>
      </trkpt>
      <trkpt lat="49.59016" lon="3.43497">
        <ele>164</ele>
        <time>2025-10-05T08:42:05.000Z</time>
      </trkpt>
      <trkpt lat="49.59015" lon="3.43497">
        <ele>164</ele>
        <time>2025-10-05T08:42:06.000Z</time>
      </trkpt>
      <trkpt lat="49.59014" lon="3.43498">
        <ele>164</ele>
        <time>2025-10-05T08:42:07.000Z</time>
      </trkpt>
      <trkpt lat="49.59012" lon="3.435">
        <ele>163.9</ele>
        <time>2025-10-05T08:42:08.000Z</time>
      </trkpt>
      <trkpt lat="49.59011" lon="3.43501">
        <ele>164</ele>
        <time>2025-10-05T08:42:09.000Z</time>
      </trkpt>
      <trkpt lat="49.5901" lon="3.43502">
        <ele>163.9</ele>
        <time>2025-10-05T08:42:10.000Z</time>
      </trkpt>
      <trkpt lat="49.59008" lon="3.43503">
        <ele>164</ele>
        <time>2025-10-05T08:42:11.000Z</time>
      </trkpt>
      <trkpt lat="49.59006" lon="3.43504">
        <ele>164</ele>
        <time>2025-10-05T08:42:12.000Z</time>
      </trkpt>
      <trkpt lat="49.59005" lon="3.43505">
        <ele>164.5</ele>
        <time>2025-10-05T08:42:13.000Z</time>
      </trkpt>
      <trkpt lat="49.59004" lon="3.43506">
        <ele>165</ele>
        <time>2025-10-05T08:42:14.000Z</time>
      </trkpt>
      <trkpt lat="49.59002" lon="3.43507">
        <ele>165</ele>
        <time>2025-10-05T08:42:15.000Z</time>
      </trkpt>
      <trkpt lat="49.59001" lon="3.43508">
        <ele>164.8</ele>
        <time>2025-10-05T08:42:16.000Z</time>
      </trkpt>
      <trkpt lat="49.59" lon="3.43508">
        <ele>164.8</ele>
        <time>2025-10-05T08:42:17.000Z</time>
      </trkpt>
      <trkpt lat="49.58999" lon="3.43509">
        <ele>164.9</ele>
        <time>2025-10-05T08:42:18.000Z</time>
      </trkpt>
      <trkpt lat="49.58999" lon="3.4351">
        <ele>165.1</ele>
        <time>2025-10-05T08:42:19.000Z</time>
      </trkpt>
      <trkpt lat="49.58998" lon="3.4351">
        <ele>164.7</ele>
        <time>2025-10-05T08:42:20.000Z</time>
      </trkpt>
      <trkpt lat="49.58997" lon="3.43512">
        <ele>164.2</ele>
        <time>2025-10-05T08:42:21.000Z</time>
      </trkpt>
      <trkpt lat="49.58996" lon="3.43513">
        <ele>164.1</ele>
        <time>2025-10-05T08:42:22.000Z</time>
      </trkpt>
      <trkpt lat="49.58995" lon="3.43514">
        <ele>164</ele>
        <time>2025-10-05T08:42:23.000Z</time>
      </trkpt>
      <trkpt lat="49.58994" lon="3.43515">
        <ele>163.8</ele>
        <time>2025-10-05T08:42:24.000Z</time>
      </trkpt>
      <trkpt lat="49.58994" lon="3.43516">
        <ele>163.5</ele>
        <time>2025-10-05T08:42:25.000Z</time>
      </trkpt>
      <trkpt lat="49.58993" lon="3.43517">
        <ele>163.4</ele>
        <time>2025-10-05T08:42:26.000Z</time>
      </trkpt>
      <trkpt lat="49.58992" lon="3.43517">
        <ele>163.2</ele>
        <time>2025-10-05T08:42:27.000Z</time>
      </trkpt>
      <trkpt lat="49.58992" lon="3.43518">
        <ele>162.6</ele>
        <time>2025-10-05T08:42:28.000Z</time>
      </trkpt>
      <trkpt lat="49.5899" lon="3.43519">
        <ele>162</ele>
        <time>2025-10-05T08:42:29.000Z</time>
      </trkpt>
      <trkpt lat="49.58989" lon="3.43521">
        <ele>161.7</ele>
        <time>2025-10-05T08:42:30.000Z</time>
      </trkpt>
      <trkpt lat="49.58989" lon="3.43521">
        <ele>161.9</ele>
        <time>2025-10-05T08:42:31.000Z</time>
      </trkpt>
      <trkpt lat="49.58988" lon="3.43522">
        <ele>161.8</ele>
        <time>2025-10-05T08:42:32.000Z</time>
      </trkpt>
      <trkpt lat="49.58987" lon="3.43523">
        <ele>161.7</ele>
        <time>2025-10-05T08:42:33.000Z</time>
      </trkpt>
      <trkpt lat="49.58987" lon="3.43524">
        <ele>162</ele>
        <time>2025-10-05T08:42:34.000Z</time>
      </trkpt>
      <trkpt lat="49.58986" lon="3.43525">
        <ele>161.9</ele>
        <time>2025-10-05T08:42:35.000Z</time>
      </trkpt>
      <trkpt lat="49.58985" lon="3.43526">
        <ele>162</ele>
        <time>2025-10-05T08:42:36.000Z</time>
      </trkpt>
      <trkpt lat="49.58985" lon="3.43528">
        <ele>162.3</ele>
        <time>2025-10-05T08:42:37.000Z</time>
      </trkpt>
      <trkpt lat="49.58984" lon="3.43529">
        <ele>162.4</ele>
        <time>2025-10-05T08:42:38.000Z</time>
      </trkpt>
      <trkpt lat="49.58983" lon="3.43531">
        <ele>162.3</ele>
        <time>2025-10-05T08:42:39.000Z</time>
      </trkpt>
      <trkpt lat="49.58981" lon="3.43532">
        <ele>162</ele>
        <time>2025-10-05T08:42:40.000Z</time>
      </trkpt>
      <trkpt lat="49.5898" lon="3.43532">
        <ele>162</ele>
        <time>2025-10-05T08:42:41.000Z</time>
      </trkpt>
      <trkpt lat="49.58978" lon="3.43533">
        <ele>161.6</ele>
        <time>2025-10-05T08:42:42.000Z</time>
      </trkpt>
      <trkpt lat="49.58978" lon="3.43533">
        <ele>161.9</ele>
        <time>2025-10-05T08:42:43.000Z</time>
      </trkpt>
      <trkpt lat="49.58977" lon="3.43533">
        <ele>161.9</ele>
        <time>2025-10-05T08:42:44.000Z</time>
      </trkpt>
      <trkpt lat="49.58977" lon="3.43535">
        <ele>162.2</ele>
        <time>2025-10-05T08:42:45.000Z</time>
      </trkpt>
      <trkpt lat="49.58976" lon="3.43536">
        <ele>162.5</ele>
        <time>2025-10-05T08:42:46.000Z</time>
      </trkpt>
      <trkpt lat="49.58975" lon="3.43537">
        <ele>162.8</ele>
        <time>2025-10-05T08:42:47.000Z</time>
      </trkpt>
      <trkpt lat="49.58975" lon="3.43538">
        <ele>163</ele>
        <time>2025-10-05T08:42:48.000Z</time>
      </trkpt>
      <trkpt lat="49.58974" lon="3.43539">
        <ele>163.2</ele>
        <time>2025-10-05T08:42:49.000Z</time>
      </trkpt>
      <trkpt lat="49.58973" lon="3.43541">
        <ele>162.9</ele>
        <time>2025-10-05T08:42:50.000Z</time>
      </trkpt>
      <trkpt lat="49.58972" lon="3.43542">
        <ele>162.6</ele>
        <time>2025-10-05T08:42:51.000Z</time>
      </trkpt>
      <trkpt lat="49.5897" lon="3.43542">
        <ele>162.3</ele>
        <time>2025-10-05T08:42:52.000Z</time>
      </trkpt>
      <trkpt lat="49.58968" lon="3.43542">
        <ele>161.9</ele>
        <time>2025-10-05T08:42:53.000Z</time>
      </trkpt>
      <trkpt lat="49.58967" lon="3.43543">
        <ele>161.8</ele>
        <time>2025-10-05T08:42:54.000Z</time>
      </trkpt>
      <trkpt lat="49.58966" lon="3.43544">
        <ele>161.9</ele>
        <time>2025-10-05T08:42:55.000Z</time>
      </trkpt>
      <trkpt lat="49.58965" lon="3.43544">
        <ele>162.1</ele>
        <time>2025-10-05T08:42:56.000Z</time>
      </trkpt>
      <trkpt lat="49.58964" lon="3.43544">
        <ele>162.3</ele>
        <time>2025-10-05T08:42:57.000Z</time>
      </trkpt>
      <trkpt lat="49.58963" lon="3.43545">
        <ele>162.5</ele>
        <time>2025-10-05T08:42:58.000Z</time>
      </trkpt>
      <trkpt lat="49.58963" lon="3.43545">
        <ele>162.7</ele>
        <time>2025-10-05T08:42:59.000Z</time>
      </trkpt>
      <trkpt lat="49.58963" lon="3.43546">
        <ele>162.9</ele>
        <time>2025-10-05T08:43:00.000Z</time>
      </trkpt>
      <trkpt lat="49.58962" lon="3.43547">
        <ele>162.9</ele>
        <time>2025-10-05T08:43:01.000Z</time>
      </trkpt>
      <trkpt lat="49.58962" lon="3.43548">
        <ele>162.7</ele>
        <time>2025-10-05T08:43:02.000Z</time>
      </trkpt>
      <trkpt lat="49.58961" lon="3.43549">
        <ele>162.5</ele>
        <time>2025-10-05T08:43:03.000Z</time>
      </trkpt>
      <trkpt lat="49.58959" lon="3.43551">
        <ele>162.1</ele>
        <time>2025-10-05T08:43:04.000Z</time>
      </trkpt>
      <trkpt lat="49.58958" lon="3.43552">
        <ele>161.5</ele>
        <time>2025-10-05T08:43:05.000Z</time>
      </trkpt>
      <trkpt lat="49.58957" lon="3.43552">
        <ele>161.2</ele>
        <time>2025-10-05T08:43:06.000Z</time>
      </trkpt>
      <trkpt lat="49.58957" lon="3.43552">
        <ele>161</ele>
        <time>2025-10-05T08:43:07.000Z</time>
      </trkpt>
      <trkpt lat="49.58957" lon="3.43553">
        <ele>160.9</ele>
        <time>2025-10-05T08:43:08.000Z</time>
      </trkpt>
      <trkpt lat="49.58957" lon="3.43554">
        <ele>160.9</ele>
        <time>2025-10-05T08:43:09.000Z</time>
      </trkpt>
      <trkpt lat="49.58956" lon="3.43554">
        <ele>160.8</ele>
        <time>2025-10-05T08:43:10.000Z</time>
      </trkpt>
      <trkpt lat="49.58955" lon="3.43554">
        <ele>160.9</ele>
        <time>2025-10-05T08:43:11.000Z</time>
      </trkpt>
      <trkpt lat="49.58954" lon="3.43555">
        <ele>161.3</ele>
        <time>2025-10-05T08:43:12.000Z</time>
      </trkpt>
      <trkpt lat="49.58953" lon="3.43556">
        <ele>161.7</ele>
        <time>2025-10-05T08:43:13.000Z</time>
      </trkpt>
      <trkpt lat="49.58952" lon="3.43556">
        <ele>162.2</ele>
        <time>2025-10-05T08:43:14.000Z</time>
      </trkpt>
      <trkpt lat="49.58951" lon="3.43557">
        <ele>162.3</ele>
        <time>2025-10-05T08:43:15.000Z</time>
      </trkpt>
      <trkpt lat="49.58949" lon="3.43558">
        <ele>162.2</ele>
        <time>2025-10-05T08:43:16.000Z</time>
      </trkpt>
      <trkpt lat="49.58947" lon="3.43559">
        <ele>161.8</ele>
        <time>2025-10-05T08:43:17.000Z</time>
      </trkpt>
      <trkpt lat="49.58946" lon="3.4356">
        <ele>161.5</ele>
        <time>2025-10-05T08:43:18.000Z</time>
      </trkpt>
      <trkpt lat="49.58945" lon="3.4356">
        <ele>161.4</ele>
        <time>2025-10-05T08:43:19.000Z</time>
      </trkpt>
      <trkpt lat="49.58944" lon="3.43561">
        <ele>161.3</ele>
        <time>2025-10-05T08:43:20.000Z</time>
      </trkpt>
      <trkpt lat="49.58944" lon="3.43562">
        <ele>161.3</ele>
        <time>2025-10-05T08:43:21.000Z</time>
      </trkpt>
      <trkpt lat="49.58943" lon="3.43563">
        <ele>161.3</ele>
        <time>2025-10-05T08:43:22.000Z</time>
      </trkpt>
      <trkpt lat="49.58942" lon="3.43564">
        <ele>161.3</ele>
        <time>2025-10-05T08:43:23.000Z</time>
      </trkpt>
      <trkpt lat="49.58942" lon="3.43565">
        <ele>161.4</ele>
        <time>2025-10-05T08:43:24.000Z</time>
      </trkpt>
      <trkpt lat="49.58941" lon="3.43565">
        <ele>161.6</ele>
        <time>2025-10-05T08:43:25.000Z</time>
      </trkpt>
      <trkpt lat="49.5894" lon="3.43566">
        <ele>161.9</ele>
        <time>2025-10-05T08:43:26.000Z</time>
      </trkpt>
      <trkpt lat="49.58939" lon="3.43567">
        <ele>162.3</ele>
        <time>2025-10-05T08:43:27.000Z</time>
      </trkpt>
      <trkpt lat="49.58937" lon="3.43568">
        <ele>162.6</ele>
        <time>2025-10-05T08:43:28.000Z</time>
      </trkpt>
      <trkpt lat="49.58935" lon="3.43568">
        <ele>162.5</ele>
        <time>2025-10-05T08:43:29.000Z</time>
      </trkpt>
      <trkpt lat="49.58934" lon="3.43569">
        <ele>162.3</ele>
        <time>2025-10-05T08:43:30.000Z</time>
      </trkpt>
      <trkpt lat="49.58933" lon="3.43569">
        <ele>161.9</ele>
        <time>2025-10-05T08:43:31.000Z</time>
      </trkpt>
      <trkpt lat="49.58932" lon="3.4357">
        <ele>161.9</ele>
        <time>2025-10-05T08:43:32.000Z</time>
      </trkpt>
      <trkpt lat="49.58933" lon="3.4357">
        <ele>161.9</ele>
        <time>2025-10-05T08:43:33.000Z</time>
      </trkpt>
      <trkpt lat="49.58933" lon="3.4357">
        <ele>162.5</ele>
        <time>2025-10-05T08:43:34.000Z</time>
      </trkpt>
      <trkpt lat="49.58933" lon="3.4357">
        <ele>163</ele>
        <time>2025-10-05T08:43:35.000Z</time>
      </trkpt>
      <trkpt lat="49.58932" lon="3.4357">
        <ele>163.5</ele>
        <time>2025-10-05T08:43:36.000Z</time>
      </trkpt>
      <trkpt lat="49.58931" lon="3.43572">
        <ele>163.8</ele>
        <time>2025-10-05T08:43:37.000Z</time>
      </trkpt>
      <trkpt lat="49.58931" lon="3.43573">
        <ele>164.2</ele>
        <time>2025-10-05T08:43:38.000Z</time>
      </trkpt>
      <trkpt lat="49.58929" lon="3.43574">
        <ele>164.5</ele>
        <time>2025-10-05T08:43:39.000Z</time>
      </trkpt>
      <trkpt lat="49.58927" lon="3.43576">
        <ele>164.7</ele>
        <time>2025-10-05T08:43:40.000Z</time>
      </trkpt>
      <trkpt lat="49.58926" lon="3.43578">
        <ele>164.8</ele>
        <time>2025-10-05T08:43:41.000Z</time>
      </trkpt>
      <trkpt lat="49.58925" lon="3.43578">
        <ele>165.2</ele>
        <time>2025-10-05T08:43:42.000Z</time>
      </trkpt>
      <trkpt lat="49.58925" lon="3.43579">
        <ele>165.6</ele>
        <time>2025-10-05T08:43:43.000Z</time>
      </trkpt>
      <trkpt lat="49.58926" lon="3.4358">
        <ele>165.6</ele>
        <time>2025-10-05T08:43:44.000Z</time>
      </trkpt>
      <trkpt lat="49.58926" lon="3.4358">
        <ele>165.7</ele>
        <time>2025-10-05T08:43:45.000Z</time>
      </trkpt>
      <trkpt lat="49.58925" lon="3.4358">
        <ele>165.7</ele>
        <time>2025-10-05T08:43:46.000Z</time>
      </trkpt>
      <trkpt lat="49.58924" lon="3.43582">
        <ele>165.9</ele>
        <time>2025-10-05T08:43:47.000Z</time>
      </trkpt>
      <trkpt lat="49.58924" lon="3.43583">
        <ele>166</ele>
        <time>2025-10-05T08:43:48.000Z</time>
      </trkpt>
      <trkpt lat="49.58923" lon="3.43584">
        <ele>166</ele>
        <time>2025-10-05T08:43:49.000Z</time>
      </trkpt>
      <trkpt lat="49.58922" lon="3.43585">
        <ele>166.4</ele>
        <time>2025-10-05T08:43:50.000Z</time>
      </trkpt>
      <trkpt lat="49.58921" lon="3.43586">
        <ele>166.3</ele>
        <time>2025-10-05T08:43:51.000Z</time>
      </trkpt>
      <trkpt lat="49.5892" lon="3.43588">
        <ele>166.1</ele>
        <time>2025-10-05T08:43:52.000Z</time>
      </trkpt>
      <trkpt lat="49.58919" lon="3.43589">
        <ele>166</ele>
        <time>2025-10-05T08:43:53.000Z</time>
      </trkpt>
      <trkpt lat="49.58918" lon="3.4359">
        <ele>166.3</ele>
        <time>2025-10-05T08:43:54.000Z</time>
      </trkpt>
      <trkpt lat="49.58917" lon="3.4359">
        <ele>166.7</ele>
        <time>2025-10-05T08:43:55.000Z</time>
      </trkpt>
      <trkpt lat="49.58917" lon="3.43591">
        <ele>167</ele>
        <time>2025-10-05T08:43:56.000Z</time>
      </trkpt>
      <trkpt lat="49.58917" lon="3.43591">
        <ele>167.1</ele>
        <time>2025-10-05T08:43:57.000Z</time>
      </trkpt>
      <trkpt lat="49.58916" lon="3.43591">
        <ele>167.3</ele>
        <time>2025-10-05T08:43:58.000Z</time>
      </trkpt>
      <trkpt lat="49.58916" lon="3.43592">
        <ele>167.6</ele>
        <time>2025-10-05T08:43:59.000Z</time>
      </trkpt>
      <trkpt lat="49.58915" lon="3.43593">
        <ele>167.7</ele>
        <time>2025-10-05T08:44:00.000Z</time>
      </trkpt>
      <trkpt lat="49.58914" lon="3.43594">
        <ele>167.9</ele>
        <time>2025-10-05T08:44:01.000Z</time>
      </trkpt>
      <trkpt lat="49.58913" lon="3.43595">
        <ele>168.1</ele>
        <time>2025-10-05T08:44:02.000Z</time>
      </trkpt>
      <trkpt lat="49.58911" lon="3.43596">
        <ele>168.1</ele>
        <time>2025-10-05T08:44:03.000Z</time>
      </trkpt>
      <trkpt lat="49.5891" lon="3.43597">
        <ele>168.3</ele>
        <time>2025-10-05T08:44:04.000Z</time>
      </trkpt>
      <trkpt lat="49.58909" lon="3.43597">
        <ele>168.6</ele>
        <time>2025-10-05T08:44:05.000Z</time>
      </trkpt>
      <trkpt lat="49.58907" lon="3.43598">
        <ele>168.6</ele>
        <time>2025-10-05T08:44:06.000Z</time>
      </trkpt>
      <trkpt lat="49.58905" lon="3.43599">
        <ele>168.5</ele>
        <time>2025-10-05T08:44:07.000Z</time>
      </trkpt>
      <trkpt lat="49.58903" lon="3.436">
        <ele>168.6</ele>
        <time>2025-10-05T08:44:08.000Z</time>
      </trkpt>
      <trkpt lat="49.58902" lon="3.43601">
        <ele>168.1</ele>
        <time>2025-10-05T08:44:09.000Z</time>
      </trkpt>
      <trkpt lat="49.58901" lon="3.43602">
        <ele>167.7</ele>
        <time>2025-10-05T08:44:10.000Z</time>
      </trkpt>
      <trkpt lat="49.589" lon="3.43602">
        <ele>167.5</ele>
        <time>2025-10-05T08:44:11.000Z</time>
      </trkpt>
      <trkpt lat="49.589" lon="3.43603">
        <ele>167.1</ele>
        <time>2025-10-05T08:44:12.000Z</time>
      </trkpt>
      <trkpt lat="49.589" lon="3.43604">
        <ele>166.5</ele>
        <time>2025-10-05T08:44:13.000Z</time>
      </trkpt>
      <trkpt lat="49.58899" lon="3.43603">
        <ele>166.1</ele>
        <time>2025-10-05T08:44:14.000Z</time>
      </trkpt>
      <trkpt lat="49.58899" lon="3.43604">
        <ele>165.7</ele>
        <time>2025-10-05T08:44:15.000Z</time>
      </trkpt>
      <trkpt lat="49.58899" lon="3.43605">
        <ele>165.3</ele>
        <time>2025-10-05T08:44:16.000Z</time>
      </trkpt>
      <trkpt lat="49.58898" lon="3.43607">
        <ele>165.3</ele>
        <time>2025-10-05T08:44:17.000Z</time>
      </trkpt>
      <trkpt lat="49.58897" lon="3.43608">
        <ele>165.2</ele>
        <time>2025-10-05T08:44:18.000Z</time>
      </trkpt>
      <trkpt lat="49.58895" lon="3.4361">
        <ele>165.1</ele>
        <time>2025-10-05T08:44:19.000Z</time>
      </trkpt>
      <trkpt lat="49.58893" lon="3.43612">
        <ele>164.9</ele>
        <time>2025-10-05T08:44:20.000Z</time>
      </trkpt>
      <trkpt lat="49.58891" lon="3.43614">
        <ele>164.9</ele>
        <time>2025-10-05T08:44:21.000Z</time>
      </trkpt>
      <trkpt lat="49.5889" lon="3.43615">
        <ele>165</ele>
        <time>2025-10-05T08:44:22.000Z</time>
      </trkpt>
      <trkpt lat="49.58889" lon="3.43616">
        <ele>164.6</ele>
        <time>2025-10-05T08:44:23.000Z</time>
      </trkpt>
      <trkpt lat="49.58889" lon="3.43617">
        <ele>164.3</ele>
        <time>2025-10-05T08:44:24.000Z</time>
      </trkpt>
      <trkpt lat="49.58889" lon="3.43618">
        <ele>164.2</ele>
        <time>2025-10-05T08:44:25.000Z</time>
      </trkpt>
      <trkpt lat="49.58888" lon="3.43619">
        <ele>164.1</ele>
        <time>2025-10-05T08:44:26.000Z</time>
      </trkpt>
      <trkpt lat="49.58887" lon="3.43621">
        <ele>164</ele>
        <time>2025-10-05T08:44:27.000Z</time>
      </trkpt>
      <trkpt lat="49.58886" lon="3.43622">
        <ele>163.9</ele>
        <time>2025-10-05T08:44:28.000Z</time>
      </trkpt>
      <trkpt lat="49.58883" lon="3.43624">
        <ele>163.1</ele>
        <time>2025-10-05T08:44:29.000Z</time>
      </trkpt>
      <trkpt lat="49.58882" lon="3.43625">
        <ele>162.6</ele>
        <time>2025-10-05T08:44:30.000Z</time>
      </trkpt>
      <trkpt lat="49.58882" lon="3.43626">
        <ele>162.1</ele>
        <time>2025-10-05T08:44:31.000Z</time>
      </trkpt>
      <trkpt lat="49.58882" lon="3.43627">
        <ele>161.5</ele>
        <time>2025-10-05T08:44:32.000Z</time>
      </trkpt>
      <trkpt lat="49.58882" lon="3.43628">
        <ele>161.5</ele>
        <time>2025-10-05T08:44:33.000Z</time>
      </trkpt>
      <trkpt lat="49.58882" lon="3.43629">
        <ele>161.4</ele>
        <time>2025-10-05T08:44:34.000Z</time>
      </trkpt>
      <trkpt lat="49.58881" lon="3.4363">
        <ele>161</ele>
        <time>2025-10-05T08:44:35.000Z</time>
      </trkpt>
      <trkpt lat="49.5888" lon="3.43631">
        <ele>160.7</ele>
        <time>2025-10-05T08:44:36.000Z</time>
      </trkpt>
      <trkpt lat="49.5888" lon="3.43631">
        <ele>160.3</ele>
        <time>2025-10-05T08:44:37.000Z</time>
      </trkpt>
      <trkpt lat="49.5888" lon="3.43632">
        <ele>160</ele>
        <time>2025-10-05T08:44:38.000Z</time>
      </trkpt>
      <trkpt lat="49.58879" lon="3.43632">
        <ele>160.2</ele>
        <time>2025-10-05T08:44:39.000Z</time>
      </trkpt>
      <trkpt lat="49.58878" lon="3.43631">
        <ele>160.3</ele>
        <time>2025-10-05T08:44:40.000Z</time>
      </trkpt>
      <trkpt lat="49.58877" lon="3.43632">
        <ele>160.7</ele>
        <time>2025-10-05T08:44:41.000Z</time>
      </trkpt>
      <trkpt lat="49.58875" lon="3.43632">
        <ele>160.5</ele>
        <time>2025-10-05T08:44:42.000Z</time>
      </trkpt>
      <trkpt lat="49.58875" lon="3.43633">
        <ele>160.7</ele>
        <time>2025-10-05T08:44:43.000Z</time>
      </trkpt>
      <trkpt lat="49.58875" lon="3.43633">
        <ele>161</ele>
        <time>2025-10-05T08:44:44.000Z</time>
      </trkpt>
      <trkpt lat="49.58875" lon="3.43633">
        <ele>161.4</ele>
        <time>2025-10-05T08:44:45.000Z</time>
      </trkpt>
      <trkpt lat="49.58875" lon="3.43633">
        <ele>161.8</ele>
        <time>2025-10-05T08:44:46.000Z</time>
      </trkpt>
      <trkpt lat="49.58874" lon="3.43634">
        <ele>161.9</ele>
        <time>2025-10-05T08:44:47.000Z</time>
      </trkpt>
      <trkpt lat="49.58872" lon="3.43634">
        <ele>162.3</ele>
        <time>2025-10-05T08:44:48.000Z</time>
      </trkpt>
      <trkpt lat="49.58871" lon="3.43635">
        <ele>162.7</ele>
        <time>2025-10-05T08:44:49.000Z</time>
      </trkpt>
      <trkpt lat="49.58869" lon="3.43636">
        <ele>163.4</ele>
        <time>2025-10-05T08:44:50.000Z</time>
      </trkpt>
      <trkpt lat="49.58868" lon="3.43637">
        <ele>164.1</ele>
        <time>2025-10-05T08:44:51.000Z</time>
      </trkpt>
      <trkpt lat="49.58867" lon="3.43637">
        <ele>165</ele>
        <time>2025-10-05T08:44:52.000Z</time>
      </trkpt>
      <trkpt lat="49.58866" lon="3.43637">
        <ele>165.6</ele>
        <time>2025-10-05T08:44:53.000Z</time>
      </trkpt>
      <trkpt lat="49.58865" lon="3.43637">
        <ele>166.2</ele>
        <time>2025-10-05T08:44:54.000Z</time>
      </trkpt>
      <trkpt lat="49.58864" lon="3.43637">
        <ele>166.8</ele>
        <time>2025-10-05T08:44:55.000Z</time>
      </trkpt>
      <trkpt lat="49.58864" lon="3.43637">
        <ele>167.6</ele>
        <time>2025-10-05T08:44:56.000Z</time>
      </trkpt>
      <trkpt lat="49.58863" lon="3.43638">
        <ele>168</ele>
        <time>2025-10-05T08:44:57.000Z</time>
      </trkpt>
      <trkpt lat="49.58862" lon="3.43639">
        <ele>168.2</ele>
        <time>2025-10-05T08:44:58.000Z</time>
      </trkpt>
      <trkpt lat="49.58861" lon="3.43641">
        <ele>168.4</ele>
        <time>2025-10-05T08:44:59.000Z</time>
      </trkpt>
      <trkpt lat="49.58859" lon="3.43643">
        <ele>168.4</ele>
        <time>2025-10-05T08:45:00.000Z</time>
      </trkpt>
      <trkpt lat="49.58858" lon="3.43644">
        <ele>168.3</ele>
        <time>2025-10-05T08:45:01.000Z</time>
      </trkpt>
      <trkpt lat="49.58857" lon="3.43645">
        <ele>168.5</ele>
        <time>2025-10-05T08:45:02.000Z</time>
      </trkpt>
      <trkpt lat="49.58857" lon="3.43646">
        <ele>168.9</ele>
        <time>2025-10-05T08:45:03.000Z</time>
      </trkpt>
      <trkpt lat="49.58857" lon="3.43647">
        <ele>168.8</ele>
        <time>2025-10-05T08:45:04.000Z</time>
      </trkpt>
      <trkpt lat="49.58856" lon="3.43649">
        <ele>168.2</ele>
        <time>2025-10-05T08:45:05.000Z</time>
      </trkpt>
      <trkpt lat="49.58856" lon="3.4365">
        <ele>167.9</ele>
        <time>2025-10-05T08:45:06.000Z</time>
      </trkpt>
      <trkpt lat="49.58854" lon="3.43651">
        <ele>167.5</ele>
        <time>2025-10-05T08:45:07.000Z</time>
      </trkpt>
      <trkpt lat="49.58853" lon="3.43651">
        <ele>167.1</ele>
        <time>2025-10-05T08:45:08.000Z</time>
      </trkpt>
      <trkpt lat="49.58853" lon="3.43652">
        <ele>166.7</ele>
        <time>2025-10-05T08:45:09.000Z</time>
      </trkpt>
      <trkpt lat="49.58853" lon="3.43653">
        <ele>166.3</ele>
        <time>2025-10-05T08:45:10.000Z</time>
      </trkpt>
      <trkpt lat="49.58852" lon="3.43654">
        <ele>166.1</ele>
        <time>2025-10-05T08:45:11.000Z</time>
      </trkpt>
      <trkpt lat="49.58851" lon="3.43655">
        <ele>165.9</ele>
        <time>2025-10-05T08:45:12.000Z</time>
      </trkpt>
      <trkpt lat="49.5885" lon="3.43655">
        <ele>165.8</ele>
        <time>2025-10-05T08:45:13.000Z</time>
      </trkpt>
      <trkpt lat="49.5885" lon="3.43656">
        <ele>165.8</ele>
        <time>2025-10-05T08:45:14.000Z</time>
      </trkpt>
      <trkpt lat="49.58849" lon="3.43656">
        <ele>165.8</ele>
        <time>2025-10-05T08:45:15.000Z</time>
      </trkpt>
      <trkpt lat="49.58849" lon="3.43657">
        <ele>165.6</ele>
        <time>2025-10-05T08:45:16.000Z</time>
      </trkpt>
      <trkpt lat="49.58849" lon="3.43658">
        <ele>165.4</ele>
        <time>2025-10-05T08:45:17.000Z</time>
      </trkpt>
      <trkpt lat="49.58849" lon="3.43658">
        <ele>165.2</ele>
        <time>2025-10-05T08:45:18.000Z</time>
      </trkpt>
      <trkpt lat="49.58848" lon="3.4366">
        <ele>164.8</ele>
        <time>2025-10-05T08:45:19.000Z</time>
      </trkpt>
      <trkpt lat="49.58847" lon="3.43661">
        <ele>164.4</ele>
        <time>2025-10-05T08:45:20.000Z</time>
      </trkpt>
      <trkpt lat="49.58845" lon="3.43662">
        <ele>163.9</ele>
        <time>2025-10-05T08:45:21.000Z</time>
      </trkpt>
      <trkpt lat="49.58843" lon="3.43664">
        <ele>163.2</ele>
        <time>2025-10-05T08:45:22.000Z</time>
      </trkpt>
      <trkpt lat="49.58842" lon="3.43665">
        <ele>162.7</ele>
        <time>2025-10-05T08:45:23.000Z</time>
      </trkpt>
      <trkpt lat="49.5884" lon="3.43666">
        <ele>161.8</ele>
        <time>2025-10-05T08:45:24.000Z</time>
      </trkpt>
      <trkpt lat="49.58839" lon="3.43666">
        <ele>161</ele>
        <time>2025-10-05T08:45:25.000Z</time>
      </trkpt>
      <trkpt lat="49.58839" lon="3.43667">
        <ele>160.2</ele>
        <time>2025-10-05T08:45:26.000Z</time>
      </trkpt>
      <trkpt lat="49.58839" lon="3.43668">
        <ele>159.8</ele>
        <time>2025-10-05T08:45:27.000Z</time>
      </trkpt>
      <trkpt lat="49.58839" lon="3.43669">
        <ele>159.6</ele>
        <time>2025-10-05T08:45:28.000Z</time>
      </trkpt>
      <trkpt lat="49.58838" lon="3.43669">
        <ele>159.1</ele>
        <time>2025-10-05T08:45:29.000Z</time>
      </trkpt>
      <trkpt lat="49.58838" lon="3.43669">
        <ele>158.8</ele>
        <time>2025-10-05T08:45:30.000Z</time>
      </trkpt>
      <trkpt lat="49.58838" lon="3.43669">
        <ele>158.3</ele>
        <time>2025-10-05T08:45:31.000Z</time>
      </trkpt>
      <trkpt lat="49.58837" lon="3.43669">
        <ele>158</ele>
        <time>2025-10-05T08:45:32.000Z</time>
      </trkpt>
      <trkpt lat="49.58837" lon="3.43669">
        <ele>158</ele>
        <time>2025-10-05T08:45:33.000Z</time>
      </trkpt>
      <trkpt lat="49.58837" lon="3.43669">
        <ele>157.9</ele>
        <time>2025-10-05T08:45:34.000Z</time>
      </trkpt>
      <trkpt lat="49.58837" lon="3.43669">
        <ele>157.9</ele>
        <time>2025-10-05T08:45:35.000Z</time>
      </trkpt>
      <trkpt lat="49.58836" lon="3.4367">
        <ele>158</ele>
        <time>2025-10-05T08:45:36.000Z</time>
      </trkpt>
      <trkpt lat="49.58836" lon="3.4367">
        <ele>158.1</ele>
        <time>2025-10-05T08:45:37.000Z</time>
      </trkpt>
      <trkpt lat="49.58836" lon="3.4367">
        <ele>158.1</ele>
        <time>2025-10-05T08:45:38.000Z</time>
      </trkpt>
      <trkpt lat="49.58836" lon="3.4367">
        <ele>158.1</ele>
        <time>2025-10-05T08:45:39.000Z</time>
      </trkpt>
      <trkpt lat="49.58836" lon="3.4367">
        <ele>158.1</ele>
        <time>2025-10-05T08:45:40.000Z</time>
      </trkpt>
      <trkpt lat="49.58836" lon="3.4367">
        <ele>158.1</ele>
        <time>2025-10-05T08:45:41.000Z</time>
      </trkpt>
      <trkpt lat="49.58836" lon="3.4367">
        <ele>158.1</ele>
        <time>2025-10-05T08:45:42.000Z</time>
      </trkpt>
      <trkpt lat="49.58836" lon="3.4367">
        <ele>158.1</ele>
        <time>2025-10-05T08:45:43.000Z</time>
      </trkpt>
      <trkpt lat="49.58836" lon="3.4367">
        <ele>158.1</ele>
        <time>2025-10-05T08:45:44.000Z</time>
      </trkpt>
      <trkpt lat="49.58836" lon="3.4367">
        <ele>158.1</ele>
        <time>2025-10-05T08:45:45.000Z</time>
      </trkpt>
      <trkpt lat="49.58836" lon="3.4367">
        <ele>158.1</ele>
        <time>2025-10-05T08:45:46.000Z</time>
      </trkpt>
      <trkpt lat="49.58836" lon="3.4367">
        <ele>158.1</ele>
        <time>2025-10-05T08:45:47.000Z</time>
      </trkpt>
      <trkpt lat="49.58836" lon="3.4367">
        <ele>158.1</ele>
        <time>2025-10-05T08:45:48.000Z</time>
      </trkpt>
      <trkpt lat="49.58836" lon="3.4367">
        <ele>158.1</ele>
        <time>2025-10-05T08:45:49.000Z</time>
      </trkpt>
      <trkpt lat="49.58836" lon="3.4367">
        <ele>158.1</ele>
        <time>2025-10-05T08:45:50.000Z</time>
      </trkpt>
      <trkpt lat="49.58836" lon="3.4367">
        <ele>158.1</ele>
        <time>2025-10-05T08:45:51.000Z</time>
      </trkpt>
      <trkpt lat="49.58836" lon="3.4367">
        <ele>158.1</ele>
        <time>2025-10-05T08:45:52.000Z</time>
      </trkpt>
      <trkpt lat="49.58836" lon="3.4367">
        <ele>158.1</ele>
        <time>2025-10-05T08:45:53.000Z</time>
      </trkpt>
      <trkpt lat="49.58836" lon="3.4367">
        <ele>158.1</ele>
        <time>2025-10-05T08:45:54.000Z</time>
      </trkpt>
      <trkpt lat="49.58836" lon="3.4367">
        <ele>158.1</ele>
        <time>2025-10-05T08:45:55.000Z</time>
      </trkpt>
      <trkpt lat="49.58836" lon="3.4367">
        <ele>158.1</ele>
        <time>2025-10-05T08:45:56.000Z</time>
      </trkpt>
      <trkpt lat="49.58836" lon="3.4367">
        <ele>158.1</ele>
        <time>2025-10-05T08:45:57.000Z</time>
      </trkpt>
      <trkpt lat="49.58836" lon="3.4367">
        <ele>158.1</ele>
        <time>2025-10-05T08:45:58.000Z</time>
      </trkpt>
      <trkpt lat="49.58836" lon="3.4367">
        <ele>158.1</ele>
        <time>2025-10-05T08:45:59.000Z</time>
      </trkpt>
      <trkpt lat="49.58836" lon="3.4367">
        <ele>158.1</ele>
        <time>2025-10-05T08:46:00.000Z</time>
      </trkpt>
      <trkpt lat="49.58836" lon="3.4367">
        <ele>158.1</ele>
        <time>2025-10-05T08:46:01.000Z</time>
      </trkpt>
      <trkpt lat="49.58836" lon="3.4367">
        <ele>158.1</ele>
        <time>2025-10-05T08:46:02.000Z</time>
      </trkpt>
      <trkpt lat="49.58836" lon="3.4367">
        <ele>158.1</ele>
        <time>2025-10-05T08:46:03.000Z</time>
      </trkpt>
      <trkpt lat="49.58836" lon="3.4367">
        <ele>158.1</ele>
        <time>2025-10-05T08:46:04.000Z</time>
      </trkpt>
      <trkpt lat="49.58836" lon="3.4367">
        <ele>158.1</ele>
        <time>2025-10-05T08:46:05.000Z</time>
      </trkpt>
      <trkpt lat="49.58836" lon="3.4367">
        <ele>158.1</ele>
        <time>2025-10-05T08:46:06.000Z</time>
      </trkpt>
      <trkpt lat="49.58836" lon="3.4367">
        <ele>158.1</ele>
        <time>2025-10-05T08:46:07.000Z</time>
      </trkpt>
      <trkpt lat="49.58836" lon="3.4367">
        <ele>158.1</ele>
        <time>2025-10-05T08:46:08.000Z</time>
      </trkpt>
      <trkpt lat="49.58836" lon="3.4367">
        <ele>158.1</ele>
        <time>2025-10-05T08:46:09.000Z</time>
      </trkpt>
      <trkpt lat="49.58836" lon="3.4367">
        <ele>158.1</ele>
        <time>2025-10-05T08:46:10.000Z</time>
      </trkpt>
      <trkpt lat="49.58836" lon="3.4367">
        <ele>158.1</ele>
        <time>2025-10-05T08:46:11.000Z</time>
      </trkpt>
      <trkpt lat="49.58836" lon="3.4367">
        <ele>158.1</ele>
        <time>2025-10-05T08:46:12.000Z</time>
      </trkpt>
      <trkpt lat="49.58836" lon="3.4367">
        <ele>158.1</ele>
        <time>2025-10-05T08:46:13.000Z</time>
      </trkpt>
      <trkpt lat="49.58836" lon="3.4367">
        <ele>158.1</ele>
        <time>2025-10-05T08:46:14.000Z</time>
      </trkpt>
      <trkpt lat="49.58836" lon="3.4367">
        <ele>158.1</ele>
        <time>2025-10-05T08:46:15.000Z</time>
      </trkpt>
      <trkpt lat="49.58836" lon="3.4367">
        <ele>158.1</ele>
        <time>2025-10-05T08:46:16.000Z</time>
      </trkpt>
      <trkpt lat="49.58836" lon="3.4367">
        <ele>158.1</ele>
        <time>2025-10-05T08:46:17.000Z</time>
      </trkpt>
      <trkpt lat="49.58836" lon="3.4367">
        <ele>158.1</ele>
        <time>2025-10-05T08:46:18.000Z</time>
      </trkpt>
      <trkpt lat="49.58836" lon="3.4367">
        <ele>158.1</ele>
        <time>2025-10-05T08:46:19.000Z</time>
      </trkpt>
      <trkpt lat="49.58836" lon="3.4367">
        <ele>158.1</ele>
        <time>2025-10-05T08:46:20.000Z</time>
      </trkpt>
      <trkpt lat="49.58836" lon="3.4367">
        <ele>158.1</ele>
        <time>2025-10-05T08:46:21.000Z</time>
      </trkpt>
      <trkpt lat="49.58836" lon="3.4367">
        <ele>158.1</ele>
        <time>2025-10-05T08:46:22.000Z</time>
      </trkpt>
      <trkpt lat="49.58836" lon="3.4367">
        <ele>158.1</ele>
        <time>2025-10-05T08:46:23.000Z</time>
      </trkpt>
      <trkpt lat="49.58836" lon="3.4367">
        <ele>158.1</ele>
        <time>2025-10-05T08:46:24.000Z</time>
      </trkpt>
      <trkpt lat="49.58836" lon="3.4367">
        <ele>158.1</ele>
        <time>2025-10-05T08:46:25.000Z</time>
      </trkpt>
      <trkpt lat="49.58836" lon="3.4367">
        <ele>158.1</ele>
        <time>2025-10-05T08:46:26.000Z</time>
      </trkpt>
      <trkpt lat="49.58836" lon="3.4367">
        <ele>158.1</ele>
        <time>2025-10-05T08:46:27.000Z</time>
      </trkpt>
      <trkpt lat="49.58836" lon="3.4367">
        <ele>158.1</ele>
        <time>2025-10-05T08:46:28.000Z</time>
      </trkpt>
      <trkpt lat="49.58836" lon="3.4367">
        <ele>158.1</ele>
        <time>2025-10-05T08:46:29.000Z</time>
      </trkpt>
      <trkpt lat="49.58836" lon="3.4367">
        <ele>158.1</ele>
        <time>2025-10-05T08:46:30.000Z</time>
      </trkpt>
      <trkpt lat="49.58836" lon="3.4367">
        <ele>158.1</ele>
        <time>2025-10-05T08:46:31.000Z</time>
      </trkpt>
      <trkpt lat="49.58836" lon="3.4367">
        <ele>158.1</ele>
        <time>2025-10-05T08:46:32.000Z</time>
      </trkpt>
      <trkpt lat="49.58836" lon="3.4367">
        <ele>158.1</ele>
        <time>2025-10-05T08:46:33.000Z</time>
      </trkpt>
      <trkpt lat="49.58836" lon="3.4367">
        <ele>158.1</ele>
        <time>2025-10-05T08:46:34.000Z</time>
      </trkpt>
      <trkpt lat="49.58836" lon="3.4367">
        <ele>158.1</ele>
        <time>2025-10-05T08:46:35.000Z</time>
      </trkpt>
      <trkpt lat="49.58836" lon="3.4367">
        <ele>158.1</ele>
        <time>2025-10-05T08:46:36.000Z</time>
      </trkpt>
      <trkpt lat="49.58836" lon="3.4367">
        <ele>158.1</ele>
        <time>2025-10-05T08:46:37.000Z</time>
      </trkpt>
      <trkpt lat="49.58836" lon="3.4367">
        <ele>158.1</ele>
        <time>2025-10-05T08:46:38.000Z</time>
      </trkpt>
      <trkpt lat="49.58836" lon="3.4367">
        <ele>158.1</ele>
        <time>2025-10-05T08:46:39.000Z</time>
      </trkpt>
      <trkpt lat="49.58836" lon="3.4367">
        <ele>158.1</ele>
        <time>2025-10-05T08:46:40.000Z</time>
      </trkpt>
      <trkpt lat="49.58836" lon="3.4367">
        <ele>158.1</ele>
        <time>2025-10-05T08:46:41.000Z</time>
      </trkpt>
      <trkpt lat="49.58836" lon="3.4367">
        <ele>158.1</ele>
        <time>2025-10-05T08:46:42.000Z</time>
      </trkpt>
      <trkpt lat="49.58836" lon="3.4367">
        <ele>158.1</ele>
        <time>2025-10-05T08:46:43.000Z</time>
      </trkpt>
      <trkpt lat="49.58836" lon="3.4367">
        <ele>158.1</ele>
        <time>2025-10-05T08:46:44.000Z</time>
      </trkpt>
      <trkpt lat="49.58836" lon="3.4367">
        <ele>158.1</ele>
        <time>2025-10-05T08:46:45.000Z</time>
      </trkpt>
      <trkpt lat="49.58836" lon="3.4367">
        <ele>158.1</ele>
        <time>2025-10-05T08:46:46.000Z</time>
      </trkpt>
      <trkpt lat="49.58836" lon="3.4367">
        <ele>158.1</ele>
        <time>2025-10-05T08:46:47.000Z</time>
      </trkpt>
      <trkpt lat="49.58836" lon="3.4367">
        <ele>158.1</ele>
        <time>2025-10-05T08:46:48.000Z</time>
      </trkpt>
      <trkpt lat="49.58836" lon="3.4367">
        <ele>158.1</ele>
        <time>2025-10-05T08:46:49.000Z</time>
      </trkpt>
      <trkpt lat="49.58836" lon="3.4367">
        <ele>158.1</ele>
        <time>2025-10-05T08:46:50.000Z</time>
      </trkpt>
      <trkpt lat="49.58836" lon="3.4367">
        <ele>158.1</ele>
        <time>2025-10-05T08:46:51.000Z</time>
      </trkpt>
      <trkpt lat="49.58836" lon="3.4367">
        <ele>158.1</ele>
        <time>2025-10-05T08:46:52.000Z</time>
      </trkpt>
      <trkpt lat="49.58836" lon="3.4367">
        <ele>158.1</ele>
        <time>2025-10-05T08:46:53.000Z</time>
      </trkpt>
      <trkpt lat="49.58836" lon="3.4367">
        <ele>158.1</ele>
        <time>2025-10-05T08:46:54.000Z</time>
      </trkpt>
      <trkpt lat="49.58836" lon="3.4367">
        <ele>158.1</ele>
        <time>2025-10-05T08:46:55.000Z</time>
      </trkpt>
      <trkpt lat="49.58836" lon="3.4367">
        <ele>158.1</ele>
        <time>2025-10-05T08:46:56.000Z</time>
      </trkpt>
      <trkpt lat="49.58836" lon="3.4367">
        <ele>158.1</ele>
        <time>2025-10-05T08:46:57.000Z</time>
      </trkpt>
      <trkpt lat="49.58836" lon="3.4367">
        <ele>158.1</ele>
        <time>2025-10-05T08:46:58.000Z</time>
      </trkpt>
      <trkpt lat="49.58836" lon="3.4367">
        <ele>158.1</ele>
        <time>2025-10-05T08:46:59.000Z</time>
      </trkpt>
      <trkpt lat="49.58836" lon="3.4367">
        <ele>158.1</ele>
        <time>2025-10-05T08:47:00.000Z</time>
      </trkpt>
      <trkpt lat="49.58836" lon="3.4367">
        <ele>158.1</ele>
        <time>2025-10-05T08:47:01.000Z</time>
      </trkpt>
      <trkpt lat="49.58836" lon="3.4367">
        <ele>158.1</ele>
        <time>2025-10-05T08:47:02.000Z</time>
      </trkpt>
      <trkpt lat="49.58836" lon="3.4367">
        <ele>158.1</ele>
        <time>2025-10-05T08:47:03.000Z</time>
      </trkpt>
      <trkpt lat="49.58836" lon="3.4367">
        <ele>158.1</ele>
        <time>2025-10-05T08:47:04.000Z</time>
      </trkpt>
      <trkpt lat="49.58836" lon="3.4367">
        <ele>158.1</ele>
        <time>2025-10-05T08:47:05.000Z</time>
      </trkpt>
      <trkpt lat="49.58836" lon="3.4367">
        <ele>158.1</ele>
        <time>2025-10-05T08:47:06.000Z</time>
      </trkpt>
      <trkpt lat="49.58836" lon="3.4367">
        <ele>158.1</ele>
        <time>2025-10-05T08:47:07.000Z</time>
      </trkpt>
      <trkpt lat="49.58836" lon="3.4367">
        <ele>158.1</ele>
        <time>2025-10-05T08:47:08.000Z</time>
      </trkpt>
      <trkpt lat="49.58836" lon="3.4367">
        <ele>158.1</ele>
        <time>2025-10-05T08:47:09.000Z</time>
      </trkpt>
      <trkpt lat="49.58836" lon="3.4367">
        <ele>158.1</ele>
        <time>2025-10-05T08:47:10.000Z</time>
      </trkpt>
      <trkpt lat="49.58836" lon="3.4367">
        <ele>158.1</ele>
        <time>2025-10-05T08:47:11.000Z</time>
      </trkpt>
      <trkpt lat="49.58836" lon="3.4367">
        <ele>158.1</ele>
        <time>2025-10-05T08:47:12.000Z</time>
      </trkpt>
      <trkpt lat="49.58836" lon="3.4367">
        <ele>158.1</ele>
        <time>2025-10-05T08:47:13.000Z</time>
      </trkpt>
      <trkpt lat="49.58836" lon="3.4367">
        <ele>158.1</ele>
        <time>2025-10-05T08:47:14.000Z</time>
      </trkpt>
      <trkpt lat="49.58836" lon="3.4367">
        <ele>158.1</ele>
        <time>2025-10-05T08:47:15.000Z</time>
      </trkpt>
      <trkpt lat="49.58836" lon="3.4367">
        <ele>158.1</ele>
        <time>2025-10-05T08:47:16.000Z</time>
      </trkpt>
      <trkpt lat="49.58836" lon="3.4367">
        <ele>158.1</ele>
        <time>2025-10-05T08:47:17.000Z</time>
      </trkpt>
      <trkpt lat="49.58836" lon="3.4367">
        <ele>158.1</ele>
        <time>2025-10-05T08:47:18.000Z</time>
      </trkpt>
      <trkpt lat="49.58836" lon="3.4367">
        <ele>158.1</ele>
        <time>2025-10-05T08:47:19.000Z</time>
      </trkpt>
      <trkpt lat="49.58836" lon="3.4367">
        <ele>158.1</ele>
        <time>2025-10-05T08:47:20.000Z</time>
      </trkpt>
      <trkpt lat="49.58836" lon="3.4367">
        <ele>158.1</ele>
        <time>2025-10-05T08:47:21.000Z</time>
      </trkpt>
      <trkpt lat="49.58836" lon="3.4367">
        <ele>158.1</ele>
        <time>2025-10-05T08:47:22.000Z</time>
      </trkpt>
      <trkpt lat="49.58836" lon="3.4367">
        <ele>158.1</ele>
        <time>2025-10-05T08:47:23.000Z</time>
      </trkpt>
      <trkpt lat="49.58836" lon="3.4367">
        <ele>158.1</ele>
        <time>2025-10-05T08:47:24.000Z</time>
      </trkpt>
      <trkpt lat="49.58836" lon="3.4367">
        <ele>158.1</ele>
        <time>2025-10-05T08:47:25.000Z</time>
      </trkpt>
      <trkpt lat="49.58836" lon="3.4367">
        <ele>158.1</ele>
        <time>2025-10-05T08:47:26.000Z</time>
      </trkpt>
      <trkpt lat="49.58836" lon="3.4367">
        <ele>158.1</ele>
        <time>2025-10-05T08:47:27.000Z</time>
      </trkpt>
      <trkpt lat="49.58836" lon="3.4367">
        <ele>158.1</ele>
        <time>2025-10-05T08:47:28.000Z</time>
      </trkpt>
      <trkpt lat="49.58836" lon="3.4367">
        <ele>158.1</ele>
        <time>2025-10-05T08:47:29.000Z</time>
      </trkpt>
      <trkpt lat="49.58836" lon="3.4367">
        <ele>158.1</ele>
        <time>2025-10-05T08:47:30.000Z</time>
      </trkpt>
      <trkpt lat="49.58836" lon="3.4367">
        <ele>158.1</ele>
        <time>2025-10-05T08:47:31.000Z</time>
      </trkpt>
      <trkpt lat="49.58836" lon="3.4367">
        <ele>158.1</ele>
        <time>2025-10-05T08:47:32.000Z</time>
      </trkpt>
      <trkpt lat="49.58836" lon="3.4367">
        <ele>158.1</ele>
        <time>2025-10-05T08:47:33.000Z</time>
      </trkpt>
      <trkpt lat="49.58836" lon="3.4367">
        <ele>158.1</ele>
        <time>2025-10-05T08:47:34.000Z</time>
      </trkpt>
      <trkpt lat="49.58836" lon="3.4367">
        <ele>158.1</ele>
        <time>2025-10-05T08:47:35.000Z</time>
      </trkpt>
      <trkpt lat="49.58836" lon="3.4367">
        <ele>158.1</ele>
        <time>2025-10-05T08:47:36.000Z</time>
      </trkpt>
      <trkpt lat="49.58836" lon="3.4367">
        <ele>158.1</ele>
        <time>2025-10-05T08:47:37.000Z</time>
      </trkpt>
      <trkpt lat="49.58836" lon="3.4367">
        <ele>158.1</ele>
        <time>2025-10-05T08:47:38.000Z</time>
      </trkpt>
      <trkpt lat="49.58836" lon="3.4367">
        <ele>158.1</ele>
        <time>2025-10-05T08:47:39.000Z</time>
      </trkpt>
      <trkpt lat="49.58836" lon="3.4367">
        <ele>158.1</ele>
        <time>2025-10-05T08:47:40.000Z</time>
      </trkpt>
      <trkpt lat="49.58836" lon="3.4367">
        <ele>158.1</ele>
        <time>2025-10-05T08:47:41.000Z</time>
      </trkpt>
      <trkpt lat="49.58836" lon="3.4367">
        <ele>158.1</ele>
        <time>2025-10-05T08:47:42.000Z</time>
      </trkpt>
      <trkpt lat="49.58836" lon="3.4367">
        <ele>158.1</ele>
        <time>2025-10-05T08:47:43.000Z</time>
      </trkpt>
      <trkpt lat="49.58836" lon="3.4367">
        <ele>158.1</ele>
        <time>2025-10-05T08:47:44.000Z</time>
      </trkpt>
      <trkpt lat="49.58836" lon="3.4367">
        <ele>158.1</ele>
        <time>2025-10-05T08:47:45.000Z</time>
      </trkpt>
      <trkpt lat="49.58836" lon="3.4367">
        <ele>158.1</ele>
        <time>2025-10-05T08:47:46.000Z</time>
      </trkpt>
      <trkpt lat="49.58836" lon="3.4367">
        <ele>158.1</ele>
        <time>2025-10-05T08:47:47.000Z</time>
      </trkpt>
      <trkpt lat="49.58836" lon="3.4367">
        <ele>158.1</ele>
        <time>2025-10-05T08:47:48.000Z</time>
      </trkpt>
      <trkpt lat="49.58836" lon="3.4367">
        <ele>158.1</ele>
        <time>2025-10-05T08:47:49.000Z</time>
      </trkpt>
      <trkpt lat="49.58836" lon="3.4367">
        <ele>158.1</ele>
        <time>2025-10-05T08:47:50.000Z</time>
      </trkpt>
      <trkpt lat="49.58836" lon="3.4367">
        <ele>158.1</ele>
        <time>2025-10-05T08:47:51.000Z</time>
      </trkpt>
      <trkpt lat="49.58836" lon="3.4367">
        <ele>158.1</ele>
        <time>2025-10-05T08:47:52.000Z</time>
      </trkpt>
      <trkpt lat="49.58836" lon="3.4367">
        <ele>158.1</ele>
        <time>2025-10-05T08:47:53.000Z</time>
      </trkpt>
      <trkpt lat="49.58836" lon="3.4367">
        <ele>158.1</ele>
        <time>2025-10-05T08:47:54.000Z</time>
      </trkpt>
      <trkpt lat="49.58836" lon="3.4367">
        <ele>158.1</ele>
        <time>2025-10-05T08:47:55.000Z</time>
      </trkpt>
      <trkpt lat="49.58836" lon="3.4367">
        <ele>158.1</ele>
        <time>2025-10-05T08:47:56.000Z</time>
      </trkpt>
      <trkpt lat="49.58836" lon="3.4367">
        <ele>158.1</ele>
        <time>2025-10-05T08:47:57.000Z</time>
      </trkpt>
      <trkpt lat="49.58836" lon="3.4367">
        <ele>158.1</ele>
        <time>2025-10-05T08:47:58.000Z</time>
      </trkpt>
      <trkpt lat="49.58836" lon="3.4367">
        <ele>158.1</ele>
        <time>2025-10-05T08:47:59.000Z</time>
      </trkpt>
      <trkpt lat="49.58836" lon="3.4367">
        <ele>158.1</ele>
        <time>2025-10-05T08:48:00.000Z</time>
      </trkpt>
      <trkpt lat="49.58836" lon="3.4367">
        <ele>158.1</ele>
        <time>2025-10-05T08:48:01.000Z</time>
      </trkpt>
      <trkpt lat="49.58836" lon="3.4367">
        <ele>158.1</ele>
        <time>2025-10-05T08:48:02.000Z</time>
      </trkpt>
      <trkpt lat="49.58836" lon="3.4367">
        <ele>158.1</ele>
        <time>2025-10-05T08:48:03.000Z</time>
      </trkpt>
      <trkpt lat="49.58836" lon="3.4367">
        <ele>158.1</ele>
        <time>2025-10-05T08:48:04.000Z</time>
      </trkpt>
      <trkpt lat="49.58836" lon="3.4367">
        <ele>158.1</ele>
        <time>2025-10-05T08:48:05.000Z</time>
      </trkpt>
      <trkpt lat="49.58836" lon="3.4367">
        <ele>158.1</ele>
        <time>2025-10-05T08:48:06.000Z</time>
      </trkpt>
      <trkpt lat="49.58836" lon="3.4367">
        <ele>158.1</ele>
        <time>2025-10-05T08:48:07.000Z</time>
      </trkpt>
      <trkpt lat="49.58836" lon="3.4367">
        <ele>158.1</ele>
        <time>2025-10-05T08:48:08.000Z</time>
      </trkpt>
      <trkpt lat="49.58836" lon="3.4367">
        <ele>158.1</ele>
        <time>2025-10-05T08:48:09.000Z</time>
      </trkpt>
      <trkpt lat="49.58836" lon="3.4367">
        <ele>158.1</ele>
        <time>2025-10-05T08:48:10.000Z</time>
      </trkpt>
      <trkpt lat="49.58836" lon="3.4367">
        <ele>158.1</ele>
        <time>2025-10-05T08:48:11.000Z</time>
      </trkpt>
      <trkpt lat="49.58836" lon="3.4367">
        <ele>158.1</ele>
        <time>2025-10-05T08:48:12.000Z</time>
      </trkpt>
      <trkpt lat="49.58836" lon="3.4367">
        <ele>158.1</ele>
        <time>2025-10-05T08:48:13.000Z</time>
      </trkpt>
      <trkpt lat="49.58836" lon="3.4367">
        <ele>158.1</ele>
        <time>2025-10-05T08:48:14.000Z</time>
      </trkpt>
      <trkpt lat="49.58836" lon="3.4367">
        <ele>158.1</ele>
        <time>2025-10-05T08:48:15.000Z</time>
      </trkpt>
      <trkpt lat="49.58836" lon="3.4367">
        <ele>158.1</ele>
        <time>2025-10-05T08:48:16.000Z</time>
      </trkpt>
      <trkpt lat="49.58836" lon="3.4367">
        <ele>158.1</ele>
        <time>2025-10-05T08:48:17.000Z</time>
      </trkpt>
      <trkpt lat="49.58836" lon="3.4367">
        <ele>158.1</ele>
        <time>2025-10-05T08:48:18.000Z</time>
      </trkpt>
      <trkpt lat="49.58836" lon="3.4367">
        <ele>158.1</ele>
        <time>2025-10-05T08:48:19.000Z</time>
      </trkpt>
      <trkpt lat="49.58836" lon="3.4367">
        <ele>158.1</ele>
        <time>2025-10-05T08:48:20.000Z</time>
      </trkpt>
      <trkpt lat="49.58836" lon="3.4367">
        <ele>158.1</ele>
        <time>2025-10-05T08:48:21.000Z</time>
      </trkpt>
      <trkpt lat="49.58836" lon="3.4367">
        <ele>158.1</ele>
        <time>2025-10-05T08:48:22.000Z</time>
      </trkpt>
      <trkpt lat="49.58836" lon="3.4367">
        <ele>158.1</ele>
        <time>2025-10-05T08:48:23.000Z</time>
      </trkpt>
      <trkpt lat="49.58836" lon="3.4367">
        <ele>158.1</ele>
        <time>2025-10-05T08:48:24.000Z</time>
      </trkpt>
      <trkpt lat="49.58836" lon="3.4367">
        <ele>158.1</ele>
        <time>2025-10-05T08:48:25.000Z</time>
      </trkpt>
      <trkpt lat="49.58836" lon="3.4367">
        <ele>158.1</ele>
        <time>2025-10-05T08:48:26.000Z</time>
      </trkpt>
      <trkpt lat="49.58836" lon="3.4367">
        <ele>158.1</ele>
        <time>2025-10-05T08:48:27.000Z</time>
      </trkpt>
      <trkpt lat="49.58836" lon="3.4367">
        <ele>158.1</ele>
        <time>2025-10-05T08:48:28.000Z</time>
      </trkpt>
      <trkpt lat="49.58836" lon="3.4367">
        <ele>158.1</ele>
        <time>2025-10-05T08:48:29.000Z</time>
      </trkpt>
      <trkpt lat="49.58836" lon="3.4367">
        <ele>158.1</ele>
        <time>2025-10-05T08:48:30.000Z</time>
      </trkpt>
      <trkpt lat="49.58836" lon="3.4367">
        <ele>158.1</ele>
        <time>2025-10-05T08:48:31.000Z</time>
      </trkpt>
      <trkpt lat="49.58836" lon="3.4367">
        <ele>158.1</ele>
        <time>2025-10-05T08:48:32.000Z</time>
      </trkpt>
      <trkpt lat="49.58836" lon="3.4367">
        <ele>158.1</ele>
        <time>2025-10-05T08:48:33.000Z</time>
      </trkpt>
      <trkpt lat="49.58836" lon="3.4367">
        <ele>158.1</ele>
        <time>2025-10-05T08:48:34.000Z</time>
      </trkpt>
      <trkpt lat="49.58836" lon="3.4367">
        <ele>158.1</ele>
        <time>2025-10-05T08:48:35.000Z</time>
      </trkpt>
      <trkpt lat="49.58836" lon="3.4367">
        <ele>158.1</ele>
        <time>2025-10-05T08:48:36.000Z</time>
      </trkpt>
      <trkpt lat="49.58836" lon="3.4367">
        <ele>158.1</ele>
        <time>2025-10-05T08:48:37.000Z</time>
      </trkpt>
      <trkpt lat="49.58836" lon="3.4367">
        <ele>158.1</ele>
        <time>2025-10-05T08:48:38.000Z</time>
      </trkpt>
      <trkpt lat="49.58836" lon="3.4367">
        <ele>158.1</ele>
        <time>2025-10-05T08:48:39.000Z</time>
      </trkpt>
      <trkpt lat="49.58836" lon="3.4367">
        <ele>158.1</ele>
        <time>2025-10-05T08:48:40.000Z</time>
      </trkpt>
      <trkpt lat="49.58836" lon="3.4367">
        <ele>158.1</ele>
        <time>2025-10-05T08:48:41.000Z</time>
      </trkpt>
      <trkpt lat="49.58836" lon="3.4367">
        <ele>158.1</ele>
        <time>2025-10-05T08:48:42.000Z</time>
      </trkpt>
      <trkpt lat="49.58836" lon="3.4367">
        <ele>158.1</ele>
        <time>2025-10-05T08:48:43.000Z</time>
      </trkpt>
      <trkpt lat="49.58836" lon="3.4367">
        <ele>158.1</ele>
        <time>2025-10-05T08:48:44.000Z</time>
      </trkpt>
      <trkpt lat="49.58836" lon="3.4367">
        <ele>158.1</ele>
        <time>2025-10-05T08:48:45.000Z</time>
      </trkpt>
      <trkpt lat="49.58836" lon="3.4367">
        <ele>158.1</ele>
        <time>2025-10-05T08:48:46.000Z</time>
      </trkpt>
      <trkpt lat="49.58836" lon="3.4367">
        <ele>158.1</ele>
        <time>2025-10-05T08:48:47.000Z</time>
      </trkpt>
      <trkpt lat="49.58836" lon="3.4367">
        <ele>158.1</ele>
        <time>2025-10-05T08:48:48.000Z</time>
      </trkpt>
      <trkpt lat="49.58836" lon="3.4367">
        <ele>158.1</ele>
        <time>2025-10-05T08:48:49.000Z</time>
      </trkpt>
      <trkpt lat="49.58836" lon="3.4367">
        <ele>158.1</ele>
        <time>2025-10-05T08:48:50.000Z</time>
      </trkpt>
      <trkpt lat="49.58836" lon="3.4367">
        <ele>158.1</ele>
        <time>2025-10-05T08:48:51.000Z</time>
      </trkpt>
      <trkpt lat="49.58836" lon="3.4367">
        <ele>158.1</ele>
        <time>2025-10-05T08:48:52.000Z</time>
      </trkpt>
      <trkpt lat="49.58836" lon="3.4367">
        <ele>158.1</ele>
        <time>2025-10-05T08:48:53.000Z</time>
      </trkpt>
      <trkpt lat="49.58836" lon="3.4367">
        <ele>158.1</ele>
        <time>2025-10-05T08:48:54.000Z</time>
      </trkpt>
      <trkpt lat="49.5883" lon="3.4367">
        <ele>156.9</ele>
        <time>2025-10-05T08:48:55.000Z</time>
      </trkpt>
      <trkpt lat="49.58829" lon="3.43671">
        <ele>157.2</ele>
        <time>2025-10-05T08:48:56.000Z</time>
      </trkpt>
      <trkpt lat="49.58829" lon="3.43671">
        <ele>157.1</ele>
        <time>2025-10-05T08:48:57.000Z</time>
      </trkpt>
      <trkpt lat="49.58828" lon="3.43671">
        <ele>157</ele>
        <time>2025-10-05T08:48:58.000Z</time>
      </trkpt>
      <trkpt lat="49.58827" lon="3.43672">
        <ele>156.9</ele>
        <time>2025-10-05T08:48:59.000Z</time>
      </trkpt>
      <trkpt lat="49.58826" lon="3.43672">
        <ele>156.8</ele>
        <time>2025-10-05T08:49:00.000Z</time>
      </trkpt>
      <trkpt lat="49.58825" lon="3.43672">
        <ele>156.6</ele>
        <time>2025-10-05T08:49:01.000Z</time>
      </trkpt>
      <trkpt lat="49.58824" lon="3.43672">
        <ele>156.5</ele>
        <time>2025-10-05T08:49:02.000Z</time>
      </trkpt>
      <trkpt lat="49.58823" lon="3.43672">
        <ele>156.3</ele>
        <time>2025-10-05T08:49:03.000Z</time>
      </trkpt>
      <trkpt lat="49.58821" lon="3.43673">
        <ele>156</ele>
        <time>2025-10-05T08:49:04.000Z</time>
      </trkpt>
      <trkpt lat="49.58821" lon="3.43674">
        <ele>155.9</ele>
        <time>2025-10-05T08:49:05.000Z</time>
      </trkpt>
      <trkpt lat="49.5882" lon="3.43675">
        <ele>155.6</ele>
        <time>2025-10-05T08:49:06.000Z</time>
      </trkpt>
      <trkpt lat="49.58819" lon="3.43676">
        <ele>155.4</ele>
        <time>2025-10-05T08:49:07.000Z</time>
      </trkpt>
      <trkpt lat="49.58818" lon="3.43676">
        <ele>155.3</ele>
        <time>2025-10-05T08:49:08.000Z</time>
      </trkpt>
      <trkpt lat="49.58817" lon="3.43676">
        <ele>155.1</ele>
        <time>2025-10-05T08:49:09.000Z</time>
      </trkpt>
      <trkpt lat="49.58817" lon="3.43676">
        <ele>154.8</ele>
        <time>2025-10-05T08:49:10.000Z</time>
      </trkpt>
      <trkpt lat="49.58816" lon="3.43677">
        <ele>154.8</ele>
        <time>2025-10-05T08:49:11.000Z</time>
      </trkpt>
      <trkpt lat="49.58815" lon="3.43678">
        <ele>154.6</ele>
        <time>2025-10-05T08:49:12.000Z</time>
      </trkpt>
      <trkpt lat="49.58814" lon="3.43678">
        <ele>154.6</ele>
        <time>2025-10-05T08:49:13.000Z</time>
      </trkpt>
      <trkpt lat="49.58813" lon="3.43679">
        <ele>154.5</ele>
        <time>2025-10-05T08:49:14.000Z</time>
      </trkpt>
      <trkpt lat="49.58812" lon="3.43679">
        <ele>154.3</ele>
        <time>2025-10-05T08:49:15.000Z</time>
      </trkpt>
      <trkpt lat="49.58811" lon="3.43679">
        <ele>154</ele>
        <time>2025-10-05T08:49:16.000Z</time>
      </trkpt>
      <trkpt lat="49.5881" lon="3.4368">
        <ele>153.7</ele>
        <time>2025-10-05T08:49:17.000Z</time>
      </trkpt>
      <trkpt lat="49.58808" lon="3.43681">
        <ele>153.3</ele>
        <time>2025-10-05T08:49:18.000Z</time>
      </trkpt>
      <trkpt lat="49.58807" lon="3.43681">
        <ele>153.1</ele>
        <time>2025-10-05T08:49:19.000Z</time>
      </trkpt>
      <trkpt lat="49.58806" lon="3.43681">
        <ele>152.9</ele>
        <time>2025-10-05T08:49:20.000Z</time>
      </trkpt>
      <trkpt lat="49.58805" lon="3.43682">
        <ele>152.7</ele>
        <time>2025-10-05T08:49:21.000Z</time>
      </trkpt>
      <trkpt lat="49.58804" lon="3.43681">
        <ele>152.6</ele>
        <time>2025-10-05T08:49:22.000Z</time>
      </trkpt>
      <trkpt lat="49.58804" lon="3.43681">
        <ele>152.2</ele>
        <time>2025-10-05T08:49:23.000Z</time>
      </trkpt>
      <trkpt lat="49.58803" lon="3.43682">
        <ele>151.5</ele>
        <time>2025-10-05T08:49:24.000Z</time>
      </trkpt>
      <trkpt lat="49.58802" lon="3.43683">
        <ele>150.9</ele>
        <time>2025-10-05T08:49:25.000Z</time>
      </trkpt>
      <trkpt lat="49.58801" lon="3.43683">
        <ele>150.2</ele>
        <time>2025-10-05T08:49:26.000Z</time>
      </trkpt>
      <trkpt lat="49.58801" lon="3.43684">
        <ele>149.8</ele>
        <time>2025-10-05T08:49:27.000Z</time>
      </trkpt>
      <trkpt lat="49.588" lon="3.43684">
        <ele>149.3</ele>
        <time>2025-10-05T08:49:28.000Z</time>
      </trkpt>
      <trkpt lat="49.58799" lon="3.43685">
        <ele>149.3</ele>
        <time>2025-10-05T08:49:29.000Z</time>
      </trkpt>
      <trkpt lat="49.58798" lon="3.43685">
        <ele>149.8</ele>
        <time>2025-10-05T08:49:30.000Z</time>
      </trkpt>
      <trkpt lat="49.58797" lon="3.43685">
        <ele>150.4</ele>
        <time>2025-10-05T08:49:31.000Z</time>
      </trkpt>
      <trkpt lat="49.58796" lon="3.43685">
        <ele>151.1</ele>
        <time>2025-10-05T08:49:32.000Z</time>
      </trkpt>
      <trkpt lat="49.58795" lon="3.43684">
        <ele>152</ele>
        <time>2025-10-05T08:49:33.000Z</time>
      </trkpt>
      <trkpt lat="49.58793" lon="3.43684">
        <ele>152.2</ele>
        <time>2025-10-05T08:49:34.000Z</time>
      </trkpt>
      <trkpt lat="49.58792" lon="3.43683">
        <ele>152.8</ele>
        <time>2025-10-05T08:49:35.000Z</time>
      </trkpt>
      <trkpt lat="49.5879" lon="3.43683">
        <ele>153.4</ele>
        <time>2025-10-05T08:49:36.000Z</time>
      </trkpt>
      <trkpt lat="49.58789" lon="3.43683">
        <ele>153.9</ele>
        <time>2025-10-05T08:49:37.000Z</time>
      </trkpt>
      <trkpt lat="49.58788" lon="3.43683">
        <ele>154.2</ele>
        <time>2025-10-05T08:49:38.000Z</time>
      </trkpt>
      <trkpt lat="49.58787" lon="3.43684">
        <ele>154.5</ele>
        <time>2025-10-05T08:49:39.000Z</time>
      </trkpt>
      <trkpt lat="49.58787" lon="3.43684">
        <ele>154.8</ele>
        <time>2025-10-05T08:49:40.000Z</time>
      </trkpt>
      <trkpt lat="49.58786" lon="3.43684">
        <ele>155.2</ele>
        <time>2025-10-05T08:49:41.000Z</time>
      </trkpt>
      <trkpt lat="49.58786" lon="3.43684">
        <ele>155.3</ele>
        <time>2025-10-05T08:49:42.000Z</time>
      </trkpt>
      <trkpt lat="49.58785" lon="3.43684">
        <ele>155.2</ele>
        <time>2025-10-05T08:49:43.000Z</time>
      </trkpt>
      <trkpt lat="49.58784" lon="3.43685">
        <ele>155.3</ele>
        <time>2025-10-05T08:49:44.000Z</time>
      </trkpt>
      <trkpt lat="49.58782" lon="3.43686">
        <ele>155.5</ele>
        <time>2025-10-05T08:49:45.000Z</time>
      </trkpt>
      <trkpt lat="49.58781" lon="3.43686">
        <ele>155.7</ele>
        <time>2025-10-05T08:49:46.000Z</time>
      </trkpt>
      <trkpt lat="49.5878" lon="3.43686">
        <ele>156.1</ele>
        <time>2025-10-05T08:49:47.000Z</time>
      </trkpt>
      <trkpt lat="49.58778" lon="3.43686">
        <ele>156.4</ele>
        <time>2025-10-05T08:49:48.000Z</time>
      </trkpt>
      <trkpt lat="49.58777" lon="3.43685">
        <ele>156.2</ele>
        <time>2025-10-05T08:49:49.000Z</time>
      </trkpt>
      <trkpt lat="49.58775" lon="3.43685">
        <ele>156.1</ele>
        <time>2025-10-05T08:49:50.000Z</time>
      </trkpt>
      <trkpt lat="49.58774" lon="3.43685">
        <ele>156.1</ele>
        <time>2025-10-05T08:49:51.000Z</time>
      </trkpt>
      <trkpt lat="49.58774" lon="3.43685">
        <ele>156.3</ele>
        <time>2025-10-05T08:49:52.000Z</time>
      </trkpt>
      <trkpt lat="49.58773" lon="3.43685">
        <ele>156.3</ele>
        <time>2025-10-05T08:49:53.000Z</time>
      </trkpt>
      <trkpt lat="49.58771" lon="3.43684">
        <ele>156</ele>
        <time>2025-10-05T08:49:54.000Z</time>
      </trkpt>
      <trkpt lat="49.5877" lon="3.43684">
        <ele>156.5</ele>
        <time>2025-10-05T08:49:55.000Z</time>
      </trkpt>
      <trkpt lat="49.58769" lon="3.43685">
        <ele>156.8</ele>
        <time>2025-10-05T08:49:56.000Z</time>
      </trkpt>
      <trkpt lat="49.58768" lon="3.43685">
        <ele>157.1</ele>
        <time>2025-10-05T08:49:57.000Z</time>
      </trkpt>
      <trkpt lat="49.58767" lon="3.43685">
        <ele>156.8</ele>
        <time>2025-10-05T08:49:58.000Z</time>
      </trkpt>
      <trkpt lat="49.58766" lon="3.43685">
        <ele>156.7</ele>
        <time>2025-10-05T08:49:59.000Z</time>
      </trkpt>
      <trkpt lat="49.58765" lon="3.43685">
        <ele>156.9</ele>
        <time>2025-10-05T08:50:00.000Z</time>
      </trkpt>
      <trkpt lat="49.58763" lon="3.43685">
        <ele>157.1</ele>
        <time>2025-10-05T08:50:01.000Z</time>
      </trkpt>
      <trkpt lat="49.58762" lon="3.43685">
        <ele>157</ele>
        <time>2025-10-05T08:50:02.000Z</time>
      </trkpt>
      <trkpt lat="49.5876" lon="3.43686">
        <ele>156.8</ele>
        <time>2025-10-05T08:50:03.000Z</time>
      </trkpt>
      <trkpt lat="49.58758" lon="3.43686">
        <ele>157.2</ele>
        <time>2025-10-05T08:50:04.000Z</time>
      </trkpt>
      <trkpt lat="49.58757" lon="3.43686">
        <ele>156.8</ele>
        <time>2025-10-05T08:50:05.000Z</time>
      </trkpt>
      <trkpt lat="49.58756" lon="3.43686">
        <ele>156.9</ele>
        <time>2025-10-05T08:50:06.000Z</time>
      </trkpt>
      <trkpt lat="49.58754" lon="3.43686">
        <ele>156.9</ele>
        <time>2025-10-05T08:50:07.000Z</time>
      </trkpt>
      <trkpt lat="49.58753" lon="3.43686">
        <ele>156.5</ele>
        <time>2025-10-05T08:50:08.000Z</time>
      </trkpt>
      <trkpt lat="49.58751" lon="3.43687">
        <ele>155.9</ele>
        <time>2025-10-05T08:50:09.000Z</time>
      </trkpt>
      <trkpt lat="49.58751" lon="3.43686">
        <ele>155.8</ele>
        <time>2025-10-05T08:50:10.000Z</time>
      </trkpt>
      <trkpt lat="49.5875" lon="3.43686">
        <ele>156</ele>
        <time>2025-10-05T08:50:11.000Z</time>
      </trkpt>
      <trkpt lat="49.5875" lon="3.43687">
        <ele>156.2</ele>
        <time>2025-10-05T08:50:12.000Z</time>
      </trkpt>
      <trkpt lat="49.5875" lon="3.43687">
        <ele>156.7</ele>
        <time>2025-10-05T08:50:13.000Z</time>
      </trkpt>
      <trkpt lat="49.5875" lon="3.43687">
        <ele>157.5</ele>
        <time>2025-10-05T08:50:14.000Z</time>
      </trkpt>
      <trkpt lat="49.5875" lon="3.43687">
        <ele>157.7</ele>
        <time>2025-10-05T08:50:15.000Z</time>
      </trkpt>
      <trkpt lat="49.58749" lon="3.43687">
        <ele>158.2</ele>
        <time>2025-10-05T08:50:16.000Z</time>
      </trkpt>
      <trkpt lat="49.58748" lon="3.43687">
        <ele>158.3</ele>
        <time>2025-10-05T08:50:17.000Z</time>
      </trkpt>
      <trkpt lat="49.58746" lon="3.43687">
        <ele>158.5</ele>
        <time>2025-10-05T08:50:18.000Z</time>
      </trkpt>
      <trkpt lat="49.58744" lon="3.43688">
        <ele>159.1</ele>
        <time>2025-10-05T08:50:19.000Z</time>
      </trkpt>
      <trkpt lat="49.58742" lon="3.43689">
        <ele>159.2</ele>
        <time>2025-10-05T08:50:20.000Z</time>
      </trkpt>
      <trkpt lat="49.58741" lon="3.43689">
        <ele>159.3</ele>
        <time>2025-10-05T08:50:21.000Z</time>
      </trkpt>
      <trkpt lat="49.58739" lon="3.4369">
        <ele>159.2</ele>
        <time>2025-10-05T08:50:22.000Z</time>
      </trkpt>
      <trkpt lat="49.58737" lon="3.43689">
        <ele>159.4</ele>
        <time>2025-10-05T08:50:23.000Z</time>
      </trkpt>
      <trkpt lat="49.58736" lon="3.43689">
        <ele>159.6</ele>
        <time>2025-10-05T08:50:24.000Z</time>
      </trkpt>
      <trkpt lat="49.58735" lon="3.43689">
        <ele>159.9</ele>
        <time>2025-10-05T08:50:25.000Z</time>
      </trkpt>
      <trkpt lat="49.58734" lon="3.43689">
        <ele>159.8</ele>
        <time>2025-10-05T08:50:26.000Z</time>
      </trkpt>
      <trkpt lat="49.58733" lon="3.4369">
        <ele>159.4</ele>
        <time>2025-10-05T08:50:27.000Z</time>
      </trkpt>
      <trkpt lat="49.58733" lon="3.43689">
        <ele>159.2</ele>
        <time>2025-10-05T08:50:28.000Z</time>
      </trkpt>
      <trkpt lat="49.58734" lon="3.43689">
        <ele>159</ele>
        <time>2025-10-05T08:50:29.000Z</time>
      </trkpt>
      <trkpt lat="49.58733" lon="3.43689">
        <ele>158.9</ele>
        <time>2025-10-05T08:50:30.000Z</time>
      </trkpt>
      <trkpt lat="49.58733" lon="3.43689">
        <ele>159.2</ele>
        <time>2025-10-05T08:50:31.000Z</time>
      </trkpt>
      <trkpt lat="49.58732" lon="3.43689">
        <ele>159.3</ele>
        <time>2025-10-05T08:50:32.000Z</time>
      </trkpt>
      <trkpt lat="49.5873" lon="3.4369">
        <ele>159.7</ele>
        <time>2025-10-05T08:50:33.000Z</time>
      </trkpt>
      <trkpt lat="49.58728" lon="3.4369">
        <ele>160</ele>
        <time>2025-10-05T08:50:34.000Z</time>
      </trkpt>
      <trkpt lat="49.58727" lon="3.4369">
        <ele>159.9</ele>
        <time>2025-10-05T08:50:35.000Z</time>
      </trkpt>
      <trkpt lat="49.58726" lon="3.43689">
        <ele>160.2</ele>
        <time>2025-10-05T08:50:36.000Z</time>
      </trkpt>
      <trkpt lat="49.58725" lon="3.43689">
        <ele>160.5</ele>
        <time>2025-10-05T08:50:37.000Z</time>
      </trkpt>
      <trkpt lat="49.58724" lon="3.43689">
        <ele>160.8</ele>
        <time>2025-10-05T08:50:38.000Z</time>
      </trkpt>
      <trkpt lat="49.58724" lon="3.4369">
        <ele>161.1</ele>
        <time>2025-10-05T08:50:39.000Z</time>
      </trkpt>
      <trkpt lat="49.58724" lon="3.4369">
        <ele>161.5</ele>
        <time>2025-10-05T08:50:40.000Z</time>
      </trkpt>
      <trkpt lat="49.58723" lon="3.4369">
        <ele>161.7</ele>
        <time>2025-10-05T08:50:41.000Z</time>
      </trkpt>
      <trkpt lat="49.58722" lon="3.43691">
        <ele>161.9</ele>
        <time>2025-10-05T08:50:42.000Z</time>
      </trkpt>
      <trkpt lat="49.58721" lon="3.43691">
        <ele>162.2</ele>
        <time>2025-10-05T08:50:43.000Z</time>
      </trkpt>
      <trkpt lat="49.58719" lon="3.43691">
        <ele>162.2</ele>
        <time>2025-10-05T08:50:44.000Z</time>
      </trkpt>
      <trkpt lat="49.58717" lon="3.43691">
        <ele>162.1</ele>
        <time>2025-10-05T08:50:45.000Z</time>
      </trkpt>
      <trkpt lat="49.58716" lon="3.43691">
        <ele>161.6</ele>
        <time>2025-10-05T08:50:46.000Z</time>
      </trkpt>
      <trkpt lat="49.58714" lon="3.43692">
        <ele>160.8</ele>
        <time>2025-10-05T08:50:47.000Z</time>
      </trkpt>
      <trkpt lat="49.58713" lon="3.43692">
        <ele>160.4</ele>
        <time>2025-10-05T08:50:48.000Z</time>
      </trkpt>
      <trkpt lat="49.58713" lon="3.43693">
        <ele>160.2</ele>
        <time>2025-10-05T08:50:49.000Z</time>
      </trkpt>
      <trkpt lat="49.58712" lon="3.43693">
        <ele>160.1</ele>
        <time>2025-10-05T08:50:50.000Z</time>
      </trkpt>
      <trkpt lat="49.58712" lon="3.43693">
        <ele>160.3</ele>
        <time>2025-10-05T08:50:51.000Z</time>
      </trkpt>
      <trkpt lat="49.58711" lon="3.43692">
        <ele>160.8</ele>
        <time>2025-10-05T08:50:52.000Z</time>
      </trkpt>
      <trkpt lat="49.5871" lon="3.43692">
        <ele>160.7</ele>
        <time>2025-10-05T08:50:53.000Z</time>
      </trkpt>
      <trkpt lat="49.58708" lon="3.43691">
        <ele>160.6</ele>
        <time>2025-10-05T08:50:54.000Z</time>
      </trkpt>
      <trkpt lat="49.58707" lon="3.43691">
        <ele>160.5</ele>
        <time>2025-10-05T08:50:55.000Z</time>
      </trkpt>
      <trkpt lat="49.58706" lon="3.43692">
        <ele>160.4</ele>
        <time>2025-10-05T08:50:56.000Z</time>
      </trkpt>
      <trkpt lat="49.58706" lon="3.43692">
        <ele>160.5</ele>
        <time>2025-10-05T08:50:57.000Z</time>
      </trkpt>
      <trkpt lat="49.58705" lon="3.43693">
        <ele>160.5</ele>
        <time>2025-10-05T08:50:58.000Z</time>
      </trkpt>
      <trkpt lat="49.58704" lon="3.43693">
        <ele>160.5</ele>
        <time>2025-10-05T08:50:59.000Z</time>
      </trkpt>
      <trkpt lat="49.58703" lon="3.43694">
        <ele>160.5</ele>
        <time>2025-10-05T08:51:00.000Z</time>
      </trkpt>
      <trkpt lat="49.58702" lon="3.43694">
        <ele>160.3</ele>
        <time>2025-10-05T08:51:01.000Z</time>
      </trkpt>
      <trkpt lat="49.587" lon="3.43694">
        <ele>160.3</ele>
        <time>2025-10-05T08:51:02.000Z</time>
      </trkpt>
      <trkpt lat="49.58698" lon="3.43695">
        <ele>159.8</ele>
        <time>2025-10-05T08:51:03.000Z</time>
      </trkpt>
      <trkpt lat="49.58696" lon="3.43695">
        <ele>159.2</ele>
        <time>2025-10-05T08:51:04.000Z</time>
      </trkpt>
      <trkpt lat="49.58695" lon="3.43696">
        <ele>158.6</ele>
        <time>2025-10-05T08:51:05.000Z</time>
      </trkpt>
      <trkpt lat="49.58694" lon="3.43696">
        <ele>158.4</ele>
        <time>2025-10-05T08:51:06.000Z</time>
      </trkpt>
      <trkpt lat="49.58693" lon="3.43697">
        <ele>158.3</ele>
        <time>2025-10-05T08:51:07.000Z</time>
      </trkpt>
      <trkpt lat="49.58692" lon="3.43698">
        <ele>158.2</ele>
        <time>2025-10-05T08:51:08.000Z</time>
      </trkpt>
      <trkpt lat="49.58692" lon="3.43698">
        <ele>158.2</ele>
        <time>2025-10-05T08:51:09.000Z</time>
      </trkpt>
      <trkpt lat="49.58691" lon="3.43699">
        <ele>158.1</ele>
        <time>2025-10-05T08:51:10.000Z</time>
      </trkpt>
      <trkpt lat="49.5869" lon="3.43699">
        <ele>158.3</ele>
        <time>2025-10-05T08:51:11.000Z</time>
      </trkpt>
      <trkpt lat="49.58689" lon="3.437">
        <ele>158.7</ele>
        <time>2025-10-05T08:51:12.000Z</time>
      </trkpt>
      <trkpt lat="49.58687" lon="3.437">
        <ele>158.8</ele>
        <time>2025-10-05T08:51:13.000Z</time>
      </trkpt>
      <trkpt lat="49.58685" lon="3.437">
        <ele>158.9</ele>
        <time>2025-10-05T08:51:14.000Z</time>
      </trkpt>
      <trkpt lat="49.58683" lon="3.437">
        <ele>159</ele>
        <time>2025-10-05T08:51:15.000Z</time>
      </trkpt>
      <trkpt lat="49.58681" lon="3.43701">
        <ele>158.9</ele>
        <time>2025-10-05T08:51:16.000Z</time>
      </trkpt>
      <trkpt lat="49.58679" lon="3.43701">
        <ele>158.5</ele>
        <time>2025-10-05T08:51:17.000Z</time>
      </trkpt>
      <trkpt lat="49.58677" lon="3.43701">
        <ele>158.2</ele>
        <time>2025-10-05T08:51:18.000Z</time>
      </trkpt>
      <trkpt lat="49.58676" lon="3.43701">
        <ele>157.7</ele>
        <time>2025-10-05T08:51:19.000Z</time>
      </trkpt>
      <trkpt lat="49.58675" lon="3.43701">
        <ele>157.2</ele>
        <time>2025-10-05T08:51:20.000Z</time>
      </trkpt>
      <trkpt lat="49.58674" lon="3.43701">
        <ele>156.7</ele>
        <time>2025-10-05T08:51:21.000Z</time>
      </trkpt>
      <trkpt lat="49.58673" lon="3.43701">
        <ele>156.4</ele>
        <time>2025-10-05T08:51:22.000Z</time>
      </trkpt>
      <trkpt lat="49.58672" lon="3.43701">
        <ele>156</ele>
        <time>2025-10-05T08:51:23.000Z</time>
      </trkpt>
      <trkpt lat="49.58671" lon="3.43702">
        <ele>155.8</ele>
        <time>2025-10-05T08:51:24.000Z</time>
      </trkpt>
      <trkpt lat="49.58671" lon="3.43702">
        <ele>155.9</ele>
        <time>2025-10-05T08:51:25.000Z</time>
      </trkpt>
      <trkpt lat="49.58671" lon="3.43703">
        <ele>156</ele>
        <time>2025-10-05T08:51:26.000Z</time>
      </trkpt>
      <trkpt lat="49.5867" lon="3.43703">
        <ele>156.1</ele>
        <time>2025-10-05T08:51:27.000Z</time>
      </trkpt>
      <trkpt lat="49.58668" lon="3.43703">
        <ele>156.3</ele>
        <time>2025-10-05T08:51:28.000Z</time>
      </trkpt>
      <trkpt lat="49.58667" lon="3.43703">
        <ele>156.2</ele>
        <time>2025-10-05T08:51:29.000Z</time>
      </trkpt>
      <trkpt lat="49.58664" lon="3.43702">
        <ele>156.2</ele>
        <time>2025-10-05T08:51:30.000Z</time>
      </trkpt>
      <trkpt lat="49.58663" lon="3.43703">
        <ele>155.9</ele>
        <time>2025-10-05T08:51:31.000Z</time>
      </trkpt>
      <trkpt lat="49.58661" lon="3.43703">
        <ele>155.8</ele>
        <time>2025-10-05T08:51:32.000Z</time>
      </trkpt>
      <trkpt lat="49.5866" lon="3.43703">
        <ele>155.7</ele>
        <time>2025-10-05T08:51:33.000Z</time>
      </trkpt>
      <trkpt lat="49.5866" lon="3.43703">
        <ele>155.7</ele>
        <time>2025-10-05T08:51:34.000Z</time>
      </trkpt>
      <trkpt lat="49.58659" lon="3.43703">
        <ele>155.9</ele>
        <time>2025-10-05T08:51:35.000Z</time>
      </trkpt>
      <trkpt lat="49.58659" lon="3.43703">
        <ele>155.8</ele>
        <time>2025-10-05T08:51:36.000Z</time>
      </trkpt>
      <trkpt lat="49.58659" lon="3.43704">
        <ele>156.2</ele>
        <time>2025-10-05T08:51:37.000Z</time>
      </trkpt>
      <trkpt lat="49.58659" lon="3.43704">
        <ele>156.3</ele>
        <time>2025-10-05T08:51:38.000Z</time>
      </trkpt>
      <trkpt lat="49.58658" lon="3.43704">
        <ele>156.5</ele>
        <time>2025-10-05T08:51:39.000Z</time>
      </trkpt>
      <trkpt lat="49.58657" lon="3.43704">
        <ele>156.7</ele>
        <time>2025-10-05T08:51:40.000Z</time>
      </trkpt>
      <trkpt lat="49.58656" lon="3.43704">
        <ele>157</ele>
        <time>2025-10-05T08:51:41.000Z</time>
      </trkpt>
      <trkpt lat="49.58654" lon="3.43705">
        <ele>157.3</ele>
        <time>2025-10-05T08:51:42.000Z</time>
      </trkpt>
      <trkpt lat="49.58652" lon="3.43705">
        <ele>157.6</ele>
        <time>2025-10-05T08:51:43.000Z</time>
      </trkpt>
      <trkpt lat="49.58651" lon="3.43705">
        <ele>157.5</ele>
        <time>2025-10-05T08:51:44.000Z</time>
      </trkpt>
      <trkpt lat="49.5865" lon="3.43705">
        <ele>157.2</ele>
        <time>2025-10-05T08:51:45.000Z</time>
      </trkpt>
      <trkpt lat="49.58649" lon="3.43704">
        <ele>157.3</ele>
        <time>2025-10-05T08:51:46.000Z</time>
      </trkpt>
      <trkpt lat="49.58648" lon="3.43704">
        <ele>157.4</ele>
        <time>2025-10-05T08:51:47.000Z</time>
      </trkpt>
      <trkpt lat="49.58648" lon="3.43705">
        <ele>157.5</ele>
        <time>2025-10-05T08:51:48.000Z</time>
      </trkpt>
      <trkpt lat="49.58647" lon="3.43705">
        <ele>157.5</ele>
        <time>2025-10-05T08:51:49.000Z</time>
      </trkpt>
      <trkpt lat="49.58646" lon="3.43706">
        <ele>157.2</ele>
        <time>2025-10-05T08:51:50.000Z</time>
      </trkpt>
      <trkpt lat="49.58645" lon="3.43706">
        <ele>157</ele>
        <time>2025-10-05T08:51:51.000Z</time>
      </trkpt>
      <trkpt lat="49.58644" lon="3.43707">
        <ele>156.8</ele>
        <time>2025-10-05T08:51:52.000Z</time>
      </trkpt>
      <trkpt lat="49.58643" lon="3.43708">
        <ele>156.9</ele>
        <time>2025-10-05T08:51:53.000Z</time>
      </trkpt>
      <trkpt lat="49.58642" lon="3.43709">
        <ele>157.2</ele>
        <time>2025-10-05T08:51:54.000Z</time>
      </trkpt>
      <trkpt lat="49.5864" lon="3.43709">
        <ele>157.5</ele>
        <time>2025-10-05T08:51:55.000Z</time>
      </trkpt>
      <trkpt lat="49.58639" lon="3.43709">
        <ele>157.7</ele>
        <time>2025-10-05T08:51:56.000Z</time>
      </trkpt>
      <trkpt lat="49.58638" lon="3.43709">
        <ele>156.9</ele>
        <time>2025-10-05T08:51:57.000Z</time>
      </trkpt>
      <trkpt lat="49.58637" lon="3.43708">
        <ele>157.2</ele>
        <time>2025-10-05T08:51:58.000Z</time>
      </trkpt>
      <trkpt lat="49.58637" lon="3.43707">
        <ele>157.5</ele>
        <time>2025-10-05T08:51:59.000Z</time>
      </trkpt>
      <trkpt lat="49.58636" lon="3.43707">
        <ele>157.7</ele>
        <time>2025-10-05T08:52:00.000Z</time>
      </trkpt>
      <trkpt lat="49.58636" lon="3.43707">
        <ele>158</ele>
        <time>2025-10-05T08:52:01.000Z</time>
      </trkpt>
      <trkpt lat="49.58636" lon="3.43708">
        <ele>158.2</ele>
        <time>2025-10-05T08:52:02.000Z</time>
      </trkpt>
      <trkpt lat="49.58635" lon="3.43708">
        <ele>158.8</ele>
        <time>2025-10-05T08:52:03.000Z</time>
      </trkpt>
      <trkpt lat="49.58635" lon="3.43708">
        <ele>159.4</ele>
        <time>2025-10-05T08:52:04.000Z</time>
      </trkpt>
      <trkpt lat="49.58635" lon="3.43708">
        <ele>159.9</ele>
        <time>2025-10-05T08:52:05.000Z</time>
      </trkpt>
      <trkpt lat="49.58634" lon="3.43708">
        <ele>160.4</ele>
        <time>2025-10-05T08:52:06.000Z</time>
      </trkpt>
      <trkpt lat="49.58633" lon="3.43708">
        <ele>160.8</ele>
        <time>2025-10-05T08:52:07.000Z</time>
      </trkpt>
      <trkpt lat="49.58631" lon="3.43708">
        <ele>161.3</ele>
        <time>2025-10-05T08:52:08.000Z</time>
      </trkpt>
      <trkpt lat="49.58629" lon="3.43707">
        <ele>161.7</ele>
        <time>2025-10-05T08:52:09.000Z</time>
      </trkpt>
      <trkpt lat="49.58627" lon="3.43707">
        <ele>162.1</ele>
        <time>2025-10-05T08:52:10.000Z</time>
      </trkpt>
      <trkpt lat="49.58624" lon="3.43708">
        <ele>162</ele>
        <time>2025-10-05T08:52:11.000Z</time>
      </trkpt>
      <trkpt lat="49.58622" lon="3.43708">
        <ele>161.9</ele>
        <time>2025-10-05T08:52:12.000Z</time>
      </trkpt>
      <trkpt lat="49.5862" lon="3.43708">
        <ele>161.2</ele>
        <time>2025-10-05T08:52:13.000Z</time>
      </trkpt>
      <trkpt lat="49.58618" lon="3.43708">
        <ele>160.7</ele>
        <time>2025-10-05T08:52:14.000Z</time>
      </trkpt>
      <trkpt lat="49.58618" lon="3.43708">
        <ele>160.4</ele>
        <time>2025-10-05T08:52:15.000Z</time>
      </trkpt>
      <trkpt lat="49.58617" lon="3.43709">
        <ele>160</ele>
        <time>2025-10-05T08:52:16.000Z</time>
      </trkpt>
      <trkpt lat="49.58617" lon="3.43709">
        <ele>160.3</ele>
        <time>2025-10-05T08:52:17.000Z</time>
      </trkpt>
      <trkpt lat="49.58617" lon="3.43709">
        <ele>160.8</ele>
        <time>2025-10-05T08:52:18.000Z</time>
      </trkpt>
      <trkpt lat="49.58617" lon="3.43709">
        <ele>161.3</ele>
        <time>2025-10-05T08:52:19.000Z</time>
      </trkpt>
      <trkpt lat="49.58618" lon="3.43709">
        <ele>161.6</ele>
        <time>2025-10-05T08:52:20.000Z</time>
      </trkpt>
      <trkpt lat="49.58618" lon="3.4371">
        <ele>162.1</ele>
        <time>2025-10-05T08:52:21.000Z</time>
      </trkpt>
      <trkpt lat="49.58617" lon="3.4371">
        <ele>162.5</ele>
        <time>2025-10-05T08:52:22.000Z</time>
      </trkpt>
      <trkpt lat="49.58616" lon="3.4371">
        <ele>162.8</ele>
        <time>2025-10-05T08:52:23.000Z</time>
      </trkpt>
      <trkpt lat="49.58614" lon="3.43711">
        <ele>163.1</ele>
        <time>2025-10-05T08:52:24.000Z</time>
      </trkpt>
      <trkpt lat="49.58612" lon="3.43711">
        <ele>163.4</ele>
        <time>2025-10-05T08:52:25.000Z</time>
      </trkpt>
      <trkpt lat="49.58609" lon="3.43711">
        <ele>163.5</ele>
        <time>2025-10-05T08:52:26.000Z</time>
      </trkpt>
      <trkpt lat="49.58607" lon="3.43711">
        <ele>163.6</ele>
        <time>2025-10-05T08:52:27.000Z</time>
      </trkpt>
      <trkpt lat="49.58605" lon="3.43711">
        <ele>163.3</ele>
        <time>2025-10-05T08:52:28.000Z</time>
      </trkpt>
      <trkpt lat="49.58604" lon="3.43711">
        <ele>163.2</ele>
        <time>2025-10-05T08:52:29.000Z</time>
      </trkpt>
      <trkpt lat="49.58602" lon="3.43711">
        <ele>163.2</ele>
        <time>2025-10-05T08:52:30.000Z</time>
      </trkpt>
      <trkpt lat="49.58601" lon="3.43711">
        <ele>163</ele>
        <time>2025-10-05T08:52:31.000Z</time>
      </trkpt>
      <trkpt lat="49.586" lon="3.43711">
        <ele>163</ele>
        <time>2025-10-05T08:52:32.000Z</time>
      </trkpt>
      <trkpt lat="49.58599" lon="3.43711">
        <ele>163.2</ele>
        <time>2025-10-05T08:52:33.000Z</time>
      </trkpt>
      <trkpt lat="49.58599" lon="3.43711">
        <ele>163.3</ele>
        <time>2025-10-05T08:52:34.000Z</time>
      </trkpt>
      <trkpt lat="49.58599" lon="3.43711">
        <ele>163.5</ele>
        <time>2025-10-05T08:52:35.000Z</time>
      </trkpt>
      <trkpt lat="49.58598" lon="3.43712">
        <ele>163.5</ele>
        <time>2025-10-05T08:52:36.000Z</time>
      </trkpt>
      <trkpt lat="49.58598" lon="3.43712">
        <ele>163.6</ele>
        <time>2025-10-05T08:52:37.000Z</time>
      </trkpt>
      <trkpt lat="49.58598" lon="3.43713">
        <ele>163.6</ele>
        <time>2025-10-05T08:52:38.000Z</time>
      </trkpt>
      <trkpt lat="49.58597" lon="3.43713">
        <ele>163.7</ele>
        <time>2025-10-05T08:52:39.000Z</time>
      </trkpt>
      <trkpt lat="49.58595" lon="3.43714">
        <ele>163.8</ele>
        <time>2025-10-05T08:52:40.000Z</time>
      </trkpt>
      <trkpt lat="49.58594" lon="3.43714">
        <ele>164.1</ele>
        <time>2025-10-05T08:52:41.000Z</time>
      </trkpt>
      <trkpt lat="49.58592" lon="3.43714">
        <ele>164.3</ele>
        <time>2025-10-05T08:52:42.000Z</time>
      </trkpt>
      <trkpt lat="49.5859" lon="3.43714">
        <ele>164.6</ele>
        <time>2025-10-05T08:52:43.000Z</time>
      </trkpt>
      <trkpt lat="49.58588" lon="3.43714">
        <ele>164.4</ele>
        <time>2025-10-05T08:52:44.000Z</time>
      </trkpt>
      <trkpt lat="49.58586" lon="3.43715">
        <ele>164.1</ele>
        <time>2025-10-05T08:52:45.000Z</time>
      </trkpt>
      <trkpt lat="49.58584" lon="3.43715">
        <ele>163.8</ele>
        <time>2025-10-05T08:52:46.000Z</time>
      </trkpt>
      <trkpt lat="49.58583" lon="3.43715">
        <ele>164</ele>
        <time>2025-10-05T08:52:47.000Z</time>
      </trkpt>
      <trkpt lat="49.58582" lon="3.43715">
        <ele>164.1</ele>
        <time>2025-10-05T08:52:48.000Z</time>
      </trkpt>
      <trkpt lat="49.58581" lon="3.43714">
        <ele>164.1</ele>
        <time>2025-10-05T08:52:49.000Z</time>
      </trkpt>
      <trkpt lat="49.5858" lon="3.43714">
        <ele>164.5</ele>
        <time>2025-10-05T08:52:50.000Z</time>
      </trkpt>
      <trkpt lat="49.5858" lon="3.43715">
        <ele>164.3</ele>
        <time>2025-10-05T08:52:51.000Z</time>
      </trkpt>
      <trkpt lat="49.58579" lon="3.43715">
        <ele>164.2</ele>
        <time>2025-10-05T08:52:52.000Z</time>
      </trkpt>
      <trkpt lat="49.58579" lon="3.43715">
        <ele>164</ele>
        <time>2025-10-05T08:52:53.000Z</time>
      </trkpt>
      <trkpt lat="49.58579" lon="3.43715">
        <ele>163.6</ele>
        <time>2025-10-05T08:52:54.000Z</time>
      </trkpt>
      <trkpt lat="49.58579" lon="3.43716">
        <ele>163.4</ele>
        <time>2025-10-05T08:52:55.000Z</time>
      </trkpt>
      <trkpt lat="49.58577" lon="3.43716">
        <ele>163.4</ele>
        <time>2025-10-05T08:52:56.000Z</time>
      </trkpt>
      <trkpt lat="49.58576" lon="3.43716">
        <ele>163.4</ele>
        <time>2025-10-05T08:52:57.000Z</time>
      </trkpt>
      <trkpt lat="49.58574" lon="3.43717">
        <ele>163.2</ele>
        <time>2025-10-05T08:52:58.000Z</time>
      </trkpt>
      <trkpt lat="49.58572" lon="3.43717">
        <ele>163</ele>
        <time>2025-10-05T08:52:59.000Z</time>
      </trkpt>
      <trkpt lat="49.58571" lon="3.43717">
        <ele>163.1</ele>
        <time>2025-10-05T08:53:00.000Z</time>
      </trkpt>
      <trkpt lat="49.5857" lon="3.43717">
        <ele>163.1</ele>
        <time>2025-10-05T08:53:01.000Z</time>
      </trkpt>
      <trkpt lat="49.58569" lon="3.43717">
        <ele>163.1</ele>
        <time>2025-10-05T08:53:02.000Z</time>
      </trkpt>
      <trkpt lat="49.58568" lon="3.43718">
        <ele>163.1</ele>
        <time>2025-10-05T08:53:03.000Z</time>
      </trkpt>
      <trkpt lat="49.58567" lon="3.43719">
        <ele>163.2</ele>
        <time>2025-10-05T08:53:04.000Z</time>
      </trkpt>
      <trkpt lat="49.58566" lon="3.43719">
        <ele>163.1</ele>
        <time>2025-10-05T08:53:05.000Z</time>
      </trkpt>
      <trkpt lat="49.58565" lon="3.43719">
        <ele>162.8</ele>
        <time>2025-10-05T08:53:06.000Z</time>
      </trkpt>
      <trkpt lat="49.58564" lon="3.4372">
        <ele>162.6</ele>
        <time>2025-10-05T08:53:07.000Z</time>
      </trkpt>
      <trkpt lat="49.58564" lon="3.43721">
        <ele>162.6</ele>
        <time>2025-10-05T08:53:08.000Z</time>
      </trkpt>
      <trkpt lat="49.58563" lon="3.43721">
        <ele>162.2</ele>
        <time>2025-10-05T08:53:09.000Z</time>
      </trkpt>
      <trkpt lat="49.58563" lon="3.43722">
        <ele>162.1</ele>
        <time>2025-10-05T08:53:10.000Z</time>
      </trkpt>
      <trkpt lat="49.58562" lon="3.43724">
        <ele>161.9</ele>
        <time>2025-10-05T08:53:11.000Z</time>
      </trkpt>
      <trkpt lat="49.58561" lon="3.43726">
        <ele>161.8</ele>
        <time>2025-10-05T08:53:12.000Z</time>
      </trkpt>
      <trkpt lat="49.58561" lon="3.43728">
        <ele>161.7</ele>
        <time>2025-10-05T08:53:13.000Z</time>
      </trkpt>
      <trkpt lat="49.5856" lon="3.4373">
        <ele>161.7</ele>
        <time>2025-10-05T08:53:14.000Z</time>
      </trkpt>
      <trkpt lat="49.5856" lon="3.43731">
        <ele>161</ele>
        <time>2025-10-05T08:53:15.000Z</time>
      </trkpt>
      <trkpt lat="49.5856" lon="3.43732">
        <ele>160.9</ele>
        <time>2025-10-05T08:53:16.000Z</time>
      </trkpt>
      <trkpt lat="49.5856" lon="3.43733">
        <ele>161</ele>
        <time>2025-10-05T08:53:17.000Z</time>
      </trkpt>
      <trkpt lat="49.5856" lon="3.43734">
        <ele>160.9</ele>
        <time>2025-10-05T08:53:18.000Z</time>
      </trkpt>
      <trkpt lat="49.5856" lon="3.43735">
        <ele>160.9</ele>
        <time>2025-10-05T08:53:19.000Z</time>
      </trkpt>
      <trkpt lat="49.5856" lon="3.43737">
        <ele>160.8</ele>
        <time>2025-10-05T08:53:20.000Z</time>
      </trkpt>
      <trkpt lat="49.5856" lon="3.43738">
        <ele>160.7</ele>
        <time>2025-10-05T08:53:21.000Z</time>
      </trkpt>
      <trkpt lat="49.5856" lon="3.4374">
        <ele>160.6</ele>
        <time>2025-10-05T08:53:22.000Z</time>
      </trkpt>
      <trkpt lat="49.58559" lon="3.43743">
        <ele>160.6</ele>
        <time>2025-10-05T08:53:23.000Z</time>
      </trkpt>
      <trkpt lat="49.58559" lon="3.43745">
        <ele>160.4</ele>
        <time>2025-10-05T08:53:24.000Z</time>
      </trkpt>
      <trkpt lat="49.58559" lon="3.43747">
        <ele>160.5</ele>
        <time>2025-10-05T08:53:25.000Z</time>
      </trkpt>
      <trkpt lat="49.58558" lon="3.43749">
        <ele>160.7</ele>
        <time>2025-10-05T08:53:26.000Z</time>
      </trkpt>
      <trkpt lat="49.58558" lon="3.4375">
        <ele>160.9</ele>
        <time>2025-10-05T08:53:27.000Z</time>
      </trkpt>
      <trkpt lat="49.58558" lon="3.43752">
        <ele>161.1</ele>
        <time>2025-10-05T08:53:28.000Z</time>
      </trkpt>
      <trkpt lat="49.58558" lon="3.43753">
        <ele>161.2</ele>
        <time>2025-10-05T08:53:29.000Z</time>
      </trkpt>
      <trkpt lat="49.58558" lon="3.43754">
        <ele>161.5</ele>
        <time>2025-10-05T08:53:30.000Z</time>
      </trkpt>
      <trkpt lat="49.58558" lon="3.43755">
        <ele>161.8</ele>
        <time>2025-10-05T08:53:31.000Z</time>
      </trkpt>
      <trkpt lat="49.58557" lon="3.43757">
        <ele>161.7</ele>
        <time>2025-10-05T08:53:32.000Z</time>
      </trkpt>
      <trkpt lat="49.58557" lon="3.43759">
        <ele>161.5</ele>
        <time>2025-10-05T08:53:33.000Z</time>
      </trkpt>
      <trkpt lat="49.58556" lon="3.43761">
        <ele>161.4</ele>
        <time>2025-10-05T08:53:34.000Z</time>
      </trkpt>
      <trkpt lat="49.58556" lon="3.43762">
        <ele>161.4</ele>
        <time>2025-10-05T08:53:35.000Z</time>
      </trkpt>
      <trkpt lat="49.58556" lon="3.43763">
        <ele>161.7</ele>
        <time>2025-10-05T08:53:36.000Z</time>
      </trkpt>
      <trkpt lat="49.58556" lon="3.43763">
        <ele>162.2</ele>
        <time>2025-10-05T08:53:37.000Z</time>
      </trkpt>
      <trkpt lat="49.58556" lon="3.43764">
        <ele>162.5</ele>
        <time>2025-10-05T08:53:38.000Z</time>
      </trkpt>
      <trkpt lat="49.58556" lon="3.43765">
        <ele>162.8</ele>
        <time>2025-10-05T08:53:39.000Z</time>
      </trkpt>
      <trkpt lat="49.58555" lon="3.43767">
        <ele>162.8</ele>
        <time>2025-10-05T08:53:40.000Z</time>
      </trkpt>
      <trkpt lat="49.58555" lon="3.4377">
        <ele>162.8</ele>
        <time>2025-10-05T08:53:41.000Z</time>
      </trkpt>
      <trkpt lat="49.58555" lon="3.43771">
        <ele>162.8</ele>
        <time>2025-10-05T08:53:42.000Z</time>
      </trkpt>
      <trkpt lat="49.58554" lon="3.43773">
        <ele>163</ele>
        <time>2025-10-05T08:53:43.000Z</time>
      </trkpt>
      <trkpt lat="49.58554" lon="3.43775">
        <ele>163.2</ele>
        <time>2025-10-05T08:53:44.000Z</time>
      </trkpt>
      <trkpt lat="49.58554" lon="3.43776">
        <ele>163.6</ele>
        <time>2025-10-05T08:53:45.000Z</time>
      </trkpt>
      <trkpt lat="49.58554" lon="3.43778">
        <ele>163.6</ele>
        <time>2025-10-05T08:53:46.000Z</time>
      </trkpt>
      <trkpt lat="49.58554" lon="3.43778">
        <ele>163.8</ele>
        <time>2025-10-05T08:53:47.000Z</time>
      </trkpt>
      <trkpt lat="49.58554" lon="3.43778">
        <ele>164.3</ele>
        <time>2025-10-05T08:53:48.000Z</time>
      </trkpt>
      <trkpt lat="49.58554" lon="3.43779">
        <ele>164.3</ele>
        <time>2025-10-05T08:53:49.000Z</time>
      </trkpt>
      <trkpt lat="49.58553" lon="3.4378">
        <ele>164.3</ele>
        <time>2025-10-05T08:53:50.000Z</time>
      </trkpt>
      <trkpt lat="49.58553" lon="3.43782">
        <ele>164.4</ele>
        <time>2025-10-05T08:53:51.000Z</time>
      </trkpt>
      <trkpt lat="49.58552" lon="3.43784">
        <ele>164.3</ele>
        <time>2025-10-05T08:53:52.000Z</time>
      </trkpt>
      <trkpt lat="49.58552" lon="3.43786">
        <ele>164.5</ele>
        <time>2025-10-05T08:53:53.000Z</time>
      </trkpt>
      <trkpt lat="49.58551" lon="3.43788">
        <ele>164.6</ele>
        <time>2025-10-05T08:53:54.000Z</time>
      </trkpt>
      <trkpt lat="49.5855" lon="3.43789">
        <ele>164.7</ele>
        <time>2025-10-05T08:53:55.000Z</time>
      </trkpt>
      <trkpt lat="49.5855" lon="3.4379">
        <ele>164.7</ele>
        <time>2025-10-05T08:53:56.000Z</time>
      </trkpt>
      <trkpt lat="49.5855" lon="3.43792">
        <ele>164.7</ele>
        <time>2025-10-05T08:53:57.000Z</time>
      </trkpt>
      <trkpt lat="49.58549" lon="3.43792">
        <ele>164.7</ele>
        <time>2025-10-05T08:53:58.000Z</time>
      </trkpt>
      <trkpt lat="49.58549" lon="3.43793">
        <ele>164.9</ele>
        <time>2025-10-05T08:53:59.000Z</time>
      </trkpt>
      <trkpt lat="49.58549" lon="3.43794">
        <ele>165.2</ele>
        <time>2025-10-05T08:54:00.000Z</time>
      </trkpt>
      <trkpt lat="49.58548" lon="3.43795">
        <ele>165.4</ele>
        <time>2025-10-05T08:54:01.000Z</time>
      </trkpt>
      <trkpt lat="49.58548" lon="3.43796">
        <ele>165.3</ele>
        <time>2025-10-05T08:54:02.000Z</time>
      </trkpt>
      <trkpt lat="49.58547" lon="3.43797">
        <ele>165.3</ele>
        <time>2025-10-05T08:54:03.000Z</time>
      </trkpt>
      <trkpt lat="49.58547" lon="3.43798">
        <ele>165.4</ele>
        <time>2025-10-05T08:54:04.000Z</time>
      </trkpt>
      <trkpt lat="49.58546" lon="3.43798">
        <ele>165.5</ele>
        <time>2025-10-05T08:54:05.000Z</time>
      </trkpt>
      <trkpt lat="49.58546" lon="3.43799">
        <ele>165.8</ele>
        <time>2025-10-05T08:54:06.000Z</time>
      </trkpt>
      <trkpt lat="49.58545" lon="3.438">
        <ele>165.9</ele>
        <time>2025-10-05T08:54:07.000Z</time>
      </trkpt>
      <trkpt lat="49.58544" lon="3.43801">
        <ele>166</ele>
        <time>2025-10-05T08:54:08.000Z</time>
      </trkpt>
      <trkpt lat="49.58544" lon="3.43804">
        <ele>166</ele>
        <time>2025-10-05T08:54:09.000Z</time>
      </trkpt>
      <trkpt lat="49.58544" lon="3.43805">
        <ele>166</ele>
        <time>2025-10-05T08:54:10.000Z</time>
      </trkpt>
      <trkpt lat="49.58543" lon="3.43806">
        <ele>166.1</ele>
        <time>2025-10-05T08:54:11.000Z</time>
      </trkpt>
      <trkpt lat="49.58543" lon="3.43806">
        <ele>166.4</ele>
        <time>2025-10-05T08:54:12.000Z</time>
      </trkpt>
      <trkpt lat="49.58542" lon="3.43807">
        <ele>166.8</ele>
        <time>2025-10-05T08:54:13.000Z</time>
      </trkpt>
      <trkpt lat="49.58542" lon="3.43808">
        <ele>166.9</ele>
        <time>2025-10-05T08:54:14.000Z</time>
      </trkpt>
      <trkpt lat="49.58541" lon="3.4381">
        <ele>167.1</ele>
        <time>2025-10-05T08:54:15.000Z</time>
      </trkpt>
      <trkpt lat="49.5854" lon="3.43812">
        <ele>167.1</ele>
        <time>2025-10-05T08:54:16.000Z</time>
      </trkpt>
      <trkpt lat="49.5854" lon="3.43813">
        <ele>167.3</ele>
        <time>2025-10-05T08:54:17.000Z</time>
      </trkpt>
      <trkpt lat="49.58539" lon="3.43814">
        <ele>167.5</ele>
        <time>2025-10-05T08:54:18.000Z</time>
      </trkpt>
      <trkpt lat="49.58538" lon="3.43814">
        <ele>167.7</ele>
        <time>2025-10-05T08:54:19.000Z</time>
      </trkpt>
      <trkpt lat="49.58538" lon="3.43815">
        <ele>168</ele>
        <time>2025-10-05T08:54:20.000Z</time>
      </trkpt>
      <trkpt lat="49.58537" lon="3.43817">
        <ele>168.2</ele>
        <time>2025-10-05T08:54:21.000Z</time>
      </trkpt>
      <trkpt lat="49.58537" lon="3.43818">
        <ele>168.5</ele>
        <time>2025-10-05T08:54:22.000Z</time>
      </trkpt>
      <trkpt lat="49.58536" lon="3.4382">
        <ele>168.8</ele>
        <time>2025-10-05T08:54:23.000Z</time>
      </trkpt>
      <trkpt lat="49.58535" lon="3.43821">
        <ele>169.1</ele>
        <time>2025-10-05T08:54:24.000Z</time>
      </trkpt>
      <trkpt lat="49.58534" lon="3.43822">
        <ele>169.2</ele>
        <time>2025-10-05T08:54:25.000Z</time>
      </trkpt>
      <trkpt lat="49.58533" lon="3.43824">
        <ele>169.4</ele>
        <time>2025-10-05T08:54:26.000Z</time>
      </trkpt>
      <trkpt lat="49.58532" lon="3.43825">
        <ele>169.6</ele>
        <time>2025-10-05T08:54:27.000Z</time>
      </trkpt>
      <trkpt lat="49.58532" lon="3.43826">
        <ele>169.7</ele>
        <time>2025-10-05T08:54:28.000Z</time>
      </trkpt>
      <trkpt lat="49.58531" lon="3.43827">
        <ele>169.7</ele>
        <time>2025-10-05T08:54:29.000Z</time>
      </trkpt>
      <trkpt lat="49.58529" lon="3.43827">
        <ele>169.7</ele>
        <time>2025-10-05T08:54:30.000Z</time>
      </trkpt>
      <trkpt lat="49.58529" lon="3.43828">
        <ele>169.7</ele>
        <time>2025-10-05T08:54:31.000Z</time>
      </trkpt>
      <trkpt lat="49.58528" lon="3.43829">
        <ele>169.6</ele>
        <time>2025-10-05T08:54:32.000Z</time>
      </trkpt>
      <trkpt lat="49.58527" lon="3.4383">
        <ele>169.7</ele>
        <time>2025-10-05T08:54:33.000Z</time>
      </trkpt>
      <trkpt lat="49.58526" lon="3.43831">
        <ele>169.9</ele>
        <time>2025-10-05T08:54:34.000Z</time>
      </trkpt>
      <trkpt lat="49.58525" lon="3.43831">
        <ele>169.8</ele>
        <time>2025-10-05T08:54:35.000Z</time>
      </trkpt>
      <trkpt lat="49.58524" lon="3.43831">
        <ele>169.7</ele>
        <time>2025-10-05T08:54:36.000Z</time>
      </trkpt>
      <trkpt lat="49.58523" lon="3.43832">
        <ele>169.8</ele>
        <time>2025-10-05T08:54:37.000Z</time>
      </trkpt>
      <trkpt lat="49.58522" lon="3.43833">
        <ele>170</ele>
        <time>2025-10-05T08:54:38.000Z</time>
      </trkpt>
      <trkpt lat="49.5852" lon="3.43834">
        <ele>170.5</ele>
        <time>2025-10-05T08:54:39.000Z</time>
      </trkpt>
      <trkpt lat="49.5852" lon="3.43834">
        <ele>170.5</ele>
        <time>2025-10-05T08:54:40.000Z</time>
      </trkpt>
      <trkpt lat="49.58519" lon="3.43836">
        <ele>170.7</ele>
        <time>2025-10-05T08:54:41.000Z</time>
      </trkpt>
      <trkpt lat="49.58519" lon="3.43837">
        <ele>170.7</ele>
        <time>2025-10-05T08:54:42.000Z</time>
      </trkpt>
      <trkpt lat="49.58518" lon="3.43837">
        <ele>171</ele>
        <time>2025-10-05T08:54:43.000Z</time>
      </trkpt>
      <trkpt lat="49.58517" lon="3.43838">
        <ele>171.3</ele>
        <time>2025-10-05T08:54:44.000Z</time>
      </trkpt>
      <trkpt lat="49.58517" lon="3.43839">
        <ele>171.4</ele>
        <time>2025-10-05T08:54:45.000Z</time>
      </trkpt>
      <trkpt lat="49.58516" lon="3.4384">
        <ele>171.4</ele>
        <time>2025-10-05T08:54:46.000Z</time>
      </trkpt>
      <trkpt lat="49.58515" lon="3.43841">
        <ele>171.3</ele>
        <time>2025-10-05T08:54:47.000Z</time>
      </trkpt>
      <trkpt lat="49.58514" lon="3.43841">
        <ele>171.4</ele>
        <time>2025-10-05T08:54:48.000Z</time>
      </trkpt>
      <trkpt lat="49.58514" lon="3.43842">
        <ele>171.4</ele>
        <time>2025-10-05T08:54:49.000Z</time>
      </trkpt>
      <trkpt lat="49.58513" lon="3.43843">
        <ele>171.3</ele>
        <time>2025-10-05T08:54:50.000Z</time>
      </trkpt>
      <trkpt lat="49.58512" lon="3.43844">
        <ele>171.2</ele>
        <time>2025-10-05T08:54:51.000Z</time>
      </trkpt>
      <trkpt lat="49.58511" lon="3.43844">
        <ele>171</ele>
        <time>2025-10-05T08:54:52.000Z</time>
      </trkpt>
      <trkpt lat="49.5851" lon="3.43843">
        <ele>171</ele>
        <time>2025-10-05T08:54:53.000Z</time>
      </trkpt>
      <trkpt lat="49.58509" lon="3.43844">
        <ele>171</ele>
        <time>2025-10-05T08:54:54.000Z</time>
      </trkpt>
      <trkpt lat="49.58508" lon="3.43844">
        <ele>171</ele>
        <time>2025-10-05T08:54:55.000Z</time>
      </trkpt>
      <trkpt lat="49.58507" lon="3.43845">
        <ele>170.9</ele>
        <time>2025-10-05T08:54:56.000Z</time>
      </trkpt>
      <trkpt lat="49.58506" lon="3.43845">
        <ele>170.7</ele>
        <time>2025-10-05T08:54:57.000Z</time>
      </trkpt>
      <trkpt lat="49.58505" lon="3.43845">
        <ele>170.7</ele>
        <time>2025-10-05T08:54:58.000Z</time>
      </trkpt>
      <trkpt lat="49.58503" lon="3.43845">
        <ele>170.2</ele>
        <time>2025-10-05T08:54:59.000Z</time>
      </trkpt>
      <trkpt lat="49.58502" lon="3.43845">
        <ele>169.8</ele>
        <time>2025-10-05T08:55:00.000Z</time>
      </trkpt>
      <trkpt lat="49.585" lon="3.43845">
        <ele>169.5</ele>
        <time>2025-10-05T08:55:01.000Z</time>
      </trkpt>
      <trkpt lat="49.58499" lon="3.43844">
        <ele>169.3</ele>
        <time>2025-10-05T08:55:02.000Z</time>
      </trkpt>
      <trkpt lat="49.58498" lon="3.43844">
        <ele>169.2</ele>
        <time>2025-10-05T08:55:03.000Z</time>
      </trkpt>
      <trkpt lat="49.58497" lon="3.43843">
        <ele>169.1</ele>
        <time>2025-10-05T08:55:04.000Z</time>
      </trkpt>
      <trkpt lat="49.58497" lon="3.43842">
        <ele>169.2</ele>
        <time>2025-10-05T08:55:05.000Z</time>
      </trkpt>
      <trkpt lat="49.58497" lon="3.43842">
        <ele>169.5</ele>
        <time>2025-10-05T08:55:06.000Z</time>
      </trkpt>
      <trkpt lat="49.58496" lon="3.43841">
        <ele>169.8</ele>
        <time>2025-10-05T08:55:07.000Z</time>
      </trkpt>
      <trkpt lat="49.58495" lon="3.43841">
        <ele>169.9</ele>
        <time>2025-10-05T08:55:08.000Z</time>
      </trkpt>
      <trkpt lat="49.58494" lon="3.43841">
        <ele>170</ele>
        <time>2025-10-05T08:55:09.000Z</time>
      </trkpt>
      <trkpt lat="49.58493" lon="3.43842">
        <ele>170</ele>
        <time>2025-10-05T08:55:10.000Z</time>
      </trkpt>
      <trkpt lat="49.58491" lon="3.43842">
        <ele>170.1</ele>
        <time>2025-10-05T08:55:11.000Z</time>
      </trkpt>
      <trkpt lat="49.5849" lon="3.43841">
        <ele>169.8</ele>
        <time>2025-10-05T08:55:12.000Z</time>
      </trkpt>
      <trkpt lat="49.5849" lon="3.4384">
        <ele>169.6</ele>
        <time>2025-10-05T08:55:13.000Z</time>
      </trkpt>
      <trkpt lat="49.58489" lon="3.4384">
        <ele>169.2</ele>
        <time>2025-10-05T08:55:14.000Z</time>
      </trkpt>
      <trkpt lat="49.58488" lon="3.43839">
        <ele>168.9</ele>
        <time>2025-10-05T08:55:15.000Z</time>
      </trkpt>
      <trkpt lat="49.58486" lon="3.43838">
        <ele>168.4</ele>
        <time>2025-10-05T08:55:16.000Z</time>
      </trkpt>
      <trkpt lat="49.58485" lon="3.43838">
        <ele>167.9</ele>
        <time>2025-10-05T08:55:17.000Z</time>
      </trkpt>
      <trkpt lat="49.58484" lon="3.43837">
        <ele>167.2</ele>
        <time>2025-10-05T08:55:18.000Z</time>
      </trkpt>
      <trkpt lat="49.58484" lon="3.43836">
        <ele>166.5</ele>
        <time>2025-10-05T08:55:19.000Z</time>
      </trkpt>
      <trkpt lat="49.58484" lon="3.43836">
        <ele>166.2</ele>
        <time>2025-10-05T08:55:20.000Z</time>
      </trkpt>
      <trkpt lat="49.58483" lon="3.43835">
        <ele>165.7</ele>
        <time>2025-10-05T08:55:21.000Z</time>
      </trkpt>
      <trkpt lat="49.58483" lon="3.43835">
        <ele>165.2</ele>
        <time>2025-10-05T08:55:22.000Z</time>
      </trkpt>
      <trkpt lat="49.58482" lon="3.43834">
        <ele>164.8</ele>
        <time>2025-10-05T08:55:23.000Z</time>
      </trkpt>
      <trkpt lat="49.58482" lon="3.43834">
        <ele>164.7</ele>
        <time>2025-10-05T08:55:24.000Z</time>
      </trkpt>
      <trkpt lat="49.58482" lon="3.43834">
        <ele>164.6</ele>
        <time>2025-10-05T08:55:25.000Z</time>
      </trkpt>
      <trkpt lat="49.58481" lon="3.43834">
        <ele>164.3</ele>
        <time>2025-10-05T08:55:26.000Z</time>
      </trkpt>
      <trkpt lat="49.58481" lon="3.43834">
        <ele>164.2</ele>
        <time>2025-10-05T08:55:27.000Z</time>
      </trkpt>
      <trkpt lat="49.58481" lon="3.43834">
        <ele>164</ele>
        <time>2025-10-05T08:55:28.000Z</time>
      </trkpt>
      <trkpt lat="49.58481" lon="3.43834">
        <ele>163.8</ele>
        <time>2025-10-05T08:55:29.000Z</time>
      </trkpt>
      <trkpt lat="49.5848" lon="3.43835">
        <ele>163.7</ele>
        <time>2025-10-05T08:55:30.000Z</time>
      </trkpt>
      <trkpt lat="49.58481" lon="3.43834">
        <ele>163.7</ele>
        <time>2025-10-05T08:55:31.000Z</time>
      </trkpt>
      <trkpt lat="49.58481" lon="3.43834">
        <ele>163.7</ele>
        <time>2025-10-05T08:55:32.000Z</time>
      </trkpt>
      <trkpt lat="49.58481" lon="3.43834">
        <ele>163.7</ele>
        <time>2025-10-05T08:55:33.000Z</time>
      </trkpt>
      <trkpt lat="49.58481" lon="3.43834">
        <ele>163.7</ele>
        <time>2025-10-05T08:55:34.000Z</time>
      </trkpt>
      <trkpt lat="49.58481" lon="3.43834">
        <ele>163.7</ele>
        <time>2025-10-05T08:55:35.000Z</time>
      </trkpt>
      <trkpt lat="49.58481" lon="3.43834">
        <ele>163.7</ele>
        <time>2025-10-05T08:55:36.000Z</time>
      </trkpt>
      <trkpt lat="49.58481" lon="3.43834">
        <ele>163.7</ele>
        <time>2025-10-05T08:55:37.000Z</time>
      </trkpt>
      <trkpt lat="49.58481" lon="3.43834">
        <ele>163.7</ele>
        <time>2025-10-05T08:55:38.000Z</time>
      </trkpt>
      <trkpt lat="49.58481" lon="3.43834">
        <ele>163.7</ele>
        <time>2025-10-05T08:55:39.000Z</time>
      </trkpt>
      <trkpt lat="49.58481" lon="3.43834">
        <ele>163.7</ele>
        <time>2025-10-05T08:55:40.000Z</time>
      </trkpt>
      <trkpt lat="49.58481" lon="3.43834">
        <ele>163.7</ele>
        <time>2025-10-05T08:55:41.000Z</time>
      </trkpt>
      <trkpt lat="49.58481" lon="3.43834">
        <ele>163.7</ele>
        <time>2025-10-05T08:55:42.000Z</time>
      </trkpt>
      <trkpt lat="49.58481" lon="3.43834">
        <ele>163.7</ele>
        <time>2025-10-05T08:55:43.000Z</time>
      </trkpt>
      <trkpt lat="49.58481" lon="3.43834">
        <ele>163.7</ele>
        <time>2025-10-05T08:55:44.000Z</time>
      </trkpt>
      <trkpt lat="49.58481" lon="3.43834">
        <ele>163.7</ele>
        <time>2025-10-05T08:55:45.000Z</time>
      </trkpt>
      <trkpt lat="49.58482" lon="3.43834">
        <ele>165</ele>
        <time>2025-10-05T08:55:46.000Z</time>
      </trkpt>
      <trkpt lat="49.58482" lon="3.43835">
        <ele>164.9</ele>
        <time>2025-10-05T08:55:47.000Z</time>
      </trkpt>
      <trkpt lat="49.58482" lon="3.43834">
        <ele>164.9</ele>
        <time>2025-10-05T08:55:48.000Z</time>
      </trkpt>
      <trkpt lat="49.58482" lon="3.43834">
        <ele>165</ele>
        <time>2025-10-05T08:55:49.000Z</time>
      </trkpt>
      <trkpt lat="49.58482" lon="3.43833">
        <ele>165.2</ele>
        <time>2025-10-05T08:55:50.000Z</time>
      </trkpt>
      <trkpt lat="49.58482" lon="3.43832">
        <ele>165.3</ele>
        <time>2025-10-05T08:55:51.000Z</time>
      </trkpt>
      <trkpt lat="49.58481" lon="3.43831">
        <ele>165.4</ele>
        <time>2025-10-05T08:55:52.000Z</time>
      </trkpt>
      <trkpt lat="49.58481" lon="3.4383">
        <ele>165.5</ele>
        <time>2025-10-05T08:55:53.000Z</time>
      </trkpt>
      <trkpt lat="49.58481" lon="3.43828">
        <ele>165.6</ele>
        <time>2025-10-05T08:55:54.000Z</time>
      </trkpt>
      <trkpt lat="49.5848" lon="3.43828">
        <ele>165.7</ele>
        <time>2025-10-05T08:55:55.000Z</time>
      </trkpt>
      <trkpt lat="49.5848" lon="3.43827">
        <ele>165.5</ele>
        <time>2025-10-05T08:55:56.000Z</time>
      </trkpt>
      <trkpt lat="49.5848" lon="3.43826">
        <ele>165.7</ele>
        <time>2025-10-05T08:55:57.000Z</time>
      </trkpt>
      <trkpt lat="49.5848" lon="3.43825">
        <ele>166</ele>
        <time>2025-10-05T08:55:58.000Z</time>
      </trkpt>
      <trkpt lat="49.5848" lon="3.43824">
        <ele>166.2</ele>
        <time>2025-10-05T08:55:59.000Z</time>
      </trkpt>
      <trkpt lat="49.5848" lon="3.43822">
        <ele>166.3</ele>
        <time>2025-10-05T08:56:00.000Z</time>
      </trkpt>
      <trkpt lat="49.5848" lon="3.4382">
        <ele>166.6</ele>
        <time>2025-10-05T08:56:01.000Z</time>
      </trkpt>
      <trkpt lat="49.5848" lon="3.43819">
        <ele>166.9</ele>
        <time>2025-10-05T08:56:02.000Z</time>
      </trkpt>
      <trkpt lat="49.5848" lon="3.43818">
        <ele>167.2</ele>
        <time>2025-10-05T08:56:03.000Z</time>
      </trkpt>
      <trkpt lat="49.58479" lon="3.43817">
        <ele>167.2</ele>
        <time>2025-10-05T08:56:04.000Z</time>
      </trkpt>
      <trkpt lat="49.58479" lon="3.43816">
        <ele>167.2</ele>
        <time>2025-10-05T08:56:05.000Z</time>
      </trkpt>
      <trkpt lat="49.58479" lon="3.43815">
        <ele>167.4</ele>
        <time>2025-10-05T08:56:06.000Z</time>
      </trkpt>
      <trkpt lat="49.58478" lon="3.43815">
        <ele>167.8</ele>
        <time>2025-10-05T08:56:07.000Z</time>
      </trkpt>
      <trkpt lat="49.58477" lon="3.43814">
        <ele>168.1</ele>
        <time>2025-10-05T08:56:08.000Z</time>
      </trkpt>
      <trkpt lat="49.58476" lon="3.43813">
        <ele>168.3</ele>
        <time>2025-10-05T08:56:09.000Z</time>
      </trkpt>
      <trkpt lat="49.58475" lon="3.43812">
        <ele>168.6</ele>
        <time>2025-10-05T08:56:10.000Z</time>
      </trkpt>
      <trkpt lat="49.58474" lon="3.43812">
        <ele>168.9</ele>
        <time>2025-10-05T08:56:11.000Z</time>
      </trkpt>
      <trkpt lat="49.58474" lon="3.43811">
        <ele>168.9</ele>
        <time>2025-10-05T08:56:12.000Z</time>
      </trkpt>
      <trkpt lat="49.58475" lon="3.4381">
        <ele>169.2</ele>
        <time>2025-10-05T08:56:13.000Z</time>
      </trkpt>
      <trkpt lat="49.58475" lon="3.43809">
        <ele>169.3</ele>
        <time>2025-10-05T08:56:14.000Z</time>
      </trkpt>
      <trkpt lat="49.58475" lon="3.43809">
        <ele>169.5</ele>
        <time>2025-10-05T08:56:15.000Z</time>
      </trkpt>
      <trkpt lat="49.58475" lon="3.43808">
        <ele>169.5</ele>
        <time>2025-10-05T08:56:16.000Z</time>
      </trkpt>
      <trkpt lat="49.58475" lon="3.43807">
        <ele>169.5</ele>
        <time>2025-10-05T08:56:17.000Z</time>
      </trkpt>
      <trkpt lat="49.58475" lon="3.43805">
        <ele>169.3</ele>
        <time>2025-10-05T08:56:18.000Z</time>
      </trkpt>
      <trkpt lat="49.58475" lon="3.43804">
        <ele>169.1</ele>
        <time>2025-10-05T08:56:19.000Z</time>
      </trkpt>
      <trkpt lat="49.58474" lon="3.43803">
        <ele>169.2</ele>
        <time>2025-10-05T08:56:20.000Z</time>
      </trkpt>
      <trkpt lat="49.58473" lon="3.43802">
        <ele>169.2</ele>
        <time>2025-10-05T08:56:21.000Z</time>
      </trkpt>
      <trkpt lat="49.58472" lon="3.43801">
        <ele>169.2</ele>
        <time>2025-10-05T08:56:22.000Z</time>
      </trkpt>
      <trkpt lat="49.58471" lon="3.438">
        <ele>169.1</ele>
        <time>2025-10-05T08:56:23.000Z</time>
      </trkpt>
      <trkpt lat="49.5847" lon="3.43798">
        <ele>168.9</ele>
        <time>2025-10-05T08:56:24.000Z</time>
      </trkpt>
      <trkpt lat="49.58469" lon="3.43797">
        <ele>169.1</ele>
        <time>2025-10-05T08:56:25.000Z</time>
      </trkpt>
      <trkpt lat="49.58468" lon="3.43795">
        <ele>168.7</ele>
        <time>2025-10-05T08:56:26.000Z</time>
      </trkpt>
      <trkpt lat="49.58467" lon="3.43794">
        <ele>168.1</ele>
        <time>2025-10-05T08:56:27.000Z</time>
      </trkpt>
      <trkpt lat="49.58466" lon="3.43793">
        <ele>167.2</ele>
        <time>2025-10-05T08:56:28.000Z</time>
      </trkpt>
      <trkpt lat="49.58466" lon="3.43792">
        <ele>166.6</ele>
        <time>2025-10-05T08:56:29.000Z</time>
      </trkpt>
      <trkpt lat="49.58465" lon="3.43791">
        <ele>166.2</ele>
        <time>2025-10-05T08:56:30.000Z</time>
      </trkpt>
      <trkpt lat="49.58465" lon="3.4379">
        <ele>165.6</ele>
        <time>2025-10-05T08:56:31.000Z</time>
      </trkpt>
      <trkpt lat="49.58464" lon="3.43789">
        <ele>165</ele>
        <time>2025-10-05T08:56:32.000Z</time>
      </trkpt>
      <trkpt lat="49.58464" lon="3.43787">
        <ele>164.8</ele>
        <time>2025-10-05T08:56:33.000Z</time>
      </trkpt>
      <trkpt lat="49.58464" lon="3.43786">
        <ele>164.9</ele>
        <time>2025-10-05T08:56:34.000Z</time>
      </trkpt>
      <trkpt lat="49.58463" lon="3.43786">
        <ele>164.9</ele>
        <time>2025-10-05T08:56:35.000Z</time>
      </trkpt>
      <trkpt lat="49.58463" lon="3.43785">
        <ele>164.9</ele>
        <time>2025-10-05T08:56:36.000Z</time>
      </trkpt>
      <trkpt lat="49.58463" lon="3.43784">
        <ele>165.2</ele>
        <time>2025-10-05T08:56:37.000Z</time>
      </trkpt>
      <trkpt lat="49.58462" lon="3.43783">
        <ele>165.5</ele>
        <time>2025-10-05T08:56:38.000Z</time>
      </trkpt>
      <trkpt lat="49.58463" lon="3.43781">
        <ele>165.5</ele>
        <time>2025-10-05T08:56:39.000Z</time>
      </trkpt>
      <trkpt lat="49.58463" lon="3.4378">
        <ele>165.5</ele>
        <time>2025-10-05T08:56:40.000Z</time>
      </trkpt>
      <trkpt lat="49.58463" lon="3.43778">
        <ele>165.6</ele>
        <time>2025-10-05T08:56:41.000Z</time>
      </trkpt>
      <trkpt lat="49.58462" lon="3.43778">
        <ele>165.5</ele>
        <time>2025-10-05T08:56:42.000Z</time>
      </trkpt>
      <trkpt lat="49.58462" lon="3.43777">
        <ele>165.5</ele>
        <time>2025-10-05T08:56:43.000Z</time>
      </trkpt>
      <trkpt lat="49.58462" lon="3.43775">
        <ele>165.3</ele>
        <time>2025-10-05T08:56:44.000Z</time>
      </trkpt>
      <trkpt lat="49.58461" lon="3.43774">
        <ele>165</ele>
        <time>2025-10-05T08:56:45.000Z</time>
      </trkpt>
      <trkpt lat="49.5846" lon="3.43773">
        <ele>164.6</ele>
        <time>2025-10-05T08:56:46.000Z</time>
      </trkpt>
      <trkpt lat="49.58459" lon="3.4377">
        <ele>164.4</ele>
        <time>2025-10-05T08:56:47.000Z</time>
      </trkpt>
      <trkpt lat="49.58458" lon="3.43769">
        <ele>164.2</ele>
        <time>2025-10-05T08:56:48.000Z</time>
      </trkpt>
      <trkpt lat="49.58457" lon="3.43767">
        <ele>163.9</ele>
        <time>2025-10-05T08:56:49.000Z</time>
      </trkpt>
      <trkpt lat="49.58456" lon="3.43766">
        <ele>163.7</ele>
        <time>2025-10-05T08:56:50.000Z</time>
      </trkpt>
      <trkpt lat="49.58456" lon="3.43765">
        <ele>163.4</ele>
        <time>2025-10-05T08:56:51.000Z</time>
      </trkpt>
      <trkpt lat="49.58457" lon="3.43764">
        <ele>163.4</ele>
        <time>2025-10-05T08:56:52.000Z</time>
      </trkpt>
      <trkpt lat="49.58456" lon="3.43763">
        <ele>163.4</ele>
        <time>2025-10-05T08:56:53.000Z</time>
      </trkpt>
      <trkpt lat="49.58456" lon="3.43761">
        <ele>163.5</ele>
        <time>2025-10-05T08:56:54.000Z</time>
      </trkpt>
      <trkpt lat="49.58456" lon="3.43759">
        <ele>163.6</ele>
        <time>2025-10-05T08:56:55.000Z</time>
      </trkpt>
      <trkpt lat="49.58456" lon="3.43757">
        <ele>163.9</ele>
        <time>2025-10-05T08:56:56.000Z</time>
      </trkpt>
      <trkpt lat="49.58456" lon="3.43755">
        <ele>164</ele>
        <time>2025-10-05T08:56:57.000Z</time>
      </trkpt>
      <trkpt lat="49.58456" lon="3.43753">
        <ele>164.2</ele>
        <time>2025-10-05T08:56:58.000Z</time>
      </trkpt>
      <trkpt lat="49.58455" lon="3.43752">
        <ele>164.5</ele>
        <time>2025-10-05T08:56:59.000Z</time>
      </trkpt>
      <trkpt lat="49.58455" lon="3.43751">
        <ele>164.9</ele>
        <time>2025-10-05T08:57:00.000Z</time>
      </trkpt>
      <trkpt lat="49.58454" lon="3.4375">
        <ele>165.4</ele>
        <time>2025-10-05T08:57:01.000Z</time>
      </trkpt>
      <trkpt lat="49.58454" lon="3.43749">
        <ele>165.8</ele>
        <time>2025-10-05T08:57:02.000Z</time>
      </trkpt>
      <trkpt lat="49.58453" lon="3.43748">
        <ele>166</ele>
        <time>2025-10-05T08:57:03.000Z</time>
      </trkpt>
      <trkpt lat="49.58452" lon="3.43748">
        <ele>166.1</ele>
        <time>2025-10-05T08:57:04.000Z</time>
      </trkpt>
      <trkpt lat="49.58452" lon="3.43747">
        <ele>166</ele>
        <time>2025-10-05T08:57:05.000Z</time>
      </trkpt>
      <trkpt lat="49.58452" lon="3.43747">
        <ele>166</ele>
        <time>2025-10-05T08:57:06.000Z</time>
      </trkpt>
      <trkpt lat="49.58451" lon="3.43747">
        <ele>165.9</ele>
        <time>2025-10-05T08:57:07.000Z</time>
      </trkpt>
      <trkpt lat="49.58451" lon="3.43747">
        <ele>165.9</ele>
        <time>2025-10-05T08:57:08.000Z</time>
      </trkpt>
      <trkpt lat="49.58451" lon="3.43748">
        <ele>166.2</ele>
        <time>2025-10-05T08:57:09.000Z</time>
      </trkpt>
      <trkpt lat="49.5845" lon="3.43747">
        <ele>165.9</ele>
        <time>2025-10-05T08:57:10.000Z</time>
      </trkpt>
      <trkpt lat="49.5845" lon="3.43748">
        <ele>165.5</ele>
        <time>2025-10-05T08:57:11.000Z</time>
      </trkpt>
      <trkpt lat="49.5845" lon="3.43748">
        <ele>165.1</ele>
        <time>2025-10-05T08:57:12.000Z</time>
      </trkpt>
      <trkpt lat="49.5845" lon="3.43749">
        <ele>164.9</ele>
        <time>2025-10-05T08:57:13.000Z</time>
      </trkpt>
      <trkpt lat="49.58449" lon="3.43749">
        <ele>164.9</ele>
        <time>2025-10-05T08:57:14.000Z</time>
      </trkpt>
      <trkpt lat="49.58449" lon="3.43749">
        <ele>164.7</ele>
        <time>2025-10-05T08:57:15.000Z</time>
      </trkpt>
      <trkpt lat="49.58449" lon="3.43749">
        <ele>164.3</ele>
        <time>2025-10-05T08:57:16.000Z</time>
      </trkpt>
      <trkpt lat="49.58449" lon="3.43749">
        <ele>164.3</ele>
        <time>2025-10-05T08:57:17.000Z</time>
      </trkpt>
      <trkpt lat="49.58449" lon="3.43749">
        <ele>164.3</ele>
        <time>2025-10-05T08:57:18.000Z</time>
      </trkpt>
      <trkpt lat="49.58449" lon="3.43749">
        <ele>164.3</ele>
        <time>2025-10-05T08:57:19.000Z</time>
      </trkpt>
      <trkpt lat="49.58449" lon="3.43749">
        <ele>164.3</ele>
        <time>2025-10-05T08:57:20.000Z</time>
      </trkpt>
      <trkpt lat="49.58449" lon="3.43749">
        <ele>163.2</ele>
        <time>2025-10-05T08:57:21.000Z</time>
      </trkpt>
      <trkpt lat="49.58448" lon="3.43749">
        <ele>162.8</ele>
        <time>2025-10-05T08:57:22.000Z</time>
      </trkpt>
      <trkpt lat="49.58448" lon="3.43749">
        <ele>162.6</ele>
        <time>2025-10-05T08:57:23.000Z</time>
      </trkpt>
      <trkpt lat="49.58448" lon="3.43749">
        <ele>162.5</ele>
        <time>2025-10-05T08:57:24.000Z</time>
      </trkpt>
      <trkpt lat="49.58448" lon="3.43749">
        <ele>162.5</ele>
        <time>2025-10-05T08:57:25.000Z</time>
      </trkpt>
      <trkpt lat="49.58448" lon="3.43749">
        <ele>162.5</ele>
        <time>2025-10-05T08:57:26.000Z</time>
      </trkpt>
      <trkpt lat="49.58448" lon="3.43749">
        <ele>162.5</ele>
        <time>2025-10-05T08:57:27.000Z</time>
      </trkpt>
      <trkpt lat="49.58448" lon="3.43749">
        <ele>162.5</ele>
        <time>2025-10-05T08:57:28.000Z</time>
      </trkpt>
      <trkpt lat="49.58448" lon="3.43749">
        <ele>162.5</ele>
        <time>2025-10-05T08:57:29.000Z</time>
      </trkpt>
      <trkpt lat="49.58448" lon="3.43749">
        <ele>162.5</ele>
        <time>2025-10-05T08:57:30.000Z</time>
      </trkpt>
      <trkpt lat="49.58448" lon="3.43749">
        <ele>162.5</ele>
        <time>2025-10-05T08:57:31.000Z</time>
      </trkpt>
      <trkpt lat="49.58448" lon="3.43749">
        <ele>162.5</ele>
        <time>2025-10-05T08:57:32.000Z</time>
      </trkpt>
      <trkpt lat="49.58448" lon="3.43749">
        <ele>162.5</ele>
        <time>2025-10-05T08:57:33.000Z</time>
      </trkpt>
      <trkpt lat="49.58448" lon="3.43749">
        <ele>162.5</ele>
        <time>2025-10-05T08:57:34.000Z</time>
      </trkpt>
      <trkpt lat="49.58449" lon="3.43746">
        <ele>161.6</ele>
        <time>2025-10-05T08:57:35.000Z</time>
      </trkpt>
      <trkpt lat="49.58449" lon="3.43746">
        <ele>161.6</ele>
        <time>2025-10-05T08:57:36.000Z</time>
      </trkpt>
      <trkpt lat="49.58449" lon="3.43745">
        <ele>161.6</ele>
        <time>2025-10-05T08:57:37.000Z</time>
      </trkpt>
      <trkpt lat="49.58448" lon="3.43745">
        <ele>161.5</ele>
        <time>2025-10-05T08:57:38.000Z</time>
      </trkpt>
      <trkpt lat="49.58448" lon="3.43745">
        <ele>161.3</ele>
        <time>2025-10-05T08:57:39.000Z</time>
      </trkpt>
      <trkpt lat="49.58449" lon="3.43745">
        <ele>161.5</ele>
        <time>2025-10-05T08:57:40.000Z</time>
      </trkpt>
      <trkpt lat="49.5845" lon="3.43745">
        <ele>161.6</ele>
        <time>2025-10-05T08:57:41.000Z</time>
      </trkpt>
      <trkpt lat="49.5845" lon="3.43745">
        <ele>161.6</ele>
        <time>2025-10-05T08:57:42.000Z</time>
      </trkpt>
      <trkpt lat="49.5845" lon="3.43745">
        <ele>161.6</ele>
        <time>2025-10-05T08:57:43.000Z</time>
      </trkpt>
      <trkpt lat="49.5845" lon="3.43745">
        <ele>161.6</ele>
        <time>2025-10-05T08:57:44.000Z</time>
      </trkpt>
      <trkpt lat="49.5845" lon="3.43745">
        <ele>161.6</ele>
        <time>2025-10-05T08:57:45.000Z</time>
      </trkpt>
      <trkpt lat="49.5845" lon="3.43745">
        <ele>161.6</ele>
        <time>2025-10-05T08:57:46.000Z</time>
      </trkpt>
      <trkpt lat="49.5845" lon="3.43745">
        <ele>161.6</ele>
        <time>2025-10-05T08:57:47.000Z</time>
      </trkpt>
      <trkpt lat="49.5845" lon="3.43745">
        <ele>161.6</ele>
        <time>2025-10-05T08:57:48.000Z</time>
      </trkpt>
      <trkpt lat="49.5845" lon="3.43745">
        <ele>161.6</ele>
        <time>2025-10-05T08:57:49.000Z</time>
      </trkpt>
      <trkpt lat="49.5845" lon="3.43745">
        <ele>161.6</ele>
        <time>2025-10-05T08:57:50.000Z</time>
      </trkpt>
      <trkpt lat="49.5845" lon="3.43745">
        <ele>161.6</ele>
        <time>2025-10-05T08:57:51.000Z</time>
      </trkpt>
      <trkpt lat="49.5845" lon="3.43745">
        <ele>161.6</ele>
        <time>2025-10-05T08:57:52.000Z</time>
      </trkpt>
      <trkpt lat="49.5845" lon="3.43745">
        <ele>161.6</ele>
        <time>2025-10-05T08:57:53.000Z</time>
      </trkpt>
      <trkpt lat="49.5845" lon="3.43745">
        <ele>161.6</ele>
        <time>2025-10-05T08:57:54.000Z</time>
      </trkpt>
      <trkpt lat="49.5845" lon="3.43745">
        <ele>161.6</ele>
        <time>2025-10-05T08:57:55.000Z</time>
      </trkpt>
      <trkpt lat="49.5845" lon="3.43745">
        <ele>161.6</ele>
        <time>2025-10-05T08:57:56.000Z</time>
      </trkpt>
      <trkpt lat="49.5845" lon="3.43745">
        <ele>161.6</ele>
        <time>2025-10-05T08:57:57.000Z</time>
      </trkpt>
      <trkpt lat="49.5845" lon="3.43745">
        <ele>161.6</ele>
        <time>2025-10-05T08:57:58.000Z</time>
      </trkpt>
      <trkpt lat="49.5845" lon="3.43745">
        <ele>161.6</ele>
        <time>2025-10-05T08:57:59.000Z</time>
      </trkpt>
      <trkpt lat="49.5845" lon="3.43745">
        <ele>161.6</ele>
        <time>2025-10-05T08:58:00.000Z</time>
      </trkpt>
      <trkpt lat="49.5845" lon="3.43745">
        <ele>161.6</ele>
        <time>2025-10-05T08:58:01.000Z</time>
      </trkpt>
      <trkpt lat="49.5845" lon="3.43745">
        <ele>161.6</ele>
        <time>2025-10-05T08:58:02.000Z</time>
      </trkpt>
      <trkpt lat="49.5845" lon="3.43745">
        <ele>161.6</ele>
        <time>2025-10-05T08:58:03.000Z</time>
      </trkpt>
      <trkpt lat="49.5845" lon="3.43745">
        <ele>161.6</ele>
        <time>2025-10-05T08:58:04.000Z</time>
      </trkpt>
      <trkpt lat="49.5845" lon="3.43745">
        <ele>161.6</ele>
        <time>2025-10-05T08:58:05.000Z</time>
      </trkpt>
      <trkpt lat="49.5845" lon="3.43745">
        <ele>161.6</ele>
        <time>2025-10-05T08:58:06.000Z</time>
      </trkpt>
      <trkpt lat="49.5845" lon="3.43745">
        <ele>161.6</ele>
        <time>2025-10-05T08:58:07.000Z</time>
      </trkpt>
      <trkpt lat="49.5845" lon="3.43745">
        <ele>161.6</ele>
        <time>2025-10-05T08:58:08.000Z</time>
      </trkpt>
      <trkpt lat="49.5845" lon="3.43745">
        <ele>161.6</ele>
        <time>2025-10-05T08:58:09.000Z</time>
      </trkpt>
      <trkpt lat="49.5845" lon="3.43745">
        <ele>161.6</ele>
        <time>2025-10-05T08:58:10.000Z</time>
      </trkpt>
      <trkpt lat="49.5845" lon="3.43745">
        <ele>161.6</ele>
        <time>2025-10-05T08:58:11.000Z</time>
      </trkpt>
      <trkpt lat="49.5845" lon="3.43745">
        <ele>161.6</ele>
        <time>2025-10-05T08:58:12.000Z</time>
      </trkpt>
      <trkpt lat="49.5845" lon="3.43745">
        <ele>161.6</ele>
        <time>2025-10-05T08:58:13.000Z</time>
      </trkpt>
      <trkpt lat="49.5845" lon="3.43745">
        <ele>161.6</ele>
        <time>2025-10-05T08:58:14.000Z</time>
      </trkpt>
      <trkpt lat="49.5845" lon="3.43745">
        <ele>161.6</ele>
        <time>2025-10-05T08:58:15.000Z</time>
      </trkpt>
      <trkpt lat="49.5845" lon="3.43745">
        <ele>161.6</ele>
        <time>2025-10-05T08:58:16.000Z</time>
      </trkpt>
      <trkpt lat="49.5845" lon="3.43745">
        <ele>161.6</ele>
        <time>2025-10-05T08:58:17.000Z</time>
      </trkpt>
      <trkpt lat="49.5845" lon="3.43745">
        <ele>161.6</ele>
        <time>2025-10-05T08:58:18.000Z</time>
      </trkpt>
      <trkpt lat="49.5845" lon="3.43745">
        <ele>161.6</ele>
        <time>2025-10-05T08:58:19.000Z</time>
      </trkpt>
      <trkpt lat="49.5845" lon="3.43745">
        <ele>161.6</ele>
        <time>2025-10-05T08:58:20.000Z</time>
      </trkpt>
      <trkpt lat="49.5845" lon="3.43745">
        <ele>161.6</ele>
        <time>2025-10-05T08:58:21.000Z</time>
      </trkpt>
      <trkpt lat="49.5845" lon="3.43745">
        <ele>161.6</ele>
        <time>2025-10-05T08:58:22.000Z</time>
      </trkpt>
      <trkpt lat="49.5845" lon="3.43745">
        <ele>161.6</ele>
        <time>2025-10-05T08:58:23.000Z</time>
      </trkpt>
      <trkpt lat="49.5845" lon="3.43745">
        <ele>161.6</ele>
        <time>2025-10-05T08:58:24.000Z</time>
      </trkpt>
      <trkpt lat="49.5845" lon="3.43745">
        <ele>161.6</ele>
        <time>2025-10-05T08:58:25.000Z</time>
      </trkpt>
      <trkpt lat="49.5845" lon="3.43745">
        <ele>161.6</ele>
        <time>2025-10-05T08:58:26.000Z</time>
      </trkpt>
      <trkpt lat="49.5845" lon="3.43745">
        <ele>161.6</ele>
        <time>2025-10-05T08:58:27.000Z</time>
      </trkpt>
      <trkpt lat="49.5845" lon="3.43745">
        <ele>161.6</ele>
        <time>2025-10-05T08:58:28.000Z</time>
      </trkpt>
      <trkpt lat="49.5845" lon="3.43745">
        <ele>161.6</ele>
        <time>2025-10-05T08:58:29.000Z</time>
      </trkpt>
      <trkpt lat="49.5845" lon="3.43745">
        <ele>161.6</ele>
        <time>2025-10-05T08:58:30.000Z</time>
      </trkpt>
      <trkpt lat="49.5845" lon="3.43745">
        <ele>161.6</ele>
        <time>2025-10-05T08:58:31.000Z</time>
      </trkpt>
      <trkpt lat="49.5845" lon="3.43745">
        <ele>161.6</ele>
        <time>2025-10-05T08:58:32.000Z</time>
      </trkpt>
      <trkpt lat="49.5845" lon="3.43745">
        <ele>161.6</ele>
        <time>2025-10-05T08:58:33.000Z</time>
      </trkpt>
      <trkpt lat="49.5845" lon="3.43745">
        <ele>161.6</ele>
        <time>2025-10-05T08:58:34.000Z</time>
      </trkpt>
      <trkpt lat="49.5845" lon="3.43745">
        <ele>161.6</ele>
        <time>2025-10-05T08:58:35.000Z</time>
      </trkpt>
      <trkpt lat="49.5845" lon="3.43745">
        <ele>161.6</ele>
        <time>2025-10-05T08:58:36.000Z</time>
      </trkpt>
      <trkpt lat="49.5845" lon="3.43745">
        <ele>161.6</ele>
        <time>2025-10-05T08:58:37.000Z</time>
      </trkpt>
      <trkpt lat="49.5845" lon="3.43745">
        <ele>161.6</ele>
        <time>2025-10-05T08:58:38.000Z</time>
      </trkpt>
      <trkpt lat="49.5845" lon="3.43745">
        <ele>161.6</ele>
        <time>2025-10-05T08:58:39.000Z</time>
      </trkpt>
      <trkpt lat="49.5845" lon="3.43745">
        <ele>161.6</ele>
        <time>2025-10-05T08:58:40.000Z</time>
      </trkpt>
      <trkpt lat="49.5845" lon="3.43745">
        <ele>161.6</ele>
        <time>2025-10-05T08:58:41.000Z</time>
      </trkpt>
      <trkpt lat="49.5845" lon="3.43745">
        <ele>161.6</ele>
        <time>2025-10-05T08:58:42.000Z</time>
      </trkpt>
      <trkpt lat="49.5845" lon="3.43745">
        <ele>161.6</ele>
        <time>2025-10-05T08:58:43.000Z</time>
      </trkpt>
      <trkpt lat="49.5845" lon="3.43745">
        <ele>161.6</ele>
        <time>2025-10-05T08:58:44.000Z</time>
      </trkpt>
      <trkpt lat="49.5845" lon="3.43745">
        <ele>163.1</ele>
        <time>2025-10-05T08:58:45.000Z</time>
      </trkpt>
      <trkpt lat="49.58449" lon="3.43746">
        <ele>163.1</ele>
        <time>2025-10-05T08:58:46.000Z</time>
      </trkpt>
      <trkpt lat="49.58449" lon="3.43746">
        <ele>163.2</ele>
        <time>2025-10-05T08:58:47.000Z</time>
      </trkpt>
      <trkpt lat="49.58449" lon="3.43746">
        <ele>163.3</ele>
        <time>2025-10-05T08:58:48.000Z</time>
      </trkpt>
      <trkpt lat="49.58449" lon="3.43747">
        <ele>163.3</ele>
        <time>2025-10-05T08:58:49.000Z</time>
      </trkpt>
      <trkpt lat="49.58449" lon="3.43747">
        <ele>163.4</ele>
        <time>2025-10-05T08:58:50.000Z</time>
      </trkpt>
      <trkpt lat="49.58449" lon="3.43747">
        <ele>163.4</ele>
        <time>2025-10-05T08:58:51.000Z</time>
      </trkpt>
      <trkpt lat="49.58449" lon="3.43747">
        <ele>163.4</ele>
        <time>2025-10-05T08:58:52.000Z</time>
      </trkpt>
      <trkpt lat="49.58449" lon="3.43747">
        <ele>163.4</ele>
        <time>2025-10-05T08:58:53.000Z</time>
      </trkpt>
      <trkpt lat="49.58449" lon="3.43747">
        <ele>163.4</ele>
        <time>2025-10-05T08:58:54.000Z</time>
      </trkpt>
      <trkpt lat="49.58449" lon="3.43747">
        <ele>163.4</ele>
        <time>2025-10-05T08:58:55.000Z</time>
      </trkpt>
      <trkpt lat="49.58449" lon="3.43747">
        <ele>163.4</ele>
        <time>2025-10-05T08:58:56.000Z</time>
      </trkpt>
      <trkpt lat="49.58449" lon="3.43747">
        <ele>163.4</ele>
        <time>2025-10-05T08:58:57.000Z</time>
      </trkpt>
      <trkpt lat="49.58449" lon="3.43747">
        <ele>163.4</ele>
        <time>2025-10-05T08:58:58.000Z</time>
      </trkpt>
      <trkpt lat="49.58449" lon="3.43747">
        <ele>163.4</ele>
        <time>2025-10-05T08:58:59.000Z</time>
      </trkpt>
      <trkpt lat="49.58449" lon="3.43747">
        <ele>163.4</ele>
        <time>2025-10-05T08:59:00.000Z</time>
      </trkpt>
      <trkpt lat="49.58449" lon="3.43747">
        <ele>163.4</ele>
        <time>2025-10-05T08:59:01.000Z</time>
      </trkpt>
      <trkpt lat="49.58449" lon="3.43747">
        <ele>163.4</ele>
        <time>2025-10-05T08:59:02.000Z</time>
      </trkpt>
      <trkpt lat="49.58449" lon="3.43747">
        <ele>163.4</ele>
        <time>2025-10-05T08:59:03.000Z</time>
      </trkpt>
      <trkpt lat="49.58449" lon="3.43747">
        <ele>163.4</ele>
        <time>2025-10-05T08:59:04.000Z</time>
      </trkpt>
      <trkpt lat="49.58449" lon="3.43747">
        <ele>163.4</ele>
        <time>2025-10-05T08:59:05.000Z</time>
      </trkpt>
      <trkpt lat="49.58449" lon="3.43747">
        <ele>163.4</ele>
        <time>2025-10-05T08:59:06.000Z</time>
      </trkpt>
      <trkpt lat="49.58449" lon="3.43747">
        <ele>163.4</ele>
        <time>2025-10-05T08:59:07.000Z</time>
      </trkpt>
      <trkpt lat="49.58449" lon="3.43747">
        <ele>163.4</ele>
        <time>2025-10-05T08:59:08.000Z</time>
      </trkpt>
      <trkpt lat="49.58449" lon="3.43747">
        <ele>163.4</ele>
        <time>2025-10-05T08:59:09.000Z</time>
      </trkpt>
      <trkpt lat="49.58449" lon="3.43747">
        <ele>163.4</ele>
        <time>2025-10-05T08:59:10.000Z</time>
      </trkpt>
      <trkpt lat="49.58449" lon="3.43747">
        <ele>163.4</ele>
        <time>2025-10-05T08:59:11.000Z</time>
      </trkpt>
      <trkpt lat="49.58449" lon="3.43747">
        <ele>163.4</ele>
        <time>2025-10-05T08:59:12.000Z</time>
      </trkpt>
      <trkpt lat="49.58446" lon="3.43747">
        <ele>161</ele>
        <time>2025-10-05T08:59:13.000Z</time>
      </trkpt>
      <trkpt lat="49.58446" lon="3.43747">
        <ele>160.9</ele>
        <time>2025-10-05T08:59:14.000Z</time>
      </trkpt>
      <trkpt lat="49.58446" lon="3.43747">
        <ele>160.8</ele>
        <time>2025-10-05T08:59:15.000Z</time>
      </trkpt>
      <trkpt lat="49.58446" lon="3.43748">
        <ele>160.8</ele>
        <time>2025-10-05T08:59:16.000Z</time>
      </trkpt>
      <trkpt lat="49.58446" lon="3.43748">
        <ele>160.8</ele>
        <time>2025-10-05T08:59:17.000Z</time>
      </trkpt>
      <trkpt lat="49.58447" lon="3.43748">
        <ele>160.9</ele>
        <time>2025-10-05T08:59:18.000Z</time>
      </trkpt>
      <trkpt lat="49.58446" lon="3.43748">
        <ele>160.9</ele>
        <time>2025-10-05T08:59:19.000Z</time>
      </trkpt>
      <trkpt lat="49.58447" lon="3.43748">
        <ele>160.7</ele>
        <time>2025-10-05T08:59:20.000Z</time>
      </trkpt>
      <trkpt lat="49.58447" lon="3.43747">
        <ele>160.4</ele>
        <time>2025-10-05T08:59:21.000Z</time>
      </trkpt>
      <trkpt lat="49.58447" lon="3.43747">
        <ele>160.2</ele>
        <time>2025-10-05T08:59:22.000Z</time>
      </trkpt>
      <trkpt lat="49.58447" lon="3.43747">
        <ele>160</ele>
        <time>2025-10-05T08:59:23.000Z</time>
      </trkpt>
      <trkpt lat="49.58447" lon="3.43747">
        <ele>160</ele>
        <time>2025-10-05T08:59:24.000Z</time>
      </trkpt>
      <trkpt lat="49.58447" lon="3.43747">
        <ele>160</ele>
        <time>2025-10-05T08:59:25.000Z</time>
      </trkpt>
      <trkpt lat="49.58447" lon="3.43747">
        <ele>160</ele>
        <time>2025-10-05T08:59:26.000Z</time>
      </trkpt>
      <trkpt lat="49.58447" lon="3.43747">
        <ele>160</ele>
        <time>2025-10-05T08:59:27.000Z</time>
      </trkpt>
      <trkpt lat="49.58447" lon="3.43747">
        <ele>160</ele>
        <time>2025-10-05T08:59:28.000Z</time>
      </trkpt>
      <trkpt lat="49.58447" lon="3.43747">
        <ele>160</ele>
        <time>2025-10-05T08:59:29.000Z</time>
      </trkpt>
      <trkpt lat="49.58447" lon="3.43747">
        <ele>160</ele>
        <time>2025-10-05T08:59:30.000Z</time>
      </trkpt>
      <trkpt lat="49.58447" lon="3.43747">
        <ele>160</ele>
        <time>2025-10-05T08:59:31.000Z</time>
      </trkpt>
      <trkpt lat="49.58447" lon="3.43747">
        <ele>160</ele>
        <time>2025-10-05T08:59:32.000Z</time>
      </trkpt>
      <trkpt lat="49.58447" lon="3.43747">
        <ele>160</ele>
        <time>2025-10-05T08:59:33.000Z</time>
      </trkpt>
      <trkpt lat="49.58447" lon="3.43747">
        <ele>160</ele>
        <time>2025-10-05T08:59:34.000Z</time>
      </trkpt>
      <trkpt lat="49.58447" lon="3.43747">
        <ele>160</ele>
        <time>2025-10-05T08:59:35.000Z</time>
      </trkpt>
      <trkpt lat="49.58447" lon="3.43747">
        <ele>160</ele>
        <time>2025-10-05T08:59:36.000Z</time>
      </trkpt>
      <trkpt lat="49.58447" lon="3.43747">
        <ele>160</ele>
        <time>2025-10-05T08:59:37.000Z</time>
      </trkpt>
      <trkpt lat="49.58447" lon="3.43747">
        <ele>160</ele>
        <time>2025-10-05T08:59:38.000Z</time>
      </trkpt>
      <trkpt lat="49.58447" lon="3.43747">
        <ele>160</ele>
        <time>2025-10-05T08:59:39.000Z</time>
      </trkpt>
      <trkpt lat="49.58447" lon="3.43747">
        <ele>160</ele>
        <time>2025-10-05T08:59:40.000Z</time>
      </trkpt>
      <trkpt lat="49.58447" lon="3.43747">
        <ele>160</ele>
        <time>2025-10-05T08:59:41.000Z</time>
      </trkpt>
      <trkpt lat="49.58447" lon="3.43747">
        <ele>160</ele>
        <time>2025-10-05T08:59:42.000Z</time>
      </trkpt>
      <trkpt lat="49.58447" lon="3.43747">
        <ele>160</ele>
        <time>2025-10-05T08:59:43.000Z</time>
      </trkpt>
      <trkpt lat="49.58447" lon="3.43747">
        <ele>160</ele>
        <time>2025-10-05T08:59:44.000Z</time>
      </trkpt>
      <trkpt lat="49.58447" lon="3.43747">
        <ele>160</ele>
        <time>2025-10-05T08:59:45.000Z</time>
      </trkpt>
      <trkpt lat="49.58447" lon="3.43747">
        <ele>160</ele>
        <time>2025-10-05T08:59:46.000Z</time>
      </trkpt>
      <trkpt lat="49.58447" lon="3.43747">
        <ele>160</ele>
        <time>2025-10-05T08:59:47.000Z</time>
      </trkpt>
      <trkpt lat="49.58447" lon="3.43747">
        <ele>160</ele>
        <time>2025-10-05T08:59:48.000Z</time>
      </trkpt>
      <trkpt lat="49.58447" lon="3.43747">
        <ele>160</ele>
        <time>2025-10-05T08:59:49.000Z</time>
      </trkpt>
      <trkpt lat="49.58447" lon="3.43747">
        <ele>160</ele>
        <time>2025-10-05T08:59:50.000Z</time>
      </trkpt>
      <trkpt lat="49.58447" lon="3.43747">
        <ele>160</ele>
        <time>2025-10-05T08:59:51.000Z</time>
      </trkpt>
      <trkpt lat="49.58447" lon="3.43747">
        <ele>160</ele>
        <time>2025-10-05T08:59:52.000Z</time>
      </trkpt>
      <trkpt lat="49.58447" lon="3.43747">
        <ele>160</ele>
        <time>2025-10-05T08:59:53.000Z</time>
      </trkpt>
      <trkpt lat="49.58447" lon="3.43747">
        <ele>160</ele>
        <time>2025-10-05T08:59:54.000Z</time>
      </trkpt>
      <trkpt lat="49.58447" lon="3.43747">
        <ele>160</ele>
        <time>2025-10-05T08:59:55.000Z</time>
      </trkpt>
      <trkpt lat="49.58447" lon="3.43747">
        <ele>160</ele>
        <time>2025-10-05T08:59:56.000Z</time>
      </trkpt>
      <trkpt lat="49.58447" lon="3.43747">
        <ele>160</ele>
        <time>2025-10-05T08:59:57.000Z</time>
      </trkpt>
      <trkpt lat="49.58447" lon="3.43747">
        <ele>160</ele>
        <time>2025-10-05T08:59:58.000Z</time>
      </trkpt>
      <trkpt lat="49.58447" lon="3.43747">
        <ele>160</ele>
        <time>2025-10-05T08:59:59.000Z</time>
      </trkpt>
      <trkpt lat="49.58447" lon="3.43747">
        <ele>160</ele>
        <time>2025-10-05T09:00:00.000Z</time>
      </trkpt>
      <trkpt lat="49.58447" lon="3.43747">
        <ele>160</ele>
        <time>2025-10-05T09:00:01.000Z</time>
      </trkpt>
      <trkpt lat="49.58447" lon="3.43747">
        <ele>160</ele>
        <time>2025-10-05T09:00:02.000Z</time>
      </trkpt>
      <trkpt lat="49.58447" lon="3.43747">
        <ele>160</ele>
        <time>2025-10-05T09:00:03.000Z</time>
      </trkpt>
      <trkpt lat="49.58447" lon="3.43747">
        <ele>160</ele>
        <time>2025-10-05T09:00:04.000Z</time>
      </trkpt>
      <trkpt lat="49.58447" lon="3.43747">
        <ele>157.7</ele>
        <time>2025-10-05T09:00:05.000Z</time>
      </trkpt>
      <trkpt lat="49.58447" lon="3.43748">
        <ele>157.5</ele>
        <time>2025-10-05T09:00:06.000Z</time>
      </trkpt>
      <trkpt lat="49.58447" lon="3.43747">
        <ele>157.6</ele>
        <time>2025-10-05T09:00:07.000Z</time>
      </trkpt>
      <trkpt lat="49.58448" lon="3.43747">
        <ele>157.8</ele>
        <time>2025-10-05T09:00:08.000Z</time>
      </trkpt>
      <trkpt lat="49.58448" lon="3.43747">
        <ele>157.9</ele>
        <time>2025-10-05T09:00:09.000Z</time>
      </trkpt>
      <trkpt lat="49.58448" lon="3.43747">
        <ele>157.9</ele>
        <time>2025-10-05T09:00:10.000Z</time>
      </trkpt>
      <trkpt lat="49.58448" lon="3.43747">
        <ele>157.9</ele>
        <time>2025-10-05T09:00:11.000Z</time>
      </trkpt>
      <trkpt lat="49.58448" lon="3.43747">
        <ele>157.9</ele>
        <time>2025-10-05T09:00:12.000Z</time>
      </trkpt>
      <trkpt lat="49.58448" lon="3.43747">
        <ele>157.9</ele>
        <time>2025-10-05T09:00:13.000Z</time>
      </trkpt>
      <trkpt lat="49.58448" lon="3.43747">
        <ele>157.9</ele>
        <time>2025-10-05T09:00:14.000Z</time>
      </trkpt>
      <trkpt lat="49.58448" lon="3.43747">
        <ele>157.9</ele>
        <time>2025-10-05T09:00:15.000Z</time>
      </trkpt>
      <trkpt lat="49.58448" lon="3.43747">
        <ele>157.9</ele>
        <time>2025-10-05T09:00:16.000Z</time>
      </trkpt>
      <trkpt lat="49.58448" lon="3.43747">
        <ele>157.9</ele>
        <time>2025-10-05T09:00:17.000Z</time>
      </trkpt>
      <trkpt lat="49.58448" lon="3.43747">
        <ele>157.9</ele>
        <time>2025-10-05T09:00:18.000Z</time>
      </trkpt>
      <trkpt lat="49.58448" lon="3.43747">
        <ele>157.9</ele>
        <time>2025-10-05T09:00:19.000Z</time>
      </trkpt>
      <trkpt lat="49.58448" lon="3.43747">
        <ele>157.9</ele>
        <time>2025-10-05T09:00:20.000Z</time>
      </trkpt>
      <trkpt lat="49.58448" lon="3.43747">
        <ele>157.9</ele>
        <time>2025-10-05T09:00:21.000Z</time>
      </trkpt>
      <trkpt lat="49.58448" lon="3.43747">
        <ele>157.9</ele>
        <time>2025-10-05T09:00:22.000Z</time>
      </trkpt>
      <trkpt lat="49.58448" lon="3.43747">
        <ele>157.9</ele>
        <time>2025-10-05T09:00:23.000Z</time>
      </trkpt>
      <trkpt lat="49.58448" lon="3.43747">
        <ele>157.9</ele>
        <time>2025-10-05T09:00:24.000Z</time>
      </trkpt>
      <trkpt lat="49.58448" lon="3.43747">
        <ele>157.9</ele>
        <time>2025-10-05T09:00:25.000Z</time>
      </trkpt>
      <trkpt lat="49.58448" lon="3.43747">
        <ele>157.9</ele>
        <time>2025-10-05T09:00:26.000Z</time>
      </trkpt>
      <trkpt lat="49.58448" lon="3.43747">
        <ele>157.9</ele>
        <time>2025-10-05T09:00:27.000Z</time>
      </trkpt>
      <trkpt lat="49.58448" lon="3.43747">
        <ele>157.9</ele>
        <time>2025-10-05T09:00:28.000Z</time>
      </trkpt>
      <trkpt lat="49.58448" lon="3.43747">
        <ele>157.9</ele>
        <time>2025-10-05T09:00:29.000Z</time>
      </trkpt>
      <trkpt lat="49.58448" lon="3.43747">
        <ele>157.9</ele>
        <time>2025-10-05T09:00:30.000Z</time>
      </trkpt>
      <trkpt lat="49.58448" lon="3.43747">
        <ele>157.9</ele>
        <time>2025-10-05T09:00:31.000Z</time>
      </trkpt>
      <trkpt lat="49.58448" lon="3.43747">
        <ele>157.9</ele>
        <time>2025-10-05T09:00:32.000Z</time>
      </trkpt>
      <trkpt lat="49.58448" lon="3.43747">
        <ele>157.9</ele>
        <time>2025-10-05T09:00:33.000Z</time>
      </trkpt>
      <trkpt lat="49.58448" lon="3.43747">
        <ele>157.9</ele>
        <time>2025-10-05T09:00:34.000Z</time>
      </trkpt>
      <trkpt lat="49.58448" lon="3.43747">
        <ele>157.9</ele>
        <time>2025-10-05T09:00:35.000Z</time>
      </trkpt>
      <trkpt lat="49.58448" lon="3.43747">
        <ele>157.9</ele>
        <time>2025-10-05T09:00:36.000Z</time>
      </trkpt>
      <trkpt lat="49.58448" lon="3.43747">
        <ele>157.9</ele>
        <time>2025-10-05T09:00:37.000Z</time>
      </trkpt>
      <trkpt lat="49.58448" lon="3.43747">
        <ele>157.9</ele>
        <time>2025-10-05T09:00:38.000Z</time>
      </trkpt>
      <trkpt lat="49.58448" lon="3.4375">
        <ele>160.1</ele>
        <time>2025-10-05T09:00:39.000Z</time>
      </trkpt>
      <trkpt lat="49.58448" lon="3.43751">
        <ele>160.2</ele>
        <time>2025-10-05T09:00:40.000Z</time>
      </trkpt>
      <trkpt lat="49.58448" lon="3.43751">
        <ele>160.3</ele>
        <time>2025-10-05T09:00:41.000Z</time>
      </trkpt>
      <trkpt lat="49.58449" lon="3.43751">
        <ele>160.3</ele>
        <time>2025-10-05T09:00:42.000Z</time>
      </trkpt>
      <trkpt lat="49.58449" lon="3.43751">
        <ele>160.4</ele>
        <time>2025-10-05T09:00:43.000Z</time>
      </trkpt>
      <trkpt lat="49.58449" lon="3.43751">
        <ele>160.4</ele>
        <time>2025-10-05T09:00:44.000Z</time>
      </trkpt>
      <trkpt lat="49.58449" lon="3.43752">
        <ele>160.6</ele>
        <time>2025-10-05T09:00:45.000Z</time>
      </trkpt>
      <trkpt lat="49.58449" lon="3.43753">
        <ele>160.7</ele>
        <time>2025-10-05T09:00:46.000Z</time>
      </trkpt>
      <trkpt lat="49.5845" lon="3.43753">
        <ele>160.8</ele>
        <time>2025-10-05T09:00:47.000Z</time>
      </trkpt>
      <trkpt lat="49.5845" lon="3.43754">
        <ele>160.7</ele>
        <time>2025-10-05T09:00:48.000Z</time>
      </trkpt>
      <trkpt lat="49.58451" lon="3.43754">
        <ele>160.8</ele>
        <time>2025-10-05T09:00:49.000Z</time>
      </trkpt>
      <trkpt lat="49.58451" lon="3.43755">
        <ele>160.9</ele>
        <time>2025-10-05T09:00:50.000Z</time>
      </trkpt>
      <trkpt lat="49.58452" lon="3.43756">
        <ele>160.9</ele>
        <time>2025-10-05T09:00:51.000Z</time>
      </trkpt>
      <trkpt lat="49.58453" lon="3.43757">
        <ele>160.9</ele>
        <time>2025-10-05T09:00:52.000Z</time>
      </trkpt>
      <trkpt lat="49.58453" lon="3.43758">
        <ele>160.9</ele>
        <time>2025-10-05T09:00:53.000Z</time>
      </trkpt>
      <trkpt lat="49.58454" lon="3.43759">
        <ele>160.9</ele>
        <time>2025-10-05T09:00:54.000Z</time>
      </trkpt>
      <trkpt lat="49.58454" lon="3.4376">
        <ele>161.1</ele>
        <time>2025-10-05T09:00:55.000Z</time>
      </trkpt>
      <trkpt lat="49.58454" lon="3.43762">
        <ele>161.3</ele>
        <time>2025-10-05T09:00:56.000Z</time>
      </trkpt>
      <trkpt lat="49.58455" lon="3.43763">
        <ele>161.3</ele>
        <time>2025-10-05T09:00:57.000Z</time>
      </trkpt>
      <trkpt lat="49.58456" lon="3.43765">
        <ele>161.3</ele>
        <time>2025-10-05T09:00:58.000Z</time>
      </trkpt>
      <trkpt lat="49.58456" lon="3.43766">
        <ele>161.3</ele>
        <time>2025-10-05T09:00:59.000Z</time>
      </trkpt>
      <trkpt lat="49.58457" lon="3.43767">
        <ele>161.5</ele>
        <time>2025-10-05T09:01:00.000Z</time>
      </trkpt>
      <trkpt lat="49.58457" lon="3.43767">
        <ele>161.7</ele>
        <time>2025-10-05T09:01:01.000Z</time>
      </trkpt>
      <trkpt lat="49.58458" lon="3.43768">
        <ele>161.7</ele>
        <time>2025-10-05T09:01:02.000Z</time>
      </trkpt>
      <trkpt lat="49.58458" lon="3.4377">
        <ele>161.7</ele>
        <time>2025-10-05T09:01:03.000Z</time>
      </trkpt>
      <trkpt lat="49.58459" lon="3.43772">
        <ele>161.8</ele>
        <time>2025-10-05T09:01:04.000Z</time>
      </trkpt>
      <trkpt lat="49.5846" lon="3.43774">
        <ele>162</ele>
        <time>2025-10-05T09:01:05.000Z</time>
      </trkpt>
      <trkpt lat="49.58461" lon="3.43776">
        <ele>162.3</ele>
        <time>2025-10-05T09:01:06.000Z</time>
      </trkpt>
      <trkpt lat="49.58462" lon="3.43778">
        <ele>162.7</ele>
        <time>2025-10-05T09:01:07.000Z</time>
      </trkpt>
      <trkpt lat="49.58462" lon="3.4378">
        <ele>163.2</ele>
        <time>2025-10-05T09:01:08.000Z</time>
      </trkpt>
      <trkpt lat="49.58463" lon="3.43781">
        <ele>163.7</ele>
        <time>2025-10-05T09:01:09.000Z</time>
      </trkpt>
      <trkpt lat="49.58463" lon="3.43781">
        <ele>163.9</ele>
        <time>2025-10-05T09:01:10.000Z</time>
      </trkpt>
      <trkpt lat="49.58464" lon="3.43782">
        <ele>164.1</ele>
        <time>2025-10-05T09:01:11.000Z</time>
      </trkpt>
      <trkpt lat="49.58464" lon="3.43783">
        <ele>164.6</ele>
        <time>2025-10-05T09:01:12.000Z</time>
      </trkpt>
      <trkpt lat="49.58465" lon="3.43784">
        <ele>165</ele>
        <time>2025-10-05T09:01:13.000Z</time>
      </trkpt>
      <trkpt lat="49.58465" lon="3.43785">
        <ele>165.1</ele>
        <time>2025-10-05T09:01:14.000Z</time>
      </trkpt>
      <trkpt lat="49.58466" lon="3.43787">
        <ele>165.3</ele>
        <time>2025-10-05T09:01:15.000Z</time>
      </trkpt>
      <trkpt lat="49.58466" lon="3.43789">
        <ele>165.3</ele>
        <time>2025-10-05T09:01:16.000Z</time>
      </trkpt>
      <trkpt lat="49.58467" lon="3.43791">
        <ele>165.2</ele>
        <time>2025-10-05T09:01:17.000Z</time>
      </trkpt>
      <trkpt lat="49.58468" lon="3.43793">
        <ele>165.1</ele>
        <time>2025-10-05T09:01:18.000Z</time>
      </trkpt>
      <trkpt lat="49.58468" lon="3.43794">
        <ele>165.2</ele>
        <time>2025-10-05T09:01:19.000Z</time>
      </trkpt>
      <trkpt lat="49.58468" lon="3.43796">
        <ele>165</ele>
        <time>2025-10-05T09:01:20.000Z</time>
      </trkpt>
      <trkpt lat="49.58468" lon="3.43797">
        <ele>165</ele>
        <time>2025-10-05T09:01:21.000Z</time>
      </trkpt>
      <trkpt lat="49.58469" lon="3.438">
        <ele>164.9</ele>
        <time>2025-10-05T09:01:22.000Z</time>
      </trkpt>
      <trkpt lat="49.58469" lon="3.43802">
        <ele>165</ele>
        <time>2025-10-05T09:01:23.000Z</time>
      </trkpt>
      <trkpt lat="49.58469" lon="3.43803">
        <ele>164.9</ele>
        <time>2025-10-05T09:01:24.000Z</time>
      </trkpt>
      <trkpt lat="49.5847" lon="3.43804">
        <ele>164.8</ele>
        <time>2025-10-05T09:01:25.000Z</time>
      </trkpt>
      <trkpt lat="49.5847" lon="3.43805">
        <ele>164.7</ele>
        <time>2025-10-05T09:01:26.000Z</time>
      </trkpt>
      <trkpt lat="49.58471" lon="3.43806">
        <ele>164.8</ele>
        <time>2025-10-05T09:01:27.000Z</time>
      </trkpt>
      <trkpt lat="49.58471" lon="3.43807">
        <ele>164.5</ele>
        <time>2025-10-05T09:01:28.000Z</time>
      </trkpt>
      <trkpt lat="49.58471" lon="3.43808">
        <ele>164.3</ele>
        <time>2025-10-05T09:01:29.000Z</time>
      </trkpt>
      <trkpt lat="49.58471" lon="3.4381">
        <ele>164</ele>
        <time>2025-10-05T09:01:30.000Z</time>
      </trkpt>
      <trkpt lat="49.58471" lon="3.43811">
        <ele>163.8</ele>
        <time>2025-10-05T09:01:31.000Z</time>
      </trkpt>
      <trkpt lat="49.58472" lon="3.43812">
        <ele>163.9</ele>
        <time>2025-10-05T09:01:32.000Z</time>
      </trkpt>
      <trkpt lat="49.58472" lon="3.43814">
        <ele>164.1</ele>
        <time>2025-10-05T09:01:33.000Z</time>
      </trkpt>
      <trkpt lat="49.58472" lon="3.43817">
        <ele>164.1</ele>
        <time>2025-10-05T09:01:34.000Z</time>
      </trkpt>
      <trkpt lat="49.58472" lon="3.43819">
        <ele>164.1</ele>
        <time>2025-10-05T09:01:35.000Z</time>
      </trkpt>
      <trkpt lat="49.58473" lon="3.4382">
        <ele>164</ele>
        <time>2025-10-05T09:01:36.000Z</time>
      </trkpt>
      <trkpt lat="49.58473" lon="3.43821">
        <ele>163.9</ele>
        <time>2025-10-05T09:01:37.000Z</time>
      </trkpt>
      <trkpt lat="49.58473" lon="3.43822">
        <ele>163.8</ele>
        <time>2025-10-05T09:01:38.000Z</time>
      </trkpt>
      <trkpt lat="49.58473" lon="3.43823">
        <ele>163.6</ele>
        <time>2025-10-05T09:01:39.000Z</time>
      </trkpt>
      <trkpt lat="49.58474" lon="3.43824">
        <ele>163.4</ele>
        <time>2025-10-05T09:01:40.000Z</time>
      </trkpt>
      <trkpt lat="49.58474" lon="3.43825">
        <ele>163.1</ele>
        <time>2025-10-05T09:01:41.000Z</time>
      </trkpt>
      <trkpt lat="49.58474" lon="3.43826">
        <ele>162.7</ele>
        <time>2025-10-05T09:01:42.000Z</time>
      </trkpt>
      <trkpt lat="49.58474" lon="3.43828">
        <ele>162.3</ele>
        <time>2025-10-05T09:01:43.000Z</time>
      </trkpt>
      <trkpt lat="49.58475" lon="3.4383">
        <ele>162</ele>
        <time>2025-10-05T09:01:44.000Z</time>
      </trkpt>
      <trkpt lat="49.58475" lon="3.43831">
        <ele>161.8</ele>
        <time>2025-10-05T09:01:45.000Z</time>
      </trkpt>
      <trkpt lat="49.58476" lon="3.43832">
        <ele>161.7</ele>
        <time>2025-10-05T09:01:46.000Z</time>
      </trkpt>
      <trkpt lat="49.58476" lon="3.43834">
        <ele>161.5</ele>
        <time>2025-10-05T09:01:47.000Z</time>
      </trkpt>
      <trkpt lat="49.58477" lon="3.43836">
        <ele>161.3</ele>
        <time>2025-10-05T09:01:48.000Z</time>
      </trkpt>
      <trkpt lat="49.58477" lon="3.43836">
        <ele>161.2</ele>
        <time>2025-10-05T09:01:49.000Z</time>
      </trkpt>
      <trkpt lat="49.58477" lon="3.43836">
        <ele>161.1</ele>
        <time>2025-10-05T09:01:50.000Z</time>
      </trkpt>
      <trkpt lat="49.58478" lon="3.43837">
        <ele>161.2</ele>
        <time>2025-10-05T09:01:51.000Z</time>
      </trkpt>
      <trkpt lat="49.58478" lon="3.43838">
        <ele>161.1</ele>
        <time>2025-10-05T09:01:52.000Z</time>
      </trkpt>
      <trkpt lat="49.58479" lon="3.43839">
        <ele>160.9</ele>
        <time>2025-10-05T09:01:53.000Z</time>
      </trkpt>
      <trkpt lat="49.5848" lon="3.43839">
        <ele>160.9</ele>
        <time>2025-10-05T09:01:54.000Z</time>
      </trkpt>
      <trkpt lat="49.58481" lon="3.4384">
        <ele>161</ele>
        <time>2025-10-05T09:01:55.000Z</time>
      </trkpt>
      <trkpt lat="49.58482" lon="3.43841">
        <ele>161</ele>
        <time>2025-10-05T09:01:56.000Z</time>
      </trkpt>
      <trkpt lat="49.58482" lon="3.43842">
        <ele>160.9</ele>
        <time>2025-10-05T09:01:57.000Z</time>
      </trkpt>
      <trkpt lat="49.58482" lon="3.43844">
        <ele>160.6</ele>
        <time>2025-10-05T09:01:58.000Z</time>
      </trkpt>
      <trkpt lat="49.58482" lon="3.43845">
        <ele>160.6</ele>
        <time>2025-10-05T09:01:59.000Z</time>
      </trkpt>
      <trkpt lat="49.58482" lon="3.43847">
        <ele>160.7</ele>
        <time>2025-10-05T09:02:00.000Z</time>
      </trkpt>
      <trkpt lat="49.58482" lon="3.43849">
        <ele>160.7</ele>
        <time>2025-10-05T09:02:01.000Z</time>
      </trkpt>
      <trkpt lat="49.58482" lon="3.43851">
        <ele>160.6</ele>
        <time>2025-10-05T09:02:02.000Z</time>
      </trkpt>
      <trkpt lat="49.58481" lon="3.43853">
        <ele>160.6</ele>
        <time>2025-10-05T09:02:03.000Z</time>
      </trkpt>
      <trkpt lat="49.58481" lon="3.43854">
        <ele>160.5</ele>
        <time>2025-10-05T09:02:04.000Z</time>
      </trkpt>
      <trkpt lat="49.58481" lon="3.43856">
        <ele>160.5</ele>
        <time>2025-10-05T09:02:05.000Z</time>
      </trkpt>
      <trkpt lat="49.58481" lon="3.43857">
        <ele>160.7</ele>
        <time>2025-10-05T09:02:06.000Z</time>
      </trkpt>
      <trkpt lat="49.58481" lon="3.43858">
        <ele>161</ele>
        <time>2025-10-05T09:02:07.000Z</time>
      </trkpt>
      <trkpt lat="49.58481" lon="3.43859">
        <ele>161</ele>
        <time>2025-10-05T09:02:08.000Z</time>
      </trkpt>
      <trkpt lat="49.58481" lon="3.43859">
        <ele>161.1</ele>
        <time>2025-10-05T09:02:09.000Z</time>
      </trkpt>
      <trkpt lat="49.58481" lon="3.43859">
        <ele>160.9</ele>
        <time>2025-10-05T09:02:10.000Z</time>
      </trkpt>
      <trkpt lat="49.58481" lon="3.43859">
        <ele>160.8</ele>
        <time>2025-10-05T09:02:11.000Z</time>
      </trkpt>
      <trkpt lat="49.58481" lon="3.4386">
        <ele>160.8</ele>
        <time>2025-10-05T09:02:12.000Z</time>
      </trkpt>
      <trkpt lat="49.58482" lon="3.43861">
        <ele>160.7</ele>
        <time>2025-10-05T09:02:13.000Z</time>
      </trkpt>
      <trkpt lat="49.58483" lon="3.43862">
        <ele>160.6</ele>
        <time>2025-10-05T09:02:14.000Z</time>
      </trkpt>
      <trkpt lat="49.58483" lon="3.43863">
        <ele>160.7</ele>
        <time>2025-10-05T09:02:15.000Z</time>
      </trkpt>
      <trkpt lat="49.58483" lon="3.43864">
        <ele>160.9</ele>
        <time>2025-10-05T09:02:16.000Z</time>
      </trkpt>
      <trkpt lat="49.58484" lon="3.43866">
        <ele>161.1</ele>
        <time>2025-10-05T09:02:17.000Z</time>
      </trkpt>
      <trkpt lat="49.58484" lon="3.43867">
        <ele>161.1</ele>
        <time>2025-10-05T09:02:18.000Z</time>
      </trkpt>
      <trkpt lat="49.58485" lon="3.43868">
        <ele>161.3</ele>
        <time>2025-10-05T09:02:19.000Z</time>
      </trkpt>
      <trkpt lat="49.58485" lon="3.43869">
        <ele>161.4</ele>
        <time>2025-10-05T09:02:20.000Z</time>
      </trkpt>
      <trkpt lat="49.58486" lon="3.4387">
        <ele>161.6</ele>
        <time>2025-10-05T09:02:21.000Z</time>
      </trkpt>
      <trkpt lat="49.58487" lon="3.43872">
        <ele>162</ele>
        <time>2025-10-05T09:02:22.000Z</time>
      </trkpt>
      <trkpt lat="49.58487" lon="3.43873">
        <ele>162.4</ele>
        <time>2025-10-05T09:02:23.000Z</time>
      </trkpt>
      <trkpt lat="49.58488" lon="3.43875">
        <ele>162.8</ele>
        <time>2025-10-05T09:02:24.000Z</time>
      </trkpt>
      <trkpt lat="49.58488" lon="3.43877">
        <ele>163</ele>
        <time>2025-10-05T09:02:25.000Z</time>
      </trkpt>
      <trkpt lat="49.58488" lon="3.43879">
        <ele>163</ele>
        <time>2025-10-05T09:02:26.000Z</time>
      </trkpt>
      <trkpt lat="49.58489" lon="3.4388">
        <ele>162.7</ele>
        <time>2025-10-05T09:02:27.000Z</time>
      </trkpt>
      <trkpt lat="49.58489" lon="3.43882">
        <ele>162.7</ele>
        <time>2025-10-05T09:02:28.000Z</time>
      </trkpt>
      <trkpt lat="49.5849" lon="3.43883">
        <ele>163.5</ele>
        <time>2025-10-05T09:02:29.000Z</time>
      </trkpt>
      <trkpt lat="49.5849" lon="3.43884">
        <ele>163.6</ele>
        <time>2025-10-05T09:02:30.000Z</time>
      </trkpt>
      <trkpt lat="49.58491" lon="3.43885">
        <ele>164</ele>
        <time>2025-10-05T09:02:31.000Z</time>
      </trkpt>
      <trkpt lat="49.58492" lon="3.43886">
        <ele>164.4</ele>
        <time>2025-10-05T09:02:32.000Z</time>
      </trkpt>
      <trkpt lat="49.58493" lon="3.43887">
        <ele>164.9</ele>
        <time>2025-10-05T09:02:33.000Z</time>
      </trkpt>
      <trkpt lat="49.58494" lon="3.43889">
        <ele>165.5</ele>
        <time>2025-10-05T09:02:34.000Z</time>
      </trkpt>
      <trkpt lat="49.58495" lon="3.4389">
        <ele>166.1</ele>
        <time>2025-10-05T09:02:35.000Z</time>
      </trkpt>
      <trkpt lat="49.58495" lon="3.43891">
        <ele>166.9</ele>
        <time>2025-10-05T09:02:36.000Z</time>
      </trkpt>
      <trkpt lat="49.58495" lon="3.43893">
        <ele>167.3</ele>
        <time>2025-10-05T09:02:37.000Z</time>
      </trkpt>
      <trkpt lat="49.58496" lon="3.43894">
        <ele>168</ele>
        <time>2025-10-05T09:02:38.000Z</time>
      </trkpt>
      <trkpt lat="49.58496" lon="3.43895">
        <ele>168.5</ele>
        <time>2025-10-05T09:02:39.000Z</time>
      </trkpt>
      <trkpt lat="49.58496" lon="3.43897">
        <ele>168.9</ele>
        <time>2025-10-05T09:02:40.000Z</time>
      </trkpt>
      <trkpt lat="49.58496" lon="3.43898">
        <ele>169.1</ele>
        <time>2025-10-05T09:02:41.000Z</time>
      </trkpt>
      <trkpt lat="49.58496" lon="3.43899">
        <ele>169.4</ele>
        <time>2025-10-05T09:02:42.000Z</time>
      </trkpt>
      <trkpt lat="49.58496" lon="3.439">
        <ele>169.7</ele>
        <time>2025-10-05T09:02:43.000Z</time>
      </trkpt>
      <trkpt lat="49.58497" lon="3.43901">
        <ele>170.1</ele>
        <time>2025-10-05T09:02:44.000Z</time>
      </trkpt>
      <trkpt lat="49.58498" lon="3.43902">
        <ele>170.4</ele>
        <time>2025-10-05T09:02:45.000Z</time>
      </trkpt>
      <trkpt lat="49.58498" lon="3.43903">
        <ele>170.8</ele>
        <time>2025-10-05T09:02:46.000Z</time>
      </trkpt>
      <trkpt lat="49.58499" lon="3.43905">
        <ele>171.3</ele>
        <time>2025-10-05T09:02:47.000Z</time>
      </trkpt>
      <trkpt lat="49.585" lon="3.43906">
        <ele>172</ele>
        <time>2025-10-05T09:02:48.000Z</time>
      </trkpt>
      <trkpt lat="49.585" lon="3.43908">
        <ele>172.3</ele>
        <time>2025-10-05T09:02:49.000Z</time>
      </trkpt>
      <trkpt lat="49.58501" lon="3.43909">
        <ele>172.7</ele>
        <time>2025-10-05T09:02:50.000Z</time>
      </trkpt>
      <trkpt lat="49.58501" lon="3.43909">
        <ele>172.9</ele>
        <time>2025-10-05T09:02:51.000Z</time>
      </trkpt>
      <trkpt lat="49.58501" lon="3.4391">
        <ele>172.9</ele>
        <time>2025-10-05T09:02:52.000Z</time>
      </trkpt>
      <trkpt lat="49.58502" lon="3.43911">
        <ele>172.8</ele>
        <time>2025-10-05T09:02:53.000Z</time>
      </trkpt>
      <trkpt lat="49.58503" lon="3.43912">
        <ele>172.9</ele>
        <time>2025-10-05T09:02:54.000Z</time>
      </trkpt>
      <trkpt lat="49.58502" lon="3.43914">
        <ele>172.4</ele>
        <time>2025-10-05T09:02:55.000Z</time>
      </trkpt>
      <trkpt lat="49.58503" lon="3.43914">
        <ele>172.2</ele>
        <time>2025-10-05T09:02:56.000Z</time>
      </trkpt>
      <trkpt lat="49.58503" lon="3.43915">
        <ele>171.9</ele>
        <time>2025-10-05T09:02:57.000Z</time>
      </trkpt>
      <trkpt lat="49.58502" lon="3.43916">
        <ele>171.6</ele>
        <time>2025-10-05T09:02:58.000Z</time>
      </trkpt>
      <trkpt lat="49.58502" lon="3.43917">
        <ele>171.7</ele>
        <time>2025-10-05T09:02:59.000Z</time>
      </trkpt>
      <trkpt lat="49.58502" lon="3.43919">
        <ele>171.8</ele>
        <time>2025-10-05T09:03:00.000Z</time>
      </trkpt>
      <trkpt lat="49.58503" lon="3.4392">
        <ele>171.8</ele>
        <time>2025-10-05T09:03:01.000Z</time>
      </trkpt>
      <trkpt lat="49.58504" lon="3.43921">
        <ele>172</ele>
        <time>2025-10-05T09:03:02.000Z</time>
      </trkpt>
      <trkpt lat="49.58505" lon="3.43921">
        <ele>172.2</ele>
        <time>2025-10-05T09:03:03.000Z</time>
      </trkpt>
      <trkpt lat="49.58506" lon="3.43923">
        <ele>172.6</ele>
        <time>2025-10-05T09:03:04.000Z</time>
      </trkpt>
      <trkpt lat="49.58507" lon="3.43924">
        <ele>172.9</ele>
        <time>2025-10-05T09:03:05.000Z</time>
      </trkpt>
      <trkpt lat="49.58508" lon="3.43925">
        <ele>173.1</ele>
        <time>2025-10-05T09:03:06.000Z</time>
      </trkpt>
      <trkpt lat="49.58509" lon="3.43926">
        <ele>173.5</ele>
        <time>2025-10-05T09:03:07.000Z</time>
      </trkpt>
      <trkpt lat="49.5851" lon="3.43928">
        <ele>173.8</ele>
        <time>2025-10-05T09:03:08.000Z</time>
      </trkpt>
      <trkpt lat="49.5851" lon="3.4393">
        <ele>174.2</ele>
        <time>2025-10-05T09:03:09.000Z</time>
      </trkpt>
      <trkpt lat="49.5851" lon="3.43932">
        <ele>174.6</ele>
        <time>2025-10-05T09:03:10.000Z</time>
      </trkpt>
      <trkpt lat="49.5851" lon="3.43933">
        <ele>174.8</ele>
        <time>2025-10-05T09:03:11.000Z</time>
      </trkpt>
      <trkpt lat="49.5851" lon="3.43934">
        <ele>175</ele>
        <time>2025-10-05T09:03:12.000Z</time>
      </trkpt>
      <trkpt lat="49.5851" lon="3.43935">
        <ele>175.2</ele>
        <time>2025-10-05T09:03:13.000Z</time>
      </trkpt>
      <trkpt lat="49.58511" lon="3.43936">
        <ele>175.5</ele>
        <time>2025-10-05T09:03:14.000Z</time>
      </trkpt>
      <trkpt lat="49.58511" lon="3.43937">
        <ele>175.6</ele>
        <time>2025-10-05T09:03:15.000Z</time>
      </trkpt>
      <trkpt lat="49.58511" lon="3.43937">
        <ele>175.8</ele>
        <time>2025-10-05T09:03:16.000Z</time>
      </trkpt>
      <trkpt lat="49.58511" lon="3.43939">
        <ele>175.8</ele>
        <time>2025-10-05T09:03:17.000Z</time>
      </trkpt>
      <trkpt lat="49.58511" lon="3.4394">
        <ele>175.8</ele>
        <time>2025-10-05T09:03:18.000Z</time>
      </trkpt>
      <trkpt lat="49.58512" lon="3.43941">
        <ele>176</ele>
        <time>2025-10-05T09:03:19.000Z</time>
      </trkpt>
      <trkpt lat="49.58512" lon="3.43941">
        <ele>176.3</ele>
        <time>2025-10-05T09:03:20.000Z</time>
      </trkpt>
      <trkpt lat="49.58512" lon="3.43942">
        <ele>176.5</ele>
        <time>2025-10-05T09:03:21.000Z</time>
      </trkpt>
      <trkpt lat="49.58512" lon="3.43943">
        <ele>176.5</ele>
        <time>2025-10-05T09:03:22.000Z</time>
      </trkpt>
      <trkpt lat="49.58512" lon="3.43944">
        <ele>176.6</ele>
        <time>2025-10-05T09:03:23.000Z</time>
      </trkpt>
      <trkpt lat="49.58513" lon="3.43945">
        <ele>176.8</ele>
        <time>2025-10-05T09:03:24.000Z</time>
      </trkpt>
      <trkpt lat="49.58514" lon="3.43946">
        <ele>176.9</ele>
        <time>2025-10-05T09:03:25.000Z</time>
      </trkpt>
      <trkpt lat="49.58514" lon="3.43947">
        <ele>177.1</ele>
        <time>2025-10-05T09:03:26.000Z</time>
      </trkpt>
      <trkpt lat="49.58515" lon="3.43949">
        <ele>177.2</ele>
        <time>2025-10-05T09:03:27.000Z</time>
      </trkpt>
      <trkpt lat="49.58515" lon="3.4395">
        <ele>177.5</ele>
        <time>2025-10-05T09:03:28.000Z</time>
      </trkpt>
      <trkpt lat="49.58516" lon="3.43951">
        <ele>177.7</ele>
        <time>2025-10-05T09:03:29.000Z</time>
      </trkpt>
      <trkpt lat="49.58516" lon="3.43951">
        <ele>178.1</ele>
        <time>2025-10-05T09:03:30.000Z</time>
      </trkpt>
      <trkpt lat="49.58517" lon="3.43952">
        <ele>178.6</ele>
        <time>2025-10-05T09:03:31.000Z</time>
      </trkpt>
      <trkpt lat="49.58517" lon="3.43953">
        <ele>179.2</ele>
        <time>2025-10-05T09:03:32.000Z</time>
      </trkpt>
      <trkpt lat="49.58517" lon="3.43954">
        <ele>179.6</ele>
        <time>2025-10-05T09:03:33.000Z</time>
      </trkpt>
      <trkpt lat="49.58517" lon="3.43955">
        <ele>180.2</ele>
        <time>2025-10-05T09:03:34.000Z</time>
      </trkpt>
      <trkpt lat="49.58518" lon="3.43956">
        <ele>180.6</ele>
        <time>2025-10-05T09:03:35.000Z</time>
      </trkpt>
      <trkpt lat="49.58518" lon="3.43957">
        <ele>181</ele>
        <time>2025-10-05T09:03:36.000Z</time>
      </trkpt>
      <trkpt lat="49.58519" lon="3.43958">
        <ele>181.5</ele>
        <time>2025-10-05T09:03:37.000Z</time>
      </trkpt>
      <trkpt lat="49.5852" lon="3.43959">
        <ele>181.8</ele>
        <time>2025-10-05T09:03:38.000Z</time>
      </trkpt>
      <trkpt lat="49.5852" lon="3.4396">
        <ele>182.2</ele>
        <time>2025-10-05T09:03:39.000Z</time>
      </trkpt>
      <trkpt lat="49.58521" lon="3.43961">
        <ele>182.7</ele>
        <time>2025-10-05T09:03:40.000Z</time>
      </trkpt>
      <trkpt lat="49.58521" lon="3.43962">
        <ele>182.9</ele>
        <time>2025-10-05T09:03:41.000Z</time>
      </trkpt>
      <trkpt lat="49.58521" lon="3.43964">
        <ele>183</ele>
        <time>2025-10-05T09:03:42.000Z</time>
      </trkpt>
      <trkpt lat="49.58522" lon="3.43966">
        <ele>183.1</ele>
        <time>2025-10-05T09:03:43.000Z</time>
      </trkpt>
      <trkpt lat="49.58523" lon="3.43968">
        <ele>183.2</ele>
        <time>2025-10-05T09:03:44.000Z</time>
      </trkpt>
      <trkpt lat="49.58524" lon="3.43969">
        <ele>183.3</ele>
        <time>2025-10-05T09:03:45.000Z</time>
      </trkpt>
      <trkpt lat="49.58524" lon="3.43971">
        <ele>183.3</ele>
        <time>2025-10-05T09:03:46.000Z</time>
      </trkpt>
      <trkpt lat="49.58525" lon="3.43973">
        <ele>183.4</ele>
        <time>2025-10-05T09:03:47.000Z</time>
      </trkpt>
      <trkpt lat="49.58525" lon="3.43974">
        <ele>183.6</ele>
        <time>2025-10-05T09:03:48.000Z</time>
      </trkpt>
      <trkpt lat="49.58526" lon="3.43976">
        <ele>183.8</ele>
        <time>2025-10-05T09:03:49.000Z</time>
      </trkpt>
      <trkpt lat="49.58526" lon="3.43978">
        <ele>183.8</ele>
        <time>2025-10-05T09:03:50.000Z</time>
      </trkpt>
      <trkpt lat="49.58526" lon="3.4398">
        <ele>183.9</ele>
        <time>2025-10-05T09:03:51.000Z</time>
      </trkpt>
      <trkpt lat="49.58527" lon="3.43981">
        <ele>183.9</ele>
        <time>2025-10-05T09:03:52.000Z</time>
      </trkpt>
      <trkpt lat="49.58527" lon="3.43982">
        <ele>184.1</ele>
        <time>2025-10-05T09:03:53.000Z</time>
      </trkpt>
      <trkpt lat="49.58527" lon="3.43984">
        <ele>184</ele>
        <time>2025-10-05T09:03:54.000Z</time>
      </trkpt>
      <trkpt lat="49.58527" lon="3.43985">
        <ele>183.9</ele>
        <time>2025-10-05T09:03:55.000Z</time>
      </trkpt>
      <trkpt lat="49.58527" lon="3.43986">
        <ele>184</ele>
        <time>2025-10-05T09:03:56.000Z</time>
      </trkpt>
      <trkpt lat="49.58528" lon="3.43988">
        <ele>184</ele>
        <time>2025-10-05T09:03:57.000Z</time>
      </trkpt>
      <trkpt lat="49.58528" lon="3.43989">
        <ele>184.2</ele>
        <time>2025-10-05T09:03:58.000Z</time>
      </trkpt>
      <trkpt lat="49.58528" lon="3.43991">
        <ele>184.2</ele>
        <time>2025-10-05T09:03:59.000Z</time>
      </trkpt>
      <trkpt lat="49.58528" lon="3.43993">
        <ele>184.4</ele>
        <time>2025-10-05T09:04:00.000Z</time>
      </trkpt>
      <trkpt lat="49.58529" lon="3.43994">
        <ele>184.5</ele>
        <time>2025-10-05T09:04:01.000Z</time>
      </trkpt>
      <trkpt lat="49.5853" lon="3.43995">
        <ele>184.5</ele>
        <time>2025-10-05T09:04:02.000Z</time>
      </trkpt>
      <trkpt lat="49.5853" lon="3.43996">
        <ele>184.8</ele>
        <time>2025-10-05T09:04:03.000Z</time>
      </trkpt>
      <trkpt lat="49.58531" lon="3.43997">
        <ele>185.2</ele>
        <time>2025-10-05T09:04:04.000Z</time>
      </trkpt>
      <trkpt lat="49.58531" lon="3.43999">
        <ele>185.7</ele>
        <time>2025-10-05T09:04:05.000Z</time>
      </trkpt>
      <trkpt lat="49.58531" lon="3.44">
        <ele>186</ele>
        <time>2025-10-05T09:04:06.000Z</time>
      </trkpt>
      <trkpt lat="49.58531" lon="3.44001">
        <ele>186</ele>
        <time>2025-10-05T09:04:07.000Z</time>
      </trkpt>
      <trkpt lat="49.58532" lon="3.44002">
        <ele>186</ele>
        <time>2025-10-05T09:04:08.000Z</time>
      </trkpt>
      <trkpt lat="49.58533" lon="3.44004">
        <ele>185.9</ele>
        <time>2025-10-05T09:04:09.000Z</time>
      </trkpt>
      <trkpt lat="49.58533" lon="3.44005">
        <ele>185.7</ele>
        <time>2025-10-05T09:04:10.000Z</time>
      </trkpt>
      <trkpt lat="49.58533" lon="3.44006">
        <ele>185.4</ele>
        <time>2025-10-05T09:04:11.000Z</time>
      </trkpt>
      <trkpt lat="49.58534" lon="3.44008">
        <ele>185.3</ele>
        <time>2025-10-05T09:04:12.000Z</time>
      </trkpt>
      <trkpt lat="49.58535" lon="3.4401">
        <ele>185.4</ele>
        <time>2025-10-05T09:04:13.000Z</time>
      </trkpt>
      <trkpt lat="49.58536" lon="3.44011">
        <ele>185.4</ele>
        <time>2025-10-05T09:04:14.000Z</time>
      </trkpt>
      <trkpt lat="49.58536" lon="3.44013">
        <ele>185.3</ele>
        <time>2025-10-05T09:04:15.000Z</time>
      </trkpt>
      <trkpt lat="49.58536" lon="3.44014">
        <ele>185.2</ele>
        <time>2025-10-05T09:04:16.000Z</time>
      </trkpt>
      <trkpt lat="49.58535" lon="3.44016">
        <ele>185.2</ele>
        <time>2025-10-05T09:04:17.000Z</time>
      </trkpt>
      <trkpt lat="49.58536" lon="3.44017">
        <ele>185.3</ele>
        <time>2025-10-05T09:04:18.000Z</time>
      </trkpt>
      <trkpt lat="49.58536" lon="3.44019">
        <ele>185.6</ele>
        <time>2025-10-05T09:04:19.000Z</time>
      </trkpt>
      <trkpt lat="49.58536" lon="3.44021">
        <ele>185.7</ele>
        <time>2025-10-05T09:04:20.000Z</time>
      </trkpt>
      <trkpt lat="49.58537" lon="3.44022">
        <ele>185.7</ele>
        <time>2025-10-05T09:04:21.000Z</time>
      </trkpt>
      <trkpt lat="49.58537" lon="3.44023">
        <ele>185.7</ele>
        <time>2025-10-05T09:04:22.000Z</time>
      </trkpt>
      <trkpt lat="49.58537" lon="3.44024">
        <ele>185.9</ele>
        <time>2025-10-05T09:04:23.000Z</time>
      </trkpt>
      <trkpt lat="49.58537" lon="3.44026">
        <ele>186.1</ele>
        <time>2025-10-05T09:04:24.000Z</time>
      </trkpt>
      <trkpt lat="49.58538" lon="3.44027">
        <ele>186.4</ele>
        <time>2025-10-05T09:04:25.000Z</time>
      </trkpt>
      <trkpt lat="49.58538" lon="3.44028">
        <ele>186.4</ele>
        <time>2025-10-05T09:04:26.000Z</time>
      </trkpt>
      <trkpt lat="49.58538" lon="3.4403">
        <ele>186.6</ele>
        <time>2025-10-05T09:04:27.000Z</time>
      </trkpt>
      <trkpt lat="49.58539" lon="3.44032">
        <ele>186.7</ele>
        <time>2025-10-05T09:04:28.000Z</time>
      </trkpt>
      <trkpt lat="49.58539" lon="3.44034">
        <ele>186.6</ele>
        <time>2025-10-05T09:04:29.000Z</time>
      </trkpt>
      <trkpt lat="49.58539" lon="3.44036">
        <ele>186.4</ele>
        <time>2025-10-05T09:04:30.000Z</time>
      </trkpt>
      <trkpt lat="49.5854" lon="3.44037">
        <ele>186.7</ele>
        <time>2025-10-05T09:04:31.000Z</time>
      </trkpt>
      <trkpt lat="49.58541" lon="3.44038">
        <ele>187.3</ele>
        <time>2025-10-05T09:04:32.000Z</time>
      </trkpt>
      <trkpt lat="49.58542" lon="3.44038">
        <ele>187.6</ele>
        <time>2025-10-05T09:04:33.000Z</time>
      </trkpt>
      <trkpt lat="49.58542" lon="3.44039">
        <ele>188</ele>
        <time>2025-10-05T09:04:34.000Z</time>
      </trkpt>
      <trkpt lat="49.58542" lon="3.44041">
        <ele>188.2</ele>
        <time>2025-10-05T09:04:35.000Z</time>
      </trkpt>
      <trkpt lat="49.58542" lon="3.44042">
        <ele>188.7</ele>
        <time>2025-10-05T09:04:36.000Z</time>
      </trkpt>
      <trkpt lat="49.58542" lon="3.44044">
        <ele>188.7</ele>
        <time>2025-10-05T09:04:37.000Z</time>
      </trkpt>
      <trkpt lat="49.58542" lon="3.44046">
        <ele>188.9</ele>
        <time>2025-10-05T09:04:38.000Z</time>
      </trkpt>
      <trkpt lat="49.58542" lon="3.44046">
        <ele>189.2</ele>
        <time>2025-10-05T09:04:39.000Z</time>
      </trkpt>
      <trkpt lat="49.58543" lon="3.44047">
        <ele>189.4</ele>
        <time>2025-10-05T09:04:40.000Z</time>
      </trkpt>
      <trkpt lat="49.58543" lon="3.44049">
        <ele>189.7</ele>
        <time>2025-10-05T09:04:41.000Z</time>
      </trkpt>
      <trkpt lat="49.58544" lon="3.4405">
        <ele>189.7</ele>
        <time>2025-10-05T09:04:42.000Z</time>
      </trkpt>
      <trkpt lat="49.58545" lon="3.44052">
        <ele>190.1</ele>
        <time>2025-10-05T09:04:43.000Z</time>
      </trkpt>
      <trkpt lat="49.58546" lon="3.44054">
        <ele>190.5</ele>
        <time>2025-10-05T09:04:44.000Z</time>
      </trkpt>
      <trkpt lat="49.58546" lon="3.44055">
        <ele>191.1</ele>
        <time>2025-10-05T09:04:45.000Z</time>
      </trkpt>
      <trkpt lat="49.58546" lon="3.44056">
        <ele>191.6</ele>
        <time>2025-10-05T09:04:46.000Z</time>
      </trkpt>
      <trkpt lat="49.58547" lon="3.44057">
        <ele>191.6</ele>
        <time>2025-10-05T09:04:47.000Z</time>
      </trkpt>
      <trkpt lat="49.58547" lon="3.44058">
        <ele>191.5</ele>
        <time>2025-10-05T09:04:48.000Z</time>
      </trkpt>
      <trkpt lat="49.58547" lon="3.44059">
        <ele>191.7</ele>
        <time>2025-10-05T09:04:49.000Z</time>
      </trkpt>
      <trkpt lat="49.58547" lon="3.44061">
        <ele>192.2</ele>
        <time>2025-10-05T09:04:50.000Z</time>
      </trkpt>
      <trkpt lat="49.58548" lon="3.44063">
        <ele>192.7</ele>
        <time>2025-10-05T09:04:51.000Z</time>
      </trkpt>
      <trkpt lat="49.58548" lon="3.44064">
        <ele>193.4</ele>
        <time>2025-10-05T09:04:52.000Z</time>
      </trkpt>
      <trkpt lat="49.58549" lon="3.44066">
        <ele>194.1</ele>
        <time>2025-10-05T09:04:53.000Z</time>
      </trkpt>
      <trkpt lat="49.58548" lon="3.44066">
        <ele>194.1</ele>
        <time>2025-10-05T09:04:54.000Z</time>
      </trkpt>
      <trkpt lat="49.58549" lon="3.44066">
        <ele>194.4</ele>
        <time>2025-10-05T09:04:55.000Z</time>
      </trkpt>
      <trkpt lat="49.58549" lon="3.44066">
        <ele>194.6</ele>
        <time>2025-10-05T09:04:56.000Z</time>
      </trkpt>
      <trkpt lat="49.58549" lon="3.44066">
        <ele>194.6</ele>
        <time>2025-10-05T09:04:57.000Z</time>
      </trkpt>
      <trkpt lat="49.58549" lon="3.44066">
        <ele>194.8</ele>
        <time>2025-10-05T09:04:58.000Z</time>
      </trkpt>
      <trkpt lat="49.5855" lon="3.44067">
        <ele>194.9</ele>
        <time>2025-10-05T09:04:59.000Z</time>
      </trkpt>
      <trkpt lat="49.58549" lon="3.44068">
        <ele>195.2</ele>
        <time>2025-10-05T09:05:00.000Z</time>
      </trkpt>
      <trkpt lat="49.58549" lon="3.44069">
        <ele>195.3</ele>
        <time>2025-10-05T09:05:01.000Z</time>
      </trkpt>
      <trkpt lat="49.58548" lon="3.4407">
        <ele>195.5</ele>
        <time>2025-10-05T09:05:02.000Z</time>
      </trkpt>
      <trkpt lat="49.58548" lon="3.4407">
        <ele>195.5</ele>
        <time>2025-10-05T09:05:03.000Z</time>
      </trkpt>
      <trkpt lat="49.58548" lon="3.4407">
        <ele>195.5</ele>
        <time>2025-10-05T09:05:04.000Z</time>
      </trkpt>
      <trkpt lat="49.58548" lon="3.4407">
        <ele>195.5</ele>
        <time>2025-10-05T09:05:05.000Z</time>
      </trkpt>
      <trkpt lat="49.58548" lon="3.4407">
        <ele>195.5</ele>
        <time>2025-10-05T09:05:06.000Z</time>
      </trkpt>
      <trkpt lat="49.58548" lon="3.4407">
        <ele>195.5</ele>
        <time>2025-10-05T09:05:07.000Z</time>
      </trkpt>
      <trkpt lat="49.58548" lon="3.4407">
        <ele>195.5</ele>
        <time>2025-10-05T09:05:08.000Z</time>
      </trkpt>
      <trkpt lat="49.58548" lon="3.4407">
        <ele>195.5</ele>
        <time>2025-10-05T09:05:09.000Z</time>
      </trkpt>
      <trkpt lat="49.58548" lon="3.4407">
        <ele>195.5</ele>
        <time>2025-10-05T09:05:10.000Z</time>
      </trkpt>
      <trkpt lat="49.58548" lon="3.4407">
        <ele>195.5</ele>
        <time>2025-10-05T09:05:11.000Z</time>
      </trkpt>
      <trkpt lat="49.58548" lon="3.4407">
        <ele>195.5</ele>
        <time>2025-10-05T09:05:12.000Z</time>
      </trkpt>
      <trkpt lat="49.58548" lon="3.4407">
        <ele>195.5</ele>
        <time>2025-10-05T09:05:13.000Z</time>
      </trkpt>
      <trkpt lat="49.58548" lon="3.4407">
        <ele>195.5</ele>
        <time>2025-10-05T09:05:14.000Z</time>
      </trkpt>
      <trkpt lat="49.5855" lon="3.44074">
        <ele>197.7</ele>
        <time>2025-10-05T09:05:15.000Z</time>
      </trkpt>
      <trkpt lat="49.58551" lon="3.44074">
        <ele>197.8</ele>
        <time>2025-10-05T09:05:16.000Z</time>
      </trkpt>
      <trkpt lat="49.58551" lon="3.44074">
        <ele>197.9</ele>
        <time>2025-10-05T09:05:17.000Z</time>
      </trkpt>
      <trkpt lat="49.58552" lon="3.44074">
        <ele>198</ele>
        <time>2025-10-05T09:05:18.000Z</time>
      </trkpt>
      <trkpt lat="49.58552" lon="3.44074">
        <ele>197.9</ele>
        <time>2025-10-05T09:05:19.000Z</time>
      </trkpt>
      <trkpt lat="49.58553" lon="3.44074">
        <ele>197.8</ele>
        <time>2025-10-05T09:05:20.000Z</time>
      </trkpt>
      <trkpt lat="49.58554" lon="3.44075">
        <ele>197.9</ele>
        <time>2025-10-05T09:05:21.000Z</time>
      </trkpt>
      <trkpt lat="49.58554" lon="3.44076">
        <ele>197.8</ele>
        <time>2025-10-05T09:05:22.000Z</time>
      </trkpt>
      <trkpt lat="49.58554" lon="3.44076">
        <ele>197.7</ele>
        <time>2025-10-05T09:05:23.000Z</time>
      </trkpt>
      <trkpt lat="49.58554" lon="3.44077">
        <ele>197.7</ele>
        <time>2025-10-05T09:05:24.000Z</time>
      </trkpt>
      <trkpt lat="49.58555" lon="3.44077">
        <ele>197.7</ele>
        <time>2025-10-05T09:05:25.000Z</time>
      </trkpt>
      <trkpt lat="49.58555" lon="3.44077">
        <ele>197.6</ele>
        <time>2025-10-05T09:05:26.000Z</time>
      </trkpt>
      <trkpt lat="49.58555" lon="3.44077">
        <ele>197.5</ele>
        <time>2025-10-05T09:05:27.000Z</time>
      </trkpt>
      <trkpt lat="49.58556" lon="3.44077">
        <ele>197.3</ele>
        <time>2025-10-05T09:05:28.000Z</time>
      </trkpt>
      <trkpt lat="49.58555" lon="3.44077">
        <ele>197.1</ele>
        <time>2025-10-05T09:05:29.000Z</time>
      </trkpt>
      <trkpt lat="49.58555" lon="3.44077">
        <ele>197</ele>
        <time>2025-10-05T09:05:30.000Z</time>
      </trkpt>
      <trkpt lat="49.58555" lon="3.44077">
        <ele>196.8</ele>
        <time>2025-10-05T09:05:31.000Z</time>
      </trkpt>
      <trkpt lat="49.58555" lon="3.44077">
        <ele>196.6</ele>
        <time>2025-10-05T09:05:32.000Z</time>
      </trkpt>
      <trkpt lat="49.58555" lon="3.44077">
        <ele>196.6</ele>
        <time>2025-10-05T09:05:33.000Z</time>
      </trkpt>
      <trkpt lat="49.58555" lon="3.44077">
        <ele>196.4</ele>
        <time>2025-10-05T09:05:34.000Z</time>
      </trkpt>
      <trkpt lat="49.58555" lon="3.44077">
        <ele>196.4</ele>
        <time>2025-10-05T09:05:35.000Z</time>
      </trkpt>
      <trkpt lat="49.58555" lon="3.44077">
        <ele>196.4</ele>
        <time>2025-10-05T09:05:36.000Z</time>
      </trkpt>
      <trkpt lat="49.58555" lon="3.44077">
        <ele>196.4</ele>
        <time>2025-10-05T09:05:37.000Z</time>
      </trkpt>
      <trkpt lat="49.58555" lon="3.44077">
        <ele>196.4</ele>
        <time>2025-10-05T09:05:38.000Z</time>
      </trkpt>
      <trkpt lat="49.58555" lon="3.44077">
        <ele>196.4</ele>
        <time>2025-10-05T09:05:39.000Z</time>
      </trkpt>
      <trkpt lat="49.58555" lon="3.44077">
        <ele>196.4</ele>
        <time>2025-10-05T09:05:40.000Z</time>
      </trkpt>
      <trkpt lat="49.58555" lon="3.44078">
        <ele>196.4</ele>
        <time>2025-10-05T09:05:41.000Z</time>
      </trkpt>
      <trkpt lat="49.58555" lon="3.44079">
        <ele>196.4</ele>
        <time>2025-10-05T09:05:42.000Z</time>
      </trkpt>
      <trkpt lat="49.58554" lon="3.4408">
        <ele>196.3</ele>
        <time>2025-10-05T09:05:43.000Z</time>
      </trkpt>
      <trkpt lat="49.58555" lon="3.44082">
        <ele>196.2</ele>
        <time>2025-10-05T09:05:44.000Z</time>
      </trkpt>
      <trkpt lat="49.58555" lon="3.44083">
        <ele>196.3</ele>
        <time>2025-10-05T09:05:45.000Z</time>
      </trkpt>
      <trkpt lat="49.58555" lon="3.44085">
        <ele>196.3</ele>
        <time>2025-10-05T09:05:46.000Z</time>
      </trkpt>
      <trkpt lat="49.58555" lon="3.44087">
        <ele>196.3</ele>
        <time>2025-10-05T09:05:47.000Z</time>
      </trkpt>
      <trkpt lat="49.58556" lon="3.4409">
        <ele>196.2</ele>
        <time>2025-10-05T09:05:48.000Z</time>
      </trkpt>
      <trkpt lat="49.58557" lon="3.44092">
        <ele>196.2</ele>
        <time>2025-10-05T09:05:49.000Z</time>
      </trkpt>
      <trkpt lat="49.58557" lon="3.44093">
        <ele>196.1</ele>
        <time>2025-10-05T09:05:50.000Z</time>
      </trkpt>
      <trkpt lat="49.58558" lon="3.44094">
        <ele>196.1</ele>
        <time>2025-10-05T09:05:51.000Z</time>
      </trkpt>
      <trkpt lat="49.58557" lon="3.44095">
        <ele>196</ele>
        <time>2025-10-05T09:05:52.000Z</time>
      </trkpt>
      <trkpt lat="49.58558" lon="3.44097">
        <ele>195.9</ele>
        <time>2025-10-05T09:05:53.000Z</time>
      </trkpt>
      <trkpt lat="49.58558" lon="3.44098">
        <ele>196</ele>
        <time>2025-10-05T09:05:54.000Z</time>
      </trkpt>
      <trkpt lat="49.58558" lon="3.44099">
        <ele>196.1</ele>
        <time>2025-10-05T09:05:55.000Z</time>
      </trkpt>
      <trkpt lat="49.58558" lon="3.44101">
        <ele>196.3</ele>
        <time>2025-10-05T09:05:56.000Z</time>
      </trkpt>
      <trkpt lat="49.58558" lon="3.44101">
        <ele>196.4</ele>
        <time>2025-10-05T09:05:57.000Z</time>
      </trkpt>
      <trkpt lat="49.58558" lon="3.44102">
        <ele>196.6</ele>
        <time>2025-10-05T09:05:58.000Z</time>
      </trkpt>
      <trkpt lat="49.58558" lon="3.44103">
        <ele>196.5</ele>
        <time>2025-10-05T09:05:59.000Z</time>
      </trkpt>
      <trkpt lat="49.58558" lon="3.44105">
        <ele>196.2</ele>
        <time>2025-10-05T09:06:00.000Z</time>
      </trkpt>
      <trkpt lat="49.58559" lon="3.44107">
        <ele>196.1</ele>
        <time>2025-10-05T09:06:01.000Z</time>
      </trkpt>
      <trkpt lat="49.58559" lon="3.44109">
        <ele>196.1</ele>
        <time>2025-10-05T09:06:02.000Z</time>
      </trkpt>
      <trkpt lat="49.5856" lon="3.44111">
        <ele>196</ele>
        <time>2025-10-05T09:06:03.000Z</time>
      </trkpt>
      <trkpt lat="49.5856" lon="3.44112">
        <ele>195.9</ele>
        <time>2025-10-05T09:06:04.000Z</time>
      </trkpt>
      <trkpt lat="49.58561" lon="3.44113">
        <ele>195.8</ele>
        <time>2025-10-05T09:06:05.000Z</time>
      </trkpt>
      <trkpt lat="49.58562" lon="3.44114">
        <ele>196.1</ele>
        <time>2025-10-05T09:06:06.000Z</time>
      </trkpt>
      <trkpt lat="49.58562" lon="3.44116">
        <ele>196.4</ele>
        <time>2025-10-05T09:06:07.000Z</time>
      </trkpt>
      <trkpt lat="49.58563" lon="3.44118">
        <ele>196.7</ele>
        <time>2025-10-05T09:06:08.000Z</time>
      </trkpt>
      <trkpt lat="49.58563" lon="3.44119">
        <ele>196.9</ele>
        <time>2025-10-05T09:06:09.000Z</time>
      </trkpt>
      <trkpt lat="49.58563" lon="3.44121">
        <ele>197.1</ele>
        <time>2025-10-05T09:06:10.000Z</time>
      </trkpt>
      <trkpt lat="49.58562" lon="3.44122">
        <ele>197.4</ele>
        <time>2025-10-05T09:06:11.000Z</time>
      </trkpt>
      <trkpt lat="49.58562" lon="3.44122">
        <ele>197.5</ele>
        <time>2025-10-05T09:06:12.000Z</time>
      </trkpt>
      <trkpt lat="49.58563" lon="3.44122">
        <ele>197.7</ele>
        <time>2025-10-05T09:06:13.000Z</time>
      </trkpt>
      <trkpt lat="49.58563" lon="3.44123">
        <ele>198.1</ele>
        <time>2025-10-05T09:06:14.000Z</time>
      </trkpt>
      <trkpt lat="49.58563" lon="3.44124">
        <ele>198.4</ele>
        <time>2025-10-05T09:06:15.000Z</time>
      </trkpt>
      <trkpt lat="49.58564" lon="3.44126">
        <ele>198.7</ele>
        <time>2025-10-05T09:06:16.000Z</time>
      </trkpt>
      <trkpt lat="49.58565" lon="3.44128">
        <ele>199</ele>
        <time>2025-10-05T09:06:17.000Z</time>
      </trkpt>
      <trkpt lat="49.58565" lon="3.44131">
        <ele>199.6</ele>
        <time>2025-10-05T09:06:18.000Z</time>
      </trkpt>
      <trkpt lat="49.58566" lon="3.44132">
        <ele>200.2</ele>
        <time>2025-10-05T09:06:19.000Z</time>
      </trkpt>
      <trkpt lat="49.58566" lon="3.44133">
        <ele>200.8</ele>
        <time>2025-10-05T09:06:20.000Z</time>
      </trkpt>
      <trkpt lat="49.58567" lon="3.44134">
        <ele>201.3</ele>
        <time>2025-10-05T09:06:21.000Z</time>
      </trkpt>
      <trkpt lat="49.58567" lon="3.44135">
        <ele>201.6</ele>
        <time>2025-10-05T09:06:22.000Z</time>
      </trkpt>
      <trkpt lat="49.58568" lon="3.44136">
        <ele>201.8</ele>
        <time>2025-10-05T09:06:23.000Z</time>
      </trkpt>
      <trkpt lat="49.58568" lon="3.44137">
        <ele>201.9</ele>
        <time>2025-10-05T09:06:24.000Z</time>
      </trkpt>
      <trkpt lat="49.58569" lon="3.44139">
        <ele>202</ele>
        <time>2025-10-05T09:06:25.000Z</time>
      </trkpt>
      <trkpt lat="49.5857" lon="3.44141">
        <ele>202.2</ele>
        <time>2025-10-05T09:06:26.000Z</time>
      </trkpt>
      <trkpt lat="49.5857" lon="3.44142">
        <ele>202.3</ele>
        <time>2025-10-05T09:06:27.000Z</time>
      </trkpt>
      <trkpt lat="49.58571" lon="3.44144">
        <ele>202.4</ele>
        <time>2025-10-05T09:06:28.000Z</time>
      </trkpt>
      <trkpt lat="49.58571" lon="3.44144">
        <ele>202.5</ele>
        <time>2025-10-05T09:06:29.000Z</time>
      </trkpt>
      <trkpt lat="49.58571" lon="3.44144">
        <ele>202.6</ele>
        <time>2025-10-05T09:06:30.000Z</time>
      </trkpt>
      <trkpt lat="49.58572" lon="3.44145">
        <ele>202.6</ele>
        <time>2025-10-05T09:06:31.000Z</time>
      </trkpt>
      <trkpt lat="49.58572" lon="3.44147">
        <ele>202.9</ele>
        <time>2025-10-05T09:06:32.000Z</time>
      </trkpt>
      <trkpt lat="49.58572" lon="3.44149">
        <ele>203</ele>
        <time>2025-10-05T09:06:33.000Z</time>
      </trkpt>
      <trkpt lat="49.58571" lon="3.44151">
        <ele>203.3</ele>
        <time>2025-10-05T09:06:34.000Z</time>
      </trkpt>
      <trkpt lat="49.58572" lon="3.44153">
        <ele>203.9</ele>
        <time>2025-10-05T09:06:35.000Z</time>
      </trkpt>
      <trkpt lat="49.58572" lon="3.44153">
        <ele>204.3</ele>
        <time>2025-10-05T09:06:36.000Z</time>
      </trkpt>
      <trkpt lat="49.58572" lon="3.44154">
        <ele>204.9</ele>
        <time>2025-10-05T09:06:37.000Z</time>
      </trkpt>
      <trkpt lat="49.58573" lon="3.44155">
        <ele>205.2</ele>
        <time>2025-10-05T09:06:38.000Z</time>
      </trkpt>
      <trkpt lat="49.58574" lon="3.44157">
        <ele>205.7</ele>
        <time>2025-10-05T09:06:39.000Z</time>
      </trkpt>
      <trkpt lat="49.58575" lon="3.44158">
        <ele>206.1</ele>
        <time>2025-10-05T09:06:40.000Z</time>
      </trkpt>
      <trkpt lat="49.58576" lon="3.4416">
        <ele>206.5</ele>
        <time>2025-10-05T09:06:41.000Z</time>
      </trkpt>
      <trkpt lat="49.58576" lon="3.44162">
        <ele>206.9</ele>
        <time>2025-10-05T09:06:42.000Z</time>
      </trkpt>
      <trkpt lat="49.58577" lon="3.44164">
        <ele>207.4</ele>
        <time>2025-10-05T09:06:43.000Z</time>
      </trkpt>
      <trkpt lat="49.58577" lon="3.44166">
        <ele>208.1</ele>
        <time>2025-10-05T09:06:44.000Z</time>
      </trkpt>
      <trkpt lat="49.58578" lon="3.44167">
        <ele>208.7</ele>
        <time>2025-10-05T09:06:45.000Z</time>
      </trkpt>
      <trkpt lat="49.58578" lon="3.44168">
        <ele>209.2</ele>
        <time>2025-10-05T09:06:46.000Z</time>
      </trkpt>
      <trkpt lat="49.58577" lon="3.44168">
        <ele>208.9</ele>
        <time>2025-10-05T09:06:47.000Z</time>
      </trkpt>
      <trkpt lat="49.58577" lon="3.44169">
        <ele>208.8</ele>
        <time>2025-10-05T09:06:48.000Z</time>
      </trkpt>
      <trkpt lat="49.58577" lon="3.44169">
        <ele>209</ele>
        <time>2025-10-05T09:06:49.000Z</time>
      </trkpt>
      <trkpt lat="49.58578" lon="3.44171">
        <ele>209</ele>
        <time>2025-10-05T09:06:50.000Z</time>
      </trkpt>
      <trkpt lat="49.58578" lon="3.44172">
        <ele>209.1</ele>
        <time>2025-10-05T09:06:51.000Z</time>
      </trkpt>
      <trkpt lat="49.58579" lon="3.44174">
        <ele>209.2</ele>
        <time>2025-10-05T09:06:52.000Z</time>
      </trkpt>
      <trkpt lat="49.5858" lon="3.44176">
        <ele>209.2</ele>
        <time>2025-10-05T09:06:53.000Z</time>
      </trkpt>
      <trkpt lat="49.58581" lon="3.44177">
        <ele>209.3</ele>
        <time>2025-10-05T09:06:54.000Z</time>
      </trkpt>
      <trkpt lat="49.58581" lon="3.44178">
        <ele>209.3</ele>
        <time>2025-10-05T09:06:55.000Z</time>
      </trkpt>
      <trkpt lat="49.58581" lon="3.4418">
        <ele>209.2</ele>
        <time>2025-10-05T09:06:56.000Z</time>
      </trkpt>
      <trkpt lat="49.58582" lon="3.44182">
        <ele>209.2</ele>
        <time>2025-10-05T09:06:57.000Z</time>
      </trkpt>
      <trkpt lat="49.58582" lon="3.44184">
        <ele>209.1</ele>
        <time>2025-10-05T09:06:58.000Z</time>
      </trkpt>
      <trkpt lat="49.58583" lon="3.44186">
        <ele>209</ele>
        <time>2025-10-05T09:06:59.000Z</time>
      </trkpt>
      <trkpt lat="49.58584" lon="3.44188">
        <ele>208.9</ele>
        <time>2025-10-05T09:07:00.000Z</time>
      </trkpt>
      <trkpt lat="49.58584" lon="3.44191">
        <ele>208.8</ele>
        <time>2025-10-05T09:07:01.000Z</time>
      </trkpt>
      <trkpt lat="49.58584" lon="3.44192">
        <ele>208.7</ele>
        <time>2025-10-05T09:07:02.000Z</time>
      </trkpt>
      <trkpt lat="49.58585" lon="3.44193">
        <ele>208.7</ele>
        <time>2025-10-05T09:07:03.000Z</time>
      </trkpt>
      <trkpt lat="49.58585" lon="3.44193">
        <ele>208.7</ele>
        <time>2025-10-05T09:07:04.000Z</time>
      </trkpt>
      <trkpt lat="49.58585" lon="3.44194">
        <ele>208.6</ele>
        <time>2025-10-05T09:07:05.000Z</time>
      </trkpt>
      <trkpt lat="49.58585" lon="3.44194">
        <ele>208.6</ele>
        <time>2025-10-05T09:07:06.000Z</time>
      </trkpt>
      <trkpt lat="49.58585" lon="3.44195">
        <ele>208.7</ele>
        <time>2025-10-05T09:07:07.000Z</time>
      </trkpt>
      <trkpt lat="49.58585" lon="3.44197">
        <ele>208.6</ele>
        <time>2025-10-05T09:07:08.000Z</time>
      </trkpt>
      <trkpt lat="49.58585" lon="3.44198">
        <ele>208.8</ele>
        <time>2025-10-05T09:07:09.000Z</time>
      </trkpt>
      <trkpt lat="49.58585" lon="3.442">
        <ele>208.8</ele>
        <time>2025-10-05T09:07:10.000Z</time>
      </trkpt>
      <trkpt lat="49.58586" lon="3.44203">
        <ele>208.7</ele>
        <time>2025-10-05T09:07:11.000Z</time>
      </trkpt>
      <trkpt lat="49.58587" lon="3.44206">
        <ele>208.6</ele>
        <time>2025-10-05T09:07:12.000Z</time>
      </trkpt>
      <trkpt lat="49.58587" lon="3.44208">
        <ele>208.7</ele>
        <time>2025-10-05T09:07:13.000Z</time>
      </trkpt>
      <trkpt lat="49.58588" lon="3.44208">
        <ele>208.8</ele>
        <time>2025-10-05T09:07:14.000Z</time>
      </trkpt>
      <trkpt lat="49.58588" lon="3.44208">
        <ele>209</ele>
        <time>2025-10-05T09:07:15.000Z</time>
      </trkpt>
      <trkpt lat="49.58589" lon="3.44208">
        <ele>209</ele>
        <time>2025-10-05T09:07:16.000Z</time>
      </trkpt>
      <trkpt lat="49.58589" lon="3.44209">
        <ele>209.1</ele>
        <time>2025-10-05T09:07:17.000Z</time>
      </trkpt>
      <trkpt lat="49.5859" lon="3.4421">
        <ele>209.2</ele>
        <time>2025-10-05T09:07:18.000Z</time>
      </trkpt>
      <trkpt lat="49.58591" lon="3.44211">
        <ele>209.9</ele>
        <time>2025-10-05T09:07:19.000Z</time>
      </trkpt>
      <trkpt lat="49.58592" lon="3.44213">
        <ele>210.5</ele>
        <time>2025-10-05T09:07:20.000Z</time>
      </trkpt>
      <trkpt lat="49.58593" lon="3.44215">
        <ele>211.4</ele>
        <time>2025-10-05T09:07:21.000Z</time>
      </trkpt>
      <trkpt lat="49.58593" lon="3.44217">
        <ele>212.4</ele>
        <time>2025-10-05T09:07:22.000Z</time>
      </trkpt>
      <trkpt lat="49.58593" lon="3.44218">
        <ele>213.2</ele>
        <time>2025-10-05T09:07:23.000Z</time>
      </trkpt>
      <trkpt lat="49.58593" lon="3.4422">
        <ele>213.9</ele>
        <time>2025-10-05T09:07:24.000Z</time>
      </trkpt>
      <trkpt lat="49.58593" lon="3.44222">
        <ele>214.5</ele>
        <time>2025-10-05T09:07:25.000Z</time>
      </trkpt>
      <trkpt lat="49.58593" lon="3.44223">
        <ele>215</ele>
        <time>2025-10-05T09:07:26.000Z</time>
      </trkpt>
      <trkpt lat="49.58592" lon="3.44223">
        <ele>215.2</ele>
        <time>2025-10-05T09:07:27.000Z</time>
      </trkpt>
      <trkpt lat="49.58592" lon="3.44224">
        <ele>215.4</ele>
        <time>2025-10-05T09:07:28.000Z</time>
      </trkpt>
      <trkpt lat="49.58592" lon="3.44225">
        <ele>215.7</ele>
        <time>2025-10-05T09:07:29.000Z</time>
      </trkpt>
      <trkpt lat="49.58592" lon="3.44226">
        <ele>216</ele>
        <time>2025-10-05T09:07:30.000Z</time>
      </trkpt>
      <trkpt lat="49.58593" lon="3.44228">
        <ele>216.1</ele>
        <time>2025-10-05T09:07:31.000Z</time>
      </trkpt>
      <trkpt lat="49.58593" lon="3.44231">
        <ele>216</ele>
        <time>2025-10-05T09:07:32.000Z</time>
      </trkpt>
      <trkpt lat="49.58593" lon="3.44233">
        <ele>216</ele>
        <time>2025-10-05T09:07:33.000Z</time>
      </trkpt>
      <trkpt lat="49.58593" lon="3.44235">
        <ele>216</ele>
        <time>2025-10-05T09:07:34.000Z</time>
      </trkpt>
      <trkpt lat="49.58593" lon="3.44236">
        <ele>216.1</ele>
        <time>2025-10-05T09:07:35.000Z</time>
      </trkpt>
      <trkpt lat="49.58593" lon="3.44237">
        <ele>216.5</ele>
        <time>2025-10-05T09:07:36.000Z</time>
      </trkpt>
      <trkpt lat="49.58594" lon="3.44238">
        <ele>216.9</ele>
        <time>2025-10-05T09:07:37.000Z</time>
      </trkpt>
      <trkpt lat="49.58594" lon="3.44239">
        <ele>217.5</ele>
        <time>2025-10-05T09:07:38.000Z</time>
      </trkpt>
      <trkpt lat="49.58595" lon="3.4424">
        <ele>217.9</ele>
        <time>2025-10-05T09:07:39.000Z</time>
      </trkpt>
      <trkpt lat="49.58595" lon="3.4424">
        <ele>218.2</ele>
        <time>2025-10-05T09:07:40.000Z</time>
      </trkpt>
      <trkpt lat="49.58596" lon="3.44241">
        <ele>218.3</ele>
        <time>2025-10-05T09:07:41.000Z</time>
      </trkpt>
      <trkpt lat="49.58597" lon="3.44242">
        <ele>218.5</ele>
        <time>2025-10-05T09:07:42.000Z</time>
      </trkpt>
      <trkpt lat="49.58597" lon="3.44242">
        <ele>218.5</ele>
        <time>2025-10-05T09:07:43.000Z</time>
      </trkpt>
      <trkpt lat="49.58597" lon="3.44243">
        <ele>218.5</ele>
        <time>2025-10-05T09:07:44.000Z</time>
      </trkpt>
      <trkpt lat="49.58597" lon="3.44244">
        <ele>218.5</ele>
        <time>2025-10-05T09:07:45.000Z</time>
      </trkpt>
      <trkpt lat="49.58598" lon="3.44245">
        <ele>218.5</ele>
        <time>2025-10-05T09:07:46.000Z</time>
      </trkpt>
      <trkpt lat="49.58597" lon="3.44245">
        <ele>218.5</ele>
        <time>2025-10-05T09:07:47.000Z</time>
      </trkpt>
      <trkpt lat="49.58597" lon="3.44245">
        <ele>218.5</ele>
        <time>2025-10-05T09:07:48.000Z</time>
      </trkpt>
      <trkpt lat="49.58597" lon="3.44245">
        <ele>218.5</ele>
        <time>2025-10-05T09:07:49.000Z</time>
      </trkpt>
      <trkpt lat="49.58597" lon="3.44245">
        <ele>218.5</ele>
        <time>2025-10-05T09:07:50.000Z</time>
      </trkpt>
      <trkpt lat="49.58597" lon="3.44245">
        <ele>218.5</ele>
        <time>2025-10-05T09:07:51.000Z</time>
      </trkpt>
      <trkpt lat="49.58597" lon="3.44245">
        <ele>218.5</ele>
        <time>2025-10-05T09:07:52.000Z</time>
      </trkpt>
      <trkpt lat="49.58597" lon="3.44245">
        <ele>218.5</ele>
        <time>2025-10-05T09:07:53.000Z</time>
      </trkpt>
      <trkpt lat="49.58597" lon="3.44245">
        <ele>218.5</ele>
        <time>2025-10-05T09:07:54.000Z</time>
      </trkpt>
      <trkpt lat="49.58597" lon="3.44245">
        <ele>218.5</ele>
        <time>2025-10-05T09:07:55.000Z</time>
      </trkpt>
      <trkpt lat="49.58597" lon="3.44245">
        <ele>218.5</ele>
        <time>2025-10-05T09:07:56.000Z</time>
      </trkpt>
      <trkpt lat="49.58597" lon="3.44245">
        <ele>218.5</ele>
        <time>2025-10-05T09:07:57.000Z</time>
      </trkpt>
      <trkpt lat="49.58597" lon="3.44245">
        <ele>218.5</ele>
        <time>2025-10-05T09:07:58.000Z</time>
      </trkpt>
      <trkpt lat="49.58597" lon="3.44245">
        <ele>218.5</ele>
        <time>2025-10-05T09:07:59.000Z</time>
      </trkpt>
      <trkpt lat="49.58597" lon="3.44245">
        <ele>218.5</ele>
        <time>2025-10-05T09:08:00.000Z</time>
      </trkpt>
      <trkpt lat="49.58597" lon="3.44245">
        <ele>218.5</ele>
        <time>2025-10-05T09:08:01.000Z</time>
      </trkpt>
      <trkpt lat="49.58597" lon="3.44245">
        <ele>218.5</ele>
        <time>2025-10-05T09:08:02.000Z</time>
      </trkpt>
      <trkpt lat="49.58597" lon="3.44245">
        <ele>218.5</ele>
        <time>2025-10-05T09:08:03.000Z</time>
      </trkpt>
      <trkpt lat="49.58597" lon="3.44245">
        <ele>218.5</ele>
        <time>2025-10-05T09:08:04.000Z</time>
      </trkpt>
      <trkpt lat="49.58597" lon="3.44245">
        <ele>218.5</ele>
        <time>2025-10-05T09:08:05.000Z</time>
      </trkpt>
      <trkpt lat="49.58597" lon="3.44245">
        <ele>218.5</ele>
        <time>2025-10-05T09:08:06.000Z</time>
      </trkpt>
      <trkpt lat="49.58597" lon="3.44245">
        <ele>218.5</ele>
        <time>2025-10-05T09:08:07.000Z</time>
      </trkpt>
      <trkpt lat="49.58597" lon="3.44245">
        <ele>218.5</ele>
        <time>2025-10-05T09:08:08.000Z</time>
      </trkpt>
      <trkpt lat="49.58597" lon="3.44245">
        <ele>218.5</ele>
        <time>2025-10-05T09:08:09.000Z</time>
      </trkpt>
      <trkpt lat="49.58597" lon="3.44245">
        <ele>218.5</ele>
        <time>2025-10-05T09:08:10.000Z</time>
      </trkpt>
      <trkpt lat="49.58597" lon="3.44245">
        <ele>218.5</ele>
        <time>2025-10-05T09:08:11.000Z</time>
      </trkpt>
      <trkpt lat="49.58597" lon="3.44245">
        <ele>218.5</ele>
        <time>2025-10-05T09:08:12.000Z</time>
      </trkpt>
      <trkpt lat="49.58597" lon="3.44245">
        <ele>218.5</ele>
        <time>2025-10-05T09:08:13.000Z</time>
      </trkpt>
      <trkpt lat="49.58597" lon="3.44245">
        <ele>218.5</ele>
        <time>2025-10-05T09:08:14.000Z</time>
      </trkpt>
      <trkpt lat="49.58597" lon="3.44245">
        <ele>218.5</ele>
        <time>2025-10-05T09:08:15.000Z</time>
      </trkpt>
      <trkpt lat="49.58597" lon="3.44245">
        <ele>218.5</ele>
        <time>2025-10-05T09:08:16.000Z</time>
      </trkpt>
      <trkpt lat="49.58597" lon="3.44245">
        <ele>218.5</ele>
        <time>2025-10-05T09:08:17.000Z</time>
      </trkpt>
      <trkpt lat="49.58597" lon="3.44245">
        <ele>218.5</ele>
        <time>2025-10-05T09:08:18.000Z</time>
      </trkpt>
      <trkpt lat="49.58601" lon="3.44249">
        <ele>216.2</ele>
        <time>2025-10-05T09:08:19.000Z</time>
      </trkpt>
      <trkpt lat="49.58601" lon="3.4425">
        <ele>216.2</ele>
        <time>2025-10-05T09:08:20.000Z</time>
      </trkpt>
      <trkpt lat="49.58601" lon="3.44251">
        <ele>216.4</ele>
        <time>2025-10-05T09:08:21.000Z</time>
      </trkpt>
      <trkpt lat="49.58601" lon="3.44253">
        <ele>216.9</ele>
        <time>2025-10-05T09:08:22.000Z</time>
      </trkpt>
      <trkpt lat="49.58601" lon="3.44255">
        <ele>217.5</ele>
        <time>2025-10-05T09:08:23.000Z</time>
      </trkpt>
      <trkpt lat="49.58602" lon="3.44257">
        <ele>218.4</ele>
        <time>2025-10-05T09:08:24.000Z</time>
      </trkpt>
      <trkpt lat="49.58603" lon="3.44259">
        <ele>219.2</ele>
        <time>2025-10-05T09:08:25.000Z</time>
      </trkpt>
      <trkpt lat="49.58603" lon="3.4426">
        <ele>219.8</ele>
        <time>2025-10-05T09:08:26.000Z</time>
      </trkpt>
      <trkpt lat="49.58603" lon="3.4426">
        <ele>220.2</ele>
        <time>2025-10-05T09:08:27.000Z</time>
      </trkpt>
      <trkpt lat="49.58604" lon="3.44261">
        <ele>220.7</ele>
        <time>2025-10-05T09:08:28.000Z</time>
      </trkpt>
      <trkpt lat="49.58604" lon="3.44262">
        <ele>221</ele>
        <time>2025-10-05T09:08:29.000Z</time>
      </trkpt>
      <trkpt lat="49.58604" lon="3.44263">
        <ele>221.1</ele>
        <time>2025-10-05T09:08:30.000Z</time>
      </trkpt>
      <trkpt lat="49.58604" lon="3.44264">
        <ele>221.4</ele>
        <time>2025-10-05T09:08:31.000Z</time>
      </trkpt>
      <trkpt lat="49.58604" lon="3.44265">
        <ele>221.5</ele>
        <time>2025-10-05T09:08:32.000Z</time>
      </trkpt>
      <trkpt lat="49.58604" lon="3.44266">
        <ele>221.6</ele>
        <time>2025-10-05T09:08:33.000Z</time>
      </trkpt>
      <trkpt lat="49.58605" lon="3.44267">
        <ele>221.6</ele>
        <time>2025-10-05T09:08:34.000Z</time>
      </trkpt>
      <trkpt lat="49.58605" lon="3.44269">
        <ele>221.6</ele>
        <time>2025-10-05T09:08:35.000Z</time>
      </trkpt>
      <trkpt lat="49.58605" lon="3.44272">
        <ele>221.3</ele>
        <time>2025-10-05T09:08:36.000Z</time>
      </trkpt>
      <trkpt lat="49.58605" lon="3.44275">
        <ele>221.4</ele>
        <time>2025-10-05T09:08:37.000Z</time>
      </trkpt>
      <trkpt lat="49.58605" lon="3.44277">
        <ele>221.4</ele>
        <time>2025-10-05T09:08:38.000Z</time>
      </trkpt>
      <trkpt lat="49.58606" lon="3.44279">
        <ele>221.8</ele>
        <time>2025-10-05T09:08:39.000Z</time>
      </trkpt>
      <trkpt lat="49.58606" lon="3.4428">
        <ele>221.9</ele>
        <time>2025-10-05T09:08:40.000Z</time>
      </trkpt>
      <trkpt lat="49.58608" lon="3.44282">
        <ele>221.8</ele>
        <time>2025-10-05T09:08:41.000Z</time>
      </trkpt>
      <trkpt lat="49.58608" lon="3.44282">
        <ele>221.8</ele>
        <time>2025-10-05T09:08:42.000Z</time>
      </trkpt>
      <trkpt lat="49.5861" lon="3.44282">
        <ele>221.8</ele>
        <time>2025-10-05T09:08:43.000Z</time>
      </trkpt>
      <trkpt lat="49.58611" lon="3.44282">
        <ele>221.5</ele>
        <time>2025-10-05T09:08:44.000Z</time>
      </trkpt>
      <trkpt lat="49.58612" lon="3.44282">
        <ele>221.3</ele>
        <time>2025-10-05T09:08:45.000Z</time>
      </trkpt>
      <trkpt lat="49.58613" lon="3.44282">
        <ele>221.2</ele>
        <time>2025-10-05T09:08:46.000Z</time>
      </trkpt>
      <trkpt lat="49.58613" lon="3.44282">
        <ele>221.1</ele>
        <time>2025-10-05T09:08:47.000Z</time>
      </trkpt>
      <trkpt lat="49.58613" lon="3.44282">
        <ele>220.8</ele>
        <time>2025-10-05T09:08:48.000Z</time>
      </trkpt>
      <trkpt lat="49.58613" lon="3.44282">
        <ele>220.5</ele>
        <time>2025-10-05T09:08:49.000Z</time>
      </trkpt>
      <trkpt lat="49.58613" lon="3.44282">
        <ele>220.2</ele>
        <time>2025-10-05T09:08:50.000Z</time>
      </trkpt>
      <trkpt lat="49.58613" lon="3.44283">
        <ele>219.8</ele>
        <time>2025-10-05T09:08:51.000Z</time>
      </trkpt>
      <trkpt lat="49.58613" lon="3.44283">
        <ele>219.3</ele>
        <time>2025-10-05T09:08:52.000Z</time>
      </trkpt>
      <trkpt lat="49.58613" lon="3.44283">
        <ele>218.8</ele>
        <time>2025-10-05T09:08:53.000Z</time>
      </trkpt>
      <trkpt lat="49.58613" lon="3.44283">
        <ele>218.6</ele>
        <time>2025-10-05T09:08:54.000Z</time>
      </trkpt>
      <trkpt lat="49.58613" lon="3.44284">
        <ele>218.2</ele>
        <time>2025-10-05T09:08:55.000Z</time>
      </trkpt>
      <trkpt lat="49.58613" lon="3.44284">
        <ele>217.9</ele>
        <time>2025-10-05T09:08:56.000Z</time>
      </trkpt>
      <trkpt lat="49.58613" lon="3.44284">
        <ele>217.7</ele>
        <time>2025-10-05T09:08:57.000Z</time>
      </trkpt>
      <trkpt lat="49.58613" lon="3.44285">
        <ele>217.8</ele>
        <time>2025-10-05T09:08:58.000Z</time>
      </trkpt>
      <trkpt lat="49.58613" lon="3.44284">
        <ele>218</ele>
        <time>2025-10-05T09:08:59.000Z</time>
      </trkpt>
      <trkpt lat="49.58614" lon="3.44284">
        <ele>218.1</ele>
        <time>2025-10-05T09:09:00.000Z</time>
      </trkpt>
      <trkpt lat="49.58614" lon="3.44284">
        <ele>218.1</ele>
        <time>2025-10-05T09:09:01.000Z</time>
      </trkpt>
      <trkpt lat="49.58615" lon="3.44284">
        <ele>218.2</ele>
        <time>2025-10-05T09:09:02.000Z</time>
      </trkpt>
      <trkpt lat="49.58615" lon="3.44284">
        <ele>218.2</ele>
        <time>2025-10-05T09:09:03.000Z</time>
      </trkpt>
      <trkpt lat="49.58615" lon="3.44284">
        <ele>218.2</ele>
        <time>2025-10-05T09:09:04.000Z</time>
      </trkpt>
      <trkpt lat="49.58615" lon="3.44285">
        <ele>218.5</ele>
        <time>2025-10-05T09:09:05.000Z</time>
      </trkpt>
      <trkpt lat="49.58616" lon="3.44285">
        <ele>218.6</ele>
        <time>2025-10-05T09:09:06.000Z</time>
      </trkpt>
      <trkpt lat="49.58616" lon="3.44286">
        <ele>218.7</ele>
        <time>2025-10-05T09:09:07.000Z</time>
      </trkpt>
      <trkpt lat="49.58617" lon="3.44286">
        <ele>218.7</ele>
        <time>2025-10-05T09:09:08.000Z</time>
      </trkpt>
      <trkpt lat="49.58617" lon="3.44286">
        <ele>218.8</ele>
        <time>2025-10-05T09:09:09.000Z</time>
      </trkpt>
      <trkpt lat="49.58618" lon="3.44285">
        <ele>218.8</ele>
        <time>2025-10-05T09:09:10.000Z</time>
      </trkpt>
      <trkpt lat="49.58618" lon="3.44286">
        <ele>218.6</ele>
        <time>2025-10-05T09:09:11.000Z</time>
      </trkpt>
      <trkpt lat="49.58618" lon="3.44286">
        <ele>218.5</ele>
        <time>2025-10-05T09:09:12.000Z</time>
      </trkpt>
      <trkpt lat="49.58618" lon="3.44286">
        <ele>218.3</ele>
        <time>2025-10-05T09:09:13.000Z</time>
      </trkpt>
      <trkpt lat="49.58618" lon="3.44286">
        <ele>218.1</ele>
        <time>2025-10-05T09:09:14.000Z</time>
      </trkpt>
      <trkpt lat="49.58618" lon="3.44286">
        <ele>218.1</ele>
        <time>2025-10-05T09:09:15.000Z</time>
      </trkpt>
      <trkpt lat="49.58618" lon="3.44286">
        <ele>218.1</ele>
        <time>2025-10-05T09:09:16.000Z</time>
      </trkpt>
      <trkpt lat="49.58618" lon="3.44286">
        <ele>218.1</ele>
        <time>2025-10-05T09:09:17.000Z</time>
      </trkpt>
      <trkpt lat="49.58618" lon="3.44286">
        <ele>218.1</ele>
        <time>2025-10-05T09:09:18.000Z</time>
      </trkpt>
      <trkpt lat="49.58618" lon="3.44286">
        <ele>218.1</ele>
        <time>2025-10-05T09:09:19.000Z</time>
      </trkpt>
      <trkpt lat="49.58618" lon="3.44286">
        <ele>218.1</ele>
        <time>2025-10-05T09:09:20.000Z</time>
      </trkpt>
      <trkpt lat="49.58618" lon="3.44286">
        <ele>218.1</ele>
        <time>2025-10-05T09:09:21.000Z</time>
      </trkpt>
      <trkpt lat="49.58618" lon="3.44286">
        <ele>218.1</ele>
        <time>2025-10-05T09:09:22.000Z</time>
      </trkpt>
      <trkpt lat="49.58618" lon="3.44286">
        <ele>218.1</ele>
        <time>2025-10-05T09:09:23.000Z</time>
      </trkpt>
      <trkpt lat="49.58618" lon="3.44286">
        <ele>218.1</ele>
        <time>2025-10-05T09:09:24.000Z</time>
      </trkpt>
      <trkpt lat="49.58618" lon="3.44286">
        <ele>218.1</ele>
        <time>2025-10-05T09:09:25.000Z</time>
      </trkpt>
      <trkpt lat="49.58618" lon="3.44286">
        <ele>218.1</ele>
        <time>2025-10-05T09:09:26.000Z</time>
      </trkpt>
      <trkpt lat="49.58618" lon="3.44286">
        <ele>218.1</ele>
        <time>2025-10-05T09:09:27.000Z</time>
      </trkpt>
      <trkpt lat="49.58618" lon="3.44286">
        <ele>218.1</ele>
        <time>2025-10-05T09:09:28.000Z</time>
      </trkpt>
      <trkpt lat="49.58618" lon="3.44286">
        <ele>218.1</ele>
        <time>2025-10-05T09:09:29.000Z</time>
      </trkpt>
      <trkpt lat="49.58618" lon="3.44286">
        <ele>218.1</ele>
        <time>2025-10-05T09:09:30.000Z</time>
      </trkpt>
      <trkpt lat="49.58618" lon="3.44286">
        <ele>218.1</ele>
        <time>2025-10-05T09:09:31.000Z</time>
      </trkpt>
      <trkpt lat="49.58618" lon="3.44286">
        <ele>218.1</ele>
        <time>2025-10-05T09:09:32.000Z</time>
      </trkpt>
      <trkpt lat="49.58618" lon="3.44286">
        <ele>218.1</ele>
        <time>2025-10-05T09:09:33.000Z</time>
      </trkpt>
      <trkpt lat="49.58618" lon="3.44286">
        <ele>218.1</ele>
        <time>2025-10-05T09:09:34.000Z</time>
      </trkpt>
      <trkpt lat="49.58618" lon="3.44286">
        <ele>218.1</ele>
        <time>2025-10-05T09:09:35.000Z</time>
      </trkpt>
      <trkpt lat="49.58618" lon="3.44286">
        <ele>218.1</ele>
        <time>2025-10-05T09:09:36.000Z</time>
      </trkpt>
      <trkpt lat="49.58618" lon="3.44286">
        <ele>218.1</ele>
        <time>2025-10-05T09:09:37.000Z</time>
      </trkpt>
      <trkpt lat="49.58618" lon="3.44286">
        <ele>218.1</ele>
        <time>2025-10-05T09:09:38.000Z</time>
      </trkpt>
      <trkpt lat="49.58618" lon="3.44286">
        <ele>218.1</ele>
        <time>2025-10-05T09:09:39.000Z</time>
      </trkpt>
      <trkpt lat="49.58618" lon="3.44286">
        <ele>218.1</ele>
        <time>2025-10-05T09:09:40.000Z</time>
      </trkpt>
      <trkpt lat="49.58618" lon="3.44286">
        <ele>218.1</ele>
        <time>2025-10-05T09:09:41.000Z</time>
      </trkpt>
      <trkpt lat="49.58618" lon="3.44286">
        <ele>218.1</ele>
        <time>2025-10-05T09:09:42.000Z</time>
      </trkpt>
      <trkpt lat="49.58618" lon="3.44286">
        <ele>218.1</ele>
        <time>2025-10-05T09:09:43.000Z</time>
      </trkpt>
      <trkpt lat="49.58618" lon="3.44286">
        <ele>218.1</ele>
        <time>2025-10-05T09:09:44.000Z</time>
      </trkpt>
      <trkpt lat="49.58618" lon="3.44286">
        <ele>218.1</ele>
        <time>2025-10-05T09:09:45.000Z</time>
      </trkpt>
      <trkpt lat="49.58618" lon="3.44286">
        <ele>218.1</ele>
        <time>2025-10-05T09:09:46.000Z</time>
      </trkpt>
      <trkpt lat="49.58618" lon="3.44286">
        <ele>218.1</ele>
        <time>2025-10-05T09:09:47.000Z</time>
      </trkpt>
      <trkpt lat="49.58618" lon="3.44286">
        <ele>218.1</ele>
        <time>2025-10-05T09:09:48.000Z</time>
      </trkpt>
      <trkpt lat="49.58618" lon="3.44286">
        <ele>218.1</ele>
        <time>2025-10-05T09:09:49.000Z</time>
      </trkpt>
      <trkpt lat="49.58618" lon="3.44286">
        <ele>218.1</ele>
        <time>2025-10-05T09:09:50.000Z</time>
      </trkpt>
      <trkpt lat="49.58618" lon="3.44286">
        <ele>218.1</ele>
        <time>2025-10-05T09:09:51.000Z</time>
      </trkpt>
      <trkpt lat="49.58618" lon="3.44286">
        <ele>218.1</ele>
        <time>2025-10-05T09:09:52.000Z</time>
      </trkpt>
      <trkpt lat="49.58618" lon="3.44286">
        <ele>218.1</ele>
        <time>2025-10-05T09:09:53.000Z</time>
      </trkpt>
      <trkpt lat="49.58615" lon="3.44287">
        <ele>213.5</ele>
        <time>2025-10-05T09:09:54.000Z</time>
      </trkpt>
      <trkpt lat="49.58615" lon="3.44287">
        <ele>213.7</ele>
        <time>2025-10-05T09:09:55.000Z</time>
      </trkpt>
      <trkpt lat="49.58615" lon="3.44287">
        <ele>213.8</ele>
        <time>2025-10-05T09:09:56.000Z</time>
      </trkpt>
      <trkpt lat="49.58614" lon="3.44288">
        <ele>213.9</ele>
        <time>2025-10-05T09:09:57.000Z</time>
      </trkpt>
      <trkpt lat="49.58614" lon="3.44288">
        <ele>213.9</ele>
        <time>2025-10-05T09:09:58.000Z</time>
      </trkpt>
      <trkpt lat="49.58614" lon="3.44288">
        <ele>213.9</ele>
        <time>2025-10-05T09:09:59.000Z</time>
      </trkpt>
      <trkpt lat="49.58614" lon="3.44288">
        <ele>213.9</ele>
        <time>2025-10-05T09:10:00.000Z</time>
      </trkpt>
      <trkpt lat="49.58614" lon="3.44288">
        <ele>213.9</ele>
        <time>2025-10-05T09:10:01.000Z</time>
      </trkpt>
      <trkpt lat="49.58614" lon="3.44288">
        <ele>213.9</ele>
        <time>2025-10-05T09:10:02.000Z</time>
      </trkpt>
      <trkpt lat="49.58614" lon="3.44288">
        <ele>213.9</ele>
        <time>2025-10-05T09:10:03.000Z</time>
      </trkpt>
      <trkpt lat="49.58614" lon="3.44288">
        <ele>213.9</ele>
        <time>2025-10-05T09:10:04.000Z</time>
      </trkpt>
      <trkpt lat="49.58614" lon="3.44288">
        <ele>213.9</ele>
        <time>2025-10-05T09:10:05.000Z</time>
      </trkpt>
      <trkpt lat="49.58614" lon="3.44288">
        <ele>213.9</ele>
        <time>2025-10-05T09:10:06.000Z</time>
      </trkpt>
      <trkpt lat="49.58614" lon="3.44288">
        <ele>213.9</ele>
        <time>2025-10-05T09:10:07.000Z</time>
      </trkpt>
      <trkpt lat="49.58614" lon="3.44288">
        <ele>213.9</ele>
        <time>2025-10-05T09:10:08.000Z</time>
      </trkpt>
      <trkpt lat="49.58614" lon="3.44288">
        <ele>213.9</ele>
        <time>2025-10-05T09:10:09.000Z</time>
      </trkpt>
      <trkpt lat="49.58614" lon="3.44288">
        <ele>213.9</ele>
        <time>2025-10-05T09:10:10.000Z</time>
      </trkpt>
      <trkpt lat="49.58614" lon="3.44288">
        <ele>213.9</ele>
        <time>2025-10-05T09:10:11.000Z</time>
      </trkpt>
      <trkpt lat="49.58614" lon="3.44288">
        <ele>213.9</ele>
        <time>2025-10-05T09:10:12.000Z</time>
      </trkpt>
      <trkpt lat="49.58614" lon="3.44288">
        <ele>213.9</ele>
        <time>2025-10-05T09:10:13.000Z</time>
      </trkpt>
      <trkpt lat="49.58614" lon="3.44288">
        <ele>213.9</ele>
        <time>2025-10-05T09:10:14.000Z</time>
      </trkpt>
      <trkpt lat="49.58614" lon="3.44288">
        <ele>213.9</ele>
        <time>2025-10-05T09:10:15.000Z</time>
      </trkpt>
      <trkpt lat="49.58614" lon="3.44288">
        <ele>213.9</ele>
        <time>2025-10-05T09:10:16.000Z</time>
      </trkpt>
      <trkpt lat="49.58614" lon="3.44288">
        <ele>213.9</ele>
        <time>2025-10-05T09:10:17.000Z</time>
      </trkpt>
      <trkpt lat="49.58614" lon="3.44288">
        <ele>213.9</ele>
        <time>2025-10-05T09:10:18.000Z</time>
      </trkpt>
      <trkpt lat="49.58614" lon="3.44288">
        <ele>213.9</ele>
        <time>2025-10-05T09:10:19.000Z</time>
      </trkpt>
      <trkpt lat="49.58614" lon="3.44288">
        <ele>213.9</ele>
        <time>2025-10-05T09:10:20.000Z</time>
      </trkpt>
      <trkpt lat="49.58614" lon="3.44288">
        <ele>213.9</ele>
        <time>2025-10-05T09:10:21.000Z</time>
      </trkpt>
      <trkpt lat="49.58614" lon="3.44288">
        <ele>213.9</ele>
        <time>2025-10-05T09:10:22.000Z</time>
      </trkpt>
      <trkpt lat="49.58614" lon="3.44288">
        <ele>213.9</ele>
        <time>2025-10-05T09:10:23.000Z</time>
      </trkpt>
      <trkpt lat="49.58614" lon="3.44288">
        <ele>213.9</ele>
        <time>2025-10-05T09:10:24.000Z</time>
      </trkpt>
      <trkpt lat="49.58614" lon="3.44288">
        <ele>213.9</ele>
        <time>2025-10-05T09:10:25.000Z</time>
      </trkpt>
      <trkpt lat="49.58614" lon="3.44288">
        <ele>213.9</ele>
        <time>2025-10-05T09:10:26.000Z</time>
      </trkpt>
      <trkpt lat="49.58614" lon="3.44288">
        <ele>213.9</ele>
        <time>2025-10-05T09:10:27.000Z</time>
      </trkpt>
      <trkpt lat="49.58614" lon="3.44288">
        <ele>213.9</ele>
        <time>2025-10-05T09:10:28.000Z</time>
      </trkpt>
      <trkpt lat="49.58614" lon="3.44288">
        <ele>213.9</ele>
        <time>2025-10-05T09:10:29.000Z</time>
      </trkpt>
      <trkpt lat="49.58614" lon="3.44288">
        <ele>213.9</ele>
        <time>2025-10-05T09:10:30.000Z</time>
      </trkpt>
      <trkpt lat="49.58614" lon="3.44288">
        <ele>213.9</ele>
        <time>2025-10-05T09:10:31.000Z</time>
      </trkpt>
      <trkpt lat="49.58614" lon="3.44288">
        <ele>213.9</ele>
        <time>2025-10-05T09:10:32.000Z</time>
      </trkpt>
      <trkpt lat="49.58614" lon="3.44288">
        <ele>213.9</ele>
        <time>2025-10-05T09:10:33.000Z</time>
      </trkpt>
      <trkpt lat="49.58614" lon="3.44288">
        <ele>213.9</ele>
        <time>2025-10-05T09:10:34.000Z</time>
      </trkpt>
      <trkpt lat="49.58614" lon="3.44288">
        <ele>213.9</ele>
        <time>2025-10-05T09:10:35.000Z</time>
      </trkpt>
      <trkpt lat="49.58614" lon="3.44288">
        <ele>213.9</ele>
        <time>2025-10-05T09:10:36.000Z</time>
      </trkpt>
      <trkpt lat="49.58614" lon="3.44288">
        <ele>213.9</ele>
        <time>2025-10-05T09:10:37.000Z</time>
      </trkpt>
      <trkpt lat="49.58614" lon="3.44288">
        <ele>213.9</ele>
        <time>2025-10-05T09:10:38.000Z</time>
      </trkpt>
      <trkpt lat="49.58614" lon="3.44288">
        <ele>213.9</ele>
        <time>2025-10-05T09:10:39.000Z</time>
      </trkpt>
      <trkpt lat="49.58614" lon="3.44288">
        <ele>213.9</ele>
        <time>2025-10-05T09:10:40.000Z</time>
      </trkpt>
      <trkpt lat="49.58614" lon="3.44288">
        <ele>213.9</ele>
        <time>2025-10-05T09:10:41.000Z</time>
      </trkpt>
      <trkpt lat="49.58614" lon="3.44288">
        <ele>213.9</ele>
        <time>2025-10-05T09:10:42.000Z</time>
      </trkpt>
      <trkpt lat="49.58614" lon="3.44288">
        <ele>213.9</ele>
        <time>2025-10-05T09:10:43.000Z</time>
      </trkpt>
      <trkpt lat="49.58614" lon="3.44288">
        <ele>213.9</ele>
        <time>2025-10-05T09:10:44.000Z</time>
      </trkpt>
      <trkpt lat="49.58614" lon="3.44288">
        <ele>213.9</ele>
        <time>2025-10-05T09:10:45.000Z</time>
      </trkpt>
      <trkpt lat="49.58614" lon="3.44288">
        <ele>213.9</ele>
        <time>2025-10-05T09:10:46.000Z</time>
      </trkpt>
      <trkpt lat="49.58614" lon="3.44288">
        <ele>213.9</ele>
        <time>2025-10-05T09:10:47.000Z</time>
      </trkpt>
      <trkpt lat="49.58614" lon="3.44288">
        <ele>213.9</ele>
        <time>2025-10-05T09:10:48.000Z</time>
      </trkpt>
      <trkpt lat="49.58614" lon="3.44288">
        <ele>213.9</ele>
        <time>2025-10-05T09:10:49.000Z</time>
      </trkpt>
      <trkpt lat="49.58614" lon="3.44288">
        <ele>213.9</ele>
        <time>2025-10-05T09:10:50.000Z</time>
      </trkpt>
      <trkpt lat="49.58614" lon="3.44288">
        <ele>213.9</ele>
        <time>2025-10-05T09:10:51.000Z</time>
      </trkpt>
      <trkpt lat="49.58614" lon="3.44288">
        <ele>213.9</ele>
        <time>2025-10-05T09:10:52.000Z</time>
      </trkpt>
      <trkpt lat="49.58614" lon="3.44288">
        <ele>213.9</ele>
        <time>2025-10-05T09:10:53.000Z</time>
      </trkpt>
      <trkpt lat="49.58614" lon="3.44288">
        <ele>213.9</ele>
        <time>2025-10-05T09:10:54.000Z</time>
      </trkpt>
      <trkpt lat="49.58614" lon="3.44288">
        <ele>213.9</ele>
        <time>2025-10-05T09:10:55.000Z</time>
      </trkpt>
      <trkpt lat="49.58614" lon="3.44288">
        <ele>213.9</ele>
        <time>2025-10-05T09:10:56.000Z</time>
      </trkpt>
      <trkpt lat="49.58614" lon="3.44288">
        <ele>213.9</ele>
        <time>2025-10-05T09:10:57.000Z</time>
      </trkpt>
      <trkpt lat="49.58614" lon="3.44288">
        <ele>213.9</ele>
        <time>2025-10-05T09:10:58.000Z</time>
      </trkpt>
      <trkpt lat="49.58614" lon="3.44288">
        <ele>219.8</ele>
        <time>2025-10-05T09:10:59.000Z</time>
      </trkpt>
      <trkpt lat="49.58614" lon="3.44288">
        <ele>219.8</ele>
        <time>2025-10-05T09:11:00.000Z</time>
      </trkpt>
      <trkpt lat="49.58614" lon="3.44288">
        <ele>219.8</ele>
        <time>2025-10-05T09:11:01.000Z</time>
      </trkpt>
      <trkpt lat="49.58614" lon="3.44288">
        <ele>219.8</ele>
        <time>2025-10-05T09:11:02.000Z</time>
      </trkpt>
      <trkpt lat="49.58614" lon="3.44288">
        <ele>219.8</ele>
        <time>2025-10-05T09:11:03.000Z</time>
      </trkpt>
      <trkpt lat="49.58614" lon="3.44288">
        <ele>219.8</ele>
        <time>2025-10-05T09:11:04.000Z</time>
      </trkpt>
      <trkpt lat="49.58614" lon="3.44288">
        <ele>219.8</ele>
        <time>2025-10-05T09:11:05.000Z</time>
      </trkpt>
      <trkpt lat="49.58614" lon="3.44288">
        <ele>219.8</ele>
        <time>2025-10-05T09:11:06.000Z</time>
      </trkpt>
      <trkpt lat="49.58614" lon="3.44288">
        <ele>219.8</ele>
        <time>2025-10-05T09:11:07.000Z</time>
      </trkpt>
      <trkpt lat="49.58614" lon="3.44288">
        <ele>219.8</ele>
        <time>2025-10-05T09:11:08.000Z</time>
      </trkpt>
      <trkpt lat="49.58614" lon="3.44288">
        <ele>219.8</ele>
        <time>2025-10-05T09:11:09.000Z</time>
      </trkpt>
      <trkpt lat="49.58614" lon="3.44288">
        <ele>219.8</ele>
        <time>2025-10-05T09:11:10.000Z</time>
      </trkpt>
      <trkpt lat="49.58614" lon="3.44288">
        <ele>219.8</ele>
        <time>2025-10-05T09:11:11.000Z</time>
      </trkpt>
      <trkpt lat="49.58614" lon="3.44288">
        <ele>219.8</ele>
        <time>2025-10-05T09:11:12.000Z</time>
      </trkpt>
      <trkpt lat="49.58614" lon="3.44288">
        <ele>219.8</ele>
        <time>2025-10-05T09:11:13.000Z</time>
      </trkpt>
      <trkpt lat="49.58614" lon="3.44288">
        <ele>219.8</ele>
        <time>2025-10-05T09:11:14.000Z</time>
      </trkpt>
      <trkpt lat="49.58614" lon="3.44288">
        <ele>219.8</ele>
        <time>2025-10-05T09:11:15.000Z</time>
      </trkpt>
      <trkpt lat="49.58614" lon="3.44288">
        <ele>219.8</ele>
        <time>2025-10-05T09:11:16.000Z</time>
      </trkpt>
      <trkpt lat="49.58614" lon="3.44288">
        <ele>219.8</ele>
        <time>2025-10-05T09:11:17.000Z</time>
      </trkpt>
      <trkpt lat="49.58614" lon="3.44288">
        <ele>219.8</ele>
        <time>2025-10-05T09:11:18.000Z</time>
      </trkpt>
      <trkpt lat="49.58614" lon="3.44288">
        <ele>219.8</ele>
        <time>2025-10-05T09:11:19.000Z</time>
      </trkpt>
      <trkpt lat="49.58614" lon="3.44288">
        <ele>219.8</ele>
        <time>2025-10-05T09:11:20.000Z</time>
      </trkpt>
      <trkpt lat="49.58614" lon="3.44288">
        <ele>219.8</ele>
        <time>2025-10-05T09:11:21.000Z</time>
      </trkpt>
      <trkpt lat="49.58614" lon="3.44288">
        <ele>219.8</ele>
        <time>2025-10-05T09:11:22.000Z</time>
      </trkpt>
      <trkpt lat="49.58614" lon="3.44288">
        <ele>219.8</ele>
        <time>2025-10-05T09:11:23.000Z</time>
      </trkpt>
      <trkpt lat="49.58614" lon="3.44288">
        <ele>219.8</ele>
        <time>2025-10-05T09:11:24.000Z</time>
      </trkpt>
      <trkpt lat="49.58614" lon="3.44288">
        <ele>219.8</ele>
        <time>2025-10-05T09:11:25.000Z</time>
      </trkpt>
      <trkpt lat="49.58614" lon="3.44288">
        <ele>219.8</ele>
        <time>2025-10-05T09:11:26.000Z</time>
      </trkpt>
      <trkpt lat="49.58614" lon="3.44288">
        <ele>219.8</ele>
        <time>2025-10-05T09:11:27.000Z</time>
      </trkpt>
      <trkpt lat="49.58614" lon="3.44288">
        <ele>219.8</ele>
        <time>2025-10-05T09:11:28.000Z</time>
      </trkpt>
      <trkpt lat="49.58614" lon="3.44288">
        <ele>219.8</ele>
        <time>2025-10-05T09:11:29.000Z</time>
      </trkpt>
      <trkpt lat="49.58614" lon="3.44288">
        <ele>219.8</ele>
        <time>2025-10-05T09:11:30.000Z</time>
      </trkpt>
      <trkpt lat="49.58614" lon="3.44288">
        <ele>219.8</ele>
        <time>2025-10-05T09:11:31.000Z</time>
      </trkpt>
      <trkpt lat="49.58614" lon="3.44288">
        <ele>219.8</ele>
        <time>2025-10-05T09:11:32.000Z</time>
      </trkpt>
      <trkpt lat="49.58614" lon="3.44288">
        <ele>219.8</ele>
        <time>2025-10-05T09:11:33.000Z</time>
      </trkpt>
      <trkpt lat="49.58614" lon="3.44288">
        <ele>219.8</ele>
        <time>2025-10-05T09:11:34.000Z</time>
      </trkpt>
      <trkpt lat="49.58614" lon="3.44288">
        <ele>219.8</ele>
        <time>2025-10-05T09:11:35.000Z</time>
      </trkpt>
      <trkpt lat="49.58614" lon="3.44288">
        <ele>219.8</ele>
        <time>2025-10-05T09:11:36.000Z</time>
      </trkpt>
      <trkpt lat="49.58614" lon="3.44288">
        <ele>219.8</ele>
        <time>2025-10-05T09:11:37.000Z</time>
      </trkpt>
      <trkpt lat="49.58614" lon="3.44288">
        <ele>219.8</ele>
        <time>2025-10-05T09:11:38.000Z</time>
      </trkpt>
      <trkpt lat="49.58614" lon="3.44288">
        <ele>219.8</ele>
        <time>2025-10-05T09:11:39.000Z</time>
      </trkpt>
      <trkpt lat="49.58614" lon="3.44288">
        <ele>219.8</ele>
        <time>2025-10-05T09:11:40.000Z</time>
      </trkpt>
      <trkpt lat="49.58614" lon="3.44288">
        <ele>219.8</ele>
        <time>2025-10-05T09:11:41.000Z</time>
      </trkpt>
      <trkpt lat="49.58614" lon="3.44288">
        <ele>219.8</ele>
        <time>2025-10-05T09:11:42.000Z</time>
      </trkpt>
      <trkpt lat="49.58614" lon="3.44288">
        <ele>219.8</ele>
        <time>2025-10-05T09:11:43.000Z</time>
      </trkpt>
      <trkpt lat="49.58614" lon="3.44288">
        <ele>219.8</ele>
        <time>2025-10-05T09:11:44.000Z</time>
      </trkpt>
      <trkpt lat="49.58614" lon="3.44288">
        <ele>219.8</ele>
        <time>2025-10-05T09:11:45.000Z</time>
      </trkpt>
      <trkpt lat="49.58614" lon="3.44288">
        <ele>219.8</ele>
        <time>2025-10-05T09:11:46.000Z</time>
      </trkpt>
      <trkpt lat="49.58614" lon="3.44288">
        <ele>219.8</ele>
        <time>2025-10-05T09:11:47.000Z</time>
      </trkpt>
      <trkpt lat="49.58614" lon="3.44288">
        <ele>219.8</ele>
        <time>2025-10-05T09:11:48.000Z</time>
      </trkpt>
      <trkpt lat="49.58614" lon="3.44288">
        <ele>219.8</ele>
        <time>2025-10-05T09:11:49.000Z</time>
      </trkpt>
      <trkpt lat="49.58614" lon="3.44288">
        <ele>219.8</ele>
        <time>2025-10-05T09:11:50.000Z</time>
      </trkpt>
      <trkpt lat="49.58614" lon="3.44288">
        <ele>219.8</ele>
        <time>2025-10-05T09:11:51.000Z</time>
      </trkpt>
      <trkpt lat="49.58614" lon="3.44288">
        <ele>219.8</ele>
        <time>2025-10-05T09:11:52.000Z</time>
      </trkpt>
      <trkpt lat="49.58614" lon="3.44288">
        <ele>219.8</ele>
        <time>2025-10-05T09:11:53.000Z</time>
      </trkpt>
      <trkpt lat="49.58614" lon="3.44288">
        <ele>219.8</ele>
        <time>2025-10-05T09:11:54.000Z</time>
      </trkpt>
      <trkpt lat="49.58614" lon="3.44288">
        <ele>219.8</ele>
        <time>2025-10-05T09:11:55.000Z</time>
      </trkpt>
      <trkpt lat="49.58614" lon="3.44288">
        <ele>219.8</ele>
        <time>2025-10-05T09:11:56.000Z</time>
      </trkpt>
      <trkpt lat="49.58614" lon="3.44288">
        <ele>219.8</ele>
        <time>2025-10-05T09:11:57.000Z</time>
      </trkpt>
      <trkpt lat="49.58614" lon="3.44288">
        <ele>219.8</ele>
        <time>2025-10-05T09:11:58.000Z</time>
      </trkpt>
      <trkpt lat="49.58614" lon="3.44288">
        <ele>219.8</ele>
        <time>2025-10-05T09:11:59.000Z</time>
      </trkpt>
      <trkpt lat="49.58614" lon="3.44288">
        <ele>219.8</ele>
        <time>2025-10-05T09:12:00.000Z</time>
      </trkpt>
      <trkpt lat="49.58614" lon="3.44288">
        <ele>219.8</ele>
        <time>2025-10-05T09:12:01.000Z</time>
      </trkpt>
      <trkpt lat="49.58614" lon="3.44288">
        <ele>219.8</ele>
        <time>2025-10-05T09:12:02.000Z</time>
      </trkpt>
      <trkpt lat="49.58614" lon="3.44288">
        <ele>219.8</ele>
        <time>2025-10-05T09:12:03.000Z</time>
      </trkpt>
      <trkpt lat="49.58614" lon="3.44288">
        <ele>219.8</ele>
        <time>2025-10-05T09:12:04.000Z</time>
      </trkpt>
      <trkpt lat="49.58614" lon="3.44288">
        <ele>219.8</ele>
        <time>2025-10-05T09:12:05.000Z</time>
      </trkpt>
      <trkpt lat="49.58614" lon="3.44288">
        <ele>219.8</ele>
        <time>2025-10-05T09:12:06.000Z</time>
      </trkpt>
      <trkpt lat="49.58614" lon="3.44288">
        <ele>219.8</ele>
        <time>2025-10-05T09:12:07.000Z</time>
      </trkpt>
      <trkpt lat="49.58614" lon="3.44288">
        <ele>219.8</ele>
        <time>2025-10-05T09:12:08.000Z</time>
      </trkpt>
      <trkpt lat="49.58614" lon="3.44288">
        <ele>219.8</ele>
        <time>2025-10-05T09:12:09.000Z</time>
      </trkpt>
      <trkpt lat="49.58614" lon="3.44288">
        <ele>219.8</ele>
        <time>2025-10-05T09:12:10.000Z</time>
      </trkpt>
      <trkpt lat="49.58614" lon="3.44288">
        <ele>219.8</ele>
        <time>2025-10-05T09:12:11.000Z</time>
      </trkpt>
      <trkpt lat="49.58614" lon="3.44288">
        <ele>219.8</ele>
        <time>2025-10-05T09:12:12.000Z</time>
      </trkpt>
      <trkpt lat="49.58614" lon="3.44288">
        <ele>219.8</ele>
        <time>2025-10-05T09:12:13.000Z</time>
      </trkpt>
      <trkpt lat="49.58614" lon="3.44288">
        <ele>219.8</ele>
        <time>2025-10-05T09:12:14.000Z</time>
      </trkpt>
      <trkpt lat="49.58614" lon="3.44288">
        <ele>219.8</ele>
        <time>2025-10-05T09:12:15.000Z</time>
      </trkpt>
      <trkpt lat="49.58614" lon="3.44288">
        <ele>219.8</ele>
        <time>2025-10-05T09:12:16.000Z</time>
      </trkpt>
      <trkpt lat="49.58614" lon="3.44288">
        <ele>219.8</ele>
        <time>2025-10-05T09:12:17.000Z</time>
      </trkpt>
      <trkpt lat="49.58614" lon="3.44288">
        <ele>219.8</ele>
        <time>2025-10-05T09:12:18.000Z</time>
      </trkpt>
      <trkpt lat="49.58614" lon="3.44288">
        <ele>219.8</ele>
        <time>2025-10-05T09:12:19.000Z</time>
      </trkpt>
      <trkpt lat="49.58614" lon="3.44288">
        <ele>219.8</ele>
        <time>2025-10-05T09:12:20.000Z</time>
      </trkpt>
      <trkpt lat="49.58614" lon="3.44288">
        <ele>219.8</ele>
        <time>2025-10-05T09:12:21.000Z</time>
      </trkpt>
      <trkpt lat="49.58614" lon="3.44288">
        <ele>219.8</ele>
        <time>2025-10-05T09:12:22.000Z</time>
      </trkpt>
      <trkpt lat="49.58614" lon="3.44288">
        <ele>219.8</ele>
        <time>2025-10-05T09:12:23.000Z</time>
      </trkpt>
      <trkpt lat="49.58614" lon="3.44288">
        <ele>219.8</ele>
        <time>2025-10-05T09:12:24.000Z</time>
      </trkpt>
      <trkpt lat="49.58614" lon="3.44288">
        <ele>219.8</ele>
        <time>2025-10-05T09:12:25.000Z</time>
      </trkpt>
      <trkpt lat="49.58614" lon="3.44288">
        <ele>219.8</ele>
        <time>2025-10-05T09:12:26.000Z</time>
      </trkpt>
      <trkpt lat="49.58614" lon="3.44288">
        <ele>219.8</ele>
        <time>2025-10-05T09:12:27.000Z</time>
      </trkpt>
      <trkpt lat="49.58614" lon="3.44288">
        <ele>219.8</ele>
        <time>2025-10-05T09:12:28.000Z</time>
      </trkpt>
      <trkpt lat="49.58614" lon="3.44288">
        <ele>219.8</ele>
        <time>2025-10-05T09:12:29.000Z</time>
      </trkpt>
      <trkpt lat="49.58614" lon="3.44288">
        <ele>219.8</ele>
        <time>2025-10-05T09:12:30.000Z</time>
      </trkpt>
      <trkpt lat="49.58614" lon="3.44288">
        <ele>219.8</ele>
        <time>2025-10-05T09:12:31.000Z</time>
      </trkpt>
      <trkpt lat="49.58614" lon="3.44288">
        <ele>219.8</ele>
        <time>2025-10-05T09:12:32.000Z</time>
      </trkpt>
      <trkpt lat="49.58614" lon="3.44288">
        <ele>219.8</ele>
        <time>2025-10-05T09:12:33.000Z</time>
      </trkpt>
      <trkpt lat="49.58614" lon="3.44288">
        <ele>219.8</ele>
        <time>2025-10-05T09:12:34.000Z</time>
      </trkpt>
      <trkpt lat="49.58614" lon="3.44288">
        <ele>219.8</ele>
        <time>2025-10-05T09:12:35.000Z</time>
      </trkpt>
      <trkpt lat="49.58614" lon="3.44288">
        <ele>219.8</ele>
        <time>2025-10-05T09:12:36.000Z</time>
      </trkpt>
      <trkpt lat="49.58614" lon="3.44288">
        <ele>219.8</ele>
        <time>2025-10-05T09:12:37.000Z</time>
      </trkpt>
      <trkpt lat="49.58614" lon="3.44288">
        <ele>219.8</ele>
        <time>2025-10-05T09:12:38.000Z</time>
      </trkpt>
      <trkpt lat="49.58614" lon="3.44288">
        <ele>219.8</ele>
        <time>2025-10-05T09:12:39.000Z</time>
      </trkpt>
      <trkpt lat="49.58614" lon="3.44288">
        <ele>219.8</ele>
        <time>2025-10-05T09:12:40.000Z</time>
      </trkpt>
      <trkpt lat="49.58614" lon="3.44288">
        <ele>219.8</ele>
        <time>2025-10-05T09:12:41.000Z</time>
      </trkpt>
      <trkpt lat="49.58614" lon="3.44288">
        <ele>219.8</ele>
        <time>2025-10-05T09:12:42.000Z</time>
      </trkpt>
      <trkpt lat="49.58614" lon="3.44288">
        <ele>219.8</ele>
        <time>2025-10-05T09:12:43.000Z</time>
      </trkpt>
      <trkpt lat="49.58614" lon="3.44288">
        <ele>219.8</ele>
        <time>2025-10-05T09:12:44.000Z</time>
      </trkpt>
      <trkpt lat="49.58614" lon="3.44288">
        <ele>219.8</ele>
        <time>2025-10-05T09:12:45.000Z</time>
      </trkpt>
      <trkpt lat="49.58614" lon="3.44288">
        <ele>219.8</ele>
        <time>2025-10-05T09:12:46.000Z</time>
      </trkpt>
      <trkpt lat="49.58614" lon="3.44288">
        <ele>219.8</ele>
        <time>2025-10-05T09:12:47.000Z</time>
      </trkpt>
      <trkpt lat="49.58614" lon="3.44288">
        <ele>219.8</ele>
        <time>2025-10-05T09:12:48.000Z</time>
      </trkpt>
      <trkpt lat="49.58614" lon="3.44288">
        <ele>219.8</ele>
        <time>2025-10-05T09:12:49.000Z</time>
      </trkpt>
      <trkpt lat="49.58614" lon="3.44288">
        <ele>219.8</ele>
        <time>2025-10-05T09:12:50.000Z</time>
      </trkpt>
      <trkpt lat="49.58614" lon="3.44288">
        <ele>219.8</ele>
        <time>2025-10-05T09:12:51.000Z</time>
      </trkpt>
      <trkpt lat="49.58614" lon="3.44288">
        <ele>219.8</ele>
        <time>2025-10-05T09:12:52.000Z</time>
      </trkpt>
      <trkpt lat="49.58614" lon="3.44293">
        <ele>221</ele>
        <time>2025-10-05T09:12:53.000Z</time>
      </trkpt>
      <trkpt lat="49.58614" lon="3.44294">
        <ele>221</ele>
        <time>2025-10-05T09:12:54.000Z</time>
      </trkpt>
      <trkpt lat="49.58614" lon="3.44294">
        <ele>220.7</ele>
        <time>2025-10-05T09:12:55.000Z</time>
      </trkpt>
      <trkpt lat="49.58614" lon="3.44294">
        <ele>220.5</ele>
        <time>2025-10-05T09:12:56.000Z</time>
      </trkpt>
      <trkpt lat="49.58614" lon="3.44294">
        <ele>220.4</ele>
        <time>2025-10-05T09:12:57.000Z</time>
      </trkpt>
      <trkpt lat="49.58614" lon="3.44294">
        <ele>220.5</ele>
        <time>2025-10-05T09:12:58.000Z</time>
      </trkpt>
      <trkpt lat="49.58614" lon="3.44294">
        <ele>220.4</ele>
        <time>2025-10-05T09:12:59.000Z</time>
      </trkpt>
      <trkpt lat="49.58614" lon="3.44294">
        <ele>220.6</ele>
        <time>2025-10-05T09:13:00.000Z</time>
      </trkpt>
      <trkpt lat="49.58614" lon="3.44294">
        <ele>220.6</ele>
        <time>2025-10-05T09:13:01.000Z</time>
      </trkpt>
      <trkpt lat="49.58614" lon="3.44294">
        <ele>220.5</ele>
        <time>2025-10-05T09:13:02.000Z</time>
      </trkpt>
      <trkpt lat="49.58614" lon="3.44294">
        <ele>220.5</ele>
        <time>2025-10-05T09:13:03.000Z</time>
      </trkpt>
      <trkpt lat="49.58614" lon="3.44294">
        <ele>220.5</ele>
        <time>2025-10-05T09:13:04.000Z</time>
      </trkpt>
      <trkpt lat="49.58614" lon="3.44294">
        <ele>220.5</ele>
        <time>2025-10-05T09:13:05.000Z</time>
      </trkpt>
      <trkpt lat="49.58614" lon="3.44294">
        <ele>220.5</ele>
        <time>2025-10-05T09:13:06.000Z</time>
      </trkpt>
      <trkpt lat="49.58614" lon="3.44294">
        <ele>220.5</ele>
        <time>2025-10-05T09:13:07.000Z</time>
      </trkpt>
      <trkpt lat="49.58614" lon="3.44294">
        <ele>220.5</ele>
        <time>2025-10-05T09:13:08.000Z</time>
      </trkpt>
      <trkpt lat="49.58614" lon="3.44294">
        <ele>220.5</ele>
        <time>2025-10-05T09:13:09.000Z</time>
      </trkpt>
      <trkpt lat="49.58614" lon="3.44294">
        <ele>220.5</ele>
        <time>2025-10-05T09:13:10.000Z</time>
      </trkpt>
      <trkpt lat="49.58614" lon="3.44294">
        <ele>220.5</ele>
        <time>2025-10-05T09:13:11.000Z</time>
      </trkpt>
      <trkpt lat="49.58614" lon="3.44294">
        <ele>220.5</ele>
        <time>2025-10-05T09:13:12.000Z</time>
      </trkpt>
      <trkpt lat="49.58614" lon="3.44294">
        <ele>220.5</ele>
        <time>2025-10-05T09:13:13.000Z</time>
      </trkpt>
      <trkpt lat="49.58614" lon="3.44294">
        <ele>220.5</ele>
        <time>2025-10-05T09:13:14.000Z</time>
      </trkpt>
      <trkpt lat="49.58614" lon="3.44294">
        <ele>220.5</ele>
        <time>2025-10-05T09:13:15.000Z</time>
      </trkpt>
      <trkpt lat="49.58614" lon="3.44294">
        <ele>220.5</ele>
        <time>2025-10-05T09:13:16.000Z</time>
      </trkpt>
      <trkpt lat="49.58614" lon="3.44294">
        <ele>220.5</ele>
        <time>2025-10-05T09:13:17.000Z</time>
      </trkpt>
      <trkpt lat="49.58614" lon="3.44294">
        <ele>220.5</ele>
        <time>2025-10-05T09:13:18.000Z</time>
      </trkpt>
      <trkpt lat="49.58614" lon="3.44294">
        <ele>220.5</ele>
        <time>2025-10-05T09:13:19.000Z</time>
      </trkpt>
      <trkpt lat="49.58614" lon="3.44294">
        <ele>220.5</ele>
        <time>2025-10-05T09:13:20.000Z</time>
      </trkpt>
      <trkpt lat="49.58614" lon="3.44294">
        <ele>220.5</ele>
        <time>2025-10-05T09:13:21.000Z</time>
      </trkpt>
      <trkpt lat="49.58614" lon="3.44294">
        <ele>220.5</ele>
        <time>2025-10-05T09:13:22.000Z</time>
      </trkpt>
      <trkpt lat="49.58614" lon="3.44294">
        <ele>220.5</ele>
        <time>2025-10-05T09:13:23.000Z</time>
      </trkpt>
      <trkpt lat="49.58614" lon="3.44294">
        <ele>220.5</ele>
        <time>2025-10-05T09:13:24.000Z</time>
      </trkpt>
      <trkpt lat="49.58614" lon="3.44294">
        <ele>220.5</ele>
        <time>2025-10-05T09:13:25.000Z</time>
      </trkpt>
      <trkpt lat="49.58614" lon="3.44294">
        <ele>220.5</ele>
        <time>2025-10-05T09:13:26.000Z</time>
      </trkpt>
      <trkpt lat="49.58614" lon="3.44294">
        <ele>220.5</ele>
        <time>2025-10-05T09:13:27.000Z</time>
      </trkpt>
      <trkpt lat="49.58614" lon="3.44294">
        <ele>220.5</ele>
        <time>2025-10-05T09:13:28.000Z</time>
      </trkpt>
      <trkpt lat="49.58614" lon="3.44294">
        <ele>220.5</ele>
        <time>2025-10-05T09:13:29.000Z</time>
      </trkpt>
      <trkpt lat="49.58614" lon="3.44294">
        <ele>220.5</ele>
        <time>2025-10-05T09:13:30.000Z</time>
      </trkpt>
      <trkpt lat="49.58621" lon="3.44295">
        <ele>220.6</ele>
        <time>2025-10-05T09:13:31.000Z</time>
      </trkpt>
      <trkpt lat="49.58622" lon="3.44296">
        <ele>220.5</ele>
        <time>2025-10-05T09:13:32.000Z</time>
      </trkpt>
      <trkpt lat="49.58623" lon="3.44296">
        <ele>220.5</ele>
        <time>2025-10-05T09:13:33.000Z</time>
      </trkpt>
      <trkpt lat="49.58624" lon="3.44298">
        <ele>220.3</ele>
        <time>2025-10-05T09:13:34.000Z</time>
      </trkpt>
      <trkpt lat="49.58624" lon="3.44299">
        <ele>220.4</ele>
        <time>2025-10-05T09:13:35.000Z</time>
      </trkpt>
      <trkpt lat="49.58624" lon="3.44301">
        <ele>220.5</ele>
        <time>2025-10-05T09:13:36.000Z</time>
      </trkpt>
      <trkpt lat="49.58625" lon="3.44302">
        <ele>220.5</ele>
        <time>2025-10-05T09:13:37.000Z</time>
      </trkpt>
      <trkpt lat="49.58624" lon="3.44303">
        <ele>220.4</ele>
        <time>2025-10-05T09:13:38.000Z</time>
      </trkpt>
      <trkpt lat="49.58624" lon="3.44304">
        <ele>220.3</ele>
        <time>2025-10-05T09:13:39.000Z</time>
      </trkpt>
      <trkpt lat="49.58624" lon="3.44305">
        <ele>220.4</ele>
        <time>2025-10-05T09:13:40.000Z</time>
      </trkpt>
      <trkpt lat="49.58625" lon="3.44306">
        <ele>220.4</ele>
        <time>2025-10-05T09:13:41.000Z</time>
      </trkpt>
      <trkpt lat="49.58625" lon="3.44307">
        <ele>220.6</ele>
        <time>2025-10-05T09:13:42.000Z</time>
      </trkpt>
      <trkpt lat="49.58626" lon="3.44308">
        <ele>220.6</ele>
        <time>2025-10-05T09:13:43.000Z</time>
      </trkpt>
      <trkpt lat="49.58627" lon="3.44308">
        <ele>220.7</ele>
        <time>2025-10-05T09:13:44.000Z</time>
      </trkpt>
      <trkpt lat="49.58628" lon="3.44309">
        <ele>221</ele>
        <time>2025-10-05T09:13:45.000Z</time>
      </trkpt>
      <trkpt lat="49.58629" lon="3.4431">
        <ele>221.4</ele>
        <time>2025-10-05T09:13:46.000Z</time>
      </trkpt>
      <trkpt lat="49.58629" lon="3.44311">
        <ele>221.5</ele>
        <time>2025-10-05T09:13:47.000Z</time>
      </trkpt>
      <trkpt lat="49.58629" lon="3.44312">
        <ele>222</ele>
        <time>2025-10-05T09:13:48.000Z</time>
      </trkpt>
      <trkpt lat="49.58629" lon="3.44313">
        <ele>222.2</ele>
        <time>2025-10-05T09:13:49.000Z</time>
      </trkpt>
      <trkpt lat="49.58628" lon="3.44314">
        <ele>222.5</ele>
        <time>2025-10-05T09:13:50.000Z</time>
      </trkpt>
      <trkpt lat="49.58628" lon="3.44316">
        <ele>222.7</ele>
        <time>2025-10-05T09:13:51.000Z</time>
      </trkpt>
      <trkpt lat="49.58628" lon="3.44317">
        <ele>222.7</ele>
        <time>2025-10-05T09:13:52.000Z</time>
      </trkpt>
      <trkpt lat="49.58628" lon="3.44319">
        <ele>222.7</ele>
        <time>2025-10-05T09:13:53.000Z</time>
      </trkpt>
      <trkpt lat="49.58628" lon="3.4432">
        <ele>222.5</ele>
        <time>2025-10-05T09:13:54.000Z</time>
      </trkpt>
      <trkpt lat="49.58628" lon="3.44322">
        <ele>222.6</ele>
        <time>2025-10-05T09:13:55.000Z</time>
      </trkpt>
      <trkpt lat="49.58628" lon="3.44323">
        <ele>222.6</ele>
        <time>2025-10-05T09:13:56.000Z</time>
      </trkpt>
      <trkpt lat="49.58628" lon="3.44323">
        <ele>222.5</ele>
        <time>2025-10-05T09:13:57.000Z</time>
      </trkpt>
      <trkpt lat="49.58628" lon="3.44324">
        <ele>222.5</ele>
        <time>2025-10-05T09:13:58.000Z</time>
      </trkpt>
      <trkpt lat="49.58628" lon="3.44325">
        <ele>222.6</ele>
        <time>2025-10-05T09:13:59.000Z</time>
      </trkpt>
      <trkpt lat="49.58628" lon="3.44327">
        <ele>222.8</ele>
        <time>2025-10-05T09:14:00.000Z</time>
      </trkpt>
      <trkpt lat="49.58629" lon="3.44328">
        <ele>222.9</ele>
        <time>2025-10-05T09:14:01.000Z</time>
      </trkpt>
      <trkpt lat="49.58629" lon="3.44329">
        <ele>222.8</ele>
        <time>2025-10-05T09:14:02.000Z</time>
      </trkpt>
      <trkpt lat="49.58629" lon="3.44331">
        <ele>222.7</ele>
        <time>2025-10-05T09:14:03.000Z</time>
      </trkpt>
      <trkpt lat="49.58629" lon="3.44332">
        <ele>222.5</ele>
        <time>2025-10-05T09:14:04.000Z</time>
      </trkpt>
      <trkpt lat="49.58629" lon="3.44333">
        <ele>222.3</ele>
        <time>2025-10-05T09:14:05.000Z</time>
      </trkpt>
      <trkpt lat="49.5863" lon="3.44334">
        <ele>222.3</ele>
        <time>2025-10-05T09:14:06.000Z</time>
      </trkpt>
      <trkpt lat="49.58631" lon="3.44335">
        <ele>222.2</ele>
        <time>2025-10-05T09:14:07.000Z</time>
      </trkpt>
      <trkpt lat="49.58632" lon="3.44336">
        <ele>222.3</ele>
        <time>2025-10-05T09:14:08.000Z</time>
      </trkpt>
      <trkpt lat="49.58632" lon="3.44338">
        <ele>222.1</ele>
        <time>2025-10-05T09:14:09.000Z</time>
      </trkpt>
      <trkpt lat="49.58633" lon="3.44341">
        <ele>222</ele>
        <time>2025-10-05T09:14:10.000Z</time>
      </trkpt>
      <trkpt lat="49.58633" lon="3.44343">
        <ele>221.8</ele>
        <time>2025-10-05T09:14:11.000Z</time>
      </trkpt>
      <trkpt lat="49.58634" lon="3.44345">
        <ele>222</ele>
        <time>2025-10-05T09:14:12.000Z</time>
      </trkpt>
      <trkpt lat="49.58634" lon="3.44346">
        <ele>222</ele>
        <time>2025-10-05T09:14:13.000Z</time>
      </trkpt>
      <trkpt lat="49.58635" lon="3.44347">
        <ele>222.1</ele>
        <time>2025-10-05T09:14:14.000Z</time>
      </trkpt>
      <trkpt lat="49.58635" lon="3.44349">
        <ele>222.3</ele>
        <time>2025-10-05T09:14:15.000Z</time>
      </trkpt>
      <trkpt lat="49.58636" lon="3.4435">
        <ele>222.2</ele>
        <time>2025-10-05T09:14:16.000Z</time>
      </trkpt>
      <trkpt lat="49.58636" lon="3.44352">
        <ele>222.3</ele>
        <time>2025-10-05T09:14:17.000Z</time>
      </trkpt>
      <trkpt lat="49.58637" lon="3.44354">
        <ele>222.4</ele>
        <time>2025-10-05T09:14:18.000Z</time>
      </trkpt>
      <trkpt lat="49.58637" lon="3.44356">
        <ele>222.3</ele>
        <time>2025-10-05T09:14:19.000Z</time>
      </trkpt>
      <trkpt lat="49.58637" lon="3.44358">
        <ele>222</ele>
        <time>2025-10-05T09:14:20.000Z</time>
      </trkpt>
      <trkpt lat="49.58637" lon="3.4436">
        <ele>221.7</ele>
        <time>2025-10-05T09:14:21.000Z</time>
      </trkpt>
      <trkpt lat="49.58638" lon="3.4436">
        <ele>221.6</ele>
        <time>2025-10-05T09:14:22.000Z</time>
      </trkpt>
      <trkpt lat="49.58638" lon="3.44361">
        <ele>221.4</ele>
        <time>2025-10-05T09:14:23.000Z</time>
      </trkpt>
      <trkpt lat="49.58638" lon="3.44363">
        <ele>221.2</ele>
        <time>2025-10-05T09:14:24.000Z</time>
      </trkpt>
      <trkpt lat="49.58639" lon="3.44364">
        <ele>221.1</ele>
        <time>2025-10-05T09:14:25.000Z</time>
      </trkpt>
      <trkpt lat="49.58639" lon="3.44366">
        <ele>220.8</ele>
        <time>2025-10-05T09:14:26.000Z</time>
      </trkpt>
      <trkpt lat="49.58639" lon="3.44368">
        <ele>221.2</ele>
        <time>2025-10-05T09:14:27.000Z</time>
      </trkpt>
      <trkpt lat="49.58639" lon="3.44369">
        <ele>221.5</ele>
        <time>2025-10-05T09:14:28.000Z</time>
      </trkpt>
      <trkpt lat="49.5864" lon="3.4437">
        <ele>221.9</ele>
        <time>2025-10-05T09:14:29.000Z</time>
      </trkpt>
      <trkpt lat="49.5864" lon="3.44371">
        <ele>222.3</ele>
        <time>2025-10-05T09:14:30.000Z</time>
      </trkpt>
      <trkpt lat="49.58641" lon="3.44372">
        <ele>222.5</ele>
        <time>2025-10-05T09:14:31.000Z</time>
      </trkpt>
      <trkpt lat="49.58641" lon="3.44373">
        <ele>222.8</ele>
        <time>2025-10-05T09:14:32.000Z</time>
      </trkpt>
      <trkpt lat="49.58642" lon="3.44374">
        <ele>223.1</ele>
        <time>2025-10-05T09:14:33.000Z</time>
      </trkpt>
      <trkpt lat="49.58642" lon="3.44376">
        <ele>223.2</ele>
        <time>2025-10-05T09:14:34.000Z</time>
      </trkpt>
      <trkpt lat="49.58643" lon="3.44378">
        <ele>223.3</ele>
        <time>2025-10-05T09:14:35.000Z</time>
      </trkpt>
      <trkpt lat="49.58643" lon="3.44379">
        <ele>223.5</ele>
        <time>2025-10-05T09:14:36.000Z</time>
      </trkpt>
      <trkpt lat="49.58644" lon="3.4438">
        <ele>223.5</ele>
        <time>2025-10-05T09:14:37.000Z</time>
      </trkpt>
      <trkpt lat="49.58644" lon="3.44381">
        <ele>223.6</ele>
        <time>2025-10-05T09:14:38.000Z</time>
      </trkpt>
      <trkpt lat="49.58645" lon="3.44382">
        <ele>223.7</ele>
        <time>2025-10-05T09:14:39.000Z</time>
      </trkpt>
      <trkpt lat="49.58645" lon="3.44384">
        <ele>223.8</ele>
        <time>2025-10-05T09:14:40.000Z</time>
      </trkpt>
      <trkpt lat="49.58646" lon="3.44386">
        <ele>224</ele>
        <time>2025-10-05T09:14:41.000Z</time>
      </trkpt>
      <trkpt lat="49.58646" lon="3.44388">
        <ele>224.1</ele>
        <time>2025-10-05T09:14:42.000Z</time>
      </trkpt>
      <trkpt lat="49.58646" lon="3.4439">
        <ele>223.9</ele>
        <time>2025-10-05T09:14:43.000Z</time>
      </trkpt>
      <trkpt lat="49.58646" lon="3.44393">
        <ele>223.7</ele>
        <time>2025-10-05T09:14:44.000Z</time>
      </trkpt>
      <trkpt lat="49.58647" lon="3.44394">
        <ele>223.3</ele>
        <time>2025-10-05T09:14:45.000Z</time>
      </trkpt>
      <trkpt lat="49.58647" lon="3.44394">
        <ele>223.1</ele>
        <time>2025-10-05T09:14:46.000Z</time>
      </trkpt>
      <trkpt lat="49.58648" lon="3.44396">
        <ele>223</ele>
        <time>2025-10-05T09:14:47.000Z</time>
      </trkpt>
      <trkpt lat="49.58648" lon="3.44397">
        <ele>223.1</ele>
        <time>2025-10-05T09:14:48.000Z</time>
      </trkpt>
      <trkpt lat="49.58649" lon="3.44398">
        <ele>223.2</ele>
        <time>2025-10-05T09:14:49.000Z</time>
      </trkpt>
      <trkpt lat="49.5865" lon="3.44399">
        <ele>223.5</ele>
        <time>2025-10-05T09:14:50.000Z</time>
      </trkpt>
      <trkpt lat="49.58651" lon="3.44401">
        <ele>224</ele>
        <time>2025-10-05T09:14:51.000Z</time>
      </trkpt>
      <trkpt lat="49.58651" lon="3.44402">
        <ele>224.5</ele>
        <time>2025-10-05T09:14:52.000Z</time>
      </trkpt>
      <trkpt lat="49.58652" lon="3.44404">
        <ele>224.7</ele>
        <time>2025-10-05T09:14:53.000Z</time>
      </trkpt>
      <trkpt lat="49.58653" lon="3.44406">
        <ele>225.1</ele>
        <time>2025-10-05T09:14:54.000Z</time>
      </trkpt>
      <trkpt lat="49.58653" lon="3.44408">
        <ele>225.2</ele>
        <time>2025-10-05T09:14:55.000Z</time>
      </trkpt>
      <trkpt lat="49.58654" lon="3.44409">
        <ele>225.4</ele>
        <time>2025-10-05T09:14:56.000Z</time>
      </trkpt>
      <trkpt lat="49.58655" lon="3.4441">
        <ele>225.4</ele>
        <time>2025-10-05T09:14:57.000Z</time>
      </trkpt>
      <trkpt lat="49.58655" lon="3.44411">
        <ele>225.4</ele>
        <time>2025-10-05T09:14:58.000Z</time>
      </trkpt>
      <trkpt lat="49.58656" lon="3.44412">
        <ele>225.4</ele>
        <time>2025-10-05T09:14:59.000Z</time>
      </trkpt>
      <trkpt lat="49.58657" lon="3.44413">
        <ele>225.5</ele>
        <time>2025-10-05T09:15:00.000Z</time>
      </trkpt>
      <trkpt lat="49.58657" lon="3.44415">
        <ele>225.4</ele>
        <time>2025-10-05T09:15:01.000Z</time>
      </trkpt>
      <trkpt lat="49.58658" lon="3.44418">
        <ele>225.3</ele>
        <time>2025-10-05T09:15:02.000Z</time>
      </trkpt>
      <trkpt lat="49.58658" lon="3.4442">
        <ele>225.3</ele>
        <time>2025-10-05T09:15:03.000Z</time>
      </trkpt>
      <trkpt lat="49.58659" lon="3.44422">
        <ele>225.3</ele>
        <time>2025-10-05T09:15:04.000Z</time>
      </trkpt>
      <trkpt lat="49.58659" lon="3.44424">
        <ele>225.3</ele>
        <time>2025-10-05T09:15:05.000Z</time>
      </trkpt>
      <trkpt lat="49.58659" lon="3.44424">
        <ele>225.3</ele>
        <time>2025-10-05T09:15:06.000Z</time>
      </trkpt>
      <trkpt lat="49.5866" lon="3.44425">
        <ele>225.1</ele>
        <time>2025-10-05T09:15:07.000Z</time>
      </trkpt>
      <trkpt lat="49.5866" lon="3.44426">
        <ele>225</ele>
        <time>2025-10-05T09:15:08.000Z</time>
      </trkpt>
      <trkpt lat="49.5866" lon="3.44428">
        <ele>224.9</ele>
        <time>2025-10-05T09:15:09.000Z</time>
      </trkpt>
      <trkpt lat="49.58661" lon="3.44429">
        <ele>224.7</ele>
        <time>2025-10-05T09:15:10.000Z</time>
      </trkpt>
      <trkpt lat="49.58661" lon="3.44431">
        <ele>224.8</ele>
        <time>2025-10-05T09:15:11.000Z</time>
      </trkpt>
      <trkpt lat="49.58661" lon="3.44433">
        <ele>224.5</ele>
        <time>2025-10-05T09:15:12.000Z</time>
      </trkpt>
      <trkpt lat="49.58661" lon="3.44435">
        <ele>224.1</ele>
        <time>2025-10-05T09:15:13.000Z</time>
      </trkpt>
      <trkpt lat="49.58662" lon="3.44436">
        <ele>223.7</ele>
        <time>2025-10-05T09:15:14.000Z</time>
      </trkpt>
      <trkpt lat="49.58662" lon="3.44437">
        <ele>223.3</ele>
        <time>2025-10-05T09:15:15.000Z</time>
      </trkpt>
      <trkpt lat="49.58662" lon="3.44438">
        <ele>223.4</ele>
        <time>2025-10-05T09:15:16.000Z</time>
      </trkpt>
      <trkpt lat="49.58662" lon="3.4444">
        <ele>223.5</ele>
        <time>2025-10-05T09:15:17.000Z</time>
      </trkpt>
      <trkpt lat="49.58663" lon="3.44441">
        <ele>223.8</ele>
        <time>2025-10-05T09:15:18.000Z</time>
      </trkpt>
      <trkpt lat="49.58663" lon="3.44443">
        <ele>224.1</ele>
        <time>2025-10-05T09:15:19.000Z</time>
      </trkpt>
      <trkpt lat="49.58664" lon="3.44445">
        <ele>224.3</ele>
        <time>2025-10-05T09:15:20.000Z</time>
      </trkpt>
      <trkpt lat="49.58664" lon="3.44447">
        <ele>224.5</ele>
        <time>2025-10-05T09:15:21.000Z</time>
      </trkpt>
      <trkpt lat="49.58664" lon="3.44448">
        <ele>224.9</ele>
        <time>2025-10-05T09:15:22.000Z</time>
      </trkpt>
      <trkpt lat="49.58664" lon="3.44449">
        <ele>225.1</ele>
        <time>2025-10-05T09:15:23.000Z</time>
      </trkpt>
      <trkpt lat="49.58665" lon="3.4445">
        <ele>225.4</ele>
        <time>2025-10-05T09:15:24.000Z</time>
      </trkpt>
      <trkpt lat="49.58666" lon="3.44451">
        <ele>225.6</ele>
        <time>2025-10-05T09:15:25.000Z</time>
      </trkpt>
      <trkpt lat="49.58667" lon="3.44453">
        <ele>225.9</ele>
        <time>2025-10-05T09:15:26.000Z</time>
      </trkpt>
      <trkpt lat="49.58668" lon="3.44454">
        <ele>226.1</ele>
        <time>2025-10-05T09:15:27.000Z</time>
      </trkpt>
      <trkpt lat="49.58668" lon="3.44455">
        <ele>226.5</ele>
        <time>2025-10-05T09:15:28.000Z</time>
      </trkpt>
      <trkpt lat="49.58668" lon="3.44457">
        <ele>226.4</ele>
        <time>2025-10-05T09:15:29.000Z</time>
      </trkpt>
      <trkpt lat="49.58668" lon="3.44458">
        <ele>226.2</ele>
        <time>2025-10-05T09:15:30.000Z</time>
      </trkpt>
      <trkpt lat="49.58668" lon="3.44459">
        <ele>226.1</ele>
        <time>2025-10-05T09:15:31.000Z</time>
      </trkpt>
      <trkpt lat="49.58669" lon="3.4446">
        <ele>225.9</ele>
        <time>2025-10-05T09:15:32.000Z</time>
      </trkpt>
      <trkpt lat="49.58669" lon="3.44461">
        <ele>225.7</ele>
        <time>2025-10-05T09:15:33.000Z</time>
      </trkpt>
      <trkpt lat="49.58669" lon="3.44463">
        <ele>225.9</ele>
        <time>2025-10-05T09:15:34.000Z</time>
      </trkpt>
      <trkpt lat="49.5867" lon="3.44464">
        <ele>226.1</ele>
        <time>2025-10-05T09:15:35.000Z</time>
      </trkpt>
      <trkpt lat="49.58671" lon="3.44465">
        <ele>226.5</ele>
        <time>2025-10-05T09:15:36.000Z</time>
      </trkpt>
      <trkpt lat="49.58671" lon="3.44466">
        <ele>227</ele>
        <time>2025-10-05T09:15:37.000Z</time>
      </trkpt>
      <trkpt lat="49.58672" lon="3.44468">
        <ele>226.9</ele>
        <time>2025-10-05T09:15:38.000Z</time>
      </trkpt>
      <trkpt lat="49.58672" lon="3.44469">
        <ele>226.6</ele>
        <time>2025-10-05T09:15:39.000Z</time>
      </trkpt>
      <trkpt lat="49.58673" lon="3.44471">
        <ele>226.7</ele>
        <time>2025-10-05T09:15:40.000Z</time>
      </trkpt>
      <trkpt lat="49.58674" lon="3.44472">
        <ele>227</ele>
        <time>2025-10-05T09:15:41.000Z</time>
      </trkpt>
      <trkpt lat="49.58674" lon="3.44473">
        <ele>226.9</ele>
        <time>2025-10-05T09:15:42.000Z</time>
      </trkpt>
      <trkpt lat="49.58674" lon="3.44474">
        <ele>226.8</ele>
        <time>2025-10-05T09:15:43.000Z</time>
      </trkpt>
      <trkpt lat="49.58675" lon="3.44475">
        <ele>226.6</ele>
        <time>2025-10-05T09:15:44.000Z</time>
      </trkpt>
      <trkpt lat="49.58675" lon="3.44476">
        <ele>226.7</ele>
        <time>2025-10-05T09:15:45.000Z</time>
      </trkpt>
      <trkpt lat="49.58676" lon="3.44478">
        <ele>226.7</ele>
        <time>2025-10-05T09:15:46.000Z</time>
      </trkpt>
      <trkpt lat="49.58677" lon="3.4448">
        <ele>226.8</ele>
        <time>2025-10-05T09:15:47.000Z</time>
      </trkpt>
      <trkpt lat="49.58677" lon="3.44481">
        <ele>227</ele>
        <time>2025-10-05T09:15:48.000Z</time>
      </trkpt>
      <trkpt lat="49.58678" lon="3.44483">
        <ele>227.2</ele>
        <time>2025-10-05T09:15:49.000Z</time>
      </trkpt>
      <trkpt lat="49.58678" lon="3.44484">
        <ele>227.3</ele>
        <time>2025-10-05T09:15:50.000Z</time>
      </trkpt>
      <trkpt lat="49.58678" lon="3.44486">
        <ele>227.4</ele>
        <time>2025-10-05T09:15:51.000Z</time>
      </trkpt>
      <trkpt lat="49.58678" lon="3.44488">
        <ele>227.4</ele>
        <time>2025-10-05T09:15:52.000Z</time>
      </trkpt>
      <trkpt lat="49.58679" lon="3.4449">
        <ele>227.6</ele>
        <time>2025-10-05T09:15:53.000Z</time>
      </trkpt>
      <trkpt lat="49.5868" lon="3.44491">
        <ele>228.2</ele>
        <time>2025-10-05T09:15:54.000Z</time>
      </trkpt>
      <trkpt lat="49.5868" lon="3.44492">
        <ele>228.7</ele>
        <time>2025-10-05T09:15:55.000Z</time>
      </trkpt>
      <trkpt lat="49.5868" lon="3.44494">
        <ele>229.2</ele>
        <time>2025-10-05T09:15:56.000Z</time>
      </trkpt>
      <trkpt lat="49.58681" lon="3.44495">
        <ele>229.6</ele>
        <time>2025-10-05T09:15:57.000Z</time>
      </trkpt>
      <trkpt lat="49.58681" lon="3.44497">
        <ele>230</ele>
        <time>2025-10-05T09:15:58.000Z</time>
      </trkpt>
      <trkpt lat="49.58681" lon="3.44498">
        <ele>230</ele>
        <time>2025-10-05T09:15:59.000Z</time>
      </trkpt>
      <trkpt lat="49.58682" lon="3.44499">
        <ele>230.3</ele>
        <time>2025-10-05T09:16:00.000Z</time>
      </trkpt>
      <trkpt lat="49.58682" lon="3.44501">
        <ele>230.4</ele>
        <time>2025-10-05T09:16:01.000Z</time>
      </trkpt>
      <trkpt lat="49.58683" lon="3.44502">
        <ele>230.8</ele>
        <time>2025-10-05T09:16:02.000Z</time>
      </trkpt>
      <trkpt lat="49.58683" lon="3.44503">
        <ele>231</ele>
        <time>2025-10-05T09:16:03.000Z</time>
      </trkpt>
      <trkpt lat="49.58684" lon="3.44505">
        <ele>231.2</ele>
        <time>2025-10-05T09:16:04.000Z</time>
      </trkpt>
      <trkpt lat="49.58684" lon="3.44506">
        <ele>231.4</ele>
        <time>2025-10-05T09:16:05.000Z</time>
      </trkpt>
      <trkpt lat="49.58684" lon="3.44508">
        <ele>231.5</ele>
        <time>2025-10-05T09:16:06.000Z</time>
      </trkpt>
      <trkpt lat="49.58685" lon="3.44508">
        <ele>231.6</ele>
        <time>2025-10-05T09:16:07.000Z</time>
      </trkpt>
      <trkpt lat="49.58686" lon="3.44509">
        <ele>231.6</ele>
        <time>2025-10-05T09:16:08.000Z</time>
      </trkpt>
      <trkpt lat="49.58686" lon="3.4451">
        <ele>231.5</ele>
        <time>2025-10-05T09:16:09.000Z</time>
      </trkpt>
      <trkpt lat="49.58686" lon="3.44511">
        <ele>231.3</ele>
        <time>2025-10-05T09:16:10.000Z</time>
      </trkpt>
      <trkpt lat="49.58687" lon="3.44512">
        <ele>231.1</ele>
        <time>2025-10-05T09:16:11.000Z</time>
      </trkpt>
      <trkpt lat="49.58688" lon="3.44513">
        <ele>231.2</ele>
        <time>2025-10-05T09:16:12.000Z</time>
      </trkpt>
      <trkpt lat="49.58689" lon="3.44514">
        <ele>231.6</ele>
        <time>2025-10-05T09:16:13.000Z</time>
      </trkpt>
      <trkpt lat="49.58691" lon="3.44516">
        <ele>231.6</ele>
        <time>2025-10-05T09:16:14.000Z</time>
      </trkpt>
      <trkpt lat="49.58691" lon="3.44517">
        <ele>231.7</ele>
        <time>2025-10-05T09:16:15.000Z</time>
      </trkpt>
      <trkpt lat="49.58692" lon="3.44519">
        <ele>231.7</ele>
        <time>2025-10-05T09:16:16.000Z</time>
      </trkpt>
      <trkpt lat="49.58693" lon="3.4452">
        <ele>231.8</ele>
        <time>2025-10-05T09:16:17.000Z</time>
      </trkpt>
      <trkpt lat="49.58693" lon="3.44522">
        <ele>231.9</ele>
        <time>2025-10-05T09:16:18.000Z</time>
      </trkpt>
      <trkpt lat="49.58694" lon="3.44524">
        <ele>231.9</ele>
        <time>2025-10-05T09:16:19.000Z</time>
      </trkpt>
      <trkpt lat="49.58694" lon="3.44525">
        <ele>232</ele>
        <time>2025-10-05T09:16:20.000Z</time>
      </trkpt>
      <trkpt lat="49.58695" lon="3.44526">
        <ele>231.8</ele>
        <time>2025-10-05T09:16:21.000Z</time>
      </trkpt>
      <trkpt lat="49.58695" lon="3.44527">
        <ele>231.7</ele>
        <time>2025-10-05T09:16:22.000Z</time>
      </trkpt>
      <trkpt lat="49.58695" lon="3.44529">
        <ele>231.9</ele>
        <time>2025-10-05T09:16:23.000Z</time>
      </trkpt>
      <trkpt lat="49.58695" lon="3.4453">
        <ele>232</ele>
        <time>2025-10-05T09:16:24.000Z</time>
      </trkpt>
      <trkpt lat="49.58695" lon="3.44532">
        <ele>232.3</ele>
        <time>2025-10-05T09:16:25.000Z</time>
      </trkpt>
      <trkpt lat="49.58695" lon="3.44534">
        <ele>232.2</ele>
        <time>2025-10-05T09:16:26.000Z</time>
      </trkpt>
      <trkpt lat="49.58696" lon="3.44536">
        <ele>232.1</ele>
        <time>2025-10-05T09:16:27.000Z</time>
      </trkpt>
      <trkpt lat="49.58696" lon="3.44538">
        <ele>232.1</ele>
        <time>2025-10-05T09:16:28.000Z</time>
      </trkpt>
      <trkpt lat="49.58696" lon="3.44538">
        <ele>232.1</ele>
        <time>2025-10-05T09:16:29.000Z</time>
      </trkpt>
      <trkpt lat="49.58697" lon="3.4454">
        <ele>232</ele>
        <time>2025-10-05T09:16:30.000Z</time>
      </trkpt>
      <trkpt lat="49.58697" lon="3.44541">
        <ele>231.8</ele>
        <time>2025-10-05T09:16:31.000Z</time>
      </trkpt>
      <trkpt lat="49.58697" lon="3.44542">
        <ele>232</ele>
        <time>2025-10-05T09:16:32.000Z</time>
      </trkpt>
      <trkpt lat="49.58697" lon="3.44544">
        <ele>232.1</ele>
        <time>2025-10-05T09:16:33.000Z</time>
      </trkpt>
      <trkpt lat="49.58698" lon="3.44546">
        <ele>231.9</ele>
        <time>2025-10-05T09:16:34.000Z</time>
      </trkpt>
      <trkpt lat="49.58698" lon="3.44548">
        <ele>231.5</ele>
        <time>2025-10-05T09:16:35.000Z</time>
      </trkpt>
      <trkpt lat="49.58699" lon="3.44549">
        <ele>231.6</ele>
        <time>2025-10-05T09:16:36.000Z</time>
      </trkpt>
      <trkpt lat="49.58699" lon="3.44551">
        <ele>231.7</ele>
        <time>2025-10-05T09:16:37.000Z</time>
      </trkpt>
      <trkpt lat="49.58699" lon="3.44552">
        <ele>231.8</ele>
        <time>2025-10-05T09:16:38.000Z</time>
      </trkpt>
      <trkpt lat="49.587" lon="3.44553">
        <ele>231.9</ele>
        <time>2025-10-05T09:16:39.000Z</time>
      </trkpt>
      <trkpt lat="49.587" lon="3.44554">
        <ele>232</ele>
        <time>2025-10-05T09:16:40.000Z</time>
      </trkpt>
      <trkpt lat="49.58701" lon="3.44556">
        <ele>232</ele>
        <time>2025-10-05T09:16:41.000Z</time>
      </trkpt>
      <trkpt lat="49.58701" lon="3.44557">
        <ele>232.1</ele>
        <time>2025-10-05T09:16:42.000Z</time>
      </trkpt>
      <trkpt lat="49.58702" lon="3.44559">
        <ele>232</ele>
        <time>2025-10-05T09:16:43.000Z</time>
      </trkpt>
      <trkpt lat="49.58702" lon="3.4456">
        <ele>231.7</ele>
        <time>2025-10-05T09:16:44.000Z</time>
      </trkpt>
      <trkpt lat="49.58703" lon="3.44562">
        <ele>231.4</ele>
        <time>2025-10-05T09:16:45.000Z</time>
      </trkpt>
      <trkpt lat="49.58703" lon="3.44564">
        <ele>231.1</ele>
        <time>2025-10-05T09:16:46.000Z</time>
      </trkpt>
      <trkpt lat="49.58704" lon="3.44565">
        <ele>231</ele>
        <time>2025-10-05T09:16:47.000Z</time>
      </trkpt>
      <trkpt lat="49.58705" lon="3.44565">
        <ele>231</ele>
        <time>2025-10-05T09:16:48.000Z</time>
      </trkpt>
      <trkpt lat="49.58706" lon="3.44566">
        <ele>230.9</ele>
        <time>2025-10-05T09:16:49.000Z</time>
      </trkpt>
      <trkpt lat="49.58706" lon="3.44568">
        <ele>230.8</ele>
        <time>2025-10-05T09:16:50.000Z</time>
      </trkpt>
      <trkpt lat="49.58707" lon="3.44569">
        <ele>230.7</ele>
        <time>2025-10-05T09:16:51.000Z</time>
      </trkpt>
      <trkpt lat="49.58707" lon="3.4457">
        <ele>230.6</ele>
        <time>2025-10-05T09:16:52.000Z</time>
      </trkpt>
      <trkpt lat="49.58707" lon="3.44572">
        <ele>230.1</ele>
        <time>2025-10-05T09:16:53.000Z</time>
      </trkpt>
      <trkpt lat="49.58708" lon="3.44573">
        <ele>229.8</ele>
        <time>2025-10-05T09:16:54.000Z</time>
      </trkpt>
      <trkpt lat="49.58708" lon="3.44575">
        <ele>229.4</ele>
        <time>2025-10-05T09:16:55.000Z</time>
      </trkpt>
      <trkpt lat="49.58708" lon="3.44576">
        <ele>229.4</ele>
        <time>2025-10-05T09:16:56.000Z</time>
      </trkpt>
      <trkpt lat="49.58708" lon="3.44578">
        <ele>229.4</ele>
        <time>2025-10-05T09:16:57.000Z</time>
      </trkpt>
      <trkpt lat="49.58708" lon="3.4458">
        <ele>229.3</ele>
        <time>2025-10-05T09:16:58.000Z</time>
      </trkpt>
      <trkpt lat="49.58709" lon="3.44581">
        <ele>229.4</ele>
        <time>2025-10-05T09:16:59.000Z</time>
      </trkpt>
      <trkpt lat="49.58709" lon="3.44583">
        <ele>229.5</ele>
        <time>2025-10-05T09:17:00.000Z</time>
      </trkpt>
      <trkpt lat="49.5871" lon="3.44585">
        <ele>229.7</ele>
        <time>2025-10-05T09:17:01.000Z</time>
      </trkpt>
      <trkpt lat="49.5871" lon="3.44588">
        <ele>229.9</ele>
        <time>2025-10-05T09:17:02.000Z</time>
      </trkpt>
      <trkpt lat="49.58711" lon="3.44589">
        <ele>230.2</ele>
        <time>2025-10-05T09:17:03.000Z</time>
      </trkpt>
      <trkpt lat="49.58712" lon="3.44591">
        <ele>230.7</ele>
        <time>2025-10-05T09:17:04.000Z</time>
      </trkpt>
      <trkpt lat="49.58712" lon="3.44592">
        <ele>231.2</ele>
        <time>2025-10-05T09:17:05.000Z</time>
      </trkpt>
      <trkpt lat="49.58713" lon="3.44592">
        <ele>231.5</ele>
        <time>2025-10-05T09:17:06.000Z</time>
      </trkpt>
      <trkpt lat="49.58712" lon="3.44594">
        <ele>231.8</ele>
        <time>2025-10-05T09:17:07.000Z</time>
      </trkpt>
      <trkpt lat="49.58713" lon="3.44595">
        <ele>231.9</ele>
        <time>2025-10-05T09:17:08.000Z</time>
      </trkpt>
      <trkpt lat="49.58713" lon="3.44596">
        <ele>231.9</ele>
        <time>2025-10-05T09:17:09.000Z</time>
      </trkpt>
      <trkpt lat="49.58713" lon="3.44598">
        <ele>231.9</ele>
        <time>2025-10-05T09:17:10.000Z</time>
      </trkpt>
      <trkpt lat="49.58714" lon="3.44599">
        <ele>231.9</ele>
        <time>2025-10-05T09:17:11.000Z</time>
      </trkpt>
      <trkpt lat="49.58714" lon="3.44601">
        <ele>231.7</ele>
        <time>2025-10-05T09:17:12.000Z</time>
      </trkpt>
      <trkpt lat="49.58715" lon="3.44603">
        <ele>231.5</ele>
        <time>2025-10-05T09:17:13.000Z</time>
      </trkpt>
      <trkpt lat="49.58715" lon="3.44605">
        <ele>231.2</ele>
        <time>2025-10-05T09:17:14.000Z</time>
      </trkpt>
      <trkpt lat="49.58715" lon="3.44607">
        <ele>231</ele>
        <time>2025-10-05T09:17:15.000Z</time>
      </trkpt>
      <trkpt lat="49.58715" lon="3.44609">
        <ele>230.7</ele>
        <time>2025-10-05T09:17:16.000Z</time>
      </trkpt>
      <trkpt lat="49.58715" lon="3.44611">
        <ele>230.7</ele>
        <time>2025-10-05T09:17:17.000Z</time>
      </trkpt>
      <trkpt lat="49.58715" lon="3.44612">
        <ele>230.8</ele>
        <time>2025-10-05T09:17:18.000Z</time>
      </trkpt>
      <trkpt lat="49.58715" lon="3.44613">
        <ele>231.5</ele>
        <time>2025-10-05T09:17:19.000Z</time>
      </trkpt>
      <trkpt lat="49.58715" lon="3.44613">
        <ele>231.8</ele>
        <time>2025-10-05T09:17:20.000Z</time>
      </trkpt>
      <trkpt lat="49.58715" lon="3.44615">
        <ele>231.9</ele>
        <time>2025-10-05T09:17:21.000Z</time>
      </trkpt>
      <trkpt lat="49.58716" lon="3.44616">
        <ele>232.2</ele>
        <time>2025-10-05T09:17:22.000Z</time>
      </trkpt>
      <trkpt lat="49.58717" lon="3.44617">
        <ele>232.3</ele>
        <time>2025-10-05T09:17:23.000Z</time>
      </trkpt>
      <trkpt lat="49.58717" lon="3.44619">
        <ele>232.4</ele>
        <time>2025-10-05T09:17:24.000Z</time>
      </trkpt>
      <trkpt lat="49.58718" lon="3.44621">
        <ele>232</ele>
        <time>2025-10-05T09:17:25.000Z</time>
      </trkpt>
      <trkpt lat="49.58718" lon="3.44622">
        <ele>231.6</ele>
        <time>2025-10-05T09:17:26.000Z</time>
      </trkpt>
      <trkpt lat="49.58718" lon="3.44623">
        <ele>231.3</ele>
        <time>2025-10-05T09:17:27.000Z</time>
      </trkpt>
      <trkpt lat="49.58719" lon="3.44624">
        <ele>231.2</ele>
        <time>2025-10-05T09:17:28.000Z</time>
      </trkpt>
      <trkpt lat="49.58719" lon="3.44625">
        <ele>231.6</ele>
        <time>2025-10-05T09:17:29.000Z</time>
      </trkpt>
      <trkpt lat="49.5872" lon="3.44626">
        <ele>231.9</ele>
        <time>2025-10-05T09:17:30.000Z</time>
      </trkpt>
      <trkpt lat="49.5872" lon="3.44628">
        <ele>232.1</ele>
        <time>2025-10-05T09:17:31.000Z</time>
      </trkpt>
      <trkpt lat="49.58721" lon="3.4463">
        <ele>232</ele>
        <time>2025-10-05T09:17:32.000Z</time>
      </trkpt>
      <trkpt lat="49.58721" lon="3.44632">
        <ele>232</ele>
        <time>2025-10-05T09:17:33.000Z</time>
      </trkpt>
      <trkpt lat="49.58722" lon="3.44633">
        <ele>232.1</ele>
        <time>2025-10-05T09:17:34.000Z</time>
      </trkpt>
      <trkpt lat="49.58722" lon="3.44635">
        <ele>231.9</ele>
        <time>2025-10-05T09:17:35.000Z</time>
      </trkpt>
      <trkpt lat="49.58722" lon="3.44636">
        <ele>231.9</ele>
        <time>2025-10-05T09:17:36.000Z</time>
      </trkpt>
      <trkpt lat="49.58723" lon="3.44636">
        <ele>231.6</ele>
        <time>2025-10-05T09:17:37.000Z</time>
      </trkpt>
      <trkpt lat="49.58723" lon="3.44638">
        <ele>231.3</ele>
        <time>2025-10-05T09:17:38.000Z</time>
      </trkpt>
      <trkpt lat="49.58723" lon="3.44638">
        <ele>231.1</ele>
        <time>2025-10-05T09:17:39.000Z</time>
      </trkpt>
      <trkpt lat="49.58724" lon="3.4464">
        <ele>231</ele>
        <time>2025-10-05T09:17:40.000Z</time>
      </trkpt>
      <trkpt lat="49.58725" lon="3.44642">
        <ele>230.9</ele>
        <time>2025-10-05T09:17:41.000Z</time>
      </trkpt>
      <trkpt lat="49.58725" lon="3.44643">
        <ele>230.8</ele>
        <time>2025-10-05T09:17:42.000Z</time>
      </trkpt>
      <trkpt lat="49.58725" lon="3.44644">
        <ele>230.9</ele>
        <time>2025-10-05T09:17:43.000Z</time>
      </trkpt>
      <trkpt lat="49.58726" lon="3.44645">
        <ele>230.8</ele>
        <time>2025-10-05T09:17:44.000Z</time>
      </trkpt>
      <trkpt lat="49.58726" lon="3.44647">
        <ele>231.1</ele>
        <time>2025-10-05T09:17:45.000Z</time>
      </trkpt>
      <trkpt lat="49.58727" lon="3.44648">
        <ele>231.2</ele>
        <time>2025-10-05T09:17:46.000Z</time>
      </trkpt>
      <trkpt lat="49.58728" lon="3.44649">
        <ele>231.5</ele>
        <time>2025-10-05T09:17:47.000Z</time>
      </trkpt>
      <trkpt lat="49.58728" lon="3.44652">
        <ele>231.5</ele>
        <time>2025-10-05T09:17:48.000Z</time>
      </trkpt>
      <trkpt lat="49.58728" lon="3.44654">
        <ele>231.3</ele>
        <time>2025-10-05T09:17:49.000Z</time>
      </trkpt>
      <trkpt lat="49.58728" lon="3.44655">
        <ele>231</ele>
        <time>2025-10-05T09:17:50.000Z</time>
      </trkpt>
      <trkpt lat="49.58728" lon="3.44656">
        <ele>230.9</ele>
        <time>2025-10-05T09:17:51.000Z</time>
      </trkpt>
      <trkpt lat="49.58727" lon="3.44657">
        <ele>230.9</ele>
        <time>2025-10-05T09:17:52.000Z</time>
      </trkpt>
      <trkpt lat="49.58728" lon="3.44658">
        <ele>230.9</ele>
        <time>2025-10-05T09:17:53.000Z</time>
      </trkpt>
      <trkpt lat="49.58728" lon="3.44659">
        <ele>230.6</ele>
        <time>2025-10-05T09:17:54.000Z</time>
      </trkpt>
      <trkpt lat="49.58727" lon="3.4466">
        <ele>230.4</ele>
        <time>2025-10-05T09:17:55.000Z</time>
      </trkpt>
      <trkpt lat="49.58727" lon="3.4466">
        <ele>230.2</ele>
        <time>2025-10-05T09:17:56.000Z</time>
      </trkpt>
      <trkpt lat="49.58727" lon="3.4466">
        <ele>230.3</ele>
        <time>2025-10-05T09:17:57.000Z</time>
      </trkpt>
      <trkpt lat="49.58727" lon="3.4466">
        <ele>230.2</ele>
        <time>2025-10-05T09:17:58.000Z</time>
      </trkpt>
      <trkpt lat="49.58727" lon="3.4466">
        <ele>230.3</ele>
        <time>2025-10-05T09:17:59.000Z</time>
      </trkpt>
      <trkpt lat="49.58727" lon="3.4466">
        <ele>230.4</ele>
        <time>2025-10-05T09:18:00.000Z</time>
      </trkpt>
      <trkpt lat="49.58727" lon="3.4466">
        <ele>230.5</ele>
        <time>2025-10-05T09:18:01.000Z</time>
      </trkpt>
      <trkpt lat="49.58727" lon="3.44659">
        <ele>230.4</ele>
        <time>2025-10-05T09:18:02.000Z</time>
      </trkpt>
      <trkpt lat="49.58727" lon="3.4466">
        <ele>230.5</ele>
        <time>2025-10-05T09:18:03.000Z</time>
      </trkpt>
      <trkpt lat="49.58727" lon="3.4466">
        <ele>230.4</ele>
        <time>2025-10-05T09:18:04.000Z</time>
      </trkpt>
      <trkpt lat="49.58727" lon="3.4466">
        <ele>230.6</ele>
        <time>2025-10-05T09:18:05.000Z</time>
      </trkpt>
      <trkpt lat="49.58727" lon="3.44661">
        <ele>230.7</ele>
        <time>2025-10-05T09:18:06.000Z</time>
      </trkpt>
      <trkpt lat="49.58727" lon="3.44661">
        <ele>230.7</ele>
        <time>2025-10-05T09:18:07.000Z</time>
      </trkpt>
      <trkpt lat="49.58727" lon="3.44661">
        <ele>230.8</ele>
        <time>2025-10-05T09:18:08.000Z</time>
      </trkpt>
      <trkpt lat="49.58727" lon="3.44661">
        <ele>231</ele>
        <time>2025-10-05T09:18:09.000Z</time>
      </trkpt>
      <trkpt lat="49.58727" lon="3.4466">
        <ele>231</ele>
        <time>2025-10-05T09:18:10.000Z</time>
      </trkpt>
      <trkpt lat="49.58728" lon="3.4466">
        <ele>230.9</ele>
        <time>2025-10-05T09:18:11.000Z</time>
      </trkpt>
      <trkpt lat="49.58728" lon="3.44659">
        <ele>230.8</ele>
        <time>2025-10-05T09:18:12.000Z</time>
      </trkpt>
      <trkpt lat="49.58728" lon="3.44659">
        <ele>230.7</ele>
        <time>2025-10-05T09:18:13.000Z</time>
      </trkpt>
      <trkpt lat="49.58728" lon="3.44659">
        <ele>230.6</ele>
        <time>2025-10-05T09:18:14.000Z</time>
      </trkpt>
      <trkpt lat="49.58728" lon="3.44659">
        <ele>230.6</ele>
        <time>2025-10-05T09:18:15.000Z</time>
      </trkpt>
      <trkpt lat="49.58728" lon="3.44659">
        <ele>230.6</ele>
        <time>2025-10-05T09:18:16.000Z</time>
      </trkpt>
      <trkpt lat="49.58728" lon="3.44659">
        <ele>230.6</ele>
        <time>2025-10-05T09:18:17.000Z</time>
      </trkpt>
      <trkpt lat="49.58728" lon="3.44659">
        <ele>230.6</ele>
        <time>2025-10-05T09:18:18.000Z</time>
      </trkpt>
      <trkpt lat="49.58728" lon="3.44659">
        <ele>230.6</ele>
        <time>2025-10-05T09:18:19.000Z</time>
      </trkpt>
      <trkpt lat="49.58728" lon="3.44659">
        <ele>230.6</ele>
        <time>2025-10-05T09:18:20.000Z</time>
      </trkpt>
      <trkpt lat="49.58728" lon="3.44659">
        <ele>230.6</ele>
        <time>2025-10-05T09:18:21.000Z</time>
      </trkpt>
      <trkpt lat="49.58726" lon="3.44662">
        <ele>230</ele>
        <time>2025-10-05T09:18:22.000Z</time>
      </trkpt>
      <trkpt lat="49.58726" lon="3.44663">
        <ele>229.8</ele>
        <time>2025-10-05T09:18:23.000Z</time>
      </trkpt>
      <trkpt lat="49.58726" lon="3.44664">
        <ele>229.6</ele>
        <time>2025-10-05T09:18:24.000Z</time>
      </trkpt>
      <trkpt lat="49.58726" lon="3.44664">
        <ele>229.3</ele>
        <time>2025-10-05T09:18:25.000Z</time>
      </trkpt>
      <trkpt lat="49.58725" lon="3.44664">
        <ele>229.2</ele>
        <time>2025-10-05T09:18:26.000Z</time>
      </trkpt>
      <trkpt lat="49.58725" lon="3.44665">
        <ele>229</ele>
        <time>2025-10-05T09:18:27.000Z</time>
      </trkpt>
      <trkpt lat="49.58725" lon="3.44665">
        <ele>229</ele>
        <time>2025-10-05T09:18:28.000Z</time>
      </trkpt>
      <trkpt lat="49.58725" lon="3.44666">
        <ele>228.7</ele>
        <time>2025-10-05T09:18:29.000Z</time>
      </trkpt>
      <trkpt lat="49.58725" lon="3.44666">
        <ele>228.5</ele>
        <time>2025-10-05T09:18:30.000Z</time>
      </trkpt>
      <trkpt lat="49.58725" lon="3.44666">
        <ele>228.2</ele>
        <time>2025-10-05T09:18:31.000Z</time>
      </trkpt>
      <trkpt lat="49.58725" lon="3.44667">
        <ele>227.9</ele>
        <time>2025-10-05T09:18:32.000Z</time>
      </trkpt>
      <trkpt lat="49.58724" lon="3.44667">
        <ele>227.6</ele>
        <time>2025-10-05T09:18:33.000Z</time>
      </trkpt>
      <trkpt lat="49.58724" lon="3.44666">
        <ele>227.5</ele>
        <time>2025-10-05T09:18:34.000Z</time>
      </trkpt>
      <trkpt lat="49.58723" lon="3.44666">
        <ele>227.3</ele>
        <time>2025-10-05T09:18:35.000Z</time>
      </trkpt>
      <trkpt lat="49.58722" lon="3.44666">
        <ele>227.2</ele>
        <time>2025-10-05T09:18:36.000Z</time>
      </trkpt>
      <trkpt lat="49.58721" lon="3.44666">
        <ele>227.2</ele>
        <time>2025-10-05T09:18:37.000Z</time>
      </trkpt>
      <trkpt lat="49.5872" lon="3.44666">
        <ele>227</ele>
        <time>2025-10-05T09:18:38.000Z</time>
      </trkpt>
      <trkpt lat="49.58719" lon="3.44665">
        <ele>226.7</ele>
        <time>2025-10-05T09:18:39.000Z</time>
      </trkpt>
      <trkpt lat="49.58719" lon="3.44665">
        <ele>226.4</ele>
        <time>2025-10-05T09:18:40.000Z</time>
      </trkpt>
      <trkpt lat="49.58718" lon="3.44665">
        <ele>226.2</ele>
        <time>2025-10-05T09:18:41.000Z</time>
      </trkpt>
      <trkpt lat="49.58717" lon="3.44664">
        <ele>225.8</ele>
        <time>2025-10-05T09:18:42.000Z</time>
      </trkpt>
      <trkpt lat="49.58716" lon="3.44664">
        <ele>225.8</ele>
        <time>2025-10-05T09:18:43.000Z</time>
      </trkpt>
      <trkpt lat="49.58716" lon="3.44664">
        <ele>225.8</ele>
        <time>2025-10-05T09:18:44.000Z</time>
      </trkpt>
      <trkpt lat="49.58715" lon="3.44664">
        <ele>225.6</ele>
        <time>2025-10-05T09:18:45.000Z</time>
      </trkpt>
      <trkpt lat="49.58715" lon="3.44664">
        <ele>225.4</ele>
        <time>2025-10-05T09:18:46.000Z</time>
      </trkpt>
      <trkpt lat="49.58714" lon="3.44664">
        <ele>225.3</ele>
        <time>2025-10-05T09:18:47.000Z</time>
      </trkpt>
      <trkpt lat="49.58714" lon="3.44664">
        <ele>225.3</ele>
        <time>2025-10-05T09:18:48.000Z</time>
      </trkpt>
      <trkpt lat="49.58713" lon="3.44663">
        <ele>225</ele>
        <time>2025-10-05T09:18:49.000Z</time>
      </trkpt>
      <trkpt lat="49.58713" lon="3.44663">
        <ele>224.7</ele>
        <time>2025-10-05T09:18:50.000Z</time>
      </trkpt>
      <trkpt lat="49.58713" lon="3.44663">
        <ele>224.5</ele>
        <time>2025-10-05T09:18:51.000Z</time>
      </trkpt>
      <trkpt lat="49.58712" lon="3.44662">
        <ele>224.3</ele>
        <time>2025-10-05T09:18:52.000Z</time>
      </trkpt>
      <trkpt lat="49.58711" lon="3.44662">
        <ele>224.2</ele>
        <time>2025-10-05T09:18:53.000Z</time>
      </trkpt>
      <trkpt lat="49.58711" lon="3.44662">
        <ele>224</ele>
        <time>2025-10-05T09:18:54.000Z</time>
      </trkpt>
      <trkpt lat="49.5871" lon="3.44661">
        <ele>223.8</ele>
        <time>2025-10-05T09:18:55.000Z</time>
      </trkpt>
      <trkpt lat="49.58709" lon="3.44662">
        <ele>223.6</ele>
        <time>2025-10-05T09:18:56.000Z</time>
      </trkpt>
      <trkpt lat="49.58708" lon="3.44662">
        <ele>223.6</ele>
        <time>2025-10-05T09:18:57.000Z</time>
      </trkpt>
      <trkpt lat="49.58707" lon="3.44662">
        <ele>223.5</ele>
        <time>2025-10-05T09:18:58.000Z</time>
      </trkpt>
      <trkpt lat="49.58706" lon="3.44662">
        <ele>223.1</ele>
        <time>2025-10-05T09:18:59.000Z</time>
      </trkpt>
      <trkpt lat="49.58705" lon="3.44661">
        <ele>223.2</ele>
        <time>2025-10-05T09:19:00.000Z</time>
      </trkpt>
      <trkpt lat="49.58705" lon="3.44661">
        <ele>223.2</ele>
        <time>2025-10-05T09:19:01.000Z</time>
      </trkpt>
      <trkpt lat="49.58704" lon="3.44661">
        <ele>223.3</ele>
        <time>2025-10-05T09:19:02.000Z</time>
      </trkpt>
      <trkpt lat="49.58704" lon="3.44661">
        <ele>223.4</ele>
        <time>2025-10-05T09:19:03.000Z</time>
      </trkpt>
      <trkpt lat="49.58703" lon="3.44661">
        <ele>223.6</ele>
        <time>2025-10-05T09:19:04.000Z</time>
      </trkpt>
      <trkpt lat="49.58703" lon="3.4466">
        <ele>223.5</ele>
        <time>2025-10-05T09:19:05.000Z</time>
      </trkpt>
      <trkpt lat="49.58702" lon="3.4466">
        <ele>223.4</ele>
        <time>2025-10-05T09:19:06.000Z</time>
      </trkpt>
      <trkpt lat="49.58701" lon="3.44659">
        <ele>223.4</ele>
        <time>2025-10-05T09:19:07.000Z</time>
      </trkpt>
      <trkpt lat="49.587" lon="3.4466">
        <ele>223.5</ele>
        <time>2025-10-05T09:19:08.000Z</time>
      </trkpt>
      <trkpt lat="49.58699" lon="3.44659">
        <ele>223.5</ele>
        <time>2025-10-05T09:19:09.000Z</time>
      </trkpt>
      <trkpt lat="49.58698" lon="3.44659">
        <ele>223.4</ele>
        <time>2025-10-05T09:19:10.000Z</time>
      </trkpt>
      <trkpt lat="49.58697" lon="3.44659">
        <ele>223.5</ele>
        <time>2025-10-05T09:19:11.000Z</time>
      </trkpt>
      <trkpt lat="49.58695" lon="3.44659">
        <ele>223.7</ele>
        <time>2025-10-05T09:19:12.000Z</time>
      </trkpt>
      <trkpt lat="49.58694" lon="3.4466">
        <ele>224.1</ele>
        <time>2025-10-05T09:19:13.000Z</time>
      </trkpt>
      <trkpt lat="49.58692" lon="3.44661">
        <ele>224.2</ele>
        <time>2025-10-05T09:19:14.000Z</time>
      </trkpt>
      <trkpt lat="49.58691" lon="3.44662">
        <ele>224</ele>
        <time>2025-10-05T09:19:15.000Z</time>
      </trkpt>
      <trkpt lat="49.5869" lon="3.44662">
        <ele>223.6</ele>
        <time>2025-10-05T09:19:16.000Z</time>
      </trkpt>
      <trkpt lat="49.5869" lon="3.44662">
        <ele>222.9</ele>
        <time>2025-10-05T09:19:17.000Z</time>
      </trkpt>
      <trkpt lat="49.5869" lon="3.44662">
        <ele>222.5</ele>
        <time>2025-10-05T09:19:18.000Z</time>
      </trkpt>
      <trkpt lat="49.58689" lon="3.44661">
        <ele>222.2</ele>
        <time>2025-10-05T09:19:19.000Z</time>
      </trkpt>
      <trkpt lat="49.58688" lon="3.44661">
        <ele>221.8</ele>
        <time>2025-10-05T09:19:20.000Z</time>
      </trkpt>
      <trkpt lat="49.58687" lon="3.44661">
        <ele>221.4</ele>
        <time>2025-10-05T09:19:21.000Z</time>
      </trkpt>
      <trkpt lat="49.58686" lon="3.4466">
        <ele>220.8</ele>
        <time>2025-10-05T09:19:22.000Z</time>
      </trkpt>
      <trkpt lat="49.58685" lon="3.4466">
        <ele>220</ele>
        <time>2025-10-05T09:19:23.000Z</time>
      </trkpt>
      <trkpt lat="49.58683" lon="3.4466">
        <ele>219.5</ele>
        <time>2025-10-05T09:19:24.000Z</time>
      </trkpt>
      <trkpt lat="49.58681" lon="3.4466">
        <ele>219.2</ele>
        <time>2025-10-05T09:19:25.000Z</time>
      </trkpt>
      <trkpt lat="49.5868" lon="3.4466">
        <ele>219.1</ele>
        <time>2025-10-05T09:19:26.000Z</time>
      </trkpt>
      <trkpt lat="49.58679" lon="3.4466">
        <ele>219</ele>
        <time>2025-10-05T09:19:27.000Z</time>
      </trkpt>
      <trkpt lat="49.58678" lon="3.4466">
        <ele>218.8</ele>
        <time>2025-10-05T09:19:28.000Z</time>
      </trkpt>
      <trkpt lat="49.58677" lon="3.4466">
        <ele>218.5</ele>
        <time>2025-10-05T09:19:29.000Z</time>
      </trkpt>
      <trkpt lat="49.58675" lon="3.4466">
        <ele>218</ele>
        <time>2025-10-05T09:19:30.000Z</time>
      </trkpt>
      <trkpt lat="49.58674" lon="3.4466">
        <ele>217.8</ele>
        <time>2025-10-05T09:19:31.000Z</time>
      </trkpt>
      <trkpt lat="49.58671" lon="3.44662">
        <ele>218.1</ele>
        <time>2025-10-05T09:19:32.000Z</time>
      </trkpt>
      <trkpt lat="49.5867" lon="3.44662">
        <ele>218.4</ele>
        <time>2025-10-05T09:19:33.000Z</time>
      </trkpt>
      <trkpt lat="49.58668" lon="3.44662">
        <ele>218.7</ele>
        <time>2025-10-05T09:19:34.000Z</time>
      </trkpt>
      <trkpt lat="49.58666" lon="3.44662">
        <ele>218.6</ele>
        <time>2025-10-05T09:19:35.000Z</time>
      </trkpt>
      <trkpt lat="49.58665" lon="3.44662">
        <ele>218.5</ele>
        <time>2025-10-05T09:19:36.000Z</time>
      </trkpt>
      <trkpt lat="49.58663" lon="3.44662">
        <ele>218.4</ele>
        <time>2025-10-05T09:19:37.000Z</time>
      </trkpt>
      <trkpt lat="49.58663" lon="3.44662">
        <ele>218.6</ele>
        <time>2025-10-05T09:19:38.000Z</time>
      </trkpt>
      <trkpt lat="49.58663" lon="3.44661">
        <ele>218.9</ele>
        <time>2025-10-05T09:19:39.000Z</time>
      </trkpt>
      <trkpt lat="49.58662" lon="3.44661">
        <ele>219.3</ele>
        <time>2025-10-05T09:19:40.000Z</time>
      </trkpt>
      <trkpt lat="49.58661" lon="3.4466">
        <ele>219.8</ele>
        <time>2025-10-05T09:19:41.000Z</time>
      </trkpt>
      <trkpt lat="49.5866" lon="3.4466">
        <ele>220.2</ele>
        <time>2025-10-05T09:19:42.000Z</time>
      </trkpt>
      <trkpt lat="49.58659" lon="3.44659">
        <ele>220.8</ele>
        <time>2025-10-05T09:19:43.000Z</time>
      </trkpt>
      <trkpt lat="49.58659" lon="3.44659">
        <ele>220.9</ele>
        <time>2025-10-05T09:19:44.000Z</time>
      </trkpt>
      <trkpt lat="49.58658" lon="3.44658">
        <ele>221.1</ele>
        <time>2025-10-05T09:19:45.000Z</time>
      </trkpt>
      <trkpt lat="49.58657" lon="3.44658">
        <ele>221.3</ele>
        <time>2025-10-05T09:19:46.000Z</time>
      </trkpt>
      <trkpt lat="49.58655" lon="3.44657">
        <ele>221.6</ele>
        <time>2025-10-05T09:19:47.000Z</time>
      </trkpt>
      <trkpt lat="49.58654" lon="3.44657">
        <ele>221.9</ele>
        <time>2025-10-05T09:19:48.000Z</time>
      </trkpt>
      <trkpt lat="49.58653" lon="3.44656">
        <ele>221.9</ele>
        <time>2025-10-05T09:19:49.000Z</time>
      </trkpt>
      <trkpt lat="49.58652" lon="3.44655">
        <ele>222</ele>
        <time>2025-10-05T09:19:50.000Z</time>
      </trkpt>
      <trkpt lat="49.5865" lon="3.44655">
        <ele>222</ele>
        <time>2025-10-05T09:19:51.000Z</time>
      </trkpt>
      <trkpt lat="49.58649" lon="3.44655">
        <ele>222.2</ele>
        <time>2025-10-05T09:19:52.000Z</time>
      </trkpt>
      <trkpt lat="49.58648" lon="3.44654">
        <ele>222.1</ele>
        <time>2025-10-05T09:19:53.000Z</time>
      </trkpt>
      <trkpt lat="49.58647" lon="3.44654">
        <ele>222.3</ele>
        <time>2025-10-05T09:19:54.000Z</time>
      </trkpt>
      <trkpt lat="49.58647" lon="3.44653">
        <ele>221.9</ele>
        <time>2025-10-05T09:19:55.000Z</time>
      </trkpt>
      <trkpt lat="49.58646" lon="3.44652">
        <ele>221.8</ele>
        <time>2025-10-05T09:19:56.000Z</time>
      </trkpt>
      <trkpt lat="49.58645" lon="3.44652">
        <ele>221.7</ele>
        <time>2025-10-05T09:19:57.000Z</time>
      </trkpt>
      <trkpt lat="49.58644" lon="3.44651">
        <ele>221.8</ele>
        <time>2025-10-05T09:19:58.000Z</time>
      </trkpt>
      <trkpt lat="49.58644" lon="3.4465">
        <ele>221.7</ele>
        <time>2025-10-05T09:19:59.000Z</time>
      </trkpt>
      <trkpt lat="49.58643" lon="3.4465">
        <ele>221.8</ele>
        <time>2025-10-05T09:20:00.000Z</time>
      </trkpt>
      <trkpt lat="49.58643" lon="3.44651">
        <ele>222</ele>
        <time>2025-10-05T09:20:01.000Z</time>
      </trkpt>
      <trkpt lat="49.58642" lon="3.44652">
        <ele>222.2</ele>
        <time>2025-10-05T09:20:02.000Z</time>
      </trkpt>
      <trkpt lat="49.58642" lon="3.44652">
        <ele>222.1</ele>
        <time>2025-10-05T09:20:03.000Z</time>
      </trkpt>
      <trkpt lat="49.58642" lon="3.44652">
        <ele>222</ele>
        <time>2025-10-05T09:20:04.000Z</time>
      </trkpt>
      <trkpt lat="49.58642" lon="3.44652">
        <ele>221.9</ele>
        <time>2025-10-05T09:20:05.000Z</time>
      </trkpt>
      <trkpt lat="49.58641" lon="3.44653">
        <ele>221.9</ele>
        <time>2025-10-05T09:20:06.000Z</time>
      </trkpt>
      <trkpt lat="49.5864" lon="3.44654">
        <ele>221.8</ele>
        <time>2025-10-05T09:20:07.000Z</time>
      </trkpt>
      <trkpt lat="49.5864" lon="3.44655">
        <ele>221.5</ele>
        <time>2025-10-05T09:20:08.000Z</time>
      </trkpt>
      <trkpt lat="49.58641" lon="3.44656">
        <ele>221.3</ele>
        <time>2025-10-05T09:20:09.000Z</time>
      </trkpt>
      <trkpt lat="49.58641" lon="3.44657">
        <ele>221.2</ele>
        <time>2025-10-05T09:20:10.000Z</time>
      </trkpt>
      <trkpt lat="49.58641" lon="3.44658">
        <ele>221</ele>
        <time>2025-10-05T09:20:11.000Z</time>
      </trkpt>
      <trkpt lat="49.58641" lon="3.4466">
        <ele>220.8</ele>
        <time>2025-10-05T09:20:12.000Z</time>
      </trkpt>
      <trkpt lat="49.58641" lon="3.44661">
        <ele>220.6</ele>
        <time>2025-10-05T09:20:13.000Z</time>
      </trkpt>
      <trkpt lat="49.5864" lon="3.44662">
        <ele>220.5</ele>
        <time>2025-10-05T09:20:14.000Z</time>
      </trkpt>
      <trkpt lat="49.5864" lon="3.44663">
        <ele>220.3</ele>
        <time>2025-10-05T09:20:15.000Z</time>
      </trkpt>
      <trkpt lat="49.58639" lon="3.44664">
        <ele>220.1</ele>
        <time>2025-10-05T09:20:16.000Z</time>
      </trkpt>
      <trkpt lat="49.58639" lon="3.44666">
        <ele>219.8</ele>
        <time>2025-10-05T09:20:17.000Z</time>
      </trkpt>
      <trkpt lat="49.58639" lon="3.44667">
        <ele>219.4</ele>
        <time>2025-10-05T09:20:18.000Z</time>
      </trkpt>
      <trkpt lat="49.58639" lon="3.44668">
        <ele>219.3</ele>
        <time>2025-10-05T09:20:19.000Z</time>
      </trkpt>
      <trkpt lat="49.58639" lon="3.44669">
        <ele>219.1</ele>
        <time>2025-10-05T09:20:20.000Z</time>
      </trkpt>
      <trkpt lat="49.58639" lon="3.4467">
        <ele>219.1</ele>
        <time>2025-10-05T09:20:21.000Z</time>
      </trkpt>
      <trkpt lat="49.58639" lon="3.44672">
        <ele>218.9</ele>
        <time>2025-10-05T09:20:22.000Z</time>
      </trkpt>
      <trkpt lat="49.58639" lon="3.44673">
        <ele>218.9</ele>
        <time>2025-10-05T09:20:23.000Z</time>
      </trkpt>
      <trkpt lat="49.58638" lon="3.44675">
        <ele>219.1</ele>
        <time>2025-10-05T09:20:24.000Z</time>
      </trkpt>
      <trkpt lat="49.58638" lon="3.44676">
        <ele>219.2</ele>
        <time>2025-10-05T09:20:25.000Z</time>
      </trkpt>
      <trkpt lat="49.58638" lon="3.44677">
        <ele>219.4</ele>
        <time>2025-10-05T09:20:26.000Z</time>
      </trkpt>
      <trkpt lat="49.58638" lon="3.44678">
        <ele>219.6</ele>
        <time>2025-10-05T09:20:27.000Z</time>
      </trkpt>
      <trkpt lat="49.58638" lon="3.44678">
        <ele>219.7</ele>
        <time>2025-10-05T09:20:28.000Z</time>
      </trkpt>
      <trkpt lat="49.58638" lon="3.4468">
        <ele>219.8</ele>
        <time>2025-10-05T09:20:29.000Z</time>
      </trkpt>
      <trkpt lat="49.58638" lon="3.44681">
        <ele>219.9</ele>
        <time>2025-10-05T09:20:30.000Z</time>
      </trkpt>
      <trkpt lat="49.58638" lon="3.44681">
        <ele>219.8</ele>
        <time>2025-10-05T09:20:31.000Z</time>
      </trkpt>
      <trkpt lat="49.58637" lon="3.44683">
        <ele>219.7</ele>
        <time>2025-10-05T09:20:32.000Z</time>
      </trkpt>
      <trkpt lat="49.58637" lon="3.44684">
        <ele>219.8</ele>
        <time>2025-10-05T09:20:33.000Z</time>
      </trkpt>
      <trkpt lat="49.58637" lon="3.44685">
        <ele>219.9</ele>
        <time>2025-10-05T09:20:34.000Z</time>
      </trkpt>
      <trkpt lat="49.58637" lon="3.44686">
        <ele>220.2</ele>
        <time>2025-10-05T09:20:35.000Z</time>
      </trkpt>
      <trkpt lat="49.58637" lon="3.44688">
        <ele>220.5</ele>
        <time>2025-10-05T09:20:36.000Z</time>
      </trkpt>
      <trkpt lat="49.58637" lon="3.44689">
        <ele>220.8</ele>
        <time>2025-10-05T09:20:37.000Z</time>
      </trkpt>
      <trkpt lat="49.58637" lon="3.4469">
        <ele>221</ele>
        <time>2025-10-05T09:20:38.000Z</time>
      </trkpt>
      <trkpt lat="49.58637" lon="3.44692">
        <ele>220.9</ele>
        <time>2025-10-05T09:20:39.000Z</time>
      </trkpt>
      <trkpt lat="49.58637" lon="3.44693">
        <ele>220.8</ele>
        <time>2025-10-05T09:20:40.000Z</time>
      </trkpt>
      <trkpt lat="49.58637" lon="3.44695">
        <ele>220.7</ele>
        <time>2025-10-05T09:20:41.000Z</time>
      </trkpt>
      <trkpt lat="49.58637" lon="3.44696">
        <ele>220.4</ele>
        <time>2025-10-05T09:20:42.000Z</time>
      </trkpt>
      <trkpt lat="49.58637" lon="3.44697">
        <ele>220.5</ele>
        <time>2025-10-05T09:20:43.000Z</time>
      </trkpt>
      <trkpt lat="49.58636" lon="3.44698">
        <ele>220.5</ele>
        <time>2025-10-05T09:20:44.000Z</time>
      </trkpt>
      <trkpt lat="49.58635" lon="3.447">
        <ele>220.7</ele>
        <time>2025-10-05T09:20:45.000Z</time>
      </trkpt>
      <trkpt lat="49.58636" lon="3.44702">
        <ele>221.1</ele>
        <time>2025-10-05T09:20:46.000Z</time>
      </trkpt>
      <trkpt lat="49.58636" lon="3.44703">
        <ele>221.4</ele>
        <time>2025-10-05T09:20:47.000Z</time>
      </trkpt>
      <trkpt lat="49.58635" lon="3.44705">
        <ele>221.7</ele>
        <time>2025-10-05T09:20:48.000Z</time>
      </trkpt>
      <trkpt lat="49.58634" lon="3.44706">
        <ele>221.8</ele>
        <time>2025-10-05T09:20:49.000Z</time>
      </trkpt>
      <trkpt lat="49.58634" lon="3.44708">
        <ele>221.8</ele>
        <time>2025-10-05T09:20:50.000Z</time>
      </trkpt>
      <trkpt lat="49.58633" lon="3.44709">
        <ele>221.7</ele>
        <time>2025-10-05T09:20:51.000Z</time>
      </trkpt>
      <trkpt lat="49.58633" lon="3.4471">
        <ele>221.9</ele>
        <time>2025-10-05T09:20:52.000Z</time>
      </trkpt>
      <trkpt lat="49.58633" lon="3.44712">
        <ele>222</ele>
        <time>2025-10-05T09:20:53.000Z</time>
      </trkpt>
      <trkpt lat="49.58632" lon="3.44714">
        <ele>221.9</ele>
        <time>2025-10-05T09:20:54.000Z</time>
      </trkpt>
      <trkpt lat="49.58632" lon="3.44715">
        <ele>221.6</ele>
        <time>2025-10-05T09:20:55.000Z</time>
      </trkpt>
      <trkpt lat="49.58632" lon="3.44716">
        <ele>221.4</ele>
        <time>2025-10-05T09:20:56.000Z</time>
      </trkpt>
      <trkpt lat="49.58632" lon="3.44717">
        <ele>221.4</ele>
        <time>2025-10-05T09:20:57.000Z</time>
      </trkpt>
      <trkpt lat="49.58632" lon="3.44718">
        <ele>221.5</ele>
        <time>2025-10-05T09:20:58.000Z</time>
      </trkpt>
      <trkpt lat="49.58631" lon="3.44719">
        <ele>221.4</ele>
        <time>2025-10-05T09:20:59.000Z</time>
      </trkpt>
      <trkpt lat="49.58631" lon="3.44719">
        <ele>221.1</ele>
        <time>2025-10-05T09:21:00.000Z</time>
      </trkpt>
      <trkpt lat="49.58632" lon="3.4472">
        <ele>220.9</ele>
        <time>2025-10-05T09:21:01.000Z</time>
      </trkpt>
      <trkpt lat="49.58632" lon="3.4472">
        <ele>221</ele>
        <time>2025-10-05T09:21:02.000Z</time>
      </trkpt>
      <trkpt lat="49.58632" lon="3.4472">
        <ele>221</ele>
        <time>2025-10-05T09:21:03.000Z</time>
      </trkpt>
      <trkpt lat="49.58632" lon="3.44721">
        <ele>221.2</ele>
        <time>2025-10-05T09:21:04.000Z</time>
      </trkpt>
      <trkpt lat="49.58632" lon="3.44722">
        <ele>221.6</ele>
        <time>2025-10-05T09:21:05.000Z</time>
      </trkpt>
      <trkpt lat="49.58632" lon="3.44722">
        <ele>221.6</ele>
        <time>2025-10-05T09:21:06.000Z</time>
      </trkpt>
      <trkpt lat="49.58632" lon="3.44723">
        <ele>221.9</ele>
        <time>2025-10-05T09:21:07.000Z</time>
      </trkpt>
      <trkpt lat="49.58632" lon="3.44723">
        <ele>222</ele>
        <time>2025-10-05T09:21:08.000Z</time>
      </trkpt>
      <trkpt lat="49.58632" lon="3.44723">
        <ele>222.3</ele>
        <time>2025-10-05T09:21:09.000Z</time>
      </trkpt>
      <trkpt lat="49.58632" lon="3.44723">
        <ele>222.5</ele>
        <time>2025-10-05T09:21:10.000Z</time>
      </trkpt>
      <trkpt lat="49.58633" lon="3.44723">
        <ele>222.5</ele>
        <time>2025-10-05T09:21:11.000Z</time>
      </trkpt>
      <trkpt lat="49.58633" lon="3.44724">
        <ele>222.7</ele>
        <time>2025-10-05T09:21:12.000Z</time>
      </trkpt>
      <trkpt lat="49.58633" lon="3.44724">
        <ele>223</ele>
        <time>2025-10-05T09:21:13.000Z</time>
      </trkpt>
      <trkpt lat="49.58634" lon="3.44723">
        <ele>223.2</ele>
        <time>2025-10-05T09:21:14.000Z</time>
      </trkpt>
      <trkpt lat="49.58635" lon="3.44722">
        <ele>223.4</ele>
        <time>2025-10-05T09:21:15.000Z</time>
      </trkpt>
      <trkpt lat="49.58636" lon="3.44722">
        <ele>223.5</ele>
        <time>2025-10-05T09:21:16.000Z</time>
      </trkpt>
      <trkpt lat="49.58637" lon="3.44721">
        <ele>223.6</ele>
        <time>2025-10-05T09:21:17.000Z</time>
      </trkpt>
      <trkpt lat="49.58638" lon="3.44721">
        <ele>223.8</ele>
        <time>2025-10-05T09:21:18.000Z</time>
      </trkpt>
      <trkpt lat="49.58639" lon="3.44721">
        <ele>224.1</ele>
        <time>2025-10-05T09:21:19.000Z</time>
      </trkpt>
      <trkpt lat="49.5864" lon="3.44722">
        <ele>224.5</ele>
        <time>2025-10-05T09:21:20.000Z</time>
      </trkpt>
      <trkpt lat="49.5864" lon="3.44722">
        <ele>224.8</ele>
        <time>2025-10-05T09:21:21.000Z</time>
      </trkpt>
      <trkpt lat="49.58641" lon="3.44723">
        <ele>225</ele>
        <time>2025-10-05T09:21:22.000Z</time>
      </trkpt>
      <trkpt lat="49.58641" lon="3.44724">
        <ele>225.5</ele>
        <time>2025-10-05T09:21:23.000Z</time>
      </trkpt>
      <trkpt lat="49.58641" lon="3.44724">
        <ele>226</ele>
        <time>2025-10-05T09:21:24.000Z</time>
      </trkpt>
      <trkpt lat="49.58641" lon="3.44725">
        <ele>226.6</ele>
        <time>2025-10-05T09:21:25.000Z</time>
      </trkpt>
      <trkpt lat="49.5864" lon="3.44725">
        <ele>227.1</ele>
        <time>2025-10-05T09:21:26.000Z</time>
      </trkpt>
      <trkpt lat="49.5864" lon="3.44726">
        <ele>227.4</ele>
        <time>2025-10-05T09:21:27.000Z</time>
      </trkpt>
      <trkpt lat="49.5864" lon="3.44726">
        <ele>227.8</ele>
        <time>2025-10-05T09:21:28.000Z</time>
      </trkpt>
      <trkpt lat="49.58639" lon="3.44727">
        <ele>228.1</ele>
        <time>2025-10-05T09:21:29.000Z</time>
      </trkpt>
      <trkpt lat="49.58639" lon="3.44727">
        <ele>228.2</ele>
        <time>2025-10-05T09:21:30.000Z</time>
      </trkpt>
      <trkpt lat="49.58639" lon="3.44727">
        <ele>228.2</ele>
        <time>2025-10-05T09:21:31.000Z</time>
      </trkpt>
      <trkpt lat="49.58639" lon="3.44727">
        <ele>228.2</ele>
        <time>2025-10-05T09:21:32.000Z</time>
      </trkpt>
      <trkpt lat="49.58639" lon="3.44727">
        <ele>228.2</ele>
        <time>2025-10-05T09:21:33.000Z</time>
      </trkpt>
      <trkpt lat="49.58639" lon="3.44727">
        <ele>228.2</ele>
        <time>2025-10-05T09:21:34.000Z</time>
      </trkpt>
      <trkpt lat="49.58639" lon="3.44727">
        <ele>228.2</ele>
        <time>2025-10-05T09:21:35.000Z</time>
      </trkpt>
      <trkpt lat="49.58639" lon="3.44727">
        <ele>228.2</ele>
        <time>2025-10-05T09:21:36.000Z</time>
      </trkpt>
      <trkpt lat="49.58639" lon="3.44727">
        <ele>228.2</ele>
        <time>2025-10-05T09:21:37.000Z</time>
      </trkpt>
      <trkpt lat="49.58639" lon="3.44727">
        <ele>228.2</ele>
        <time>2025-10-05T09:21:38.000Z</time>
      </trkpt>
      <trkpt lat="49.58639" lon="3.44727">
        <ele>228.2</ele>
        <time>2025-10-05T09:21:39.000Z</time>
      </trkpt>
      <trkpt lat="49.58639" lon="3.44727">
        <ele>228.2</ele>
        <time>2025-10-05T09:21:40.000Z</time>
      </trkpt>
      <trkpt lat="49.58639" lon="3.44727">
        <ele>228.2</ele>
        <time>2025-10-05T09:21:41.000Z</time>
      </trkpt>
      <trkpt lat="49.58639" lon="3.44727">
        <ele>228.2</ele>
        <time>2025-10-05T09:21:42.000Z</time>
      </trkpt>
      <trkpt lat="49.58639" lon="3.44727">
        <ele>228.2</ele>
        <time>2025-10-05T09:21:43.000Z</time>
      </trkpt>
      <trkpt lat="49.58639" lon="3.44727">
        <ele>228.2</ele>
        <time>2025-10-05T09:21:44.000Z</time>
      </trkpt>
      <trkpt lat="49.58639" lon="3.44727">
        <ele>228.2</ele>
        <time>2025-10-05T09:21:45.000Z</time>
      </trkpt>
      <trkpt lat="49.58639" lon="3.44727">
        <ele>228.2</ele>
        <time>2025-10-05T09:21:46.000Z</time>
      </trkpt>
      <trkpt lat="49.58639" lon="3.44727">
        <ele>228.2</ele>
        <time>2025-10-05T09:21:47.000Z</time>
      </trkpt>
      <trkpt lat="49.58639" lon="3.44727">
        <ele>228.2</ele>
        <time>2025-10-05T09:21:48.000Z</time>
      </trkpt>
      <trkpt lat="49.58639" lon="3.44727">
        <ele>228.2</ele>
        <time>2025-10-05T09:21:49.000Z</time>
      </trkpt>
      <trkpt lat="49.58639" lon="3.44727">
        <ele>228.2</ele>
        <time>2025-10-05T09:21:50.000Z</time>
      </trkpt>
      <trkpt lat="49.58639" lon="3.44727">
        <ele>228.2</ele>
        <time>2025-10-05T09:21:51.000Z</time>
      </trkpt>
      <trkpt lat="49.58639" lon="3.44727">
        <ele>228.2</ele>
        <time>2025-10-05T09:21:52.000Z</time>
      </trkpt>
      <trkpt lat="49.58639" lon="3.44727">
        <ele>228.2</ele>
        <time>2025-10-05T09:21:53.000Z</time>
      </trkpt>
      <trkpt lat="49.58639" lon="3.44727">
        <ele>228.2</ele>
        <time>2025-10-05T09:21:54.000Z</time>
      </trkpt>
      <trkpt lat="49.58639" lon="3.44727">
        <ele>228.2</ele>
        <time>2025-10-05T09:21:55.000Z</time>
      </trkpt>
      <trkpt lat="49.58639" lon="3.44727">
        <ele>228.2</ele>
        <time>2025-10-05T09:21:56.000Z</time>
      </trkpt>
      <trkpt lat="49.58639" lon="3.44727">
        <ele>228.2</ele>
        <time>2025-10-05T09:21:57.000Z</time>
      </trkpt>
      <trkpt lat="49.58639" lon="3.44727">
        <ele>228.2</ele>
        <time>2025-10-05T09:21:58.000Z</time>
      </trkpt>
      <trkpt lat="49.58639" lon="3.44727">
        <ele>228.2</ele>
        <time>2025-10-05T09:21:59.000Z</time>
      </trkpt>
      <trkpt lat="49.58639" lon="3.44727">
        <ele>228.2</ele>
        <time>2025-10-05T09:22:00.000Z</time>
      </trkpt>
      <trkpt lat="49.58639" lon="3.44727">
        <ele>228.2</ele>
        <time>2025-10-05T09:22:01.000Z</time>
      </trkpt>
      <trkpt lat="49.58639" lon="3.44727">
        <ele>228.2</ele>
        <time>2025-10-05T09:22:02.000Z</time>
      </trkpt>
      <trkpt lat="49.58639" lon="3.44727">
        <ele>228.2</ele>
        <time>2025-10-05T09:22:03.000Z</time>
      </trkpt>
      <trkpt lat="49.58639" lon="3.44727">
        <ele>228.2</ele>
        <time>2025-10-05T09:22:04.000Z</time>
      </trkpt>
      <trkpt lat="49.58639" lon="3.44727">
        <ele>228.2</ele>
        <time>2025-10-05T09:22:05.000Z</time>
      </trkpt>
      <trkpt lat="49.58639" lon="3.44727">
        <ele>228.2</ele>
        <time>2025-10-05T09:22:06.000Z</time>
      </trkpt>
      <trkpt lat="49.58639" lon="3.44727">
        <ele>228.2</ele>
        <time>2025-10-05T09:22:07.000Z</time>
      </trkpt>
      <trkpt lat="49.58639" lon="3.44727">
        <ele>228.2</ele>
        <time>2025-10-05T09:22:08.000Z</time>
      </trkpt>
      <trkpt lat="49.58639" lon="3.44727">
        <ele>228.2</ele>
        <time>2025-10-05T09:22:09.000Z</time>
      </trkpt>
      <trkpt lat="49.58639" lon="3.44727">
        <ele>228.2</ele>
        <time>2025-10-05T09:22:10.000Z</time>
      </trkpt>
      <trkpt lat="49.58639" lon="3.44727">
        <ele>228.2</ele>
        <time>2025-10-05T09:22:11.000Z</time>
      </trkpt>
      <trkpt lat="49.58639" lon="3.44727">
        <ele>228.2</ele>
        <time>2025-10-05T09:22:12.000Z</time>
      </trkpt>
      <trkpt lat="49.58639" lon="3.44727">
        <ele>228.2</ele>
        <time>2025-10-05T09:22:13.000Z</time>
      </trkpt>
      <trkpt lat="49.58639" lon="3.44727">
        <ele>228.2</ele>
        <time>2025-10-05T09:22:14.000Z</time>
      </trkpt>
      <trkpt lat="49.58639" lon="3.44727">
        <ele>228.2</ele>
        <time>2025-10-05T09:22:15.000Z</time>
      </trkpt>
      <trkpt lat="49.58639" lon="3.44727">
        <ele>228.2</ele>
        <time>2025-10-05T09:22:16.000Z</time>
      </trkpt>
      <trkpt lat="49.58639" lon="3.44727">
        <ele>228.2</ele>
        <time>2025-10-05T09:22:17.000Z</time>
      </trkpt>
      <trkpt lat="49.58639" lon="3.44727">
        <ele>228.2</ele>
        <time>2025-10-05T09:22:18.000Z</time>
      </trkpt>
      <trkpt lat="49.58639" lon="3.44727">
        <ele>228.2</ele>
        <time>2025-10-05T09:22:19.000Z</time>
      </trkpt>
      <trkpt lat="49.58639" lon="3.44727">
        <ele>228.2</ele>
        <time>2025-10-05T09:22:20.000Z</time>
      </trkpt>
      <trkpt lat="49.58639" lon="3.44727">
        <ele>228.2</ele>
        <time>2025-10-05T09:22:21.000Z</time>
      </trkpt>
      <trkpt lat="49.58639" lon="3.44727">
        <ele>228.2</ele>
        <time>2025-10-05T09:22:22.000Z</time>
      </trkpt>
      <trkpt lat="49.58639" lon="3.44727">
        <ele>228.2</ele>
        <time>2025-10-05T09:22:23.000Z</time>
      </trkpt>
      <trkpt lat="49.58639" lon="3.44727">
        <ele>228.2</ele>
        <time>2025-10-05T09:22:24.000Z</time>
      </trkpt>
      <trkpt lat="49.58639" lon="3.44727">
        <ele>228.2</ele>
        <time>2025-10-05T09:22:25.000Z</time>
      </trkpt>
      <trkpt lat="49.58639" lon="3.44727">
        <ele>228.2</ele>
        <time>2025-10-05T09:22:26.000Z</time>
      </trkpt>
      <trkpt lat="49.58639" lon="3.44727">
        <ele>228.2</ele>
        <time>2025-10-05T09:22:27.000Z</time>
      </trkpt>
      <trkpt lat="49.58639" lon="3.44727">
        <ele>228.2</ele>
        <time>2025-10-05T09:22:28.000Z</time>
      </trkpt>
      <trkpt lat="49.58639" lon="3.44727">
        <ele>228.2</ele>
        <time>2025-10-05T09:22:29.000Z</time>
      </trkpt>
      <trkpt lat="49.58639" lon="3.44727">
        <ele>228.2</ele>
        <time>2025-10-05T09:22:30.000Z</time>
      </trkpt>
      <trkpt lat="49.58639" lon="3.44727">
        <ele>228.2</ele>
        <time>2025-10-05T09:22:31.000Z</time>
      </trkpt>
      <trkpt lat="49.58639" lon="3.44727">
        <ele>228.2</ele>
        <time>2025-10-05T09:22:32.000Z</time>
      </trkpt>
      <trkpt lat="49.58638" lon="3.44727">
        <ele>225.6</ele>
        <time>2025-10-05T09:22:33.000Z</time>
      </trkpt>
      <trkpt lat="49.58637" lon="3.44728">
        <ele>225.8</ele>
        <time>2025-10-05T09:22:34.000Z</time>
      </trkpt>
      <trkpt lat="49.58636" lon="3.44729">
        <ele>226.2</ele>
        <time>2025-10-05T09:22:35.000Z</time>
      </trkpt>
      <trkpt lat="49.58635" lon="3.4473">
        <ele>226.5</ele>
        <time>2025-10-05T09:22:36.000Z</time>
      </trkpt>
      <trkpt lat="49.58634" lon="3.44731">
        <ele>226.5</ele>
        <time>2025-10-05T09:22:37.000Z</time>
      </trkpt>
      <trkpt lat="49.58633" lon="3.44731">
        <ele>226.6</ele>
        <time>2025-10-05T09:22:38.000Z</time>
      </trkpt>
      <trkpt lat="49.58633" lon="3.44732">
        <ele>226.7</ele>
        <time>2025-10-05T09:22:39.000Z</time>
      </trkpt>
      <trkpt lat="49.58633" lon="3.44732">
        <ele>226.8</ele>
        <time>2025-10-05T09:22:40.000Z</time>
      </trkpt>
      <trkpt lat="49.58633" lon="3.44732">
        <ele>227.1</ele>
        <time>2025-10-05T09:22:41.000Z</time>
      </trkpt>
      <trkpt lat="49.58633" lon="3.44732">
        <ele>227.3</ele>
        <time>2025-10-05T09:22:42.000Z</time>
      </trkpt>
      <trkpt lat="49.58633" lon="3.44732">
        <ele>227.3</ele>
        <time>2025-10-05T09:22:43.000Z</time>
      </trkpt>
      <trkpt lat="49.58633" lon="3.44732">
        <ele>227.3</ele>
        <time>2025-10-05T09:22:44.000Z</time>
      </trkpt>
      <trkpt lat="49.58633" lon="3.44732">
        <ele>227.3</ele>
        <time>2025-10-05T09:22:45.000Z</time>
      </trkpt>
      <trkpt lat="49.58633" lon="3.44732">
        <ele>227.3</ele>
        <time>2025-10-05T09:22:46.000Z</time>
      </trkpt>
      <trkpt lat="49.58633" lon="3.44732">
        <ele>227.3</ele>
        <time>2025-10-05T09:22:47.000Z</time>
      </trkpt>
      <trkpt lat="49.58633" lon="3.44732">
        <ele>227.3</ele>
        <time>2025-10-05T09:22:48.000Z</time>
      </trkpt>
      <trkpt lat="49.5863" lon="3.44733">
        <ele>228.1</ele>
        <time>2025-10-05T09:22:49.000Z</time>
      </trkpt>
      <trkpt lat="49.58631" lon="3.44733">
        <ele>228.1</ele>
        <time>2025-10-05T09:22:50.000Z</time>
      </trkpt>
      <trkpt lat="49.58631" lon="3.44734">
        <ele>228</ele>
        <time>2025-10-05T09:22:51.000Z</time>
      </trkpt>
      <trkpt lat="49.58631" lon="3.44734">
        <ele>228.1</ele>
        <time>2025-10-05T09:22:52.000Z</time>
      </trkpt>
      <trkpt lat="49.58632" lon="3.44734">
        <ele>228</ele>
        <time>2025-10-05T09:22:53.000Z</time>
      </trkpt>
      <trkpt lat="49.58631" lon="3.44734">
        <ele>227.8</ele>
        <time>2025-10-05T09:22:54.000Z</time>
      </trkpt>
      <trkpt lat="49.58632" lon="3.44735">
        <ele>227.6</ele>
        <time>2025-10-05T09:22:55.000Z</time>
      </trkpt>
      <trkpt lat="49.58632" lon="3.44736">
        <ele>227.3</ele>
        <time>2025-10-05T09:22:56.000Z</time>
      </trkpt>
      <trkpt lat="49.58633" lon="3.44736">
        <ele>227.3</ele>
        <time>2025-10-05T09:22:57.000Z</time>
      </trkpt>
      <trkpt lat="49.58632" lon="3.44736">
        <ele>227.1</ele>
        <time>2025-10-05T09:22:58.000Z</time>
      </trkpt>
      <trkpt lat="49.58632" lon="3.44737">
        <ele>227</ele>
        <time>2025-10-05T09:22:59.000Z</time>
      </trkpt>
      <trkpt lat="49.58632" lon="3.44738">
        <ele>226.8</ele>
        <time>2025-10-05T09:23:00.000Z</time>
      </trkpt>
      <trkpt lat="49.58632" lon="3.4474">
        <ele>226.5</ele>
        <time>2025-10-05T09:23:01.000Z</time>
      </trkpt>
      <trkpt lat="49.58632" lon="3.44742">
        <ele>226.3</ele>
        <time>2025-10-05T09:23:02.000Z</time>
      </trkpt>
      <trkpt lat="49.58633" lon="3.44745">
        <ele>226.2</ele>
        <time>2025-10-05T09:23:03.000Z</time>
      </trkpt>
      <trkpt lat="49.58633" lon="3.44747">
        <ele>226.1</ele>
        <time>2025-10-05T09:23:04.000Z</time>
      </trkpt>
      <trkpt lat="49.58634" lon="3.44748">
        <ele>226</ele>
        <time>2025-10-05T09:23:05.000Z</time>
      </trkpt>
      <trkpt lat="49.58634" lon="3.44749">
        <ele>225.8</ele>
        <time>2025-10-05T09:23:06.000Z</time>
      </trkpt>
      <trkpt lat="49.58635" lon="3.44751">
        <ele>225.6</ele>
        <time>2025-10-05T09:23:07.000Z</time>
      </trkpt>
      <trkpt lat="49.58635" lon="3.44752">
        <ele>225.5</ele>
        <time>2025-10-05T09:23:08.000Z</time>
      </trkpt>
      <trkpt lat="49.58635" lon="3.44754">
        <ele>225.4</ele>
        <time>2025-10-05T09:23:09.000Z</time>
      </trkpt>
      <trkpt lat="49.58636" lon="3.44754">
        <ele>225.4</ele>
        <time>2025-10-05T09:23:10.000Z</time>
      </trkpt>
      <trkpt lat="49.58637" lon="3.44756">
        <ele>225.4</ele>
        <time>2025-10-05T09:23:11.000Z</time>
      </trkpt>
      <trkpt lat="49.58637" lon="3.44757">
        <ele>225.7</ele>
        <time>2025-10-05T09:23:12.000Z</time>
      </trkpt>
      <trkpt lat="49.58637" lon="3.44758">
        <ele>225.8</ele>
        <time>2025-10-05T09:23:13.000Z</time>
      </trkpt>
      <trkpt lat="49.58637" lon="3.44759">
        <ele>226.1</ele>
        <time>2025-10-05T09:23:14.000Z</time>
      </trkpt>
      <trkpt lat="49.58637" lon="3.4476">
        <ele>226.5</ele>
        <time>2025-10-05T09:23:15.000Z</time>
      </trkpt>
      <trkpt lat="49.58637" lon="3.44761">
        <ele>226.7</ele>
        <time>2025-10-05T09:23:16.000Z</time>
      </trkpt>
      <trkpt lat="49.58637" lon="3.44761">
        <ele>227</ele>
        <time>2025-10-05T09:23:17.000Z</time>
      </trkpt>
      <trkpt lat="49.58637" lon="3.44762">
        <ele>226.9</ele>
        <time>2025-10-05T09:23:18.000Z</time>
      </trkpt>
      <trkpt lat="49.58638" lon="3.44762">
        <ele>226.8</ele>
        <time>2025-10-05T09:23:19.000Z</time>
      </trkpt>
      <trkpt lat="49.58638" lon="3.44763">
        <ele>227</ele>
        <time>2025-10-05T09:23:20.000Z</time>
      </trkpt>
      <trkpt lat="49.58638" lon="3.44764">
        <ele>227</ele>
        <time>2025-10-05T09:23:21.000Z</time>
      </trkpt>
      <trkpt lat="49.58639" lon="3.44765">
        <ele>227.2</ele>
        <time>2025-10-05T09:23:22.000Z</time>
      </trkpt>
      <trkpt lat="49.58639" lon="3.44766">
        <ele>227.5</ele>
        <time>2025-10-05T09:23:23.000Z</time>
      </trkpt>
      <trkpt lat="49.58639" lon="3.44768">
        <ele>227.6</ele>
        <time>2025-10-05T09:23:24.000Z</time>
      </trkpt>
      <trkpt lat="49.58639" lon="3.44769">
        <ele>227.8</ele>
        <time>2025-10-05T09:23:25.000Z</time>
      </trkpt>
      <trkpt lat="49.5864" lon="3.4477">
        <ele>227.9</ele>
        <time>2025-10-05T09:23:26.000Z</time>
      </trkpt>
      <trkpt lat="49.58639" lon="3.4477">
        <ele>227.8</ele>
        <time>2025-10-05T09:23:27.000Z</time>
      </trkpt>
      <trkpt lat="49.5864" lon="3.4477">
        <ele>227.9</ele>
        <time>2025-10-05T09:23:28.000Z</time>
      </trkpt>
      <trkpt lat="49.5864" lon="3.4477">
        <ele>227.9</ele>
        <time>2025-10-05T09:23:29.000Z</time>
      </trkpt>
      <trkpt lat="49.5864" lon="3.4477">
        <ele>227.9</ele>
        <time>2025-10-05T09:23:30.000Z</time>
      </trkpt>
      <trkpt lat="49.5864" lon="3.4477">
        <ele>227.9</ele>
        <time>2025-10-05T09:23:31.000Z</time>
      </trkpt>
      <trkpt lat="49.5864" lon="3.4477">
        <ele>227.9</ele>
        <time>2025-10-05T09:23:32.000Z</time>
      </trkpt>
      <trkpt lat="49.5864" lon="3.4477">
        <ele>227.9</ele>
        <time>2025-10-05T09:23:33.000Z</time>
      </trkpt>
      <trkpt lat="49.58637" lon="3.44766">
        <ele>227.3</ele>
        <time>2025-10-05T09:23:34.000Z</time>
      </trkpt>
      <trkpt lat="49.58637" lon="3.44765">
        <ele>227</ele>
        <time>2025-10-05T09:23:35.000Z</time>
      </trkpt>
      <trkpt lat="49.58636" lon="3.44763">
        <ele>226.7</ele>
        <time>2025-10-05T09:23:36.000Z</time>
      </trkpt>
      <trkpt lat="49.58636" lon="3.44761">
        <ele>226.5</ele>
        <time>2025-10-05T09:23:37.000Z</time>
      </trkpt>
      <trkpt lat="49.58635" lon="3.44759">
        <ele>226.2</ele>
        <time>2025-10-05T09:23:38.000Z</time>
      </trkpt>
      <trkpt lat="49.58634" lon="3.44759">
        <ele>225.7</ele>
        <time>2025-10-05T09:23:39.000Z</time>
      </trkpt>
      <trkpt lat="49.58634" lon="3.44758">
        <ele>225.5</ele>
        <time>2025-10-05T09:23:40.000Z</time>
      </trkpt>
      <trkpt lat="49.58633" lon="3.44756">
        <ele>225.4</ele>
        <time>2025-10-05T09:23:41.000Z</time>
      </trkpt>
      <trkpt lat="49.58632" lon="3.44755">
        <ele>225.3</ele>
        <time>2025-10-05T09:23:42.000Z</time>
      </trkpt>
      <trkpt lat="49.58632" lon="3.44753">
        <ele>224.9</ele>
        <time>2025-10-05T09:23:43.000Z</time>
      </trkpt>
      <trkpt lat="49.58632" lon="3.44751">
        <ele>224.5</ele>
        <time>2025-10-05T09:23:44.000Z</time>
      </trkpt>
      <trkpt lat="49.58631" lon="3.4475">
        <ele>224.2</ele>
        <time>2025-10-05T09:23:45.000Z</time>
      </trkpt>
      <trkpt lat="49.5863" lon="3.44748">
        <ele>223.8</ele>
        <time>2025-10-05T09:23:46.000Z</time>
      </trkpt>
      <trkpt lat="49.5863" lon="3.44745">
        <ele>223.5</ele>
        <time>2025-10-05T09:23:47.000Z</time>
      </trkpt>
      <trkpt lat="49.5863" lon="3.44743">
        <ele>223.1</ele>
        <time>2025-10-05T09:23:48.000Z</time>
      </trkpt>
      <trkpt lat="49.5863" lon="3.4474">
        <ele>222.8</ele>
        <time>2025-10-05T09:23:49.000Z</time>
      </trkpt>
      <trkpt lat="49.58629" lon="3.44738">
        <ele>222.7</ele>
        <time>2025-10-05T09:23:50.000Z</time>
      </trkpt>
      <trkpt lat="49.58629" lon="3.44736">
        <ele>222.6</ele>
        <time>2025-10-05T09:23:51.000Z</time>
      </trkpt>
      <trkpt lat="49.58629" lon="3.44734">
        <ele>222.4</ele>
        <time>2025-10-05T09:23:52.000Z</time>
      </trkpt>
      <trkpt lat="49.58629" lon="3.44733">
        <ele>222.5</ele>
        <time>2025-10-05T09:23:53.000Z</time>
      </trkpt>
      <trkpt lat="49.58629" lon="3.44732">
        <ele>222.3</ele>
        <time>2025-10-05T09:23:54.000Z</time>
      </trkpt>
      <trkpt lat="49.58629" lon="3.44731">
        <ele>222.3</ele>
        <time>2025-10-05T09:23:55.000Z</time>
      </trkpt>
      <trkpt lat="49.5863" lon="3.4473">
        <ele>222.1</ele>
        <time>2025-10-05T09:23:56.000Z</time>
      </trkpt>
      <trkpt lat="49.5863" lon="3.4473">
        <ele>222.4</ele>
        <time>2025-10-05T09:23:57.000Z</time>
      </trkpt>
      <trkpt lat="49.58631" lon="3.44729">
        <ele>222.4</ele>
        <time>2025-10-05T09:23:58.000Z</time>
      </trkpt>
      <trkpt lat="49.58631" lon="3.44728">
        <ele>222.4</ele>
        <time>2025-10-05T09:23:59.000Z</time>
      </trkpt>
      <trkpt lat="49.58632" lon="3.44727">
        <ele>222.5</ele>
        <time>2025-10-05T09:24:00.000Z</time>
      </trkpt>
      <trkpt lat="49.58631" lon="3.44727">
        <ele>222</ele>
        <time>2025-10-05T09:24:01.000Z</time>
      </trkpt>
      <trkpt lat="49.58631" lon="3.44726">
        <ele>221.7</ele>
        <time>2025-10-05T09:24:02.000Z</time>
      </trkpt>
      <trkpt lat="49.5863" lon="3.44725">
        <ele>221.2</ele>
        <time>2025-10-05T09:24:03.000Z</time>
      </trkpt>
      <trkpt lat="49.58629" lon="3.44725">
        <ele>220.9</ele>
        <time>2025-10-05T09:24:04.000Z</time>
      </trkpt>
      <trkpt lat="49.58628" lon="3.44722">
        <ele>220.7</ele>
        <time>2025-10-05T09:24:05.000Z</time>
      </trkpt>
      <trkpt lat="49.58628" lon="3.44722">
        <ele>220</ele>
        <time>2025-10-05T09:24:06.000Z</time>
      </trkpt>
      <trkpt lat="49.58627" lon="3.44721">
        <ele>219.5</ele>
        <time>2025-10-05T09:24:07.000Z</time>
      </trkpt>
      <trkpt lat="49.58627" lon="3.44722">
        <ele>219</ele>
        <time>2025-10-05T09:24:08.000Z</time>
      </trkpt>
      <trkpt lat="49.58626" lon="3.44721">
        <ele>218.8</ele>
        <time>2025-10-05T09:24:09.000Z</time>
      </trkpt>
      <trkpt lat="49.58626" lon="3.44722">
        <ele>218.4</ele>
        <time>2025-10-05T09:24:10.000Z</time>
      </trkpt>
      <trkpt lat="49.58626" lon="3.44722">
        <ele>218.4</ele>
        <time>2025-10-05T09:24:11.000Z</time>
      </trkpt>
      <trkpt lat="49.58626" lon="3.44722">
        <ele>218.4</ele>
        <time>2025-10-05T09:24:12.000Z</time>
      </trkpt>
      <trkpt lat="49.58626" lon="3.44722">
        <ele>218.4</ele>
        <time>2025-10-05T09:24:13.000Z</time>
      </trkpt>
      <trkpt lat="49.58626" lon="3.44722">
        <ele>218.4</ele>
        <time>2025-10-05T09:24:14.000Z</time>
      </trkpt>
      <trkpt lat="49.58626" lon="3.44722">
        <ele>218.4</ele>
        <time>2025-10-05T09:24:15.000Z</time>
      </trkpt>
      <trkpt lat="49.58626" lon="3.44722">
        <ele>218.4</ele>
        <time>2025-10-05T09:24:16.000Z</time>
      </trkpt>
      <trkpt lat="49.58626" lon="3.44722">
        <ele>218.4</ele>
        <time>2025-10-05T09:24:17.000Z</time>
      </trkpt>
      <trkpt lat="49.58626" lon="3.44722">
        <ele>218.4</ele>
        <time>2025-10-05T09:24:18.000Z</time>
      </trkpt>
      <trkpt lat="49.58626" lon="3.44722">
        <ele>218.4</ele>
        <time>2025-10-05T09:24:19.000Z</time>
      </trkpt>
      <trkpt lat="49.58626" lon="3.44722">
        <ele>218.4</ele>
        <time>2025-10-05T09:24:20.000Z</time>
      </trkpt>
      <trkpt lat="49.58626" lon="3.44722">
        <ele>218.4</ele>
        <time>2025-10-05T09:24:21.000Z</time>
      </trkpt>
      <trkpt lat="49.58626" lon="3.44722">
        <ele>218.4</ele>
        <time>2025-10-05T09:24:22.000Z</time>
      </trkpt>
      <trkpt lat="49.58626" lon="3.44722">
        <ele>218.4</ele>
        <time>2025-10-05T09:24:23.000Z</time>
      </trkpt>
      <trkpt lat="49.58626" lon="3.44722">
        <ele>218.4</ele>
        <time>2025-10-05T09:24:24.000Z</time>
      </trkpt>
      <trkpt lat="49.58626" lon="3.44722">
        <ele>218.4</ele>
        <time>2025-10-05T09:24:25.000Z</time>
      </trkpt>
      <trkpt lat="49.58626" lon="3.44722">
        <ele>218.4</ele>
        <time>2025-10-05T09:24:26.000Z</time>
      </trkpt>
      <trkpt lat="49.58626" lon="3.44722">
        <ele>218.4</ele>
        <time>2025-10-05T09:24:27.000Z</time>
      </trkpt>
      <trkpt lat="49.58628" lon="3.44721">
        <ele>217</ele>
        <time>2025-10-05T09:24:28.000Z</time>
      </trkpt>
      <trkpt lat="49.58628" lon="3.44721">
        <ele>217.2</ele>
        <time>2025-10-05T09:24:29.000Z</time>
      </trkpt>
      <trkpt lat="49.58629" lon="3.44721">
        <ele>217.5</ele>
        <time>2025-10-05T09:24:30.000Z</time>
      </trkpt>
      <trkpt lat="49.5863" lon="3.44721">
        <ele>217.8</ele>
        <time>2025-10-05T09:24:31.000Z</time>
      </trkpt>
      <trkpt lat="49.58631" lon="3.44721">
        <ele>218.3</ele>
        <time>2025-10-05T09:24:32.000Z</time>
      </trkpt>
      <trkpt lat="49.58632" lon="3.44721">
        <ele>218.5</ele>
        <time>2025-10-05T09:24:33.000Z</time>
      </trkpt>
      <trkpt lat="49.58632" lon="3.4472">
        <ele>218.8</ele>
        <time>2025-10-05T09:24:34.000Z</time>
      </trkpt>
      <trkpt lat="49.58633" lon="3.4472">
        <ele>219.1</ele>
        <time>2025-10-05T09:24:35.000Z</time>
      </trkpt>
      <trkpt lat="49.58633" lon="3.44721">
        <ele>219.4</ele>
        <time>2025-10-05T09:24:36.000Z</time>
      </trkpt>
      <trkpt lat="49.58633" lon="3.44721">
        <ele>219.4</ele>
        <time>2025-10-05T09:24:37.000Z</time>
      </trkpt>
      <trkpt lat="49.58634" lon="3.4472">
        <ele>219.8</ele>
        <time>2025-10-05T09:24:38.000Z</time>
      </trkpt>
      <trkpt lat="49.58635" lon="3.44721">
        <ele>220</ele>
        <time>2025-10-05T09:24:39.000Z</time>
      </trkpt>
      <trkpt lat="49.58636" lon="3.44721">
        <ele>220.3</ele>
        <time>2025-10-05T09:24:40.000Z</time>
      </trkpt>
      <trkpt lat="49.58638" lon="3.44721">
        <ele>220.6</ele>
        <time>2025-10-05T09:24:41.000Z</time>
      </trkpt>
      <trkpt lat="49.58638" lon="3.4472">
        <ele>221.1</ele>
        <time>2025-10-05T09:24:42.000Z</time>
      </trkpt>
      <trkpt lat="49.58638" lon="3.4472">
        <ele>221.5</ele>
        <time>2025-10-05T09:24:43.000Z</time>
      </trkpt>
      <trkpt lat="49.58638" lon="3.4472">
        <ele>222.2</ele>
        <time>2025-10-05T09:24:44.000Z</time>
      </trkpt>
      <trkpt lat="49.58637" lon="3.44719">
        <ele>222.2</ele>
        <time>2025-10-05T09:24:45.000Z</time>
      </trkpt>
      <trkpt lat="49.58636" lon="3.44719">
        <ele>222.4</ele>
        <time>2025-10-05T09:24:46.000Z</time>
      </trkpt>
      <trkpt lat="49.58636" lon="3.44719">
        <ele>222.8</ele>
        <time>2025-10-05T09:24:47.000Z</time>
      </trkpt>
      <trkpt lat="49.58636" lon="3.44719">
        <ele>223.1</ele>
        <time>2025-10-05T09:24:48.000Z</time>
      </trkpt>
      <trkpt lat="49.58635" lon="3.44719">
        <ele>223.2</ele>
        <time>2025-10-05T09:24:49.000Z</time>
      </trkpt>
      <trkpt lat="49.58635" lon="3.44719">
        <ele>223.2</ele>
        <time>2025-10-05T09:24:50.000Z</time>
      </trkpt>
      <trkpt lat="49.58634" lon="3.44721">
        <ele>223.4</ele>
        <time>2025-10-05T09:24:51.000Z</time>
      </trkpt>
      <trkpt lat="49.58633" lon="3.44722">
        <ele>223.3</ele>
        <time>2025-10-05T09:24:52.000Z</time>
      </trkpt>
      <trkpt lat="49.58633" lon="3.44723">
        <ele>223.2</ele>
        <time>2025-10-05T09:24:53.000Z</time>
      </trkpt>
      <trkpt lat="49.58633" lon="3.44724">
        <ele>223.1</ele>
        <time>2025-10-05T09:24:54.000Z</time>
      </trkpt>
      <trkpt lat="49.58633" lon="3.44724">
        <ele>223.1</ele>
        <time>2025-10-05T09:24:55.000Z</time>
      </trkpt>
      <trkpt lat="49.58633" lon="3.44724">
        <ele>223.1</ele>
        <time>2025-10-05T09:24:56.000Z</time>
      </trkpt>
      <trkpt lat="49.58633" lon="3.44724">
        <ele>223.1</ele>
        <time>2025-10-05T09:24:57.000Z</time>
      </trkpt>
      <trkpt lat="49.58633" lon="3.44724">
        <ele>223.1</ele>
        <time>2025-10-05T09:24:58.000Z</time>
      </trkpt>
      <trkpt lat="49.58633" lon="3.44724">
        <ele>223.1</ele>
        <time>2025-10-05T09:24:59.000Z</time>
      </trkpt>
      <trkpt lat="49.58633" lon="3.44724">
        <ele>223.1</ele>
        <time>2025-10-05T09:25:00.000Z</time>
      </trkpt>
      <trkpt lat="49.58633" lon="3.44724">
        <ele>223.1</ele>
        <time>2025-10-05T09:25:01.000Z</time>
      </trkpt>
      <trkpt lat="49.58633" lon="3.44724">
        <ele>223.1</ele>
        <time>2025-10-05T09:25:02.000Z</time>
      </trkpt>
      <trkpt lat="49.58633" lon="3.44724">
        <ele>223.1</ele>
        <time>2025-10-05T09:25:03.000Z</time>
      </trkpt>
      <trkpt lat="49.58633" lon="3.44724">
        <ele>223.1</ele>
        <time>2025-10-05T09:25:04.000Z</time>
      </trkpt>
      <trkpt lat="49.58633" lon="3.44724">
        <ele>223.1</ele>
        <time>2025-10-05T09:25:05.000Z</time>
      </trkpt>
      <trkpt lat="49.58633" lon="3.44724">
        <ele>223.1</ele>
        <time>2025-10-05T09:25:06.000Z</time>
      </trkpt>
      <trkpt lat="49.58633" lon="3.44724">
        <ele>223.1</ele>
        <time>2025-10-05T09:25:07.000Z</time>
      </trkpt>
      <trkpt lat="49.58633" lon="3.44724">
        <ele>223.1</ele>
        <time>2025-10-05T09:25:08.000Z</time>
      </trkpt>
      <trkpt lat="49.58633" lon="3.44724">
        <ele>223.1</ele>
        <time>2025-10-05T09:25:09.000Z</time>
      </trkpt>
      <trkpt lat="49.58633" lon="3.44724">
        <ele>223.1</ele>
        <time>2025-10-05T09:25:10.000Z</time>
      </trkpt>
      <trkpt lat="49.58633" lon="3.44724">
        <ele>223.1</ele>
        <time>2025-10-05T09:25:11.000Z</time>
      </trkpt>
      <trkpt lat="49.58633" lon="3.44724">
        <ele>223.1</ele>
        <time>2025-10-05T09:25:12.000Z</time>
      </trkpt>
      <trkpt lat="49.58633" lon="3.44724">
        <ele>223.1</ele>
        <time>2025-10-05T09:25:13.000Z</time>
      </trkpt>
      <trkpt lat="49.58633" lon="3.44724">
        <ele>223.1</ele>
        <time>2025-10-05T09:25:14.000Z</time>
      </trkpt>
      <trkpt lat="49.58633" lon="3.44724">
        <ele>223.1</ele>
        <time>2025-10-05T09:25:15.000Z</time>
      </trkpt>
      <trkpt lat="49.58633" lon="3.44724">
        <ele>223.1</ele>
        <time>2025-10-05T09:25:16.000Z</time>
      </trkpt>
      <trkpt lat="49.58633" lon="3.44724">
        <ele>223.1</ele>
        <time>2025-10-05T09:25:17.000Z</time>
      </trkpt>
      <trkpt lat="49.58633" lon="3.44724">
        <ele>223.1</ele>
        <time>2025-10-05T09:25:18.000Z</time>
      </trkpt>
      <trkpt lat="49.58633" lon="3.44724">
        <ele>223.1</ele>
        <time>2025-10-05T09:25:19.000Z</time>
      </trkpt>
      <trkpt lat="49.58633" lon="3.44724">
        <ele>223.1</ele>
        <time>2025-10-05T09:25:20.000Z</time>
      </trkpt>
      <trkpt lat="49.58633" lon="3.44724">
        <ele>223.1</ele>
        <time>2025-10-05T09:25:21.000Z</time>
      </trkpt>
      <trkpt lat="49.58633" lon="3.44724">
        <ele>223.1</ele>
        <time>2025-10-05T09:25:22.000Z</time>
      </trkpt>
      <trkpt lat="49.58633" lon="3.44724">
        <ele>223.1</ele>
        <time>2025-10-05T09:25:23.000Z</time>
      </trkpt>
      <trkpt lat="49.58633" lon="3.44724">
        <ele>223.1</ele>
        <time>2025-10-05T09:25:24.000Z</time>
      </trkpt>
      <trkpt lat="49.58633" lon="3.44724">
        <ele>223.1</ele>
        <time>2025-10-05T09:25:25.000Z</time>
      </trkpt>
      <trkpt lat="49.58633" lon="3.44724">
        <ele>223.1</ele>
        <time>2025-10-05T09:25:26.000Z</time>
      </trkpt>
      <trkpt lat="49.58633" lon="3.44724">
        <ele>223.1</ele>
        <time>2025-10-05T09:25:27.000Z</time>
      </trkpt>
      <trkpt lat="49.58633" lon="3.44724">
        <ele>223.1</ele>
        <time>2025-10-05T09:25:28.000Z</time>
      </trkpt>
      <trkpt lat="49.58633" lon="3.44724">
        <ele>223.1</ele>
        <time>2025-10-05T09:25:29.000Z</time>
      </trkpt>
      <trkpt lat="49.58633" lon="3.44724">
        <ele>223.1</ele>
        <time>2025-10-05T09:25:30.000Z</time>
      </trkpt>
      <trkpt lat="49.58633" lon="3.44724">
        <ele>223.1</ele>
        <time>2025-10-05T09:25:31.000Z</time>
      </trkpt>
      <trkpt lat="49.58633" lon="3.44724">
        <ele>223.1</ele>
        <time>2025-10-05T09:25:32.000Z</time>
      </trkpt>
      <trkpt lat="49.58633" lon="3.44724">
        <ele>223.1</ele>
        <time>2025-10-05T09:25:33.000Z</time>
      </trkpt>
      <trkpt lat="49.58633" lon="3.44724">
        <ele>223.1</ele>
        <time>2025-10-05T09:25:34.000Z</time>
      </trkpt>
      <trkpt lat="49.58633" lon="3.44724">
        <ele>223.1</ele>
        <time>2025-10-05T09:25:35.000Z</time>
      </trkpt>
      <trkpt lat="49.58633" lon="3.44724">
        <ele>223.1</ele>
        <time>2025-10-05T09:25:36.000Z</time>
      </trkpt>
      <trkpt lat="49.58633" lon="3.44724">
        <ele>223.1</ele>
        <time>2025-10-05T09:25:37.000Z</time>
      </trkpt>
      <trkpt lat="49.58633" lon="3.44724">
        <ele>223.1</ele>
        <time>2025-10-05T09:25:38.000Z</time>
      </trkpt>
      <trkpt lat="49.58633" lon="3.44724">
        <ele>223.1</ele>
        <time>2025-10-05T09:25:39.000Z</time>
      </trkpt>
      <trkpt lat="49.58633" lon="3.44724">
        <ele>223.1</ele>
        <time>2025-10-05T09:25:40.000Z</time>
      </trkpt>
      <trkpt lat="49.58633" lon="3.44724">
        <ele>223.1</ele>
        <time>2025-10-05T09:25:41.000Z</time>
      </trkpt>
      <trkpt lat="49.58633" lon="3.44724">
        <ele>223.1</ele>
        <time>2025-10-05T09:25:42.000Z</time>
      </trkpt>
      <trkpt lat="49.58633" lon="3.44724">
        <ele>223.1</ele>
        <time>2025-10-05T09:25:43.000Z</time>
      </trkpt>
      <trkpt lat="49.58633" lon="3.44724">
        <ele>223.1</ele>
        <time>2025-10-05T09:25:44.000Z</time>
      </trkpt>
      <trkpt lat="49.58633" lon="3.44724">
        <ele>223.1</ele>
        <time>2025-10-05T09:25:45.000Z</time>
      </trkpt>
      <trkpt lat="49.58633" lon="3.44724">
        <ele>223.1</ele>
        <time>2025-10-05T09:25:46.000Z</time>
      </trkpt>
      <trkpt lat="49.58633" lon="3.44724">
        <ele>223.1</ele>
        <time>2025-10-05T09:25:47.000Z</time>
      </trkpt>
      <trkpt lat="49.58633" lon="3.44724">
        <ele>223.1</ele>
        <time>2025-10-05T09:25:48.000Z</time>
      </trkpt>
      <trkpt lat="49.58633" lon="3.44724">
        <ele>223.1</ele>
        <time>2025-10-05T09:25:49.000Z</time>
      </trkpt>
      <trkpt lat="49.58633" lon="3.44724">
        <ele>223.1</ele>
        <time>2025-10-05T09:25:50.000Z</time>
      </trkpt>
      <trkpt lat="49.58633" lon="3.44724">
        <ele>223.1</ele>
        <time>2025-10-05T09:25:51.000Z</time>
      </trkpt>
      <trkpt lat="49.58633" lon="3.44724">
        <ele>223.1</ele>
        <time>2025-10-05T09:25:52.000Z</time>
      </trkpt>
      <trkpt lat="49.58633" lon="3.44724">
        <ele>223.1</ele>
        <time>2025-10-05T09:25:53.000Z</time>
      </trkpt>
      <trkpt lat="49.58633" lon="3.44724">
        <ele>223.1</ele>
        <time>2025-10-05T09:25:54.000Z</time>
      </trkpt>
      <trkpt lat="49.58633" lon="3.44724">
        <ele>223.1</ele>
        <time>2025-10-05T09:25:55.000Z</time>
      </trkpt>
      <trkpt lat="49.58633" lon="3.44724">
        <ele>223.1</ele>
        <time>2025-10-05T09:25:56.000Z</time>
      </trkpt>
      <trkpt lat="49.58633" lon="3.44724">
        <ele>223.1</ele>
        <time>2025-10-05T09:25:57.000Z</time>
      </trkpt>
      <trkpt lat="49.58633" lon="3.44724">
        <ele>223.1</ele>
        <time>2025-10-05T09:25:58.000Z</time>
      </trkpt>
      <trkpt lat="49.58633" lon="3.44724">
        <ele>223.1</ele>
        <time>2025-10-05T09:25:59.000Z</time>
      </trkpt>
      <trkpt lat="49.58633" lon="3.44724">
        <ele>223.1</ele>
        <time>2025-10-05T09:26:00.000Z</time>
      </trkpt>
      <trkpt lat="49.58633" lon="3.44724">
        <ele>223.1</ele>
        <time>2025-10-05T09:26:01.000Z</time>
      </trkpt>
      <trkpt lat="49.58633" lon="3.44724">
        <ele>223.1</ele>
        <time>2025-10-05T09:26:02.000Z</time>
      </trkpt>
      <trkpt lat="49.58633" lon="3.44724">
        <ele>223.1</ele>
        <time>2025-10-05T09:26:03.000Z</time>
      </trkpt>
      <trkpt lat="49.58633" lon="3.44724">
        <ele>223.1</ele>
        <time>2025-10-05T09:26:04.000Z</time>
      </trkpt>
      <trkpt lat="49.58633" lon="3.44724">
        <ele>223.1</ele>
        <time>2025-10-05T09:26:05.000Z</time>
      </trkpt>
      <trkpt lat="49.58633" lon="3.44724">
        <ele>223.1</ele>
        <time>2025-10-05T09:26:06.000Z</time>
      </trkpt>
      <trkpt lat="49.58633" lon="3.44724">
        <ele>223.1</ele>
        <time>2025-10-05T09:26:07.000Z</time>
      </trkpt>
      <trkpt lat="49.58633" lon="3.44724">
        <ele>223.1</ele>
        <time>2025-10-05T09:26:08.000Z</time>
      </trkpt>
      <trkpt lat="49.58633" lon="3.44724">
        <ele>223.1</ele>
        <time>2025-10-05T09:26:09.000Z</time>
      </trkpt>
      <trkpt lat="49.58633" lon="3.44724">
        <ele>223.1</ele>
        <time>2025-10-05T09:26:10.000Z</time>
      </trkpt>
      <trkpt lat="49.58633" lon="3.44724">
        <ele>223.1</ele>
        <time>2025-10-05T09:26:11.000Z</time>
      </trkpt>
      <trkpt lat="49.58633" lon="3.44724">
        <ele>223.1</ele>
        <time>2025-10-05T09:26:12.000Z</time>
      </trkpt>
      <trkpt lat="49.58633" lon="3.44724">
        <ele>223.1</ele>
        <time>2025-10-05T09:26:13.000Z</time>
      </trkpt>
      <trkpt lat="49.58633" lon="3.44724">
        <ele>223.1</ele>
        <time>2025-10-05T09:26:14.000Z</time>
      </trkpt>
      <trkpt lat="49.58633" lon="3.44724">
        <ele>223.1</ele>
        <time>2025-10-05T09:26:15.000Z</time>
      </trkpt>
      <trkpt lat="49.58633" lon="3.44724">
        <ele>223.1</ele>
        <time>2025-10-05T09:26:16.000Z</time>
      </trkpt>
      <trkpt lat="49.58633" lon="3.44724">
        <ele>223.1</ele>
        <time>2025-10-05T09:26:17.000Z</time>
      </trkpt>
      <trkpt lat="49.58633" lon="3.44724">
        <ele>223.1</ele>
        <time>2025-10-05T09:26:18.000Z</time>
      </trkpt>
      <trkpt lat="49.58633" lon="3.44724">
        <ele>223.1</ele>
        <time>2025-10-05T09:26:19.000Z</time>
      </trkpt>
      <trkpt lat="49.58633" lon="3.44724">
        <ele>223.1</ele>
        <time>2025-10-05T09:26:20.000Z</time>
      </trkpt>
      <trkpt lat="49.58633" lon="3.44724">
        <ele>223.1</ele>
        <time>2025-10-05T09:26:21.000Z</time>
      </trkpt>
      <trkpt lat="49.58633" lon="3.44724">
        <ele>223.1</ele>
        <time>2025-10-05T09:26:22.000Z</time>
      </trkpt>
      <trkpt lat="49.58633" lon="3.44724">
        <ele>223.1</ele>
        <time>2025-10-05T09:26:23.000Z</time>
      </trkpt>
      <trkpt lat="49.58633" lon="3.44724">
        <ele>223.1</ele>
        <time>2025-10-05T09:26:24.000Z</time>
      </trkpt>
      <trkpt lat="49.58633" lon="3.44724">
        <ele>223.1</ele>
        <time>2025-10-05T09:26:25.000Z</time>
      </trkpt>
      <trkpt lat="49.58631" lon="3.44715">
        <ele>216.7</ele>
        <time>2025-10-05T09:26:26.000Z</time>
      </trkpt>
      <trkpt lat="49.5863" lon="3.44715">
        <ele>217</ele>
        <time>2025-10-05T09:26:27.000Z</time>
      </trkpt>
      <trkpt lat="49.58631" lon="3.44714">
        <ele>217.3</ele>
        <time>2025-10-05T09:26:28.000Z</time>
      </trkpt>
      <trkpt lat="49.58631" lon="3.44713">
        <ele>217.6</ele>
        <time>2025-10-05T09:26:29.000Z</time>
      </trkpt>
      <trkpt lat="49.58631" lon="3.44712">
        <ele>218.1</ele>
        <time>2025-10-05T09:26:30.000Z</time>
      </trkpt>
      <trkpt lat="49.58631" lon="3.44712">
        <ele>218.5</ele>
        <time>2025-10-05T09:26:31.000Z</time>
      </trkpt>
      <trkpt lat="49.58631" lon="3.4471">
        <ele>218.9</ele>
        <time>2025-10-05T09:26:32.000Z</time>
      </trkpt>
      <trkpt lat="49.58631" lon="3.4471">
        <ele>219.3</ele>
        <time>2025-10-05T09:26:33.000Z</time>
      </trkpt>
      <trkpt lat="49.58632" lon="3.44709">
        <ele>219.7</ele>
        <time>2025-10-05T09:26:34.000Z</time>
      </trkpt>
      <trkpt lat="49.58632" lon="3.44708">
        <ele>220.2</ele>
        <time>2025-10-05T09:26:35.000Z</time>
      </trkpt>
      <trkpt lat="49.58633" lon="3.44707">
        <ele>220.4</ele>
        <time>2025-10-05T09:26:36.000Z</time>
      </trkpt>
      <trkpt lat="49.58633" lon="3.44707">
        <ele>220.7</ele>
        <time>2025-10-05T09:26:37.000Z</time>
      </trkpt>
      <trkpt lat="49.58633" lon="3.44706">
        <ele>220.8</ele>
        <time>2025-10-05T09:26:38.000Z</time>
      </trkpt>
      <trkpt lat="49.58633" lon="3.44706">
        <ele>221</ele>
        <time>2025-10-05T09:26:39.000Z</time>
      </trkpt>
      <trkpt lat="49.58633" lon="3.44706">
        <ele>221.1</ele>
        <time>2025-10-05T09:26:40.000Z</time>
      </trkpt>
      <trkpt lat="49.58633" lon="3.44705">
        <ele>221.3</ele>
        <time>2025-10-05T09:26:41.000Z</time>
      </trkpt>
      <trkpt lat="49.58633" lon="3.44704">
        <ele>221.5</ele>
        <time>2025-10-05T09:26:42.000Z</time>
      </trkpt>
      <trkpt lat="49.58633" lon="3.44702">
        <ele>221.7</ele>
        <time>2025-10-05T09:26:43.000Z</time>
      </trkpt>
      <trkpt lat="49.58633" lon="3.44701">
        <ele>221.9</ele>
        <time>2025-10-05T09:26:44.000Z</time>
      </trkpt>
      <trkpt lat="49.58633" lon="3.447">
        <ele>222.1</ele>
        <time>2025-10-05T09:26:45.000Z</time>
      </trkpt>
      <trkpt lat="49.58633" lon="3.44699">
        <ele>222.2</ele>
        <time>2025-10-05T09:26:46.000Z</time>
      </trkpt>
      <trkpt lat="49.58633" lon="3.44698">
        <ele>222.2</ele>
        <time>2025-10-05T09:26:47.000Z</time>
      </trkpt>
      <trkpt lat="49.58634" lon="3.44695">
        <ele>222.2</ele>
        <time>2025-10-05T09:26:48.000Z</time>
      </trkpt>
      <trkpt lat="49.58634" lon="3.44694">
        <ele>222.3</ele>
        <time>2025-10-05T09:26:49.000Z</time>
      </trkpt>
      <trkpt lat="49.58635" lon="3.44693">
        <ele>222.3</ele>
        <time>2025-10-05T09:26:50.000Z</time>
      </trkpt>
      <trkpt lat="49.58635" lon="3.44692">
        <ele>222.5</ele>
        <time>2025-10-05T09:26:51.000Z</time>
      </trkpt>
      <trkpt lat="49.58636" lon="3.44691">
        <ele>222.5</ele>
        <time>2025-10-05T09:26:52.000Z</time>
      </trkpt>
      <trkpt lat="49.58636" lon="3.4469">
        <ele>222.4</ele>
        <time>2025-10-05T09:26:53.000Z</time>
      </trkpt>
      <trkpt lat="49.58636" lon="3.44689">
        <ele>222.3</ele>
        <time>2025-10-05T09:26:54.000Z</time>
      </trkpt>
      <trkpt lat="49.58636" lon="3.44688">
        <ele>222.3</ele>
        <time>2025-10-05T09:26:55.000Z</time>
      </trkpt>
      <trkpt lat="49.58636" lon="3.44686">
        <ele>222.1</ele>
        <time>2025-10-05T09:26:56.000Z</time>
      </trkpt>
      <trkpt lat="49.58637" lon="3.44685">
        <ele>222</ele>
        <time>2025-10-05T09:26:57.000Z</time>
      </trkpt>
      <trkpt lat="49.58638" lon="3.44683">
        <ele>221.8</ele>
        <time>2025-10-05T09:26:58.000Z</time>
      </trkpt>
      <trkpt lat="49.58638" lon="3.44681">
        <ele>221.7</ele>
        <time>2025-10-05T09:26:59.000Z</time>
      </trkpt>
      <trkpt lat="49.58638" lon="3.44679">
        <ele>221.7</ele>
        <time>2025-10-05T09:27:00.000Z</time>
      </trkpt>
      <trkpt lat="49.58639" lon="3.44677">
        <ele>221.6</ele>
        <time>2025-10-05T09:27:01.000Z</time>
      </trkpt>
      <trkpt lat="49.58638" lon="3.44676">
        <ele>222</ele>
        <time>2025-10-05T09:27:02.000Z</time>
      </trkpt>
      <trkpt lat="49.58638" lon="3.44675">
        <ele>222.2</ele>
        <time>2025-10-05T09:27:03.000Z</time>
      </trkpt>
      <trkpt lat="49.58638" lon="3.44674">
        <ele>222.4</ele>
        <time>2025-10-05T09:27:04.000Z</time>
      </trkpt>
      <trkpt lat="49.58639" lon="3.44672">
        <ele>222.6</ele>
        <time>2025-10-05T09:27:05.000Z</time>
      </trkpt>
      <trkpt lat="49.58639" lon="3.4467">
        <ele>222.8</ele>
        <time>2025-10-05T09:27:06.000Z</time>
      </trkpt>
      <trkpt lat="49.5864" lon="3.44668">
        <ele>222.8</ele>
        <time>2025-10-05T09:27:07.000Z</time>
      </trkpt>
      <trkpt lat="49.5864" lon="3.44668">
        <ele>222.8</ele>
        <time>2025-10-05T09:27:08.000Z</time>
      </trkpt>
      <trkpt lat="49.5864" lon="3.44667">
        <ele>222.8</ele>
        <time>2025-10-05T09:27:09.000Z</time>
      </trkpt>
      <trkpt lat="49.5864" lon="3.44666">
        <ele>222.7</ele>
        <time>2025-10-05T09:27:10.000Z</time>
      </trkpt>
      <trkpt lat="49.5864" lon="3.44665">
        <ele>222.6</ele>
        <time>2025-10-05T09:27:11.000Z</time>
      </trkpt>
      <trkpt lat="49.5864" lon="3.44663">
        <ele>222.6</ele>
        <time>2025-10-05T09:27:12.000Z</time>
      </trkpt>
      <trkpt lat="49.5864" lon="3.44662">
        <ele>222.5</ele>
        <time>2025-10-05T09:27:13.000Z</time>
      </trkpt>
      <trkpt lat="49.58641" lon="3.44661">
        <ele>222.4</ele>
        <time>2025-10-05T09:27:14.000Z</time>
      </trkpt>
      <trkpt lat="49.58641" lon="3.44659">
        <ele>222.2</ele>
        <time>2025-10-05T09:27:15.000Z</time>
      </trkpt>
      <trkpt lat="49.58642" lon="3.44658">
        <ele>222</ele>
        <time>2025-10-05T09:27:16.000Z</time>
      </trkpt>
      <trkpt lat="49.58642" lon="3.44658">
        <ele>221.8</ele>
        <time>2025-10-05T09:27:17.000Z</time>
      </trkpt>
      <trkpt lat="49.58642" lon="3.44657">
        <ele>221.4</ele>
        <time>2025-10-05T09:27:18.000Z</time>
      </trkpt>
      <trkpt lat="49.58642" lon="3.44657">
        <ele>221.3</ele>
        <time>2025-10-05T09:27:19.000Z</time>
      </trkpt>
      <trkpt lat="49.58642" lon="3.44657">
        <ele>221.1</ele>
        <time>2025-10-05T09:27:20.000Z</time>
      </trkpt>
      <trkpt lat="49.58642" lon="3.44656">
        <ele>220.8</ele>
        <time>2025-10-05T09:27:21.000Z</time>
      </trkpt>
      <trkpt lat="49.58643" lon="3.44655">
        <ele>220.7</ele>
        <time>2025-10-05T09:27:22.000Z</time>
      </trkpt>
      <trkpt lat="49.58643" lon="3.44655">
        <ele>220.6</ele>
        <time>2025-10-05T09:27:23.000Z</time>
      </trkpt>
      <trkpt lat="49.58643" lon="3.44654">
        <ele>220.6</ele>
        <time>2025-10-05T09:27:24.000Z</time>
      </trkpt>
      <trkpt lat="49.58643" lon="3.44654">
        <ele>220.5</ele>
        <time>2025-10-05T09:27:25.000Z</time>
      </trkpt>
      <trkpt lat="49.58642" lon="3.44654">
        <ele>220.4</ele>
        <time>2025-10-05T09:27:26.000Z</time>
      </trkpt>
      <trkpt lat="49.58642" lon="3.44654">
        <ele>220.3</ele>
        <time>2025-10-05T09:27:27.000Z</time>
      </trkpt>
      <trkpt lat="49.58641" lon="3.44654">
        <ele>220.2</ele>
        <time>2025-10-05T09:27:28.000Z</time>
      </trkpt>
      <trkpt lat="49.5864" lon="3.44655">
        <ele>220.2</ele>
        <time>2025-10-05T09:27:29.000Z</time>
      </trkpt>
      <trkpt lat="49.5864" lon="3.44655">
        <ele>220.3</ele>
        <time>2025-10-05T09:27:30.000Z</time>
      </trkpt>
      <trkpt lat="49.5864" lon="3.44655">
        <ele>220.4</ele>
        <time>2025-10-05T09:27:31.000Z</time>
      </trkpt>
      <trkpt lat="49.58639" lon="3.44656">
        <ele>220.2</ele>
        <time>2025-10-05T09:27:32.000Z</time>
      </trkpt>
      <trkpt lat="49.58639" lon="3.44656">
        <ele>220.1</ele>
        <time>2025-10-05T09:27:33.000Z</time>
      </trkpt>
      <trkpt lat="49.58638" lon="3.44657">
        <ele>220</ele>
        <time>2025-10-05T09:27:34.000Z</time>
      </trkpt>
      <trkpt lat="49.58637" lon="3.44657">
        <ele>220</ele>
        <time>2025-10-05T09:27:35.000Z</time>
      </trkpt>
      <trkpt lat="49.58636" lon="3.44657">
        <ele>220</ele>
        <time>2025-10-05T09:27:36.000Z</time>
      </trkpt>
      <trkpt lat="49.58636" lon="3.44657">
        <ele>219.9</ele>
        <time>2025-10-05T09:27:37.000Z</time>
      </trkpt>
      <trkpt lat="49.58635" lon="3.44657">
        <ele>219.9</ele>
        <time>2025-10-05T09:27:38.000Z</time>
      </trkpt>
      <trkpt lat="49.58634" lon="3.44657">
        <ele>220</ele>
        <time>2025-10-05T09:27:39.000Z</time>
      </trkpt>
      <trkpt lat="49.58633" lon="3.44658">
        <ele>220</ele>
        <time>2025-10-05T09:27:40.000Z</time>
      </trkpt>
      <trkpt lat="49.58632" lon="3.44658">
        <ele>220</ele>
        <time>2025-10-05T09:27:41.000Z</time>
      </trkpt>
      <trkpt lat="49.58631" lon="3.44658">
        <ele>220</ele>
        <time>2025-10-05T09:27:42.000Z</time>
      </trkpt>
      <trkpt lat="49.58631" lon="3.44657">
        <ele>220.1</ele>
        <time>2025-10-05T09:27:43.000Z</time>
      </trkpt>
      <trkpt lat="49.58631" lon="3.44657">
        <ele>220.2</ele>
        <time>2025-10-05T09:27:44.000Z</time>
      </trkpt>
      <trkpt lat="49.5863" lon="3.44657">
        <ele>220</ele>
        <time>2025-10-05T09:27:45.000Z</time>
      </trkpt>
      <trkpt lat="49.5863" lon="3.44656">
        <ele>219.8</ele>
        <time>2025-10-05T09:27:46.000Z</time>
      </trkpt>
      <trkpt lat="49.58629" lon="3.44656">
        <ele>219.6</ele>
        <time>2025-10-05T09:27:47.000Z</time>
      </trkpt>
      <trkpt lat="49.58629" lon="3.44655">
        <ele>219.5</ele>
        <time>2025-10-05T09:27:48.000Z</time>
      </trkpt>
      <trkpt lat="49.58628" lon="3.44654">
        <ele>219.4</ele>
        <time>2025-10-05T09:27:49.000Z</time>
      </trkpt>
      <trkpt lat="49.58628" lon="3.44653">
        <ele>219.6</ele>
        <time>2025-10-05T09:27:50.000Z</time>
      </trkpt>
      <trkpt lat="49.58627" lon="3.44653">
        <ele>219.6</ele>
        <time>2025-10-05T09:27:51.000Z</time>
      </trkpt>
      <trkpt lat="49.58626" lon="3.44653">
        <ele>219.7</ele>
        <time>2025-10-05T09:27:52.000Z</time>
      </trkpt>
      <trkpt lat="49.58625" lon="3.44653">
        <ele>219.9</ele>
        <time>2025-10-05T09:27:53.000Z</time>
      </trkpt>
      <trkpt lat="49.58624" lon="3.44653">
        <ele>219.8</ele>
        <time>2025-10-05T09:27:54.000Z</time>
      </trkpt>
      <trkpt lat="49.58624" lon="3.44653">
        <ele>219.6</ele>
        <time>2025-10-05T09:27:55.000Z</time>
      </trkpt>
      <trkpt lat="49.58624" lon="3.44652">
        <ele>219.4</ele>
        <time>2025-10-05T09:27:56.000Z</time>
      </trkpt>
      <trkpt lat="49.58623" lon="3.44651">
        <ele>219.2</ele>
        <time>2025-10-05T09:27:57.000Z</time>
      </trkpt>
      <trkpt lat="49.58623" lon="3.44649">
        <ele>219</ele>
        <time>2025-10-05T09:27:58.000Z</time>
      </trkpt>
      <trkpt lat="49.58623" lon="3.44649">
        <ele>218.9</ele>
        <time>2025-10-05T09:27:59.000Z</time>
      </trkpt>
      <trkpt lat="49.58622" lon="3.44649">
        <ele>218.9</ele>
        <time>2025-10-05T09:28:00.000Z</time>
      </trkpt>
      <trkpt lat="49.58622" lon="3.44648">
        <ele>218.8</ele>
        <time>2025-10-05T09:28:01.000Z</time>
      </trkpt>
      <trkpt lat="49.58622" lon="3.44647">
        <ele>218.6</ele>
        <time>2025-10-05T09:28:02.000Z</time>
      </trkpt>
      <trkpt lat="49.58621" lon="3.44646">
        <ele>218.5</ele>
        <time>2025-10-05T09:28:03.000Z</time>
      </trkpt>
      <trkpt lat="49.58622" lon="3.44646">
        <ele>218.4</ele>
        <time>2025-10-05T09:28:04.000Z</time>
      </trkpt>
      <trkpt lat="49.58621" lon="3.44646">
        <ele>218.3</ele>
        <time>2025-10-05T09:28:05.000Z</time>
      </trkpt>
      <trkpt lat="49.5862" lon="3.44645">
        <ele>218.3</ele>
        <time>2025-10-05T09:28:06.000Z</time>
      </trkpt>
      <trkpt lat="49.5862" lon="3.44646">
        <ele>218.1</ele>
        <time>2025-10-05T09:28:07.000Z</time>
      </trkpt>
      <trkpt lat="49.58619" lon="3.44646">
        <ele>218</ele>
        <time>2025-10-05T09:28:08.000Z</time>
      </trkpt>
      <trkpt lat="49.58619" lon="3.44646">
        <ele>217.9</ele>
        <time>2025-10-05T09:28:09.000Z</time>
      </trkpt>
      <trkpt lat="49.58618" lon="3.44646">
        <ele>217.9</ele>
        <time>2025-10-05T09:28:10.000Z</time>
      </trkpt>
      <trkpt lat="49.58618" lon="3.44646">
        <ele>218</ele>
        <time>2025-10-05T09:28:11.000Z</time>
      </trkpt>
      <trkpt lat="49.58618" lon="3.44646">
        <ele>217.9</ele>
        <time>2025-10-05T09:28:12.000Z</time>
      </trkpt>
      <trkpt lat="49.58618" lon="3.44646">
        <ele>217.9</ele>
        <time>2025-10-05T09:28:13.000Z</time>
      </trkpt>
      <trkpt lat="49.58619" lon="3.44645">
        <ele>218.1</ele>
        <time>2025-10-05T09:28:14.000Z</time>
      </trkpt>
      <trkpt lat="49.5862" lon="3.44644">
        <ele>218.4</ele>
        <time>2025-10-05T09:28:15.000Z</time>
      </trkpt>
      <trkpt lat="49.58621" lon="3.44644">
        <ele>218.6</ele>
        <time>2025-10-05T09:28:16.000Z</time>
      </trkpt>
      <trkpt lat="49.58622" lon="3.44643">
        <ele>219.1</ele>
        <time>2025-10-05T09:28:17.000Z</time>
      </trkpt>
      <trkpt lat="49.58623" lon="3.44642">
        <ele>219.6</ele>
        <time>2025-10-05T09:28:18.000Z</time>
      </trkpt>
      <trkpt lat="49.58623" lon="3.44642">
        <ele>220.1</ele>
        <time>2025-10-05T09:28:19.000Z</time>
      </trkpt>
      <trkpt lat="49.58624" lon="3.44642">
        <ele>220.2</ele>
        <time>2025-10-05T09:28:20.000Z</time>
      </trkpt>
      <trkpt lat="49.58624" lon="3.44642">
        <ele>220.2</ele>
        <time>2025-10-05T09:28:21.000Z</time>
      </trkpt>
      <trkpt lat="49.58623" lon="3.44642">
        <ele>220.2</ele>
        <time>2025-10-05T09:28:22.000Z</time>
      </trkpt>
      <trkpt lat="49.58623" lon="3.44642">
        <ele>220.2</ele>
        <time>2025-10-05T09:28:23.000Z</time>
      </trkpt>
      <trkpt lat="49.58623" lon="3.44642">
        <ele>220.2</ele>
        <time>2025-10-05T09:28:24.000Z</time>
      </trkpt>
      <trkpt lat="49.58623" lon="3.44642">
        <ele>220.2</ele>
        <time>2025-10-05T09:28:25.000Z</time>
      </trkpt>
      <trkpt lat="49.58623" lon="3.44642">
        <ele>220.2</ele>
        <time>2025-10-05T09:28:26.000Z</time>
      </trkpt>
      <trkpt lat="49.58623" lon="3.44642">
        <ele>220.2</ele>
        <time>2025-10-05T09:28:27.000Z</time>
      </trkpt>
      <trkpt lat="49.58623" lon="3.44642">
        <ele>220.2</ele>
        <time>2025-10-05T09:28:28.000Z</time>
      </trkpt>
      <trkpt lat="49.58623" lon="3.44642">
        <ele>220.2</ele>
        <time>2025-10-05T09:28:29.000Z</time>
      </trkpt>
      <trkpt lat="49.58623" lon="3.44642">
        <ele>220.2</ele>
        <time>2025-10-05T09:28:30.000Z</time>
      </trkpt>
      <trkpt lat="49.58623" lon="3.44642">
        <ele>220.2</ele>
        <time>2025-10-05T09:28:31.000Z</time>
      </trkpt>
      <trkpt lat="49.58623" lon="3.44642">
        <ele>220.2</ele>
        <time>2025-10-05T09:28:32.000Z</time>
      </trkpt>
      <trkpt lat="49.58623" lon="3.44642">
        <ele>220.2</ele>
        <time>2025-10-05T09:28:33.000Z</time>
      </trkpt>
      <trkpt lat="49.58623" lon="3.44642">
        <ele>220.2</ele>
        <time>2025-10-05T09:28:34.000Z</time>
      </trkpt>
      <trkpt lat="49.58623" lon="3.44642">
        <ele>220.2</ele>
        <time>2025-10-05T09:28:35.000Z</time>
      </trkpt>
      <trkpt lat="49.58623" lon="3.44642">
        <ele>220.2</ele>
        <time>2025-10-05T09:28:36.000Z</time>
      </trkpt>
      <trkpt lat="49.58623" lon="3.44642">
        <ele>220.2</ele>
        <time>2025-10-05T09:28:37.000Z</time>
      </trkpt>
      <trkpt lat="49.58623" lon="3.44642">
        <ele>220.2</ele>
        <time>2025-10-05T09:28:38.000Z</time>
      </trkpt>
      <trkpt lat="49.58623" lon="3.44642">
        <ele>220.2</ele>
        <time>2025-10-05T09:28:39.000Z</time>
      </trkpt>
      <trkpt lat="49.58623" lon="3.44642">
        <ele>220.2</ele>
        <time>2025-10-05T09:28:40.000Z</time>
      </trkpt>
      <trkpt lat="49.58623" lon="3.44642">
        <ele>220.2</ele>
        <time>2025-10-05T09:28:41.000Z</time>
      </trkpt>
      <trkpt lat="49.58623" lon="3.44642">
        <ele>220.2</ele>
        <time>2025-10-05T09:28:42.000Z</time>
      </trkpt>
      <trkpt lat="49.5862" lon="3.44637">
        <ele>220.8</ele>
        <time>2025-10-05T09:28:43.000Z</time>
      </trkpt>
      <trkpt lat="49.58619" lon="3.44636">
        <ele>220.5</ele>
        <time>2025-10-05T09:28:44.000Z</time>
      </trkpt>
      <trkpt lat="49.58618" lon="3.44636">
        <ele>220.5</ele>
        <time>2025-10-05T09:28:45.000Z</time>
      </trkpt>
      <trkpt lat="49.58618" lon="3.44635">
        <ele>220.9</ele>
        <time>2025-10-05T09:28:46.000Z</time>
      </trkpt>
      <trkpt lat="49.58618" lon="3.44634">
        <ele>221.1</ele>
        <time>2025-10-05T09:28:47.000Z</time>
      </trkpt>
      <trkpt lat="49.58619" lon="3.44634">
        <ele>221.4</ele>
        <time>2025-10-05T09:28:48.000Z</time>
      </trkpt>
      <trkpt lat="49.58618" lon="3.44634">
        <ele>221.7</ele>
        <time>2025-10-05T09:28:49.000Z</time>
      </trkpt>
      <trkpt lat="49.58618" lon="3.44633">
        <ele>221.9</ele>
        <time>2025-10-05T09:28:50.000Z</time>
      </trkpt>
      <trkpt lat="49.58618" lon="3.44633">
        <ele>222.5</ele>
        <time>2025-10-05T09:28:51.000Z</time>
      </trkpt>
      <trkpt lat="49.58617" lon="3.44632">
        <ele>222.9</ele>
        <time>2025-10-05T09:28:52.000Z</time>
      </trkpt>
      <trkpt lat="49.58617" lon="3.44631">
        <ele>223</ele>
        <time>2025-10-05T09:28:53.000Z</time>
      </trkpt>
      <trkpt lat="49.58617" lon="3.44631">
        <ele>222.8</ele>
        <time>2025-10-05T09:28:54.000Z</time>
      </trkpt>
      <trkpt lat="49.58617" lon="3.4463">
        <ele>222.7</ele>
        <time>2025-10-05T09:28:55.000Z</time>
      </trkpt>
      <trkpt lat="49.58616" lon="3.44629">
        <ele>222.7</ele>
        <time>2025-10-05T09:28:56.000Z</time>
      </trkpt>
      <trkpt lat="49.58616" lon="3.44628">
        <ele>222.5</ele>
        <time>2025-10-05T09:28:57.000Z</time>
      </trkpt>
      <trkpt lat="49.58616" lon="3.44627">
        <ele>222.2</ele>
        <time>2025-10-05T09:28:58.000Z</time>
      </trkpt>
      <trkpt lat="49.58615" lon="3.44626">
        <ele>221.9</ele>
        <time>2025-10-05T09:28:59.000Z</time>
      </trkpt>
      <trkpt lat="49.58616" lon="3.44626">
        <ele>221.9</ele>
        <time>2025-10-05T09:29:00.000Z</time>
      </trkpt>
      <trkpt lat="49.58616" lon="3.44626">
        <ele>221.9</ele>
        <time>2025-10-05T09:29:01.000Z</time>
      </trkpt>
      <trkpt lat="49.58616" lon="3.44625">
        <ele>221.6</ele>
        <time>2025-10-05T09:29:02.000Z</time>
      </trkpt>
      <trkpt lat="49.58616" lon="3.44625">
        <ele>221.3</ele>
        <time>2025-10-05T09:29:03.000Z</time>
      </trkpt>
      <trkpt lat="49.58616" lon="3.44625">
        <ele>221.1</ele>
        <time>2025-10-05T09:29:04.000Z</time>
      </trkpt>
      <trkpt lat="49.58616" lon="3.44624">
        <ele>220.9</ele>
        <time>2025-10-05T09:29:05.000Z</time>
      </trkpt>
      <trkpt lat="49.58617" lon="3.44624">
        <ele>221</ele>
        <time>2025-10-05T09:29:06.000Z</time>
      </trkpt>
      <trkpt lat="49.58617" lon="3.44624">
        <ele>220.9</ele>
        <time>2025-10-05T09:29:07.000Z</time>
      </trkpt>
      <trkpt lat="49.58617" lon="3.44624">
        <ele>221.1</ele>
        <time>2025-10-05T09:29:08.000Z</time>
      </trkpt>
      <trkpt lat="49.58617" lon="3.44624">
        <ele>221.1</ele>
        <time>2025-10-05T09:29:09.000Z</time>
      </trkpt>
      <trkpt lat="49.58617" lon="3.44624">
        <ele>221.1</ele>
        <time>2025-10-05T09:29:10.000Z</time>
      </trkpt>
      <trkpt lat="49.58617" lon="3.44624">
        <ele>221.1</ele>
        <time>2025-10-05T09:29:11.000Z</time>
      </trkpt>
      <trkpt lat="49.58617" lon="3.44624">
        <ele>221.1</ele>
        <time>2025-10-05T09:29:12.000Z</time>
      </trkpt>
      <trkpt lat="49.58617" lon="3.44624">
        <ele>221.1</ele>
        <time>2025-10-05T09:29:13.000Z</time>
      </trkpt>
      <trkpt lat="49.58617" lon="3.44624">
        <ele>221.1</ele>
        <time>2025-10-05T09:29:14.000Z</time>
      </trkpt>
      <trkpt lat="49.58617" lon="3.44624">
        <ele>221.1</ele>
        <time>2025-10-05T09:29:15.000Z</time>
      </trkpt>
      <trkpt lat="49.58617" lon="3.44624">
        <ele>221.1</ele>
        <time>2025-10-05T09:29:16.000Z</time>
      </trkpt>
      <trkpt lat="49.58617" lon="3.44624">
        <ele>221.1</ele>
        <time>2025-10-05T09:29:17.000Z</time>
      </trkpt>
      <trkpt lat="49.58617" lon="3.44624">
        <ele>221.1</ele>
        <time>2025-10-05T09:29:18.000Z</time>
      </trkpt>
      <trkpt lat="49.58617" lon="3.44624">
        <ele>221.1</ele>
        <time>2025-10-05T09:29:19.000Z</time>
      </trkpt>
      <trkpt lat="49.58617" lon="3.44624">
        <ele>221.1</ele>
        <time>2025-10-05T09:29:20.000Z</time>
      </trkpt>
      <trkpt lat="49.58617" lon="3.44624">
        <ele>221.1</ele>
        <time>2025-10-05T09:29:21.000Z</time>
      </trkpt>
      <trkpt lat="49.58617" lon="3.44624">
        <ele>221.1</ele>
        <time>2025-10-05T09:29:22.000Z</time>
      </trkpt>
      <trkpt lat="49.58617" lon="3.44624">
        <ele>221.1</ele>
        <time>2025-10-05T09:29:23.000Z</time>
      </trkpt>
      <trkpt lat="49.58617" lon="3.44624">
        <ele>221.1</ele>
        <time>2025-10-05T09:29:24.000Z</time>
      </trkpt>
      <trkpt lat="49.58617" lon="3.44624">
        <ele>221.1</ele>
        <time>2025-10-05T09:29:25.000Z</time>
      </trkpt>
      <trkpt lat="49.58617" lon="3.44624">
        <ele>221.1</ele>
        <time>2025-10-05T09:29:26.000Z</time>
      </trkpt>
      <trkpt lat="49.58617" lon="3.44624">
        <ele>221.1</ele>
        <time>2025-10-05T09:29:27.000Z</time>
      </trkpt>
      <trkpt lat="49.58617" lon="3.44624">
        <ele>221.1</ele>
        <time>2025-10-05T09:29:28.000Z</time>
      </trkpt>
      <trkpt lat="49.58617" lon="3.44624">
        <ele>221.1</ele>
        <time>2025-10-05T09:29:29.000Z</time>
      </trkpt>
      <trkpt lat="49.58617" lon="3.44624">
        <ele>221.1</ele>
        <time>2025-10-05T09:29:30.000Z</time>
      </trkpt>
      <trkpt lat="49.58617" lon="3.44624">
        <ele>221.1</ele>
        <time>2025-10-05T09:29:31.000Z</time>
      </trkpt>
      <trkpt lat="49.58616" lon="3.44625">
        <ele>219.5</ele>
        <time>2025-10-05T09:29:32.000Z</time>
      </trkpt>
      <trkpt lat="49.58615" lon="3.44625">
        <ele>219.6</ele>
        <time>2025-10-05T09:29:33.000Z</time>
      </trkpt>
      <trkpt lat="49.58614" lon="3.44625">
        <ele>219.5</ele>
        <time>2025-10-05T09:29:34.000Z</time>
      </trkpt>
      <trkpt lat="49.58613" lon="3.44624">
        <ele>219.4</ele>
        <time>2025-10-05T09:29:35.000Z</time>
      </trkpt>
      <trkpt lat="49.58611" lon="3.44624">
        <ele>219.4</ele>
        <time>2025-10-05T09:29:36.000Z</time>
      </trkpt>
      <trkpt lat="49.5861" lon="3.44623">
        <ele>219.5</ele>
        <time>2025-10-05T09:29:37.000Z</time>
      </trkpt>
      <trkpt lat="49.58609" lon="3.44623">
        <ele>219.4</ele>
        <time>2025-10-05T09:29:38.000Z</time>
      </trkpt>
      <trkpt lat="49.58608" lon="3.44623">
        <ele>219.4</ele>
        <time>2025-10-05T09:29:39.000Z</time>
      </trkpt>
      <trkpt lat="49.58607" lon="3.44622">
        <ele>219.4</ele>
        <time>2025-10-05T09:29:40.000Z</time>
      </trkpt>
      <trkpt lat="49.58606" lon="3.44621">
        <ele>219.5</ele>
        <time>2025-10-05T09:29:41.000Z</time>
      </trkpt>
      <trkpt lat="49.58605" lon="3.44621">
        <ele>219.7</ele>
        <time>2025-10-05T09:29:42.000Z</time>
      </trkpt>
      <trkpt lat="49.58604" lon="3.4462">
        <ele>219.8</ele>
        <time>2025-10-05T09:29:43.000Z</time>
      </trkpt>
      <trkpt lat="49.58603" lon="3.4462">
        <ele>219.9</ele>
        <time>2025-10-05T09:29:44.000Z</time>
      </trkpt>
      <trkpt lat="49.58602" lon="3.44619">
        <ele>220</ele>
        <time>2025-10-05T09:29:45.000Z</time>
      </trkpt>
      <trkpt lat="49.58601" lon="3.44619">
        <ele>220</ele>
        <time>2025-10-05T09:29:46.000Z</time>
      </trkpt>
      <trkpt lat="49.586" lon="3.44618">
        <ele>219.9</ele>
        <time>2025-10-05T09:29:47.000Z</time>
      </trkpt>
      <trkpt lat="49.58598" lon="3.44617">
        <ele>219.8</ele>
        <time>2025-10-05T09:29:48.000Z</time>
      </trkpt>
      <trkpt lat="49.58597" lon="3.44617">
        <ele>219.9</ele>
        <time>2025-10-05T09:29:49.000Z</time>
      </trkpt>
      <trkpt lat="49.58596" lon="3.44617">
        <ele>219.7</ele>
        <time>2025-10-05T09:29:50.000Z</time>
      </trkpt>
      <trkpt lat="49.58595" lon="3.44616">
        <ele>219.6</ele>
        <time>2025-10-05T09:29:51.000Z</time>
      </trkpt>
      <trkpt lat="49.58594" lon="3.44615">
        <ele>219.4</ele>
        <time>2025-10-05T09:29:52.000Z</time>
      </trkpt>
      <trkpt lat="49.58593" lon="3.44615">
        <ele>219.3</ele>
        <time>2025-10-05T09:29:53.000Z</time>
      </trkpt>
      <trkpt lat="49.58593" lon="3.44614">
        <ele>219.1</ele>
        <time>2025-10-05T09:29:54.000Z</time>
      </trkpt>
      <trkpt lat="49.58592" lon="3.44613">
        <ele>218.9</ele>
        <time>2025-10-05T09:29:55.000Z</time>
      </trkpt>
      <trkpt lat="49.58591" lon="3.44613">
        <ele>218.7</ele>
        <time>2025-10-05T09:29:56.000Z</time>
      </trkpt>
      <trkpt lat="49.5859" lon="3.44612">
        <ele>218.6</ele>
        <time>2025-10-05T09:29:57.000Z</time>
      </trkpt>
      <trkpt lat="49.5859" lon="3.44612">
        <ele>218.5</ele>
        <time>2025-10-05T09:29:58.000Z</time>
      </trkpt>
      <trkpt lat="49.58589" lon="3.44611">
        <ele>218.4</ele>
        <time>2025-10-05T09:29:59.000Z</time>
      </trkpt>
      <trkpt lat="49.58588" lon="3.44611">
        <ele>218</ele>
        <time>2025-10-05T09:30:00.000Z</time>
      </trkpt>
      <trkpt lat="49.58587" lon="3.44611">
        <ele>217.5</ele>
        <time>2025-10-05T09:30:01.000Z</time>
      </trkpt>
      <trkpt lat="49.58585" lon="3.4461">
        <ele>217</ele>
        <time>2025-10-05T09:30:02.000Z</time>
      </trkpt>
      <trkpt lat="49.58585" lon="3.44609">
        <ele>216.6</ele>
        <time>2025-10-05T09:30:03.000Z</time>
      </trkpt>
      <trkpt lat="49.58583" lon="3.44609">
        <ele>216.4</ele>
        <time>2025-10-05T09:30:04.000Z</time>
      </trkpt>
      <trkpt lat="49.58582" lon="3.44608">
        <ele>216.3</ele>
        <time>2025-10-05T09:30:05.000Z</time>
      </trkpt>
      <trkpt lat="49.58581" lon="3.44607">
        <ele>215.8</ele>
        <time>2025-10-05T09:30:06.000Z</time>
      </trkpt>
      <trkpt lat="49.58579" lon="3.44607">
        <ele>215.7</ele>
        <time>2025-10-05T09:30:07.000Z</time>
      </trkpt>
      <trkpt lat="49.58578" lon="3.44607">
        <ele>215.4</ele>
        <time>2025-10-05T09:30:08.000Z</time>
      </trkpt>
      <trkpt lat="49.58577" lon="3.44606">
        <ele>215.3</ele>
        <time>2025-10-05T09:30:09.000Z</time>
      </trkpt>
      <trkpt lat="49.58575" lon="3.44606">
        <ele>215.3</ele>
        <time>2025-10-05T09:30:10.000Z</time>
      </trkpt>
      <trkpt lat="49.58574" lon="3.44605">
        <ele>215.3</ele>
        <time>2025-10-05T09:30:11.000Z</time>
      </trkpt>
      <trkpt lat="49.58574" lon="3.44605">
        <ele>215.4</ele>
        <time>2025-10-05T09:30:12.000Z</time>
      </trkpt>
      <trkpt lat="49.58573" lon="3.44605">
        <ele>215.5</ele>
        <time>2025-10-05T09:30:13.000Z</time>
      </trkpt>
      <trkpt lat="49.58571" lon="3.44605">
        <ele>215.6</ele>
        <time>2025-10-05T09:30:14.000Z</time>
      </trkpt>
      <trkpt lat="49.5857" lon="3.44604">
        <ele>215.6</ele>
        <time>2025-10-05T09:30:15.000Z</time>
      </trkpt>
      <trkpt lat="49.58569" lon="3.44604">
        <ele>215.6</ele>
        <time>2025-10-05T09:30:16.000Z</time>
      </trkpt>
      <trkpt lat="49.58568" lon="3.44604">
        <ele>215.5</ele>
        <time>2025-10-05T09:30:17.000Z</time>
      </trkpt>
      <trkpt lat="49.58566" lon="3.44604">
        <ele>215.4</ele>
        <time>2025-10-05T09:30:18.000Z</time>
      </trkpt>
      <trkpt lat="49.58565" lon="3.44604">
        <ele>215.3</ele>
        <time>2025-10-05T09:30:19.000Z</time>
      </trkpt>
      <trkpt lat="49.58563" lon="3.44603">
        <ele>215.1</ele>
        <time>2025-10-05T09:30:20.000Z</time>
      </trkpt>
      <trkpt lat="49.58562" lon="3.44602">
        <ele>214.9</ele>
        <time>2025-10-05T09:30:21.000Z</time>
      </trkpt>
      <trkpt lat="49.58561" lon="3.44602">
        <ele>215</ele>
        <time>2025-10-05T09:30:22.000Z</time>
      </trkpt>
      <trkpt lat="49.58559" lon="3.44602">
        <ele>215</ele>
        <time>2025-10-05T09:30:23.000Z</time>
      </trkpt>
      <trkpt lat="49.58558" lon="3.44602">
        <ele>215</ele>
        <time>2025-10-05T09:30:24.000Z</time>
      </trkpt>
      <trkpt lat="49.58557" lon="3.44602">
        <ele>215</ele>
        <time>2025-10-05T09:30:25.000Z</time>
      </trkpt>
      <trkpt lat="49.58555" lon="3.44601">
        <ele>215</ele>
        <time>2025-10-05T09:30:26.000Z</time>
      </trkpt>
      <trkpt lat="49.58554" lon="3.44601">
        <ele>215.1</ele>
        <time>2025-10-05T09:30:27.000Z</time>
      </trkpt>
      <trkpt lat="49.58553" lon="3.44601">
        <ele>215.2</ele>
        <time>2025-10-05T09:30:28.000Z</time>
      </trkpt>
      <trkpt lat="49.58551" lon="3.44601">
        <ele>215.2</ele>
        <time>2025-10-05T09:30:29.000Z</time>
      </trkpt>
      <trkpt lat="49.5855" lon="3.44601">
        <ele>215.3</ele>
        <time>2025-10-05T09:30:30.000Z</time>
      </trkpt>
      <trkpt lat="49.58549" lon="3.446">
        <ele>215.3</ele>
        <time>2025-10-05T09:30:31.000Z</time>
      </trkpt>
      <trkpt lat="49.58547" lon="3.44599">
        <ele>215.2</ele>
        <time>2025-10-05T09:30:32.000Z</time>
      </trkpt>
      <trkpt lat="49.58546" lon="3.44599">
        <ele>214.9</ele>
        <time>2025-10-05T09:30:33.000Z</time>
      </trkpt>
      <trkpt lat="49.58544" lon="3.44598">
        <ele>214.8</ele>
        <time>2025-10-05T09:30:34.000Z</time>
      </trkpt>
      <trkpt lat="49.58543" lon="3.44598">
        <ele>214.8</ele>
        <time>2025-10-05T09:30:35.000Z</time>
      </trkpt>
      <trkpt lat="49.58543" lon="3.44597">
        <ele>214.9</ele>
        <time>2025-10-05T09:30:36.000Z</time>
      </trkpt>
      <trkpt lat="49.58542" lon="3.44597">
        <ele>214.6</ele>
        <time>2025-10-05T09:30:37.000Z</time>
      </trkpt>
      <trkpt lat="49.58542" lon="3.44597">
        <ele>214.5</ele>
        <time>2025-10-05T09:30:38.000Z</time>
      </trkpt>
      <trkpt lat="49.58541" lon="3.44597">
        <ele>214.2</ele>
        <time>2025-10-05T09:30:39.000Z</time>
      </trkpt>
      <trkpt lat="49.5854" lon="3.44596">
        <ele>213.3</ele>
        <time>2025-10-05T09:30:40.000Z</time>
      </trkpt>
      <trkpt lat="49.58539" lon="3.44596">
        <ele>212.8</ele>
        <time>2025-10-05T09:30:41.000Z</time>
      </trkpt>
      <trkpt lat="49.58539" lon="3.44596">
        <ele>212.4</ele>
        <time>2025-10-05T09:30:42.000Z</time>
      </trkpt>
      <trkpt lat="49.58538" lon="3.44596">
        <ele>212.2</ele>
        <time>2025-10-05T09:30:43.000Z</time>
      </trkpt>
      <trkpt lat="49.58536" lon="3.44595">
        <ele>212.7</ele>
        <time>2025-10-05T09:30:44.000Z</time>
      </trkpt>
      <trkpt lat="49.58535" lon="3.44595">
        <ele>213</ele>
        <time>2025-10-05T09:30:45.000Z</time>
      </trkpt>
      <trkpt lat="49.58534" lon="3.44594">
        <ele>213</ele>
        <time>2025-10-05T09:30:46.000Z</time>
      </trkpt>
      <trkpt lat="49.58533" lon="3.44593">
        <ele>212.6</ele>
        <time>2025-10-05T09:30:47.000Z</time>
      </trkpt>
      <trkpt lat="49.58531" lon="3.44592">
        <ele>212.5</ele>
        <time>2025-10-05T09:30:48.000Z</time>
      </trkpt>
      <trkpt lat="49.5853" lon="3.44591">
        <ele>212.5</ele>
        <time>2025-10-05T09:30:49.000Z</time>
      </trkpt>
      <trkpt lat="49.58529" lon="3.44591">
        <ele>212.6</ele>
        <time>2025-10-05T09:30:50.000Z</time>
      </trkpt>
      <trkpt lat="49.58528" lon="3.44589">
        <ele>212.6</ele>
        <time>2025-10-05T09:30:51.000Z</time>
      </trkpt>
      <trkpt lat="49.58527" lon="3.44588">
        <ele>212.8</ele>
        <time>2025-10-05T09:30:52.000Z</time>
      </trkpt>
      <trkpt lat="49.58526" lon="3.44587">
        <ele>212.9</ele>
        <time>2025-10-05T09:30:53.000Z</time>
      </trkpt>
      <trkpt lat="49.58525" lon="3.44587">
        <ele>213</ele>
        <time>2025-10-05T09:30:54.000Z</time>
      </trkpt>
      <trkpt lat="49.58524" lon="3.44586">
        <ele>213.3</ele>
        <time>2025-10-05T09:30:55.000Z</time>
      </trkpt>
      <trkpt lat="49.58522" lon="3.44585">
        <ele>213.7</ele>
        <time>2025-10-05T09:30:56.000Z</time>
      </trkpt>
      <trkpt lat="49.58521" lon="3.44583">
        <ele>213.7</ele>
        <time>2025-10-05T09:30:57.000Z</time>
      </trkpt>
      <trkpt lat="49.58519" lon="3.44583">
        <ele>213.4</ele>
        <time>2025-10-05T09:30:58.000Z</time>
      </trkpt>
      <trkpt lat="49.58518" lon="3.44582">
        <ele>213</ele>
        <time>2025-10-05T09:30:59.000Z</time>
      </trkpt>
      <trkpt lat="49.58516" lon="3.44581">
        <ele>212.4</ele>
        <time>2025-10-05T09:31:00.000Z</time>
      </trkpt>
      <trkpt lat="49.58515" lon="3.44582">
        <ele>212.4</ele>
        <time>2025-10-05T09:31:01.000Z</time>
      </trkpt>
      <trkpt lat="49.58514" lon="3.44582">
        <ele>212.2</ele>
        <time>2025-10-05T09:31:02.000Z</time>
      </trkpt>
      <trkpt lat="49.58513" lon="3.44581">
        <ele>212</ele>
        <time>2025-10-05T09:31:03.000Z</time>
      </trkpt>
      <trkpt lat="49.58512" lon="3.4458">
        <ele>211.8</ele>
        <time>2025-10-05T09:31:04.000Z</time>
      </trkpt>
      <trkpt lat="49.58512" lon="3.4458">
        <ele>211.8</ele>
        <time>2025-10-05T09:31:05.000Z</time>
      </trkpt>
      <trkpt lat="49.58511" lon="3.44579">
        <ele>211.7</ele>
        <time>2025-10-05T09:31:06.000Z</time>
      </trkpt>
      <trkpt lat="49.5851" lon="3.44579">
        <ele>211.9</ele>
        <time>2025-10-05T09:31:07.000Z</time>
      </trkpt>
      <trkpt lat="49.58509" lon="3.44578">
        <ele>212</ele>
        <time>2025-10-05T09:31:08.000Z</time>
      </trkpt>
      <trkpt lat="49.58508" lon="3.44578">
        <ele>212</ele>
        <time>2025-10-05T09:31:09.000Z</time>
      </trkpt>
      <trkpt lat="49.58507" lon="3.44577">
        <ele>211.8</ele>
        <time>2025-10-05T09:31:10.000Z</time>
      </trkpt>
      <trkpt lat="49.58506" lon="3.44577">
        <ele>211.8</ele>
        <time>2025-10-05T09:31:11.000Z</time>
      </trkpt>
      <trkpt lat="49.58505" lon="3.44577">
        <ele>211.7</ele>
        <time>2025-10-05T09:31:12.000Z</time>
      </trkpt>
      <trkpt lat="49.58504" lon="3.44576">
        <ele>211.8</ele>
        <time>2025-10-05T09:31:13.000Z</time>
      </trkpt>
      <trkpt lat="49.58503" lon="3.44576">
        <ele>211.9</ele>
        <time>2025-10-05T09:31:14.000Z</time>
      </trkpt>
      <trkpt lat="49.58502" lon="3.44575">
        <ele>211.9</ele>
        <time>2025-10-05T09:31:15.000Z</time>
      </trkpt>
      <trkpt lat="49.58501" lon="3.44574">
        <ele>212.1</ele>
        <time>2025-10-05T09:31:16.000Z</time>
      </trkpt>
      <trkpt lat="49.585" lon="3.44573">
        <ele>212.2</ele>
        <time>2025-10-05T09:31:17.000Z</time>
      </trkpt>
      <trkpt lat="49.58498" lon="3.44572">
        <ele>212.2</ele>
        <time>2025-10-05T09:31:18.000Z</time>
      </trkpt>
      <trkpt lat="49.58496" lon="3.44571">
        <ele>212.2</ele>
        <time>2025-10-05T09:31:19.000Z</time>
      </trkpt>
      <trkpt lat="49.58495" lon="3.4457">
        <ele>212.3</ele>
        <time>2025-10-05T09:31:20.000Z</time>
      </trkpt>
      <trkpt lat="49.58494" lon="3.44569">
        <ele>212.3</ele>
        <time>2025-10-05T09:31:21.000Z</time>
      </trkpt>
      <trkpt lat="49.58493" lon="3.44569">
        <ele>212.4</ele>
        <time>2025-10-05T09:31:22.000Z</time>
      </trkpt>
      <trkpt lat="49.58492" lon="3.44569">
        <ele>212.4</ele>
        <time>2025-10-05T09:31:23.000Z</time>
      </trkpt>
      <trkpt lat="49.58492" lon="3.44568">
        <ele>212.5</ele>
        <time>2025-10-05T09:31:24.000Z</time>
      </trkpt>
      <trkpt lat="49.58491" lon="3.44567">
        <ele>212.7</ele>
        <time>2025-10-05T09:31:25.000Z</time>
      </trkpt>
      <trkpt lat="49.58489" lon="3.44567">
        <ele>212.9</ele>
        <time>2025-10-05T09:31:26.000Z</time>
      </trkpt>
      <trkpt lat="49.58488" lon="3.44566">
        <ele>213.1</ele>
        <time>2025-10-05T09:31:27.000Z</time>
      </trkpt>
      <trkpt lat="49.58487" lon="3.44565">
        <ele>213.2</ele>
        <time>2025-10-05T09:31:28.000Z</time>
      </trkpt>
      <trkpt lat="49.58485" lon="3.44565">
        <ele>213.2</ele>
        <time>2025-10-05T09:31:29.000Z</time>
      </trkpt>
      <trkpt lat="49.58484" lon="3.44564">
        <ele>213.4</ele>
        <time>2025-10-05T09:31:30.000Z</time>
      </trkpt>
      <trkpt lat="49.58482" lon="3.44564">
        <ele>213.6</ele>
        <time>2025-10-05T09:31:31.000Z</time>
      </trkpt>
      <trkpt lat="49.58481" lon="3.44563">
        <ele>213.8</ele>
        <time>2025-10-05T09:31:32.000Z</time>
      </trkpt>
      <trkpt lat="49.58481" lon="3.44563">
        <ele>213.9</ele>
        <time>2025-10-05T09:31:33.000Z</time>
      </trkpt>
      <trkpt lat="49.58479" lon="3.44562">
        <ele>214.1</ele>
        <time>2025-10-05T09:31:34.000Z</time>
      </trkpt>
      <trkpt lat="49.58478" lon="3.44561">
        <ele>213.9</ele>
        <time>2025-10-05T09:31:35.000Z</time>
      </trkpt>
      <trkpt lat="49.58477" lon="3.44561">
        <ele>213.9</ele>
        <time>2025-10-05T09:31:36.000Z</time>
      </trkpt>
      <trkpt lat="49.58475" lon="3.44561">
        <ele>213.9</ele>
        <time>2025-10-05T09:31:37.000Z</time>
      </trkpt>
      <trkpt lat="49.58474" lon="3.4456">
        <ele>214</ele>
        <time>2025-10-05T09:31:38.000Z</time>
      </trkpt>
      <trkpt lat="49.58473" lon="3.44559">
        <ele>214.2</ele>
        <time>2025-10-05T09:31:39.000Z</time>
      </trkpt>
      <trkpt lat="49.58472" lon="3.44558">
        <ele>214.1</ele>
        <time>2025-10-05T09:31:40.000Z</time>
      </trkpt>
      <trkpt lat="49.58472" lon="3.44556">
        <ele>213.9</ele>
        <time>2025-10-05T09:31:41.000Z</time>
      </trkpt>
      <trkpt lat="49.58472" lon="3.44555">
        <ele>213.5</ele>
        <time>2025-10-05T09:31:42.000Z</time>
      </trkpt>
      <trkpt lat="49.58471" lon="3.44555">
        <ele>213.1</ele>
        <time>2025-10-05T09:31:43.000Z</time>
      </trkpt>
      <trkpt lat="49.5847" lon="3.44554">
        <ele>212.8</ele>
        <time>2025-10-05T09:31:44.000Z</time>
      </trkpt>
      <trkpt lat="49.58469" lon="3.44554">
        <ele>212.7</ele>
        <time>2025-10-05T09:31:45.000Z</time>
      </trkpt>
      <trkpt lat="49.58468" lon="3.44553">
        <ele>212.8</ele>
        <time>2025-10-05T09:31:46.000Z</time>
      </trkpt>
      <trkpt lat="49.58467" lon="3.44553">
        <ele>212.9</ele>
        <time>2025-10-05T09:31:47.000Z</time>
      </trkpt>
      <trkpt lat="49.58466" lon="3.44552">
        <ele>213</ele>
        <time>2025-10-05T09:31:48.000Z</time>
      </trkpt>
      <trkpt lat="49.58465" lon="3.44551">
        <ele>213.1</ele>
        <time>2025-10-05T09:31:49.000Z</time>
      </trkpt>
      <trkpt lat="49.58463" lon="3.4455">
        <ele>213.1</ele>
        <time>2025-10-05T09:31:50.000Z</time>
      </trkpt>
      <trkpt lat="49.58462" lon="3.4455">
        <ele>213.2</ele>
        <time>2025-10-05T09:31:51.000Z</time>
      </trkpt>
      <trkpt lat="49.58461" lon="3.44549">
        <ele>213.1</ele>
        <time>2025-10-05T09:31:52.000Z</time>
      </trkpt>
      <trkpt lat="49.5846" lon="3.44549">
        <ele>212.7</ele>
        <time>2025-10-05T09:31:53.000Z</time>
      </trkpt>
      <trkpt lat="49.58458" lon="3.44548">
        <ele>212.7</ele>
        <time>2025-10-05T09:31:54.000Z</time>
      </trkpt>
      <trkpt lat="49.58457" lon="3.44547">
        <ele>212.4</ele>
        <time>2025-10-05T09:31:55.000Z</time>
      </trkpt>
      <trkpt lat="49.58456" lon="3.44546">
        <ele>212.3</ele>
        <time>2025-10-05T09:31:56.000Z</time>
      </trkpt>
      <trkpt lat="49.58455" lon="3.44546">
        <ele>212.2</ele>
        <time>2025-10-05T09:31:57.000Z</time>
      </trkpt>
      <trkpt lat="49.58454" lon="3.44545">
        <ele>212.1</ele>
        <time>2025-10-05T09:31:58.000Z</time>
      </trkpt>
      <trkpt lat="49.58454" lon="3.44545">
        <ele>211.9</ele>
        <time>2025-10-05T09:31:59.000Z</time>
      </trkpt>
      <trkpt lat="49.58453" lon="3.44544">
        <ele>211.7</ele>
        <time>2025-10-05T09:32:00.000Z</time>
      </trkpt>
      <trkpt lat="49.58453" lon="3.44544">
        <ele>211.5</ele>
        <time>2025-10-05T09:32:01.000Z</time>
      </trkpt>
      <trkpt lat="49.58452" lon="3.44544">
        <ele>211.4</ele>
        <time>2025-10-05T09:32:02.000Z</time>
      </trkpt>
      <trkpt lat="49.58451" lon="3.44543">
        <ele>211.5</ele>
        <time>2025-10-05T09:32:03.000Z</time>
      </trkpt>
      <trkpt lat="49.5845" lon="3.44543">
        <ele>211.4</ele>
        <time>2025-10-05T09:32:04.000Z</time>
      </trkpt>
      <trkpt lat="49.58449" lon="3.44543">
        <ele>211.5</ele>
        <time>2025-10-05T09:32:05.000Z</time>
      </trkpt>
      <trkpt lat="49.58447" lon="3.44542">
        <ele>211.5</ele>
        <time>2025-10-05T09:32:06.000Z</time>
      </trkpt>
      <trkpt lat="49.58446" lon="3.44542">
        <ele>211.5</ele>
        <time>2025-10-05T09:32:07.000Z</time>
      </trkpt>
      <trkpt lat="49.58445" lon="3.44541">
        <ele>211.4</ele>
        <time>2025-10-05T09:32:08.000Z</time>
      </trkpt>
      <trkpt lat="49.58443" lon="3.4454">
        <ele>211.4</ele>
        <time>2025-10-05T09:32:09.000Z</time>
      </trkpt>
      <trkpt lat="49.58442" lon="3.44539">
        <ele>211.2</ele>
        <time>2025-10-05T09:32:10.000Z</time>
      </trkpt>
      <trkpt lat="49.58441" lon="3.44538">
        <ele>211.2</ele>
        <time>2025-10-05T09:32:11.000Z</time>
      </trkpt>
      <trkpt lat="49.58439" lon="3.44537">
        <ele>211.1</ele>
        <time>2025-10-05T09:32:12.000Z</time>
      </trkpt>
      <trkpt lat="49.58438" lon="3.44537">
        <ele>211</ele>
        <time>2025-10-05T09:32:13.000Z</time>
      </trkpt>
      <trkpt lat="49.58437" lon="3.44535">
        <ele>210.8</ele>
        <time>2025-10-05T09:32:14.000Z</time>
      </trkpt>
      <trkpt lat="49.58437" lon="3.44534">
        <ele>210.2</ele>
        <time>2025-10-05T09:32:15.000Z</time>
      </trkpt>
      <trkpt lat="49.58437" lon="3.44534">
        <ele>210</ele>
        <time>2025-10-05T09:32:16.000Z</time>
      </trkpt>
      <trkpt lat="49.58436" lon="3.44533">
        <ele>210</ele>
        <time>2025-10-05T09:32:17.000Z</time>
      </trkpt>
      <trkpt lat="49.58436" lon="3.44533">
        <ele>210</ele>
        <time>2025-10-05T09:32:18.000Z</time>
      </trkpt>
      <trkpt lat="49.58435" lon="3.44532">
        <ele>210</ele>
        <time>2025-10-05T09:32:19.000Z</time>
      </trkpt>
      <trkpt lat="49.58434" lon="3.44532">
        <ele>210.1</ele>
        <time>2025-10-05T09:32:20.000Z</time>
      </trkpt>
      <trkpt lat="49.58432" lon="3.44532">
        <ele>210.2</ele>
        <time>2025-10-05T09:32:21.000Z</time>
      </trkpt>
      <trkpt lat="49.58431" lon="3.44531">
        <ele>210.6</ele>
        <time>2025-10-05T09:32:22.000Z</time>
      </trkpt>
      <trkpt lat="49.58429" lon="3.4453">
        <ele>211.2</ele>
        <time>2025-10-05T09:32:23.000Z</time>
      </trkpt>
      <trkpt lat="49.58428" lon="3.4453">
        <ele>211.6</ele>
        <time>2025-10-05T09:32:24.000Z</time>
      </trkpt>
      <trkpt lat="49.58427" lon="3.44529">
        <ele>211.8</ele>
        <time>2025-10-05T09:32:25.000Z</time>
      </trkpt>
      <trkpt lat="49.58425" lon="3.44528">
        <ele>211.9</ele>
        <time>2025-10-05T09:32:26.000Z</time>
      </trkpt>
      <trkpt lat="49.58424" lon="3.44527">
        <ele>211.9</ele>
        <time>2025-10-05T09:32:27.000Z</time>
      </trkpt>
      <trkpt lat="49.58423" lon="3.44526">
        <ele>211.9</ele>
        <time>2025-10-05T09:32:28.000Z</time>
      </trkpt>
      <trkpt lat="49.58421" lon="3.44526">
        <ele>211.8</ele>
        <time>2025-10-05T09:32:29.000Z</time>
      </trkpt>
      <trkpt lat="49.5842" lon="3.44526">
        <ele>211.9</ele>
        <time>2025-10-05T09:32:30.000Z</time>
      </trkpt>
      <trkpt lat="49.58418" lon="3.44527">
        <ele>212.1</ele>
        <time>2025-10-05T09:32:31.000Z</time>
      </trkpt>
      <trkpt lat="49.58417" lon="3.44527">
        <ele>212.4</ele>
        <time>2025-10-05T09:32:32.000Z</time>
      </trkpt>
      <trkpt lat="49.58417" lon="3.44526">
        <ele>212.7</ele>
        <time>2025-10-05T09:32:33.000Z</time>
      </trkpt>
      <trkpt lat="49.58416" lon="3.44525">
        <ele>212.6</ele>
        <time>2025-10-05T09:32:34.000Z</time>
      </trkpt>
      <trkpt lat="49.58415" lon="3.44524">
        <ele>212.6</ele>
        <time>2025-10-05T09:32:35.000Z</time>
      </trkpt>
      <trkpt lat="49.58414" lon="3.44523">
        <ele>212.9</ele>
        <time>2025-10-05T09:32:36.000Z</time>
      </trkpt>
      <trkpt lat="49.58413" lon="3.44522">
        <ele>213.2</ele>
        <time>2025-10-05T09:32:37.000Z</time>
      </trkpt>
      <trkpt lat="49.58412" lon="3.44521">
        <ele>213.4</ele>
        <time>2025-10-05T09:32:38.000Z</time>
      </trkpt>
      <trkpt lat="49.58411" lon="3.4452">
        <ele>213.8</ele>
        <time>2025-10-05T09:32:39.000Z</time>
      </trkpt>
      <trkpt lat="49.58409" lon="3.44519">
        <ele>214</ele>
        <time>2025-10-05T09:32:40.000Z</time>
      </trkpt>
      <trkpt lat="49.58408" lon="3.44519">
        <ele>214</ele>
        <time>2025-10-05T09:32:41.000Z</time>
      </trkpt>
      <trkpt lat="49.58406" lon="3.44518">
        <ele>214.3</ele>
        <time>2025-10-05T09:32:42.000Z</time>
      </trkpt>
      <trkpt lat="49.58405" lon="3.44517">
        <ele>214.5</ele>
        <time>2025-10-05T09:32:43.000Z</time>
      </trkpt>
      <trkpt lat="49.58404" lon="3.44516">
        <ele>214.9</ele>
        <time>2025-10-05T09:32:44.000Z</time>
      </trkpt>
      <trkpt lat="49.58403" lon="3.44516">
        <ele>215.1</ele>
        <time>2025-10-05T09:32:45.000Z</time>
      </trkpt>
      <trkpt lat="49.58402" lon="3.44515">
        <ele>215.2</ele>
        <time>2025-10-05T09:32:46.000Z</time>
      </trkpt>
      <trkpt lat="49.58401" lon="3.44515">
        <ele>215.4</ele>
        <time>2025-10-05T09:32:47.000Z</time>
      </trkpt>
      <trkpt lat="49.58401" lon="3.44515">
        <ele>215.7</ele>
        <time>2025-10-05T09:32:48.000Z</time>
      </trkpt>
      <trkpt lat="49.584" lon="3.44514">
        <ele>215.9</ele>
        <time>2025-10-05T09:32:49.000Z</time>
      </trkpt>
      <trkpt lat="49.58399" lon="3.44513">
        <ele>215.6</ele>
        <time>2025-10-05T09:32:50.000Z</time>
      </trkpt>
      <trkpt lat="49.58398" lon="3.44513">
        <ele>215.3</ele>
        <time>2025-10-05T09:32:51.000Z</time>
      </trkpt>
      <trkpt lat="49.58397" lon="3.44511">
        <ele>215</ele>
        <time>2025-10-05T09:32:52.000Z</time>
      </trkpt>
      <trkpt lat="49.58396" lon="3.44511">
        <ele>215.2</ele>
        <time>2025-10-05T09:32:53.000Z</time>
      </trkpt>
      <trkpt lat="49.58394" lon="3.4451">
        <ele>215.1</ele>
        <time>2025-10-05T09:32:54.000Z</time>
      </trkpt>
      <trkpt lat="49.58393" lon="3.44509">
        <ele>215</ele>
        <time>2025-10-05T09:32:55.000Z</time>
      </trkpt>
      <trkpt lat="49.58391" lon="3.44508">
        <ele>214.6</ele>
        <time>2025-10-05T09:32:56.000Z</time>
      </trkpt>
      <trkpt lat="49.5839" lon="3.44507">
        <ele>214.6</ele>
        <time>2025-10-05T09:32:57.000Z</time>
      </trkpt>
      <trkpt lat="49.58389" lon="3.44507">
        <ele>214.7</ele>
        <time>2025-10-05T09:32:58.000Z</time>
      </trkpt>
      <trkpt lat="49.58389" lon="3.44506">
        <ele>214.6</ele>
        <time>2025-10-05T09:32:59.000Z</time>
      </trkpt>
      <trkpt lat="49.58388" lon="3.44506">
        <ele>214.6</ele>
        <time>2025-10-05T09:33:00.000Z</time>
      </trkpt>
      <trkpt lat="49.58388" lon="3.44506">
        <ele>214.3</ele>
        <time>2025-10-05T09:33:01.000Z</time>
      </trkpt>
      <trkpt lat="49.58387" lon="3.44505">
        <ele>214.1</ele>
        <time>2025-10-05T09:33:02.000Z</time>
      </trkpt>
      <trkpt lat="49.58386" lon="3.44505">
        <ele>213.8</ele>
        <time>2025-10-05T09:33:03.000Z</time>
      </trkpt>
      <trkpt lat="49.58384" lon="3.44504">
        <ele>213.7</ele>
        <time>2025-10-05T09:33:04.000Z</time>
      </trkpt>
      <trkpt lat="49.58383" lon="3.44504">
        <ele>213.5</ele>
        <time>2025-10-05T09:33:05.000Z</time>
      </trkpt>
      <trkpt lat="49.58382" lon="3.44504">
        <ele>213.4</ele>
        <time>2025-10-05T09:33:06.000Z</time>
      </trkpt>
      <trkpt lat="49.58381" lon="3.44503">
        <ele>213.4</ele>
        <time>2025-10-05T09:33:07.000Z</time>
      </trkpt>
      <trkpt lat="49.58379" lon="3.44503">
        <ele>213.3</ele>
        <time>2025-10-05T09:33:08.000Z</time>
      </trkpt>
      <trkpt lat="49.58377" lon="3.44502">
        <ele>213.5</ele>
        <time>2025-10-05T09:33:09.000Z</time>
      </trkpt>
      <trkpt lat="49.58376" lon="3.44501">
        <ele>213.6</ele>
        <time>2025-10-05T09:33:10.000Z</time>
      </trkpt>
      <trkpt lat="49.58375" lon="3.44501">
        <ele>214.2</ele>
        <time>2025-10-05T09:33:11.000Z</time>
      </trkpt>
      <trkpt lat="49.58374" lon="3.445">
        <ele>214.4</ele>
        <time>2025-10-05T09:33:12.000Z</time>
      </trkpt>
      <trkpt lat="49.58374" lon="3.445">
        <ele>214.4</ele>
        <time>2025-10-05T09:33:13.000Z</time>
      </trkpt>
      <trkpt lat="49.58373" lon="3.445">
        <ele>214.5</ele>
        <time>2025-10-05T09:33:14.000Z</time>
      </trkpt>
      <trkpt lat="49.58372" lon="3.445">
        <ele>214.7</ele>
        <time>2025-10-05T09:33:15.000Z</time>
      </trkpt>
      <trkpt lat="49.58371" lon="3.445">
        <ele>215</ele>
        <time>2025-10-05T09:33:16.000Z</time>
      </trkpt>
      <trkpt lat="49.5837" lon="3.445">
        <ele>215</ele>
        <time>2025-10-05T09:33:17.000Z</time>
      </trkpt>
      <trkpt lat="49.58369" lon="3.44499">
        <ele>215.1</ele>
        <time>2025-10-05T09:33:18.000Z</time>
      </trkpt>
      <trkpt lat="49.58368" lon="3.44499">
        <ele>215.1</ele>
        <time>2025-10-05T09:33:19.000Z</time>
      </trkpt>
      <trkpt lat="49.58367" lon="3.44499">
        <ele>215.1</ele>
        <time>2025-10-05T09:33:20.000Z</time>
      </trkpt>
      <trkpt lat="49.58366" lon="3.44498">
        <ele>215</ele>
        <time>2025-10-05T09:33:21.000Z</time>
      </trkpt>
      <trkpt lat="49.58364" lon="3.44497">
        <ele>215</ele>
        <time>2025-10-05T09:33:22.000Z</time>
      </trkpt>
      <trkpt lat="49.58363" lon="3.44496">
        <ele>214.9</ele>
        <time>2025-10-05T09:33:23.000Z</time>
      </trkpt>
      <trkpt lat="49.58362" lon="3.44496">
        <ele>215</ele>
        <time>2025-10-05T09:33:24.000Z</time>
      </trkpt>
      <trkpt lat="49.58361" lon="3.44496">
        <ele>215.1</ele>
        <time>2025-10-05T09:33:25.000Z</time>
      </trkpt>
      <trkpt lat="49.5836" lon="3.44496">
        <ele>215.2</ele>
        <time>2025-10-05T09:33:26.000Z</time>
      </trkpt>
      <trkpt lat="49.58359" lon="3.44496">
        <ele>215.1</ele>
        <time>2025-10-05T09:33:27.000Z</time>
      </trkpt>
      <trkpt lat="49.58358" lon="3.44495">
        <ele>215</ele>
        <time>2025-10-05T09:33:28.000Z</time>
      </trkpt>
      <trkpt lat="49.58356" lon="3.44494">
        <ele>214.9</ele>
        <time>2025-10-05T09:33:29.000Z</time>
      </trkpt>
      <trkpt lat="49.58355" lon="3.44494">
        <ele>215.1</ele>
        <time>2025-10-05T09:33:30.000Z</time>
      </trkpt>
      <trkpt lat="49.58353" lon="3.44494">
        <ele>215.1</ele>
        <time>2025-10-05T09:33:31.000Z</time>
      </trkpt>
      <trkpt lat="49.58352" lon="3.44493">
        <ele>215.3</ele>
        <time>2025-10-05T09:33:32.000Z</time>
      </trkpt>
      <trkpt lat="49.5835" lon="3.44494">
        <ele>215.5</ele>
        <time>2025-10-05T09:33:33.000Z</time>
      </trkpt>
      <trkpt lat="49.58349" lon="3.44493">
        <ele>215.7</ele>
        <time>2025-10-05T09:33:34.000Z</time>
      </trkpt>
      <trkpt lat="49.58349" lon="3.44493">
        <ele>215.8</ele>
        <time>2025-10-05T09:33:35.000Z</time>
      </trkpt>
      <trkpt lat="49.58348" lon="3.44493">
        <ele>215.8</ele>
        <time>2025-10-05T09:33:36.000Z</time>
      </trkpt>
      <trkpt lat="49.58348" lon="3.44492">
        <ele>216</ele>
        <time>2025-10-05T09:33:37.000Z</time>
      </trkpt>
      <trkpt lat="49.58346" lon="3.44492">
        <ele>216.6</ele>
        <time>2025-10-05T09:33:38.000Z</time>
      </trkpt>
      <trkpt lat="49.58345" lon="3.44492">
        <ele>217.1</ele>
        <time>2025-10-05T09:33:39.000Z</time>
      </trkpt>
      <trkpt lat="49.58344" lon="3.44492">
        <ele>217.1</ele>
        <time>2025-10-05T09:33:40.000Z</time>
      </trkpt>
      <trkpt lat="49.58343" lon="3.44491">
        <ele>217.3</ele>
        <time>2025-10-05T09:33:41.000Z</time>
      </trkpt>
      <trkpt lat="49.58342" lon="3.4449">
        <ele>217.6</ele>
        <time>2025-10-05T09:33:42.000Z</time>
      </trkpt>
      <trkpt lat="49.5834" lon="3.44489">
        <ele>217.3</ele>
        <time>2025-10-05T09:33:43.000Z</time>
      </trkpt>
      <trkpt lat="49.58338" lon="3.44489">
        <ele>217</ele>
        <time>2025-10-05T09:33:44.000Z</time>
      </trkpt>
      <trkpt lat="49.58337" lon="3.44487">
        <ele>216.5</ele>
        <time>2025-10-05T09:33:45.000Z</time>
      </trkpt>
      <trkpt lat="49.58336" lon="3.44487">
        <ele>216.3</ele>
        <time>2025-10-05T09:33:46.000Z</time>
      </trkpt>
      <trkpt lat="49.58335" lon="3.44487">
        <ele>215.9</ele>
        <time>2025-10-05T09:33:47.000Z</time>
      </trkpt>
      <trkpt lat="49.58335" lon="3.44487">
        <ele>215.8</ele>
        <time>2025-10-05T09:33:48.000Z</time>
      </trkpt>
      <trkpt lat="49.58334" lon="3.44486">
        <ele>215.6</ele>
        <time>2025-10-05T09:33:49.000Z</time>
      </trkpt>
      <trkpt lat="49.58334" lon="3.44486">
        <ele>215.3</ele>
        <time>2025-10-05T09:33:50.000Z</time>
      </trkpt>
      <trkpt lat="49.58333" lon="3.44485">
        <ele>215.4</ele>
        <time>2025-10-05T09:33:51.000Z</time>
      </trkpt>
      <trkpt lat="49.58331" lon="3.44485">
        <ele>215.5</ele>
        <time>2025-10-05T09:33:52.000Z</time>
      </trkpt>
      <trkpt lat="49.5833" lon="3.44484">
        <ele>215.6</ele>
        <time>2025-10-05T09:33:53.000Z</time>
      </trkpt>
      <trkpt lat="49.58328" lon="3.44483">
        <ele>215.7</ele>
        <time>2025-10-05T09:33:54.000Z</time>
      </trkpt>
      <trkpt lat="49.58327" lon="3.44482">
        <ele>215.7</ele>
        <time>2025-10-05T09:33:55.000Z</time>
      </trkpt>
      <trkpt lat="49.58326" lon="3.44481">
        <ele>215.6</ele>
        <time>2025-10-05T09:33:56.000Z</time>
      </trkpt>
      <trkpt lat="49.58325" lon="3.44481">
        <ele>215.7</ele>
        <time>2025-10-05T09:33:57.000Z</time>
      </trkpt>
      <trkpt lat="49.58323" lon="3.4448">
        <ele>215.6</ele>
        <time>2025-10-05T09:33:58.000Z</time>
      </trkpt>
      <trkpt lat="49.58322" lon="3.4448">
        <ele>215.9</ele>
        <time>2025-10-05T09:33:59.000Z</time>
      </trkpt>
      <trkpt lat="49.58321" lon="3.44479">
        <ele>216.3</ele>
        <time>2025-10-05T09:34:00.000Z</time>
      </trkpt>
      <trkpt lat="49.5832" lon="3.44479">
        <ele>216.3</ele>
        <time>2025-10-05T09:34:01.000Z</time>
      </trkpt>
      <trkpt lat="49.58319" lon="3.44479">
        <ele>216.5</ele>
        <time>2025-10-05T09:34:02.000Z</time>
      </trkpt>
      <trkpt lat="49.58318" lon="3.44479">
        <ele>216.6</ele>
        <time>2025-10-05T09:34:03.000Z</time>
      </trkpt>
      <trkpt lat="49.58317" lon="3.44479">
        <ele>216.4</ele>
        <time>2025-10-05T09:34:04.000Z</time>
      </trkpt>
      <trkpt lat="49.58316" lon="3.44479">
        <ele>216.3</ele>
        <time>2025-10-05T09:34:05.000Z</time>
      </trkpt>
      <trkpt lat="49.58315" lon="3.44478">
        <ele>216.3</ele>
        <time>2025-10-05T09:34:06.000Z</time>
      </trkpt>
      <trkpt lat="49.58314" lon="3.44477">
        <ele>216.3</ele>
        <time>2025-10-05T09:34:07.000Z</time>
      </trkpt>
      <trkpt lat="49.58313" lon="3.44476">
        <ele>216.4</ele>
        <time>2025-10-05T09:34:08.000Z</time>
      </trkpt>
      <trkpt lat="49.58312" lon="3.44476">
        <ele>216.2</ele>
        <time>2025-10-05T09:34:09.000Z</time>
      </trkpt>
      <trkpt lat="49.5831" lon="3.44475">
        <ele>216.3</ele>
        <time>2025-10-05T09:34:10.000Z</time>
      </trkpt>
      <trkpt lat="49.58309" lon="3.44475">
        <ele>216.2</ele>
        <time>2025-10-05T09:34:11.000Z</time>
      </trkpt>
      <trkpt lat="49.58308" lon="3.44474">
        <ele>216</ele>
        <time>2025-10-05T09:34:12.000Z</time>
      </trkpt>
      <trkpt lat="49.58307" lon="3.44474">
        <ele>216.2</ele>
        <time>2025-10-05T09:34:13.000Z</time>
      </trkpt>
      <trkpt lat="49.58306" lon="3.44474">
        <ele>216.4</ele>
        <time>2025-10-05T09:34:14.000Z</time>
      </trkpt>
      <trkpt lat="49.58305" lon="3.44473">
        <ele>216.5</ele>
        <time>2025-10-05T09:34:15.000Z</time>
      </trkpt>
      <trkpt lat="49.58304" lon="3.44472">
        <ele>216.7</ele>
        <time>2025-10-05T09:34:16.000Z</time>
      </trkpt>
      <trkpt lat="49.58303" lon="3.44471">
        <ele>216.7</ele>
        <time>2025-10-05T09:34:17.000Z</time>
      </trkpt>
      <trkpt lat="49.58302" lon="3.4447">
        <ele>216.8</ele>
        <time>2025-10-05T09:34:18.000Z</time>
      </trkpt>
      <trkpt lat="49.58302" lon="3.44469">
        <ele>216.7</ele>
        <time>2025-10-05T09:34:19.000Z</time>
      </trkpt>
      <trkpt lat="49.58301" lon="3.44468">
        <ele>216.5</ele>
        <time>2025-10-05T09:34:20.000Z</time>
      </trkpt>
      <trkpt lat="49.583" lon="3.44467">
        <ele>216.6</ele>
        <time>2025-10-05T09:34:21.000Z</time>
      </trkpt>
      <trkpt lat="49.58299" lon="3.44467">
        <ele>216.6</ele>
        <time>2025-10-05T09:34:22.000Z</time>
      </trkpt>
      <trkpt lat="49.58299" lon="3.44466">
        <ele>216.6</ele>
        <time>2025-10-05T09:34:23.000Z</time>
      </trkpt>
      <trkpt lat="49.58298" lon="3.44466">
        <ele>216.7</ele>
        <time>2025-10-05T09:34:24.000Z</time>
      </trkpt>
      <trkpt lat="49.58297" lon="3.44465">
        <ele>216.6</ele>
        <time>2025-10-05T09:34:25.000Z</time>
      </trkpt>
      <trkpt lat="49.58296" lon="3.44464">
        <ele>216.6</ele>
        <time>2025-10-05T09:34:26.000Z</time>
      </trkpt>
      <trkpt lat="49.58295" lon="3.44463">
        <ele>216.7</ele>
        <time>2025-10-05T09:34:27.000Z</time>
      </trkpt>
      <trkpt lat="49.58294" lon="3.44462">
        <ele>216.8</ele>
        <time>2025-10-05T09:34:28.000Z</time>
      </trkpt>
      <trkpt lat="49.58293" lon="3.44461">
        <ele>217</ele>
        <time>2025-10-05T09:34:29.000Z</time>
      </trkpt>
      <trkpt lat="49.58291" lon="3.4446">
        <ele>217.3</ele>
        <time>2025-10-05T09:34:30.000Z</time>
      </trkpt>
      <trkpt lat="49.5829" lon="3.44459">
        <ele>217.5</ele>
        <time>2025-10-05T09:34:31.000Z</time>
      </trkpt>
      <trkpt lat="49.58289" lon="3.44458">
        <ele>217.6</ele>
        <time>2025-10-05T09:34:32.000Z</time>
      </trkpt>
      <trkpt lat="49.58287" lon="3.44457">
        <ele>217.6</ele>
        <time>2025-10-05T09:34:33.000Z</time>
      </trkpt>
      <trkpt lat="49.58286" lon="3.44456">
        <ele>217.7</ele>
        <time>2025-10-05T09:34:34.000Z</time>
      </trkpt>
      <trkpt lat="49.58285" lon="3.44455">
        <ele>217.7</ele>
        <time>2025-10-05T09:34:35.000Z</time>
      </trkpt>
      <trkpt lat="49.58284" lon="3.44455">
        <ele>217.9</ele>
        <time>2025-10-05T09:34:36.000Z</time>
      </trkpt>
      <trkpt lat="49.58282" lon="3.44454">
        <ele>217.8</ele>
        <time>2025-10-05T09:34:37.000Z</time>
      </trkpt>
      <trkpt lat="49.58281" lon="3.44453">
        <ele>218.1</ele>
        <time>2025-10-05T09:34:38.000Z</time>
      </trkpt>
      <trkpt lat="49.5828" lon="3.44453">
        <ele>218.2</ele>
        <time>2025-10-05T09:34:39.000Z</time>
      </trkpt>
      <trkpt lat="49.58279" lon="3.44452">
        <ele>218.3</ele>
        <time>2025-10-05T09:34:40.000Z</time>
      </trkpt>
      <trkpt lat="49.58278" lon="3.44451">
        <ele>218.6</ele>
        <time>2025-10-05T09:34:41.000Z</time>
      </trkpt>
      <trkpt lat="49.58277" lon="3.44451">
        <ele>218.7</ele>
        <time>2025-10-05T09:34:42.000Z</time>
      </trkpt>
      <trkpt lat="49.58277" lon="3.4445">
        <ele>218.7</ele>
        <time>2025-10-05T09:34:43.000Z</time>
      </trkpt>
      <trkpt lat="49.58276" lon="3.44449">
        <ele>218.7</ele>
        <time>2025-10-05T09:34:44.000Z</time>
      </trkpt>
      <trkpt lat="49.58275" lon="3.44448">
        <ele>218.6</ele>
        <time>2025-10-05T09:34:45.000Z</time>
      </trkpt>
      <trkpt lat="49.58275" lon="3.44447">
        <ele>218.5</ele>
        <time>2025-10-05T09:34:46.000Z</time>
      </trkpt>
      <trkpt lat="49.58274" lon="3.44446">
        <ele>218.5</ele>
        <time>2025-10-05T09:34:47.000Z</time>
      </trkpt>
      <trkpt lat="49.58273" lon="3.44445">
        <ele>218.6</ele>
        <time>2025-10-05T09:34:48.000Z</time>
      </trkpt>
      <trkpt lat="49.58273" lon="3.44445">
        <ele>218.5</ele>
        <time>2025-10-05T09:34:49.000Z</time>
      </trkpt>
      <trkpt lat="49.58273" lon="3.44444">
        <ele>218.4</ele>
        <time>2025-10-05T09:34:50.000Z</time>
      </trkpt>
      <trkpt lat="49.58272" lon="3.44444">
        <ele>218.4</ele>
        <time>2025-10-05T09:34:51.000Z</time>
      </trkpt>
      <trkpt lat="49.58271" lon="3.44443">
        <ele>218.3</ele>
        <time>2025-10-05T09:34:52.000Z</time>
      </trkpt>
      <trkpt lat="49.5827" lon="3.44442">
        <ele>218.1</ele>
        <time>2025-10-05T09:34:53.000Z</time>
      </trkpt>
      <trkpt lat="49.58269" lon="3.44441">
        <ele>218</ele>
        <time>2025-10-05T09:34:54.000Z</time>
      </trkpt>
      <trkpt lat="49.58268" lon="3.44439">
        <ele>217.9</ele>
        <time>2025-10-05T09:34:55.000Z</time>
      </trkpt>
      <trkpt lat="49.58267" lon="3.44438">
        <ele>217.7</ele>
        <time>2025-10-05T09:34:56.000Z</time>
      </trkpt>
      <trkpt lat="49.58266" lon="3.44437">
        <ele>217.6</ele>
        <time>2025-10-05T09:34:57.000Z</time>
      </trkpt>
      <trkpt lat="49.58265" lon="3.44435">
        <ele>217.3</ele>
        <time>2025-10-05T09:34:58.000Z</time>
      </trkpt>
      <trkpt lat="49.58264" lon="3.44433">
        <ele>217.4</ele>
        <time>2025-10-05T09:34:59.000Z</time>
      </trkpt>
      <trkpt lat="49.58263" lon="3.44432">
        <ele>217.5</ele>
        <time>2025-10-05T09:35:00.000Z</time>
      </trkpt>
      <trkpt lat="49.58261" lon="3.4443">
        <ele>217.5</ele>
        <time>2025-10-05T09:35:01.000Z</time>
      </trkpt>
      <trkpt lat="49.5826" lon="3.44429">
        <ele>217.3</ele>
        <time>2025-10-05T09:35:02.000Z</time>
      </trkpt>
      <trkpt lat="49.5826" lon="3.44428">
        <ele>217.3</ele>
        <time>2025-10-05T09:35:03.000Z</time>
      </trkpt>
      <trkpt lat="49.58259" lon="3.44427">
        <ele>217.2</ele>
        <time>2025-10-05T09:35:04.000Z</time>
      </trkpt>
      <trkpt lat="49.58258" lon="3.44425">
        <ele>217.5</ele>
        <time>2025-10-05T09:35:05.000Z</time>
      </trkpt>
      <trkpt lat="49.58257" lon="3.44424">
        <ele>217.5</ele>
        <time>2025-10-05T09:35:06.000Z</time>
      </trkpt>
      <trkpt lat="49.58257" lon="3.44423">
        <ele>218.1</ele>
        <time>2025-10-05T09:35:07.000Z</time>
      </trkpt>
      <trkpt lat="49.58256" lon="3.44422">
        <ele>218.2</ele>
        <time>2025-10-05T09:35:08.000Z</time>
      </trkpt>
      <trkpt lat="49.58254" lon="3.44421">
        <ele>218.7</ele>
        <time>2025-10-05T09:35:09.000Z</time>
      </trkpt>
      <trkpt lat="49.58253" lon="3.4442">
        <ele>219</ele>
        <time>2025-10-05T09:35:10.000Z</time>
      </trkpt>
      <trkpt lat="49.58252" lon="3.44419">
        <ele>219.5</ele>
        <time>2025-10-05T09:35:11.000Z</time>
      </trkpt>
      <trkpt lat="49.58251" lon="3.44417">
        <ele>219.9</ele>
        <time>2025-10-05T09:35:12.000Z</time>
      </trkpt>
      <trkpt lat="49.5825" lon="3.44416">
        <ele>220.9</ele>
        <time>2025-10-05T09:35:13.000Z</time>
      </trkpt>
      <trkpt lat="49.58248" lon="3.44416">
        <ele>221.9</ele>
        <time>2025-10-05T09:35:14.000Z</time>
      </trkpt>
      <trkpt lat="49.58247" lon="3.44415">
        <ele>222.9</ele>
        <time>2025-10-05T09:35:15.000Z</time>
      </trkpt>
      <trkpt lat="49.58246" lon="3.44415">
        <ele>223.8</ele>
        <time>2025-10-05T09:35:16.000Z</time>
      </trkpt>
      <trkpt lat="49.58245" lon="3.44414">
        <ele>224.6</ele>
        <time>2025-10-05T09:35:17.000Z</time>
      </trkpt>
      <trkpt lat="49.58243" lon="3.44412">
        <ele>225.3</ele>
        <time>2025-10-05T09:35:18.000Z</time>
      </trkpt>
      <trkpt lat="49.58242" lon="3.44411">
        <ele>225.9</ele>
        <time>2025-10-05T09:35:19.000Z</time>
      </trkpt>
      <trkpt lat="49.58241" lon="3.4441">
        <ele>226.3</ele>
        <time>2025-10-05T09:35:20.000Z</time>
      </trkpt>
      <trkpt lat="49.5824" lon="3.44409">
        <ele>226.4</ele>
        <time>2025-10-05T09:35:21.000Z</time>
      </trkpt>
      <trkpt lat="49.58239" lon="3.44407">
        <ele>226.2</ele>
        <time>2025-10-05T09:35:22.000Z</time>
      </trkpt>
      <trkpt lat="49.58238" lon="3.44407">
        <ele>226.3</ele>
        <time>2025-10-05T09:35:23.000Z</time>
      </trkpt>
      <trkpt lat="49.58237" lon="3.44406">
        <ele>226.4</ele>
        <time>2025-10-05T09:35:24.000Z</time>
      </trkpt>
      <trkpt lat="49.58236" lon="3.44405">
        <ele>226.5</ele>
        <time>2025-10-05T09:35:25.000Z</time>
      </trkpt>
      <trkpt lat="49.58235" lon="3.44404">
        <ele>226.2</ele>
        <time>2025-10-05T09:35:26.000Z</time>
      </trkpt>
      <trkpt lat="49.58235" lon="3.44403">
        <ele>225.7</ele>
        <time>2025-10-05T09:35:27.000Z</time>
      </trkpt>
      <trkpt lat="49.58234" lon="3.44402">
        <ele>225.3</ele>
        <time>2025-10-05T09:35:28.000Z</time>
      </trkpt>
      <trkpt lat="49.58234" lon="3.44401">
        <ele>225.4</ele>
        <time>2025-10-05T09:35:29.000Z</time>
      </trkpt>
      <trkpt lat="49.58233" lon="3.444">
        <ele>225.5</ele>
        <time>2025-10-05T09:35:30.000Z</time>
      </trkpt>
      <trkpt lat="49.58232" lon="3.44399">
        <ele>225.6</ele>
        <time>2025-10-05T09:35:31.000Z</time>
      </trkpt>
      <trkpt lat="49.58231" lon="3.44397">
        <ele>225.5</ele>
        <time>2025-10-05T09:35:32.000Z</time>
      </trkpt>
      <trkpt lat="49.5823" lon="3.44397">
        <ele>225.5</ele>
        <time>2025-10-05T09:35:33.000Z</time>
      </trkpt>
      <trkpt lat="49.58229" lon="3.44396">
        <ele>225.7</ele>
        <time>2025-10-05T09:35:34.000Z</time>
      </trkpt>
      <trkpt lat="49.58228" lon="3.44395">
        <ele>225.7</ele>
        <time>2025-10-05T09:35:35.000Z</time>
      </trkpt>
      <trkpt lat="49.58228" lon="3.44394">
        <ele>225.7</ele>
        <time>2025-10-05T09:35:36.000Z</time>
      </trkpt>
      <trkpt lat="49.58227" lon="3.44393">
        <ele>225.7</ele>
        <time>2025-10-05T09:35:37.000Z</time>
      </trkpt>
      <trkpt lat="49.58226" lon="3.44392">
        <ele>225.6</ele>
        <time>2025-10-05T09:35:38.000Z</time>
      </trkpt>
      <trkpt lat="49.58226" lon="3.44391">
        <ele>225.4</ele>
        <time>2025-10-05T09:35:39.000Z</time>
      </trkpt>
      <trkpt lat="49.58225" lon="3.44391">
        <ele>225.2</ele>
        <time>2025-10-05T09:35:40.000Z</time>
      </trkpt>
      <trkpt lat="49.58225" lon="3.4439">
        <ele>225</ele>
        <time>2025-10-05T09:35:41.000Z</time>
      </trkpt>
      <trkpt lat="49.58224" lon="3.4439">
        <ele>225.1</ele>
        <time>2025-10-05T09:35:42.000Z</time>
      </trkpt>
      <trkpt lat="49.58223" lon="3.44389">
        <ele>225</ele>
        <time>2025-10-05T09:35:43.000Z</time>
      </trkpt>
      <trkpt lat="49.58222" lon="3.44388">
        <ele>224.9</ele>
        <time>2025-10-05T09:35:44.000Z</time>
      </trkpt>
      <trkpt lat="49.58221" lon="3.44387">
        <ele>224.8</ele>
        <time>2025-10-05T09:35:45.000Z</time>
      </trkpt>
      <trkpt lat="49.5822" lon="3.44386">
        <ele>224.8</ele>
        <time>2025-10-05T09:35:46.000Z</time>
      </trkpt>
      <trkpt lat="49.58219" lon="3.44385">
        <ele>225</ele>
        <time>2025-10-05T09:35:47.000Z</time>
      </trkpt>
      <trkpt lat="49.58218" lon="3.44384">
        <ele>224.8</ele>
        <time>2025-10-05T09:35:48.000Z</time>
      </trkpt>
      <trkpt lat="49.58217" lon="3.44383">
        <ele>224.7</ele>
        <time>2025-10-05T09:35:49.000Z</time>
      </trkpt>
      <trkpt lat="49.58216" lon="3.44382">
        <ele>224.5</ele>
        <time>2025-10-05T09:35:50.000Z</time>
      </trkpt>
      <trkpt lat="49.58215" lon="3.44382">
        <ele>224</ele>
        <time>2025-10-05T09:35:51.000Z</time>
      </trkpt>
      <trkpt lat="49.58214" lon="3.44381">
        <ele>223.9</ele>
        <time>2025-10-05T09:35:52.000Z</time>
      </trkpt>
      <trkpt lat="49.58214" lon="3.4438">
        <ele>223.9</ele>
        <time>2025-10-05T09:35:53.000Z</time>
      </trkpt>
      <trkpt lat="49.58213" lon="3.44379">
        <ele>223.9</ele>
        <time>2025-10-05T09:35:54.000Z</time>
      </trkpt>
      <trkpt lat="49.58212" lon="3.44378">
        <ele>223.9</ele>
        <time>2025-10-05T09:35:55.000Z</time>
      </trkpt>
      <trkpt lat="49.58211" lon="3.44377">
        <ele>223.9</ele>
        <time>2025-10-05T09:35:56.000Z</time>
      </trkpt>
      <trkpt lat="49.5821" lon="3.44376">
        <ele>223.8</ele>
        <time>2025-10-05T09:35:57.000Z</time>
      </trkpt>
      <trkpt lat="49.58209" lon="3.44375">
        <ele>223.9</ele>
        <time>2025-10-05T09:35:58.000Z</time>
      </trkpt>
      <trkpt lat="49.58208" lon="3.44374">
        <ele>223.9</ele>
        <time>2025-10-05T09:35:59.000Z</time>
      </trkpt>
      <trkpt lat="49.58207" lon="3.44374">
        <ele>224</ele>
        <time>2025-10-05T09:36:00.000Z</time>
      </trkpt>
      <trkpt lat="49.58206" lon="3.44374">
        <ele>224.2</ele>
        <time>2025-10-05T09:36:01.000Z</time>
      </trkpt>
      <trkpt lat="49.58206" lon="3.44373">
        <ele>224.3</ele>
        <time>2025-10-05T09:36:02.000Z</time>
      </trkpt>
      <trkpt lat="49.58205" lon="3.44372">
        <ele>224.3</ele>
        <time>2025-10-05T09:36:03.000Z</time>
      </trkpt>
      <trkpt lat="49.58204" lon="3.44371">
        <ele>224.4</ele>
        <time>2025-10-05T09:36:04.000Z</time>
      </trkpt>
      <trkpt lat="49.58203" lon="3.4437">
        <ele>224.4</ele>
        <time>2025-10-05T09:36:05.000Z</time>
      </trkpt>
      <trkpt lat="49.58203" lon="3.4437">
        <ele>224.2</ele>
        <time>2025-10-05T09:36:06.000Z</time>
      </trkpt>
      <trkpt lat="49.58203" lon="3.44369">
        <ele>224.1</ele>
        <time>2025-10-05T09:36:07.000Z</time>
      </trkpt>
      <trkpt lat="49.58202" lon="3.44369">
        <ele>224.1</ele>
        <time>2025-10-05T09:36:08.000Z</time>
      </trkpt>
      <trkpt lat="49.58202" lon="3.44369">
        <ele>224.1</ele>
        <time>2025-10-05T09:36:09.000Z</time>
      </trkpt>
      <trkpt lat="49.58202" lon="3.44369">
        <ele>224.1</ele>
        <time>2025-10-05T09:36:10.000Z</time>
      </trkpt>
      <trkpt lat="49.58202" lon="3.44369">
        <ele>224.1</ele>
        <time>2025-10-05T09:36:11.000Z</time>
      </trkpt>
      <trkpt lat="49.58202" lon="3.44369">
        <ele>224.2</ele>
        <time>2025-10-05T09:36:12.000Z</time>
      </trkpt>
      <trkpt lat="49.58202" lon="3.44369">
        <ele>224.3</ele>
        <time>2025-10-05T09:36:13.000Z</time>
      </trkpt>
      <trkpt lat="49.58202" lon="3.44369">
        <ele>224.4</ele>
        <time>2025-10-05T09:36:14.000Z</time>
      </trkpt>
      <trkpt lat="49.58202" lon="3.44369">
        <ele>224.8</ele>
        <time>2025-10-05T09:36:15.000Z</time>
      </trkpt>
      <trkpt lat="49.58202" lon="3.44369">
        <ele>225</ele>
        <time>2025-10-05T09:36:16.000Z</time>
      </trkpt>
      <trkpt lat="49.58202" lon="3.44369">
        <ele>225</ele>
        <time>2025-10-05T09:36:17.000Z</time>
      </trkpt>
      <trkpt lat="49.58202" lon="3.44369">
        <ele>225</ele>
        <time>2025-10-05T09:36:18.000Z</time>
      </trkpt>
      <trkpt lat="49.58202" lon="3.44369">
        <ele>225</ele>
        <time>2025-10-05T09:36:19.000Z</time>
      </trkpt>
      <trkpt lat="49.58202" lon="3.44369">
        <ele>225</ele>
        <time>2025-10-05T09:36:20.000Z</time>
      </trkpt>
      <trkpt lat="49.58202" lon="3.44369">
        <ele>225</ele>
        <time>2025-10-05T09:36:21.000Z</time>
      </trkpt>
      <trkpt lat="49.58202" lon="3.44369">
        <ele>225</ele>
        <time>2025-10-05T09:36:22.000Z</time>
      </trkpt>
      <trkpt lat="49.58202" lon="3.44369">
        <ele>225</ele>
        <time>2025-10-05T09:36:23.000Z</time>
      </trkpt>
      <trkpt lat="49.58202" lon="3.44369">
        <ele>226.4</ele>
        <time>2025-10-05T09:36:24.000Z</time>
      </trkpt>
      <trkpt lat="49.58201" lon="3.44369">
        <ele>226.4</ele>
        <time>2025-10-05T09:36:25.000Z</time>
      </trkpt>
      <trkpt lat="49.582" lon="3.44369">
        <ele>226.4</ele>
        <time>2025-10-05T09:36:26.000Z</time>
      </trkpt>
      <trkpt lat="49.58199" lon="3.44369">
        <ele>226.5</ele>
        <time>2025-10-05T09:36:27.000Z</time>
      </trkpt>
      <trkpt lat="49.58198" lon="3.44369">
        <ele>226.6</ele>
        <time>2025-10-05T09:36:28.000Z</time>
      </trkpt>
      <trkpt lat="49.58197" lon="3.44368">
        <ele>226.7</ele>
        <time>2025-10-05T09:36:29.000Z</time>
      </trkpt>
      <trkpt lat="49.58197" lon="3.44367">
        <ele>226.6</ele>
        <time>2025-10-05T09:36:30.000Z</time>
      </trkpt>
      <trkpt lat="49.58196" lon="3.44366">
        <ele>226.5</ele>
        <time>2025-10-05T09:36:31.000Z</time>
      </trkpt>
      <trkpt lat="49.58195" lon="3.44364">
        <ele>226.3</ele>
        <time>2025-10-05T09:36:32.000Z</time>
      </trkpt>
      <trkpt lat="49.58195" lon="3.44363">
        <ele>226.3</ele>
        <time>2025-10-05T09:36:33.000Z</time>
      </trkpt>
      <trkpt lat="49.58194" lon="3.44362">
        <ele>226.5</ele>
        <time>2025-10-05T09:36:34.000Z</time>
      </trkpt>
      <trkpt lat="49.58193" lon="3.44361">
        <ele>226.6</ele>
        <time>2025-10-05T09:36:35.000Z</time>
      </trkpt>
      <trkpt lat="49.58193" lon="3.4436">
        <ele>226.8</ele>
        <time>2025-10-05T09:36:36.000Z</time>
      </trkpt>
      <trkpt lat="49.58192" lon="3.4436">
        <ele>226.5</ele>
        <time>2025-10-05T09:36:37.000Z</time>
      </trkpt>
      <trkpt lat="49.58191" lon="3.44359">
        <ele>226.2</ele>
        <time>2025-10-05T09:36:38.000Z</time>
      </trkpt>
      <trkpt lat="49.5819" lon="3.44359">
        <ele>226.1</ele>
        <time>2025-10-05T09:36:39.000Z</time>
      </trkpt>
      <trkpt lat="49.58189" lon="3.44358">
        <ele>225.8</ele>
        <time>2025-10-05T09:36:40.000Z</time>
      </trkpt>
      <trkpt lat="49.58188" lon="3.44358">
        <ele>225.2</ele>
        <time>2025-10-05T09:36:41.000Z</time>
      </trkpt>
      <trkpt lat="49.58187" lon="3.44356">
        <ele>224.7</ele>
        <time>2025-10-05T09:36:42.000Z</time>
      </trkpt>
      <trkpt lat="49.58186" lon="3.44355">
        <ele>224.7</ele>
        <time>2025-10-05T09:36:43.000Z</time>
      </trkpt>
      <trkpt lat="49.58185" lon="3.44354">
        <ele>224.5</ele>
        <time>2025-10-05T09:36:44.000Z</time>
      </trkpt>
      <trkpt lat="49.58183" lon="3.44354">
        <ele>223.9</ele>
        <time>2025-10-05T09:36:45.000Z</time>
      </trkpt>
      <trkpt lat="49.58182" lon="3.44353">
        <ele>223.5</ele>
        <time>2025-10-05T09:36:46.000Z</time>
      </trkpt>
      <trkpt lat="49.58181" lon="3.44352">
        <ele>223.5</ele>
        <time>2025-10-05T09:36:47.000Z</time>
      </trkpt>
      <trkpt lat="49.5818" lon="3.44352">
        <ele>223.6</ele>
        <time>2025-10-05T09:36:48.000Z</time>
      </trkpt>
      <trkpt lat="49.58179" lon="3.44351">
        <ele>223.8</ele>
        <time>2025-10-05T09:36:49.000Z</time>
      </trkpt>
      <trkpt lat="49.58178" lon="3.44351">
        <ele>223.9</ele>
        <time>2025-10-05T09:36:50.000Z</time>
      </trkpt>
      <trkpt lat="49.58177" lon="3.44352">
        <ele>223.7</ele>
        <time>2025-10-05T09:36:51.000Z</time>
      </trkpt>
      <trkpt lat="49.58175" lon="3.44352">
        <ele>223.6</ele>
        <time>2025-10-05T09:36:52.000Z</time>
      </trkpt>
      <trkpt lat="49.58174" lon="3.44351">
        <ele>223.5</ele>
        <time>2025-10-05T09:36:53.000Z</time>
      </trkpt>
      <trkpt lat="49.58174" lon="3.44351">
        <ele>223.4</ele>
        <time>2025-10-05T09:36:54.000Z</time>
      </trkpt>
      <trkpt lat="49.58173" lon="3.44349">
        <ele>223.3</ele>
        <time>2025-10-05T09:36:55.000Z</time>
      </trkpt>
      <trkpt lat="49.58172" lon="3.44348">
        <ele>223.2</ele>
        <time>2025-10-05T09:36:56.000Z</time>
      </trkpt>
      <trkpt lat="49.58171" lon="3.44347">
        <ele>223.1</ele>
        <time>2025-10-05T09:36:57.000Z</time>
      </trkpt>
      <trkpt lat="49.5817" lon="3.44345">
        <ele>223.1</ele>
        <time>2025-10-05T09:36:58.000Z</time>
      </trkpt>
      <trkpt lat="49.5817" lon="3.44343">
        <ele>223</ele>
        <time>2025-10-05T09:36:59.000Z</time>
      </trkpt>
      <trkpt lat="49.58169" lon="3.44341">
        <ele>222.8</ele>
        <time>2025-10-05T09:37:00.000Z</time>
      </trkpt>
      <trkpt lat="49.58168" lon="3.4434">
        <ele>222.6</ele>
        <time>2025-10-05T09:37:01.000Z</time>
      </trkpt>
      <trkpt lat="49.58167" lon="3.4434">
        <ele>222.4</ele>
        <time>2025-10-05T09:37:02.000Z</time>
      </trkpt>
      <trkpt lat="49.58165" lon="3.4434">
        <ele>222.6</ele>
        <time>2025-10-05T09:37:03.000Z</time>
      </trkpt>
      <trkpt lat="49.58164" lon="3.44339">
        <ele>223</ele>
        <time>2025-10-05T09:37:04.000Z</time>
      </trkpt>
      <trkpt lat="49.58162" lon="3.44338">
        <ele>223.3</ele>
        <time>2025-10-05T09:37:05.000Z</time>
      </trkpt>
      <trkpt lat="49.58161" lon="3.44336">
        <ele>223.3</ele>
        <time>2025-10-05T09:37:06.000Z</time>
      </trkpt>
      <trkpt lat="49.58159" lon="3.44335">
        <ele>223.2</ele>
        <time>2025-10-05T09:37:07.000Z</time>
      </trkpt>
      <trkpt lat="49.58158" lon="3.44333">
        <ele>222.8</ele>
        <time>2025-10-05T09:37:08.000Z</time>
      </trkpt>
      <trkpt lat="49.58157" lon="3.44331">
        <ele>222.8</ele>
        <time>2025-10-05T09:37:09.000Z</time>
      </trkpt>
      <trkpt lat="49.58156" lon="3.4433">
        <ele>222.7</ele>
        <time>2025-10-05T09:37:10.000Z</time>
      </trkpt>
      <trkpt lat="49.58155" lon="3.44329">
        <ele>222.4</ele>
        <time>2025-10-05T09:37:11.000Z</time>
      </trkpt>
      <trkpt lat="49.58154" lon="3.44327">
        <ele>222.2</ele>
        <time>2025-10-05T09:37:12.000Z</time>
      </trkpt>
      <trkpt lat="49.58153" lon="3.44326">
        <ele>221.6</ele>
        <time>2025-10-05T09:37:13.000Z</time>
      </trkpt>
      <trkpt lat="49.58153" lon="3.44324">
        <ele>221.2</ele>
        <time>2025-10-05T09:37:14.000Z</time>
      </trkpt>
      <trkpt lat="49.58153" lon="3.44322">
        <ele>220.7</ele>
        <time>2025-10-05T09:37:15.000Z</time>
      </trkpt>
      <trkpt lat="49.58153" lon="3.44321">
        <ele>220.3</ele>
        <time>2025-10-05T09:37:16.000Z</time>
      </trkpt>
      <trkpt lat="49.58152" lon="3.4432">
        <ele>219.8</ele>
        <time>2025-10-05T09:37:17.000Z</time>
      </trkpt>
      <trkpt lat="49.58152" lon="3.44318">
        <ele>219.4</ele>
        <time>2025-10-05T09:37:18.000Z</time>
      </trkpt>
      <trkpt lat="49.58151" lon="3.44318">
        <ele>219.3</ele>
        <time>2025-10-05T09:37:19.000Z</time>
      </trkpt>
      <trkpt lat="49.5815" lon="3.44317">
        <ele>219.3</ele>
        <time>2025-10-05T09:37:20.000Z</time>
      </trkpt>
      <trkpt lat="49.5815" lon="3.44316">
        <ele>219.4</ele>
        <time>2025-10-05T09:37:21.000Z</time>
      </trkpt>
      <trkpt lat="49.58149" lon="3.44315">
        <ele>219.3</ele>
        <time>2025-10-05T09:37:22.000Z</time>
      </trkpt>
      <trkpt lat="49.58148" lon="3.44314">
        <ele>219.4</ele>
        <time>2025-10-05T09:37:23.000Z</time>
      </trkpt>
      <trkpt lat="49.58147" lon="3.44313">
        <ele>219.4</ele>
        <time>2025-10-05T09:37:24.000Z</time>
      </trkpt>
      <trkpt lat="49.58147" lon="3.44312">
        <ele>219.3</ele>
        <time>2025-10-05T09:37:25.000Z</time>
      </trkpt>
      <trkpt lat="49.58146" lon="3.44311">
        <ele>219.4</ele>
        <time>2025-10-05T09:37:26.000Z</time>
      </trkpt>
      <trkpt lat="49.58145" lon="3.44311">
        <ele>219.6</ele>
        <time>2025-10-05T09:37:27.000Z</time>
      </trkpt>
      <trkpt lat="49.58143" lon="3.44311">
        <ele>219.7</ele>
        <time>2025-10-05T09:37:28.000Z</time>
      </trkpt>
      <trkpt lat="49.58141" lon="3.44311">
        <ele>219.9</ele>
        <time>2025-10-05T09:37:29.000Z</time>
      </trkpt>
      <trkpt lat="49.5814" lon="3.4431">
        <ele>220</ele>
        <time>2025-10-05T09:37:30.000Z</time>
      </trkpt>
      <trkpt lat="49.58139" lon="3.44309">
        <ele>220.2</ele>
        <time>2025-10-05T09:37:31.000Z</time>
      </trkpt>
      <trkpt lat="49.58137" lon="3.44308">
        <ele>220.4</ele>
        <time>2025-10-05T09:37:32.000Z</time>
      </trkpt>
      <trkpt lat="49.58136" lon="3.44306">
        <ele>220.8</ele>
        <time>2025-10-05T09:37:33.000Z</time>
      </trkpt>
      <trkpt lat="49.58135" lon="3.44305">
        <ele>220.7</ele>
        <time>2025-10-05T09:37:34.000Z</time>
      </trkpt>
      <trkpt lat="49.58134" lon="3.44303">
        <ele>220.7</ele>
        <time>2025-10-05T09:37:35.000Z</time>
      </trkpt>
      <trkpt lat="49.58133" lon="3.44302">
        <ele>220.7</ele>
        <time>2025-10-05T09:37:36.000Z</time>
      </trkpt>
      <trkpt lat="49.58132" lon="3.44301">
        <ele>220.6</ele>
        <time>2025-10-05T09:37:37.000Z</time>
      </trkpt>
      <trkpt lat="49.58131" lon="3.44299">
        <ele>220.5</ele>
        <time>2025-10-05T09:37:38.000Z</time>
      </trkpt>
      <trkpt lat="49.5813" lon="3.44297">
        <ele>220.6</ele>
        <time>2025-10-05T09:37:39.000Z</time>
      </trkpt>
      <trkpt lat="49.58129" lon="3.44296">
        <ele>220.8</ele>
        <time>2025-10-05T09:37:40.000Z</time>
      </trkpt>
      <trkpt lat="49.58128" lon="3.44295">
        <ele>221</ele>
        <time>2025-10-05T09:37:41.000Z</time>
      </trkpt>
      <trkpt lat="49.58128" lon="3.44294">
        <ele>221.4</ele>
        <time>2025-10-05T09:37:42.000Z</time>
      </trkpt>
      <trkpt lat="49.58127" lon="3.44294">
        <ele>221.6</ele>
        <time>2025-10-05T09:37:43.000Z</time>
      </trkpt>
      <trkpt lat="49.58126" lon="3.44292">
        <ele>221.7</ele>
        <time>2025-10-05T09:37:44.000Z</time>
      </trkpt>
      <trkpt lat="49.58126" lon="3.4429">
        <ele>221.5</ele>
        <time>2025-10-05T09:37:45.000Z</time>
      </trkpt>
      <trkpt lat="49.58125" lon="3.44289">
        <ele>221.5</ele>
        <time>2025-10-05T09:37:46.000Z</time>
      </trkpt>
      <trkpt lat="49.58123" lon="3.44288">
        <ele>221.5</ele>
        <time>2025-10-05T09:37:47.000Z</time>
      </trkpt>
      <trkpt lat="49.58123" lon="3.44287">
        <ele>221.5</ele>
        <time>2025-10-05T09:37:48.000Z</time>
      </trkpt>
      <trkpt lat="49.58122" lon="3.44286">
        <ele>221.5</ele>
        <time>2025-10-05T09:37:49.000Z</time>
      </trkpt>
      <trkpt lat="49.58121" lon="3.44284">
        <ele>221.3</ele>
        <time>2025-10-05T09:37:50.000Z</time>
      </trkpt>
      <trkpt lat="49.5812" lon="3.44283">
        <ele>221.2</ele>
        <time>2025-10-05T09:37:51.000Z</time>
      </trkpt>
      <trkpt lat="49.5812" lon="3.44282">
        <ele>220.8</ele>
        <time>2025-10-05T09:37:52.000Z</time>
      </trkpt>
      <trkpt lat="49.58118" lon="3.44281">
        <ele>220.6</ele>
        <time>2025-10-05T09:37:53.000Z</time>
      </trkpt>
      <trkpt lat="49.58117" lon="3.44279">
        <ele>220.5</ele>
        <time>2025-10-05T09:37:54.000Z</time>
      </trkpt>
      <trkpt lat="49.58116" lon="3.44278">
        <ele>220.2</ele>
        <time>2025-10-05T09:37:55.000Z</time>
      </trkpt>
      <trkpt lat="49.58114" lon="3.44277">
        <ele>220.3</ele>
        <time>2025-10-05T09:37:56.000Z</time>
      </trkpt>
      <trkpt lat="49.58113" lon="3.44276">
        <ele>220.1</ele>
        <time>2025-10-05T09:37:57.000Z</time>
      </trkpt>
      <trkpt lat="49.58113" lon="3.44275">
        <ele>219.8</ele>
        <time>2025-10-05T09:37:58.000Z</time>
      </trkpt>
      <trkpt lat="49.58112" lon="3.44274">
        <ele>219.7</ele>
        <time>2025-10-05T09:37:59.000Z</time>
      </trkpt>
      <trkpt lat="49.58112" lon="3.44273">
        <ele>219.7</ele>
        <time>2025-10-05T09:38:00.000Z</time>
      </trkpt>
      <trkpt lat="49.58112" lon="3.44272">
        <ele>219.3</ele>
        <time>2025-10-05T09:38:01.000Z</time>
      </trkpt>
      <trkpt lat="49.58111" lon="3.44271">
        <ele>218.9</ele>
        <time>2025-10-05T09:38:02.000Z</time>
      </trkpt>
      <trkpt lat="49.5811" lon="3.44271">
        <ele>218.9</ele>
        <time>2025-10-05T09:38:03.000Z</time>
      </trkpt>
      <trkpt lat="49.58109" lon="3.4427">
        <ele>218.8</ele>
        <time>2025-10-05T09:38:04.000Z</time>
      </trkpt>
      <trkpt lat="49.58108" lon="3.44268">
        <ele>218.5</ele>
        <time>2025-10-05T09:38:05.000Z</time>
      </trkpt>
      <trkpt lat="49.58107" lon="3.44266">
        <ele>218.3</ele>
        <time>2025-10-05T09:38:06.000Z</time>
      </trkpt>
      <trkpt lat="49.58107" lon="3.44265">
        <ele>218.2</ele>
        <time>2025-10-05T09:38:07.000Z</time>
      </trkpt>
      <trkpt lat="49.58106" lon="3.44264">
        <ele>218.1</ele>
        <time>2025-10-05T09:38:08.000Z</time>
      </trkpt>
      <trkpt lat="49.58104" lon="3.44264">
        <ele>218.1</ele>
        <time>2025-10-05T09:38:09.000Z</time>
      </trkpt>
      <trkpt lat="49.58103" lon="3.44263">
        <ele>218.2</ele>
        <time>2025-10-05T09:38:10.000Z</time>
      </trkpt>
      <trkpt lat="49.58101" lon="3.44263">
        <ele>218.6</ele>
        <time>2025-10-05T09:38:11.000Z</time>
      </trkpt>
      <trkpt lat="49.581" lon="3.44262">
        <ele>218.8</ele>
        <time>2025-10-05T09:38:12.000Z</time>
      </trkpt>
      <trkpt lat="49.58099" lon="3.44261">
        <ele>219.2</ele>
        <time>2025-10-05T09:38:13.000Z</time>
      </trkpt>
      <trkpt lat="49.58099" lon="3.4426">
        <ele>219.2</ele>
        <time>2025-10-05T09:38:14.000Z</time>
      </trkpt>
      <trkpt lat="49.58098" lon="3.44258">
        <ele>219</ele>
        <time>2025-10-05T09:38:15.000Z</time>
      </trkpt>
      <trkpt lat="49.58098" lon="3.44257">
        <ele>219</ele>
        <time>2025-10-05T09:38:16.000Z</time>
      </trkpt>
      <trkpt lat="49.58097" lon="3.44255">
        <ele>219.2</ele>
        <time>2025-10-05T09:38:17.000Z</time>
      </trkpt>
      <trkpt lat="49.58096" lon="3.44254">
        <ele>219.4</ele>
        <time>2025-10-05T09:38:18.000Z</time>
      </trkpt>
      <trkpt lat="49.58095" lon="3.44252">
        <ele>219.5</ele>
        <time>2025-10-05T09:38:19.000Z</time>
      </trkpt>
      <trkpt lat="49.58094" lon="3.4425">
        <ele>219.5</ele>
        <time>2025-10-05T09:38:20.000Z</time>
      </trkpt>
      <trkpt lat="49.58092" lon="3.44249">
        <ele>219.5</ele>
        <time>2025-10-05T09:38:21.000Z</time>
      </trkpt>
      <trkpt lat="49.5809" lon="3.44248">
        <ele>219.4</ele>
        <time>2025-10-05T09:38:22.000Z</time>
      </trkpt>
      <trkpt lat="49.5809" lon="3.44247">
        <ele>219.4</ele>
        <time>2025-10-05T09:38:23.000Z</time>
      </trkpt>
      <trkpt lat="49.58089" lon="3.44245">
        <ele>219.3</ele>
        <time>2025-10-05T09:38:24.000Z</time>
      </trkpt>
      <trkpt lat="49.58088" lon="3.44245">
        <ele>219.1</ele>
        <time>2025-10-05T09:38:25.000Z</time>
      </trkpt>
      <trkpt lat="49.58087" lon="3.44243">
        <ele>219</ele>
        <time>2025-10-05T09:38:26.000Z</time>
      </trkpt>
      <trkpt lat="49.58086" lon="3.44242">
        <ele>218.8</ele>
        <time>2025-10-05T09:38:27.000Z</time>
      </trkpt>
      <trkpt lat="49.58086" lon="3.44241">
        <ele>218.8</ele>
        <time>2025-10-05T09:38:28.000Z</time>
      </trkpt>
      <trkpt lat="49.58085" lon="3.4424">
        <ele>218.6</ele>
        <time>2025-10-05T09:38:29.000Z</time>
      </trkpt>
      <trkpt lat="49.58084" lon="3.44238">
        <ele>218.4</ele>
        <time>2025-10-05T09:38:30.000Z</time>
      </trkpt>
      <trkpt lat="49.58084" lon="3.44237">
        <ele>218.3</ele>
        <time>2025-10-05T09:38:31.000Z</time>
      </trkpt>
      <trkpt lat="49.58083" lon="3.44235">
        <ele>218</ele>
        <time>2025-10-05T09:38:32.000Z</time>
      </trkpt>
      <trkpt lat="49.58082" lon="3.44234">
        <ele>217.5</ele>
        <time>2025-10-05T09:38:33.000Z</time>
      </trkpt>
      <trkpt lat="49.58081" lon="3.44234">
        <ele>217.5</ele>
        <time>2025-10-05T09:38:34.000Z</time>
      </trkpt>
      <trkpt lat="49.5808" lon="3.44233">
        <ele>217.4</ele>
        <time>2025-10-05T09:38:35.000Z</time>
      </trkpt>
      <trkpt lat="49.58078" lon="3.44232">
        <ele>217.4</ele>
        <time>2025-10-05T09:38:36.000Z</time>
      </trkpt>
      <trkpt lat="49.58077" lon="3.44231">
        <ele>217.3</ele>
        <time>2025-10-05T09:38:37.000Z</time>
      </trkpt>
      <trkpt lat="49.58076" lon="3.4423">
        <ele>217</ele>
        <time>2025-10-05T09:38:38.000Z</time>
      </trkpt>
      <trkpt lat="49.58075" lon="3.44228">
        <ele>217</ele>
        <time>2025-10-05T09:38:39.000Z</time>
      </trkpt>
      <trkpt lat="49.58074" lon="3.44227">
        <ele>217</ele>
        <time>2025-10-05T09:38:40.000Z</time>
      </trkpt>
      <trkpt lat="49.58073" lon="3.44226">
        <ele>216.9</ele>
        <time>2025-10-05T09:38:41.000Z</time>
      </trkpt>
      <trkpt lat="49.58072" lon="3.44224">
        <ele>216.9</ele>
        <time>2025-10-05T09:38:42.000Z</time>
      </trkpt>
      <trkpt lat="49.58071" lon="3.44223">
        <ele>217.2</ele>
        <time>2025-10-05T09:38:43.000Z</time>
      </trkpt>
      <trkpt lat="49.58071" lon="3.44221">
        <ele>217.2</ele>
        <time>2025-10-05T09:38:44.000Z</time>
      </trkpt>
      <trkpt lat="49.58069" lon="3.4422">
        <ele>217.1</ele>
        <time>2025-10-05T09:38:45.000Z</time>
      </trkpt>
      <trkpt lat="49.58068" lon="3.44219">
        <ele>217</ele>
        <time>2025-10-05T09:38:46.000Z</time>
      </trkpt>
      <trkpt lat="49.58067" lon="3.44218">
        <ele>216.8</ele>
        <time>2025-10-05T09:38:47.000Z</time>
      </trkpt>
      <trkpt lat="49.58066" lon="3.44217">
        <ele>216.6</ele>
        <time>2025-10-05T09:38:48.000Z</time>
      </trkpt>
      <trkpt lat="49.58065" lon="3.44216">
        <ele>216.7</ele>
        <time>2025-10-05T09:38:49.000Z</time>
      </trkpt>
      <trkpt lat="49.58064" lon="3.44215">
        <ele>216.7</ele>
        <time>2025-10-05T09:38:50.000Z</time>
      </trkpt>
      <trkpt lat="49.58063" lon="3.44214">
        <ele>216.8</ele>
        <time>2025-10-05T09:38:51.000Z</time>
      </trkpt>
      <trkpt lat="49.58062" lon="3.44212">
        <ele>216.7</ele>
        <time>2025-10-05T09:38:52.000Z</time>
      </trkpt>
      <trkpt lat="49.58061" lon="3.4421">
        <ele>216.7</ele>
        <time>2025-10-05T09:38:53.000Z</time>
      </trkpt>
      <trkpt lat="49.58061" lon="3.44209">
        <ele>216.7</ele>
        <time>2025-10-05T09:38:54.000Z</time>
      </trkpt>
      <trkpt lat="49.5806" lon="3.44207">
        <ele>216.7</ele>
        <time>2025-10-05T09:38:55.000Z</time>
      </trkpt>
      <trkpt lat="49.58059" lon="3.44206">
        <ele>216.7</ele>
        <time>2025-10-05T09:38:56.000Z</time>
      </trkpt>
      <trkpt lat="49.58059" lon="3.44205">
        <ele>216.7</ele>
        <time>2025-10-05T09:38:57.000Z</time>
      </trkpt>
      <trkpt lat="49.58058" lon="3.44204">
        <ele>216.6</ele>
        <time>2025-10-05T09:38:58.000Z</time>
      </trkpt>
      <trkpt lat="49.58057" lon="3.44203">
        <ele>216.5</ele>
        <time>2025-10-05T09:38:59.000Z</time>
      </trkpt>
      <trkpt lat="49.58057" lon="3.44202">
        <ele>216.4</ele>
        <time>2025-10-05T09:39:00.000Z</time>
      </trkpt>
      <trkpt lat="49.58056" lon="3.44201">
        <ele>216.2</ele>
        <time>2025-10-05T09:39:01.000Z</time>
      </trkpt>
      <trkpt lat="49.58055" lon="3.442">
        <ele>216</ele>
        <time>2025-10-05T09:39:02.000Z</time>
      </trkpt>
      <trkpt lat="49.58054" lon="3.44199">
        <ele>215.9</ele>
        <time>2025-10-05T09:39:03.000Z</time>
      </trkpt>
      <trkpt lat="49.58053" lon="3.44197">
        <ele>215.7</ele>
        <time>2025-10-05T09:39:04.000Z</time>
      </trkpt>
      <trkpt lat="49.58052" lon="3.44196">
        <ele>215.7</ele>
        <time>2025-10-05T09:39:05.000Z</time>
      </trkpt>
      <trkpt lat="49.58051" lon="3.44195">
        <ele>215.6</ele>
        <time>2025-10-05T09:39:06.000Z</time>
      </trkpt>
      <trkpt lat="49.5805" lon="3.44193">
        <ele>215.6</ele>
        <time>2025-10-05T09:39:07.000Z</time>
      </trkpt>
      <trkpt lat="49.58048" lon="3.44192">
        <ele>215.4</ele>
        <time>2025-10-05T09:39:08.000Z</time>
      </trkpt>
      <trkpt lat="49.58047" lon="3.4419">
        <ele>215.4</ele>
        <time>2025-10-05T09:39:09.000Z</time>
      </trkpt>
      <trkpt lat="49.58046" lon="3.44189">
        <ele>215.2</ele>
        <time>2025-10-05T09:39:10.000Z</time>
      </trkpt>
      <trkpt lat="49.58045" lon="3.44188">
        <ele>215.1</ele>
        <time>2025-10-05T09:39:11.000Z</time>
      </trkpt>
      <trkpt lat="49.58044" lon="3.44187">
        <ele>215</ele>
        <time>2025-10-05T09:39:12.000Z</time>
      </trkpt>
      <trkpt lat="49.58044" lon="3.44186">
        <ele>215.1</ele>
        <time>2025-10-05T09:39:13.000Z</time>
      </trkpt>
      <trkpt lat="49.58043" lon="3.44185">
        <ele>215.4</ele>
        <time>2025-10-05T09:39:14.000Z</time>
      </trkpt>
      <trkpt lat="49.58043" lon="3.44185">
        <ele>215.8</ele>
        <time>2025-10-05T09:39:15.000Z</time>
      </trkpt>
      <trkpt lat="49.58042" lon="3.44184">
        <ele>215.9</ele>
        <time>2025-10-05T09:39:16.000Z</time>
      </trkpt>
      <trkpt lat="49.58042" lon="3.44183">
        <ele>216.5</ele>
        <time>2025-10-05T09:39:17.000Z</time>
      </trkpt>
      <trkpt lat="49.58041" lon="3.44182">
        <ele>216.9</ele>
        <time>2025-10-05T09:39:18.000Z</time>
      </trkpt>
      <trkpt lat="49.58041" lon="3.44181">
        <ele>217</ele>
        <time>2025-10-05T09:39:19.000Z</time>
      </trkpt>
      <trkpt lat="49.5804" lon="3.44179">
        <ele>217.3</ele>
        <time>2025-10-05T09:39:20.000Z</time>
      </trkpt>
      <trkpt lat="49.5804" lon="3.44178">
        <ele>217.5</ele>
        <time>2025-10-05T09:39:21.000Z</time>
      </trkpt>
      <trkpt lat="49.58039" lon="3.44177">
        <ele>217.7</ele>
        <time>2025-10-05T09:39:22.000Z</time>
      </trkpt>
      <trkpt lat="49.58038" lon="3.44175">
        <ele>217.8</ele>
        <time>2025-10-05T09:39:23.000Z</time>
      </trkpt>
      <trkpt lat="49.58038" lon="3.44174">
        <ele>218</ele>
        <time>2025-10-05T09:39:24.000Z</time>
      </trkpt>
      <trkpt lat="49.58037" lon="3.44172">
        <ele>218</ele>
        <time>2025-10-05T09:39:25.000Z</time>
      </trkpt>
      <trkpt lat="49.58035" lon="3.44171">
        <ele>217.9</ele>
        <time>2025-10-05T09:39:26.000Z</time>
      </trkpt>
      <trkpt lat="49.58034" lon="3.44169">
        <ele>217.6</ele>
        <time>2025-10-05T09:39:27.000Z</time>
      </trkpt>
      <trkpt lat="49.58033" lon="3.44167">
        <ele>217.4</ele>
        <time>2025-10-05T09:39:28.000Z</time>
      </trkpt>
      <trkpt lat="49.58032" lon="3.44166">
        <ele>217.2</ele>
        <time>2025-10-05T09:39:29.000Z</time>
      </trkpt>
      <trkpt lat="49.58031" lon="3.44164">
        <ele>217.3</ele>
        <time>2025-10-05T09:39:30.000Z</time>
      </trkpt>
      <trkpt lat="49.5803" lon="3.44162">
        <ele>217.4</ele>
        <time>2025-10-05T09:39:31.000Z</time>
      </trkpt>
      <trkpt lat="49.58029" lon="3.4416">
        <ele>217.5</ele>
        <time>2025-10-05T09:39:32.000Z</time>
      </trkpt>
      <trkpt lat="49.58028" lon="3.44158">
        <ele>217.3</ele>
        <time>2025-10-05T09:39:33.000Z</time>
      </trkpt>
      <trkpt lat="49.58027" lon="3.44157">
        <ele>217.3</ele>
        <time>2025-10-05T09:39:34.000Z</time>
      </trkpt>
      <trkpt lat="49.58025" lon="3.44155">
        <ele>217</ele>
        <time>2025-10-05T09:39:35.000Z</time>
      </trkpt>
      <trkpt lat="49.58024" lon="3.44153">
        <ele>216.6</ele>
        <time>2025-10-05T09:39:36.000Z</time>
      </trkpt>
      <trkpt lat="49.58023" lon="3.44151">
        <ele>216.7</ele>
        <time>2025-10-05T09:39:37.000Z</time>
      </trkpt>
      <trkpt lat="49.58022" lon="3.4415">
        <ele>216.8</ele>
        <time>2025-10-05T09:39:38.000Z</time>
      </trkpt>
      <trkpt lat="49.58021" lon="3.44148">
        <ele>216.8</ele>
        <time>2025-10-05T09:39:39.000Z</time>
      </trkpt>
      <trkpt lat="49.5802" lon="3.44148">
        <ele>216.7</ele>
        <time>2025-10-05T09:39:40.000Z</time>
      </trkpt>
      <trkpt lat="49.58019" lon="3.44147">
        <ele>216.7</ele>
        <time>2025-10-05T09:39:41.000Z</time>
      </trkpt>
      <trkpt lat="49.58018" lon="3.44147">
        <ele>216.8</ele>
        <time>2025-10-05T09:39:42.000Z</time>
      </trkpt>
      <trkpt lat="49.58017" lon="3.44146">
        <ele>216.9</ele>
        <time>2025-10-05T09:39:43.000Z</time>
      </trkpt>
      <trkpt lat="49.58017" lon="3.44145">
        <ele>217.1</ele>
        <time>2025-10-05T09:39:44.000Z</time>
      </trkpt>
      <trkpt lat="49.58016" lon="3.44143">
        <ele>217.4</ele>
        <time>2025-10-05T09:39:45.000Z</time>
      </trkpt>
      <trkpt lat="49.58015" lon="3.44142">
        <ele>217.5</ele>
        <time>2025-10-05T09:39:46.000Z</time>
      </trkpt>
      <trkpt lat="49.58014" lon="3.44141">
        <ele>217.7</ele>
        <time>2025-10-05T09:39:47.000Z</time>
      </trkpt>
      <trkpt lat="49.58013" lon="3.4414">
        <ele>217.7</ele>
        <time>2025-10-05T09:39:48.000Z</time>
      </trkpt>
      <trkpt lat="49.58013" lon="3.44138">
        <ele>217.5</ele>
        <time>2025-10-05T09:39:49.000Z</time>
      </trkpt>
      <trkpt lat="49.58013" lon="3.44137">
        <ele>217.2</ele>
        <time>2025-10-05T09:39:50.000Z</time>
      </trkpt>
      <trkpt lat="49.58012" lon="3.44136">
        <ele>216.8</ele>
        <time>2025-10-05T09:39:51.000Z</time>
      </trkpt>
      <trkpt lat="49.58011" lon="3.44135">
        <ele>216.5</ele>
        <time>2025-10-05T09:39:52.000Z</time>
      </trkpt>
      <trkpt lat="49.5801" lon="3.44133">
        <ele>216.3</ele>
        <time>2025-10-05T09:39:53.000Z</time>
      </trkpt>
      <trkpt lat="49.58008" lon="3.44131">
        <ele>216.1</ele>
        <time>2025-10-05T09:39:54.000Z</time>
      </trkpt>
      <trkpt lat="49.58007" lon="3.4413">
        <ele>215.9</ele>
        <time>2025-10-05T09:39:55.000Z</time>
      </trkpt>
      <trkpt lat="49.58006" lon="3.44128">
        <ele>215.7</ele>
        <time>2025-10-05T09:39:56.000Z</time>
      </trkpt>
      <trkpt lat="49.58006" lon="3.44127">
        <ele>215.7</ele>
        <time>2025-10-05T09:39:57.000Z</time>
      </trkpt>
      <trkpt lat="49.58005" lon="3.44127">
        <ele>215.7</ele>
        <time>2025-10-05T09:39:58.000Z</time>
      </trkpt>
      <trkpt lat="49.58004" lon="3.44126">
        <ele>215.5</ele>
        <time>2025-10-05T09:39:59.000Z</time>
      </trkpt>
      <trkpt lat="49.58003" lon="3.44125">
        <ele>215.5</ele>
        <time>2025-10-05T09:40:00.000Z</time>
      </trkpt>
      <trkpt lat="49.58003" lon="3.44123">
        <ele>215.4</ele>
        <time>2025-10-05T09:40:01.000Z</time>
      </trkpt>
      <trkpt lat="49.58002" lon="3.44122">
        <ele>215.5</ele>
        <time>2025-10-05T09:40:02.000Z</time>
      </trkpt>
      <trkpt lat="49.58001" lon="3.44121">
        <ele>215.5</ele>
        <time>2025-10-05T09:40:03.000Z</time>
      </trkpt>
      <trkpt lat="49.58001" lon="3.4412">
        <ele>215.6</ele>
        <time>2025-10-05T09:40:04.000Z</time>
      </trkpt>
      <trkpt lat="49.58" lon="3.44118">
        <ele>215.6</ele>
        <time>2025-10-05T09:40:05.000Z</time>
      </trkpt>
      <trkpt lat="49.57999" lon="3.44117">
        <ele>215.6</ele>
        <time>2025-10-05T09:40:06.000Z</time>
      </trkpt>
      <trkpt lat="49.57997" lon="3.44115">
        <ele>215.7</ele>
        <time>2025-10-05T09:40:07.000Z</time>
      </trkpt>
      <trkpt lat="49.57996" lon="3.44114">
        <ele>215.6</ele>
        <time>2025-10-05T09:40:08.000Z</time>
      </trkpt>
      <trkpt lat="49.57995" lon="3.44113">
        <ele>215.6</ele>
        <time>2025-10-05T09:40:09.000Z</time>
      </trkpt>
      <trkpt lat="49.57994" lon="3.44112">
        <ele>215.4</ele>
        <time>2025-10-05T09:40:10.000Z</time>
      </trkpt>
      <trkpt lat="49.57994" lon="3.44111">
        <ele>215.2</ele>
        <time>2025-10-05T09:40:11.000Z</time>
      </trkpt>
      <trkpt lat="49.57993" lon="3.4411">
        <ele>215.2</ele>
        <time>2025-10-05T09:40:12.000Z</time>
      </trkpt>
      <trkpt lat="49.57992" lon="3.4411">
        <ele>215.2</ele>
        <time>2025-10-05T09:40:13.000Z</time>
      </trkpt>
      <trkpt lat="49.57991" lon="3.44109">
        <ele>215.3</ele>
        <time>2025-10-05T09:40:14.000Z</time>
      </trkpt>
      <trkpt lat="49.5799" lon="3.44108">
        <ele>215.3</ele>
        <time>2025-10-05T09:40:15.000Z</time>
      </trkpt>
      <trkpt lat="49.5799" lon="3.44107">
        <ele>214.9</ele>
        <time>2025-10-05T09:40:16.000Z</time>
      </trkpt>
      <trkpt lat="49.57989" lon="3.44106">
        <ele>214.8</ele>
        <time>2025-10-05T09:40:17.000Z</time>
      </trkpt>
      <trkpt lat="49.57988" lon="3.44105">
        <ele>214.5</ele>
        <time>2025-10-05T09:40:18.000Z</time>
      </trkpt>
      <trkpt lat="49.57986" lon="3.44104">
        <ele>214.5</ele>
        <time>2025-10-05T09:40:19.000Z</time>
      </trkpt>
      <trkpt lat="49.57985" lon="3.44103">
        <ele>214.4</ele>
        <time>2025-10-05T09:40:20.000Z</time>
      </trkpt>
      <trkpt lat="49.57984" lon="3.44101">
        <ele>214.2</ele>
        <time>2025-10-05T09:40:21.000Z</time>
      </trkpt>
      <trkpt lat="49.57983" lon="3.441">
        <ele>214.1</ele>
        <time>2025-10-05T09:40:22.000Z</time>
      </trkpt>
      <trkpt lat="49.57982" lon="3.44099">
        <ele>213.9</ele>
        <time>2025-10-05T09:40:23.000Z</time>
      </trkpt>
      <trkpt lat="49.57982" lon="3.44097">
        <ele>213.8</ele>
        <time>2025-10-05T09:40:24.000Z</time>
      </trkpt>
      <trkpt lat="49.57981" lon="3.44095">
        <ele>213.7</ele>
        <time>2025-10-05T09:40:25.000Z</time>
      </trkpt>
      <trkpt lat="49.5798" lon="3.44093">
        <ele>213.6</ele>
        <time>2025-10-05T09:40:26.000Z</time>
      </trkpt>
      <trkpt lat="49.57979" lon="3.44092">
        <ele>213.7</ele>
        <time>2025-10-05T09:40:27.000Z</time>
      </trkpt>
      <trkpt lat="49.57977" lon="3.44089">
        <ele>213.9</ele>
        <time>2025-10-05T09:40:28.000Z</time>
      </trkpt>
      <trkpt lat="49.57976" lon="3.44088">
        <ele>213.8</ele>
        <time>2025-10-05T09:40:29.000Z</time>
      </trkpt>
      <trkpt lat="49.57976" lon="3.44086">
        <ele>213.9</ele>
        <time>2025-10-05T09:40:30.000Z</time>
      </trkpt>
      <trkpt lat="49.57975" lon="3.44085">
        <ele>214.2</ele>
        <time>2025-10-05T09:40:31.000Z</time>
      </trkpt>
      <trkpt lat="49.57974" lon="3.44084">
        <ele>214.5</ele>
        <time>2025-10-05T09:40:32.000Z</time>
      </trkpt>
      <trkpt lat="49.57973" lon="3.44084">
        <ele>214.7</ele>
        <time>2025-10-05T09:40:33.000Z</time>
      </trkpt>
      <trkpt lat="49.57972" lon="3.44084">
        <ele>214.9</ele>
        <time>2025-10-05T09:40:34.000Z</time>
      </trkpt>
      <trkpt lat="49.57972" lon="3.44084">
        <ele>215</ele>
        <time>2025-10-05T09:40:35.000Z</time>
      </trkpt>
      <trkpt lat="49.57971" lon="3.44083">
        <ele>215.2</ele>
        <time>2025-10-05T09:40:36.000Z</time>
      </trkpt>
      <trkpt lat="49.5797" lon="3.44082">
        <ele>215.5</ele>
        <time>2025-10-05T09:40:37.000Z</time>
      </trkpt>
      <trkpt lat="49.57968" lon="3.44081">
        <ele>216.2</ele>
        <time>2025-10-05T09:40:38.000Z</time>
      </trkpt>
      <trkpt lat="49.57967" lon="3.44079">
        <ele>216.5</ele>
        <time>2025-10-05T09:40:39.000Z</time>
      </trkpt>
      <trkpt lat="49.57966" lon="3.44078">
        <ele>216.9</ele>
        <time>2025-10-05T09:40:40.000Z</time>
      </trkpt>
      <trkpt lat="49.57965" lon="3.44078">
        <ele>217</ele>
        <time>2025-10-05T09:40:41.000Z</time>
      </trkpt>
      <trkpt lat="49.57964" lon="3.44077">
        <ele>217.1</ele>
        <time>2025-10-05T09:40:42.000Z</time>
      </trkpt>
      <trkpt lat="49.57963" lon="3.44076">
        <ele>217.2</ele>
        <time>2025-10-05T09:40:43.000Z</time>
      </trkpt>
      <trkpt lat="49.57961" lon="3.44074">
        <ele>217.2</ele>
        <time>2025-10-05T09:40:44.000Z</time>
      </trkpt>
      <trkpt lat="49.57961" lon="3.44073">
        <ele>216.9</ele>
        <time>2025-10-05T09:40:45.000Z</time>
      </trkpt>
      <trkpt lat="49.5796" lon="3.44072">
        <ele>217</ele>
        <time>2025-10-05T09:40:46.000Z</time>
      </trkpt>
      <trkpt lat="49.57959" lon="3.44071">
        <ele>217</ele>
        <time>2025-10-05T09:40:47.000Z</time>
      </trkpt>
      <trkpt lat="49.57958" lon="3.4407">
        <ele>217</ele>
        <time>2025-10-05T09:40:48.000Z</time>
      </trkpt>
      <trkpt lat="49.57957" lon="3.44069">
        <ele>217.4</ele>
        <time>2025-10-05T09:40:49.000Z</time>
      </trkpt>
      <trkpt lat="49.57956" lon="3.44068">
        <ele>217.6</ele>
        <time>2025-10-05T09:40:50.000Z</time>
      </trkpt>
      <trkpt lat="49.57954" lon="3.44067">
        <ele>217.8</ele>
        <time>2025-10-05T09:40:51.000Z</time>
      </trkpt>
      <trkpt lat="49.57953" lon="3.44066">
        <ele>217.8</ele>
        <time>2025-10-05T09:40:52.000Z</time>
      </trkpt>
      <trkpt lat="49.57952" lon="3.44065">
        <ele>218</ele>
        <time>2025-10-05T09:40:53.000Z</time>
      </trkpt>
      <trkpt lat="49.57952" lon="3.44065">
        <ele>218.5</ele>
        <time>2025-10-05T09:40:54.000Z</time>
      </trkpt>
      <trkpt lat="49.57952" lon="3.44065">
        <ele>219.1</ele>
        <time>2025-10-05T09:40:55.000Z</time>
      </trkpt>
      <trkpt lat="49.57951" lon="3.44065">
        <ele>219.7</ele>
        <time>2025-10-05T09:40:56.000Z</time>
      </trkpt>
      <trkpt lat="49.57951" lon="3.44063">
        <ele>219.8</ele>
        <time>2025-10-05T09:40:57.000Z</time>
      </trkpt>
      <trkpt lat="49.5795" lon="3.44062">
        <ele>219.7</ele>
        <time>2025-10-05T09:40:58.000Z</time>
      </trkpt>
      <trkpt lat="49.5795" lon="3.44061">
        <ele>219.5</ele>
        <time>2025-10-05T09:40:59.000Z</time>
      </trkpt>
      <trkpt lat="49.57949" lon="3.4406">
        <ele>219.3</ele>
        <time>2025-10-05T09:41:00.000Z</time>
      </trkpt>
      <trkpt lat="49.57947" lon="3.44059">
        <ele>219.2</ele>
        <time>2025-10-05T09:41:01.000Z</time>
      </trkpt>
      <trkpt lat="49.57947" lon="3.44057">
        <ele>219</ele>
        <time>2025-10-05T09:41:02.000Z</time>
      </trkpt>
      <trkpt lat="49.57946" lon="3.44055">
        <ele>218.8</ele>
        <time>2025-10-05T09:41:03.000Z</time>
      </trkpt>
      <trkpt lat="49.57945" lon="3.44054">
        <ele>218.7</ele>
        <time>2025-10-05T09:41:04.000Z</time>
      </trkpt>
      <trkpt lat="49.57943" lon="3.44053">
        <ele>218.6</ele>
        <time>2025-10-05T09:41:05.000Z</time>
      </trkpt>
      <trkpt lat="49.57942" lon="3.44053">
        <ele>218.3</ele>
        <time>2025-10-05T09:41:06.000Z</time>
      </trkpt>
      <trkpt lat="49.5794" lon="3.44052">
        <ele>218.2</ele>
        <time>2025-10-05T09:41:07.000Z</time>
      </trkpt>
      <trkpt lat="49.57939" lon="3.44052">
        <ele>218.1</ele>
        <time>2025-10-05T09:41:08.000Z</time>
      </trkpt>
      <trkpt lat="49.57937" lon="3.44051">
        <ele>217.8</ele>
        <time>2025-10-05T09:41:09.000Z</time>
      </trkpt>
      <trkpt lat="49.57935" lon="3.44049">
        <ele>217.5</ele>
        <time>2025-10-05T09:41:10.000Z</time>
      </trkpt>
      <trkpt lat="49.57934" lon="3.44048">
        <ele>217.1</ele>
        <time>2025-10-05T09:41:11.000Z</time>
      </trkpt>
      <trkpt lat="49.57933" lon="3.44046">
        <ele>216.5</ele>
        <time>2025-10-05T09:41:12.000Z</time>
      </trkpt>
      <trkpt lat="49.57933" lon="3.44045">
        <ele>215.8</ele>
        <time>2025-10-05T09:41:13.000Z</time>
      </trkpt>
      <trkpt lat="49.57932" lon="3.44044">
        <ele>215.3</ele>
        <time>2025-10-05T09:41:14.000Z</time>
      </trkpt>
      <trkpt lat="49.57932" lon="3.44042">
        <ele>214.9</ele>
        <time>2025-10-05T09:41:15.000Z</time>
      </trkpt>
      <trkpt lat="49.57931" lon="3.44041">
        <ele>214.8</ele>
        <time>2025-10-05T09:41:16.000Z</time>
      </trkpt>
      <trkpt lat="49.57931" lon="3.4404">
        <ele>214.5</ele>
        <time>2025-10-05T09:41:17.000Z</time>
      </trkpt>
      <trkpt lat="49.5793" lon="3.44039">
        <ele>214.5</ele>
        <time>2025-10-05T09:41:18.000Z</time>
      </trkpt>
      <trkpt lat="49.5793" lon="3.44038">
        <ele>214.5</ele>
        <time>2025-10-05T09:41:19.000Z</time>
      </trkpt>
      <trkpt lat="49.57929" lon="3.44037">
        <ele>214.9</ele>
        <time>2025-10-05T09:41:20.000Z</time>
      </trkpt>
      <trkpt lat="49.57928" lon="3.44037">
        <ele>215.1</ele>
        <time>2025-10-05T09:41:21.000Z</time>
      </trkpt>
      <trkpt lat="49.57927" lon="3.44035">
        <ele>215.3</ele>
        <time>2025-10-05T09:41:22.000Z</time>
      </trkpt>
      <trkpt lat="49.57926" lon="3.44034">
        <ele>215.4</ele>
        <time>2025-10-05T09:41:23.000Z</time>
      </trkpt>
      <trkpt lat="49.57925" lon="3.44032">
        <ele>215.4</ele>
        <time>2025-10-05T09:41:24.000Z</time>
      </trkpt>
      <trkpt lat="49.57924" lon="3.44031">
        <ele>215.4</ele>
        <time>2025-10-05T09:41:25.000Z</time>
      </trkpt>
      <trkpt lat="49.57923" lon="3.44029">
        <ele>215.3</ele>
        <time>2025-10-05T09:41:26.000Z</time>
      </trkpt>
      <trkpt lat="49.57922" lon="3.44027">
        <ele>215.1</ele>
        <time>2025-10-05T09:41:27.000Z</time>
      </trkpt>
      <trkpt lat="49.57922" lon="3.44026">
        <ele>215.2</ele>
        <time>2025-10-05T09:41:28.000Z</time>
      </trkpt>
      <trkpt lat="49.57921" lon="3.44024">
        <ele>215.3</ele>
        <time>2025-10-05T09:41:29.000Z</time>
      </trkpt>
      <trkpt lat="49.5792" lon="3.44023">
        <ele>215.2</ele>
        <time>2025-10-05T09:41:30.000Z</time>
      </trkpt>
      <trkpt lat="49.57918" lon="3.44021">
        <ele>215.3</ele>
        <time>2025-10-05T09:41:31.000Z</time>
      </trkpt>
      <trkpt lat="49.57917" lon="3.44019">
        <ele>215.3</ele>
        <time>2025-10-05T09:41:32.000Z</time>
      </trkpt>
      <trkpt lat="49.57916" lon="3.44018">
        <ele>215.3</ele>
        <time>2025-10-05T09:41:33.000Z</time>
      </trkpt>
      <trkpt lat="49.57915" lon="3.44017">
        <ele>215.5</ele>
        <time>2025-10-05T09:41:34.000Z</time>
      </trkpt>
      <trkpt lat="49.57914" lon="3.44016">
        <ele>215.4</ele>
        <time>2025-10-05T09:41:35.000Z</time>
      </trkpt>
      <trkpt lat="49.57913" lon="3.44014">
        <ele>215.3</ele>
        <time>2025-10-05T09:41:36.000Z</time>
      </trkpt>
      <trkpt lat="49.57913" lon="3.44013">
        <ele>215.2</ele>
        <time>2025-10-05T09:41:37.000Z</time>
      </trkpt>
      <trkpt lat="49.57912" lon="3.44012">
        <ele>215</ele>
        <time>2025-10-05T09:41:38.000Z</time>
      </trkpt>
      <trkpt lat="49.57912" lon="3.44012">
        <ele>215</ele>
        <time>2025-10-05T09:41:39.000Z</time>
      </trkpt>
      <trkpt lat="49.57911" lon="3.44011">
        <ele>215</ele>
        <time>2025-10-05T09:41:40.000Z</time>
      </trkpt>
      <trkpt lat="49.57911" lon="3.4401">
        <ele>215</ele>
        <time>2025-10-05T09:41:41.000Z</time>
      </trkpt>
      <trkpt lat="49.5791" lon="3.44009">
        <ele>215.1</ele>
        <time>2025-10-05T09:41:42.000Z</time>
      </trkpt>
      <trkpt lat="49.57909" lon="3.44008">
        <ele>215.1</ele>
        <time>2025-10-05T09:41:43.000Z</time>
      </trkpt>
      <trkpt lat="49.57908" lon="3.44007">
        <ele>215</ele>
        <time>2025-10-05T09:41:44.000Z</time>
      </trkpt>
      <trkpt lat="49.57907" lon="3.44005">
        <ele>214.8</ele>
        <time>2025-10-05T09:41:45.000Z</time>
      </trkpt>
      <trkpt lat="49.57906" lon="3.44004">
        <ele>214.7</ele>
        <time>2025-10-05T09:41:46.000Z</time>
      </trkpt>
      <trkpt lat="49.57905" lon="3.44002">
        <ele>214.5</ele>
        <time>2025-10-05T09:41:47.000Z</time>
      </trkpt>
      <trkpt lat="49.57904" lon="3.44">
        <ele>214.4</ele>
        <time>2025-10-05T09:41:48.000Z</time>
      </trkpt>
      <trkpt lat="49.57903" lon="3.43998">
        <ele>214.4</ele>
        <time>2025-10-05T09:41:49.000Z</time>
      </trkpt>
      <trkpt lat="49.57902" lon="3.43997">
        <ele>214.3</ele>
        <time>2025-10-05T09:41:50.000Z</time>
      </trkpt>
      <trkpt lat="49.57901" lon="3.43996">
        <ele>214.1</ele>
        <time>2025-10-05T09:41:51.000Z</time>
      </trkpt>
      <trkpt lat="49.579" lon="3.43994">
        <ele>213.9</ele>
        <time>2025-10-05T09:41:52.000Z</time>
      </trkpt>
      <trkpt lat="49.57899" lon="3.43993">
        <ele>213.8</ele>
        <time>2025-10-05T09:41:53.000Z</time>
      </trkpt>
      <trkpt lat="49.57899" lon="3.43993">
        <ele>213.7</ele>
        <time>2025-10-05T09:41:54.000Z</time>
      </trkpt>
      <trkpt lat="49.57898" lon="3.43993">
        <ele>213.8</ele>
        <time>2025-10-05T09:41:55.000Z</time>
      </trkpt>
      <trkpt lat="49.57898" lon="3.43992">
        <ele>213.8</ele>
        <time>2025-10-05T09:41:56.000Z</time>
      </trkpt>
      <trkpt lat="49.57897" lon="3.43991">
        <ele>213.8</ele>
        <time>2025-10-05T09:41:57.000Z</time>
      </trkpt>
      <trkpt lat="49.57896" lon="3.43989">
        <ele>213.8</ele>
        <time>2025-10-05T09:41:58.000Z</time>
      </trkpt>
      <trkpt lat="49.57896" lon="3.43987">
        <ele>213.8</ele>
        <time>2025-10-05T09:41:59.000Z</time>
      </trkpt>
      <trkpt lat="49.57895" lon="3.43986">
        <ele>213.6</ele>
        <time>2025-10-05T09:42:00.000Z</time>
      </trkpt>
      <trkpt lat="49.57895" lon="3.43985">
        <ele>213.5</ele>
        <time>2025-10-05T09:42:01.000Z</time>
      </trkpt>
      <trkpt lat="49.57894" lon="3.43984">
        <ele>213.6</ele>
        <time>2025-10-05T09:42:02.000Z</time>
      </trkpt>
      <trkpt lat="49.57894" lon="3.43984">
        <ele>213.4</ele>
        <time>2025-10-05T09:42:03.000Z</time>
      </trkpt>
      <trkpt lat="49.57894" lon="3.43983">
        <ele>213.3</ele>
        <time>2025-10-05T09:42:04.000Z</time>
      </trkpt>
      <trkpt lat="49.57894" lon="3.43981">
        <ele>213.1</ele>
        <time>2025-10-05T09:42:05.000Z</time>
      </trkpt>
      <trkpt lat="49.57893" lon="3.43979">
        <ele>212.9</ele>
        <time>2025-10-05T09:42:06.000Z</time>
      </trkpt>
      <trkpt lat="49.57893" lon="3.43978">
        <ele>212.7</ele>
        <time>2025-10-05T09:42:07.000Z</time>
      </trkpt>
      <trkpt lat="49.57892" lon="3.43976">
        <ele>212.6</ele>
        <time>2025-10-05T09:42:08.000Z</time>
      </trkpt>
      <trkpt lat="49.57892" lon="3.43975">
        <ele>212.5</ele>
        <time>2025-10-05T09:42:09.000Z</time>
      </trkpt>
      <trkpt lat="49.57891" lon="3.43973">
        <ele>212.4</ele>
        <time>2025-10-05T09:42:10.000Z</time>
      </trkpt>
      <trkpt lat="49.57891" lon="3.43972">
        <ele>212.2</ele>
        <time>2025-10-05T09:42:11.000Z</time>
      </trkpt>
      <trkpt lat="49.5789" lon="3.43971">
        <ele>212.1</ele>
        <time>2025-10-05T09:42:12.000Z</time>
      </trkpt>
      <trkpt lat="49.57889" lon="3.43969">
        <ele>211.9</ele>
        <time>2025-10-05T09:42:13.000Z</time>
      </trkpt>
      <trkpt lat="49.57889" lon="3.43967">
        <ele>211.8</ele>
        <time>2025-10-05T09:42:14.000Z</time>
      </trkpt>
      <trkpt lat="49.57888" lon="3.43965">
        <ele>211.7</ele>
        <time>2025-10-05T09:42:15.000Z</time>
      </trkpt>
      <trkpt lat="49.57887" lon="3.43963">
        <ele>211.5</ele>
        <time>2025-10-05T09:42:16.000Z</time>
      </trkpt>
      <trkpt lat="49.57886" lon="3.43961">
        <ele>211.3</ele>
        <time>2025-10-05T09:42:17.000Z</time>
      </trkpt>
      <trkpt lat="49.57886" lon="3.43959">
        <ele>211.1</ele>
        <time>2025-10-05T09:42:18.000Z</time>
      </trkpt>
      <trkpt lat="49.57885" lon="3.43958">
        <ele>210.9</ele>
        <time>2025-10-05T09:42:19.000Z</time>
      </trkpt>
      <trkpt lat="49.57885" lon="3.43957">
        <ele>210.7</ele>
        <time>2025-10-05T09:42:20.000Z</time>
      </trkpt>
      <trkpt lat="49.57885" lon="3.43956">
        <ele>210.6</ele>
        <time>2025-10-05T09:42:21.000Z</time>
      </trkpt>
      <trkpt lat="49.57884" lon="3.43956">
        <ele>210.4</ele>
        <time>2025-10-05T09:42:22.000Z</time>
      </trkpt>
      <trkpt lat="49.57884" lon="3.43955">
        <ele>210.2</ele>
        <time>2025-10-05T09:42:23.000Z</time>
      </trkpt>
      <trkpt lat="49.57883" lon="3.43954">
        <ele>210</ele>
        <time>2025-10-05T09:42:24.000Z</time>
      </trkpt>
      <trkpt lat="49.57883" lon="3.43953">
        <ele>209.8</ele>
        <time>2025-10-05T09:42:25.000Z</time>
      </trkpt>
      <trkpt lat="49.57882" lon="3.43952">
        <ele>209.7</ele>
        <time>2025-10-05T09:42:26.000Z</time>
      </trkpt>
      <trkpt lat="49.57881" lon="3.4395">
        <ele>209.8</ele>
        <time>2025-10-05T09:42:27.000Z</time>
      </trkpt>
      <trkpt lat="49.5788" lon="3.43949">
        <ele>209.9</ele>
        <time>2025-10-05T09:42:28.000Z</time>
      </trkpt>
      <trkpt lat="49.57879" lon="3.43947">
        <ele>209.9</ele>
        <time>2025-10-05T09:42:29.000Z</time>
      </trkpt>
      <trkpt lat="49.57878" lon="3.43945">
        <ele>209.9</ele>
        <time>2025-10-05T09:42:30.000Z</time>
      </trkpt>
      <trkpt lat="49.57877" lon="3.43944">
        <ele>210</ele>
        <time>2025-10-05T09:42:31.000Z</time>
      </trkpt>
      <trkpt lat="49.57875" lon="3.43943">
        <ele>210.1</ele>
        <time>2025-10-05T09:42:32.000Z</time>
      </trkpt>
      <trkpt lat="49.57874" lon="3.43941">
        <ele>210.1</ele>
        <time>2025-10-05T09:42:33.000Z</time>
      </trkpt>
      <trkpt lat="49.57873" lon="3.4394">
        <ele>210.2</ele>
        <time>2025-10-05T09:42:34.000Z</time>
      </trkpt>
      <trkpt lat="49.57872" lon="3.43938">
        <ele>210</ele>
        <time>2025-10-05T09:42:35.000Z</time>
      </trkpt>
      <trkpt lat="49.57871" lon="3.43937">
        <ele>209.9</ele>
        <time>2025-10-05T09:42:36.000Z</time>
      </trkpt>
      <trkpt lat="49.5787" lon="3.43935">
        <ele>209.9</ele>
        <time>2025-10-05T09:42:37.000Z</time>
      </trkpt>
      <trkpt lat="49.57869" lon="3.43933">
        <ele>210</ele>
        <time>2025-10-05T09:42:38.000Z</time>
      </trkpt>
      <trkpt lat="49.57869" lon="3.43932">
        <ele>210</ele>
        <time>2025-10-05T09:42:39.000Z</time>
      </trkpt>
      <trkpt lat="49.57868" lon="3.4393">
        <ele>209.8</ele>
        <time>2025-10-05T09:42:40.000Z</time>
      </trkpt>
      <trkpt lat="49.57868" lon="3.4393">
        <ele>209.7</ele>
        <time>2025-10-05T09:42:41.000Z</time>
      </trkpt>
      <trkpt lat="49.57868" lon="3.43929">
        <ele>209.6</ele>
        <time>2025-10-05T09:42:42.000Z</time>
      </trkpt>
      <trkpt lat="49.57868" lon="3.43928">
        <ele>209.5</ele>
        <time>2025-10-05T09:42:43.000Z</time>
      </trkpt>
      <trkpt lat="49.57868" lon="3.43928">
        <ele>209.5</ele>
        <time>2025-10-05T09:42:44.000Z</time>
      </trkpt>
      <trkpt lat="49.57868" lon="3.43928">
        <ele>209.1</ele>
        <time>2025-10-05T09:42:45.000Z</time>
      </trkpt>
      <trkpt lat="49.57868" lon="3.43928">
        <ele>209.2</ele>
        <time>2025-10-05T09:42:46.000Z</time>
      </trkpt>
      <trkpt lat="49.57868" lon="3.43927">
        <ele>209.3</ele>
        <time>2025-10-05T09:42:47.000Z</time>
      </trkpt>
      <trkpt lat="49.57869" lon="3.43927">
        <ele>209.4</ele>
        <time>2025-10-05T09:42:48.000Z</time>
      </trkpt>
      <trkpt lat="49.57869" lon="3.43927">
        <ele>209.5</ele>
        <time>2025-10-05T09:42:49.000Z</time>
      </trkpt>
      <trkpt lat="49.57869" lon="3.43927">
        <ele>209.6</ele>
        <time>2025-10-05T09:42:50.000Z</time>
      </trkpt>
      <trkpt lat="49.5787" lon="3.43926">
        <ele>209.7</ele>
        <time>2025-10-05T09:42:51.000Z</time>
      </trkpt>
      <trkpt lat="49.5787" lon="3.43926">
        <ele>209.7</ele>
        <time>2025-10-05T09:42:52.000Z</time>
      </trkpt>
      <trkpt lat="49.5787" lon="3.43926">
        <ele>209.7</ele>
        <time>2025-10-05T09:42:53.000Z</time>
      </trkpt>
      <trkpt lat="49.5787" lon="3.43926">
        <ele>209.7</ele>
        <time>2025-10-05T09:42:54.000Z</time>
      </trkpt>
      <trkpt lat="49.5787" lon="3.43926">
        <ele>209.7</ele>
        <time>2025-10-05T09:42:55.000Z</time>
      </trkpt>
      <trkpt lat="49.5787" lon="3.43926">
        <ele>209.7</ele>
        <time>2025-10-05T09:42:56.000Z</time>
      </trkpt>
      <trkpt lat="49.5787" lon="3.43926">
        <ele>209.7</ele>
        <time>2025-10-05T09:42:57.000Z</time>
      </trkpt>
      <trkpt lat="49.5787" lon="3.43926">
        <ele>209.7</ele>
        <time>2025-10-05T09:42:58.000Z</time>
      </trkpt>
      <trkpt lat="49.5787" lon="3.43926">
        <ele>209.7</ele>
        <time>2025-10-05T09:42:59.000Z</time>
      </trkpt>
      <trkpt lat="49.5787" lon="3.43926">
        <ele>209.7</ele>
        <time>2025-10-05T09:43:00.000Z</time>
      </trkpt>
      <trkpt lat="49.5787" lon="3.43926">
        <ele>209.7</ele>
        <time>2025-10-05T09:43:01.000Z</time>
      </trkpt>
      <trkpt lat="49.5787" lon="3.43926">
        <ele>209.7</ele>
        <time>2025-10-05T09:43:02.000Z</time>
      </trkpt>
      <trkpt lat="49.5787" lon="3.43926">
        <ele>209.7</ele>
        <time>2025-10-05T09:43:03.000Z</time>
      </trkpt>
      <trkpt lat="49.5787" lon="3.43926">
        <ele>209.7</ele>
        <time>2025-10-05T09:43:04.000Z</time>
      </trkpt>
      <trkpt lat="49.5787" lon="3.43926">
        <ele>209.7</ele>
        <time>2025-10-05T09:43:05.000Z</time>
      </trkpt>
      <trkpt lat="49.5787" lon="3.43926">
        <ele>209.7</ele>
        <time>2025-10-05T09:43:06.000Z</time>
      </trkpt>
      <trkpt lat="49.5787" lon="3.43926">
        <ele>209.7</ele>
        <time>2025-10-05T09:43:07.000Z</time>
      </trkpt>
      <trkpt lat="49.5787" lon="3.43926">
        <ele>209.7</ele>
        <time>2025-10-05T09:43:08.000Z</time>
      </trkpt>
      <trkpt lat="49.5787" lon="3.43926">
        <ele>209.7</ele>
        <time>2025-10-05T09:43:09.000Z</time>
      </trkpt>
      <trkpt lat="49.5787" lon="3.43926">
        <ele>209.7</ele>
        <time>2025-10-05T09:43:10.000Z</time>
      </trkpt>
      <trkpt lat="49.5787" lon="3.43926">
        <ele>209.7</ele>
        <time>2025-10-05T09:43:11.000Z</time>
      </trkpt>
      <trkpt lat="49.5787" lon="3.43926">
        <ele>209.7</ele>
        <time>2025-10-05T09:43:12.000Z</time>
      </trkpt>
      <trkpt lat="49.5787" lon="3.43926">
        <ele>209.7</ele>
        <time>2025-10-05T09:43:13.000Z</time>
      </trkpt>
      <trkpt lat="49.5787" lon="3.43921">
        <ele>214</ele>
        <time>2025-10-05T09:43:14.000Z</time>
      </trkpt>
      <trkpt lat="49.57869" lon="3.43921">
        <ele>214.2</ele>
        <time>2025-10-05T09:43:15.000Z</time>
      </trkpt>
      <trkpt lat="49.57869" lon="3.43921">
        <ele>214.3</ele>
        <time>2025-10-05T09:43:16.000Z</time>
      </trkpt>
      <trkpt lat="49.57869" lon="3.43922">
        <ele>214.4</ele>
        <time>2025-10-05T09:43:17.000Z</time>
      </trkpt>
      <trkpt lat="49.57869" lon="3.43922">
        <ele>214.5</ele>
        <time>2025-10-05T09:43:18.000Z</time>
      </trkpt>
      <trkpt lat="49.57869" lon="3.43922">
        <ele>214.5</ele>
        <time>2025-10-05T09:43:19.000Z</time>
      </trkpt>
      <trkpt lat="49.57869" lon="3.43922">
        <ele>214.5</ele>
        <time>2025-10-05T09:43:20.000Z</time>
      </trkpt>
      <trkpt lat="49.57869" lon="3.43922">
        <ele>214.5</ele>
        <time>2025-10-05T09:43:21.000Z</time>
      </trkpt>
      <trkpt lat="49.57869" lon="3.43922">
        <ele>214.5</ele>
        <time>2025-10-05T09:43:22.000Z</time>
      </trkpt>
      <trkpt lat="49.57869" lon="3.43922">
        <ele>214.5</ele>
        <time>2025-10-05T09:43:23.000Z</time>
      </trkpt>
      <trkpt lat="49.57869" lon="3.43922">
        <ele>214.5</ele>
        <time>2025-10-05T09:43:24.000Z</time>
      </trkpt>
      <trkpt lat="49.57869" lon="3.43922">
        <ele>214.5</ele>
        <time>2025-10-05T09:43:25.000Z</time>
      </trkpt>
      <trkpt lat="49.57869" lon="3.43922">
        <ele>214.5</ele>
        <time>2025-10-05T09:43:26.000Z</time>
      </trkpt>
      <trkpt lat="49.57869" lon="3.43922">
        <ele>214.5</ele>
        <time>2025-10-05T09:43:27.000Z</time>
      </trkpt>
      <trkpt lat="49.57869" lon="3.43922">
        <ele>214.5</ele>
        <time>2025-10-05T09:43:28.000Z</time>
      </trkpt>
      <trkpt lat="49.57869" lon="3.43922">
        <ele>214.5</ele>
        <time>2025-10-05T09:43:29.000Z</time>
      </trkpt>
      <trkpt lat="49.57869" lon="3.43922">
        <ele>214.5</ele>
        <time>2025-10-05T09:43:30.000Z</time>
      </trkpt>
      <trkpt lat="49.57869" lon="3.43922">
        <ele>214.5</ele>
        <time>2025-10-05T09:43:31.000Z</time>
      </trkpt>
      <trkpt lat="49.57869" lon="3.43922">
        <ele>214.5</ele>
        <time>2025-10-05T09:43:32.000Z</time>
      </trkpt>
      <trkpt lat="49.57869" lon="3.43922">
        <ele>214.5</ele>
        <time>2025-10-05T09:43:33.000Z</time>
      </trkpt>
      <trkpt lat="49.57869" lon="3.43922">
        <ele>214.5</ele>
        <time>2025-10-05T09:43:34.000Z</time>
      </trkpt>
      <trkpt lat="49.57869" lon="3.43922">
        <ele>214.5</ele>
        <time>2025-10-05T09:43:35.000Z</time>
      </trkpt>
      <trkpt lat="49.57869" lon="3.43922">
        <ele>214.5</ele>
        <time>2025-10-05T09:43:36.000Z</time>
      </trkpt>
      <trkpt lat="49.57869" lon="3.43922">
        <ele>214.5</ele>
        <time>2025-10-05T09:43:37.000Z</time>
      </trkpt>
      <trkpt lat="49.57869" lon="3.43922">
        <ele>214.5</ele>
        <time>2025-10-05T09:43:38.000Z</time>
      </trkpt>
      <trkpt lat="49.57869" lon="3.43922">
        <ele>214.5</ele>
        <time>2025-10-05T09:43:39.000Z</time>
      </trkpt>
      <trkpt lat="49.57869" lon="3.43922">
        <ele>214.5</ele>
        <time>2025-10-05T09:43:40.000Z</time>
      </trkpt>
      <trkpt lat="49.57869" lon="3.43922">
        <ele>214.5</ele>
        <time>2025-10-05T09:43:41.000Z</time>
      </trkpt>
      <trkpt lat="49.57869" lon="3.43922">
        <ele>214.5</ele>
        <time>2025-10-05T09:43:42.000Z</time>
      </trkpt>
      <trkpt lat="49.57869" lon="3.43922">
        <ele>214.5</ele>
        <time>2025-10-05T09:43:43.000Z</time>
      </trkpt>
      <trkpt lat="49.57869" lon="3.43922">
        <ele>214.5</ele>
        <time>2025-10-05T09:43:44.000Z</time>
      </trkpt>
      <trkpt lat="49.57869" lon="3.43922">
        <ele>214.5</ele>
        <time>2025-10-05T09:43:45.000Z</time>
      </trkpt>
      <trkpt lat="49.57869" lon="3.43922">
        <ele>214.5</ele>
        <time>2025-10-05T09:43:46.000Z</time>
      </trkpt>
      <trkpt lat="49.57869" lon="3.43922">
        <ele>214.5</ele>
        <time>2025-10-05T09:43:47.000Z</time>
      </trkpt>
      <trkpt lat="49.57869" lon="3.43922">
        <ele>214.5</ele>
        <time>2025-10-05T09:43:48.000Z</time>
      </trkpt>
      <trkpt lat="49.57869" lon="3.43922">
        <ele>214.5</ele>
        <time>2025-10-05T09:43:49.000Z</time>
      </trkpt>
      <trkpt lat="49.57869" lon="3.43922">
        <ele>214.5</ele>
        <time>2025-10-05T09:43:50.000Z</time>
      </trkpt>
      <trkpt lat="49.57869" lon="3.43922">
        <ele>214.5</ele>
        <time>2025-10-05T09:43:51.000Z</time>
      </trkpt>
      <trkpt lat="49.57869" lon="3.43922">
        <ele>214.5</ele>
        <time>2025-10-05T09:43:52.000Z</time>
      </trkpt>
      <trkpt lat="49.57869" lon="3.43922">
        <ele>214.5</ele>
        <time>2025-10-05T09:43:53.000Z</time>
      </trkpt>
      <trkpt lat="49.57869" lon="3.43922">
        <ele>214.5</ele>
        <time>2025-10-05T09:43:54.000Z</time>
      </trkpt>
      <trkpt lat="49.57869" lon="3.43922">
        <ele>214.5</ele>
        <time>2025-10-05T09:43:55.000Z</time>
      </trkpt>
      <trkpt lat="49.57869" lon="3.43922">
        <ele>214.5</ele>
        <time>2025-10-05T09:43:56.000Z</time>
      </trkpt>
      <trkpt lat="49.57869" lon="3.43922">
        <ele>214.5</ele>
        <time>2025-10-05T09:43:57.000Z</time>
      </trkpt>
      <trkpt lat="49.57869" lon="3.43922">
        <ele>214.5</ele>
        <time>2025-10-05T09:43:58.000Z</time>
      </trkpt>
      <trkpt lat="49.57869" lon="3.43922">
        <ele>214.5</ele>
        <time>2025-10-05T09:43:59.000Z</time>
      </trkpt>
      <trkpt lat="49.57869" lon="3.43922">
        <ele>214.5</ele>
        <time>2025-10-05T09:44:00.000Z</time>
      </trkpt>
      <trkpt lat="49.57869" lon="3.43922">
        <ele>214.5</ele>
        <time>2025-10-05T09:44:01.000Z</time>
      </trkpt>
      <trkpt lat="49.57869" lon="3.43922">
        <ele>214.5</ele>
        <time>2025-10-05T09:44:02.000Z</time>
      </trkpt>
      <trkpt lat="49.57869" lon="3.43922">
        <ele>214.5</ele>
        <time>2025-10-05T09:44:03.000Z</time>
      </trkpt>
      <trkpt lat="49.57869" lon="3.43922">
        <ele>214.5</ele>
        <time>2025-10-05T09:44:04.000Z</time>
      </trkpt>
      <trkpt lat="49.57869" lon="3.43922">
        <ele>214.5</ele>
        <time>2025-10-05T09:44:05.000Z</time>
      </trkpt>
      <trkpt lat="49.57869" lon="3.43922">
        <ele>214.5</ele>
        <time>2025-10-05T09:44:06.000Z</time>
      </trkpt>
      <trkpt lat="49.57869" lon="3.43922">
        <ele>214.5</ele>
        <time>2025-10-05T09:44:07.000Z</time>
      </trkpt>
      <trkpt lat="49.57869" lon="3.43922">
        <ele>214.5</ele>
        <time>2025-10-05T09:44:08.000Z</time>
      </trkpt>
      <trkpt lat="49.57869" lon="3.43922">
        <ele>214.5</ele>
        <time>2025-10-05T09:44:09.000Z</time>
      </trkpt>
      <trkpt lat="49.57869" lon="3.43922">
        <ele>214.5</ele>
        <time>2025-10-05T09:44:10.000Z</time>
      </trkpt>
      <trkpt lat="49.57869" lon="3.43922">
        <ele>214.5</ele>
        <time>2025-10-05T09:44:11.000Z</time>
      </trkpt>
      <trkpt lat="49.57865" lon="3.43923">
        <ele>214.6</ele>
        <time>2025-10-05T09:44:12.000Z</time>
      </trkpt>
      <trkpt lat="49.57864" lon="3.43922">
        <ele>214.6</ele>
        <time>2025-10-05T09:44:13.000Z</time>
      </trkpt>
      <trkpt lat="49.57863" lon="3.43921">
        <ele>214.6</ele>
        <time>2025-10-05T09:44:14.000Z</time>
      </trkpt>
      <trkpt lat="49.57863" lon="3.4392">
        <ele>214.7</ele>
        <time>2025-10-05T09:44:15.000Z</time>
      </trkpt>
      <trkpt lat="49.57862" lon="3.43919">
        <ele>214.8</ele>
        <time>2025-10-05T09:44:16.000Z</time>
      </trkpt>
      <trkpt lat="49.57862" lon="3.43918">
        <ele>214.8</ele>
        <time>2025-10-05T09:44:17.000Z</time>
      </trkpt>
      <trkpt lat="49.57861" lon="3.43917">
        <ele>214.9</ele>
        <time>2025-10-05T09:44:18.000Z</time>
      </trkpt>
      <trkpt lat="49.5786" lon="3.43916">
        <ele>214.9</ele>
        <time>2025-10-05T09:44:19.000Z</time>
      </trkpt>
      <trkpt lat="49.57859" lon="3.43915">
        <ele>214.8</ele>
        <time>2025-10-05T09:44:20.000Z</time>
      </trkpt>
      <trkpt lat="49.57859" lon="3.43913">
        <ele>214.7</ele>
        <time>2025-10-05T09:44:21.000Z</time>
      </trkpt>
      <trkpt lat="49.57858" lon="3.43912">
        <ele>214.7</ele>
        <time>2025-10-05T09:44:22.000Z</time>
      </trkpt>
      <trkpt lat="49.57857" lon="3.43911">
        <ele>214.6</ele>
        <time>2025-10-05T09:44:23.000Z</time>
      </trkpt>
      <trkpt lat="49.57856" lon="3.4391">
        <ele>214.6</ele>
        <time>2025-10-05T09:44:24.000Z</time>
      </trkpt>
      <trkpt lat="49.57855" lon="3.43908">
        <ele>214.6</ele>
        <time>2025-10-05T09:44:25.000Z</time>
      </trkpt>
      <trkpt lat="49.57854" lon="3.43906">
        <ele>214.5</ele>
        <time>2025-10-05T09:44:26.000Z</time>
      </trkpt>
      <trkpt lat="49.57854" lon="3.43904">
        <ele>214.4</ele>
        <time>2025-10-05T09:44:27.000Z</time>
      </trkpt>
      <trkpt lat="49.57853" lon="3.43903">
        <ele>214.3</ele>
        <time>2025-10-05T09:44:28.000Z</time>
      </trkpt>
      <trkpt lat="49.57852" lon="3.43902">
        <ele>214.1</ele>
        <time>2025-10-05T09:44:29.000Z</time>
      </trkpt>
      <trkpt lat="49.57852" lon="3.43902">
        <ele>214</ele>
        <time>2025-10-05T09:44:30.000Z</time>
      </trkpt>
      <trkpt lat="49.57851" lon="3.43901">
        <ele>213.9</ele>
        <time>2025-10-05T09:44:31.000Z</time>
      </trkpt>
      <trkpt lat="49.57851" lon="3.439">
        <ele>213.8</ele>
        <time>2025-10-05T09:44:32.000Z</time>
      </trkpt>
      <trkpt lat="49.5785" lon="3.43898">
        <ele>213.6</ele>
        <time>2025-10-05T09:44:33.000Z</time>
      </trkpt>
      <trkpt lat="49.5785" lon="3.43897">
        <ele>213.5</ele>
        <time>2025-10-05T09:44:34.000Z</time>
      </trkpt>
      <trkpt lat="49.57849" lon="3.43895">
        <ele>213.5</ele>
        <time>2025-10-05T09:44:35.000Z</time>
      </trkpt>
      <trkpt lat="49.57848" lon="3.43894">
        <ele>213.4</ele>
        <time>2025-10-05T09:44:36.000Z</time>
      </trkpt>
      <trkpt lat="49.57847" lon="3.43892">
        <ele>213.2</ele>
        <time>2025-10-05T09:44:37.000Z</time>
      </trkpt>
      <trkpt lat="49.57847" lon="3.4389">
        <ele>213</ele>
        <time>2025-10-05T09:44:38.000Z</time>
      </trkpt>
      <trkpt lat="49.57847" lon="3.43888">
        <ele>212.8</ele>
        <time>2025-10-05T09:44:39.000Z</time>
      </trkpt>
      <trkpt lat="49.57847" lon="3.43886">
        <ele>212.5</ele>
        <time>2025-10-05T09:44:40.000Z</time>
      </trkpt>
      <trkpt lat="49.57846" lon="3.43885">
        <ele>212.1</ele>
        <time>2025-10-05T09:44:41.000Z</time>
      </trkpt>
      <trkpt lat="49.57846" lon="3.43882">
        <ele>212</ele>
        <time>2025-10-05T09:44:42.000Z</time>
      </trkpt>
      <trkpt lat="49.57845" lon="3.4388">
        <ele>211.9</ele>
        <time>2025-10-05T09:44:43.000Z</time>
      </trkpt>
      <trkpt lat="49.57844" lon="3.43878">
        <ele>211.9</ele>
        <time>2025-10-05T09:44:44.000Z</time>
      </trkpt>
      <trkpt lat="49.57844" lon="3.43876">
        <ele>212.1</ele>
        <time>2025-10-05T09:44:45.000Z</time>
      </trkpt>
      <trkpt lat="49.57843" lon="3.43875">
        <ele>212</ele>
        <time>2025-10-05T09:44:46.000Z</time>
      </trkpt>
      <trkpt lat="49.57843" lon="3.43875">
        <ele>212</ele>
        <time>2025-10-05T09:44:47.000Z</time>
      </trkpt>
      <trkpt lat="49.57842" lon="3.43874">
        <ele>212</ele>
        <time>2025-10-05T09:44:48.000Z</time>
      </trkpt>
      <trkpt lat="49.57842" lon="3.43873">
        <ele>211.7</ele>
        <time>2025-10-05T09:44:49.000Z</time>
      </trkpt>
      <trkpt lat="49.57842" lon="3.43872">
        <ele>211.3</ele>
        <time>2025-10-05T09:44:50.000Z</time>
      </trkpt>
      <trkpt lat="49.57841" lon="3.43872">
        <ele>211</ele>
        <time>2025-10-05T09:44:51.000Z</time>
      </trkpt>
      <trkpt lat="49.57841" lon="3.4387">
        <ele>210.6</ele>
        <time>2025-10-05T09:44:52.000Z</time>
      </trkpt>
      <trkpt lat="49.5784" lon="3.4387">
        <ele>210.3</ele>
        <time>2025-10-05T09:44:53.000Z</time>
      </trkpt>
      <trkpt lat="49.5784" lon="3.43868">
        <ele>210</ele>
        <time>2025-10-05T09:44:54.000Z</time>
      </trkpt>
      <trkpt lat="49.57839" lon="3.43867">
        <ele>209.9</ele>
        <time>2025-10-05T09:44:55.000Z</time>
      </trkpt>
      <trkpt lat="49.57839" lon="3.43866">
        <ele>209.6</ele>
        <time>2025-10-05T09:44:56.000Z</time>
      </trkpt>
      <trkpt lat="49.57838" lon="3.43866">
        <ele>209.4</ele>
        <time>2025-10-05T09:44:57.000Z</time>
      </trkpt>
      <trkpt lat="49.57837" lon="3.43864">
        <ele>209.1</ele>
        <time>2025-10-05T09:44:58.000Z</time>
      </trkpt>
      <trkpt lat="49.57836" lon="3.43863">
        <ele>208.9</ele>
        <time>2025-10-05T09:44:59.000Z</time>
      </trkpt>
      <trkpt lat="49.57835" lon="3.43861">
        <ele>208.7</ele>
        <time>2025-10-05T09:45:00.000Z</time>
      </trkpt>
      <trkpt lat="49.57834" lon="3.4386">
        <ele>208.3</ele>
        <time>2025-10-05T09:45:01.000Z</time>
      </trkpt>
      <trkpt lat="49.57834" lon="3.43859">
        <ele>208</ele>
        <time>2025-10-05T09:45:02.000Z</time>
      </trkpt>
      <trkpt lat="49.57833" lon="3.43859">
        <ele>207.7</ele>
        <time>2025-10-05T09:45:03.000Z</time>
      </trkpt>
      <trkpt lat="49.57832" lon="3.43858">
        <ele>207.4</ele>
        <time>2025-10-05T09:45:04.000Z</time>
      </trkpt>
      <trkpt lat="49.57831" lon="3.43857">
        <ele>207.1</ele>
        <time>2025-10-05T09:45:05.000Z</time>
      </trkpt>
      <trkpt lat="49.57829" lon="3.43857">
        <ele>206.8</ele>
        <time>2025-10-05T09:45:06.000Z</time>
      </trkpt>
      <trkpt lat="49.57828" lon="3.43856">
        <ele>206.6</ele>
        <time>2025-10-05T09:45:07.000Z</time>
      </trkpt>
      <trkpt lat="49.57827" lon="3.43855">
        <ele>206.3</ele>
        <time>2025-10-05T09:45:08.000Z</time>
      </trkpt>
      <trkpt lat="49.57827" lon="3.43854">
        <ele>206.1</ele>
        <time>2025-10-05T09:45:09.000Z</time>
      </trkpt>
      <trkpt lat="49.57826" lon="3.43853">
        <ele>205.9</ele>
        <time>2025-10-05T09:45:10.000Z</time>
      </trkpt>
      <trkpt lat="49.57825" lon="3.43852">
        <ele>205.6</ele>
        <time>2025-10-05T09:45:11.000Z</time>
      </trkpt>
      <trkpt lat="49.57825" lon="3.43851">
        <ele>205.5</ele>
        <time>2025-10-05T09:45:12.000Z</time>
      </trkpt>
      <trkpt lat="49.57824" lon="3.43849">
        <ele>205.2</ele>
        <time>2025-10-05T09:45:13.000Z</time>
      </trkpt>
      <trkpt lat="49.57824" lon="3.43848">
        <ele>205.1</ele>
        <time>2025-10-05T09:45:14.000Z</time>
      </trkpt>
      <trkpt lat="49.57823" lon="3.43846">
        <ele>205.1</ele>
        <time>2025-10-05T09:45:15.000Z</time>
      </trkpt>
      <trkpt lat="49.57822" lon="3.43845">
        <ele>205.1</ele>
        <time>2025-10-05T09:45:16.000Z</time>
      </trkpt>
      <trkpt lat="49.57822" lon="3.43844">
        <ele>204.9</ele>
        <time>2025-10-05T09:45:17.000Z</time>
      </trkpt>
      <trkpt lat="49.57821" lon="3.43843">
        <ele>205</ele>
        <time>2025-10-05T09:45:18.000Z</time>
      </trkpt>
      <trkpt lat="49.57821" lon="3.43843">
        <ele>204.9</ele>
        <time>2025-10-05T09:45:19.000Z</time>
      </trkpt>
      <trkpt lat="49.5782" lon="3.43842">
        <ele>205</ele>
        <time>2025-10-05T09:45:20.000Z</time>
      </trkpt>
      <trkpt lat="49.57819" lon="3.43841">
        <ele>205</ele>
        <time>2025-10-05T09:45:21.000Z</time>
      </trkpt>
      <trkpt lat="49.57818" lon="3.4384">
        <ele>205</ele>
        <time>2025-10-05T09:45:22.000Z</time>
      </trkpt>
      <trkpt lat="49.57817" lon="3.43839">
        <ele>205.1</ele>
        <time>2025-10-05T09:45:23.000Z</time>
      </trkpt>
      <trkpt lat="49.57815" lon="3.43838">
        <ele>205.2</ele>
        <time>2025-10-05T09:45:24.000Z</time>
      </trkpt>
      <trkpt lat="49.57814" lon="3.43838">
        <ele>205.2</ele>
        <time>2025-10-05T09:45:25.000Z</time>
      </trkpt>
      <trkpt lat="49.57814" lon="3.43839">
        <ele>205.2</ele>
        <time>2025-10-05T09:45:26.000Z</time>
      </trkpt>
      <trkpt lat="49.57813" lon="3.43839">
        <ele>205.2</ele>
        <time>2025-10-05T09:45:27.000Z</time>
      </trkpt>
      <trkpt lat="49.57812" lon="3.43839">
        <ele>205.2</ele>
        <time>2025-10-05T09:45:28.000Z</time>
      </trkpt>
      <trkpt lat="49.57811" lon="3.4384">
        <ele>205.4</ele>
        <time>2025-10-05T09:45:29.000Z</time>
      </trkpt>
      <trkpt lat="49.57809" lon="3.4384">
        <ele>205.7</ele>
        <time>2025-10-05T09:45:30.000Z</time>
      </trkpt>
      <trkpt lat="49.57808" lon="3.4384">
        <ele>205.8</ele>
        <time>2025-10-05T09:45:31.000Z</time>
      </trkpt>
      <trkpt lat="49.57807" lon="3.4384">
        <ele>205.8</ele>
        <time>2025-10-05T09:45:32.000Z</time>
      </trkpt>
      <trkpt lat="49.57807" lon="3.4384">
        <ele>206</ele>
        <time>2025-10-05T09:45:33.000Z</time>
      </trkpt>
      <trkpt lat="49.57806" lon="3.4384">
        <ele>206.2</ele>
        <time>2025-10-05T09:45:34.000Z</time>
      </trkpt>
      <trkpt lat="49.57805" lon="3.4384">
        <ele>206.4</ele>
        <time>2025-10-05T09:45:35.000Z</time>
      </trkpt>
      <trkpt lat="49.57804" lon="3.43839">
        <ele>206.6</ele>
        <time>2025-10-05T09:45:36.000Z</time>
      </trkpt>
      <trkpt lat="49.57803" lon="3.43838">
        <ele>207.1</ele>
        <time>2025-10-05T09:45:37.000Z</time>
      </trkpt>
      <trkpt lat="49.57802" lon="3.43838">
        <ele>208</ele>
        <time>2025-10-05T09:45:38.000Z</time>
      </trkpt>
      <trkpt lat="49.57801" lon="3.43838">
        <ele>209</ele>
        <time>2025-10-05T09:45:39.000Z</time>
      </trkpt>
      <trkpt lat="49.578" lon="3.43838">
        <ele>209.6</ele>
        <time>2025-10-05T09:45:40.000Z</time>
      </trkpt>
      <trkpt lat="49.578" lon="3.43838">
        <ele>210.1</ele>
        <time>2025-10-05T09:45:41.000Z</time>
      </trkpt>
      <trkpt lat="49.578" lon="3.43837">
        <ele>210.5</ele>
        <time>2025-10-05T09:45:42.000Z</time>
      </trkpt>
      <trkpt lat="49.578" lon="3.43837">
        <ele>210.8</ele>
        <time>2025-10-05T09:45:43.000Z</time>
      </trkpt>
      <trkpt lat="49.578" lon="3.43836">
        <ele>210.7</ele>
        <time>2025-10-05T09:45:44.000Z</time>
      </trkpt>
      <trkpt lat="49.578" lon="3.43835">
        <ele>210.6</ele>
        <time>2025-10-05T09:45:45.000Z</time>
      </trkpt>
      <trkpt lat="49.578" lon="3.43834">
        <ele>210.5</ele>
        <time>2025-10-05T09:45:46.000Z</time>
      </trkpt>
      <trkpt lat="49.578" lon="3.43832">
        <ele>210.1</ele>
        <time>2025-10-05T09:45:47.000Z</time>
      </trkpt>
      <trkpt lat="49.57801" lon="3.43831">
        <ele>209.8</ele>
        <time>2025-10-05T09:45:48.000Z</time>
      </trkpt>
      <trkpt lat="49.578" lon="3.4383">
        <ele>209.8</ele>
        <time>2025-10-05T09:45:49.000Z</time>
      </trkpt>
      <trkpt lat="49.578" lon="3.43829">
        <ele>209.9</ele>
        <time>2025-10-05T09:45:50.000Z</time>
      </trkpt>
      <trkpt lat="49.578" lon="3.43829">
        <ele>210</ele>
        <time>2025-10-05T09:45:51.000Z</time>
      </trkpt>
      <trkpt lat="49.578" lon="3.43829">
        <ele>210.4</ele>
        <time>2025-10-05T09:45:52.000Z</time>
      </trkpt>
      <trkpt lat="49.57801" lon="3.43829">
        <ele>210.8</ele>
        <time>2025-10-05T09:45:53.000Z</time>
      </trkpt>
      <trkpt lat="49.57801" lon="3.43829">
        <ele>211.2</ele>
        <time>2025-10-05T09:45:54.000Z</time>
      </trkpt>
      <trkpt lat="49.57801" lon="3.43829">
        <ele>211.6</ele>
        <time>2025-10-05T09:45:55.000Z</time>
      </trkpt>
      <trkpt lat="49.57801" lon="3.43829">
        <ele>211.6</ele>
        <time>2025-10-05T09:45:56.000Z</time>
      </trkpt>
      <trkpt lat="49.57801" lon="3.43829">
        <ele>211.6</ele>
        <time>2025-10-05T09:45:57.000Z</time>
      </trkpt>
      <trkpt lat="49.57801" lon="3.43829">
        <ele>211.6</ele>
        <time>2025-10-05T09:45:58.000Z</time>
      </trkpt>
      <trkpt lat="49.57801" lon="3.43829">
        <ele>211.6</ele>
        <time>2025-10-05T09:45:59.000Z</time>
      </trkpt>
      <trkpt lat="49.57801" lon="3.43829">
        <ele>211.6</ele>
        <time>2025-10-05T09:46:00.000Z</time>
      </trkpt>
      <trkpt lat="49.57801" lon="3.43829">
        <ele>211.6</ele>
        <time>2025-10-05T09:46:01.000Z</time>
      </trkpt>
      <trkpt lat="49.57801" lon="3.43829">
        <ele>211.6</ele>
        <time>2025-10-05T09:46:02.000Z</time>
      </trkpt>
      <trkpt lat="49.57801" lon="3.43829">
        <ele>211.6</ele>
        <time>2025-10-05T09:46:03.000Z</time>
      </trkpt>
      <trkpt lat="49.57801" lon="3.43829">
        <ele>211.6</ele>
        <time>2025-10-05T09:46:04.000Z</time>
      </trkpt>
      <trkpt lat="49.57801" lon="3.43829">
        <ele>211.6</ele>
        <time>2025-10-05T09:46:05.000Z</time>
      </trkpt>
      <trkpt lat="49.57801" lon="3.43829">
        <ele>211.6</ele>
        <time>2025-10-05T09:46:06.000Z</time>
      </trkpt>
      <trkpt lat="49.57801" lon="3.43829">
        <ele>211.6</ele>
        <time>2025-10-05T09:46:07.000Z</time>
      </trkpt>
      <trkpt lat="49.57801" lon="3.43829">
        <ele>211.6</ele>
        <time>2025-10-05T09:46:08.000Z</time>
      </trkpt>
      <trkpt lat="49.57801" lon="3.43829">
        <ele>211.6</ele>
        <time>2025-10-05T09:46:09.000Z</time>
      </trkpt>
      <trkpt lat="49.57801" lon="3.43829">
        <ele>211.6</ele>
        <time>2025-10-05T09:46:10.000Z</time>
      </trkpt>
      <trkpt lat="49.57801" lon="3.43829">
        <ele>211.6</ele>
        <time>2025-10-05T09:46:11.000Z</time>
      </trkpt>
      <trkpt lat="49.57801" lon="3.43829">
        <ele>211.6</ele>
        <time>2025-10-05T09:46:12.000Z</time>
      </trkpt>
      <trkpt lat="49.57801" lon="3.43829">
        <ele>211.6</ele>
        <time>2025-10-05T09:46:13.000Z</time>
      </trkpt>
      <trkpt lat="49.57801" lon="3.43829">
        <ele>211.6</ele>
        <time>2025-10-05T09:46:14.000Z</time>
      </trkpt>
      <trkpt lat="49.57801" lon="3.43829">
        <ele>211.6</ele>
        <time>2025-10-05T09:46:15.000Z</time>
      </trkpt>
      <trkpt lat="49.57801" lon="3.43829">
        <ele>211.6</ele>
        <time>2025-10-05T09:46:16.000Z</time>
      </trkpt>
      <trkpt lat="49.57801" lon="3.43829">
        <ele>211.6</ele>
        <time>2025-10-05T09:46:17.000Z</time>
      </trkpt>
      <trkpt lat="49.57801" lon="3.43829">
        <ele>211.6</ele>
        <time>2025-10-05T09:46:18.000Z</time>
      </trkpt>
      <trkpt lat="49.57801" lon="3.43829">
        <ele>211.6</ele>
        <time>2025-10-05T09:46:19.000Z</time>
      </trkpt>
      <trkpt lat="49.57801" lon="3.43829">
        <ele>211.6</ele>
        <time>2025-10-05T09:46:20.000Z</time>
      </trkpt>
      <trkpt lat="49.57801" lon="3.43829">
        <ele>211.6</ele>
        <time>2025-10-05T09:46:21.000Z</time>
      </trkpt>
      <trkpt lat="49.57801" lon="3.43829">
        <ele>211.6</ele>
        <time>2025-10-05T09:46:22.000Z</time>
      </trkpt>
      <trkpt lat="49.57801" lon="3.43829">
        <ele>211.6</ele>
        <time>2025-10-05T09:46:23.000Z</time>
      </trkpt>
      <trkpt lat="49.57801" lon="3.43829">
        <ele>211.6</ele>
        <time>2025-10-05T09:46:24.000Z</time>
      </trkpt>
      <trkpt lat="49.57801" lon="3.43829">
        <ele>211.6</ele>
        <time>2025-10-05T09:46:25.000Z</time>
      </trkpt>
      <trkpt lat="49.57801" lon="3.43829">
        <ele>211.6</ele>
        <time>2025-10-05T09:46:26.000Z</time>
      </trkpt>
      <trkpt lat="49.57801" lon="3.43829">
        <ele>211.6</ele>
        <time>2025-10-05T09:46:27.000Z</time>
      </trkpt>
      <trkpt lat="49.57801" lon="3.43829">
        <ele>211.6</ele>
        <time>2025-10-05T09:46:28.000Z</time>
      </trkpt>
      <trkpt lat="49.57801" lon="3.43829">
        <ele>211.6</ele>
        <time>2025-10-05T09:46:29.000Z</time>
      </trkpt>
      <trkpt lat="49.57801" lon="3.43829">
        <ele>211.6</ele>
        <time>2025-10-05T09:46:30.000Z</time>
      </trkpt>
      <trkpt lat="49.57801" lon="3.43829">
        <ele>211.6</ele>
        <time>2025-10-05T09:46:31.000Z</time>
      </trkpt>
      <trkpt lat="49.57801" lon="3.43829">
        <ele>211.6</ele>
        <time>2025-10-05T09:46:32.000Z</time>
      </trkpt>
      <trkpt lat="49.57801" lon="3.43829">
        <ele>211.6</ele>
        <time>2025-10-05T09:46:33.000Z</time>
      </trkpt>
      <trkpt lat="49.57801" lon="3.43829">
        <ele>211.6</ele>
        <time>2025-10-05T09:46:34.000Z</time>
      </trkpt>
      <trkpt lat="49.57801" lon="3.43829">
        <ele>211.6</ele>
        <time>2025-10-05T09:46:35.000Z</time>
      </trkpt>
      <trkpt lat="49.57801" lon="3.43829">
        <ele>211.6</ele>
        <time>2025-10-05T09:46:36.000Z</time>
      </trkpt>
      <trkpt lat="49.57801" lon="3.43829">
        <ele>211.6</ele>
        <time>2025-10-05T09:46:37.000Z</time>
      </trkpt>
      <trkpt lat="49.57801" lon="3.43829">
        <ele>211.6</ele>
        <time>2025-10-05T09:46:38.000Z</time>
      </trkpt>
      <trkpt lat="49.57801" lon="3.43829">
        <ele>211.6</ele>
        <time>2025-10-05T09:46:39.000Z</time>
      </trkpt>
      <trkpt lat="49.57801" lon="3.43829">
        <ele>211.6</ele>
        <time>2025-10-05T09:46:40.000Z</time>
      </trkpt>
      <trkpt lat="49.57801" lon="3.43829">
        <ele>211.6</ele>
        <time>2025-10-05T09:46:41.000Z</time>
      </trkpt>
      <trkpt lat="49.57801" lon="3.43829">
        <ele>211.6</ele>
        <time>2025-10-05T09:46:42.000Z</time>
      </trkpt>
      <trkpt lat="49.57801" lon="3.43829">
        <ele>211.6</ele>
        <time>2025-10-05T09:46:43.000Z</time>
      </trkpt>
      <trkpt lat="49.57801" lon="3.43829">
        <ele>211.6</ele>
        <time>2025-10-05T09:46:44.000Z</time>
      </trkpt>
      <trkpt lat="49.57801" lon="3.43829">
        <ele>211.6</ele>
        <time>2025-10-05T09:46:45.000Z</time>
      </trkpt>
      <trkpt lat="49.57801" lon="3.43829">
        <ele>211.6</ele>
        <time>2025-10-05T09:46:46.000Z</time>
      </trkpt>
      <trkpt lat="49.57801" lon="3.43829">
        <ele>211.6</ele>
        <time>2025-10-05T09:46:47.000Z</time>
      </trkpt>
      <trkpt lat="49.57801" lon="3.43829">
        <ele>211.6</ele>
        <time>2025-10-05T09:46:48.000Z</time>
      </trkpt>
      <trkpt lat="49.57801" lon="3.43829">
        <ele>211.6</ele>
        <time>2025-10-05T09:46:49.000Z</time>
      </trkpt>
      <trkpt lat="49.57801" lon="3.43829">
        <ele>211.6</ele>
        <time>2025-10-05T09:46:50.000Z</time>
      </trkpt>
      <trkpt lat="49.57801" lon="3.43829">
        <ele>211.6</ele>
        <time>2025-10-05T09:46:51.000Z</time>
      </trkpt>
      <trkpt lat="49.57801" lon="3.43829">
        <ele>211.6</ele>
        <time>2025-10-05T09:46:52.000Z</time>
      </trkpt>
      <trkpt lat="49.57801" lon="3.43829">
        <ele>211.6</ele>
        <time>2025-10-05T09:46:53.000Z</time>
      </trkpt>
      <trkpt lat="49.57801" lon="3.43829">
        <ele>211.6</ele>
        <time>2025-10-05T09:46:54.000Z</time>
      </trkpt>
      <trkpt lat="49.57801" lon="3.43829">
        <ele>211.6</ele>
        <time>2025-10-05T09:46:55.000Z</time>
      </trkpt>
      <trkpt lat="49.57801" lon="3.43829">
        <ele>211.6</ele>
        <time>2025-10-05T09:46:56.000Z</time>
      </trkpt>
      <trkpt lat="49.57801" lon="3.43829">
        <ele>211.6</ele>
        <time>2025-10-05T09:46:57.000Z</time>
      </trkpt>
      <trkpt lat="49.57801" lon="3.43829">
        <ele>211.6</ele>
        <time>2025-10-05T09:46:58.000Z</time>
      </trkpt>
      <trkpt lat="49.57801" lon="3.43829">
        <ele>211.6</ele>
        <time>2025-10-05T09:46:59.000Z</time>
      </trkpt>
      <trkpt lat="49.57801" lon="3.43829">
        <ele>211.6</ele>
        <time>2025-10-05T09:47:00.000Z</time>
      </trkpt>
      <trkpt lat="49.57801" lon="3.43829">
        <ele>211.6</ele>
        <time>2025-10-05T09:47:01.000Z</time>
      </trkpt>
      <trkpt lat="49.57801" lon="3.43829">
        <ele>211.6</ele>
        <time>2025-10-05T09:47:02.000Z</time>
      </trkpt>
      <trkpt lat="49.57801" lon="3.43829">
        <ele>211.6</ele>
        <time>2025-10-05T09:47:03.000Z</time>
      </trkpt>
      <trkpt lat="49.57801" lon="3.43829">
        <ele>211.6</ele>
        <time>2025-10-05T09:47:04.000Z</time>
      </trkpt>
      <trkpt lat="49.57801" lon="3.43829">
        <ele>211.6</ele>
        <time>2025-10-05T09:47:05.000Z</time>
      </trkpt>
      <trkpt lat="49.57801" lon="3.43829">
        <ele>211.6</ele>
        <time>2025-10-05T09:47:06.000Z</time>
      </trkpt>
      <trkpt lat="49.57801" lon="3.43829">
        <ele>211.6</ele>
        <time>2025-10-05T09:47:07.000Z</time>
      </trkpt>
      <trkpt lat="49.57801" lon="3.43829">
        <ele>211.6</ele>
        <time>2025-10-05T09:47:08.000Z</time>
      </trkpt>
      <trkpt lat="49.57801" lon="3.43829">
        <ele>211.6</ele>
        <time>2025-10-05T09:47:09.000Z</time>
      </trkpt>
      <trkpt lat="49.57801" lon="3.43829">
        <ele>211.6</ele>
        <time>2025-10-05T09:47:10.000Z</time>
      </trkpt>
      <trkpt lat="49.57801" lon="3.43829">
        <ele>211.6</ele>
        <time>2025-10-05T09:47:11.000Z</time>
      </trkpt>
      <trkpt lat="49.57801" lon="3.43829">
        <ele>211.6</ele>
        <time>2025-10-05T09:47:12.000Z</time>
      </trkpt>
      <trkpt lat="49.57801" lon="3.43829">
        <ele>211.6</ele>
        <time>2025-10-05T09:47:13.000Z</time>
      </trkpt>
      <trkpt lat="49.57801" lon="3.43829">
        <ele>211.6</ele>
        <time>2025-10-05T09:47:14.000Z</time>
      </trkpt>
      <trkpt lat="49.57801" lon="3.43829">
        <ele>211.6</ele>
        <time>2025-10-05T09:47:15.000Z</time>
      </trkpt>
      <trkpt lat="49.57804" lon="3.43823">
        <ele>215.2</ele>
        <time>2025-10-05T09:47:16.000Z</time>
      </trkpt>
      <trkpt lat="49.57804" lon="3.43821">
        <ele>215.2</ele>
        <time>2025-10-05T09:47:17.000Z</time>
      </trkpt>
      <trkpt lat="49.57804" lon="3.43819">
        <ele>215.1</ele>
        <time>2025-10-05T09:47:18.000Z</time>
      </trkpt>
      <trkpt lat="49.57805" lon="3.43817">
        <ele>215</ele>
        <time>2025-10-05T09:47:19.000Z</time>
      </trkpt>
      <trkpt lat="49.57806" lon="3.43814">
        <ele>214.8</ele>
        <time>2025-10-05T09:47:20.000Z</time>
      </trkpt>
      <trkpt lat="49.57806" lon="3.43811">
        <ele>214.6</ele>
        <time>2025-10-05T09:47:21.000Z</time>
      </trkpt>
      <trkpt lat="49.57807" lon="3.43809">
        <ele>214.5</ele>
        <time>2025-10-05T09:47:22.000Z</time>
      </trkpt>
      <trkpt lat="49.57807" lon="3.43808">
        <ele>214.4</ele>
        <time>2025-10-05T09:47:23.000Z</time>
      </trkpt>
      <trkpt lat="49.57807" lon="3.43807">
        <ele>214.5</ele>
        <time>2025-10-05T09:47:24.000Z</time>
      </trkpt>
      <trkpt lat="49.57808" lon="3.43806">
        <ele>214.5</ele>
        <time>2025-10-05T09:47:25.000Z</time>
      </trkpt>
      <trkpt lat="49.57808" lon="3.43805">
        <ele>214.4</ele>
        <time>2025-10-05T09:47:26.000Z</time>
      </trkpt>
      <trkpt lat="49.57808" lon="3.43804">
        <ele>214.5</ele>
        <time>2025-10-05T09:47:27.000Z</time>
      </trkpt>
      <trkpt lat="49.57807" lon="3.43803">
        <ele>214.4</ele>
        <time>2025-10-05T09:47:28.000Z</time>
      </trkpt>
      <trkpt lat="49.57807" lon="3.43801">
        <ele>214.8</ele>
        <time>2025-10-05T09:47:29.000Z</time>
      </trkpt>
      <trkpt lat="49.57808" lon="3.43799">
        <ele>215</ele>
        <time>2025-10-05T09:47:30.000Z</time>
      </trkpt>
      <trkpt lat="49.57808" lon="3.43798">
        <ele>215</ele>
        <time>2025-10-05T09:47:31.000Z</time>
      </trkpt>
      <trkpt lat="49.57808" lon="3.43796">
        <ele>215.3</ele>
        <time>2025-10-05T09:47:32.000Z</time>
      </trkpt>
      <trkpt lat="49.57809" lon="3.43795">
        <ele>215.4</ele>
        <time>2025-10-05T09:47:33.000Z</time>
      </trkpt>
      <trkpt lat="49.5781" lon="3.43793">
        <ele>215.5</ele>
        <time>2025-10-05T09:47:34.000Z</time>
      </trkpt>
      <trkpt lat="49.5781" lon="3.43792">
        <ele>215.5</ele>
        <time>2025-10-05T09:47:35.000Z</time>
      </trkpt>
      <trkpt lat="49.57811" lon="3.43791">
        <ele>215.4</ele>
        <time>2025-10-05T09:47:36.000Z</time>
      </trkpt>
      <trkpt lat="49.57811" lon="3.4379">
        <ele>215.7</ele>
        <time>2025-10-05T09:47:37.000Z</time>
      </trkpt>
      <trkpt lat="49.57812" lon="3.43789">
        <ele>215.9</ele>
        <time>2025-10-05T09:47:38.000Z</time>
      </trkpt>
      <trkpt lat="49.57812" lon="3.43787">
        <ele>215.9</ele>
        <time>2025-10-05T09:47:39.000Z</time>
      </trkpt>
      <trkpt lat="49.57813" lon="3.43786">
        <ele>215.8</ele>
        <time>2025-10-05T09:47:40.000Z</time>
      </trkpt>
      <trkpt lat="49.57813" lon="3.43784">
        <ele>216</ele>
        <time>2025-10-05T09:47:41.000Z</time>
      </trkpt>
      <trkpt lat="49.57813" lon="3.43783">
        <ele>216.4</ele>
        <time>2025-10-05T09:47:42.000Z</time>
      </trkpt>
      <trkpt lat="49.57814" lon="3.43782">
        <ele>216.5</ele>
        <time>2025-10-05T09:47:43.000Z</time>
      </trkpt>
      <trkpt lat="49.57814" lon="3.4378">
        <ele>216.9</ele>
        <time>2025-10-05T09:47:44.000Z</time>
      </trkpt>
      <trkpt lat="49.57815" lon="3.43779">
        <ele>216.9</ele>
        <time>2025-10-05T09:47:45.000Z</time>
      </trkpt>
      <trkpt lat="49.57815" lon="3.43778">
        <ele>216.9</ele>
        <time>2025-10-05T09:47:46.000Z</time>
      </trkpt>
      <trkpt lat="49.57816" lon="3.43776">
        <ele>217</ele>
        <time>2025-10-05T09:47:47.000Z</time>
      </trkpt>
      <trkpt lat="49.57816" lon="3.43774">
        <ele>216.9</ele>
        <time>2025-10-05T09:47:48.000Z</time>
      </trkpt>
      <trkpt lat="49.57817" lon="3.43772">
        <ele>216.6</ele>
        <time>2025-10-05T09:47:49.000Z</time>
      </trkpt>
      <trkpt lat="49.57817" lon="3.43771">
        <ele>216.3</ele>
        <time>2025-10-05T09:47:50.000Z</time>
      </trkpt>
      <trkpt lat="49.57817" lon="3.4377">
        <ele>216.5</ele>
        <time>2025-10-05T09:47:51.000Z</time>
      </trkpt>
      <trkpt lat="49.57817" lon="3.43768">
        <ele>216.5</ele>
        <time>2025-10-05T09:47:52.000Z</time>
      </trkpt>
      <trkpt lat="49.57818" lon="3.43766">
        <ele>216.7</ele>
        <time>2025-10-05T09:47:53.000Z</time>
      </trkpt>
      <trkpt lat="49.57818" lon="3.43764">
        <ele>216.8</ele>
        <time>2025-10-05T09:47:54.000Z</time>
      </trkpt>
      <trkpt lat="49.57819" lon="3.43762">
        <ele>217.2</ele>
        <time>2025-10-05T09:47:55.000Z</time>
      </trkpt>
      <trkpt lat="49.57819" lon="3.4376">
        <ele>217.4</ele>
        <time>2025-10-05T09:47:56.000Z</time>
      </trkpt>
      <trkpt lat="49.5782" lon="3.43758">
        <ele>217.7</ele>
        <time>2025-10-05T09:47:57.000Z</time>
      </trkpt>
      <trkpt lat="49.57821" lon="3.43756">
        <ele>217.8</ele>
        <time>2025-10-05T09:47:58.000Z</time>
      </trkpt>
      <trkpt lat="49.57822" lon="3.43754">
        <ele>217.8</ele>
        <time>2025-10-05T09:47:59.000Z</time>
      </trkpt>
      <trkpt lat="49.57822" lon="3.43753">
        <ele>218</ele>
        <time>2025-10-05T09:48:00.000Z</time>
      </trkpt>
      <trkpt lat="49.57823" lon="3.43752">
        <ele>218.2</ele>
        <time>2025-10-05T09:48:01.000Z</time>
      </trkpt>
      <trkpt lat="49.57823" lon="3.43751">
        <ele>218.2</ele>
        <time>2025-10-05T09:48:02.000Z</time>
      </trkpt>
      <trkpt lat="49.57823" lon="3.4375">
        <ele>218.3</ele>
        <time>2025-10-05T09:48:03.000Z</time>
      </trkpt>
      <trkpt lat="49.57823" lon="3.43749">
        <ele>218.3</ele>
        <time>2025-10-05T09:48:04.000Z</time>
      </trkpt>
      <trkpt lat="49.57824" lon="3.43748">
        <ele>218.1</ele>
        <time>2025-10-05T09:48:05.000Z</time>
      </trkpt>
      <trkpt lat="49.57824" lon="3.43747">
        <ele>217.6</ele>
        <time>2025-10-05T09:48:06.000Z</time>
      </trkpt>
      <trkpt lat="49.57825" lon="3.43745">
        <ele>217.5</ele>
        <time>2025-10-05T09:48:07.000Z</time>
      </trkpt>
      <trkpt lat="49.57825" lon="3.43744">
        <ele>217.8</ele>
        <time>2025-10-05T09:48:08.000Z</time>
      </trkpt>
      <trkpt lat="49.57826" lon="3.43743">
        <ele>217.7</ele>
        <time>2025-10-05T09:48:09.000Z</time>
      </trkpt>
      <trkpt lat="49.57826" lon="3.43741">
        <ele>217.5</ele>
        <time>2025-10-05T09:48:10.000Z</time>
      </trkpt>
      <trkpt lat="49.57827" lon="3.43738">
        <ele>217.5</ele>
        <time>2025-10-05T09:48:11.000Z</time>
      </trkpt>
      <trkpt lat="49.57827" lon="3.43736">
        <ele>217.3</ele>
        <time>2025-10-05T09:48:12.000Z</time>
      </trkpt>
      <trkpt lat="49.57828" lon="3.43734">
        <ele>217.3</ele>
        <time>2025-10-05T09:48:13.000Z</time>
      </trkpt>
      <trkpt lat="49.57829" lon="3.43733">
        <ele>217.1</ele>
        <time>2025-10-05T09:48:14.000Z</time>
      </trkpt>
      <trkpt lat="49.57829" lon="3.43731">
        <ele>216.9</ele>
        <time>2025-10-05T09:48:15.000Z</time>
      </trkpt>
      <trkpt lat="49.5783" lon="3.4373">
        <ele>216.6</ele>
        <time>2025-10-05T09:48:16.000Z</time>
      </trkpt>
      <trkpt lat="49.57831" lon="3.43728">
        <ele>216.6</ele>
        <time>2025-10-05T09:48:17.000Z</time>
      </trkpt>
      <trkpt lat="49.57832" lon="3.43726">
        <ele>216.8</ele>
        <time>2025-10-05T09:48:18.000Z</time>
      </trkpt>
      <trkpt lat="49.57833" lon="3.43724">
        <ele>216.9</ele>
        <time>2025-10-05T09:48:19.000Z</time>
      </trkpt>
      <trkpt lat="49.57833" lon="3.43722">
        <ele>217</ele>
        <time>2025-10-05T09:48:20.000Z</time>
      </trkpt>
      <trkpt lat="49.57833" lon="3.43721">
        <ele>217</ele>
        <time>2025-10-05T09:48:21.000Z</time>
      </trkpt>
      <trkpt lat="49.57834" lon="3.43721">
        <ele>216.8</ele>
        <time>2025-10-05T09:48:22.000Z</time>
      </trkpt>
      <trkpt lat="49.57835" lon="3.4372">
        <ele>216.6</ele>
        <time>2025-10-05T09:48:23.000Z</time>
      </trkpt>
      <trkpt lat="49.57835" lon="3.43719">
        <ele>216.2</ele>
        <time>2025-10-05T09:48:24.000Z</time>
      </trkpt>
      <trkpt lat="49.57836" lon="3.43718">
        <ele>216.1</ele>
        <time>2025-10-05T09:48:25.000Z</time>
      </trkpt>
      <trkpt lat="49.57837" lon="3.43717">
        <ele>216</ele>
        <time>2025-10-05T09:48:26.000Z</time>
      </trkpt>
      <trkpt lat="49.57838" lon="3.43715">
        <ele>215.8</ele>
        <time>2025-10-05T09:48:27.000Z</time>
      </trkpt>
      <trkpt lat="49.57839" lon="3.43714">
        <ele>215.7</ele>
        <time>2025-10-05T09:48:28.000Z</time>
      </trkpt>
      <trkpt lat="49.5784" lon="3.43712">
        <ele>215.4</ele>
        <time>2025-10-05T09:48:29.000Z</time>
      </trkpt>
      <trkpt lat="49.5784" lon="3.43711">
        <ele>215.2</ele>
        <time>2025-10-05T09:48:30.000Z</time>
      </trkpt>
      <trkpt lat="49.57841" lon="3.4371">
        <ele>215.3</ele>
        <time>2025-10-05T09:48:31.000Z</time>
      </trkpt>
      <trkpt lat="49.57841" lon="3.43709">
        <ele>215.4</ele>
        <time>2025-10-05T09:48:32.000Z</time>
      </trkpt>
      <trkpt lat="49.57841" lon="3.43708">
        <ele>215.5</ele>
        <time>2025-10-05T09:48:33.000Z</time>
      </trkpt>
      <trkpt lat="49.57842" lon="3.43707">
        <ele>215.6</ele>
        <time>2025-10-05T09:48:34.000Z</time>
      </trkpt>
      <trkpt lat="49.57843" lon="3.43705">
        <ele>215.7</ele>
        <time>2025-10-05T09:48:35.000Z</time>
      </trkpt>
      <trkpt lat="49.57843" lon="3.43705">
        <ele>215.8</ele>
        <time>2025-10-05T09:48:36.000Z</time>
      </trkpt>
      <trkpt lat="49.57843" lon="3.43704">
        <ele>215.8</ele>
        <time>2025-10-05T09:48:37.000Z</time>
      </trkpt>
      <trkpt lat="49.57843" lon="3.43703">
        <ele>216</ele>
        <time>2025-10-05T09:48:38.000Z</time>
      </trkpt>
      <trkpt lat="49.57843" lon="3.43702">
        <ele>216.1</ele>
        <time>2025-10-05T09:48:39.000Z</time>
      </trkpt>
      <trkpt lat="49.57844" lon="3.43701">
        <ele>216.1</ele>
        <time>2025-10-05T09:48:40.000Z</time>
      </trkpt>
      <trkpt lat="49.57844" lon="3.437">
        <ele>216.1</ele>
        <time>2025-10-05T09:48:41.000Z</time>
      </trkpt>
      <trkpt lat="49.57845" lon="3.43699">
        <ele>216.1</ele>
        <time>2025-10-05T09:48:42.000Z</time>
      </trkpt>
      <trkpt lat="49.57845" lon="3.43697">
        <ele>216.1</ele>
        <time>2025-10-05T09:48:43.000Z</time>
      </trkpt>
      <trkpt lat="49.57846" lon="3.43696">
        <ele>216.1</ele>
        <time>2025-10-05T09:48:44.000Z</time>
      </trkpt>
      <trkpt lat="49.57847" lon="3.43696">
        <ele>216.2</ele>
        <time>2025-10-05T09:48:45.000Z</time>
      </trkpt>
      <trkpt lat="49.57847" lon="3.43695">
        <ele>216.2</ele>
        <time>2025-10-05T09:48:46.000Z</time>
      </trkpt>
      <trkpt lat="49.57848" lon="3.43694">
        <ele>216.2</ele>
        <time>2025-10-05T09:48:47.000Z</time>
      </trkpt>
      <trkpt lat="49.57849" lon="3.43693">
        <ele>216.2</ele>
        <time>2025-10-05T09:48:48.000Z</time>
      </trkpt>
      <trkpt lat="49.5785" lon="3.43692">
        <ele>216.1</ele>
        <time>2025-10-05T09:48:49.000Z</time>
      </trkpt>
      <trkpt lat="49.57851" lon="3.43691">
        <ele>216.1</ele>
        <time>2025-10-05T09:48:50.000Z</time>
      </trkpt>
      <trkpt lat="49.57851" lon="3.4369">
        <ele>216</ele>
        <time>2025-10-05T09:48:51.000Z</time>
      </trkpt>
      <trkpt lat="49.57852" lon="3.43689">
        <ele>215.9</ele>
        <time>2025-10-05T09:48:52.000Z</time>
      </trkpt>
      <trkpt lat="49.57852" lon="3.43689">
        <ele>215.8</ele>
        <time>2025-10-05T09:48:53.000Z</time>
      </trkpt>
      <trkpt lat="49.57853" lon="3.43688">
        <ele>215.8</ele>
        <time>2025-10-05T09:48:54.000Z</time>
      </trkpt>
      <trkpt lat="49.57854" lon="3.43687">
        <ele>215.9</ele>
        <time>2025-10-05T09:48:55.000Z</time>
      </trkpt>
      <trkpt lat="49.57855" lon="3.43686">
        <ele>216</ele>
        <time>2025-10-05T09:48:56.000Z</time>
      </trkpt>
      <trkpt lat="49.57856" lon="3.43685">
        <ele>216.1</ele>
        <time>2025-10-05T09:48:57.000Z</time>
      </trkpt>
      <trkpt lat="49.57856" lon="3.43684">
        <ele>216.1</ele>
        <time>2025-10-05T09:48:58.000Z</time>
      </trkpt>
      <trkpt lat="49.57857" lon="3.43683">
        <ele>216.4</ele>
        <time>2025-10-05T09:48:59.000Z</time>
      </trkpt>
      <trkpt lat="49.57857" lon="3.43681">
        <ele>216.9</ele>
        <time>2025-10-05T09:49:00.000Z</time>
      </trkpt>
      <trkpt lat="49.57857" lon="3.43679">
        <ele>217.3</ele>
        <time>2025-10-05T09:49:01.000Z</time>
      </trkpt>
      <trkpt lat="49.57858" lon="3.43677">
        <ele>217.5</ele>
        <time>2025-10-05T09:49:02.000Z</time>
      </trkpt>
      <trkpt lat="49.57858" lon="3.43676">
        <ele>217.7</ele>
        <time>2025-10-05T09:49:03.000Z</time>
      </trkpt>
      <trkpt lat="49.57859" lon="3.43674">
        <ele>217.9</ele>
        <time>2025-10-05T09:49:04.000Z</time>
      </trkpt>
      <trkpt lat="49.5786" lon="3.43673">
        <ele>218</ele>
        <time>2025-10-05T09:49:05.000Z</time>
      </trkpt>
      <trkpt lat="49.57861" lon="3.43671">
        <ele>218.1</ele>
        <time>2025-10-05T09:49:06.000Z</time>
      </trkpt>
      <trkpt lat="49.57861" lon="3.4367">
        <ele>218.2</ele>
        <time>2025-10-05T09:49:07.000Z</time>
      </trkpt>
      <trkpt lat="49.57862" lon="3.4367">
        <ele>218.4</ele>
        <time>2025-10-05T09:49:08.000Z</time>
      </trkpt>
      <trkpt lat="49.57863" lon="3.43669">
        <ele>218.7</ele>
        <time>2025-10-05T09:49:09.000Z</time>
      </trkpt>
      <trkpt lat="49.57864" lon="3.43668">
        <ele>219</ele>
        <time>2025-10-05T09:49:10.000Z</time>
      </trkpt>
      <trkpt lat="49.57864" lon="3.43666">
        <ele>219.2</ele>
        <time>2025-10-05T09:49:11.000Z</time>
      </trkpt>
      <trkpt lat="49.57865" lon="3.43665">
        <ele>219.4</ele>
        <time>2025-10-05T09:49:12.000Z</time>
      </trkpt>
      <trkpt lat="49.57866" lon="3.43664">
        <ele>219.7</ele>
        <time>2025-10-05T09:49:13.000Z</time>
      </trkpt>
      <trkpt lat="49.57866" lon="3.43663">
        <ele>220</ele>
        <time>2025-10-05T09:49:14.000Z</time>
      </trkpt>
      <trkpt lat="49.57867" lon="3.43663">
        <ele>220.4</ele>
        <time>2025-10-05T09:49:15.000Z</time>
      </trkpt>
      <trkpt lat="49.57867" lon="3.43661">
        <ele>220.6</ele>
        <time>2025-10-05T09:49:16.000Z</time>
      </trkpt>
      <trkpt lat="49.57868" lon="3.4366">
        <ele>220.7</ele>
        <time>2025-10-05T09:49:17.000Z</time>
      </trkpt>
      <trkpt lat="49.57869" lon="3.43658">
        <ele>220.9</ele>
        <time>2025-10-05T09:49:18.000Z</time>
      </trkpt>
      <trkpt lat="49.57869" lon="3.43657">
        <ele>221</ele>
        <time>2025-10-05T09:49:19.000Z</time>
      </trkpt>
      <trkpt lat="49.5787" lon="3.43656">
        <ele>221.4</ele>
        <time>2025-10-05T09:49:20.000Z</time>
      </trkpt>
      <trkpt lat="49.57871" lon="3.43655">
        <ele>221.6</ele>
        <time>2025-10-05T09:49:21.000Z</time>
      </trkpt>
      <trkpt lat="49.57871" lon="3.43653">
        <ele>221.9</ele>
        <time>2025-10-05T09:49:22.000Z</time>
      </trkpt>
      <trkpt lat="49.57872" lon="3.43652">
        <ele>222.2</ele>
        <time>2025-10-05T09:49:23.000Z</time>
      </trkpt>
      <trkpt lat="49.57872" lon="3.43651">
        <ele>222.1</ele>
        <time>2025-10-05T09:49:24.000Z</time>
      </trkpt>
      <trkpt lat="49.57873" lon="3.43651">
        <ele>221.8</ele>
        <time>2025-10-05T09:49:25.000Z</time>
      </trkpt>
      <trkpt lat="49.57873" lon="3.4365">
        <ele>221.7</ele>
        <time>2025-10-05T09:49:26.000Z</time>
      </trkpt>
      <trkpt lat="49.57873" lon="3.43649">
        <ele>221.6</ele>
        <time>2025-10-05T09:49:27.000Z</time>
      </trkpt>
      <trkpt lat="49.57874" lon="3.43649">
        <ele>221.4</ele>
        <time>2025-10-05T09:49:28.000Z</time>
      </trkpt>
      <trkpt lat="49.57874" lon="3.43647">
        <ele>221.3</ele>
        <time>2025-10-05T09:49:29.000Z</time>
      </trkpt>
      <trkpt lat="49.57874" lon="3.43646">
        <ele>221.2</ele>
        <time>2025-10-05T09:49:30.000Z</time>
      </trkpt>
      <trkpt lat="49.57874" lon="3.43645">
        <ele>221.2</ele>
        <time>2025-10-05T09:49:31.000Z</time>
      </trkpt>
      <trkpt lat="49.57875" lon="3.43644">
        <ele>221.2</ele>
        <time>2025-10-05T09:49:32.000Z</time>
      </trkpt>
      <trkpt lat="49.57875" lon="3.43642">
        <ele>221.1</ele>
        <time>2025-10-05T09:49:33.000Z</time>
      </trkpt>
      <trkpt lat="49.57876" lon="3.43641">
        <ele>221</ele>
        <time>2025-10-05T09:49:34.000Z</time>
      </trkpt>
      <trkpt lat="49.57877" lon="3.43638">
        <ele>221.1</ele>
        <time>2025-10-05T09:49:35.000Z</time>
      </trkpt>
      <trkpt lat="49.57877" lon="3.43637">
        <ele>221.1</ele>
        <time>2025-10-05T09:49:36.000Z</time>
      </trkpt>
      <trkpt lat="49.57877" lon="3.43635">
        <ele>221</ele>
        <time>2025-10-05T09:49:37.000Z</time>
      </trkpt>
      <trkpt lat="49.57878" lon="3.43634">
        <ele>221</ele>
        <time>2025-10-05T09:49:38.000Z</time>
      </trkpt>
      <trkpt lat="49.57878" lon="3.43633">
        <ele>221</ele>
        <time>2025-10-05T09:49:39.000Z</time>
      </trkpt>
      <trkpt lat="49.57879" lon="3.43632">
        <ele>221</ele>
        <time>2025-10-05T09:49:40.000Z</time>
      </trkpt>
      <trkpt lat="49.5788" lon="3.43631">
        <ele>220.9</ele>
        <time>2025-10-05T09:49:41.000Z</time>
      </trkpt>
      <trkpt lat="49.5788" lon="3.43629">
        <ele>220.7</ele>
        <time>2025-10-05T09:49:42.000Z</time>
      </trkpt>
      <trkpt lat="49.57881" lon="3.43627">
        <ele>220.7</ele>
        <time>2025-10-05T09:49:43.000Z</time>
      </trkpt>
      <trkpt lat="49.57881" lon="3.43626">
        <ele>220.7</ele>
        <time>2025-10-05T09:49:44.000Z</time>
      </trkpt>
      <trkpt lat="49.57881" lon="3.43624">
        <ele>220.5</ele>
        <time>2025-10-05T09:49:45.000Z</time>
      </trkpt>
      <trkpt lat="49.57881" lon="3.43624">
        <ele>220.6</ele>
        <time>2025-10-05T09:49:46.000Z</time>
      </trkpt>
      <trkpt lat="49.57882" lon="3.43624">
        <ele>220.7</ele>
        <time>2025-10-05T09:49:47.000Z</time>
      </trkpt>
      <trkpt lat="49.57882" lon="3.43623">
        <ele>220.8</ele>
        <time>2025-10-05T09:49:48.000Z</time>
      </trkpt>
      <trkpt lat="49.57883" lon="3.43623">
        <ele>221.1</ele>
        <time>2025-10-05T09:49:49.000Z</time>
      </trkpt>
      <trkpt lat="49.57883" lon="3.43622">
        <ele>221.3</ele>
        <time>2025-10-05T09:49:50.000Z</time>
      </trkpt>
      <trkpt lat="49.57884" lon="3.43621">
        <ele>221.6</ele>
        <time>2025-10-05T09:49:51.000Z</time>
      </trkpt>
      <trkpt lat="49.57884" lon="3.43621">
        <ele>221.7</ele>
        <time>2025-10-05T09:49:52.000Z</time>
      </trkpt>
      <trkpt lat="49.57884" lon="3.4362">
        <ele>221.9</ele>
        <time>2025-10-05T09:49:53.000Z</time>
      </trkpt>
      <trkpt lat="49.57885" lon="3.43619">
        <ele>222.3</ele>
        <time>2025-10-05T09:49:54.000Z</time>
      </trkpt>
      <trkpt lat="49.57886" lon="3.43618">
        <ele>222.6</ele>
        <time>2025-10-05T09:49:55.000Z</time>
      </trkpt>
      <trkpt lat="49.57886" lon="3.43616">
        <ele>222.9</ele>
        <time>2025-10-05T09:49:56.000Z</time>
      </trkpt>
      <trkpt lat="49.57887" lon="3.43615">
        <ele>223.2</ele>
        <time>2025-10-05T09:49:57.000Z</time>
      </trkpt>
      <trkpt lat="49.57888" lon="3.43613">
        <ele>223.5</ele>
        <time>2025-10-05T09:49:58.000Z</time>
      </trkpt>
      <trkpt lat="49.57889" lon="3.43613">
        <ele>223.9</ele>
        <time>2025-10-05T09:49:59.000Z</time>
      </trkpt>
      <trkpt lat="49.57889" lon="3.43612">
        <ele>224</ele>
        <time>2025-10-05T09:50:00.000Z</time>
      </trkpt>
      <trkpt lat="49.57889" lon="3.43612">
        <ele>224.2</ele>
        <time>2025-10-05T09:50:01.000Z</time>
      </trkpt>
      <trkpt lat="49.5789" lon="3.43611">
        <ele>224.5</ele>
        <time>2025-10-05T09:50:02.000Z</time>
      </trkpt>
      <trkpt lat="49.57891" lon="3.4361">
        <ele>224.7</ele>
        <time>2025-10-05T09:50:03.000Z</time>
      </trkpt>
      <trkpt lat="49.57891" lon="3.43609">
        <ele>225</ele>
        <time>2025-10-05T09:50:04.000Z</time>
      </trkpt>
      <trkpt lat="49.57892" lon="3.43608">
        <ele>225.3</ele>
        <time>2025-10-05T09:50:05.000Z</time>
      </trkpt>
      <trkpt lat="49.57892" lon="3.43606">
        <ele>225.2</ele>
        <time>2025-10-05T09:50:06.000Z</time>
      </trkpt>
      <trkpt lat="49.57892" lon="3.43605">
        <ele>225.3</ele>
        <time>2025-10-05T09:50:07.000Z</time>
      </trkpt>
      <trkpt lat="49.57892" lon="3.43603">
        <ele>225.3</ele>
        <time>2025-10-05T09:50:08.000Z</time>
      </trkpt>
      <trkpt lat="49.57893" lon="3.43602">
        <ele>225.5</ele>
        <time>2025-10-05T09:50:09.000Z</time>
      </trkpt>
      <trkpt lat="49.57893" lon="3.43601">
        <ele>225.4</ele>
        <time>2025-10-05T09:50:10.000Z</time>
      </trkpt>
      <trkpt lat="49.57893" lon="3.43599">
        <ele>225.4</ele>
        <time>2025-10-05T09:50:11.000Z</time>
      </trkpt>
      <trkpt lat="49.57894" lon="3.43599">
        <ele>225.2</ele>
        <time>2025-10-05T09:50:12.000Z</time>
      </trkpt>
      <trkpt lat="49.57894" lon="3.43598">
        <ele>225.2</ele>
        <time>2025-10-05T09:50:13.000Z</time>
      </trkpt>
      <trkpt lat="49.57894" lon="3.43596">
        <ele>225.3</ele>
        <time>2025-10-05T09:50:14.000Z</time>
      </trkpt>
      <trkpt lat="49.57895" lon="3.43595">
        <ele>225.4</ele>
        <time>2025-10-05T09:50:15.000Z</time>
      </trkpt>
      <trkpt lat="49.57895" lon="3.43593">
        <ele>225.6</ele>
        <time>2025-10-05T09:50:16.000Z</time>
      </trkpt>
      <trkpt lat="49.57895" lon="3.43592">
        <ele>225.9</ele>
        <time>2025-10-05T09:50:17.000Z</time>
      </trkpt>
      <trkpt lat="49.57896" lon="3.43591">
        <ele>226.1</ele>
        <time>2025-10-05T09:50:18.000Z</time>
      </trkpt>
      <trkpt lat="49.57897" lon="3.4359">
        <ele>226.5</ele>
        <time>2025-10-05T09:50:19.000Z</time>
      </trkpt>
      <trkpt lat="49.57897" lon="3.43588">
        <ele>226.9</ele>
        <time>2025-10-05T09:50:20.000Z</time>
      </trkpt>
      <trkpt lat="49.57898" lon="3.43586">
        <ele>227.2</ele>
        <time>2025-10-05T09:50:21.000Z</time>
      </trkpt>
      <trkpt lat="49.57899" lon="3.43584">
        <ele>227.8</ele>
        <time>2025-10-05T09:50:22.000Z</time>
      </trkpt>
      <trkpt lat="49.57899" lon="3.43583">
        <ele>228.3</ele>
        <time>2025-10-05T09:50:23.000Z</time>
      </trkpt>
      <trkpt lat="49.579" lon="3.43582">
        <ele>228.7</ele>
        <time>2025-10-05T09:50:24.000Z</time>
      </trkpt>
      <trkpt lat="49.57901" lon="3.43582">
        <ele>229.1</ele>
        <time>2025-10-05T09:50:25.000Z</time>
      </trkpt>
      <trkpt lat="49.57902" lon="3.43582">
        <ele>229.5</ele>
        <time>2025-10-05T09:50:26.000Z</time>
      </trkpt>
      <trkpt lat="49.57902" lon="3.43581">
        <ele>229.7</ele>
        <time>2025-10-05T09:50:27.000Z</time>
      </trkpt>
      <trkpt lat="49.57903" lon="3.4358">
        <ele>229.8</ele>
        <time>2025-10-05T09:50:28.000Z</time>
      </trkpt>
      <trkpt lat="49.57904" lon="3.4358">
        <ele>230.2</ele>
        <time>2025-10-05T09:50:29.000Z</time>
      </trkpt>
      <trkpt lat="49.57905" lon="3.43579">
        <ele>230.6</ele>
        <time>2025-10-05T09:50:30.000Z</time>
      </trkpt>
      <trkpt lat="49.57907" lon="3.43578">
        <ele>230.9</ele>
        <time>2025-10-05T09:50:31.000Z</time>
      </trkpt>
      <trkpt lat="49.57907" lon="3.43577">
        <ele>231.2</ele>
        <time>2025-10-05T09:50:32.000Z</time>
      </trkpt>
      <trkpt lat="49.57908" lon="3.43576">
        <ele>231.1</ele>
        <time>2025-10-05T09:50:33.000Z</time>
      </trkpt>
      <trkpt lat="49.57908" lon="3.43575">
        <ele>231</ele>
        <time>2025-10-05T09:50:34.000Z</time>
      </trkpt>
      <trkpt lat="49.57908" lon="3.43573">
        <ele>231.2</ele>
        <time>2025-10-05T09:50:35.000Z</time>
      </trkpt>
      <trkpt lat="49.57909" lon="3.43572">
        <ele>231.3</ele>
        <time>2025-10-05T09:50:36.000Z</time>
      </trkpt>
      <trkpt lat="49.5791" lon="3.4357">
        <ele>231.2</ele>
        <time>2025-10-05T09:50:37.000Z</time>
      </trkpt>
      <trkpt lat="49.57911" lon="3.43569">
        <ele>231.2</ele>
        <time>2025-10-05T09:50:38.000Z</time>
      </trkpt>
      <trkpt lat="49.57911" lon="3.43567">
        <ele>231.3</ele>
        <time>2025-10-05T09:50:39.000Z</time>
      </trkpt>
      <trkpt lat="49.57912" lon="3.43566">
        <ele>231.3</ele>
        <time>2025-10-05T09:50:40.000Z</time>
      </trkpt>
      <trkpt lat="49.57912" lon="3.43565">
        <ele>231.4</ele>
        <time>2025-10-05T09:50:41.000Z</time>
      </trkpt>
      <trkpt lat="49.57912" lon="3.43564">
        <ele>231.5</ele>
        <time>2025-10-05T09:50:42.000Z</time>
      </trkpt>
      <trkpt lat="49.57912" lon="3.43563">
        <ele>231.7</ele>
        <time>2025-10-05T09:50:43.000Z</time>
      </trkpt>
      <trkpt lat="49.57913" lon="3.43561">
        <ele>231.7</ele>
        <time>2025-10-05T09:50:44.000Z</time>
      </trkpt>
      <trkpt lat="49.57913" lon="3.43559">
        <ele>232.1</ele>
        <time>2025-10-05T09:50:45.000Z</time>
      </trkpt>
      <trkpt lat="49.57914" lon="3.43557">
        <ele>232.3</ele>
        <time>2025-10-05T09:50:46.000Z</time>
      </trkpt>
      <trkpt lat="49.57914" lon="3.43555">
        <ele>232.4</ele>
        <time>2025-10-05T09:50:47.000Z</time>
      </trkpt>
      <trkpt lat="49.57914" lon="3.43554">
        <ele>232.3</ele>
        <time>2025-10-05T09:50:48.000Z</time>
      </trkpt>
      <trkpt lat="49.57914" lon="3.43552">
        <ele>232.3</ele>
        <time>2025-10-05T09:50:49.000Z</time>
      </trkpt>
      <trkpt lat="49.57915" lon="3.43552">
        <ele>232.6</ele>
        <time>2025-10-05T09:50:50.000Z</time>
      </trkpt>
      <trkpt lat="49.57915" lon="3.43551">
        <ele>233</ele>
        <time>2025-10-05T09:50:51.000Z</time>
      </trkpt>
      <trkpt lat="49.57916" lon="3.4355">
        <ele>233.3</ele>
        <time>2025-10-05T09:50:52.000Z</time>
      </trkpt>
      <trkpt lat="49.57916" lon="3.43549">
        <ele>233.6</ele>
        <time>2025-10-05T09:50:53.000Z</time>
      </trkpt>
      <trkpt lat="49.57917" lon="3.43548">
        <ele>233.8</ele>
        <time>2025-10-05T09:50:54.000Z</time>
      </trkpt>
      <trkpt lat="49.57918" lon="3.43548">
        <ele>234.2</ele>
        <time>2025-10-05T09:50:55.000Z</time>
      </trkpt>
      <trkpt lat="49.57918" lon="3.43547">
        <ele>234.7</ele>
        <time>2025-10-05T09:50:56.000Z</time>
      </trkpt>
      <trkpt lat="49.57918" lon="3.43546">
        <ele>235.1</ele>
        <time>2025-10-05T09:50:57.000Z</time>
      </trkpt>
      <trkpt lat="49.57918" lon="3.43545">
        <ele>235.5</ele>
        <time>2025-10-05T09:50:58.000Z</time>
      </trkpt>
      <trkpt lat="49.57919" lon="3.43543">
        <ele>235.7</ele>
        <time>2025-10-05T09:50:59.000Z</time>
      </trkpt>
      <trkpt lat="49.5792" lon="3.43542">
        <ele>235.6</ele>
        <time>2025-10-05T09:51:00.000Z</time>
      </trkpt>
      <trkpt lat="49.57921" lon="3.43541">
        <ele>235.3</ele>
        <time>2025-10-05T09:51:01.000Z</time>
      </trkpt>
      <trkpt lat="49.57923" lon="3.43541">
        <ele>235.1</ele>
        <time>2025-10-05T09:51:02.000Z</time>
      </trkpt>
      <trkpt lat="49.57923" lon="3.4354">
        <ele>234.9</ele>
        <time>2025-10-05T09:51:03.000Z</time>
      </trkpt>
      <trkpt lat="49.57924" lon="3.4354">
        <ele>234.8</ele>
        <time>2025-10-05T09:51:04.000Z</time>
      </trkpt>
      <trkpt lat="49.57926" lon="3.43539">
        <ele>234.8</ele>
        <time>2025-10-05T09:51:05.000Z</time>
      </trkpt>
      <trkpt lat="49.57926" lon="3.43537">
        <ele>234.6</ele>
        <time>2025-10-05T09:51:06.000Z</time>
      </trkpt>
      <trkpt lat="49.57926" lon="3.43535">
        <ele>234.7</ele>
        <time>2025-10-05T09:51:07.000Z</time>
      </trkpt>
      <trkpt lat="49.57927" lon="3.43533">
        <ele>234.9</ele>
        <time>2025-10-05T09:51:08.000Z</time>
      </trkpt>
      <trkpt lat="49.57927" lon="3.43532">
        <ele>234.9</ele>
        <time>2025-10-05T09:51:09.000Z</time>
      </trkpt>
      <trkpt lat="49.57928" lon="3.43531">
        <ele>234.8</ele>
        <time>2025-10-05T09:51:10.000Z</time>
      </trkpt>
      <trkpt lat="49.57929" lon="3.43531">
        <ele>234.5</ele>
        <time>2025-10-05T09:51:11.000Z</time>
      </trkpt>
      <trkpt lat="49.5793" lon="3.4353">
        <ele>234</ele>
        <time>2025-10-05T09:51:12.000Z</time>
      </trkpt>
      <trkpt lat="49.57931" lon="3.43529">
        <ele>233.8</ele>
        <time>2025-10-05T09:51:13.000Z</time>
      </trkpt>
      <trkpt lat="49.57931" lon="3.43526">
        <ele>233.9</ele>
        <time>2025-10-05T09:51:14.000Z</time>
      </trkpt>
      <trkpt lat="49.57932" lon="3.43524">
        <ele>233.7</ele>
        <time>2025-10-05T09:51:15.000Z</time>
      </trkpt>
      <trkpt lat="49.57933" lon="3.43522">
        <ele>233.5</ele>
        <time>2025-10-05T09:51:16.000Z</time>
      </trkpt>
      <trkpt lat="49.57934" lon="3.43521">
        <ele>233.1</ele>
        <time>2025-10-05T09:51:17.000Z</time>
      </trkpt>
      <trkpt lat="49.57935" lon="3.4352">
        <ele>232.5</ele>
        <time>2025-10-05T09:51:18.000Z</time>
      </trkpt>
      <trkpt lat="49.57935" lon="3.43518">
        <ele>232</ele>
        <time>2025-10-05T09:51:19.000Z</time>
      </trkpt>
      <trkpt lat="49.57936" lon="3.43517">
        <ele>231.6</ele>
        <time>2025-10-05T09:51:20.000Z</time>
      </trkpt>
      <trkpt lat="49.57936" lon="3.43516">
        <ele>231.6</ele>
        <time>2025-10-05T09:51:21.000Z</time>
      </trkpt>
      <trkpt lat="49.57937" lon="3.43515">
        <ele>231.5</ele>
        <time>2025-10-05T09:51:22.000Z</time>
      </trkpt>
      <trkpt lat="49.57938" lon="3.43514">
        <ele>231.3</ele>
        <time>2025-10-05T09:51:23.000Z</time>
      </trkpt>
      <trkpt lat="49.57939" lon="3.43513">
        <ele>231.1</ele>
        <time>2025-10-05T09:51:24.000Z</time>
      </trkpt>
      <trkpt lat="49.57939" lon="3.43511">
        <ele>230.9</ele>
        <time>2025-10-05T09:51:25.000Z</time>
      </trkpt>
      <trkpt lat="49.5794" lon="3.4351">
        <ele>230.9</ele>
        <time>2025-10-05T09:51:26.000Z</time>
      </trkpt>
      <trkpt lat="49.57941" lon="3.43508">
        <ele>230.9</ele>
        <time>2025-10-05T09:51:27.000Z</time>
      </trkpt>
      <trkpt lat="49.57942" lon="3.43506">
        <ele>230.7</ele>
        <time>2025-10-05T09:51:28.000Z</time>
      </trkpt>
      <trkpt lat="49.57943" lon="3.43505">
        <ele>230.4</ele>
        <time>2025-10-05T09:51:29.000Z</time>
      </trkpt>
      <trkpt lat="49.57944" lon="3.43504">
        <ele>230.5</ele>
        <time>2025-10-05T09:51:30.000Z</time>
      </trkpt>
      <trkpt lat="49.57944" lon="3.43504">
        <ele>230.8</ele>
        <time>2025-10-05T09:51:31.000Z</time>
      </trkpt>
      <trkpt lat="49.57945" lon="3.43503">
        <ele>231.1</ele>
        <time>2025-10-05T09:51:32.000Z</time>
      </trkpt>
      <trkpt lat="49.57946" lon="3.43502">
        <ele>231.2</ele>
        <time>2025-10-05T09:51:33.000Z</time>
      </trkpt>
      <trkpt lat="49.57947" lon="3.43501">
        <ele>231.2</ele>
        <time>2025-10-05T09:51:34.000Z</time>
      </trkpt>
      <trkpt lat="49.57947" lon="3.43501">
        <ele>231.2</ele>
        <time>2025-10-05T09:51:35.000Z</time>
      </trkpt>
      <trkpt lat="49.57948" lon="3.43499">
        <ele>231.3</ele>
        <time>2025-10-05T09:51:36.000Z</time>
      </trkpt>
      <trkpt lat="49.57949" lon="3.43498">
        <ele>231.5</ele>
        <time>2025-10-05T09:51:37.000Z</time>
      </trkpt>
      <trkpt lat="49.5795" lon="3.43495">
        <ele>231.5</ele>
        <time>2025-10-05T09:51:38.000Z</time>
      </trkpt>
      <trkpt lat="49.57951" lon="3.43493">
        <ele>231.4</ele>
        <time>2025-10-05T09:51:39.000Z</time>
      </trkpt>
      <trkpt lat="49.57952" lon="3.43492">
        <ele>231.5</ele>
        <time>2025-10-05T09:51:40.000Z</time>
      </trkpt>
      <trkpt lat="49.57952" lon="3.43491">
        <ele>231.6</ele>
        <time>2025-10-05T09:51:41.000Z</time>
      </trkpt>
      <trkpt lat="49.57953" lon="3.4349">
        <ele>231.5</ele>
        <time>2025-10-05T09:51:42.000Z</time>
      </trkpt>
      <trkpt lat="49.57953" lon="3.4349">
        <ele>231.6</ele>
        <time>2025-10-05T09:51:43.000Z</time>
      </trkpt>
      <trkpt lat="49.57954" lon="3.43489">
        <ele>231.7</ele>
        <time>2025-10-05T09:51:44.000Z</time>
      </trkpt>
      <trkpt lat="49.57954" lon="3.43487">
        <ele>231.8</ele>
        <time>2025-10-05T09:51:45.000Z</time>
      </trkpt>
      <trkpt lat="49.57955" lon="3.43486">
        <ele>231.9</ele>
        <time>2025-10-05T09:51:46.000Z</time>
      </trkpt>
      <trkpt lat="49.57955" lon="3.43485">
        <ele>232</ele>
        <time>2025-10-05T09:51:47.000Z</time>
      </trkpt>
      <trkpt lat="49.57956" lon="3.43484">
        <ele>232.3</ele>
        <time>2025-10-05T09:51:48.000Z</time>
      </trkpt>
      <trkpt lat="49.57957" lon="3.43483">
        <ele>232.6</ele>
        <time>2025-10-05T09:51:49.000Z</time>
      </trkpt>
      <trkpt lat="49.57958" lon="3.43482">
        <ele>232.9</ele>
        <time>2025-10-05T09:51:50.000Z</time>
      </trkpt>
      <trkpt lat="49.57958" lon="3.4348">
        <ele>233.1</ele>
        <time>2025-10-05T09:51:51.000Z</time>
      </trkpt>
      <trkpt lat="49.57959" lon="3.43477">
        <ele>232.9</ele>
        <time>2025-10-05T09:51:52.000Z</time>
      </trkpt>
      <trkpt lat="49.5796" lon="3.43476">
        <ele>232.9</ele>
        <time>2025-10-05T09:51:53.000Z</time>
      </trkpt>
      <trkpt lat="49.57961" lon="3.43475">
        <ele>233.1</ele>
        <time>2025-10-05T09:51:54.000Z</time>
      </trkpt>
      <trkpt lat="49.57962" lon="3.43475">
        <ele>233.4</ele>
        <time>2025-10-05T09:51:55.000Z</time>
      </trkpt>
      <trkpt lat="49.57962" lon="3.43474">
        <ele>233.4</ele>
        <time>2025-10-05T09:51:56.000Z</time>
      </trkpt>
      <trkpt lat="49.57962" lon="3.43472">
        <ele>233.6</ele>
        <time>2025-10-05T09:51:57.000Z</time>
      </trkpt>
      <trkpt lat="49.57962" lon="3.4347">
        <ele>233.8</ele>
        <time>2025-10-05T09:51:58.000Z</time>
      </trkpt>
      <trkpt lat="49.57962" lon="3.43469">
        <ele>233.9</ele>
        <time>2025-10-05T09:51:59.000Z</time>
      </trkpt>
      <trkpt lat="49.57963" lon="3.43468">
        <ele>234.1</ele>
        <time>2025-10-05T09:52:00.000Z</time>
      </trkpt>
      <trkpt lat="49.57964" lon="3.43467">
        <ele>234.3</ele>
        <time>2025-10-05T09:52:01.000Z</time>
      </trkpt>
      <trkpt lat="49.57965" lon="3.43467">
        <ele>234.5</ele>
        <time>2025-10-05T09:52:02.000Z</time>
      </trkpt>
      <trkpt lat="49.57965" lon="3.43466">
        <ele>234.6</ele>
        <time>2025-10-05T09:52:03.000Z</time>
      </trkpt>
      <trkpt lat="49.57966" lon="3.43465">
        <ele>234.3</ele>
        <time>2025-10-05T09:52:04.000Z</time>
      </trkpt>
      <trkpt lat="49.57967" lon="3.43464">
        <ele>234</ele>
        <time>2025-10-05T09:52:05.000Z</time>
      </trkpt>
      <trkpt lat="49.57969" lon="3.43462">
        <ele>233.3</ele>
        <time>2025-10-05T09:52:06.000Z</time>
      </trkpt>
      <trkpt lat="49.57969" lon="3.43461">
        <ele>232.9</ele>
        <time>2025-10-05T09:52:07.000Z</time>
      </trkpt>
      <trkpt lat="49.5797" lon="3.4346">
        <ele>232.7</ele>
        <time>2025-10-05T09:52:08.000Z</time>
      </trkpt>
      <trkpt lat="49.57971" lon="3.4346">
        <ele>232.3</ele>
        <time>2025-10-05T09:52:09.000Z</time>
      </trkpt>
      <trkpt lat="49.57971" lon="3.43459">
        <ele>232</ele>
        <time>2025-10-05T09:52:10.000Z</time>
      </trkpt>
      <trkpt lat="49.57971" lon="3.43457">
        <ele>231.7</ele>
        <time>2025-10-05T09:52:11.000Z</time>
      </trkpt>
      <trkpt lat="49.57971" lon="3.43455">
        <ele>231.7</ele>
        <time>2025-10-05T09:52:12.000Z</time>
      </trkpt>
      <trkpt lat="49.57972" lon="3.43453">
        <ele>231.4</ele>
        <time>2025-10-05T09:52:13.000Z</time>
      </trkpt>
      <trkpt lat="49.57972" lon="3.43451">
        <ele>231.4</ele>
        <time>2025-10-05T09:52:14.000Z</time>
      </trkpt>
      <trkpt lat="49.57972" lon="3.43449">
        <ele>231.1</ele>
        <time>2025-10-05T09:52:15.000Z</time>
      </trkpt>
      <trkpt lat="49.57973" lon="3.43447">
        <ele>231.3</ele>
        <time>2025-10-05T09:52:16.000Z</time>
      </trkpt>
      <trkpt lat="49.57973" lon="3.43446">
        <ele>231.8</ele>
        <time>2025-10-05T09:52:17.000Z</time>
      </trkpt>
      <trkpt lat="49.57974" lon="3.43444">
        <ele>232</ele>
        <time>2025-10-05T09:52:18.000Z</time>
      </trkpt>
      <trkpt lat="49.57974" lon="3.43444">
        <ele>232.3</ele>
        <time>2025-10-05T09:52:19.000Z</time>
      </trkpt>
      <trkpt lat="49.57976" lon="3.43444">
        <ele>232.9</ele>
        <time>2025-10-05T09:52:20.000Z</time>
      </trkpt>
      <trkpt lat="49.57978" lon="3.43446">
        <ele>232.8</ele>
        <time>2025-10-05T09:52:21.000Z</time>
      </trkpt>
      <trkpt lat="49.57979" lon="3.43448">
        <ele>232.8</ele>
        <time>2025-10-05T09:52:22.000Z</time>
      </trkpt>
      <trkpt lat="49.5798" lon="3.4345">
        <ele>233</ele>
        <time>2025-10-05T09:52:23.000Z</time>
      </trkpt>
      <trkpt lat="49.57982" lon="3.43451">
        <ele>233.3</ele>
        <time>2025-10-05T09:52:24.000Z</time>
      </trkpt>
      <trkpt lat="49.57983" lon="3.43452">
        <ele>233.7</ele>
        <time>2025-10-05T09:52:25.000Z</time>
      </trkpt>
      <trkpt lat="49.57983" lon="3.43452">
        <ele>233.7</ele>
        <time>2025-10-05T09:52:26.000Z</time>
      </trkpt>
      <trkpt lat="49.57984" lon="3.43453">
        <ele>233.5</ele>
        <time>2025-10-05T09:52:27.000Z</time>
      </trkpt>
      <trkpt lat="49.57984" lon="3.43453">
        <ele>233.4</ele>
        <time>2025-10-05T09:52:28.000Z</time>
      </trkpt>
      <trkpt lat="49.57983" lon="3.43454">
        <ele>233.4</ele>
        <time>2025-10-05T09:52:29.000Z</time>
      </trkpt>
      <trkpt lat="49.57983" lon="3.43455">
        <ele>233.1</ele>
        <time>2025-10-05T09:52:30.000Z</time>
      </trkpt>
      <trkpt lat="49.57982" lon="3.43455">
        <ele>233</ele>
        <time>2025-10-05T09:52:31.000Z</time>
      </trkpt>
      <trkpt lat="49.57982" lon="3.43455">
        <ele>232.7</ele>
        <time>2025-10-05T09:52:32.000Z</time>
      </trkpt>
      <trkpt lat="49.57981" lon="3.43454">
        <ele>232.4</ele>
        <time>2025-10-05T09:52:33.000Z</time>
      </trkpt>
      <trkpt lat="49.57981" lon="3.43454">
        <ele>232.4</ele>
        <time>2025-10-05T09:52:34.000Z</time>
      </trkpt>
      <trkpt lat="49.57981" lon="3.43454">
        <ele>232.4</ele>
        <time>2025-10-05T09:52:35.000Z</time>
      </trkpt>
      <trkpt lat="49.57981" lon="3.43454">
        <ele>232.4</ele>
        <time>2025-10-05T09:52:36.000Z</time>
      </trkpt>
      <trkpt lat="49.57981" lon="3.43454">
        <ele>232.4</ele>
        <time>2025-10-05T09:52:37.000Z</time>
      </trkpt>
      <trkpt lat="49.57979" lon="3.4345">
        <ele>231.9</ele>
        <time>2025-10-05T09:52:38.000Z</time>
      </trkpt>
      <trkpt lat="49.57979" lon="3.43449">
        <ele>231.8</ele>
        <time>2025-10-05T09:52:39.000Z</time>
      </trkpt>
      <trkpt lat="49.57978" lon="3.43449">
        <ele>231.5</ele>
        <time>2025-10-05T09:52:40.000Z</time>
      </trkpt>
      <trkpt lat="49.57978" lon="3.43448">
        <ele>231.4</ele>
        <time>2025-10-05T09:52:41.000Z</time>
      </trkpt>
      <trkpt lat="49.57979" lon="3.43446">
        <ele>231.1</ele>
        <time>2025-10-05T09:52:42.000Z</time>
      </trkpt>
      <trkpt lat="49.5798" lon="3.43445">
        <ele>230.7</ele>
        <time>2025-10-05T09:52:43.000Z</time>
      </trkpt>
      <trkpt lat="49.57981" lon="3.43443">
        <ele>230.4</ele>
        <time>2025-10-05T09:52:44.000Z</time>
      </trkpt>
      <trkpt lat="49.57981" lon="3.43443">
        <ele>229.8</ele>
        <time>2025-10-05T09:52:45.000Z</time>
      </trkpt>
      <trkpt lat="49.57982" lon="3.43442">
        <ele>229.3</ele>
        <time>2025-10-05T09:52:46.000Z</time>
      </trkpt>
      <trkpt lat="49.57983" lon="3.43441">
        <ele>229</ele>
        <time>2025-10-05T09:52:47.000Z</time>
      </trkpt>
      <trkpt lat="49.57984" lon="3.43439">
        <ele>228.6</ele>
        <time>2025-10-05T09:52:48.000Z</time>
      </trkpt>
      <trkpt lat="49.57985" lon="3.43438">
        <ele>228.6</ele>
        <time>2025-10-05T09:52:49.000Z</time>
      </trkpt>
      <trkpt lat="49.57986" lon="3.43436">
        <ele>228.6</ele>
        <time>2025-10-05T09:52:50.000Z</time>
      </trkpt>
      <trkpt lat="49.57987" lon="3.43435">
        <ele>228.5</ele>
        <time>2025-10-05T09:52:51.000Z</time>
      </trkpt>
      <trkpt lat="49.57988" lon="3.43433">
        <ele>228.4</ele>
        <time>2025-10-05T09:52:52.000Z</time>
      </trkpt>
      <trkpt lat="49.57988" lon="3.43431">
        <ele>228.3</ele>
        <time>2025-10-05T09:52:53.000Z</time>
      </trkpt>
      <trkpt lat="49.57988" lon="3.4343">
        <ele>228.3</ele>
        <time>2025-10-05T09:52:54.000Z</time>
      </trkpt>
      <trkpt lat="49.57989" lon="3.43429">
        <ele>228.3</ele>
        <time>2025-10-05T09:52:55.000Z</time>
      </trkpt>
      <trkpt lat="49.57989" lon="3.43428">
        <ele>228.4</ele>
        <time>2025-10-05T09:52:56.000Z</time>
      </trkpt>
      <trkpt lat="49.57989" lon="3.43426">
        <ele>228.9</ele>
        <time>2025-10-05T09:52:57.000Z</time>
      </trkpt>
      <trkpt lat="49.5799" lon="3.43425">
        <ele>229.1</ele>
        <time>2025-10-05T09:52:58.000Z</time>
      </trkpt>
      <trkpt lat="49.57991" lon="3.43424">
        <ele>229.3</ele>
        <time>2025-10-05T09:52:59.000Z</time>
      </trkpt>
      <trkpt lat="49.57992" lon="3.43422">
        <ele>229.1</ele>
        <time>2025-10-05T09:53:00.000Z</time>
      </trkpt>
      <trkpt lat="49.57992" lon="3.43421">
        <ele>229</ele>
        <time>2025-10-05T09:53:01.000Z</time>
      </trkpt>
      <trkpt lat="49.57993" lon="3.43419">
        <ele>228.7</ele>
        <time>2025-10-05T09:53:02.000Z</time>
      </trkpt>
      <trkpt lat="49.57994" lon="3.43416">
        <ele>228.2</ele>
        <time>2025-10-05T09:53:03.000Z</time>
      </trkpt>
      <trkpt lat="49.57995" lon="3.43414">
        <ele>227.9</ele>
        <time>2025-10-05T09:53:04.000Z</time>
      </trkpt>
      <trkpt lat="49.57996" lon="3.43414">
        <ele>227.9</ele>
        <time>2025-10-05T09:53:05.000Z</time>
      </trkpt>
      <trkpt lat="49.57997" lon="3.43413">
        <ele>228</ele>
        <time>2025-10-05T09:53:06.000Z</time>
      </trkpt>
      <trkpt lat="49.57998" lon="3.43413">
        <ele>228.1</ele>
        <time>2025-10-05T09:53:07.000Z</time>
      </trkpt>
      <trkpt lat="49.57998" lon="3.43412">
        <ele>228.3</ele>
        <time>2025-10-05T09:53:08.000Z</time>
      </trkpt>
      <trkpt lat="49.57999" lon="3.43411">
        <ele>228.6</ele>
        <time>2025-10-05T09:53:09.000Z</time>
      </trkpt>
      <trkpt lat="49.57999" lon="3.43409">
        <ele>228.7</ele>
        <time>2025-10-05T09:53:10.000Z</time>
      </trkpt>
      <trkpt lat="49.58" lon="3.43407">
        <ele>228.9</ele>
        <time>2025-10-05T09:53:11.000Z</time>
      </trkpt>
      <trkpt lat="49.58" lon="3.43406">
        <ele>229</ele>
        <time>2025-10-05T09:53:12.000Z</time>
      </trkpt>
      <trkpt lat="49.58001" lon="3.43406">
        <ele>229</ele>
        <time>2025-10-05T09:53:13.000Z</time>
      </trkpt>
      <trkpt lat="49.58002" lon="3.43406">
        <ele>229</ele>
        <time>2025-10-05T09:53:14.000Z</time>
      </trkpt>
      <trkpt lat="49.58003" lon="3.43406">
        <ele>228.9</ele>
        <time>2025-10-05T09:53:15.000Z</time>
      </trkpt>
      <trkpt lat="49.58004" lon="3.43405">
        <ele>229.4</ele>
        <time>2025-10-05T09:53:16.000Z</time>
      </trkpt>
      <trkpt lat="49.58004" lon="3.43405">
        <ele>229.6</ele>
        <time>2025-10-05T09:53:17.000Z</time>
      </trkpt>
      <trkpt lat="49.58005" lon="3.43405">
        <ele>230.1</ele>
        <time>2025-10-05T09:53:18.000Z</time>
      </trkpt>
      <trkpt lat="49.58006" lon="3.43405">
        <ele>230.6</ele>
        <time>2025-10-05T09:53:19.000Z</time>
      </trkpt>
      <trkpt lat="49.58007" lon="3.43405">
        <ele>231</ele>
        <time>2025-10-05T09:53:20.000Z</time>
      </trkpt>
      <trkpt lat="49.58008" lon="3.43405">
        <ele>231.1</ele>
        <time>2025-10-05T09:53:21.000Z</time>
      </trkpt>
      <trkpt lat="49.58009" lon="3.43405">
        <ele>231.4</ele>
        <time>2025-10-05T09:53:22.000Z</time>
      </trkpt>
      <trkpt lat="49.58011" lon="3.43405">
        <ele>231.6</ele>
        <time>2025-10-05T09:53:23.000Z</time>
      </trkpt>
      <trkpt lat="49.58011" lon="3.43405">
        <ele>232.1</ele>
        <time>2025-10-05T09:53:24.000Z</time>
      </trkpt>
      <trkpt lat="49.58012" lon="3.43405">
        <ele>232.1</ele>
        <time>2025-10-05T09:53:25.000Z</time>
      </trkpt>
      <trkpt lat="49.58012" lon="3.43406">
        <ele>232</ele>
        <time>2025-10-05T09:53:26.000Z</time>
      </trkpt>
      <trkpt lat="49.58012" lon="3.43406">
        <ele>231.8</ele>
        <time>2025-10-05T09:53:27.000Z</time>
      </trkpt>
      <trkpt lat="49.58012" lon="3.43407">
        <ele>231.6</ele>
        <time>2025-10-05T09:53:28.000Z</time>
      </trkpt>
      <trkpt lat="49.58012" lon="3.43407">
        <ele>231.4</ele>
        <time>2025-10-05T09:53:29.000Z</time>
      </trkpt>
      <trkpt lat="49.58012" lon="3.43407">
        <ele>231.3</ele>
        <time>2025-10-05T09:53:30.000Z</time>
      </trkpt>
      <trkpt lat="49.58012" lon="3.43407">
        <ele>231.3</ele>
        <time>2025-10-05T09:53:31.000Z</time>
      </trkpt>
      <trkpt lat="49.58012" lon="3.43408">
        <ele>231</ele>
        <time>2025-10-05T09:53:32.000Z</time>
      </trkpt>
      <trkpt lat="49.58013" lon="3.43408">
        <ele>230.9</ele>
        <time>2025-10-05T09:53:33.000Z</time>
      </trkpt>
      <trkpt lat="49.58013" lon="3.43409">
        <ele>230.8</ele>
        <time>2025-10-05T09:53:34.000Z</time>
      </trkpt>
      <trkpt lat="49.58013" lon="3.4341">
        <ele>230.8</ele>
        <time>2025-10-05T09:53:35.000Z</time>
      </trkpt>
      <trkpt lat="49.58014" lon="3.4341">
        <ele>231</ele>
        <time>2025-10-05T09:53:36.000Z</time>
      </trkpt>
      <trkpt lat="49.58015" lon="3.43412">
        <ele>231.1</ele>
        <time>2025-10-05T09:53:37.000Z</time>
      </trkpt>
      <trkpt lat="49.58016" lon="3.43413">
        <ele>231</ele>
        <time>2025-10-05T09:53:38.000Z</time>
      </trkpt>
      <trkpt lat="49.58018" lon="3.43414">
        <ele>231.2</ele>
        <time>2025-10-05T09:53:39.000Z</time>
      </trkpt>
      <trkpt lat="49.58019" lon="3.43415">
        <ele>231.5</ele>
        <time>2025-10-05T09:53:40.000Z</time>
      </trkpt>
      <trkpt lat="49.58019" lon="3.43417">
        <ele>232.1</ele>
        <time>2025-10-05T09:53:41.000Z</time>
      </trkpt>
      <trkpt lat="49.5802" lon="3.43418">
        <ele>232.3</ele>
        <time>2025-10-05T09:53:42.000Z</time>
      </trkpt>
      <trkpt lat="49.58021" lon="3.43418">
        <ele>232.4</ele>
        <time>2025-10-05T09:53:43.000Z</time>
      </trkpt>
      <trkpt lat="49.58021" lon="3.43419">
        <ele>232.6</ele>
        <time>2025-10-05T09:53:44.000Z</time>
      </trkpt>
      <trkpt lat="49.58021" lon="3.43419">
        <ele>232.6</ele>
        <time>2025-10-05T09:53:45.000Z</time>
      </trkpt>
      <trkpt lat="49.58021" lon="3.43419">
        <ele>232.8</ele>
        <time>2025-10-05T09:53:46.000Z</time>
      </trkpt>
      <trkpt lat="49.5802" lon="3.43421">
        <ele>232.6</ele>
        <time>2025-10-05T09:53:47.000Z</time>
      </trkpt>
      <trkpt lat="49.5802" lon="3.43422">
        <ele>232.6</ele>
        <time>2025-10-05T09:53:48.000Z</time>
      </trkpt>
      <trkpt lat="49.5802" lon="3.43424">
        <ele>232.6</ele>
        <time>2025-10-05T09:53:49.000Z</time>
      </trkpt>
      <trkpt lat="49.58019" lon="3.43425">
        <ele>232.7</ele>
        <time>2025-10-05T09:53:50.000Z</time>
      </trkpt>
      <trkpt lat="49.58019" lon="3.43426">
        <ele>232.5</ele>
        <time>2025-10-05T09:53:51.000Z</time>
      </trkpt>
      <trkpt lat="49.58019" lon="3.43427">
        <ele>232.4</ele>
        <time>2025-10-05T09:53:52.000Z</time>
      </trkpt>
      <trkpt lat="49.58019" lon="3.43427">
        <ele>232.2</ele>
        <time>2025-10-05T09:53:53.000Z</time>
      </trkpt>
      <trkpt lat="49.58019" lon="3.43427">
        <ele>232.3</ele>
        <time>2025-10-05T09:53:54.000Z</time>
      </trkpt>
      <trkpt lat="49.58019" lon="3.43426">
        <ele>232.2</ele>
        <time>2025-10-05T09:53:55.000Z</time>
      </trkpt>
      <trkpt lat="49.58019" lon="3.43426">
        <ele>232.2</ele>
        <time>2025-10-05T09:53:56.000Z</time>
      </trkpt>
      <trkpt lat="49.58018" lon="3.43426">
        <ele>232.3</ele>
        <time>2025-10-05T09:53:57.000Z</time>
      </trkpt>
      <trkpt lat="49.58018" lon="3.43426">
        <ele>232.4</ele>
        <time>2025-10-05T09:53:58.000Z</time>
      </trkpt>
      <trkpt lat="49.58018" lon="3.43426">
        <ele>232.3</ele>
        <time>2025-10-05T09:53:59.000Z</time>
      </trkpt>
      <trkpt lat="49.58018" lon="3.43426">
        <ele>232.3</ele>
        <time>2025-10-05T09:54:00.000Z</time>
      </trkpt>
      <trkpt lat="49.58018" lon="3.43426">
        <ele>232.3</ele>
        <time>2025-10-05T09:54:01.000Z</time>
      </trkpt>
      <trkpt lat="49.58018" lon="3.43426">
        <ele>232.3</ele>
        <time>2025-10-05T09:54:02.000Z</time>
      </trkpt>
      <trkpt lat="49.58018" lon="3.43426">
        <ele>232.3</ele>
        <time>2025-10-05T09:54:03.000Z</time>
      </trkpt>
      <trkpt lat="49.58018" lon="3.43426">
        <ele>232.3</ele>
        <time>2025-10-05T09:54:04.000Z</time>
      </trkpt>
      <trkpt lat="49.58018" lon="3.43426">
        <ele>232.3</ele>
        <time>2025-10-05T09:54:05.000Z</time>
      </trkpt>
      <trkpt lat="49.58018" lon="3.43426">
        <ele>232.3</ele>
        <time>2025-10-05T09:54:06.000Z</time>
      </trkpt>
      <trkpt lat="49.58018" lon="3.43426">
        <ele>232.3</ele>
        <time>2025-10-05T09:54:07.000Z</time>
      </trkpt>
      <trkpt lat="49.58018" lon="3.43426">
        <ele>232.3</ele>
        <time>2025-10-05T09:54:08.000Z</time>
      </trkpt>
      <trkpt lat="49.58018" lon="3.43426">
        <ele>232.3</ele>
        <time>2025-10-05T09:54:09.000Z</time>
      </trkpt>
      <trkpt lat="49.58018" lon="3.43426">
        <ele>232.3</ele>
        <time>2025-10-05T09:54:10.000Z</time>
      </trkpt>
      <trkpt lat="49.58018" lon="3.43426">
        <ele>232.3</ele>
        <time>2025-10-05T09:54:11.000Z</time>
      </trkpt>
      <trkpt lat="49.58018" lon="3.43426">
        <ele>232.3</ele>
        <time>2025-10-05T09:54:12.000Z</time>
      </trkpt>
      <trkpt lat="49.58018" lon="3.43426">
        <ele>232.3</ele>
        <time>2025-10-05T09:54:13.000Z</time>
      </trkpt>
      <trkpt lat="49.58018" lon="3.43426">
        <ele>232.3</ele>
        <time>2025-10-05T09:54:14.000Z</time>
      </trkpt>
      <trkpt lat="49.58018" lon="3.43426">
        <ele>232.3</ele>
        <time>2025-10-05T09:54:15.000Z</time>
      </trkpt>
      <trkpt lat="49.58018" lon="3.43426">
        <ele>232.3</ele>
        <time>2025-10-05T09:54:16.000Z</time>
      </trkpt>
      <trkpt lat="49.58018" lon="3.43426">
        <ele>232.3</ele>
        <time>2025-10-05T09:54:17.000Z</time>
      </trkpt>
      <trkpt lat="49.58018" lon="3.43426">
        <ele>232.3</ele>
        <time>2025-10-05T09:54:18.000Z</time>
      </trkpt>
      <trkpt lat="49.58018" lon="3.43426">
        <ele>232.3</ele>
        <time>2025-10-05T09:54:19.000Z</time>
      </trkpt>
      <trkpt lat="49.58013" lon="3.43427">
        <ele>229.1</ele>
        <time>2025-10-05T09:54:20.000Z</time>
      </trkpt>
      <trkpt lat="49.58013" lon="3.43426">
        <ele>229.1</ele>
        <time>2025-10-05T09:54:21.000Z</time>
      </trkpt>
      <trkpt lat="49.58013" lon="3.43424">
        <ele>229.1</ele>
        <time>2025-10-05T09:54:22.000Z</time>
      </trkpt>
      <trkpt lat="49.58013" lon="3.43422">
        <ele>229</ele>
        <time>2025-10-05T09:54:23.000Z</time>
      </trkpt>
      <trkpt lat="49.58014" lon="3.43421">
        <ele>229.1</ele>
        <time>2025-10-05T09:54:24.000Z</time>
      </trkpt>
      <trkpt lat="49.58014" lon="3.43419">
        <ele>229.3</ele>
        <time>2025-10-05T09:54:25.000Z</time>
      </trkpt>
      <trkpt lat="49.58014" lon="3.43418">
        <ele>229.4</ele>
        <time>2025-10-05T09:54:26.000Z</time>
      </trkpt>
      <trkpt lat="49.58014" lon="3.43417">
        <ele>229.5</ele>
        <time>2025-10-05T09:54:27.000Z</time>
      </trkpt>
      <trkpt lat="49.58015" lon="3.43415">
        <ele>229.6</ele>
        <time>2025-10-05T09:54:28.000Z</time>
      </trkpt>
      <trkpt lat="49.58015" lon="3.43414">
        <ele>229.9</ele>
        <time>2025-10-05T09:54:29.000Z</time>
      </trkpt>
      <trkpt lat="49.58015" lon="3.43414">
        <ele>230.1</ele>
        <time>2025-10-05T09:54:30.000Z</time>
      </trkpt>
      <trkpt lat="49.58015" lon="3.43414">
        <ele>230.1</ele>
        <time>2025-10-05T09:54:31.000Z</time>
      </trkpt>
      <trkpt lat="49.58015" lon="3.43414">
        <ele>230.1</ele>
        <time>2025-10-05T09:54:32.000Z</time>
      </trkpt>
      <trkpt lat="49.58016" lon="3.43414">
        <ele>230.3</ele>
        <time>2025-10-05T09:54:33.000Z</time>
      </trkpt>
      <trkpt lat="49.58016" lon="3.43414">
        <ele>230.4</ele>
        <time>2025-10-05T09:54:34.000Z</time>
      </trkpt>
      <trkpt lat="49.58016" lon="3.43414">
        <ele>230.4</ele>
        <time>2025-10-05T09:54:35.000Z</time>
      </trkpt>
      <trkpt lat="49.58016" lon="3.43414">
        <ele>230.4</ele>
        <time>2025-10-05T09:54:36.000Z</time>
      </trkpt>
      <trkpt lat="49.58016" lon="3.43414">
        <ele>230.4</ele>
        <time>2025-10-05T09:54:37.000Z</time>
      </trkpt>
      <trkpt lat="49.58016" lon="3.43414">
        <ele>230.4</ele>
        <time>2025-10-05T09:54:38.000Z</time>
      </trkpt>
      <trkpt lat="49.58013" lon="3.43415">
        <ele>229.9</ele>
        <time>2025-10-05T09:54:39.000Z</time>
      </trkpt>
      <trkpt lat="49.58013" lon="3.43415">
        <ele>229.7</ele>
        <time>2025-10-05T09:54:40.000Z</time>
      </trkpt>
      <trkpt lat="49.58012" lon="3.43415">
        <ele>229.4</ele>
        <time>2025-10-05T09:54:41.000Z</time>
      </trkpt>
      <trkpt lat="49.58012" lon="3.43414">
        <ele>229.3</ele>
        <time>2025-10-05T09:54:42.000Z</time>
      </trkpt>
      <trkpt lat="49.58011" lon="3.43413">
        <ele>229.2</ele>
        <time>2025-10-05T09:54:43.000Z</time>
      </trkpt>
      <trkpt lat="49.58012" lon="3.43412">
        <ele>229.3</ele>
        <time>2025-10-05T09:54:44.000Z</time>
      </trkpt>
      <trkpt lat="49.58012" lon="3.43411">
        <ele>229.5</ele>
        <time>2025-10-05T09:54:45.000Z</time>
      </trkpt>
      <trkpt lat="49.58012" lon="3.4341">
        <ele>229.6</ele>
        <time>2025-10-05T09:54:46.000Z</time>
      </trkpt>
      <trkpt lat="49.58011" lon="3.4341">
        <ele>229.6</ele>
        <time>2025-10-05T09:54:47.000Z</time>
      </trkpt>
      <trkpt lat="49.58011" lon="3.4341">
        <ele>229.8</ele>
        <time>2025-10-05T09:54:48.000Z</time>
      </trkpt>
      <trkpt lat="49.5801" lon="3.4341">
        <ele>229.7</ele>
        <time>2025-10-05T09:54:49.000Z</time>
      </trkpt>
      <trkpt lat="49.5801" lon="3.4341">
        <ele>229.7</ele>
        <time>2025-10-05T09:54:50.000Z</time>
      </trkpt>
      <trkpt lat="49.58009" lon="3.43409">
        <ele>229.7</ele>
        <time>2025-10-05T09:54:51.000Z</time>
      </trkpt>
      <trkpt lat="49.58009" lon="3.43408">
        <ele>229.8</ele>
        <time>2025-10-05T09:54:52.000Z</time>
      </trkpt>
      <trkpt lat="49.58009" lon="3.43408">
        <ele>230.1</ele>
        <time>2025-10-05T09:54:53.000Z</time>
      </trkpt>
      <trkpt lat="49.58008" lon="3.43409">
        <ele>230.1</ele>
        <time>2025-10-05T09:54:54.000Z</time>
      </trkpt>
      <trkpt lat="49.58007" lon="3.43408">
        <ele>230</ele>
        <time>2025-10-05T09:54:55.000Z</time>
      </trkpt>
      <trkpt lat="49.58006" lon="3.43408">
        <ele>229.9</ele>
        <time>2025-10-05T09:54:56.000Z</time>
      </trkpt>
      <trkpt lat="49.58005" lon="3.43407">
        <ele>229.7</ele>
        <time>2025-10-05T09:54:57.000Z</time>
      </trkpt>
      <trkpt lat="49.58005" lon="3.43407">
        <ele>229.7</ele>
        <time>2025-10-05T09:54:58.000Z</time>
      </trkpt>
      <trkpt lat="49.58004" lon="3.43407">
        <ele>229.7</ele>
        <time>2025-10-05T09:54:59.000Z</time>
      </trkpt>
      <trkpt lat="49.58004" lon="3.43406">
        <ele>229.3</ele>
        <time>2025-10-05T09:55:00.000Z</time>
      </trkpt>
      <trkpt lat="49.58004" lon="3.43406">
        <ele>229</ele>
        <time>2025-10-05T09:55:01.000Z</time>
      </trkpt>
      <trkpt lat="49.58004" lon="3.43406">
        <ele>228.9</ele>
        <time>2025-10-05T09:55:02.000Z</time>
      </trkpt>
      <trkpt lat="49.58004" lon="3.43406">
        <ele>228.7</ele>
        <time>2025-10-05T09:55:03.000Z</time>
      </trkpt>
      <trkpt lat="49.58004" lon="3.43406">
        <ele>228.3</ele>
        <time>2025-10-05T09:55:04.000Z</time>
      </trkpt>
      <trkpt lat="49.58004" lon="3.43407">
        <ele>227.9</ele>
        <time>2025-10-05T09:55:05.000Z</time>
      </trkpt>
      <trkpt lat="49.58004" lon="3.43407">
        <ele>227.8</ele>
        <time>2025-10-05T09:55:06.000Z</time>
      </trkpt>
      <trkpt lat="49.58005" lon="3.43408">
        <ele>227.6</ele>
        <time>2025-10-05T09:55:07.000Z</time>
      </trkpt>
      <trkpt lat="49.58005" lon="3.43408">
        <ele>227.5</ele>
        <time>2025-10-05T09:55:08.000Z</time>
      </trkpt>
      <trkpt lat="49.58006" lon="3.43409">
        <ele>227.5</ele>
        <time>2025-10-05T09:55:09.000Z</time>
      </trkpt>
      <trkpt lat="49.58007" lon="3.43409">
        <ele>227.6</ele>
        <time>2025-10-05T09:55:10.000Z</time>
      </trkpt>
      <trkpt lat="49.58008" lon="3.4341">
        <ele>227.8</ele>
        <time>2025-10-05T09:55:11.000Z</time>
      </trkpt>
      <trkpt lat="49.58009" lon="3.4341">
        <ele>228</ele>
        <time>2025-10-05T09:55:12.000Z</time>
      </trkpt>
      <trkpt lat="49.5801" lon="3.4341">
        <ele>227.9</ele>
        <time>2025-10-05T09:55:13.000Z</time>
      </trkpt>
      <trkpt lat="49.58011" lon="3.4341">
        <ele>228.1</ele>
        <time>2025-10-05T09:55:14.000Z</time>
      </trkpt>
      <trkpt lat="49.58012" lon="3.43411">
        <ele>228.2</ele>
        <time>2025-10-05T09:55:15.000Z</time>
      </trkpt>
      <trkpt lat="49.58012" lon="3.43411">
        <ele>228.6</ele>
        <time>2025-10-05T09:55:16.000Z</time>
      </trkpt>
      <trkpt lat="49.58013" lon="3.4341">
        <ele>228.9</ele>
        <time>2025-10-05T09:55:17.000Z</time>
      </trkpt>
      <trkpt lat="49.58014" lon="3.4341">
        <ele>229.1</ele>
        <time>2025-10-05T09:55:18.000Z</time>
      </trkpt>
      <trkpt lat="49.58014" lon="3.4341">
        <ele>229.3</ele>
        <time>2025-10-05T09:55:19.000Z</time>
      </trkpt>
      <trkpt lat="49.58014" lon="3.43409">
        <ele>229.6</ele>
        <time>2025-10-05T09:55:20.000Z</time>
      </trkpt>
      <trkpt lat="49.58014" lon="3.43409">
        <ele>230</ele>
        <time>2025-10-05T09:55:21.000Z</time>
      </trkpt>
      <trkpt lat="49.58014" lon="3.43409">
        <ele>230.3</ele>
        <time>2025-10-05T09:55:22.000Z</time>
      </trkpt>
      <trkpt lat="49.58014" lon="3.43409">
        <ele>230.4</ele>
        <time>2025-10-05T09:55:23.000Z</time>
      </trkpt>
      <trkpt lat="49.58013" lon="3.43408">
        <ele>230.6</ele>
        <time>2025-10-05T09:55:24.000Z</time>
      </trkpt>
      <trkpt lat="49.58013" lon="3.43408">
        <ele>230.6</ele>
        <time>2025-10-05T09:55:25.000Z</time>
      </trkpt>
      <trkpt lat="49.58013" lon="3.43408">
        <ele>230.6</ele>
        <time>2025-10-05T09:55:26.000Z</time>
      </trkpt>
      <trkpt lat="49.58013" lon="3.43408">
        <ele>230.6</ele>
        <time>2025-10-05T09:55:27.000Z</time>
      </trkpt>
      <trkpt lat="49.58013" lon="3.43408">
        <ele>230.6</ele>
        <time>2025-10-05T09:55:28.000Z</time>
      </trkpt>
      <trkpt lat="49.58013" lon="3.43408">
        <ele>230.6</ele>
        <time>2025-10-05T09:55:29.000Z</time>
      </trkpt>
      <trkpt lat="49.58013" lon="3.43408">
        <ele>230.6</ele>
        <time>2025-10-05T09:55:30.000Z</time>
      </trkpt>
      <trkpt lat="49.58013" lon="3.43408">
        <ele>230.6</ele>
        <time>2025-10-05T09:55:31.000Z</time>
      </trkpt>
      <trkpt lat="49.58013" lon="3.43408">
        <ele>230.6</ele>
        <time>2025-10-05T09:55:32.000Z</time>
      </trkpt>
      <trkpt lat="49.58013" lon="3.43408">
        <ele>230.6</ele>
        <time>2025-10-05T09:55:33.000Z</time>
      </trkpt>
      <trkpt lat="49.58013" lon="3.43408">
        <ele>230.6</ele>
        <time>2025-10-05T09:55:34.000Z</time>
      </trkpt>
      <trkpt lat="49.58013" lon="3.43408">
        <ele>230.6</ele>
        <time>2025-10-05T09:55:35.000Z</time>
      </trkpt>
      <trkpt lat="49.58013" lon="3.43408">
        <ele>230.6</ele>
        <time>2025-10-05T09:55:36.000Z</time>
      </trkpt>
      <trkpt lat="49.58013" lon="3.43408">
        <ele>230.6</ele>
        <time>2025-10-05T09:55:37.000Z</time>
      </trkpt>
      <trkpt lat="49.58013" lon="3.43408">
        <ele>230.6</ele>
        <time>2025-10-05T09:55:38.000Z</time>
      </trkpt>
      <trkpt lat="49.58013" lon="3.43408">
        <ele>230.6</ele>
        <time>2025-10-05T09:55:39.000Z</time>
      </trkpt>
      <trkpt lat="49.58013" lon="3.43408">
        <ele>230.6</ele>
        <time>2025-10-05T09:55:40.000Z</time>
      </trkpt>
      <trkpt lat="49.58013" lon="3.43408">
        <ele>230.6</ele>
        <time>2025-10-05T09:55:41.000Z</time>
      </trkpt>
      <trkpt lat="49.58013" lon="3.43408">
        <ele>230.6</ele>
        <time>2025-10-05T09:55:42.000Z</time>
      </trkpt>
      <trkpt lat="49.58013" lon="3.43408">
        <ele>230.6</ele>
        <time>2025-10-05T09:55:43.000Z</time>
      </trkpt>
      <trkpt lat="49.58013" lon="3.43408">
        <ele>230.6</ele>
        <time>2025-10-05T09:55:44.000Z</time>
      </trkpt>
      <trkpt lat="49.58013" lon="3.43408">
        <ele>230.6</ele>
        <time>2025-10-05T09:55:45.000Z</time>
      </trkpt>
      <trkpt lat="49.58013" lon="3.43408">
        <ele>230.6</ele>
        <time>2025-10-05T09:55:46.000Z</time>
      </trkpt>
      <trkpt lat="49.58013" lon="3.43408">
        <ele>230.6</ele>
        <time>2025-10-05T09:55:47.000Z</time>
      </trkpt>
      <trkpt lat="49.58013" lon="3.43408">
        <ele>230.6</ele>
        <time>2025-10-05T09:55:48.000Z</time>
      </trkpt>
      <trkpt lat="49.58013" lon="3.43408">
        <ele>230.6</ele>
        <time>2025-10-05T09:55:49.000Z</time>
      </trkpt>
      <trkpt lat="49.58013" lon="3.43408">
        <ele>230.6</ele>
        <time>2025-10-05T09:55:50.000Z</time>
      </trkpt>
      <trkpt lat="49.58013" lon="3.43408">
        <ele>230.6</ele>
        <time>2025-10-05T09:55:51.000Z</time>
      </trkpt>
      <trkpt lat="49.58013" lon="3.43408">
        <ele>230.6</ele>
        <time>2025-10-05T09:55:52.000Z</time>
      </trkpt>
      <trkpt lat="49.58013" lon="3.43408">
        <ele>230.6</ele>
        <time>2025-10-05T09:55:53.000Z</time>
      </trkpt>
      <trkpt lat="49.58013" lon="3.43408">
        <ele>230.6</ele>
        <time>2025-10-05T09:55:54.000Z</time>
      </trkpt>
      <trkpt lat="49.58013" lon="3.43408">
        <ele>230.6</ele>
        <time>2025-10-05T09:55:55.000Z</time>
      </trkpt>
      <trkpt lat="49.58013" lon="3.43408">
        <ele>230.6</ele>
        <time>2025-10-05T09:55:56.000Z</time>
      </trkpt>
      <trkpt lat="49.58013" lon="3.43408">
        <ele>230.6</ele>
        <time>2025-10-05T09:55:57.000Z</time>
      </trkpt>
      <trkpt lat="49.58013" lon="3.43408">
        <ele>230.6</ele>
        <time>2025-10-05T09:55:58.000Z</time>
      </trkpt>
      <trkpt lat="49.58013" lon="3.43408">
        <ele>230.6</ele>
        <time>2025-10-05T09:55:59.000Z</time>
      </trkpt>
      <trkpt lat="49.58013" lon="3.43408">
        <ele>230.6</ele>
        <time>2025-10-05T09:56:00.000Z</time>
      </trkpt>
      <trkpt lat="49.58013" lon="3.43408">
        <ele>230.6</ele>
        <time>2025-10-05T09:56:01.000Z</time>
      </trkpt>
      <trkpt lat="49.58013" lon="3.43408">
        <ele>230.6</ele>
        <time>2025-10-05T09:56:02.000Z</time>
      </trkpt>
      <trkpt lat="49.58013" lon="3.43408">
        <ele>230.6</ele>
        <time>2025-10-05T09:56:03.000Z</time>
      </trkpt>
      <trkpt lat="49.58013" lon="3.43408">
        <ele>230.6</ele>
        <time>2025-10-05T09:56:04.000Z</time>
      </trkpt>
      <trkpt lat="49.58013" lon="3.43408">
        <ele>230.6</ele>
        <time>2025-10-05T09:56:05.000Z</time>
      </trkpt>
      <trkpt lat="49.58013" lon="3.43408">
        <ele>230.6</ele>
        <time>2025-10-05T09:56:06.000Z</time>
      </trkpt>
      <trkpt lat="49.58013" lon="3.43408">
        <ele>230.6</ele>
        <time>2025-10-05T09:56:07.000Z</time>
      </trkpt>
      <trkpt lat="49.58013" lon="3.43408">
        <ele>230.6</ele>
        <time>2025-10-05T09:56:08.000Z</time>
      </trkpt>
      <trkpt lat="49.58013" lon="3.43408">
        <ele>230.6</ele>
        <time>2025-10-05T09:56:09.000Z</time>
      </trkpt>
      <trkpt lat="49.58013" lon="3.43408">
        <ele>230.6</ele>
        <time>2025-10-05T09:56:10.000Z</time>
      </trkpt>
      <trkpt lat="49.58013" lon="3.43408">
        <ele>230.6</ele>
        <time>2025-10-05T09:56:11.000Z</time>
      </trkpt>
      <trkpt lat="49.58013" lon="3.43408">
        <ele>230.6</ele>
        <time>2025-10-05T09:56:12.000Z</time>
      </trkpt>
      <trkpt lat="49.58013" lon="3.43408">
        <ele>230.6</ele>
        <time>2025-10-05T09:56:13.000Z</time>
      </trkpt>
      <trkpt lat="49.58013" lon="3.43408">
        <ele>230.6</ele>
        <time>2025-10-05T09:56:14.000Z</time>
      </trkpt>
      <trkpt lat="49.58013" lon="3.43408">
        <ele>230.6</ele>
        <time>2025-10-05T09:56:15.000Z</time>
      </trkpt>
      <trkpt lat="49.58013" lon="3.43408">
        <ele>230.6</ele>
        <time>2025-10-05T09:56:16.000Z</time>
      </trkpt>
      <trkpt lat="49.58013" lon="3.43408">
        <ele>230.6</ele>
        <time>2025-10-05T09:56:17.000Z</time>
      </trkpt>
      <trkpt lat="49.58013" lon="3.43408">
        <ele>230.6</ele>
        <time>2025-10-05T09:56:18.000Z</time>
      </trkpt>
      <trkpt lat="49.58013" lon="3.43408">
        <ele>230.6</ele>
        <time>2025-10-05T09:56:19.000Z</time>
      </trkpt>
      <trkpt lat="49.58013" lon="3.43408">
        <ele>230.6</ele>
        <time>2025-10-05T09:56:20.000Z</time>
      </trkpt>
      <trkpt lat="49.58013" lon="3.43408">
        <ele>230.6</ele>
        <time>2025-10-05T09:56:21.000Z</time>
      </trkpt>
      <trkpt lat="49.58013" lon="3.43408">
        <ele>230.6</ele>
        <time>2025-10-05T09:56:22.000Z</time>
      </trkpt>
      <trkpt lat="49.58013" lon="3.43408">
        <ele>230.6</ele>
        <time>2025-10-05T09:56:23.000Z</time>
      </trkpt>
      <trkpt lat="49.58013" lon="3.43408">
        <ele>230.6</ele>
        <time>2025-10-05T09:56:24.000Z</time>
      </trkpt>
      <trkpt lat="49.58013" lon="3.43408">
        <ele>230.6</ele>
        <time>2025-10-05T09:56:25.000Z</time>
      </trkpt>
      <trkpt lat="49.58013" lon="3.43408">
        <ele>230.6</ele>
        <time>2025-10-05T09:56:26.000Z</time>
      </trkpt>
      <trkpt lat="49.58013" lon="3.43408">
        <ele>230.6</ele>
        <time>2025-10-05T09:56:27.000Z</time>
      </trkpt>
      <trkpt lat="49.58013" lon="3.43408">
        <ele>230.6</ele>
        <time>2025-10-05T09:56:28.000Z</time>
      </trkpt>
      <trkpt lat="49.58013" lon="3.43408">
        <ele>230.6</ele>
        <time>2025-10-05T09:56:29.000Z</time>
      </trkpt>
      <trkpt lat="49.58013" lon="3.43408">
        <ele>230.6</ele>
        <time>2025-10-05T09:56:30.000Z</time>
      </trkpt>
      <trkpt lat="49.58013" lon="3.43408">
        <ele>230.6</ele>
        <time>2025-10-05T09:56:31.000Z</time>
      </trkpt>
      <trkpt lat="49.58013" lon="3.43408">
        <ele>230.6</ele>
        <time>2025-10-05T09:56:32.000Z</time>
      </trkpt>
      <trkpt lat="49.58013" lon="3.43408">
        <ele>230.6</ele>
        <time>2025-10-05T09:56:33.000Z</time>
      </trkpt>
      <trkpt lat="49.58013" lon="3.43408">
        <ele>230.6</ele>
        <time>2025-10-05T09:56:34.000Z</time>
      </trkpt>
      <trkpt lat="49.58013" lon="3.43408">
        <ele>230.6</ele>
        <time>2025-10-05T09:56:35.000Z</time>
      </trkpt>
      <trkpt lat="49.58013" lon="3.43408">
        <ele>230.6</ele>
        <time>2025-10-05T09:56:36.000Z</time>
      </trkpt>
      <trkpt lat="49.58013" lon="3.43408">
        <ele>230.6</ele>
        <time>2025-10-05T09:56:37.000Z</time>
      </trkpt>
      <trkpt lat="49.58013" lon="3.43408">
        <ele>230.6</ele>
        <time>2025-10-05T09:56:38.000Z</time>
      </trkpt>
      <trkpt lat="49.58013" lon="3.43408">
        <ele>230.6</ele>
        <time>2025-10-05T09:56:39.000Z</time>
      </trkpt>
      <trkpt lat="49.58013" lon="3.43408">
        <ele>230.6</ele>
        <time>2025-10-05T09:56:40.000Z</time>
      </trkpt>
      <trkpt lat="49.58013" lon="3.43408">
        <ele>230.6</ele>
        <time>2025-10-05T09:56:41.000Z</time>
      </trkpt>
      <trkpt lat="49.58013" lon="3.43408">
        <ele>230.6</ele>
        <time>2025-10-05T09:56:42.000Z</time>
      </trkpt>
      <trkpt lat="49.58013" lon="3.43408">
        <ele>230.6</ele>
        <time>2025-10-05T09:56:43.000Z</time>
      </trkpt>
      <trkpt lat="49.58013" lon="3.43408">
        <ele>230.6</ele>
        <time>2025-10-05T09:56:44.000Z</time>
      </trkpt>
      <trkpt lat="49.58013" lon="3.43408">
        <ele>230.6</ele>
        <time>2025-10-05T09:56:45.000Z</time>
      </trkpt>
      <trkpt lat="49.58013" lon="3.43408">
        <ele>230.6</ele>
        <time>2025-10-05T09:56:46.000Z</time>
      </trkpt>
      <trkpt lat="49.58013" lon="3.43408">
        <ele>230.6</ele>
        <time>2025-10-05T09:56:47.000Z</time>
      </trkpt>
      <trkpt lat="49.58013" lon="3.43408">
        <ele>230.6</ele>
        <time>2025-10-05T09:56:48.000Z</time>
      </trkpt>
      <trkpt lat="49.58013" lon="3.43408">
        <ele>230.6</ele>
        <time>2025-10-05T09:56:49.000Z</time>
      </trkpt>
      <trkpt lat="49.58013" lon="3.43408">
        <ele>230.6</ele>
        <time>2025-10-05T09:56:50.000Z</time>
      </trkpt>
      <trkpt lat="49.58013" lon="3.43408">
        <ele>230.6</ele>
        <time>2025-10-05T09:56:51.000Z</time>
      </trkpt>
      <trkpt lat="49.58013" lon="3.43408">
        <ele>230.6</ele>
        <time>2025-10-05T09:56:52.000Z</time>
      </trkpt>
      <trkpt lat="49.58013" lon="3.43408">
        <ele>230.6</ele>
        <time>2025-10-05T09:56:53.000Z</time>
      </trkpt>
      <trkpt lat="49.58013" lon="3.43408">
        <ele>230.6</ele>
        <time>2025-10-05T09:56:54.000Z</time>
      </trkpt>
      <trkpt lat="49.58013" lon="3.43408">
        <ele>230.6</ele>
        <time>2025-10-05T09:56:55.000Z</time>
      </trkpt>
      <trkpt lat="49.58013" lon="3.43408">
        <ele>230.6</ele>
        <time>2025-10-05T09:56:56.000Z</time>
      </trkpt>
      <trkpt lat="49.58013" lon="3.43408">
        <ele>230.6</ele>
        <time>2025-10-05T09:56:57.000Z</time>
      </trkpt>
      <trkpt lat="49.58013" lon="3.43408">
        <ele>230.6</ele>
        <time>2025-10-05T09:56:58.000Z</time>
      </trkpt>
      <trkpt lat="49.58013" lon="3.43408">
        <ele>230.6</ele>
        <time>2025-10-05T09:56:59.000Z</time>
      </trkpt>
      <trkpt lat="49.58013" lon="3.43408">
        <ele>230.6</ele>
        <time>2025-10-05T09:57:00.000Z</time>
      </trkpt>
      <trkpt lat="49.58013" lon="3.43408">
        <ele>230.6</ele>
        <time>2025-10-05T09:57:01.000Z</time>
      </trkpt>
      <trkpt lat="49.58013" lon="3.43408">
        <ele>230.6</ele>
        <time>2025-10-05T09:57:02.000Z</time>
      </trkpt>
      <trkpt lat="49.58013" lon="3.43408">
        <ele>230.6</ele>
        <time>2025-10-05T09:57:03.000Z</time>
      </trkpt>
      <trkpt lat="49.58013" lon="3.43408">
        <ele>230.6</ele>
        <time>2025-10-05T09:57:04.000Z</time>
      </trkpt>
      <trkpt lat="49.58013" lon="3.43408">
        <ele>230.6</ele>
        <time>2025-10-05T09:57:05.000Z</time>
      </trkpt>
      <trkpt lat="49.58013" lon="3.43408">
        <ele>230.6</ele>
        <time>2025-10-05T09:57:06.000Z</time>
      </trkpt>
      <trkpt lat="49.58013" lon="3.43408">
        <ele>230.6</ele>
        <time>2025-10-05T09:57:07.000Z</time>
      </trkpt>
      <trkpt lat="49.58013" lon="3.43408">
        <ele>230.6</ele>
        <time>2025-10-05T09:57:08.000Z</time>
      </trkpt>
      <trkpt lat="49.58013" lon="3.43408">
        <ele>230.6</ele>
        <time>2025-10-05T09:57:09.000Z</time>
      </trkpt>
      <trkpt lat="49.58013" lon="3.43408">
        <ele>230.6</ele>
        <time>2025-10-05T09:57:10.000Z</time>
      </trkpt>
      <trkpt lat="49.58013" lon="3.43408">
        <ele>230.6</ele>
        <time>2025-10-05T09:57:11.000Z</time>
      </trkpt>
      <trkpt lat="49.58013" lon="3.43408">
        <ele>230.6</ele>
        <time>2025-10-05T09:57:12.000Z</time>
      </trkpt>
      <trkpt lat="49.58013" lon="3.43408">
        <ele>230.6</ele>
        <time>2025-10-05T09:57:13.000Z</time>
      </trkpt>
      <trkpt lat="49.58013" lon="3.43408">
        <ele>230.6</ele>
        <time>2025-10-05T09:57:14.000Z</time>
      </trkpt>
      <trkpt lat="49.58013" lon="3.43408">
        <ele>230.6</ele>
        <time>2025-10-05T09:57:15.000Z</time>
      </trkpt>
      <trkpt lat="49.58013" lon="3.43408">
        <ele>230.6</ele>
        <time>2025-10-05T09:57:16.000Z</time>
      </trkpt>
      <trkpt lat="49.58013" lon="3.43408">
        <ele>230.6</ele>
        <time>2025-10-05T09:57:17.000Z</time>
      </trkpt>
      <trkpt lat="49.58013" lon="3.43408">
        <ele>230.6</ele>
        <time>2025-10-05T09:57:18.000Z</time>
      </trkpt>
      <trkpt lat="49.58013" lon="3.43408">
        <ele>230.6</ele>
        <time>2025-10-05T09:57:19.000Z</time>
      </trkpt>
      <trkpt lat="49.58013" lon="3.43408">
        <ele>230.6</ele>
        <time>2025-10-05T09:57:20.000Z</time>
      </trkpt>
      <trkpt lat="49.58013" lon="3.43408">
        <ele>230.6</ele>
        <time>2025-10-05T09:57:21.000Z</time>
      </trkpt>
      <trkpt lat="49.58013" lon="3.43409">
        <ele>233.9</ele>
        <time>2025-10-05T09:57:22.000Z</time>
      </trkpt>
      <trkpt lat="49.58013" lon="3.43408">
        <ele>233.9</ele>
        <time>2025-10-05T09:57:23.000Z</time>
      </trkpt>
      <trkpt lat="49.58013" lon="3.43408">
        <ele>233.9</ele>
        <time>2025-10-05T09:57:24.000Z</time>
      </trkpt>
      <trkpt lat="49.58014" lon="3.43409">
        <ele>234</ele>
        <time>2025-10-05T09:57:25.000Z</time>
      </trkpt>
      <trkpt lat="49.58014" lon="3.43409">
        <ele>234</ele>
        <time>2025-10-05T09:57:26.000Z</time>
      </trkpt>
      <trkpt lat="49.58014" lon="3.43409">
        <ele>234</ele>
        <time>2025-10-05T09:57:27.000Z</time>
      </trkpt>
      <trkpt lat="49.58014" lon="3.43409">
        <ele>234</ele>
        <time>2025-10-05T09:57:28.000Z</time>
      </trkpt>
      <trkpt lat="49.58014" lon="3.43409">
        <ele>234</ele>
        <time>2025-10-05T09:57:29.000Z</time>
      </trkpt>
      <trkpt lat="49.58014" lon="3.43409">
        <ele>234</ele>
        <time>2025-10-05T09:57:30.000Z</time>
      </trkpt>
      <trkpt lat="49.58014" lon="3.43409">
        <ele>234</ele>
        <time>2025-10-05T09:57:31.000Z</time>
      </trkpt>
      <trkpt lat="49.58016" lon="3.43409">
        <ele>234.4</ele>
        <time>2025-10-05T09:57:32.000Z</time>
      </trkpt>
      <trkpt lat="49.58016" lon="3.43409">
        <ele>234.4</ele>
        <time>2025-10-05T09:57:33.000Z</time>
      </trkpt>
      <trkpt lat="49.58017" lon="3.4341">
        <ele>234.3</ele>
        <time>2025-10-05T09:57:34.000Z</time>
      </trkpt>
      <trkpt lat="49.58017" lon="3.43411">
        <ele>234.2</ele>
        <time>2025-10-05T09:57:35.000Z</time>
      </trkpt>
      <trkpt lat="49.58018" lon="3.43411">
        <ele>234</ele>
        <time>2025-10-05T09:57:36.000Z</time>
      </trkpt>
      <trkpt lat="49.58018" lon="3.43412">
        <ele>233.9</ele>
        <time>2025-10-05T09:57:37.000Z</time>
      </trkpt>
      <trkpt lat="49.58019" lon="3.43412">
        <ele>233.8</ele>
        <time>2025-10-05T09:57:38.000Z</time>
      </trkpt>
      <trkpt lat="49.5802" lon="3.43412">
        <ele>233.9</ele>
        <time>2025-10-05T09:57:39.000Z</time>
      </trkpt>
      <trkpt lat="49.5802" lon="3.43412">
        <ele>233.9</ele>
        <time>2025-10-05T09:57:40.000Z</time>
      </trkpt>
      <trkpt lat="49.5802" lon="3.43411">
        <ele>233.9</ele>
        <time>2025-10-05T09:57:41.000Z</time>
      </trkpt>
      <trkpt lat="49.58021" lon="3.43411">
        <ele>233.8</ele>
        <time>2025-10-05T09:57:42.000Z</time>
      </trkpt>
      <trkpt lat="49.58021" lon="3.43411">
        <ele>233.7</ele>
        <time>2025-10-05T09:57:43.000Z</time>
      </trkpt>
      <trkpt lat="49.58022" lon="3.4341">
        <ele>233.5</ele>
        <time>2025-10-05T09:57:44.000Z</time>
      </trkpt>
      <trkpt lat="49.58022" lon="3.43409">
        <ele>233.5</ele>
        <time>2025-10-05T09:57:45.000Z</time>
      </trkpt>
      <trkpt lat="49.58021" lon="3.43408">
        <ele>233.3</ele>
        <time>2025-10-05T09:57:46.000Z</time>
      </trkpt>
      <trkpt lat="49.58022" lon="3.43408">
        <ele>233.3</ele>
        <time>2025-10-05T09:57:47.000Z</time>
      </trkpt>
      <trkpt lat="49.58021" lon="3.43407">
        <ele>233.1</ele>
        <time>2025-10-05T09:57:48.000Z</time>
      </trkpt>
      <trkpt lat="49.58022" lon="3.43406">
        <ele>233.1</ele>
        <time>2025-10-05T09:57:49.000Z</time>
      </trkpt>
      <trkpt lat="49.58021" lon="3.43405">
        <ele>232.9</ele>
        <time>2025-10-05T09:57:50.000Z</time>
      </trkpt>
      <trkpt lat="49.58021" lon="3.43404">
        <ele>232.9</ele>
        <time>2025-10-05T09:57:51.000Z</time>
      </trkpt>
      <trkpt lat="49.5802" lon="3.43404">
        <ele>232.7</ele>
        <time>2025-10-05T09:57:52.000Z</time>
      </trkpt>
      <trkpt lat="49.5802" lon="3.43405">
        <ele>232.5</ele>
        <time>2025-10-05T09:57:53.000Z</time>
      </trkpt>
      <trkpt lat="49.58021" lon="3.43405">
        <ele>232.4</ele>
        <time>2025-10-05T09:57:54.000Z</time>
      </trkpt>
      <trkpt lat="49.58022" lon="3.43405">
        <ele>232.2</ele>
        <time>2025-10-05T09:57:55.000Z</time>
      </trkpt>
      <trkpt lat="49.58023" lon="3.43405">
        <ele>232.1</ele>
        <time>2025-10-05T09:57:56.000Z</time>
      </trkpt>
      <trkpt lat="49.58024" lon="3.43406">
        <ele>231.9</ele>
        <time>2025-10-05T09:57:57.000Z</time>
      </trkpt>
      <trkpt lat="49.58025" lon="3.43406">
        <ele>231.9</ele>
        <time>2025-10-05T09:57:58.000Z</time>
      </trkpt>
      <trkpt lat="49.58026" lon="3.43406">
        <ele>231.7</ele>
        <time>2025-10-05T09:57:59.000Z</time>
      </trkpt>
      <trkpt lat="49.58027" lon="3.43406">
        <ele>231.6</ele>
        <time>2025-10-05T09:58:00.000Z</time>
      </trkpt>
      <trkpt lat="49.58027" lon="3.43406">
        <ele>231.5</ele>
        <time>2025-10-05T09:58:01.000Z</time>
      </trkpt>
      <trkpt lat="49.58028" lon="3.43407">
        <ele>231.9</ele>
        <time>2025-10-05T09:58:02.000Z</time>
      </trkpt>
      <trkpt lat="49.58029" lon="3.43407">
        <ele>231.9</ele>
        <time>2025-10-05T09:58:03.000Z</time>
      </trkpt>
      <trkpt lat="49.5803" lon="3.43407">
        <ele>231.9</ele>
        <time>2025-10-05T09:58:04.000Z</time>
      </trkpt>
      <trkpt lat="49.58031" lon="3.43407">
        <ele>232</ele>
        <time>2025-10-05T09:58:05.000Z</time>
      </trkpt>
      <trkpt lat="49.58031" lon="3.43408">
        <ele>232</ele>
        <time>2025-10-05T09:58:06.000Z</time>
      </trkpt>
      <trkpt lat="49.58032" lon="3.43409">
        <ele>231.7</ele>
        <time>2025-10-05T09:58:07.000Z</time>
      </trkpt>
      <trkpt lat="49.58033" lon="3.4341">
        <ele>231.7</ele>
        <time>2025-10-05T09:58:08.000Z</time>
      </trkpt>
      <trkpt lat="49.58034" lon="3.43411">
        <ele>231.8</ele>
        <time>2025-10-05T09:58:09.000Z</time>
      </trkpt>
      <trkpt lat="49.58035" lon="3.43411">
        <ele>232</ele>
        <time>2025-10-05T09:58:10.000Z</time>
      </trkpt>
      <trkpt lat="49.58036" lon="3.43412">
        <ele>232</ele>
        <time>2025-10-05T09:58:11.000Z</time>
      </trkpt>
      <trkpt lat="49.58037" lon="3.43413">
        <ele>232.1</ele>
        <time>2025-10-05T09:58:12.000Z</time>
      </trkpt>
      <trkpt lat="49.58039" lon="3.43413">
        <ele>231.9</ele>
        <time>2025-10-05T09:58:13.000Z</time>
      </trkpt>
      <trkpt lat="49.5804" lon="3.43414">
        <ele>232</ele>
        <time>2025-10-05T09:58:14.000Z</time>
      </trkpt>
      <trkpt lat="49.58041" lon="3.43415">
        <ele>232</ele>
        <time>2025-10-05T09:58:15.000Z</time>
      </trkpt>
      <trkpt lat="49.58042" lon="3.43415">
        <ele>231.8</ele>
        <time>2025-10-05T09:58:16.000Z</time>
      </trkpt>
      <trkpt lat="49.58042" lon="3.43416">
        <ele>231.6</ele>
        <time>2025-10-05T09:58:17.000Z</time>
      </trkpt>
      <trkpt lat="49.58042" lon="3.43417">
        <ele>231.1</ele>
        <time>2025-10-05T09:58:18.000Z</time>
      </trkpt>
      <trkpt lat="49.58043" lon="3.43418">
        <ele>230.6</ele>
        <time>2025-10-05T09:58:19.000Z</time>
      </trkpt>
      <trkpt lat="49.58044" lon="3.43418">
        <ele>230.2</ele>
        <time>2025-10-05T09:58:20.000Z</time>
      </trkpt>
      <trkpt lat="49.58045" lon="3.43419">
        <ele>230</ele>
        <time>2025-10-05T09:58:21.000Z</time>
      </trkpt>
      <trkpt lat="49.58046" lon="3.4342">
        <ele>229.6</ele>
        <time>2025-10-05T09:58:22.000Z</time>
      </trkpt>
      <trkpt lat="49.58046" lon="3.43421">
        <ele>229.5</ele>
        <time>2025-10-05T09:58:23.000Z</time>
      </trkpt>
      <trkpt lat="49.58048" lon="3.43421">
        <ele>229.6</ele>
        <time>2025-10-05T09:58:24.000Z</time>
      </trkpt>
      <trkpt lat="49.58049" lon="3.43421">
        <ele>229.5</ele>
        <time>2025-10-05T09:58:25.000Z</time>
      </trkpt>
      <trkpt lat="49.58049" lon="3.43422">
        <ele>229.4</ele>
        <time>2025-10-05T09:58:26.000Z</time>
      </trkpt>
      <trkpt lat="49.5805" lon="3.43423">
        <ele>229.1</ele>
        <time>2025-10-05T09:58:27.000Z</time>
      </trkpt>
      <trkpt lat="49.58051" lon="3.43423">
        <ele>229</ele>
        <time>2025-10-05T09:58:28.000Z</time>
      </trkpt>
      <trkpt lat="49.58052" lon="3.43423">
        <ele>228.9</ele>
        <time>2025-10-05T09:58:29.000Z</time>
      </trkpt>
      <trkpt lat="49.58053" lon="3.43424">
        <ele>228.9</ele>
        <time>2025-10-05T09:58:30.000Z</time>
      </trkpt>
      <trkpt lat="49.58053" lon="3.43425">
        <ele>228.6</ele>
        <time>2025-10-05T09:58:31.000Z</time>
      </trkpt>
      <trkpt lat="49.58054" lon="3.43425">
        <ele>228.4</ele>
        <time>2025-10-05T09:58:32.000Z</time>
      </trkpt>
      <trkpt lat="49.58054" lon="3.43426">
        <ele>228.3</ele>
        <time>2025-10-05T09:58:33.000Z</time>
      </trkpt>
      <trkpt lat="49.58054" lon="3.43426">
        <ele>228</ele>
        <time>2025-10-05T09:58:34.000Z</time>
      </trkpt>
      <trkpt lat="49.58054" lon="3.43427">
        <ele>228.1</ele>
        <time>2025-10-05T09:58:35.000Z</time>
      </trkpt>
      <trkpt lat="49.58055" lon="3.43427">
        <ele>228</ele>
        <time>2025-10-05T09:58:36.000Z</time>
      </trkpt>
      <trkpt lat="49.58055" lon="3.43429">
        <ele>228.1</ele>
        <time>2025-10-05T09:58:37.000Z</time>
      </trkpt>
      <trkpt lat="49.58056" lon="3.43429">
        <ele>228.2</ele>
        <time>2025-10-05T09:58:38.000Z</time>
      </trkpt>
      <trkpt lat="49.58057" lon="3.4343">
        <ele>228.3</ele>
        <time>2025-10-05T09:58:39.000Z</time>
      </trkpt>
      <trkpt lat="49.58057" lon="3.4343">
        <ele>228.4</ele>
        <time>2025-10-05T09:58:40.000Z</time>
      </trkpt>
      <trkpt lat="49.58058" lon="3.43431">
        <ele>228.6</ele>
        <time>2025-10-05T09:58:41.000Z</time>
      </trkpt>
      <trkpt lat="49.58058" lon="3.43431">
        <ele>228.8</ele>
        <time>2025-10-05T09:58:42.000Z</time>
      </trkpt>
      <trkpt lat="49.58059" lon="3.43431">
        <ele>229</ele>
        <time>2025-10-05T09:58:43.000Z</time>
      </trkpt>
      <trkpt lat="49.58061" lon="3.43432">
        <ele>229.4</ele>
        <time>2025-10-05T09:58:44.000Z</time>
      </trkpt>
      <trkpt lat="49.58062" lon="3.43432">
        <ele>229.8</ele>
        <time>2025-10-05T09:58:45.000Z</time>
      </trkpt>
      <trkpt lat="49.58062" lon="3.43432">
        <ele>229.9</ele>
        <time>2025-10-05T09:58:46.000Z</time>
      </trkpt>
      <trkpt lat="49.58063" lon="3.43433">
        <ele>230</ele>
        <time>2025-10-05T09:58:47.000Z</time>
      </trkpt>
      <trkpt lat="49.58064" lon="3.43433">
        <ele>229.9</ele>
        <time>2025-10-05T09:58:48.000Z</time>
      </trkpt>
      <trkpt lat="49.58065" lon="3.43433">
        <ele>229.8</ele>
        <time>2025-10-05T09:58:49.000Z</time>
      </trkpt>
      <trkpt lat="49.58066" lon="3.43433">
        <ele>229.6</ele>
        <time>2025-10-05T09:58:50.000Z</time>
      </trkpt>
      <trkpt lat="49.58066" lon="3.43433">
        <ele>229.4</ele>
        <time>2025-10-05T09:58:51.000Z</time>
      </trkpt>
      <trkpt lat="49.58067" lon="3.43433">
        <ele>228.9</ele>
        <time>2025-10-05T09:58:52.000Z</time>
      </trkpt>
      <trkpt lat="49.58068" lon="3.43435">
        <ele>228.6</ele>
        <time>2025-10-05T09:58:53.000Z</time>
      </trkpt>
      <trkpt lat="49.58069" lon="3.43436">
        <ele>228.4</ele>
        <time>2025-10-05T09:58:54.000Z</time>
      </trkpt>
      <trkpt lat="49.58071" lon="3.43437">
        <ele>228.3</ele>
        <time>2025-10-05T09:58:55.000Z</time>
      </trkpt>
      <trkpt lat="49.58072" lon="3.43439">
        <ele>228.2</ele>
        <time>2025-10-05T09:58:56.000Z</time>
      </trkpt>
      <trkpt lat="49.58074" lon="3.43441">
        <ele>227.9</ele>
        <time>2025-10-05T09:58:57.000Z</time>
      </trkpt>
      <trkpt lat="49.58075" lon="3.43442">
        <ele>227.9</ele>
        <time>2025-10-05T09:58:58.000Z</time>
      </trkpt>
      <trkpt lat="49.58076" lon="3.43443">
        <ele>227.7</ele>
        <time>2025-10-05T09:58:59.000Z</time>
      </trkpt>
      <trkpt lat="49.58077" lon="3.43443">
        <ele>227.5</ele>
        <time>2025-10-05T09:59:00.000Z</time>
      </trkpt>
      <trkpt lat="49.58078" lon="3.43444">
        <ele>227.6</ele>
        <time>2025-10-05T09:59:01.000Z</time>
      </trkpt>
      <trkpt lat="49.58078" lon="3.43444">
        <ele>227.5</ele>
        <time>2025-10-05T09:59:02.000Z</time>
      </trkpt>
      <trkpt lat="49.58079" lon="3.43445">
        <ele>227.5</ele>
        <time>2025-10-05T09:59:03.000Z</time>
      </trkpt>
      <trkpt lat="49.58079" lon="3.43445">
        <ele>227.3</ele>
        <time>2025-10-05T09:59:04.000Z</time>
      </trkpt>
      <trkpt lat="49.5808" lon="3.43445">
        <ele>227.4</ele>
        <time>2025-10-05T09:59:05.000Z</time>
      </trkpt>
      <trkpt lat="49.58081" lon="3.43446">
        <ele>227.7</ele>
        <time>2025-10-05T09:59:06.000Z</time>
      </trkpt>
      <trkpt lat="49.58082" lon="3.43447">
        <ele>228</ele>
        <time>2025-10-05T09:59:07.000Z</time>
      </trkpt>
      <trkpt lat="49.58083" lon="3.43448">
        <ele>227.9</ele>
        <time>2025-10-05T09:59:08.000Z</time>
      </trkpt>
      <trkpt lat="49.58084" lon="3.43448">
        <ele>228.1</ele>
        <time>2025-10-05T09:59:09.000Z</time>
      </trkpt>
      <trkpt lat="49.58084" lon="3.43449">
        <ele>228.7</ele>
        <time>2025-10-05T09:59:10.000Z</time>
      </trkpt>
      <trkpt lat="49.58085" lon="3.4345">
        <ele>228.9</ele>
        <time>2025-10-05T09:59:11.000Z</time>
      </trkpt>
      <trkpt lat="49.58086" lon="3.43451">
        <ele>229.4</ele>
        <time>2025-10-05T09:59:12.000Z</time>
      </trkpt>
      <trkpt lat="49.58087" lon="3.43452">
        <ele>229.4</ele>
        <time>2025-10-05T09:59:13.000Z</time>
      </trkpt>
      <trkpt lat="49.58089" lon="3.43453">
        <ele>229.3</ele>
        <time>2025-10-05T09:59:14.000Z</time>
      </trkpt>
      <trkpt lat="49.5809" lon="3.43453">
        <ele>229.6</ele>
        <time>2025-10-05T09:59:15.000Z</time>
      </trkpt>
      <trkpt lat="49.58092" lon="3.43454">
        <ele>229.6</ele>
        <time>2025-10-05T09:59:16.000Z</time>
      </trkpt>
      <trkpt lat="49.58092" lon="3.43454">
        <ele>229.4</ele>
        <time>2025-10-05T09:59:17.000Z</time>
      </trkpt>
      <trkpt lat="49.58092" lon="3.43454">
        <ele>229.2</ele>
        <time>2025-10-05T09:59:18.000Z</time>
      </trkpt>
      <trkpt lat="49.58093" lon="3.43454">
        <ele>228.9</ele>
        <time>2025-10-05T09:59:19.000Z</time>
      </trkpt>
      <trkpt lat="49.58093" lon="3.43454">
        <ele>228.7</ele>
        <time>2025-10-05T09:59:20.000Z</time>
      </trkpt>
      <trkpt lat="49.58095" lon="3.43455">
        <ele>228.4</ele>
        <time>2025-10-05T09:59:21.000Z</time>
      </trkpt>
      <trkpt lat="49.58095" lon="3.43457">
        <ele>228.1</ele>
        <time>2025-10-05T09:59:22.000Z</time>
      </trkpt>
      <trkpt lat="49.58096" lon="3.43458">
        <ele>228</ele>
        <time>2025-10-05T09:59:23.000Z</time>
      </trkpt>
      <trkpt lat="49.58096" lon="3.43458">
        <ele>227.9</ele>
        <time>2025-10-05T09:59:24.000Z</time>
      </trkpt>
      <trkpt lat="49.58097" lon="3.43459">
        <ele>227.9</ele>
        <time>2025-10-05T09:59:25.000Z</time>
      </trkpt>
      <trkpt lat="49.58098" lon="3.43459">
        <ele>228</ele>
        <time>2025-10-05T09:59:26.000Z</time>
      </trkpt>
      <trkpt lat="49.58099" lon="3.4346">
        <ele>227.9</ele>
        <time>2025-10-05T09:59:27.000Z</time>
      </trkpt>
      <trkpt lat="49.581" lon="3.4346">
        <ele>227.8</ele>
        <time>2025-10-05T09:59:28.000Z</time>
      </trkpt>
      <trkpt lat="49.581" lon="3.4346">
        <ele>227.7</ele>
        <time>2025-10-05T09:59:29.000Z</time>
      </trkpt>
      <trkpt lat="49.58101" lon="3.43461">
        <ele>227.8</ele>
        <time>2025-10-05T09:59:30.000Z</time>
      </trkpt>
      <trkpt lat="49.58102" lon="3.43462">
        <ele>227.7</ele>
        <time>2025-10-05T09:59:31.000Z</time>
      </trkpt>
      <trkpt lat="49.58103" lon="3.43463">
        <ele>227.3</ele>
        <time>2025-10-05T09:59:32.000Z</time>
      </trkpt>
      <trkpt lat="49.58104" lon="3.43464">
        <ele>227.5</ele>
        <time>2025-10-05T09:59:33.000Z</time>
      </trkpt>
      <trkpt lat="49.58104" lon="3.43465">
        <ele>227.3</ele>
        <time>2025-10-05T09:59:34.000Z</time>
      </trkpt>
      <trkpt lat="49.58105" lon="3.43465">
        <ele>227.3</ele>
        <time>2025-10-05T09:59:35.000Z</time>
      </trkpt>
      <trkpt lat="49.58105" lon="3.43466">
        <ele>227.1</ele>
        <time>2025-10-05T09:59:36.000Z</time>
      </trkpt>
      <trkpt lat="49.58106" lon="3.43467">
        <ele>226.7</ele>
        <time>2025-10-05T09:59:37.000Z</time>
      </trkpt>
      <trkpt lat="49.58107" lon="3.43468">
        <ele>226.4</ele>
        <time>2025-10-05T09:59:38.000Z</time>
      </trkpt>
      <trkpt lat="49.58108" lon="3.43469">
        <ele>226</ele>
        <time>2025-10-05T09:59:39.000Z</time>
      </trkpt>
      <trkpt lat="49.5811" lon="3.4347">
        <ele>225.7</ele>
        <time>2025-10-05T09:59:40.000Z</time>
      </trkpt>
      <trkpt lat="49.58111" lon="3.43471">
        <ele>225.6</ele>
        <time>2025-10-05T09:59:41.000Z</time>
      </trkpt>
      <trkpt lat="49.58113" lon="3.43471">
        <ele>225.6</ele>
        <time>2025-10-05T09:59:42.000Z</time>
      </trkpt>
      <trkpt lat="49.58115" lon="3.43473">
        <ele>225.7</ele>
        <time>2025-10-05T09:59:43.000Z</time>
      </trkpt>
      <trkpt lat="49.58116" lon="3.43474">
        <ele>225.8</ele>
        <time>2025-10-05T09:59:44.000Z</time>
      </trkpt>
      <trkpt lat="49.58118" lon="3.43474">
        <ele>225.8</ele>
        <time>2025-10-05T09:59:45.000Z</time>
      </trkpt>
      <trkpt lat="49.58119" lon="3.43475">
        <ele>225.7</ele>
        <time>2025-10-05T09:59:46.000Z</time>
      </trkpt>
      <trkpt lat="49.5812" lon="3.43475">
        <ele>225.6</ele>
        <time>2025-10-05T09:59:47.000Z</time>
      </trkpt>
      <trkpt lat="49.58121" lon="3.43476">
        <ele>225.8</ele>
        <time>2025-10-05T09:59:48.000Z</time>
      </trkpt>
      <trkpt lat="49.58123" lon="3.43476">
        <ele>225.8</ele>
        <time>2025-10-05T09:59:49.000Z</time>
      </trkpt>
      <trkpt lat="49.58124" lon="3.43476">
        <ele>225.8</ele>
        <time>2025-10-05T09:59:50.000Z</time>
      </trkpt>
      <trkpt lat="49.58124" lon="3.43477">
        <ele>225.6</ele>
        <time>2025-10-05T09:59:51.000Z</time>
      </trkpt>
      <trkpt lat="49.58125" lon="3.43477">
        <ele>225.7</ele>
        <time>2025-10-05T09:59:52.000Z</time>
      </trkpt>
      <trkpt lat="49.58126" lon="3.43478">
        <ele>225.8</ele>
        <time>2025-10-05T09:59:53.000Z</time>
      </trkpt>
      <trkpt lat="49.58126" lon="3.43478">
        <ele>225.8</ele>
        <time>2025-10-05T09:59:54.000Z</time>
      </trkpt>
      <trkpt lat="49.58127" lon="3.43479">
        <ele>225.7</ele>
        <time>2025-10-05T09:59:55.000Z</time>
      </trkpt>
      <trkpt lat="49.58128" lon="3.4348">
        <ele>225.3</ele>
        <time>2025-10-05T09:59:56.000Z</time>
      </trkpt>
      <trkpt lat="49.58129" lon="3.43482">
        <ele>225.1</ele>
        <time>2025-10-05T09:59:57.000Z</time>
      </trkpt>
      <trkpt lat="49.5813" lon="3.43483">
        <ele>224.7</ele>
        <time>2025-10-05T09:59:58.000Z</time>
      </trkpt>
      <trkpt lat="49.58131" lon="3.43484">
        <ele>224.5</ele>
        <time>2025-10-05T09:59:59.000Z</time>
      </trkpt>
      <trkpt lat="49.58132" lon="3.43485">
        <ele>224.4</ele>
        <time>2025-10-05T10:00:00.000Z</time>
      </trkpt>
      <trkpt lat="49.58133" lon="3.43486">
        <ele>224.5</ele>
        <time>2025-10-05T10:00:01.000Z</time>
      </trkpt>
      <trkpt lat="49.58133" lon="3.43486">
        <ele>224.4</ele>
        <time>2025-10-05T10:00:02.000Z</time>
      </trkpt>
      <trkpt lat="49.58133" lon="3.43487">
        <ele>224.3</ele>
        <time>2025-10-05T10:00:03.000Z</time>
      </trkpt>
      <trkpt lat="49.58134" lon="3.43488">
        <ele>224.1</ele>
        <time>2025-10-05T10:00:04.000Z</time>
      </trkpt>
      <trkpt lat="49.58135" lon="3.43488">
        <ele>224</ele>
        <time>2025-10-05T10:00:05.000Z</time>
      </trkpt>
      <trkpt lat="49.58136" lon="3.43489">
        <ele>224</ele>
        <time>2025-10-05T10:00:06.000Z</time>
      </trkpt>
      <trkpt lat="49.58138" lon="3.4349">
        <ele>224</ele>
        <time>2025-10-05T10:00:07.000Z</time>
      </trkpt>
      <trkpt lat="49.58139" lon="3.4349">
        <ele>223.9</ele>
        <time>2025-10-05T10:00:08.000Z</time>
      </trkpt>
      <trkpt lat="49.5814" lon="3.43491">
        <ele>223.7</ele>
        <time>2025-10-05T10:00:09.000Z</time>
      </trkpt>
      <trkpt lat="49.58142" lon="3.43492">
        <ele>223.9</ele>
        <time>2025-10-05T10:00:10.000Z</time>
      </trkpt>
      <trkpt lat="49.58143" lon="3.43493">
        <ele>223.9</ele>
        <time>2025-10-05T10:00:11.000Z</time>
      </trkpt>
      <trkpt lat="49.58144" lon="3.43493">
        <ele>223.9</ele>
        <time>2025-10-05T10:00:12.000Z</time>
      </trkpt>
      <trkpt lat="49.58145" lon="3.43494">
        <ele>223.9</ele>
        <time>2025-10-05T10:00:13.000Z</time>
      </trkpt>
      <trkpt lat="49.58146" lon="3.43494">
        <ele>223.9</ele>
        <time>2025-10-05T10:00:14.000Z</time>
      </trkpt>
      <trkpt lat="49.58147" lon="3.43495">
        <ele>223.9</ele>
        <time>2025-10-05T10:00:15.000Z</time>
      </trkpt>
      <trkpt lat="49.58148" lon="3.43495">
        <ele>224.2</ele>
        <time>2025-10-05T10:00:16.000Z</time>
      </trkpt>
      <trkpt lat="49.58149" lon="3.43495">
        <ele>224.2</ele>
        <time>2025-10-05T10:00:17.000Z</time>
      </trkpt>
      <trkpt lat="49.5815" lon="3.43496">
        <ele>224</ele>
        <time>2025-10-05T10:00:18.000Z</time>
      </trkpt>
      <trkpt lat="49.58151" lon="3.43497">
        <ele>223.7</ele>
        <time>2025-10-05T10:00:19.000Z</time>
      </trkpt>
      <trkpt lat="49.58151" lon="3.43498">
        <ele>223.3</ele>
        <time>2025-10-05T10:00:20.000Z</time>
      </trkpt>
      <trkpt lat="49.58152" lon="3.43499">
        <ele>222.7</ele>
        <time>2025-10-05T10:00:21.000Z</time>
      </trkpt>
      <trkpt lat="49.58153" lon="3.435">
        <ele>222.6</ele>
        <time>2025-10-05T10:00:22.000Z</time>
      </trkpt>
      <trkpt lat="49.58154" lon="3.435">
        <ele>222.5</ele>
        <time>2025-10-05T10:00:23.000Z</time>
      </trkpt>
      <trkpt lat="49.58156" lon="3.43501">
        <ele>222.6</ele>
        <time>2025-10-05T10:00:24.000Z</time>
      </trkpt>
      <trkpt lat="49.58157" lon="3.43501">
        <ele>222.1</ele>
        <time>2025-10-05T10:00:25.000Z</time>
      </trkpt>
      <trkpt lat="49.58158" lon="3.43503">
        <ele>221.7</ele>
        <time>2025-10-05T10:00:26.000Z</time>
      </trkpt>
      <trkpt lat="49.58159" lon="3.43504">
        <ele>221.1</ele>
        <time>2025-10-05T10:00:27.000Z</time>
      </trkpt>
      <trkpt lat="49.58159" lon="3.43505">
        <ele>220.6</ele>
        <time>2025-10-05T10:00:28.000Z</time>
      </trkpt>
      <trkpt lat="49.5816" lon="3.43506">
        <ele>220.1</ele>
        <time>2025-10-05T10:00:29.000Z</time>
      </trkpt>
      <trkpt lat="49.5816" lon="3.43508">
        <ele>219.6</ele>
        <time>2025-10-05T10:00:30.000Z</time>
      </trkpt>
      <trkpt lat="49.58161" lon="3.43508">
        <ele>218.9</ele>
        <time>2025-10-05T10:00:31.000Z</time>
      </trkpt>
      <trkpt lat="49.58162" lon="3.43509">
        <ele>218.3</ele>
        <time>2025-10-05T10:00:32.000Z</time>
      </trkpt>
      <trkpt lat="49.58163" lon="3.43509">
        <ele>217.9</ele>
        <time>2025-10-05T10:00:33.000Z</time>
      </trkpt>
      <trkpt lat="49.58164" lon="3.4351">
        <ele>217.4</ele>
        <time>2025-10-05T10:00:34.000Z</time>
      </trkpt>
      <trkpt lat="49.58165" lon="3.43511">
        <ele>217.1</ele>
        <time>2025-10-05T10:00:35.000Z</time>
      </trkpt>
      <trkpt lat="49.58166" lon="3.43512">
        <ele>216.8</ele>
        <time>2025-10-05T10:00:36.000Z</time>
      </trkpt>
      <trkpt lat="49.58167" lon="3.43513">
        <ele>216.9</ele>
        <time>2025-10-05T10:00:37.000Z</time>
      </trkpt>
      <trkpt lat="49.58168" lon="3.43513">
        <ele>217.1</ele>
        <time>2025-10-05T10:00:38.000Z</time>
      </trkpt>
      <trkpt lat="49.58169" lon="3.43513">
        <ele>217.3</ele>
        <time>2025-10-05T10:00:39.000Z</time>
      </trkpt>
      <trkpt lat="49.5817" lon="3.43513">
        <ele>217.5</ele>
        <time>2025-10-05T10:00:40.000Z</time>
      </trkpt>
      <trkpt lat="49.58172" lon="3.43513">
        <ele>217.6</ele>
        <time>2025-10-05T10:00:41.000Z</time>
      </trkpt>
      <trkpt lat="49.58173" lon="3.43513">
        <ele>217.7</ele>
        <time>2025-10-05T10:00:42.000Z</time>
      </trkpt>
      <trkpt lat="49.58175" lon="3.43514">
        <ele>217.6</ele>
        <time>2025-10-05T10:00:43.000Z</time>
      </trkpt>
      <trkpt lat="49.58176" lon="3.43514">
        <ele>217.7</ele>
        <time>2025-10-05T10:00:44.000Z</time>
      </trkpt>
      <trkpt lat="49.58176" lon="3.43514">
        <ele>217.6</ele>
        <time>2025-10-05T10:00:45.000Z</time>
      </trkpt>
      <trkpt lat="49.58178" lon="3.43515">
        <ele>217.9</ele>
        <time>2025-10-05T10:00:46.000Z</time>
      </trkpt>
      <trkpt lat="49.58179" lon="3.43517">
        <ele>218.3</ele>
        <time>2025-10-05T10:00:47.000Z</time>
      </trkpt>
      <trkpt lat="49.5818" lon="3.43518">
        <ele>218.5</ele>
        <time>2025-10-05T10:00:48.000Z</time>
      </trkpt>
      <trkpt lat="49.58181" lon="3.43519">
        <ele>218.9</ele>
        <time>2025-10-05T10:00:49.000Z</time>
      </trkpt>
      <trkpt lat="49.58182" lon="3.4352">
        <ele>219.1</ele>
        <time>2025-10-05T10:00:50.000Z</time>
      </trkpt>
      <trkpt lat="49.58183" lon="3.43521">
        <ele>219.1</ele>
        <time>2025-10-05T10:00:51.000Z</time>
      </trkpt>
      <trkpt lat="49.58184" lon="3.43521">
        <ele>219.3</ele>
        <time>2025-10-05T10:00:52.000Z</time>
      </trkpt>
      <trkpt lat="49.58184" lon="3.43521">
        <ele>219.6</ele>
        <time>2025-10-05T10:00:53.000Z</time>
      </trkpt>
      <trkpt lat="49.58185" lon="3.43522">
        <ele>219.7</ele>
        <time>2025-10-05T10:00:54.000Z</time>
      </trkpt>
      <trkpt lat="49.58186" lon="3.43523">
        <ele>219.8</ele>
        <time>2025-10-05T10:00:55.000Z</time>
      </trkpt>
      <trkpt lat="49.58187" lon="3.43524">
        <ele>219.8</ele>
        <time>2025-10-05T10:00:56.000Z</time>
      </trkpt>
      <trkpt lat="49.58188" lon="3.43525">
        <ele>219.7</ele>
        <time>2025-10-05T10:00:57.000Z</time>
      </trkpt>
      <trkpt lat="49.58188" lon="3.43526">
        <ele>219.6</ele>
        <time>2025-10-05T10:00:58.000Z</time>
      </trkpt>
      <trkpt lat="49.58189" lon="3.43526">
        <ele>219.7</ele>
        <time>2025-10-05T10:00:59.000Z</time>
      </trkpt>
      <trkpt lat="49.5819" lon="3.43527">
        <ele>219.8</ele>
        <time>2025-10-05T10:01:00.000Z</time>
      </trkpt>
      <trkpt lat="49.58191" lon="3.43527">
        <ele>219.8</ele>
        <time>2025-10-05T10:01:01.000Z</time>
      </trkpt>
      <trkpt lat="49.58192" lon="3.43528">
        <ele>219.8</ele>
        <time>2025-10-05T10:01:02.000Z</time>
      </trkpt>
      <trkpt lat="49.58193" lon="3.43529">
        <ele>219.7</ele>
        <time>2025-10-05T10:01:03.000Z</time>
      </trkpt>
      <trkpt lat="49.58195" lon="3.43531">
        <ele>219.7</ele>
        <time>2025-10-05T10:01:04.000Z</time>
      </trkpt>
      <trkpt lat="49.58196" lon="3.43532">
        <ele>219.6</ele>
        <time>2025-10-05T10:01:05.000Z</time>
      </trkpt>
      <trkpt lat="49.58197" lon="3.43532">
        <ele>219.6</ele>
        <time>2025-10-05T10:01:06.000Z</time>
      </trkpt>
      <trkpt lat="49.58198" lon="3.43533">
        <ele>219.6</ele>
        <time>2025-10-05T10:01:07.000Z</time>
      </trkpt>
      <trkpt lat="49.582" lon="3.43534">
        <ele>219.6</ele>
        <time>2025-10-05T10:01:08.000Z</time>
      </trkpt>
      <trkpt lat="49.58201" lon="3.43534">
        <ele>219.6</ele>
        <time>2025-10-05T10:01:09.000Z</time>
      </trkpt>
      <trkpt lat="49.58203" lon="3.43534">
        <ele>219.5</ele>
        <time>2025-10-05T10:01:10.000Z</time>
      </trkpt>
      <trkpt lat="49.58204" lon="3.43535">
        <ele>219.4</ele>
        <time>2025-10-05T10:01:11.000Z</time>
      </trkpt>
      <trkpt lat="49.58205" lon="3.43535">
        <ele>219.1</ele>
        <time>2025-10-05T10:01:12.000Z</time>
      </trkpt>
      <trkpt lat="49.58205" lon="3.43536">
        <ele>218.8</ele>
        <time>2025-10-05T10:01:13.000Z</time>
      </trkpt>
      <trkpt lat="49.58206" lon="3.43538">
        <ele>218.7</ele>
        <time>2025-10-05T10:01:14.000Z</time>
      </trkpt>
      <trkpt lat="49.58206" lon="3.43539">
        <ele>218.6</ele>
        <time>2025-10-05T10:01:15.000Z</time>
      </trkpt>
      <trkpt lat="49.58206" lon="3.4354">
        <ele>218.2</ele>
        <time>2025-10-05T10:01:16.000Z</time>
      </trkpt>
      <trkpt lat="49.58206" lon="3.4354">
        <ele>218</ele>
        <time>2025-10-05T10:01:17.000Z</time>
      </trkpt>
      <trkpt lat="49.58206" lon="3.43541">
        <ele>217.9</ele>
        <time>2025-10-05T10:01:18.000Z</time>
      </trkpt>
      <trkpt lat="49.58206" lon="3.43542">
        <ele>217.7</ele>
        <time>2025-10-05T10:01:19.000Z</time>
      </trkpt>
      <trkpt lat="49.58208" lon="3.43542">
        <ele>217.8</ele>
        <time>2025-10-05T10:01:20.000Z</time>
      </trkpt>
      <trkpt lat="49.58208" lon="3.43542">
        <ele>217.3</ele>
        <time>2025-10-05T10:01:21.000Z</time>
      </trkpt>
      <trkpt lat="49.58209" lon="3.43543">
        <ele>217.1</ele>
        <time>2025-10-05T10:01:22.000Z</time>
      </trkpt>
      <trkpt lat="49.58211" lon="3.43542">
        <ele>216.8</ele>
        <time>2025-10-05T10:01:23.000Z</time>
      </trkpt>
      <trkpt lat="49.58211" lon="3.43543">
        <ele>216.5</ele>
        <time>2025-10-05T10:01:24.000Z</time>
      </trkpt>
      <trkpt lat="49.58212" lon="3.43543">
        <ele>216.5</ele>
        <time>2025-10-05T10:01:25.000Z</time>
      </trkpt>
      <trkpt lat="49.58213" lon="3.43544">
        <ele>216.5</ele>
        <time>2025-10-05T10:01:26.000Z</time>
      </trkpt>
      <trkpt lat="49.58214" lon="3.43545">
        <ele>216.2</ele>
        <time>2025-10-05T10:01:27.000Z</time>
      </trkpt>
      <trkpt lat="49.58216" lon="3.43547">
        <ele>215.9</ele>
        <time>2025-10-05T10:01:28.000Z</time>
      </trkpt>
      <trkpt lat="49.58217" lon="3.43547">
        <ele>215.6</ele>
        <time>2025-10-05T10:01:29.000Z</time>
      </trkpt>
      <trkpt lat="49.58217" lon="3.43548">
        <ele>215.4</ele>
        <time>2025-10-05T10:01:30.000Z</time>
      </trkpt>
      <trkpt lat="49.58218" lon="3.43549">
        <ele>215.3</ele>
        <time>2025-10-05T10:01:31.000Z</time>
      </trkpt>
      <trkpt lat="49.58218" lon="3.43551">
        <ele>215.4</ele>
        <time>2025-10-05T10:01:32.000Z</time>
      </trkpt>
      <trkpt lat="49.58218" lon="3.43552">
        <ele>215.2</ele>
        <time>2025-10-05T10:01:33.000Z</time>
      </trkpt>
      <trkpt lat="49.58218" lon="3.43554">
        <ele>215.4</ele>
        <time>2025-10-05T10:01:34.000Z</time>
      </trkpt>
      <trkpt lat="49.58218" lon="3.43555">
        <ele>215.8</ele>
        <time>2025-10-05T10:01:35.000Z</time>
      </trkpt>
      <trkpt lat="49.58218" lon="3.43557">
        <ele>216.2</ele>
        <time>2025-10-05T10:01:36.000Z</time>
      </trkpt>
      <trkpt lat="49.58218" lon="3.43559">
        <ele>216.5</ele>
        <time>2025-10-05T10:01:37.000Z</time>
      </trkpt>
      <trkpt lat="49.58218" lon="3.4356">
        <ele>216.4</ele>
        <time>2025-10-05T10:01:38.000Z</time>
      </trkpt>
      <trkpt lat="49.58218" lon="3.43561">
        <ele>216.2</ele>
        <time>2025-10-05T10:01:39.000Z</time>
      </trkpt>
      <trkpt lat="49.58218" lon="3.43563">
        <ele>216</ele>
        <time>2025-10-05T10:01:40.000Z</time>
      </trkpt>
      <trkpt lat="49.58217" lon="3.43564">
        <ele>216.1</ele>
        <time>2025-10-05T10:01:41.000Z</time>
      </trkpt>
      <trkpt lat="49.58216" lon="3.43564">
        <ele>216.3</ele>
        <time>2025-10-05T10:01:42.000Z</time>
      </trkpt>
      <trkpt lat="49.58216" lon="3.43565">
        <ele>216.7</ele>
        <time>2025-10-05T10:01:43.000Z</time>
      </trkpt>
      <trkpt lat="49.58215" lon="3.43566">
        <ele>217</ele>
        <time>2025-10-05T10:01:44.000Z</time>
      </trkpt>
      <trkpt lat="49.58215" lon="3.43567">
        <ele>217.4</ele>
        <time>2025-10-05T10:01:45.000Z</time>
      </trkpt>
      <trkpt lat="49.58215" lon="3.43568">
        <ele>217.4</ele>
        <time>2025-10-05T10:01:46.000Z</time>
      </trkpt>
      <trkpt lat="49.58215" lon="3.4357">
        <ele>217.5</ele>
        <time>2025-10-05T10:01:47.000Z</time>
      </trkpt>
      <trkpt lat="49.58215" lon="3.43571">
        <ele>217.3</ele>
        <time>2025-10-05T10:01:48.000Z</time>
      </trkpt>
      <trkpt lat="49.58215" lon="3.43572">
        <ele>217.2</ele>
        <time>2025-10-05T10:01:49.000Z</time>
      </trkpt>
      <trkpt lat="49.58216" lon="3.43573">
        <ele>217.2</ele>
        <time>2025-10-05T10:01:50.000Z</time>
      </trkpt>
      <trkpt lat="49.58216" lon="3.43574">
        <ele>217.1</ele>
        <time>2025-10-05T10:01:51.000Z</time>
      </trkpt>
      <trkpt lat="49.58215" lon="3.43576">
        <ele>217.1</ele>
        <time>2025-10-05T10:01:52.000Z</time>
      </trkpt>
      <trkpt lat="49.58215" lon="3.43577">
        <ele>217.3</ele>
        <time>2025-10-05T10:01:53.000Z</time>
      </trkpt>
      <trkpt lat="49.58215" lon="3.43578">
        <ele>217.4</ele>
        <time>2025-10-05T10:01:54.000Z</time>
      </trkpt>
      <trkpt lat="49.58215" lon="3.43579">
        <ele>217.9</ele>
        <time>2025-10-05T10:01:55.000Z</time>
      </trkpt>
      <trkpt lat="49.58216" lon="3.4358">
        <ele>218.1</ele>
        <time>2025-10-05T10:01:56.000Z</time>
      </trkpt>
      <trkpt lat="49.58216" lon="3.43581">
        <ele>218</ele>
        <time>2025-10-05T10:01:57.000Z</time>
      </trkpt>
      <trkpt lat="49.58217" lon="3.43582">
        <ele>218</ele>
        <time>2025-10-05T10:01:58.000Z</time>
      </trkpt>
      <trkpt lat="49.58217" lon="3.43584">
        <ele>217.9</ele>
        <time>2025-10-05T10:01:59.000Z</time>
      </trkpt>
      <trkpt lat="49.58217" lon="3.43586">
        <ele>218</ele>
        <time>2025-10-05T10:02:00.000Z</time>
      </trkpt>
      <trkpt lat="49.58217" lon="3.43587">
        <ele>218</ele>
        <time>2025-10-05T10:02:01.000Z</time>
      </trkpt>
      <trkpt lat="49.58217" lon="3.43588">
        <ele>218.2</ele>
        <time>2025-10-05T10:02:02.000Z</time>
      </trkpt>
      <trkpt lat="49.58218" lon="3.43588">
        <ele>218.3</ele>
        <time>2025-10-05T10:02:03.000Z</time>
      </trkpt>
      <trkpt lat="49.58218" lon="3.43589">
        <ele>218.3</ele>
        <time>2025-10-05T10:02:04.000Z</time>
      </trkpt>
      <trkpt lat="49.58218" lon="3.4359">
        <ele>218.3</ele>
        <time>2025-10-05T10:02:05.000Z</time>
      </trkpt>
      <trkpt lat="49.58217" lon="3.43591">
        <ele>218.4</ele>
        <time>2025-10-05T10:02:06.000Z</time>
      </trkpt>
      <trkpt lat="49.58217" lon="3.43592">
        <ele>218.6</ele>
        <time>2025-10-05T10:02:07.000Z</time>
      </trkpt>
      <trkpt lat="49.58217" lon="3.43594">
        <ele>218.5</ele>
        <time>2025-10-05T10:02:08.000Z</time>
      </trkpt>
      <trkpt lat="49.58217" lon="3.43595">
        <ele>218.4</ele>
        <time>2025-10-05T10:02:09.000Z</time>
      </trkpt>
      <trkpt lat="49.58216" lon="3.43596">
        <ele>218.5</ele>
        <time>2025-10-05T10:02:10.000Z</time>
      </trkpt>
      <trkpt lat="49.58216" lon="3.43597">
        <ele>218.6</ele>
        <time>2025-10-05T10:02:11.000Z</time>
      </trkpt>
      <trkpt lat="49.58216" lon="3.43598">
        <ele>218.4</ele>
        <time>2025-10-05T10:02:12.000Z</time>
      </trkpt>
      <trkpt lat="49.58216" lon="3.43597">
        <ele>218.1</ele>
        <time>2025-10-05T10:02:13.000Z</time>
      </trkpt>
      <trkpt lat="49.58216" lon="3.43598">
        <ele>218</ele>
        <time>2025-10-05T10:02:14.000Z</time>
      </trkpt>
      <trkpt lat="49.58215" lon="3.43598">
        <ele>217.7</ele>
        <time>2025-10-05T10:02:15.000Z</time>
      </trkpt>
      <trkpt lat="49.58215" lon="3.43598">
        <ele>217.5</ele>
        <time>2025-10-05T10:02:16.000Z</time>
      </trkpt>
      <trkpt lat="49.58215" lon="3.43598">
        <ele>217.4</ele>
        <time>2025-10-05T10:02:17.000Z</time>
      </trkpt>
      <trkpt lat="49.58214" lon="3.43598">
        <ele>217.4</ele>
        <time>2025-10-05T10:02:18.000Z</time>
      </trkpt>
      <trkpt lat="49.58213" lon="3.43598">
        <ele>217.4</ele>
        <time>2025-10-05T10:02:19.000Z</time>
      </trkpt>
      <trkpt lat="49.58213" lon="3.43598">
        <ele>217.4</ele>
        <time>2025-10-05T10:02:20.000Z</time>
      </trkpt>
      <trkpt lat="49.58213" lon="3.43598">
        <ele>217.4</ele>
        <time>2025-10-05T10:02:21.000Z</time>
      </trkpt>
      <trkpt lat="49.58213" lon="3.43598">
        <ele>217.4</ele>
        <time>2025-10-05T10:02:22.000Z</time>
      </trkpt>
      <trkpt lat="49.58213" lon="3.43598">
        <ele>217.4</ele>
        <time>2025-10-05T10:02:23.000Z</time>
      </trkpt>
      <trkpt lat="49.58213" lon="3.43598">
        <ele>217.4</ele>
        <time>2025-10-05T10:02:24.000Z</time>
      </trkpt>
      <trkpt lat="49.58213" lon="3.43598">
        <ele>217.4</ele>
        <time>2025-10-05T10:02:25.000Z</time>
      </trkpt>
      <trkpt lat="49.58213" lon="3.43598">
        <ele>217.4</ele>
        <time>2025-10-05T10:02:26.000Z</time>
      </trkpt>
      <trkpt lat="49.58213" lon="3.43598">
        <ele>217.4</ele>
        <time>2025-10-05T10:02:27.000Z</time>
      </trkpt>
      <trkpt lat="49.58213" lon="3.43598">
        <ele>217.4</ele>
        <time>2025-10-05T10:02:28.000Z</time>
      </trkpt>
      <trkpt lat="49.58213" lon="3.43598">
        <ele>217.4</ele>
        <time>2025-10-05T10:02:29.000Z</time>
      </trkpt>
      <trkpt lat="49.58213" lon="3.43598">
        <ele>217.4</ele>
        <time>2025-10-05T10:02:30.000Z</time>
      </trkpt>
      <trkpt lat="49.58213" lon="3.43598">
        <ele>217.4</ele>
        <time>2025-10-05T10:02:31.000Z</time>
      </trkpt>
      <trkpt lat="49.58213" lon="3.43598">
        <ele>217.4</ele>
        <time>2025-10-05T10:02:32.000Z</time>
      </trkpt>
      <trkpt lat="49.58213" lon="3.43598">
        <ele>217.4</ele>
        <time>2025-10-05T10:02:33.000Z</time>
      </trkpt>
      <trkpt lat="49.58213" lon="3.43598">
        <ele>217.4</ele>
        <time>2025-10-05T10:02:34.000Z</time>
      </trkpt>
      <trkpt lat="49.58213" lon="3.43598">
        <ele>217.4</ele>
        <time>2025-10-05T10:02:35.000Z</time>
      </trkpt>
      <trkpt lat="49.58213" lon="3.43598">
        <ele>217.4</ele>
        <time>2025-10-05T10:02:36.000Z</time>
      </trkpt>
      <trkpt lat="49.58213" lon="3.43598">
        <ele>217.4</ele>
        <time>2025-10-05T10:02:37.000Z</time>
      </trkpt>
      <trkpt lat="49.58213" lon="3.43598">
        <ele>217.4</ele>
        <time>2025-10-05T10:02:38.000Z</time>
      </trkpt>
      <trkpt lat="49.58218" lon="3.43601">
        <ele>219.1</ele>
        <time>2025-10-05T10:02:39.000Z</time>
      </trkpt>
      <trkpt lat="49.58218" lon="3.43602">
        <ele>219.1</ele>
        <time>2025-10-05T10:02:40.000Z</time>
      </trkpt>
      <trkpt lat="49.58218" lon="3.43602">
        <ele>219</ele>
        <time>2025-10-05T10:02:41.000Z</time>
      </trkpt>
      <trkpt lat="49.58219" lon="3.43602">
        <ele>219</ele>
        <time>2025-10-05T10:02:42.000Z</time>
      </trkpt>
      <trkpt lat="49.58219" lon="3.43603">
        <ele>218.9</ele>
        <time>2025-10-05T10:02:43.000Z</time>
      </trkpt>
      <trkpt lat="49.5822" lon="3.43604">
        <ele>219</ele>
        <time>2025-10-05T10:02:44.000Z</time>
      </trkpt>
      <trkpt lat="49.58221" lon="3.43605">
        <ele>219.3</ele>
        <time>2025-10-05T10:02:45.000Z</time>
      </trkpt>
      <trkpt lat="49.58222" lon="3.43607">
        <ele>219.4</ele>
        <time>2025-10-05T10:02:46.000Z</time>
      </trkpt>
      <trkpt lat="49.58222" lon="3.43608">
        <ele>219.4</ele>
        <time>2025-10-05T10:02:47.000Z</time>
      </trkpt>
      <trkpt lat="49.58222" lon="3.43609">
        <ele>219.1</ele>
        <time>2025-10-05T10:02:48.000Z</time>
      </trkpt>
      <trkpt lat="49.58222" lon="3.4361">
        <ele>218.5</ele>
        <time>2025-10-05T10:02:49.000Z</time>
      </trkpt>
      <trkpt lat="49.58222" lon="3.43611">
        <ele>218.1</ele>
        <time>2025-10-05T10:02:50.000Z</time>
      </trkpt>
      <trkpt lat="49.58223" lon="3.43612">
        <ele>217.8</ele>
        <time>2025-10-05T10:02:51.000Z</time>
      </trkpt>
      <trkpt lat="49.58223" lon="3.43613">
        <ele>217.3</ele>
        <time>2025-10-05T10:02:52.000Z</time>
      </trkpt>
      <trkpt lat="49.58224" lon="3.43613">
        <ele>216.7</ele>
        <time>2025-10-05T10:02:53.000Z</time>
      </trkpt>
      <trkpt lat="49.58224" lon="3.43614">
        <ele>216.3</ele>
        <time>2025-10-05T10:02:54.000Z</time>
      </trkpt>
      <trkpt lat="49.58224" lon="3.43614">
        <ele>215.9</ele>
        <time>2025-10-05T10:02:55.000Z</time>
      </trkpt>
      <trkpt lat="49.58225" lon="3.43615">
        <ele>215.7</ele>
        <time>2025-10-05T10:02:56.000Z</time>
      </trkpt>
      <trkpt lat="49.58225" lon="3.43615">
        <ele>215.6</ele>
        <time>2025-10-05T10:02:57.000Z</time>
      </trkpt>
      <trkpt lat="49.58227" lon="3.43616">
        <ele>215.5</ele>
        <time>2025-10-05T10:02:58.000Z</time>
      </trkpt>
      <trkpt lat="49.58228" lon="3.43617">
        <ele>215.2</ele>
        <time>2025-10-05T10:02:59.000Z</time>
      </trkpt>
      <trkpt lat="49.58229" lon="3.43618">
        <ele>214.9</ele>
        <time>2025-10-05T10:03:00.000Z</time>
      </trkpt>
      <trkpt lat="49.58229" lon="3.43618">
        <ele>214.6</ele>
        <time>2025-10-05T10:03:01.000Z</time>
      </trkpt>
      <trkpt lat="49.5823" lon="3.43619">
        <ele>214.4</ele>
        <time>2025-10-05T10:03:02.000Z</time>
      </trkpt>
      <trkpt lat="49.5823" lon="3.43619">
        <ele>214.1</ele>
        <time>2025-10-05T10:03:03.000Z</time>
      </trkpt>
      <trkpt lat="49.58231" lon="3.43619">
        <ele>213.9</ele>
        <time>2025-10-05T10:03:04.000Z</time>
      </trkpt>
      <trkpt lat="49.58231" lon="3.43619">
        <ele>213.8</ele>
        <time>2025-10-05T10:03:05.000Z</time>
      </trkpt>
      <trkpt lat="49.58232" lon="3.43619">
        <ele>213.9</ele>
        <time>2025-10-05T10:03:06.000Z</time>
      </trkpt>
      <trkpt lat="49.58232" lon="3.43619">
        <ele>214.2</ele>
        <time>2025-10-05T10:03:07.000Z</time>
      </trkpt>
      <trkpt lat="49.58233" lon="3.43617">
        <ele>214.1</ele>
        <time>2025-10-05T10:03:08.000Z</time>
      </trkpt>
      <trkpt lat="49.58234" lon="3.43617">
        <ele>214.2</ele>
        <time>2025-10-05T10:03:09.000Z</time>
      </trkpt>
      <trkpt lat="49.58235" lon="3.43615">
        <ele>214.4</ele>
        <time>2025-10-05T10:03:10.000Z</time>
      </trkpt>
      <trkpt lat="49.58235" lon="3.43614">
        <ele>214.4</ele>
        <time>2025-10-05T10:03:11.000Z</time>
      </trkpt>
      <trkpt lat="49.58236" lon="3.43613">
        <ele>214.7</ele>
        <time>2025-10-05T10:03:12.000Z</time>
      </trkpt>
      <trkpt lat="49.58236" lon="3.43611">
        <ele>214.9</ele>
        <time>2025-10-05T10:03:13.000Z</time>
      </trkpt>
      <trkpt lat="49.58237" lon="3.4361">
        <ele>214.9</ele>
        <time>2025-10-05T10:03:14.000Z</time>
      </trkpt>
      <trkpt lat="49.58237" lon="3.43608">
        <ele>214.8</ele>
        <time>2025-10-05T10:03:15.000Z</time>
      </trkpt>
      <trkpt lat="49.58238" lon="3.43608">
        <ele>214.6</ele>
        <time>2025-10-05T10:03:16.000Z</time>
      </trkpt>
      <trkpt lat="49.58239" lon="3.43607">
        <ele>214.4</ele>
        <time>2025-10-05T10:03:17.000Z</time>
      </trkpt>
      <trkpt lat="49.5824" lon="3.43607">
        <ele>214.2</ele>
        <time>2025-10-05T10:03:18.000Z</time>
      </trkpt>
      <trkpt lat="49.5824" lon="3.43607">
        <ele>213.9</ele>
        <time>2025-10-05T10:03:19.000Z</time>
      </trkpt>
      <trkpt lat="49.58242" lon="3.43607">
        <ele>214</ele>
        <time>2025-10-05T10:03:20.000Z</time>
      </trkpt>
      <trkpt lat="49.58243" lon="3.43608">
        <ele>213.8</ele>
        <time>2025-10-05T10:03:21.000Z</time>
      </trkpt>
      <trkpt lat="49.58244" lon="3.43609">
        <ele>213.8</ele>
        <time>2025-10-05T10:03:22.000Z</time>
      </trkpt>
      <trkpt lat="49.58246" lon="3.4361">
        <ele>214.1</ele>
        <time>2025-10-05T10:03:23.000Z</time>
      </trkpt>
      <trkpt lat="49.58247" lon="3.43611">
        <ele>214.4</ele>
        <time>2025-10-05T10:03:24.000Z</time>
      </trkpt>
      <trkpt lat="49.58248" lon="3.43611">
        <ele>214.6</ele>
        <time>2025-10-05T10:03:25.000Z</time>
      </trkpt>
      <trkpt lat="49.58249" lon="3.43611">
        <ele>214.4</ele>
        <time>2025-10-05T10:03:26.000Z</time>
      </trkpt>
      <trkpt lat="49.5825" lon="3.43612">
        <ele>214.4</ele>
        <time>2025-10-05T10:03:27.000Z</time>
      </trkpt>
      <trkpt lat="49.5825" lon="3.43612">
        <ele>214.5</ele>
        <time>2025-10-05T10:03:28.000Z</time>
      </trkpt>
      <trkpt lat="49.5825" lon="3.43612">
        <ele>214.3</ele>
        <time>2025-10-05T10:03:29.000Z</time>
      </trkpt>
      <trkpt lat="49.58251" lon="3.43612">
        <ele>214.1</ele>
        <time>2025-10-05T10:03:30.000Z</time>
      </trkpt>
      <trkpt lat="49.58252" lon="3.43612">
        <ele>213.8</ele>
        <time>2025-10-05T10:03:31.000Z</time>
      </trkpt>
      <trkpt lat="49.58252" lon="3.43611">
        <ele>213.7</ele>
        <time>2025-10-05T10:03:32.000Z</time>
      </trkpt>
      <trkpt lat="49.58253" lon="3.43611">
        <ele>213.5</ele>
        <time>2025-10-05T10:03:33.000Z</time>
      </trkpt>
      <trkpt lat="49.58252" lon="3.4361">
        <ele>212.9</ele>
        <time>2025-10-05T10:03:34.000Z</time>
      </trkpt>
      <trkpt lat="49.58253" lon="3.4361">
        <ele>212.4</ele>
        <time>2025-10-05T10:03:35.000Z</time>
      </trkpt>
      <trkpt lat="49.58253" lon="3.4361">
        <ele>212.4</ele>
        <time>2025-10-05T10:03:36.000Z</time>
      </trkpt>
      <trkpt lat="49.58254" lon="3.4361">
        <ele>212.2</ele>
        <time>2025-10-05T10:03:37.000Z</time>
      </trkpt>
      <trkpt lat="49.58255" lon="3.43611">
        <ele>212.2</ele>
        <time>2025-10-05T10:03:38.000Z</time>
      </trkpt>
      <trkpt lat="49.58256" lon="3.43611">
        <ele>212.3</ele>
        <time>2025-10-05T10:03:39.000Z</time>
      </trkpt>
      <trkpt lat="49.58257" lon="3.43611">
        <ele>212.2</ele>
        <time>2025-10-05T10:03:40.000Z</time>
      </trkpt>
      <trkpt lat="49.58258" lon="3.4361">
        <ele>212.1</ele>
        <time>2025-10-05T10:03:41.000Z</time>
      </trkpt>
      <trkpt lat="49.58258" lon="3.4361">
        <ele>211.8</ele>
        <time>2025-10-05T10:03:42.000Z</time>
      </trkpt>
      <trkpt lat="49.58258" lon="3.4361">
        <ele>211.7</ele>
        <time>2025-10-05T10:03:43.000Z</time>
      </trkpt>
      <trkpt lat="49.58259" lon="3.4361">
        <ele>211.8</ele>
        <time>2025-10-05T10:03:44.000Z</time>
      </trkpt>
      <trkpt lat="49.58259" lon="3.4361">
        <ele>211.9</ele>
        <time>2025-10-05T10:03:45.000Z</time>
      </trkpt>
      <trkpt lat="49.5826" lon="3.43611">
        <ele>212.2</ele>
        <time>2025-10-05T10:03:46.000Z</time>
      </trkpt>
      <trkpt lat="49.58261" lon="3.43611">
        <ele>212.5</ele>
        <time>2025-10-05T10:03:47.000Z</time>
      </trkpt>
      <trkpt lat="49.58262" lon="3.43611">
        <ele>212.7</ele>
        <time>2025-10-05T10:03:48.000Z</time>
      </trkpt>
      <trkpt lat="49.58263" lon="3.43612">
        <ele>212.8</ele>
        <time>2025-10-05T10:03:49.000Z</time>
      </trkpt>
      <trkpt lat="49.58264" lon="3.43613">
        <ele>213</ele>
        <time>2025-10-05T10:03:50.000Z</time>
      </trkpt>
      <trkpt lat="49.58266" lon="3.43614">
        <ele>212.9</ele>
        <time>2025-10-05T10:03:51.000Z</time>
      </trkpt>
      <trkpt lat="49.58267" lon="3.43615">
        <ele>212.8</ele>
        <time>2025-10-05T10:03:52.000Z</time>
      </trkpt>
      <trkpt lat="49.58268" lon="3.43616">
        <ele>212.3</ele>
        <time>2025-10-05T10:03:53.000Z</time>
      </trkpt>
      <trkpt lat="49.58269" lon="3.43617">
        <ele>211.7</ele>
        <time>2025-10-05T10:03:54.000Z</time>
      </trkpt>
      <trkpt lat="49.5827" lon="3.43618">
        <ele>211.1</ele>
        <time>2025-10-05T10:03:55.000Z</time>
      </trkpt>
      <trkpt lat="49.58271" lon="3.43619">
        <ele>210.5</ele>
        <time>2025-10-05T10:03:56.000Z</time>
      </trkpt>
      <trkpt lat="49.58272" lon="3.4362">
        <ele>210.3</ele>
        <time>2025-10-05T10:03:57.000Z</time>
      </trkpt>
      <trkpt lat="49.58273" lon="3.43621">
        <ele>210</ele>
        <time>2025-10-05T10:03:58.000Z</time>
      </trkpt>
      <trkpt lat="49.58274" lon="3.43621">
        <ele>210.1</ele>
        <time>2025-10-05T10:03:59.000Z</time>
      </trkpt>
      <trkpt lat="49.58275" lon="3.43621">
        <ele>210</ele>
        <time>2025-10-05T10:04:00.000Z</time>
      </trkpt>
      <trkpt lat="49.58276" lon="3.4362">
        <ele>209.9</ele>
        <time>2025-10-05T10:04:01.000Z</time>
      </trkpt>
      <trkpt lat="49.58277" lon="3.4362">
        <ele>209.6</ele>
        <time>2025-10-05T10:04:02.000Z</time>
      </trkpt>
      <trkpt lat="49.58278" lon="3.43619">
        <ele>209.2</ele>
        <time>2025-10-05T10:04:03.000Z</time>
      </trkpt>
      <trkpt lat="49.58279" lon="3.43619">
        <ele>208.9</ele>
        <time>2025-10-05T10:04:04.000Z</time>
      </trkpt>
      <trkpt lat="49.58281" lon="3.43618">
        <ele>208.6</ele>
        <time>2025-10-05T10:04:05.000Z</time>
      </trkpt>
      <trkpt lat="49.58282" lon="3.43619">
        <ele>208.2</ele>
        <time>2025-10-05T10:04:06.000Z</time>
      </trkpt>
      <trkpt lat="49.58283" lon="3.43619">
        <ele>207.8</ele>
        <time>2025-10-05T10:04:07.000Z</time>
      </trkpt>
      <trkpt lat="49.58284" lon="3.43618">
        <ele>206.9</ele>
        <time>2025-10-05T10:04:08.000Z</time>
      </trkpt>
      <trkpt lat="49.58285" lon="3.43618">
        <ele>206.3</ele>
        <time>2025-10-05T10:04:09.000Z</time>
      </trkpt>
      <trkpt lat="49.58286" lon="3.43619">
        <ele>205.8</ele>
        <time>2025-10-05T10:04:10.000Z</time>
      </trkpt>
      <trkpt lat="49.58288" lon="3.43619">
        <ele>205.6</ele>
        <time>2025-10-05T10:04:11.000Z</time>
      </trkpt>
      <trkpt lat="49.58289" lon="3.43619">
        <ele>205.7</ele>
        <time>2025-10-05T10:04:12.000Z</time>
      </trkpt>
      <trkpt lat="49.5829" lon="3.43619">
        <ele>205.9</ele>
        <time>2025-10-05T10:04:13.000Z</time>
      </trkpt>
      <trkpt lat="49.58291" lon="3.4362">
        <ele>205.9</ele>
        <time>2025-10-05T10:04:14.000Z</time>
      </trkpt>
      <trkpt lat="49.58292" lon="3.4362">
        <ele>205.8</ele>
        <time>2025-10-05T10:04:15.000Z</time>
      </trkpt>
      <trkpt lat="49.58293" lon="3.43622">
        <ele>205.6</ele>
        <time>2025-10-05T10:04:16.000Z</time>
      </trkpt>
      <trkpt lat="49.58293" lon="3.43623">
        <ele>205.5</ele>
        <time>2025-10-05T10:04:17.000Z</time>
      </trkpt>
      <trkpt lat="49.58294" lon="3.43624">
        <ele>205.2</ele>
        <time>2025-10-05T10:04:18.000Z</time>
      </trkpt>
      <trkpt lat="49.58295" lon="3.43626">
        <ele>204.8</ele>
        <time>2025-10-05T10:04:19.000Z</time>
      </trkpt>
      <trkpt lat="49.58295" lon="3.43627">
        <ele>204.7</ele>
        <time>2025-10-05T10:04:20.000Z</time>
      </trkpt>
      <trkpt lat="49.58296" lon="3.43628">
        <ele>204.5</ele>
        <time>2025-10-05T10:04:21.000Z</time>
      </trkpt>
      <trkpt lat="49.58296" lon="3.43629">
        <ele>204.4</ele>
        <time>2025-10-05T10:04:22.000Z</time>
      </trkpt>
      <trkpt lat="49.58297" lon="3.43629">
        <ele>204.2</ele>
        <time>2025-10-05T10:04:23.000Z</time>
      </trkpt>
      <trkpt lat="49.58298" lon="3.4363">
        <ele>204.2</ele>
        <time>2025-10-05T10:04:24.000Z</time>
      </trkpt>
      <trkpt lat="49.58299" lon="3.4363">
        <ele>204.3</ele>
        <time>2025-10-05T10:04:25.000Z</time>
      </trkpt>
      <trkpt lat="49.583" lon="3.43631">
        <ele>204.4</ele>
        <time>2025-10-05T10:04:26.000Z</time>
      </trkpt>
      <trkpt lat="49.58301" lon="3.43632">
        <ele>204.4</ele>
        <time>2025-10-05T10:04:27.000Z</time>
      </trkpt>
      <trkpt lat="49.58302" lon="3.43632">
        <ele>204.4</ele>
        <time>2025-10-05T10:04:28.000Z</time>
      </trkpt>
      <trkpt lat="49.58303" lon="3.43632">
        <ele>204.3</ele>
        <time>2025-10-05T10:04:29.000Z</time>
      </trkpt>
      <trkpt lat="49.58304" lon="3.43632">
        <ele>204.3</ele>
        <time>2025-10-05T10:04:30.000Z</time>
      </trkpt>
      <trkpt lat="49.58305" lon="3.43631">
        <ele>204.1</ele>
        <time>2025-10-05T10:04:31.000Z</time>
      </trkpt>
      <trkpt lat="49.58305" lon="3.43631">
        <ele>204.5</ele>
        <time>2025-10-05T10:04:32.000Z</time>
      </trkpt>
      <trkpt lat="49.58306" lon="3.43631">
        <ele>204.5</ele>
        <time>2025-10-05T10:04:33.000Z</time>
      </trkpt>
      <trkpt lat="49.58307" lon="3.43631">
        <ele>204.8</ele>
        <time>2025-10-05T10:04:34.000Z</time>
      </trkpt>
      <trkpt lat="49.58308" lon="3.43631">
        <ele>205</ele>
        <time>2025-10-05T10:04:35.000Z</time>
      </trkpt>
      <trkpt lat="49.58309" lon="3.43631">
        <ele>204.9</ele>
        <time>2025-10-05T10:04:36.000Z</time>
      </trkpt>
      <trkpt lat="49.58309" lon="3.43631">
        <ele>204.5</ele>
        <time>2025-10-05T10:04:37.000Z</time>
      </trkpt>
      <trkpt lat="49.58309" lon="3.43631">
        <ele>204.1</ele>
        <time>2025-10-05T10:04:38.000Z</time>
      </trkpt>
      <trkpt lat="49.5831" lon="3.43631">
        <ele>204.2</ele>
        <time>2025-10-05T10:04:39.000Z</time>
      </trkpt>
      <trkpt lat="49.5831" lon="3.43631">
        <ele>203.9</ele>
        <time>2025-10-05T10:04:40.000Z</time>
      </trkpt>
      <trkpt lat="49.5831" lon="3.43631">
        <ele>203.4</ele>
        <time>2025-10-05T10:04:41.000Z</time>
      </trkpt>
      <trkpt lat="49.58311" lon="3.4363">
        <ele>202.9</ele>
        <time>2025-10-05T10:04:42.000Z</time>
      </trkpt>
      <trkpt lat="49.58312" lon="3.43629">
        <ele>202.4</ele>
        <time>2025-10-05T10:04:43.000Z</time>
      </trkpt>
      <trkpt lat="49.58313" lon="3.43628">
        <ele>202.3</ele>
        <time>2025-10-05T10:04:44.000Z</time>
      </trkpt>
      <trkpt lat="49.58314" lon="3.43627">
        <ele>202.2</ele>
        <time>2025-10-05T10:04:45.000Z</time>
      </trkpt>
      <trkpt lat="49.58315" lon="3.43627">
        <ele>201.7</ele>
        <time>2025-10-05T10:04:46.000Z</time>
      </trkpt>
      <trkpt lat="49.58316" lon="3.43627">
        <ele>201.2</ele>
        <time>2025-10-05T10:04:47.000Z</time>
      </trkpt>
      <trkpt lat="49.58317" lon="3.43627">
        <ele>200.6</ele>
        <time>2025-10-05T10:04:48.000Z</time>
      </trkpt>
      <trkpt lat="49.58318" lon="3.43627">
        <ele>200.1</ele>
        <time>2025-10-05T10:04:49.000Z</time>
      </trkpt>
      <trkpt lat="49.58318" lon="3.43627">
        <ele>199.5</ele>
        <time>2025-10-05T10:04:50.000Z</time>
      </trkpt>
      <trkpt lat="49.58319" lon="3.43627">
        <ele>199.3</ele>
        <time>2025-10-05T10:04:51.000Z</time>
      </trkpt>
      <trkpt lat="49.58319" lon="3.43626">
        <ele>199.1</ele>
        <time>2025-10-05T10:04:52.000Z</time>
      </trkpt>
      <trkpt lat="49.5832" lon="3.43625">
        <ele>198.8</ele>
        <time>2025-10-05T10:04:53.000Z</time>
      </trkpt>
      <trkpt lat="49.58321" lon="3.43624">
        <ele>198.9</ele>
        <time>2025-10-05T10:04:54.000Z</time>
      </trkpt>
      <trkpt lat="49.58321" lon="3.43623">
        <ele>198.9</ele>
        <time>2025-10-05T10:04:55.000Z</time>
      </trkpt>
      <trkpt lat="49.58322" lon="3.43622">
        <ele>198.6</ele>
        <time>2025-10-05T10:04:56.000Z</time>
      </trkpt>
      <trkpt lat="49.58323" lon="3.43621">
        <ele>198.3</ele>
        <time>2025-10-05T10:04:57.000Z</time>
      </trkpt>
      <trkpt lat="49.58323" lon="3.43619">
        <ele>198.2</ele>
        <time>2025-10-05T10:04:58.000Z</time>
      </trkpt>
      <trkpt lat="49.58324" lon="3.43618">
        <ele>198</ele>
        <time>2025-10-05T10:04:59.000Z</time>
      </trkpt>
      <trkpt lat="49.58325" lon="3.43618">
        <ele>197.9</ele>
        <time>2025-10-05T10:05:00.000Z</time>
      </trkpt>
      <trkpt lat="49.58326" lon="3.43617">
        <ele>197.8</ele>
        <time>2025-10-05T10:05:01.000Z</time>
      </trkpt>
      <trkpt lat="49.58327" lon="3.43617">
        <ele>198</ele>
        <time>2025-10-05T10:05:02.000Z</time>
      </trkpt>
      <trkpt lat="49.58327" lon="3.43618">
        <ele>198.1</ele>
        <time>2025-10-05T10:05:03.000Z</time>
      </trkpt>
      <trkpt lat="49.58328" lon="3.43618">
        <ele>197.9</ele>
        <time>2025-10-05T10:05:04.000Z</time>
      </trkpt>
      <trkpt lat="49.58329" lon="3.43618">
        <ele>197.8</ele>
        <time>2025-10-05T10:05:05.000Z</time>
      </trkpt>
      <trkpt lat="49.5833" lon="3.43617">
        <ele>197.5</ele>
        <time>2025-10-05T10:05:06.000Z</time>
      </trkpt>
      <trkpt lat="49.58331" lon="3.43616">
        <ele>197.3</ele>
        <time>2025-10-05T10:05:07.000Z</time>
      </trkpt>
      <trkpt lat="49.58332" lon="3.43613">
        <ele>197.3</ele>
        <time>2025-10-05T10:05:08.000Z</time>
      </trkpt>
      <trkpt lat="49.58333" lon="3.43611">
        <ele>197.1</ele>
        <time>2025-10-05T10:05:09.000Z</time>
      </trkpt>
      <trkpt lat="49.58333" lon="3.4361">
        <ele>197</ele>
        <time>2025-10-05T10:05:10.000Z</time>
      </trkpt>
      <trkpt lat="49.58334" lon="3.43609">
        <ele>196.8</ele>
        <time>2025-10-05T10:05:11.000Z</time>
      </trkpt>
      <trkpt lat="49.58334" lon="3.43608">
        <ele>196.4</ele>
        <time>2025-10-05T10:05:12.000Z</time>
      </trkpt>
      <trkpt lat="49.58335" lon="3.43607">
        <ele>196.1</ele>
        <time>2025-10-05T10:05:13.000Z</time>
      </trkpt>
      <trkpt lat="49.58336" lon="3.43605">
        <ele>195.9</ele>
        <time>2025-10-05T10:05:14.000Z</time>
      </trkpt>
      <trkpt lat="49.58337" lon="3.43603">
        <ele>195.8</ele>
        <time>2025-10-05T10:05:15.000Z</time>
      </trkpt>
      <trkpt lat="49.58337" lon="3.43602">
        <ele>195.7</ele>
        <time>2025-10-05T10:05:16.000Z</time>
      </trkpt>
      <trkpt lat="49.58338" lon="3.43602">
        <ele>195.4</ele>
        <time>2025-10-05T10:05:17.000Z</time>
      </trkpt>
      <trkpt lat="49.58339" lon="3.43601">
        <ele>195</ele>
        <time>2025-10-05T10:05:18.000Z</time>
      </trkpt>
      <trkpt lat="49.58339" lon="3.436">
        <ele>194.8</ele>
        <time>2025-10-05T10:05:19.000Z</time>
      </trkpt>
      <trkpt lat="49.58339" lon="3.43599">
        <ele>194.9</ele>
        <time>2025-10-05T10:05:20.000Z</time>
      </trkpt>
      <trkpt lat="49.5834" lon="3.43598">
        <ele>195.1</ele>
        <time>2025-10-05T10:05:21.000Z</time>
      </trkpt>
      <trkpt lat="49.5834" lon="3.43596">
        <ele>195.4</ele>
        <time>2025-10-05T10:05:22.000Z</time>
      </trkpt>
      <trkpt lat="49.58341" lon="3.43595">
        <ele>195.4</ele>
        <time>2025-10-05T10:05:23.000Z</time>
      </trkpt>
      <trkpt lat="49.58341" lon="3.43593">
        <ele>195.5</ele>
        <time>2025-10-05T10:05:24.000Z</time>
      </trkpt>
      <trkpt lat="49.58342" lon="3.43592">
        <ele>195.8</ele>
        <time>2025-10-05T10:05:25.000Z</time>
      </trkpt>
      <trkpt lat="49.58342" lon="3.43591">
        <ele>195.9</ele>
        <time>2025-10-05T10:05:26.000Z</time>
      </trkpt>
      <trkpt lat="49.58343" lon="3.43589">
        <ele>195.9</ele>
        <time>2025-10-05T10:05:27.000Z</time>
      </trkpt>
      <trkpt lat="49.58344" lon="3.43588">
        <ele>195.9</ele>
        <time>2025-10-05T10:05:28.000Z</time>
      </trkpt>
      <trkpt lat="49.58344" lon="3.43587">
        <ele>195.7</ele>
        <time>2025-10-05T10:05:29.000Z</time>
      </trkpt>
      <trkpt lat="49.58345" lon="3.43586">
        <ele>195.7</ele>
        <time>2025-10-05T10:05:30.000Z</time>
      </trkpt>
      <trkpt lat="49.58346" lon="3.43585">
        <ele>195.5</ele>
        <time>2025-10-05T10:05:31.000Z</time>
      </trkpt>
      <trkpt lat="49.58346" lon="3.43584">
        <ele>195.2</ele>
        <time>2025-10-05T10:05:32.000Z</time>
      </trkpt>
      <trkpt lat="49.58346" lon="3.43583">
        <ele>195</ele>
        <time>2025-10-05T10:05:33.000Z</time>
      </trkpt>
      <trkpt lat="49.58347" lon="3.43583">
        <ele>194.8</ele>
        <time>2025-10-05T10:05:34.000Z</time>
      </trkpt>
      <trkpt lat="49.58347" lon="3.43583">
        <ele>194.5</ele>
        <time>2025-10-05T10:05:35.000Z</time>
      </trkpt>
      <trkpt lat="49.58347" lon="3.43582">
        <ele>194.3</ele>
        <time>2025-10-05T10:05:36.000Z</time>
      </trkpt>
      <trkpt lat="49.58347" lon="3.43582">
        <ele>194.3</ele>
        <time>2025-10-05T10:05:37.000Z</time>
      </trkpt>
      <trkpt lat="49.58348" lon="3.43582">
        <ele>194.7</ele>
        <time>2025-10-05T10:05:38.000Z</time>
      </trkpt>
      <trkpt lat="49.58349" lon="3.43583">
        <ele>194.8</ele>
        <time>2025-10-05T10:05:39.000Z</time>
      </trkpt>
      <trkpt lat="49.5835" lon="3.43582">
        <ele>194.8</ele>
        <time>2025-10-05T10:05:40.000Z</time>
      </trkpt>
      <trkpt lat="49.58349" lon="3.43582">
        <ele>194.8</ele>
        <time>2025-10-05T10:05:41.000Z</time>
      </trkpt>
      <trkpt lat="49.58349" lon="3.43581">
        <ele>195</ele>
        <time>2025-10-05T10:05:42.000Z</time>
      </trkpt>
      <trkpt lat="49.58349" lon="3.4358">
        <ele>195</ele>
        <time>2025-10-05T10:05:43.000Z</time>
      </trkpt>
      <trkpt lat="49.58349" lon="3.4358">
        <ele>194.9</ele>
        <time>2025-10-05T10:05:44.000Z</time>
      </trkpt>
      <trkpt lat="49.5835" lon="3.4358">
        <ele>194.7</ele>
        <time>2025-10-05T10:05:45.000Z</time>
      </trkpt>
      <trkpt lat="49.5835" lon="3.43579">
        <ele>194.6</ele>
        <time>2025-10-05T10:05:46.000Z</time>
      </trkpt>
      <trkpt lat="49.5835" lon="3.43579">
        <ele>194.5</ele>
        <time>2025-10-05T10:05:47.000Z</time>
      </trkpt>
      <trkpt lat="49.5835" lon="3.43579">
        <ele>194.4</ele>
        <time>2025-10-05T10:05:48.000Z</time>
      </trkpt>
      <trkpt lat="49.5835" lon="3.4358">
        <ele>194.4</ele>
        <time>2025-10-05T10:05:49.000Z</time>
      </trkpt>
      <trkpt lat="49.58351" lon="3.4358">
        <ele>194.3</ele>
        <time>2025-10-05T10:05:50.000Z</time>
      </trkpt>
      <trkpt lat="49.58352" lon="3.4358">
        <ele>194.1</ele>
        <time>2025-10-05T10:05:51.000Z</time>
      </trkpt>
      <trkpt lat="49.58352" lon="3.4358">
        <ele>194.1</ele>
        <time>2025-10-05T10:05:52.000Z</time>
      </trkpt>
      <trkpt lat="49.58352" lon="3.4358">
        <ele>194.1</ele>
        <time>2025-10-05T10:05:53.000Z</time>
      </trkpt>
      <trkpt lat="49.58352" lon="3.4358">
        <ele>194.1</ele>
        <time>2025-10-05T10:05:54.000Z</time>
      </trkpt>
      <trkpt lat="49.58352" lon="3.4358">
        <ele>194.1</ele>
        <time>2025-10-05T10:05:55.000Z</time>
      </trkpt>
      <trkpt lat="49.58352" lon="3.4358">
        <ele>194.1</ele>
        <time>2025-10-05T10:05:56.000Z</time>
      </trkpt>
      <trkpt lat="49.58352" lon="3.4358">
        <ele>194.1</ele>
        <time>2025-10-05T10:05:57.000Z</time>
      </trkpt>
      <trkpt lat="49.58352" lon="3.4358">
        <ele>194.1</ele>
        <time>2025-10-05T10:05:58.000Z</time>
      </trkpt>
      <trkpt lat="49.58352" lon="3.4358">
        <ele>194.1</ele>
        <time>2025-10-05T10:05:59.000Z</time>
      </trkpt>
      <trkpt lat="49.58353" lon="3.43575">
        <ele>195.1</ele>
        <time>2025-10-05T10:06:00.000Z</time>
      </trkpt>
      <trkpt lat="49.58353" lon="3.43574">
        <ele>195.2</ele>
        <time>2025-10-05T10:06:01.000Z</time>
      </trkpt>
      <trkpt lat="49.58353" lon="3.43574">
        <ele>195.4</ele>
        <time>2025-10-05T10:06:02.000Z</time>
      </trkpt>
      <trkpt lat="49.58353" lon="3.43573">
        <ele>195.6</ele>
        <time>2025-10-05T10:06:03.000Z</time>
      </trkpt>
      <trkpt lat="49.58353" lon="3.43573">
        <ele>195.7</ele>
        <time>2025-10-05T10:06:04.000Z</time>
      </trkpt>
      <trkpt lat="49.58353" lon="3.43573">
        <ele>195.9</ele>
        <time>2025-10-05T10:06:05.000Z</time>
      </trkpt>
      <trkpt lat="49.58353" lon="3.43572">
        <ele>195.8</ele>
        <time>2025-10-05T10:06:06.000Z</time>
      </trkpt>
      <trkpt lat="49.58353" lon="3.43572">
        <ele>195.8</ele>
        <time>2025-10-05T10:06:07.000Z</time>
      </trkpt>
      <trkpt lat="49.58354" lon="3.43571">
        <ele>195.9</ele>
        <time>2025-10-05T10:06:08.000Z</time>
      </trkpt>
      <trkpt lat="49.58353" lon="3.43571">
        <ele>196.1</ele>
        <time>2025-10-05T10:06:09.000Z</time>
      </trkpt>
      <trkpt lat="49.58353" lon="3.43571">
        <ele>196.2</ele>
        <time>2025-10-05T10:06:10.000Z</time>
      </trkpt>
      <trkpt lat="49.58353" lon="3.43571">
        <ele>196.4</ele>
        <time>2025-10-05T10:06:11.000Z</time>
      </trkpt>
      <trkpt lat="49.58353" lon="3.4357">
        <ele>196.5</ele>
        <time>2025-10-05T10:06:12.000Z</time>
      </trkpt>
      <trkpt lat="49.58353" lon="3.4357">
        <ele>196.4</ele>
        <time>2025-10-05T10:06:13.000Z</time>
      </trkpt>
      <trkpt lat="49.58353" lon="3.4357">
        <ele>196.4</ele>
        <time>2025-10-05T10:06:14.000Z</time>
      </trkpt>
      <trkpt lat="49.58353" lon="3.4357">
        <ele>196.4</ele>
        <time>2025-10-05T10:06:15.000Z</time>
      </trkpt>
      <trkpt lat="49.58353" lon="3.4357">
        <ele>196.4</ele>
        <time>2025-10-05T10:06:16.000Z</time>
      </trkpt>
      <trkpt lat="49.58353" lon="3.4357">
        <ele>196.4</ele>
        <time>2025-10-05T10:06:17.000Z</time>
      </trkpt>
      <trkpt lat="49.58353" lon="3.4357">
        <ele>196.4</ele>
        <time>2025-10-05T10:06:18.000Z</time>
      </trkpt>
      <trkpt lat="49.58353" lon="3.4357">
        <ele>196.4</ele>
        <time>2025-10-05T10:06:19.000Z</time>
      </trkpt>
      <trkpt lat="49.58353" lon="3.4357">
        <ele>196.4</ele>
        <time>2025-10-05T10:06:20.000Z</time>
      </trkpt>
      <trkpt lat="49.58353" lon="3.4357">
        <ele>196.4</ele>
        <time>2025-10-05T10:06:21.000Z</time>
      </trkpt>
      <trkpt lat="49.58353" lon="3.4357">
        <ele>196.4</ele>
        <time>2025-10-05T10:06:22.000Z</time>
      </trkpt>
      <trkpt lat="49.58353" lon="3.4357">
        <ele>196.4</ele>
        <time>2025-10-05T10:06:23.000Z</time>
      </trkpt>
      <trkpt lat="49.58353" lon="3.4357">
        <ele>196.4</ele>
        <time>2025-10-05T10:06:24.000Z</time>
      </trkpt>
      <trkpt lat="49.58353" lon="3.4357">
        <ele>196.4</ele>
        <time>2025-10-05T10:06:25.000Z</time>
      </trkpt>
      <trkpt lat="49.58353" lon="3.4357">
        <ele>196.4</ele>
        <time>2025-10-05T10:06:26.000Z</time>
      </trkpt>
      <trkpt lat="49.58353" lon="3.4357">
        <ele>196.4</ele>
        <time>2025-10-05T10:06:27.000Z</time>
      </trkpt>
      <trkpt lat="49.58353" lon="3.4357">
        <ele>196.4</ele>
        <time>2025-10-05T10:06:28.000Z</time>
      </trkpt>
      <trkpt lat="49.58356" lon="3.43569">
        <ele>197</ele>
        <time>2025-10-05T10:06:29.000Z</time>
      </trkpt>
      <trkpt lat="49.58356" lon="3.43569">
        <ele>197</ele>
        <time>2025-10-05T10:06:30.000Z</time>
      </trkpt>
      <trkpt lat="49.58357" lon="3.43569">
        <ele>196.9</ele>
        <time>2025-10-05T10:06:31.000Z</time>
      </trkpt>
      <trkpt lat="49.58357" lon="3.43568">
        <ele>196.7</ele>
        <time>2025-10-05T10:06:32.000Z</time>
      </trkpt>
      <trkpt lat="49.58358" lon="3.43568">
        <ele>196.7</ele>
        <time>2025-10-05T10:06:33.000Z</time>
      </trkpt>
      <trkpt lat="49.58357" lon="3.43567">
        <ele>196.6</ele>
        <time>2025-10-05T10:06:34.000Z</time>
      </trkpt>
      <trkpt lat="49.58357" lon="3.43566">
        <ele>196.5</ele>
        <time>2025-10-05T10:06:35.000Z</time>
      </trkpt>
      <trkpt lat="49.58357" lon="3.43566">
        <ele>196.7</ele>
        <time>2025-10-05T10:06:36.000Z</time>
      </trkpt>
      <trkpt lat="49.58357" lon="3.43566">
        <ele>196.7</ele>
        <time>2025-10-05T10:06:37.000Z</time>
      </trkpt>
      <trkpt lat="49.58357" lon="3.43566">
        <ele>196.9</ele>
        <time>2025-10-05T10:06:38.000Z</time>
      </trkpt>
      <trkpt lat="49.58357" lon="3.43566">
        <ele>196.9</ele>
        <time>2025-10-05T10:06:39.000Z</time>
      </trkpt>
      <trkpt lat="49.58357" lon="3.43566">
        <ele>196.9</ele>
        <time>2025-10-05T10:06:40.000Z</time>
      </trkpt>
      <trkpt lat="49.58357" lon="3.43566">
        <ele>196.9</ele>
        <time>2025-10-05T10:06:41.000Z</time>
      </trkpt>
      <trkpt lat="49.58358" lon="3.43565">
        <ele>197.2</ele>
        <time>2025-10-05T10:06:42.000Z</time>
      </trkpt>
      <trkpt lat="49.58358" lon="3.43565">
        <ele>197.3</ele>
        <time>2025-10-05T10:06:43.000Z</time>
      </trkpt>
      <trkpt lat="49.58359" lon="3.43565">
        <ele>197.4</ele>
        <time>2025-10-05T10:06:44.000Z</time>
      </trkpt>
      <trkpt lat="49.5836" lon="3.43564">
        <ele>197.5</ele>
        <time>2025-10-05T10:06:45.000Z</time>
      </trkpt>
      <trkpt lat="49.5836" lon="3.43564">
        <ele>197.6</ele>
        <time>2025-10-05T10:06:46.000Z</time>
      </trkpt>
      <trkpt lat="49.5836" lon="3.43563">
        <ele>197.7</ele>
        <time>2025-10-05T10:06:47.000Z</time>
      </trkpt>
      <trkpt lat="49.5836" lon="3.43563">
        <ele>197.7</ele>
        <time>2025-10-05T10:06:48.000Z</time>
      </trkpt>
      <trkpt lat="49.5836" lon="3.43563">
        <ele>197.7</ele>
        <time>2025-10-05T10:06:49.000Z</time>
      </trkpt>
      <trkpt lat="49.5836" lon="3.43563">
        <ele>197.7</ele>
        <time>2025-10-05T10:06:50.000Z</time>
      </trkpt>
      <trkpt lat="49.5836" lon="3.43563">
        <ele>197.7</ele>
        <time>2025-10-05T10:06:51.000Z</time>
      </trkpt>
      <trkpt lat="49.5836" lon="3.43563">
        <ele>197.7</ele>
        <time>2025-10-05T10:06:52.000Z</time>
      </trkpt>
      <trkpt lat="49.5836" lon="3.43563">
        <ele>197.7</ele>
        <time>2025-10-05T10:06:53.000Z</time>
      </trkpt>
      <trkpt lat="49.5836" lon="3.43563">
        <ele>197.7</ele>
        <time>2025-10-05T10:06:54.000Z</time>
      </trkpt>
      <trkpt lat="49.58361" lon="3.43562">
        <ele>197.1</ele>
        <time>2025-10-05T10:06:55.000Z</time>
      </trkpt>
      <trkpt lat="49.58361" lon="3.43562">
        <ele>196.9</ele>
        <time>2025-10-05T10:06:56.000Z</time>
      </trkpt>
      <trkpt lat="49.58361" lon="3.43562">
        <ele>196.7</ele>
        <time>2025-10-05T10:06:57.000Z</time>
      </trkpt>
      <trkpt lat="49.58361" lon="3.43561">
        <ele>196.5</ele>
        <time>2025-10-05T10:06:58.000Z</time>
      </trkpt>
      <trkpt lat="49.58361" lon="3.43561">
        <ele>196.4</ele>
        <time>2025-10-05T10:06:59.000Z</time>
      </trkpt>
      <trkpt lat="49.58361" lon="3.43562">
        <ele>196.1</ele>
        <time>2025-10-05T10:07:00.000Z</time>
      </trkpt>
      <trkpt lat="49.58361" lon="3.43562">
        <ele>195.8</ele>
        <time>2025-10-05T10:07:01.000Z</time>
      </trkpt>
      <trkpt lat="49.58361" lon="3.43561">
        <ele>195.6</ele>
        <time>2025-10-05T10:07:02.000Z</time>
      </trkpt>
      <trkpt lat="49.58361" lon="3.43561">
        <ele>195.2</ele>
        <time>2025-10-05T10:07:03.000Z</time>
      </trkpt>
      <trkpt lat="49.58361" lon="3.43562">
        <ele>194.9</ele>
        <time>2025-10-05T10:07:04.000Z</time>
      </trkpt>
      <trkpt lat="49.58361" lon="3.43562">
        <ele>194.9</ele>
        <time>2025-10-05T10:07:05.000Z</time>
      </trkpt>
      <trkpt lat="49.58361" lon="3.43562">
        <ele>194.9</ele>
        <time>2025-10-05T10:07:06.000Z</time>
      </trkpt>
      <trkpt lat="49.58361" lon="3.43562">
        <ele>194.9</ele>
        <time>2025-10-05T10:07:07.000Z</time>
      </trkpt>
      <trkpt lat="49.58361" lon="3.43562">
        <ele>194.9</ele>
        <time>2025-10-05T10:07:08.000Z</time>
      </trkpt>
      <trkpt lat="49.58361" lon="3.43562">
        <ele>194.9</ele>
        <time>2025-10-05T10:07:09.000Z</time>
      </trkpt>
      <trkpt lat="49.58359" lon="3.43559">
        <ele>194.1</ele>
        <time>2025-10-05T10:07:10.000Z</time>
      </trkpt>
      <trkpt lat="49.58359" lon="3.43558">
        <ele>193.9</ele>
        <time>2025-10-05T10:07:11.000Z</time>
      </trkpt>
      <trkpt lat="49.58359" lon="3.43558">
        <ele>193.7</ele>
        <time>2025-10-05T10:07:12.000Z</time>
      </trkpt>
      <trkpt lat="49.58358" lon="3.43557">
        <ele>193.6</ele>
        <time>2025-10-05T10:07:13.000Z</time>
      </trkpt>
      <trkpt lat="49.58359" lon="3.43557">
        <ele>193.7</ele>
        <time>2025-10-05T10:07:14.000Z</time>
      </trkpt>
      <trkpt lat="49.58359" lon="3.43556">
        <ele>193.5</ele>
        <time>2025-10-05T10:07:15.000Z</time>
      </trkpt>
      <trkpt lat="49.58359" lon="3.43556">
        <ele>193.2</ele>
        <time>2025-10-05T10:07:16.000Z</time>
      </trkpt>
      <trkpt lat="49.58359" lon="3.43556">
        <ele>193.1</ele>
        <time>2025-10-05T10:07:17.000Z</time>
      </trkpt>
      <trkpt lat="49.58359" lon="3.43556">
        <ele>193</ele>
        <time>2025-10-05T10:07:18.000Z</time>
      </trkpt>
      <trkpt lat="49.5836" lon="3.43555">
        <ele>193.1</ele>
        <time>2025-10-05T10:07:19.000Z</time>
      </trkpt>
      <trkpt lat="49.5836" lon="3.43555">
        <ele>193</ele>
        <time>2025-10-05T10:07:20.000Z</time>
      </trkpt>
      <trkpt lat="49.5836" lon="3.43554">
        <ele>193</ele>
        <time>2025-10-05T10:07:21.000Z</time>
      </trkpt>
      <trkpt lat="49.5836" lon="3.43554">
        <ele>192.8</ele>
        <time>2025-10-05T10:07:22.000Z</time>
      </trkpt>
      <trkpt lat="49.5836" lon="3.43554">
        <ele>192.6</ele>
        <time>2025-10-05T10:07:23.000Z</time>
      </trkpt>
      <trkpt lat="49.5836" lon="3.43553">
        <ele>192.4</ele>
        <time>2025-10-05T10:07:24.000Z</time>
      </trkpt>
      <trkpt lat="49.58361" lon="3.43553">
        <ele>192.3</ele>
        <time>2025-10-05T10:07:25.000Z</time>
      </trkpt>
      <trkpt lat="49.58361" lon="3.43552">
        <ele>192</ele>
        <time>2025-10-05T10:07:26.000Z</time>
      </trkpt>
      <trkpt lat="49.58361" lon="3.43551">
        <ele>191.9</ele>
        <time>2025-10-05T10:07:27.000Z</time>
      </trkpt>
      <trkpt lat="49.58361" lon="3.4355">
        <ele>191.8</ele>
        <time>2025-10-05T10:07:28.000Z</time>
      </trkpt>
      <trkpt lat="49.58361" lon="3.43548">
        <ele>191.6</ele>
        <time>2025-10-05T10:07:29.000Z</time>
      </trkpt>
      <trkpt lat="49.58362" lon="3.43547">
        <ele>191.6</ele>
        <time>2025-10-05T10:07:30.000Z</time>
      </trkpt>
      <trkpt lat="49.58362" lon="3.43546">
        <ele>191.6</ele>
        <time>2025-10-05T10:07:31.000Z</time>
      </trkpt>
      <trkpt lat="49.58362" lon="3.43545">
        <ele>191.7</ele>
        <time>2025-10-05T10:07:32.000Z</time>
      </trkpt>
      <trkpt lat="49.58362" lon="3.43544">
        <ele>191.6</ele>
        <time>2025-10-05T10:07:33.000Z</time>
      </trkpt>
      <trkpt lat="49.58362" lon="3.43543">
        <ele>191.7</ele>
        <time>2025-10-05T10:07:34.000Z</time>
      </trkpt>
      <trkpt lat="49.58362" lon="3.43542">
        <ele>191.7</ele>
        <time>2025-10-05T10:07:35.000Z</time>
      </trkpt>
      <trkpt lat="49.58362" lon="3.43541">
        <ele>192</ele>
        <time>2025-10-05T10:07:36.000Z</time>
      </trkpt>
      <trkpt lat="49.58362" lon="3.43541">
        <ele>191.8</ele>
        <time>2025-10-05T10:07:37.000Z</time>
      </trkpt>
      <trkpt lat="49.58362" lon="3.4354">
        <ele>191.5</ele>
        <time>2025-10-05T10:07:38.000Z</time>
      </trkpt>
      <trkpt lat="49.58362" lon="3.4354">
        <ele>191.2</ele>
        <time>2025-10-05T10:07:39.000Z</time>
      </trkpt>
      <trkpt lat="49.58362" lon="3.4354">
        <ele>190.8</ele>
        <time>2025-10-05T10:07:40.000Z</time>
      </trkpt>
      <trkpt lat="49.58362" lon="3.4354">
        <ele>190.3</ele>
        <time>2025-10-05T10:07:41.000Z</time>
      </trkpt>
      <trkpt lat="49.58361" lon="3.4354">
        <ele>190</ele>
        <time>2025-10-05T10:07:42.000Z</time>
      </trkpt>
      <trkpt lat="49.58361" lon="3.4354">
        <ele>190</ele>
        <time>2025-10-05T10:07:43.000Z</time>
      </trkpt>
      <trkpt lat="49.58361" lon="3.4354">
        <ele>190</ele>
        <time>2025-10-05T10:07:44.000Z</time>
      </trkpt>
      <trkpt lat="49.58361" lon="3.4354">
        <ele>190</ele>
        <time>2025-10-05T10:07:45.000Z</time>
      </trkpt>
      <trkpt lat="49.58361" lon="3.4354">
        <ele>190</ele>
        <time>2025-10-05T10:07:46.000Z</time>
      </trkpt>
      <trkpt lat="49.58361" lon="3.4354">
        <ele>190</ele>
        <time>2025-10-05T10:07:47.000Z</time>
      </trkpt>
      <trkpt lat="49.58361" lon="3.4354">
        <ele>190</ele>
        <time>2025-10-05T10:07:48.000Z</time>
      </trkpt>
      <trkpt lat="49.58361" lon="3.4354">
        <ele>190</ele>
        <time>2025-10-05T10:07:49.000Z</time>
      </trkpt>
      <trkpt lat="49.58362" lon="3.4354">
        <ele>187.7</ele>
        <time>2025-10-05T10:07:50.000Z</time>
      </trkpt>
      <trkpt lat="49.58363" lon="3.43541">
        <ele>187.5</ele>
        <time>2025-10-05T10:07:51.000Z</time>
      </trkpt>
      <trkpt lat="49.58363" lon="3.43541">
        <ele>187.3</ele>
        <time>2025-10-05T10:07:52.000Z</time>
      </trkpt>
      <trkpt lat="49.58364" lon="3.43541">
        <ele>187.1</ele>
        <time>2025-10-05T10:07:53.000Z</time>
      </trkpt>
      <trkpt lat="49.58364" lon="3.43541">
        <ele>187.1</ele>
        <time>2025-10-05T10:07:54.000Z</time>
      </trkpt>
      <trkpt lat="49.58364" lon="3.43541">
        <ele>187.1</ele>
        <time>2025-10-05T10:07:55.000Z</time>
      </trkpt>
      <trkpt lat="49.58364" lon="3.43541">
        <ele>187.1</ele>
        <time>2025-10-05T10:07:56.000Z</time>
      </trkpt>
      <trkpt lat="49.58364" lon="3.43541">
        <ele>187.1</ele>
        <time>2025-10-05T10:07:57.000Z</time>
      </trkpt>
      <trkpt lat="49.58364" lon="3.43541">
        <ele>187.1</ele>
        <time>2025-10-05T10:07:58.000Z</time>
      </trkpt>
      <trkpt lat="49.58364" lon="3.43541">
        <ele>187.1</ele>
        <time>2025-10-05T10:07:59.000Z</time>
      </trkpt>
      <trkpt lat="49.58364" lon="3.43541">
        <ele>187.1</ele>
        <time>2025-10-05T10:08:00.000Z</time>
      </trkpt>
      <trkpt lat="49.58365" lon="3.43537">
        <ele>186.3</ele>
        <time>2025-10-05T10:08:01.000Z</time>
      </trkpt>
      <trkpt lat="49.58366" lon="3.43536">
        <ele>186.2</ele>
        <time>2025-10-05T10:08:02.000Z</time>
      </trkpt>
      <trkpt lat="49.58365" lon="3.43535">
        <ele>186.2</ele>
        <time>2025-10-05T10:08:03.000Z</time>
      </trkpt>
      <trkpt lat="49.58366" lon="3.43535">
        <ele>185.9</ele>
        <time>2025-10-05T10:08:04.000Z</time>
      </trkpt>
      <trkpt lat="49.58366" lon="3.43534">
        <ele>185.7</ele>
        <time>2025-10-05T10:08:05.000Z</time>
      </trkpt>
      <trkpt lat="49.58367" lon="3.43533">
        <ele>185.4</ele>
        <time>2025-10-05T10:08:06.000Z</time>
      </trkpt>
      <trkpt lat="49.58367" lon="3.43532">
        <ele>185.2</ele>
        <time>2025-10-05T10:08:07.000Z</time>
      </trkpt>
      <trkpt lat="49.58367" lon="3.43532">
        <ele>185</ele>
        <time>2025-10-05T10:08:08.000Z</time>
      </trkpt>
      <trkpt lat="49.58367" lon="3.43531">
        <ele>184.9</ele>
        <time>2025-10-05T10:08:09.000Z</time>
      </trkpt>
      <trkpt lat="49.58367" lon="3.4353">
        <ele>184.5</ele>
        <time>2025-10-05T10:08:10.000Z</time>
      </trkpt>
      <trkpt lat="49.58367" lon="3.43529">
        <ele>184.2</ele>
        <time>2025-10-05T10:08:11.000Z</time>
      </trkpt>
      <trkpt lat="49.58367" lon="3.43528">
        <ele>183.9</ele>
        <time>2025-10-05T10:08:12.000Z</time>
      </trkpt>
      <trkpt lat="49.58367" lon="3.43527">
        <ele>183.5</ele>
        <time>2025-10-05T10:08:13.000Z</time>
      </trkpt>
      <trkpt lat="49.58367" lon="3.43526">
        <ele>183.2</ele>
        <time>2025-10-05T10:08:14.000Z</time>
      </trkpt>
      <trkpt lat="49.58367" lon="3.43525">
        <ele>182.7</ele>
        <time>2025-10-05T10:08:15.000Z</time>
      </trkpt>
      <trkpt lat="49.58367" lon="3.43524">
        <ele>182.4</ele>
        <time>2025-10-05T10:08:16.000Z</time>
      </trkpt>
      <trkpt lat="49.58366" lon="3.43523">
        <ele>182</ele>
        <time>2025-10-05T10:08:17.000Z</time>
      </trkpt>
      <trkpt lat="49.58365" lon="3.43522">
        <ele>181.7</ele>
        <time>2025-10-05T10:08:18.000Z</time>
      </trkpt>
      <trkpt lat="49.58364" lon="3.43521">
        <ele>181.2</ele>
        <time>2025-10-05T10:08:19.000Z</time>
      </trkpt>
      <trkpt lat="49.58363" lon="3.43519">
        <ele>180.9</ele>
        <time>2025-10-05T10:08:20.000Z</time>
      </trkpt>
      <trkpt lat="49.58363" lon="3.43517">
        <ele>180.4</ele>
        <time>2025-10-05T10:08:21.000Z</time>
      </trkpt>
      <trkpt lat="49.58363" lon="3.43516">
        <ele>179.8</ele>
        <time>2025-10-05T10:08:22.000Z</time>
      </trkpt>
      <trkpt lat="49.58362" lon="3.43515">
        <ele>179.4</ele>
        <time>2025-10-05T10:08:23.000Z</time>
      </trkpt>
      <trkpt lat="49.58361" lon="3.43514">
        <ele>179.1</ele>
        <time>2025-10-05T10:08:24.000Z</time>
      </trkpt>
      <trkpt lat="49.58361" lon="3.43512">
        <ele>178.9</ele>
        <time>2025-10-05T10:08:25.000Z</time>
      </trkpt>
      <trkpt lat="49.5836" lon="3.4351">
        <ele>178.6</ele>
        <time>2025-10-05T10:08:26.000Z</time>
      </trkpt>
      <trkpt lat="49.58359" lon="3.43509">
        <ele>178</ele>
        <time>2025-10-05T10:08:27.000Z</time>
      </trkpt>
      <trkpt lat="49.5836" lon="3.43507">
        <ele>177.2</ele>
        <time>2025-10-05T10:08:28.000Z</time>
      </trkpt>
      <trkpt lat="49.58359" lon="3.43506">
        <ele>176.7</ele>
        <time>2025-10-05T10:08:29.000Z</time>
      </trkpt>
      <trkpt lat="49.58359" lon="3.43504">
        <ele>176.4</ele>
        <time>2025-10-05T10:08:30.000Z</time>
      </trkpt>
      <trkpt lat="49.58359" lon="3.43503">
        <ele>176</ele>
        <time>2025-10-05T10:08:31.000Z</time>
      </trkpt>
      <trkpt lat="49.58359" lon="3.43502">
        <ele>175.8</ele>
        <time>2025-10-05T10:08:32.000Z</time>
      </trkpt>
      <trkpt lat="49.58359" lon="3.435">
        <ele>175.6</ele>
        <time>2025-10-05T10:08:33.000Z</time>
      </trkpt>
      <trkpt lat="49.58359" lon="3.43499">
        <ele>175.3</ele>
        <time>2025-10-05T10:08:34.000Z</time>
      </trkpt>
      <trkpt lat="49.58359" lon="3.43498">
        <ele>174.9</ele>
        <time>2025-10-05T10:08:35.000Z</time>
      </trkpt>
      <trkpt lat="49.58359" lon="3.43496">
        <ele>174.6</ele>
        <time>2025-10-05T10:08:36.000Z</time>
      </trkpt>
      <trkpt lat="49.58358" lon="3.43495">
        <ele>174.7</ele>
        <time>2025-10-05T10:08:37.000Z</time>
      </trkpt>
      <trkpt lat="49.58358" lon="3.43493">
        <ele>174.5</ele>
        <time>2025-10-05T10:08:38.000Z</time>
      </trkpt>
      <trkpt lat="49.58358" lon="3.43492">
        <ele>174.2</ele>
        <time>2025-10-05T10:08:39.000Z</time>
      </trkpt>
      <trkpt lat="49.58358" lon="3.43491">
        <ele>173.9</ele>
        <time>2025-10-05T10:08:40.000Z</time>
      </trkpt>
      <trkpt lat="49.58358" lon="3.43489">
        <ele>173.5</ele>
        <time>2025-10-05T10:08:41.000Z</time>
      </trkpt>
      <trkpt lat="49.58358" lon="3.43488">
        <ele>173.1</ele>
        <time>2025-10-05T10:08:42.000Z</time>
      </trkpt>
      <trkpt lat="49.58357" lon="3.43486">
        <ele>172.6</ele>
        <time>2025-10-05T10:08:43.000Z</time>
      </trkpt>
      <trkpt lat="49.58356" lon="3.43484">
        <ele>172.1</ele>
        <time>2025-10-05T10:08:44.000Z</time>
      </trkpt>
      <trkpt lat="49.58356" lon="3.43483">
        <ele>171.5</ele>
        <time>2025-10-05T10:08:45.000Z</time>
      </trkpt>
      <trkpt lat="49.58355" lon="3.43482">
        <ele>171.3</ele>
        <time>2025-10-05T10:08:46.000Z</time>
      </trkpt>
      <trkpt lat="49.58354" lon="3.43481">
        <ele>171.2</ele>
        <time>2025-10-05T10:08:47.000Z</time>
      </trkpt>
      <trkpt lat="49.58354" lon="3.4348">
        <ele>171.1</ele>
        <time>2025-10-05T10:08:48.000Z</time>
      </trkpt>
      <trkpt lat="49.58354" lon="3.43478">
        <ele>171</ele>
        <time>2025-10-05T10:08:49.000Z</time>
      </trkpt>
      <trkpt lat="49.58353" lon="3.43477">
        <ele>171</ele>
        <time>2025-10-05T10:08:50.000Z</time>
      </trkpt>
      <trkpt lat="49.58353" lon="3.43476">
        <ele>170.9</ele>
        <time>2025-10-05T10:08:51.000Z</time>
      </trkpt>
      <trkpt lat="49.58352" lon="3.43474">
        <ele>170.7</ele>
        <time>2025-10-05T10:08:52.000Z</time>
      </trkpt>
      <trkpt lat="49.58351" lon="3.43474">
        <ele>170.6</ele>
        <time>2025-10-05T10:08:53.000Z</time>
      </trkpt>
      <trkpt lat="49.58351" lon="3.43473">
        <ele>170.8</ele>
        <time>2025-10-05T10:08:54.000Z</time>
      </trkpt>
      <trkpt lat="49.5835" lon="3.43473">
        <ele>170.8</ele>
        <time>2025-10-05T10:08:55.000Z</time>
      </trkpt>
      <trkpt lat="49.5835" lon="3.43473">
        <ele>170.9</ele>
        <time>2025-10-05T10:08:56.000Z</time>
      </trkpt>
      <trkpt lat="49.58348" lon="3.43472">
        <ele>171.1</ele>
        <time>2025-10-05T10:08:57.000Z</time>
      </trkpt>
      <trkpt lat="49.58347" lon="3.43472">
        <ele>171.3</ele>
        <time>2025-10-05T10:08:58.000Z</time>
      </trkpt>
      <trkpt lat="49.58347" lon="3.43472">
        <ele>171.7</ele>
        <time>2025-10-05T10:08:59.000Z</time>
      </trkpt>
      <trkpt lat="49.58346" lon="3.43472">
        <ele>172</ele>
        <time>2025-10-05T10:09:00.000Z</time>
      </trkpt>
      <trkpt lat="49.58346" lon="3.43471">
        <ele>172</ele>
        <time>2025-10-05T10:09:01.000Z</time>
      </trkpt>
      <trkpt lat="49.58345" lon="3.4347">
        <ele>171.6</ele>
        <time>2025-10-05T10:09:02.000Z</time>
      </trkpt>
      <trkpt lat="49.58344" lon="3.43469">
        <ele>171.2</ele>
        <time>2025-10-05T10:09:03.000Z</time>
      </trkpt>
      <trkpt lat="49.58343" lon="3.43469">
        <ele>171.1</ele>
        <time>2025-10-05T10:09:04.000Z</time>
      </trkpt>
      <trkpt lat="49.58342" lon="3.43468">
        <ele>170.8</ele>
        <time>2025-10-05T10:09:05.000Z</time>
      </trkpt>
      <trkpt lat="49.58341" lon="3.43468">
        <ele>170.5</ele>
        <time>2025-10-05T10:09:06.000Z</time>
      </trkpt>
      <trkpt lat="49.5834" lon="3.43467">
        <ele>170.3</ele>
        <time>2025-10-05T10:09:07.000Z</time>
      </trkpt>
      <trkpt lat="49.58339" lon="3.43467">
        <ele>169.9</ele>
        <time>2025-10-05T10:09:08.000Z</time>
      </trkpt>
      <trkpt lat="49.58337" lon="3.43468">
        <ele>169.8</ele>
        <time>2025-10-05T10:09:09.000Z</time>
      </trkpt>
      <trkpt lat="49.58336" lon="3.43469">
        <ele>169.8</ele>
        <time>2025-10-05T10:09:10.000Z</time>
      </trkpt>
      <trkpt lat="49.58335" lon="3.43469">
        <ele>170</ele>
        <time>2025-10-05T10:09:11.000Z</time>
      </trkpt>
      <trkpt lat="49.58333" lon="3.4347">
        <ele>170.2</ele>
        <time>2025-10-05T10:09:12.000Z</time>
      </trkpt>
      <trkpt lat="49.58333" lon="3.43469">
        <ele>170.4</ele>
        <time>2025-10-05T10:09:13.000Z</time>
      </trkpt>
      <trkpt lat="49.58332" lon="3.43469">
        <ele>171</ele>
        <time>2025-10-05T10:09:14.000Z</time>
      </trkpt>
      <trkpt lat="49.58331" lon="3.43469">
        <ele>171.4</ele>
        <time>2025-10-05T10:09:15.000Z</time>
      </trkpt>
      <trkpt lat="49.58331" lon="3.43469">
        <ele>171.6</ele>
        <time>2025-10-05T10:09:16.000Z</time>
      </trkpt>
      <trkpt lat="49.5833" lon="3.43469">
        <ele>171.4</ele>
        <time>2025-10-05T10:09:17.000Z</time>
      </trkpt>
      <trkpt lat="49.58329" lon="3.43469">
        <ele>171.4</ele>
        <time>2025-10-05T10:09:18.000Z</time>
      </trkpt>
      <trkpt lat="49.58328" lon="3.43468">
        <ele>171.5</ele>
        <time>2025-10-05T10:09:19.000Z</time>
      </trkpt>
      <trkpt lat="49.58328" lon="3.43468">
        <ele>171.5</ele>
        <time>2025-10-05T10:09:20.000Z</time>
      </trkpt>
      <trkpt lat="49.58327" lon="3.43467">
        <ele>171.5</ele>
        <time>2025-10-05T10:09:21.000Z</time>
      </trkpt>
      <trkpt lat="49.58326" lon="3.43467">
        <ele>171.5</ele>
        <time>2025-10-05T10:09:22.000Z</time>
      </trkpt>
      <trkpt lat="49.58325" lon="3.43466">
        <ele>171.7</ele>
        <time>2025-10-05T10:09:23.000Z</time>
      </trkpt>
      <trkpt lat="49.58325" lon="3.43466">
        <ele>171.8</ele>
        <time>2025-10-05T10:09:24.000Z</time>
      </trkpt>
      <trkpt lat="49.58324" lon="3.43465">
        <ele>171.9</ele>
        <time>2025-10-05T10:09:25.000Z</time>
      </trkpt>
      <trkpt lat="49.58323" lon="3.43464">
        <ele>172.3</ele>
        <time>2025-10-05T10:09:26.000Z</time>
      </trkpt>
      <trkpt lat="49.58323" lon="3.43464">
        <ele>172.8</ele>
        <time>2025-10-05T10:09:27.000Z</time>
      </trkpt>
      <trkpt lat="49.58322" lon="3.43463">
        <ele>172.7</ele>
        <time>2025-10-05T10:09:28.000Z</time>
      </trkpt>
      <trkpt lat="49.58321" lon="3.43463">
        <ele>172.9</ele>
        <time>2025-10-05T10:09:29.000Z</time>
      </trkpt>
      <trkpt lat="49.5832" lon="3.43463">
        <ele>173.2</ele>
        <time>2025-10-05T10:09:30.000Z</time>
      </trkpt>
      <trkpt lat="49.58319" lon="3.43462">
        <ele>173.5</ele>
        <time>2025-10-05T10:09:31.000Z</time>
      </trkpt>
      <trkpt lat="49.58319" lon="3.43462">
        <ele>173.7</ele>
        <time>2025-10-05T10:09:32.000Z</time>
      </trkpt>
      <trkpt lat="49.58318" lon="3.43461">
        <ele>173.9</ele>
        <time>2025-10-05T10:09:33.000Z</time>
      </trkpt>
      <trkpt lat="49.58317" lon="3.43461">
        <ele>174.2</ele>
        <time>2025-10-05T10:09:34.000Z</time>
      </trkpt>
      <trkpt lat="49.58316" lon="3.43461">
        <ele>174.3</ele>
        <time>2025-10-05T10:09:35.000Z</time>
      </trkpt>
      <trkpt lat="49.58315" lon="3.4346">
        <ele>174.6</ele>
        <time>2025-10-05T10:09:36.000Z</time>
      </trkpt>
      <trkpt lat="49.58314" lon="3.4346">
        <ele>174.8</ele>
        <time>2025-10-05T10:09:37.000Z</time>
      </trkpt>
      <trkpt lat="49.58313" lon="3.4346">
        <ele>175.3</ele>
        <time>2025-10-05T10:09:38.000Z</time>
      </trkpt>
      <trkpt lat="49.58312" lon="3.4346">
        <ele>175.6</ele>
        <time>2025-10-05T10:09:39.000Z</time>
      </trkpt>
      <trkpt lat="49.58311" lon="3.4346">
        <ele>175.9</ele>
        <time>2025-10-05T10:09:40.000Z</time>
      </trkpt>
      <trkpt lat="49.5831" lon="3.43459">
        <ele>176.2</ele>
        <time>2025-10-05T10:09:41.000Z</time>
      </trkpt>
      <trkpt lat="49.58308" lon="3.43459">
        <ele>176.7</ele>
        <time>2025-10-05T10:09:42.000Z</time>
      </trkpt>
      <trkpt lat="49.58308" lon="3.43459">
        <ele>177</ele>
        <time>2025-10-05T10:09:43.000Z</time>
      </trkpt>
      <trkpt lat="49.58308" lon="3.4346">
        <ele>177.5</ele>
        <time>2025-10-05T10:09:44.000Z</time>
      </trkpt>
      <trkpt lat="49.58308" lon="3.43461">
        <ele>177.8</ele>
        <time>2025-10-05T10:09:45.000Z</time>
      </trkpt>
      <trkpt lat="49.58307" lon="3.43461">
        <ele>178</ele>
        <time>2025-10-05T10:09:46.000Z</time>
      </trkpt>
      <trkpt lat="49.58307" lon="3.43461">
        <ele>178.3</ele>
        <time>2025-10-05T10:09:47.000Z</time>
      </trkpt>
      <trkpt lat="49.58306" lon="3.43461">
        <ele>178.7</ele>
        <time>2025-10-05T10:09:48.000Z</time>
      </trkpt>
      <trkpt lat="49.58306" lon="3.43461">
        <ele>179.3</ele>
        <time>2025-10-05T10:09:49.000Z</time>
      </trkpt>
      <trkpt lat="49.58305" lon="3.4346">
        <ele>179.6</ele>
        <time>2025-10-05T10:09:50.000Z</time>
      </trkpt>
      <trkpt lat="49.58304" lon="3.4346">
        <ele>180.1</ele>
        <time>2025-10-05T10:09:51.000Z</time>
      </trkpt>
      <trkpt lat="49.58303" lon="3.43459">
        <ele>180.3</ele>
        <time>2025-10-05T10:09:52.000Z</time>
      </trkpt>
      <trkpt lat="49.58302" lon="3.43457">
        <ele>180.9</ele>
        <time>2025-10-05T10:09:53.000Z</time>
      </trkpt>
      <trkpt lat="49.58302" lon="3.43457">
        <ele>181</ele>
        <time>2025-10-05T10:09:54.000Z</time>
      </trkpt>
      <trkpt lat="49.58302" lon="3.43457">
        <ele>181.2</ele>
        <time>2025-10-05T10:09:55.000Z</time>
      </trkpt>
      <trkpt lat="49.58302" lon="3.43457">
        <ele>181.2</ele>
        <time>2025-10-05T10:09:56.000Z</time>
      </trkpt>
      <trkpt lat="49.58301" lon="3.43456">
        <ele>181</ele>
        <time>2025-10-05T10:09:57.000Z</time>
      </trkpt>
      <trkpt lat="49.58301" lon="3.43455">
        <ele>181</ele>
        <time>2025-10-05T10:09:58.000Z</time>
      </trkpt>
      <trkpt lat="49.583" lon="3.43455">
        <ele>181.1</ele>
        <time>2025-10-05T10:09:59.000Z</time>
      </trkpt>
      <trkpt lat="49.58298" lon="3.43455">
        <ele>180.9</ele>
        <time>2025-10-05T10:10:00.000Z</time>
      </trkpt>
      <trkpt lat="49.58298" lon="3.43454">
        <ele>180.9</ele>
        <time>2025-10-05T10:10:01.000Z</time>
      </trkpt>
      <trkpt lat="49.58297" lon="3.43454">
        <ele>180.8</ele>
        <time>2025-10-05T10:10:02.000Z</time>
      </trkpt>
      <trkpt lat="49.58295" lon="3.43454">
        <ele>180.3</ele>
        <time>2025-10-05T10:10:03.000Z</time>
      </trkpt>
      <trkpt lat="49.58295" lon="3.43453">
        <ele>180.3</ele>
        <time>2025-10-05T10:10:04.000Z</time>
      </trkpt>
      <trkpt lat="49.58294" lon="3.43451">
        <ele>180.4</ele>
        <time>2025-10-05T10:10:05.000Z</time>
      </trkpt>
      <trkpt lat="49.58294" lon="3.4345">
        <ele>180.5</ele>
        <time>2025-10-05T10:10:06.000Z</time>
      </trkpt>
      <trkpt lat="49.58293" lon="3.43449">
        <ele>180.5</ele>
        <time>2025-10-05T10:10:07.000Z</time>
      </trkpt>
      <trkpt lat="49.58293" lon="3.43448">
        <ele>180.4</ele>
        <time>2025-10-05T10:10:08.000Z</time>
      </trkpt>
      <trkpt lat="49.58292" lon="3.43447">
        <ele>180.5</ele>
        <time>2025-10-05T10:10:09.000Z</time>
      </trkpt>
      <trkpt lat="49.58291" lon="3.43447">
        <ele>180.5</ele>
        <time>2025-10-05T10:10:10.000Z</time>
      </trkpt>
      <trkpt lat="49.58291" lon="3.43446">
        <ele>180.4</ele>
        <time>2025-10-05T10:10:11.000Z</time>
      </trkpt>
      <trkpt lat="49.5829" lon="3.43445">
        <ele>180.4</ele>
        <time>2025-10-05T10:10:12.000Z</time>
      </trkpt>
      <trkpt lat="49.5829" lon="3.43445">
        <ele>180.1</ele>
        <time>2025-10-05T10:10:13.000Z</time>
      </trkpt>
      <trkpt lat="49.58291" lon="3.43444">
        <ele>179.7</ele>
        <time>2025-10-05T10:10:14.000Z</time>
      </trkpt>
      <trkpt lat="49.5829" lon="3.43443">
        <ele>179.4</ele>
        <time>2025-10-05T10:10:15.000Z</time>
      </trkpt>
      <trkpt lat="49.58291" lon="3.43441">
        <ele>179.2</ele>
        <time>2025-10-05T10:10:16.000Z</time>
      </trkpt>
      <trkpt lat="49.58291" lon="3.4344">
        <ele>179.1</ele>
        <time>2025-10-05T10:10:17.000Z</time>
      </trkpt>
      <trkpt lat="49.58291" lon="3.43438">
        <ele>179.1</ele>
        <time>2025-10-05T10:10:18.000Z</time>
      </trkpt>
      <trkpt lat="49.58291" lon="3.43435">
        <ele>179</ele>
        <time>2025-10-05T10:10:19.000Z</time>
      </trkpt>
      <trkpt lat="49.58291" lon="3.43433">
        <ele>179.2</ele>
        <time>2025-10-05T10:10:20.000Z</time>
      </trkpt>
      <trkpt lat="49.58292" lon="3.43431">
        <ele>179.3</ele>
        <time>2025-10-05T10:10:21.000Z</time>
      </trkpt>
      <trkpt lat="49.58293" lon="3.4343">
        <ele>179.5</ele>
        <time>2025-10-05T10:10:22.000Z</time>
      </trkpt>
      <trkpt lat="49.58294" lon="3.43429">
        <ele>179.4</ele>
        <time>2025-10-05T10:10:23.000Z</time>
      </trkpt>
      <trkpt lat="49.58294" lon="3.43428">
        <ele>179.5</ele>
        <time>2025-10-05T10:10:24.000Z</time>
      </trkpt>
      <trkpt lat="49.58294" lon="3.43426">
        <ele>179.7</ele>
        <time>2025-10-05T10:10:25.000Z</time>
      </trkpt>
      <trkpt lat="49.58294" lon="3.43425">
        <ele>179.9</ele>
        <time>2025-10-05T10:10:26.000Z</time>
      </trkpt>
      <trkpt lat="49.58295" lon="3.43424">
        <ele>180</ele>
        <time>2025-10-05T10:10:27.000Z</time>
      </trkpt>
      <trkpt lat="49.58295" lon="3.43424">
        <ele>179.8</ele>
        <time>2025-10-05T10:10:28.000Z</time>
      </trkpt>
      <trkpt lat="49.58295" lon="3.43423">
        <ele>180.1</ele>
        <time>2025-10-05T10:10:29.000Z</time>
      </trkpt>
      <trkpt lat="49.58296" lon="3.43421">
        <ele>180.4</ele>
        <time>2025-10-05T10:10:30.000Z</time>
      </trkpt>
      <trkpt lat="49.58296" lon="3.4342">
        <ele>180.7</ele>
        <time>2025-10-05T10:10:31.000Z</time>
      </trkpt>
      <trkpt lat="49.58296" lon="3.43419">
        <ele>180.8</ele>
        <time>2025-10-05T10:10:32.000Z</time>
      </trkpt>
      <trkpt lat="49.58296" lon="3.43418">
        <ele>180.7</ele>
        <time>2025-10-05T10:10:33.000Z</time>
      </trkpt>
      <trkpt lat="49.58296" lon="3.43418">
        <ele>180.8</ele>
        <time>2025-10-05T10:10:34.000Z</time>
      </trkpt>
      <trkpt lat="49.58296" lon="3.43416">
        <ele>180.7</ele>
        <time>2025-10-05T10:10:35.000Z</time>
      </trkpt>
      <trkpt lat="49.58296" lon="3.43415">
        <ele>181.1</ele>
        <time>2025-10-05T10:10:36.000Z</time>
      </trkpt>
      <trkpt lat="49.58296" lon="3.43413">
        <ele>181.5</ele>
        <time>2025-10-05T10:10:37.000Z</time>
      </trkpt>
      <trkpt lat="49.58296" lon="3.43411">
        <ele>181.5</ele>
        <time>2025-10-05T10:10:38.000Z</time>
      </trkpt>
      <trkpt lat="49.58296" lon="3.4341">
        <ele>181.7</ele>
        <time>2025-10-05T10:10:39.000Z</time>
      </trkpt>
      <trkpt lat="49.58296" lon="3.43409">
        <ele>181.6</ele>
        <time>2025-10-05T10:10:40.000Z</time>
      </trkpt>
      <trkpt lat="49.58296" lon="3.43407">
        <ele>181.4</ele>
        <time>2025-10-05T10:10:41.000Z</time>
      </trkpt>
      <trkpt lat="49.58297" lon="3.43405">
        <ele>181.4</ele>
        <time>2025-10-05T10:10:42.000Z</time>
      </trkpt>
      <trkpt lat="49.58297" lon="3.43403">
        <ele>181.6</ele>
        <time>2025-10-05T10:10:43.000Z</time>
      </trkpt>
      <trkpt lat="49.58298" lon="3.43402">
        <ele>181.7</ele>
        <time>2025-10-05T10:10:44.000Z</time>
      </trkpt>
      <trkpt lat="49.58298" lon="3.43401">
        <ele>181.6</ele>
        <time>2025-10-05T10:10:45.000Z</time>
      </trkpt>
      <trkpt lat="49.58298" lon="3.43401">
        <ele>181.7</ele>
        <time>2025-10-05T10:10:46.000Z</time>
      </trkpt>
      <trkpt lat="49.58298" lon="3.43399">
        <ele>181.7</ele>
        <time>2025-10-05T10:10:47.000Z</time>
      </trkpt>
      <trkpt lat="49.58298" lon="3.43398">
        <ele>182</ele>
        <time>2025-10-05T10:10:48.000Z</time>
      </trkpt>
      <trkpt lat="49.58298" lon="3.43396">
        <ele>182.7</ele>
        <time>2025-10-05T10:10:49.000Z</time>
      </trkpt>
      <trkpt lat="49.58298" lon="3.43395">
        <ele>183.1</ele>
        <time>2025-10-05T10:10:50.000Z</time>
      </trkpt>
      <trkpt lat="49.58298" lon="3.43393">
        <ele>183.6</ele>
        <time>2025-10-05T10:10:51.000Z</time>
      </trkpt>
      <trkpt lat="49.58299" lon="3.43392">
        <ele>183.7</ele>
        <time>2025-10-05T10:10:52.000Z</time>
      </trkpt>
      <trkpt lat="49.583" lon="3.43391">
        <ele>184</ele>
        <time>2025-10-05T10:10:53.000Z</time>
      </trkpt>
      <trkpt lat="49.583" lon="3.4339">
        <ele>184.3</ele>
        <time>2025-10-05T10:10:54.000Z</time>
      </trkpt>
      <trkpt lat="49.58301" lon="3.4339">
        <ele>184.7</ele>
        <time>2025-10-05T10:10:55.000Z</time>
      </trkpt>
      <trkpt lat="49.58301" lon="3.43388">
        <ele>185</ele>
        <time>2025-10-05T10:10:56.000Z</time>
      </trkpt>
      <trkpt lat="49.58302" lon="3.43387">
        <ele>185.1</ele>
        <time>2025-10-05T10:10:57.000Z</time>
      </trkpt>
      <trkpt lat="49.58303" lon="3.43386">
        <ele>185.1</ele>
        <time>2025-10-05T10:10:58.000Z</time>
      </trkpt>
      <trkpt lat="49.58304" lon="3.43385">
        <ele>185.1</ele>
        <time>2025-10-05T10:10:59.000Z</time>
      </trkpt>
      <trkpt lat="49.58304" lon="3.43384">
        <ele>185.2</ele>
        <time>2025-10-05T10:11:00.000Z</time>
      </trkpt>
      <trkpt lat="49.58304" lon="3.43382">
        <ele>185.1</ele>
        <time>2025-10-05T10:11:01.000Z</time>
      </trkpt>
      <trkpt lat="49.58304" lon="3.4338">
        <ele>185.4</ele>
        <time>2025-10-05T10:11:02.000Z</time>
      </trkpt>
      <trkpt lat="49.58305" lon="3.43378">
        <ele>185.5</ele>
        <time>2025-10-05T10:11:03.000Z</time>
      </trkpt>
      <trkpt lat="49.58305" lon="3.43377">
        <ele>185.5</ele>
        <time>2025-10-05T10:11:04.000Z</time>
      </trkpt>
      <trkpt lat="49.58306" lon="3.43375">
        <ele>185.4</ele>
        <time>2025-10-05T10:11:05.000Z</time>
      </trkpt>
      <trkpt lat="49.58307" lon="3.43374">
        <ele>185.4</ele>
        <time>2025-10-05T10:11:06.000Z</time>
      </trkpt>
      <trkpt lat="49.58308" lon="3.43373">
        <ele>185.7</ele>
        <time>2025-10-05T10:11:07.000Z</time>
      </trkpt>
      <trkpt lat="49.58308" lon="3.43372">
        <ele>185.8</ele>
        <time>2025-10-05T10:11:08.000Z</time>
      </trkpt>
      <trkpt lat="49.58309" lon="3.43371">
        <ele>185.8</ele>
        <time>2025-10-05T10:11:09.000Z</time>
      </trkpt>
      <trkpt lat="49.58309" lon="3.4337">
        <ele>185.8</ele>
        <time>2025-10-05T10:11:10.000Z</time>
      </trkpt>
      <trkpt lat="49.58309" lon="3.43369">
        <ele>185.8</ele>
        <time>2025-10-05T10:11:11.000Z</time>
      </trkpt>
      <trkpt lat="49.58309" lon="3.43369">
        <ele>185.9</ele>
        <time>2025-10-05T10:11:12.000Z</time>
      </trkpt>
      <trkpt lat="49.5831" lon="3.43368">
        <ele>186</ele>
        <time>2025-10-05T10:11:13.000Z</time>
      </trkpt>
      <trkpt lat="49.58311" lon="3.43367">
        <ele>185.9</ele>
        <time>2025-10-05T10:11:14.000Z</time>
      </trkpt>
      <trkpt lat="49.58311" lon="3.43366">
        <ele>186.1</ele>
        <time>2025-10-05T10:11:15.000Z</time>
      </trkpt>
      <trkpt lat="49.58312" lon="3.43366">
        <ele>186.2</ele>
        <time>2025-10-05T10:11:16.000Z</time>
      </trkpt>
      <trkpt lat="49.58312" lon="3.43366">
        <ele>186.4</ele>
        <time>2025-10-05T10:11:17.000Z</time>
      </trkpt>
      <trkpt lat="49.58313" lon="3.43365">
        <ele>186.6</ele>
        <time>2025-10-05T10:11:18.000Z</time>
      </trkpt>
      <trkpt lat="49.58313" lon="3.43365">
        <ele>186.7</ele>
        <time>2025-10-05T10:11:19.000Z</time>
      </trkpt>
      <trkpt lat="49.58313" lon="3.43365">
        <ele>186.9</ele>
        <time>2025-10-05T10:11:20.000Z</time>
      </trkpt>
      <trkpt lat="49.58313" lon="3.43365">
        <ele>187.2</ele>
        <time>2025-10-05T10:11:21.000Z</time>
      </trkpt>
      <trkpt lat="49.58314" lon="3.43365">
        <ele>187.2</ele>
        <time>2025-10-05T10:11:22.000Z</time>
      </trkpt>
      <trkpt lat="49.58315" lon="3.43365">
        <ele>187.2</ele>
        <time>2025-10-05T10:11:23.000Z</time>
      </trkpt>
      <trkpt lat="49.58315" lon="3.43366">
        <ele>187.1</ele>
        <time>2025-10-05T10:11:24.000Z</time>
      </trkpt>
      <trkpt lat="49.58316" lon="3.43366">
        <ele>187</ele>
        <time>2025-10-05T10:11:25.000Z</time>
      </trkpt>
      <trkpt lat="49.58317" lon="3.43366">
        <ele>186.9</ele>
        <time>2025-10-05T10:11:26.000Z</time>
      </trkpt>
      <trkpt lat="49.58318" lon="3.43366">
        <ele>186.8</ele>
        <time>2025-10-05T10:11:27.000Z</time>
      </trkpt>
      <trkpt lat="49.58318" lon="3.43365">
        <ele>186.6</ele>
        <time>2025-10-05T10:11:28.000Z</time>
      </trkpt>
      <trkpt lat="49.58318" lon="3.43364">
        <ele>186.4</ele>
        <time>2025-10-05T10:11:29.000Z</time>
      </trkpt>
      <trkpt lat="49.58319" lon="3.43363">
        <ele>186</ele>
        <time>2025-10-05T10:11:30.000Z</time>
      </trkpt>
      <trkpt lat="49.5832" lon="3.43362">
        <ele>186.1</ele>
        <time>2025-10-05T10:11:31.000Z</time>
      </trkpt>
      <trkpt lat="49.5832" lon="3.43361">
        <ele>186.2</ele>
        <time>2025-10-05T10:11:32.000Z</time>
      </trkpt>
      <trkpt lat="49.58321" lon="3.4336">
        <ele>186.2</ele>
        <time>2025-10-05T10:11:33.000Z</time>
      </trkpt>
      <trkpt lat="49.5832" lon="3.4336">
        <ele>186.2</ele>
        <time>2025-10-05T10:11:34.000Z</time>
      </trkpt>
      <trkpt lat="49.58321" lon="3.4336">
        <ele>186</ele>
        <time>2025-10-05T10:11:35.000Z</time>
      </trkpt>
      <trkpt lat="49.58321" lon="3.43359">
        <ele>186</ele>
        <time>2025-10-05T10:11:36.000Z</time>
      </trkpt>
      <trkpt lat="49.58322" lon="3.43357">
        <ele>186.2</ele>
        <time>2025-10-05T10:11:37.000Z</time>
      </trkpt>
      <trkpt lat="49.58322" lon="3.43357">
        <ele>186.3</ele>
        <time>2025-10-05T10:11:38.000Z</time>
      </trkpt>
      <trkpt lat="49.58323" lon="3.43356">
        <ele>186.4</ele>
        <time>2025-10-05T10:11:39.000Z</time>
      </trkpt>
      <trkpt lat="49.58323" lon="3.43356">
        <ele>186.4</ele>
        <time>2025-10-05T10:11:40.000Z</time>
      </trkpt>
      <trkpt lat="49.58324" lon="3.43355">
        <ele>186.4</ele>
        <time>2025-10-05T10:11:41.000Z</time>
      </trkpt>
      <trkpt lat="49.58325" lon="3.43354">
        <ele>186.5</ele>
        <time>2025-10-05T10:11:42.000Z</time>
      </trkpt>
      <trkpt lat="49.58325" lon="3.43353">
        <ele>186.6</ele>
        <time>2025-10-05T10:11:43.000Z</time>
      </trkpt>
      <trkpt lat="49.58326" lon="3.43352">
        <ele>186.6</ele>
        <time>2025-10-05T10:11:44.000Z</time>
      </trkpt>
      <trkpt lat="49.58326" lon="3.43352">
        <ele>186.6</ele>
        <time>2025-10-05T10:11:45.000Z</time>
      </trkpt>
      <trkpt lat="49.58327" lon="3.43352">
        <ele>186.5</ele>
        <time>2025-10-05T10:11:46.000Z</time>
      </trkpt>
      <trkpt lat="49.58327" lon="3.43351">
        <ele>186.5</ele>
        <time>2025-10-05T10:11:47.000Z</time>
      </trkpt>
      <trkpt lat="49.58328" lon="3.4335">
        <ele>186.1</ele>
        <time>2025-10-05T10:11:48.000Z</time>
      </trkpt>
      <trkpt lat="49.58329" lon="3.43349">
        <ele>185.8</ele>
        <time>2025-10-05T10:11:49.000Z</time>
      </trkpt>
      <trkpt lat="49.58329" lon="3.43348">
        <ele>185.4</ele>
        <time>2025-10-05T10:11:50.000Z</time>
      </trkpt>
      <trkpt lat="49.5833" lon="3.43347">
        <ele>185.3</ele>
        <time>2025-10-05T10:11:51.000Z</time>
      </trkpt>
      <trkpt lat="49.58331" lon="3.43347">
        <ele>185.1</ele>
        <time>2025-10-05T10:11:52.000Z</time>
      </trkpt>
      <trkpt lat="49.58331" lon="3.43346">
        <ele>185.2</ele>
        <time>2025-10-05T10:11:53.000Z</time>
      </trkpt>
      <trkpt lat="49.58332" lon="3.43345">
        <ele>185.1</ele>
        <time>2025-10-05T10:11:54.000Z</time>
      </trkpt>
      <trkpt lat="49.58333" lon="3.43344">
        <ele>184.9</ele>
        <time>2025-10-05T10:11:55.000Z</time>
      </trkpt>
      <trkpt lat="49.58333" lon="3.43343">
        <ele>185</ele>
        <time>2025-10-05T10:11:56.000Z</time>
      </trkpt>
      <trkpt lat="49.58334" lon="3.43342">
        <ele>185.4</ele>
        <time>2025-10-05T10:11:57.000Z</time>
      </trkpt>
      <trkpt lat="49.58335" lon="3.43341">
        <ele>185.6</ele>
        <time>2025-10-05T10:11:58.000Z</time>
      </trkpt>
      <trkpt lat="49.58335" lon="3.4334">
        <ele>185.6</ele>
        <time>2025-10-05T10:11:59.000Z</time>
      </trkpt>
      <trkpt lat="49.58337" lon="3.43338">
        <ele>185.5</ele>
        <time>2025-10-05T10:12:00.000Z</time>
      </trkpt>
      <trkpt lat="49.58337" lon="3.43337">
        <ele>185.2</ele>
        <time>2025-10-05T10:12:01.000Z</time>
      </trkpt>
      <trkpt lat="49.58338" lon="3.43335">
        <ele>184.9</ele>
        <time>2025-10-05T10:12:02.000Z</time>
      </trkpt>
      <trkpt lat="49.58339" lon="3.43334">
        <ele>185.2</ele>
        <time>2025-10-05T10:12:03.000Z</time>
      </trkpt>
      <trkpt lat="49.58339" lon="3.43333">
        <ele>185.1</ele>
        <time>2025-10-05T10:12:04.000Z</time>
      </trkpt>
      <trkpt lat="49.5834" lon="3.43331">
        <ele>185.2</ele>
        <time>2025-10-05T10:12:05.000Z</time>
      </trkpt>
      <trkpt lat="49.58341" lon="3.4333">
        <ele>185.4</ele>
        <time>2025-10-05T10:12:06.000Z</time>
      </trkpt>
      <trkpt lat="49.58342" lon="3.4333">
        <ele>185.5</ele>
        <time>2025-10-05T10:12:07.000Z</time>
      </trkpt>
      <trkpt lat="49.58343" lon="3.43329">
        <ele>185.3</ele>
        <time>2025-10-05T10:12:08.000Z</time>
      </trkpt>
      <trkpt lat="49.58344" lon="3.43328">
        <ele>185.4</ele>
        <time>2025-10-05T10:12:09.000Z</time>
      </trkpt>
      <trkpt lat="49.58345" lon="3.43326">
        <ele>185.3</ele>
        <time>2025-10-05T10:12:10.000Z</time>
      </trkpt>
      <trkpt lat="49.58346" lon="3.43325">
        <ele>185.1</ele>
        <time>2025-10-05T10:12:11.000Z</time>
      </trkpt>
      <trkpt lat="49.58347" lon="3.43325">
        <ele>185.2</ele>
        <time>2025-10-05T10:12:12.000Z</time>
      </trkpt>
      <trkpt lat="49.58348" lon="3.43322">
        <ele>185.2</ele>
        <time>2025-10-05T10:12:13.000Z</time>
      </trkpt>
      <trkpt lat="49.58349" lon="3.43321">
        <ele>185.2</ele>
        <time>2025-10-05T10:12:14.000Z</time>
      </trkpt>
      <trkpt lat="49.58349" lon="3.4332">
        <ele>185.1</ele>
        <time>2025-10-05T10:12:15.000Z</time>
      </trkpt>
      <trkpt lat="49.5835" lon="3.43318">
        <ele>185.1</ele>
        <time>2025-10-05T10:12:16.000Z</time>
      </trkpt>
      <trkpt lat="49.5835" lon="3.43317">
        <ele>185.7</ele>
        <time>2025-10-05T10:12:17.000Z</time>
      </trkpt>
      <trkpt lat="49.5835" lon="3.43316">
        <ele>186.2</ele>
        <time>2025-10-05T10:12:18.000Z</time>
      </trkpt>
      <trkpt lat="49.58351" lon="3.43314">
        <ele>186.3</ele>
        <time>2025-10-05T10:12:19.000Z</time>
      </trkpt>
      <trkpt lat="49.58353" lon="3.43313">
        <ele>186.1</ele>
        <time>2025-10-05T10:12:20.000Z</time>
      </trkpt>
      <trkpt lat="49.58354" lon="3.43312">
        <ele>186.1</ele>
        <time>2025-10-05T10:12:21.000Z</time>
      </trkpt>
      <trkpt lat="49.58354" lon="3.4331">
        <ele>186.1</ele>
        <time>2025-10-05T10:12:22.000Z</time>
      </trkpt>
      <trkpt lat="49.58356" lon="3.4331">
        <ele>186.1</ele>
        <time>2025-10-05T10:12:23.000Z</time>
      </trkpt>
      <trkpt lat="49.58357" lon="3.43308">
        <ele>185.9</ele>
        <time>2025-10-05T10:12:24.000Z</time>
      </trkpt>
      <trkpt lat="49.58358" lon="3.43307">
        <ele>186.1</ele>
        <time>2025-10-05T10:12:25.000Z</time>
      </trkpt>
      <trkpt lat="49.58358" lon="3.43307">
        <ele>186.2</ele>
        <time>2025-10-05T10:12:26.000Z</time>
      </trkpt>
      <trkpt lat="49.58359" lon="3.43306">
        <ele>185.9</ele>
        <time>2025-10-05T10:12:27.000Z</time>
      </trkpt>
      <trkpt lat="49.58359" lon="3.43306">
        <ele>185.7</ele>
        <time>2025-10-05T10:12:28.000Z</time>
      </trkpt>
      <trkpt lat="49.5836" lon="3.43306">
        <ele>185.2</ele>
        <time>2025-10-05T10:12:29.000Z</time>
      </trkpt>
      <trkpt lat="49.58361" lon="3.43305">
        <ele>184.8</ele>
        <time>2025-10-05T10:12:30.000Z</time>
      </trkpt>
      <trkpt lat="49.58362" lon="3.43305">
        <ele>184.5</ele>
        <time>2025-10-05T10:12:31.000Z</time>
      </trkpt>
      <trkpt lat="49.58363" lon="3.43304">
        <ele>184.3</ele>
        <time>2025-10-05T10:12:32.000Z</time>
      </trkpt>
      <trkpt lat="49.58364" lon="3.43303">
        <ele>184</ele>
        <time>2025-10-05T10:12:33.000Z</time>
      </trkpt>
      <trkpt lat="49.58365" lon="3.43301">
        <ele>184</ele>
        <time>2025-10-05T10:12:34.000Z</time>
      </trkpt>
      <trkpt lat="49.58366" lon="3.43301">
        <ele>184</ele>
        <time>2025-10-05T10:12:35.000Z</time>
      </trkpt>
      <trkpt lat="49.58367" lon="3.433">
        <ele>183.7</ele>
        <time>2025-10-05T10:12:36.000Z</time>
      </trkpt>
      <trkpt lat="49.58368" lon="3.43299">
        <ele>183.8</ele>
        <time>2025-10-05T10:12:37.000Z</time>
      </trkpt>
      <trkpt lat="49.58368" lon="3.43299">
        <ele>183.8</ele>
        <time>2025-10-05T10:12:38.000Z</time>
      </trkpt>
      <trkpt lat="49.58369" lon="3.43298">
        <ele>183.8</ele>
        <time>2025-10-05T10:12:39.000Z</time>
      </trkpt>
      <trkpt lat="49.5837" lon="3.43298">
        <ele>183.7</ele>
        <time>2025-10-05T10:12:40.000Z</time>
      </trkpt>
      <trkpt lat="49.58371" lon="3.43297">
        <ele>183.7</ele>
        <time>2025-10-05T10:12:41.000Z</time>
      </trkpt>
      <trkpt lat="49.58371" lon="3.43297">
        <ele>183.7</ele>
        <time>2025-10-05T10:12:42.000Z</time>
      </trkpt>
      <trkpt lat="49.58372" lon="3.43296">
        <ele>183.5</ele>
        <time>2025-10-05T10:12:43.000Z</time>
      </trkpt>
      <trkpt lat="49.58373" lon="3.43295">
        <ele>183.3</ele>
        <time>2025-10-05T10:12:44.000Z</time>
      </trkpt>
      <trkpt lat="49.58373" lon="3.43295">
        <ele>182.8</ele>
        <time>2025-10-05T10:12:45.000Z</time>
      </trkpt>
      <trkpt lat="49.58374" lon="3.43294">
        <ele>182.5</ele>
        <time>2025-10-05T10:12:46.000Z</time>
      </trkpt>
      <trkpt lat="49.58375" lon="3.43293">
        <ele>182.7</ele>
        <time>2025-10-05T10:12:47.000Z</time>
      </trkpt>
      <trkpt lat="49.58375" lon="3.43293">
        <ele>182.5</ele>
        <time>2025-10-05T10:12:48.000Z</time>
      </trkpt>
      <trkpt lat="49.58376" lon="3.43292">
        <ele>182.6</ele>
        <time>2025-10-05T10:12:49.000Z</time>
      </trkpt>
      <trkpt lat="49.58377" lon="3.43291">
        <ele>182.7</ele>
        <time>2025-10-05T10:12:50.000Z</time>
      </trkpt>
      <trkpt lat="49.58377" lon="3.4329">
        <ele>182.8</ele>
        <time>2025-10-05T10:12:51.000Z</time>
      </trkpt>
      <trkpt lat="49.58378" lon="3.4329">
        <ele>182.6</ele>
        <time>2025-10-05T10:12:52.000Z</time>
      </trkpt>
      <trkpt lat="49.58379" lon="3.43289">
        <ele>182.4</ele>
        <time>2025-10-05T10:12:53.000Z</time>
      </trkpt>
      <trkpt lat="49.5838" lon="3.4329">
        <ele>182.4</ele>
        <time>2025-10-05T10:12:54.000Z</time>
      </trkpt>
      <trkpt lat="49.5838" lon="3.4329">
        <ele>182.7</ele>
        <time>2025-10-05T10:12:55.000Z</time>
      </trkpt>
      <trkpt lat="49.58381" lon="3.43289">
        <ele>183</ele>
        <time>2025-10-05T10:12:56.000Z</time>
      </trkpt>
      <trkpt lat="49.58382" lon="3.43288">
        <ele>183</ele>
        <time>2025-10-05T10:12:57.000Z</time>
      </trkpt>
      <trkpt lat="49.58384" lon="3.43288">
        <ele>183.2</ele>
        <time>2025-10-05T10:12:58.000Z</time>
      </trkpt>
      <trkpt lat="49.58385" lon="3.43289">
        <ele>183.2</ele>
        <time>2025-10-05T10:12:59.000Z</time>
      </trkpt>
      <trkpt lat="49.58386" lon="3.43289">
        <ele>182.8</ele>
        <time>2025-10-05T10:13:00.000Z</time>
      </trkpt>
      <trkpt lat="49.58387" lon="3.43289">
        <ele>182.4</ele>
        <time>2025-10-05T10:13:01.000Z</time>
      </trkpt>
      <trkpt lat="49.58389" lon="3.43288">
        <ele>181.8</ele>
        <time>2025-10-05T10:13:02.000Z</time>
      </trkpt>
      <trkpt lat="49.5839" lon="3.43287">
        <ele>181.2</ele>
        <time>2025-10-05T10:13:03.000Z</time>
      </trkpt>
      <trkpt lat="49.58392" lon="3.43286">
        <ele>180.9</ele>
        <time>2025-10-05T10:13:04.000Z</time>
      </trkpt>
      <trkpt lat="49.58393" lon="3.43285">
        <ele>180.9</ele>
        <time>2025-10-05T10:13:05.000Z</time>
      </trkpt>
      <trkpt lat="49.58394" lon="3.43284">
        <ele>180.3</ele>
        <time>2025-10-05T10:13:06.000Z</time>
      </trkpt>
      <trkpt lat="49.58395" lon="3.43282">
        <ele>180.2</ele>
        <time>2025-10-05T10:13:07.000Z</time>
      </trkpt>
      <trkpt lat="49.58396" lon="3.43282">
        <ele>180.3</ele>
        <time>2025-10-05T10:13:08.000Z</time>
      </trkpt>
      <trkpt lat="49.58397" lon="3.43281">
        <ele>180.6</ele>
        <time>2025-10-05T10:13:09.000Z</time>
      </trkpt>
      <trkpt lat="49.58398" lon="3.4328">
        <ele>180.8</ele>
        <time>2025-10-05T10:13:10.000Z</time>
      </trkpt>
      <trkpt lat="49.58399" lon="3.4328">
        <ele>180.8</ele>
        <time>2025-10-05T10:13:11.000Z</time>
      </trkpt>
      <trkpt lat="49.584" lon="3.43279">
        <ele>181</ele>
        <time>2025-10-05T10:13:12.000Z</time>
      </trkpt>
      <trkpt lat="49.58401" lon="3.43278">
        <ele>181.1</ele>
        <time>2025-10-05T10:13:13.000Z</time>
      </trkpt>
      <trkpt lat="49.58401" lon="3.43278">
        <ele>181.2</ele>
        <time>2025-10-05T10:13:14.000Z</time>
      </trkpt>
      <trkpt lat="49.58403" lon="3.43277">
        <ele>181.3</ele>
        <time>2025-10-05T10:13:15.000Z</time>
      </trkpt>
      <trkpt lat="49.58404" lon="3.43277">
        <ele>181.4</ele>
        <time>2025-10-05T10:13:16.000Z</time>
      </trkpt>
      <trkpt lat="49.58405" lon="3.43276">
        <ele>181.6</ele>
        <time>2025-10-05T10:13:17.000Z</time>
      </trkpt>
      <trkpt lat="49.58406" lon="3.43276">
        <ele>181.7</ele>
        <time>2025-10-05T10:13:18.000Z</time>
      </trkpt>
      <trkpt lat="49.58407" lon="3.43275">
        <ele>181.9</ele>
        <time>2025-10-05T10:13:19.000Z</time>
      </trkpt>
      <trkpt lat="49.58408" lon="3.43275">
        <ele>182.4</ele>
        <time>2025-10-05T10:13:20.000Z</time>
      </trkpt>
      <trkpt lat="49.58409" lon="3.43274">
        <ele>182.6</ele>
        <time>2025-10-05T10:13:21.000Z</time>
      </trkpt>
      <trkpt lat="49.5841" lon="3.43274">
        <ele>182.9</ele>
        <time>2025-10-05T10:13:22.000Z</time>
      </trkpt>
      <trkpt lat="49.58411" lon="3.43273">
        <ele>183.3</ele>
        <time>2025-10-05T10:13:23.000Z</time>
      </trkpt>
      <trkpt lat="49.58412" lon="3.43273">
        <ele>183.3</ele>
        <time>2025-10-05T10:13:24.000Z</time>
      </trkpt>
      <trkpt lat="49.58413" lon="3.43273">
        <ele>183.5</ele>
        <time>2025-10-05T10:13:25.000Z</time>
      </trkpt>
      <trkpt lat="49.58414" lon="3.43272">
        <ele>183.7</ele>
        <time>2025-10-05T10:13:26.000Z</time>
      </trkpt>
      <trkpt lat="49.58415" lon="3.43272">
        <ele>184.3</ele>
        <time>2025-10-05T10:13:27.000Z</time>
      </trkpt>
      <trkpt lat="49.58416" lon="3.43271">
        <ele>184.7</ele>
        <time>2025-10-05T10:13:28.000Z</time>
      </trkpt>
      <trkpt lat="49.58417" lon="3.43271">
        <ele>184.9</ele>
        <time>2025-10-05T10:13:29.000Z</time>
      </trkpt>
      <trkpt lat="49.58418" lon="3.43269">
        <ele>184.8</ele>
        <time>2025-10-05T10:13:30.000Z</time>
      </trkpt>
      <trkpt lat="49.5842" lon="3.43267">
        <ele>184.8</ele>
        <time>2025-10-05T10:13:31.000Z</time>
      </trkpt>
      <trkpt lat="49.58421" lon="3.43267">
        <ele>184.7</ele>
        <time>2025-10-05T10:13:32.000Z</time>
      </trkpt>
      <trkpt lat="49.58421" lon="3.43267">
        <ele>184.4</ele>
        <time>2025-10-05T10:13:33.000Z</time>
      </trkpt>
      <trkpt lat="49.58422" lon="3.43265">
        <ele>184.4</ele>
        <time>2025-10-05T10:13:34.000Z</time>
      </trkpt>
      <trkpt lat="49.58422" lon="3.43264">
        <ele>184.2</ele>
        <time>2025-10-05T10:13:35.000Z</time>
      </trkpt>
      <trkpt lat="49.58423" lon="3.43263">
        <ele>184.1</ele>
        <time>2025-10-05T10:13:36.000Z</time>
      </trkpt>
      <trkpt lat="49.58424" lon="3.43263">
        <ele>183.9</ele>
        <time>2025-10-05T10:13:37.000Z</time>
      </trkpt>
      <trkpt lat="49.58425" lon="3.43262">
        <ele>183.7</ele>
        <time>2025-10-05T10:13:38.000Z</time>
      </trkpt>
      <trkpt lat="49.58426" lon="3.43261">
        <ele>183.8</ele>
        <time>2025-10-05T10:13:39.000Z</time>
      </trkpt>
      <trkpt lat="49.58427" lon="3.43261">
        <ele>183.9</ele>
        <time>2025-10-05T10:13:40.000Z</time>
      </trkpt>
      <trkpt lat="49.58428" lon="3.4326">
        <ele>183.9</ele>
        <time>2025-10-05T10:13:41.000Z</time>
      </trkpt>
      <trkpt lat="49.58429" lon="3.43259">
        <ele>184.1</ele>
        <time>2025-10-05T10:13:42.000Z</time>
      </trkpt>
      <trkpt lat="49.58429" lon="3.43258">
        <ele>184.1</ele>
        <time>2025-10-05T10:13:43.000Z</time>
      </trkpt>
      <trkpt lat="49.5843" lon="3.43257">
        <ele>184.2</ele>
        <time>2025-10-05T10:13:44.000Z</time>
      </trkpt>
      <trkpt lat="49.58431" lon="3.43256">
        <ele>184.3</ele>
        <time>2025-10-05T10:13:45.000Z</time>
      </trkpt>
      <trkpt lat="49.58432" lon="3.43255">
        <ele>184.7</ele>
        <time>2025-10-05T10:13:46.000Z</time>
      </trkpt>
      <trkpt lat="49.58433" lon="3.43255">
        <ele>184.7</ele>
        <time>2025-10-05T10:13:47.000Z</time>
      </trkpt>
      <trkpt lat="49.58434" lon="3.43254">
        <ele>184.5</ele>
        <time>2025-10-05T10:13:48.000Z</time>
      </trkpt>
      <trkpt lat="49.58435" lon="3.43254">
        <ele>184.1</ele>
        <time>2025-10-05T10:13:49.000Z</time>
      </trkpt>
      <trkpt lat="49.58436" lon="3.43254">
        <ele>183.9</ele>
        <time>2025-10-05T10:13:50.000Z</time>
      </trkpt>
      <trkpt lat="49.58437" lon="3.43254">
        <ele>183.3</ele>
        <time>2025-10-05T10:13:51.000Z</time>
      </trkpt>
      <trkpt lat="49.58437" lon="3.43253">
        <ele>183.1</ele>
        <time>2025-10-05T10:13:52.000Z</time>
      </trkpt>
      <trkpt lat="49.58439" lon="3.43253">
        <ele>182.9</ele>
        <time>2025-10-05T10:13:53.000Z</time>
      </trkpt>
      <trkpt lat="49.58439" lon="3.43252">
        <ele>183</ele>
        <time>2025-10-05T10:13:54.000Z</time>
      </trkpt>
      <trkpt lat="49.5844" lon="3.43252">
        <ele>182.7</ele>
        <time>2025-10-05T10:13:55.000Z</time>
      </trkpt>
      <trkpt lat="49.58441" lon="3.43253">
        <ele>182.6</ele>
        <time>2025-10-05T10:13:56.000Z</time>
      </trkpt>
      <trkpt lat="49.58442" lon="3.43253">
        <ele>182.4</ele>
        <time>2025-10-05T10:13:57.000Z</time>
      </trkpt>
      <trkpt lat="49.58443" lon="3.43253">
        <ele>182.2</ele>
        <time>2025-10-05T10:13:58.000Z</time>
      </trkpt>
      <trkpt lat="49.58444" lon="3.43254">
        <ele>181.9</ele>
        <time>2025-10-05T10:13:59.000Z</time>
      </trkpt>
      <trkpt lat="49.58444" lon="3.43254">
        <ele>181.9</ele>
        <time>2025-10-05T10:14:00.000Z</time>
      </trkpt>
      <trkpt lat="49.58445" lon="3.43253">
        <ele>182</ele>
        <time>2025-10-05T10:14:01.000Z</time>
      </trkpt>
      <trkpt lat="49.58446" lon="3.43252">
        <ele>182</ele>
        <time>2025-10-05T10:14:02.000Z</time>
      </trkpt>
      <trkpt lat="49.58447" lon="3.43251">
        <ele>182.1</ele>
        <time>2025-10-05T10:14:03.000Z</time>
      </trkpt>
      <trkpt lat="49.58448" lon="3.4325">
        <ele>181.9</ele>
        <time>2025-10-05T10:14:04.000Z</time>
      </trkpt>
      <trkpt lat="49.58449" lon="3.43249">
        <ele>181.9</ele>
        <time>2025-10-05T10:14:05.000Z</time>
      </trkpt>
      <trkpt lat="49.58449" lon="3.43249">
        <ele>182.1</ele>
        <time>2025-10-05T10:14:06.000Z</time>
      </trkpt>
      <trkpt lat="49.5845" lon="3.43248">
        <ele>182.2</ele>
        <time>2025-10-05T10:14:07.000Z</time>
      </trkpt>
      <trkpt lat="49.58451" lon="3.43247">
        <ele>181.9</ele>
        <time>2025-10-05T10:14:08.000Z</time>
      </trkpt>
      <trkpt lat="49.58452" lon="3.43247">
        <ele>181.8</ele>
        <time>2025-10-05T10:14:09.000Z</time>
      </trkpt>
      <trkpt lat="49.58453" lon="3.43246">
        <ele>181.5</ele>
        <time>2025-10-05T10:14:10.000Z</time>
      </trkpt>
      <trkpt lat="49.58454" lon="3.43245">
        <ele>181.5</ele>
        <time>2025-10-05T10:14:11.000Z</time>
      </trkpt>
      <trkpt lat="49.58455" lon="3.43244">
        <ele>181.4</ele>
        <time>2025-10-05T10:14:12.000Z</time>
      </trkpt>
      <trkpt lat="49.58457" lon="3.43244">
        <ele>181.4</ele>
        <time>2025-10-05T10:14:13.000Z</time>
      </trkpt>
      <trkpt lat="49.58457" lon="3.43244">
        <ele>181.4</ele>
        <time>2025-10-05T10:14:14.000Z</time>
      </trkpt>
      <trkpt lat="49.58458" lon="3.43245">
        <ele>181.4</ele>
        <time>2025-10-05T10:14:15.000Z</time>
      </trkpt>
      <trkpt lat="49.58459" lon="3.43244">
        <ele>181.7</ele>
        <time>2025-10-05T10:14:16.000Z</time>
      </trkpt>
      <trkpt lat="49.5846" lon="3.43243">
        <ele>181.8</ele>
        <time>2025-10-05T10:14:17.000Z</time>
      </trkpt>
      <trkpt lat="49.58461" lon="3.43243">
        <ele>181.6</ele>
        <time>2025-10-05T10:14:18.000Z</time>
      </trkpt>
      <trkpt lat="49.58462" lon="3.43243">
        <ele>181.5</ele>
        <time>2025-10-05T10:14:19.000Z</time>
      </trkpt>
      <trkpt lat="49.58463" lon="3.43242">
        <ele>181.4</ele>
        <time>2025-10-05T10:14:20.000Z</time>
      </trkpt>
      <trkpt lat="49.58465" lon="3.43241">
        <ele>181.2</ele>
        <time>2025-10-05T10:14:21.000Z</time>
      </trkpt>
      <trkpt lat="49.58466" lon="3.43241">
        <ele>181.3</ele>
        <time>2025-10-05T10:14:22.000Z</time>
      </trkpt>
      <trkpt lat="49.58467" lon="3.43241">
        <ele>181.4</ele>
        <time>2025-10-05T10:14:23.000Z</time>
      </trkpt>
      <trkpt lat="49.58467" lon="3.4324">
        <ele>180.9</ele>
        <time>2025-10-05T10:14:24.000Z</time>
      </trkpt>
      <trkpt lat="49.58468" lon="3.4324">
        <ele>180.8</ele>
        <time>2025-10-05T10:14:25.000Z</time>
      </trkpt>
      <trkpt lat="49.58469" lon="3.4324">
        <ele>180.6</ele>
        <time>2025-10-05T10:14:26.000Z</time>
      </trkpt>
      <trkpt lat="49.5847" lon="3.4324">
        <ele>180.5</ele>
        <time>2025-10-05T10:14:27.000Z</time>
      </trkpt>
      <trkpt lat="49.58471" lon="3.4324">
        <ele>180.2</ele>
        <time>2025-10-05T10:14:28.000Z</time>
      </trkpt>
      <trkpt lat="49.58472" lon="3.4324">
        <ele>179.7</ele>
        <time>2025-10-05T10:14:29.000Z</time>
      </trkpt>
      <trkpt lat="49.58472" lon="3.4324">
        <ele>179.5</ele>
        <time>2025-10-05T10:14:30.000Z</time>
      </trkpt>
      <trkpt lat="49.58473" lon="3.43239">
        <ele>179.3</ele>
        <time>2025-10-05T10:14:31.000Z</time>
      </trkpt>
      <trkpt lat="49.58473" lon="3.43239">
        <ele>179.3</ele>
        <time>2025-10-05T10:14:32.000Z</time>
      </trkpt>
      <trkpt lat="49.58475" lon="3.43238">
        <ele>179.3</ele>
        <time>2025-10-05T10:14:33.000Z</time>
      </trkpt>
      <trkpt lat="49.58476" lon="3.43238">
        <ele>179.7</ele>
        <time>2025-10-05T10:14:34.000Z</time>
      </trkpt>
      <trkpt lat="49.58477" lon="3.43237">
        <ele>179.5</ele>
        <time>2025-10-05T10:14:35.000Z</time>
      </trkpt>
      <trkpt lat="49.58478" lon="3.43236">
        <ele>179.4</ele>
        <time>2025-10-05T10:14:36.000Z</time>
      </trkpt>
      <trkpt lat="49.58479" lon="3.43235">
        <ele>179.3</ele>
        <time>2025-10-05T10:14:37.000Z</time>
      </trkpt>
      <trkpt lat="49.5848" lon="3.43235">
        <ele>179.1</ele>
        <time>2025-10-05T10:14:38.000Z</time>
      </trkpt>
      <trkpt lat="49.58481" lon="3.43234">
        <ele>179</ele>
        <time>2025-10-05T10:14:39.000Z</time>
      </trkpt>
      <trkpt lat="49.58481" lon="3.43234">
        <ele>179.3</ele>
        <time>2025-10-05T10:14:40.000Z</time>
      </trkpt>
      <trkpt lat="49.58482" lon="3.43234">
        <ele>179.3</ele>
        <time>2025-10-05T10:14:41.000Z</time>
      </trkpt>
      <trkpt lat="49.58483" lon="3.43233">
        <ele>179.6</ele>
        <time>2025-10-05T10:14:42.000Z</time>
      </trkpt>
      <trkpt lat="49.58483" lon="3.43233">
        <ele>179.8</ele>
        <time>2025-10-05T10:14:43.000Z</time>
      </trkpt>
      <trkpt lat="49.58484" lon="3.43232">
        <ele>179.6</ele>
        <time>2025-10-05T10:14:44.000Z</time>
      </trkpt>
      <trkpt lat="49.58485" lon="3.43232">
        <ele>179.5</ele>
        <time>2025-10-05T10:14:45.000Z</time>
      </trkpt>
      <trkpt lat="49.58487" lon="3.43231">
        <ele>179.3</ele>
        <time>2025-10-05T10:14:46.000Z</time>
      </trkpt>
      <trkpt lat="49.58488" lon="3.43231">
        <ele>179</ele>
        <time>2025-10-05T10:14:47.000Z</time>
      </trkpt>
      <trkpt lat="49.58489" lon="3.4323">
        <ele>178.8</ele>
        <time>2025-10-05T10:14:48.000Z</time>
      </trkpt>
      <trkpt lat="49.5849" lon="3.4323">
        <ele>178.5</ele>
        <time>2025-10-05T10:14:49.000Z</time>
      </trkpt>
      <trkpt lat="49.58491" lon="3.4323">
        <ele>178.2</ele>
        <time>2025-10-05T10:14:50.000Z</time>
      </trkpt>
      <trkpt lat="49.58492" lon="3.43229">
        <ele>178</ele>
        <time>2025-10-05T10:14:51.000Z</time>
      </trkpt>
      <trkpt lat="49.58492" lon="3.43229">
        <ele>178</ele>
        <time>2025-10-05T10:14:52.000Z</time>
      </trkpt>
      <trkpt lat="49.58494" lon="3.43229">
        <ele>177.9</ele>
        <time>2025-10-05T10:14:53.000Z</time>
      </trkpt>
      <trkpt lat="49.58495" lon="3.43229">
        <ele>178</ele>
        <time>2025-10-05T10:14:54.000Z</time>
      </trkpt>
      <trkpt lat="49.58495" lon="3.43228">
        <ele>178.3</ele>
        <time>2025-10-05T10:14:55.000Z</time>
      </trkpt>
      <trkpt lat="49.58496" lon="3.43227">
        <ele>178.5</ele>
        <time>2025-10-05T10:14:56.000Z</time>
      </trkpt>
      <trkpt lat="49.58496" lon="3.43226">
        <ele>178.8</ele>
        <time>2025-10-05T10:14:57.000Z</time>
      </trkpt>
      <trkpt lat="49.58497" lon="3.43225">
        <ele>179.2</ele>
        <time>2025-10-05T10:14:58.000Z</time>
      </trkpt>
      <trkpt lat="49.58498" lon="3.43225">
        <ele>179.7</ele>
        <time>2025-10-05T10:14:59.000Z</time>
      </trkpt>
      <trkpt lat="49.58499" lon="3.43225">
        <ele>179.8</ele>
        <time>2025-10-05T10:15:00.000Z</time>
      </trkpt>
      <trkpt lat="49.585" lon="3.43225">
        <ele>179.8</ele>
        <time>2025-10-05T10:15:01.000Z</time>
      </trkpt>
      <trkpt lat="49.58502" lon="3.43225">
        <ele>179.9</ele>
        <time>2025-10-05T10:15:02.000Z</time>
      </trkpt>
      <trkpt lat="49.58503" lon="3.43225">
        <ele>180.4</ele>
        <time>2025-10-05T10:15:03.000Z</time>
      </trkpt>
      <trkpt lat="49.58504" lon="3.43225">
        <ele>180.2</ele>
        <time>2025-10-05T10:15:04.000Z</time>
      </trkpt>
      <trkpt lat="49.58505" lon="3.43224">
        <ele>180.4</ele>
        <time>2025-10-05T10:15:05.000Z</time>
      </trkpt>
      <trkpt lat="49.58505" lon="3.43224">
        <ele>180.6</ele>
        <time>2025-10-05T10:15:06.000Z</time>
      </trkpt>
      <trkpt lat="49.58507" lon="3.43224">
        <ele>180.8</ele>
        <time>2025-10-05T10:15:07.000Z</time>
      </trkpt>
      <trkpt lat="49.58508" lon="3.43224">
        <ele>180.9</ele>
        <time>2025-10-05T10:15:08.000Z</time>
      </trkpt>
      <trkpt lat="49.58508" lon="3.43223">
        <ele>180.9</ele>
        <time>2025-10-05T10:15:09.000Z</time>
      </trkpt>
      <trkpt lat="49.5851" lon="3.43223">
        <ele>181.3</ele>
        <time>2025-10-05T10:15:10.000Z</time>
      </trkpt>
      <trkpt lat="49.58511" lon="3.43223">
        <ele>181.9</ele>
        <time>2025-10-05T10:15:11.000Z</time>
      </trkpt>
      <trkpt lat="49.58512" lon="3.43223">
        <ele>181.9</ele>
        <time>2025-10-05T10:15:12.000Z</time>
      </trkpt>
      <trkpt lat="49.58513" lon="3.43223">
        <ele>181.8</ele>
        <time>2025-10-05T10:15:13.000Z</time>
      </trkpt>
      <trkpt lat="49.58514" lon="3.43223">
        <ele>181.7</ele>
        <time>2025-10-05T10:15:14.000Z</time>
      </trkpt>
      <trkpt lat="49.58516" lon="3.43223">
        <ele>181.7</ele>
        <time>2025-10-05T10:15:15.000Z</time>
      </trkpt>
      <trkpt lat="49.58516" lon="3.43223">
        <ele>181.7</ele>
        <time>2025-10-05T10:15:16.000Z</time>
      </trkpt>
      <trkpt lat="49.58517" lon="3.43223">
        <ele>181.5</ele>
        <time>2025-10-05T10:15:17.000Z</time>
      </trkpt>
      <trkpt lat="49.58518" lon="3.43222">
        <ele>181.8</ele>
        <time>2025-10-05T10:15:18.000Z</time>
      </trkpt>
      <trkpt lat="49.58519" lon="3.43221">
        <ele>182.2</ele>
        <time>2025-10-05T10:15:19.000Z</time>
      </trkpt>
      <trkpt lat="49.5852" lon="3.43221">
        <ele>181.8</ele>
        <time>2025-10-05T10:15:20.000Z</time>
      </trkpt>
      <trkpt lat="49.5852" lon="3.43221">
        <ele>181.6</ele>
        <time>2025-10-05T10:15:21.000Z</time>
      </trkpt>
      <trkpt lat="49.58521" lon="3.43221">
        <ele>181.3</ele>
        <time>2025-10-05T10:15:22.000Z</time>
      </trkpt>
      <trkpt lat="49.58521" lon="3.43221">
        <ele>181.2</ele>
        <time>2025-10-05T10:15:23.000Z</time>
      </trkpt>
      <trkpt lat="49.58522" lon="3.4322">
        <ele>181</ele>
        <time>2025-10-05T10:15:24.000Z</time>
      </trkpt>
      <trkpt lat="49.58523" lon="3.43221">
        <ele>181</ele>
        <time>2025-10-05T10:15:25.000Z</time>
      </trkpt>
      <trkpt lat="49.58524" lon="3.43221">
        <ele>180.9</ele>
        <time>2025-10-05T10:15:26.000Z</time>
      </trkpt>
      <trkpt lat="49.58526" lon="3.43221">
        <ele>180.9</ele>
        <time>2025-10-05T10:15:27.000Z</time>
      </trkpt>
      <trkpt lat="49.58527" lon="3.43222">
        <ele>180.7</ele>
        <time>2025-10-05T10:15:28.000Z</time>
      </trkpt>
      <trkpt lat="49.58527" lon="3.43222">
        <ele>181</ele>
        <time>2025-10-05T10:15:29.000Z</time>
      </trkpt>
      <trkpt lat="49.58527" lon="3.43223">
        <ele>181.6</ele>
        <time>2025-10-05T10:15:30.000Z</time>
      </trkpt>
      <trkpt lat="49.58528" lon="3.43223">
        <ele>181.9</ele>
        <time>2025-10-05T10:15:31.000Z</time>
      </trkpt>
      <trkpt lat="49.58529" lon="3.43223">
        <ele>182.2</ele>
        <time>2025-10-05T10:15:32.000Z</time>
      </trkpt>
      <trkpt lat="49.5853" lon="3.43223">
        <ele>182.2</ele>
        <time>2025-10-05T10:15:33.000Z</time>
      </trkpt>
      <trkpt lat="49.5853" lon="3.43224">
        <ele>182.2</ele>
        <time>2025-10-05T10:15:34.000Z</time>
      </trkpt>
      <trkpt lat="49.58531" lon="3.43224">
        <ele>182.2</ele>
        <time>2025-10-05T10:15:35.000Z</time>
      </trkpt>
      <trkpt lat="49.58531" lon="3.43225">
        <ele>182.1</ele>
        <time>2025-10-05T10:15:36.000Z</time>
      </trkpt>
      <trkpt lat="49.58532" lon="3.43226">
        <ele>182.3</ele>
        <time>2025-10-05T10:15:37.000Z</time>
      </trkpt>
      <trkpt lat="49.58533" lon="3.43226">
        <ele>182.5</ele>
        <time>2025-10-05T10:15:38.000Z</time>
      </trkpt>
      <trkpt lat="49.58533" lon="3.43227">
        <ele>182.6</ele>
        <time>2025-10-05T10:15:39.000Z</time>
      </trkpt>
      <trkpt lat="49.58534" lon="3.43228">
        <ele>182.6</ele>
        <time>2025-10-05T10:15:40.000Z</time>
      </trkpt>
      <trkpt lat="49.58535" lon="3.43229">
        <ele>182.7</ele>
        <time>2025-10-05T10:15:41.000Z</time>
      </trkpt>
      <trkpt lat="49.58536" lon="3.4323">
        <ele>182.7</ele>
        <time>2025-10-05T10:15:42.000Z</time>
      </trkpt>
      <trkpt lat="49.58537" lon="3.43231">
        <ele>182.9</ele>
        <time>2025-10-05T10:15:43.000Z</time>
      </trkpt>
      <trkpt lat="49.58537" lon="3.43233">
        <ele>183</ele>
        <time>2025-10-05T10:15:44.000Z</time>
      </trkpt>
      <trkpt lat="49.58538" lon="3.43234">
        <ele>183.1</ele>
        <time>2025-10-05T10:15:45.000Z</time>
      </trkpt>
      <trkpt lat="49.58538" lon="3.43236">
        <ele>183</ele>
        <time>2025-10-05T10:15:46.000Z</time>
      </trkpt>
      <trkpt lat="49.58539" lon="3.43237">
        <ele>182.9</ele>
        <time>2025-10-05T10:15:47.000Z</time>
      </trkpt>
      <trkpt lat="49.5854" lon="3.43237">
        <ele>182.6</ele>
        <time>2025-10-05T10:15:48.000Z</time>
      </trkpt>
      <trkpt lat="49.5854" lon="3.43238">
        <ele>182.5</ele>
        <time>2025-10-05T10:15:49.000Z</time>
      </trkpt>
      <trkpt lat="49.58541" lon="3.43239">
        <ele>182.4</ele>
        <time>2025-10-05T10:15:50.000Z</time>
      </trkpt>
      <trkpt lat="49.58542" lon="3.43239">
        <ele>182.2</ele>
        <time>2025-10-05T10:15:51.000Z</time>
      </trkpt>
      <trkpt lat="49.58543" lon="3.4324">
        <ele>182</ele>
        <time>2025-10-05T10:15:52.000Z</time>
      </trkpt>
      <trkpt lat="49.58543" lon="3.43241">
        <ele>181.7</ele>
        <time>2025-10-05T10:15:53.000Z</time>
      </trkpt>
      <trkpt lat="49.58544" lon="3.43241">
        <ele>181.6</ele>
        <time>2025-10-05T10:15:54.000Z</time>
      </trkpt>
      <trkpt lat="49.58545" lon="3.43241">
        <ele>181.1</ele>
        <time>2025-10-05T10:15:55.000Z</time>
      </trkpt>
      <trkpt lat="49.58545" lon="3.43242">
        <ele>180.7</ele>
        <time>2025-10-05T10:15:56.000Z</time>
      </trkpt>
      <trkpt lat="49.58546" lon="3.43242">
        <ele>180.3</ele>
        <time>2025-10-05T10:15:57.000Z</time>
      </trkpt>
      <trkpt lat="49.58546" lon="3.43241">
        <ele>180.1</ele>
        <time>2025-10-05T10:15:58.000Z</time>
      </trkpt>
      <trkpt lat="49.58547" lon="3.4324">
        <ele>180.1</ele>
        <time>2025-10-05T10:15:59.000Z</time>
      </trkpt>
      <trkpt lat="49.58547" lon="3.4324">
        <ele>180.5</ele>
        <time>2025-10-05T10:16:00.000Z</time>
      </trkpt>
      <trkpt lat="49.58547" lon="3.43239">
        <ele>180.9</ele>
        <time>2025-10-05T10:16:01.000Z</time>
      </trkpt>
      <trkpt lat="49.58547" lon="3.43239">
        <ele>181.1</ele>
        <time>2025-10-05T10:16:02.000Z</time>
      </trkpt>
      <trkpt lat="49.58547" lon="3.43238">
        <ele>181.3</ele>
        <time>2025-10-05T10:16:03.000Z</time>
      </trkpt>
      <trkpt lat="49.58547" lon="3.43238">
        <ele>181.4</ele>
        <time>2025-10-05T10:16:04.000Z</time>
      </trkpt>
      <trkpt lat="49.58547" lon="3.43238">
        <ele>181.6</ele>
        <time>2025-10-05T10:16:05.000Z</time>
      </trkpt>
      <trkpt lat="49.58547" lon="3.43238">
        <ele>181.8</ele>
        <time>2025-10-05T10:16:06.000Z</time>
      </trkpt>
      <trkpt lat="49.58547" lon="3.43238">
        <ele>181.8</ele>
        <time>2025-10-05T10:16:07.000Z</time>
      </trkpt>
      <trkpt lat="49.58547" lon="3.43238">
        <ele>181.8</ele>
        <time>2025-10-05T10:16:08.000Z</time>
      </trkpt>
      <trkpt lat="49.58547" lon="3.43238">
        <ele>181.8</ele>
        <time>2025-10-05T10:16:09.000Z</time>
      </trkpt>
      <trkpt lat="49.58547" lon="3.43238">
        <ele>181.8</ele>
        <time>2025-10-05T10:16:10.000Z</time>
      </trkpt>
      <trkpt lat="49.58547" lon="3.43238">
        <ele>181.8</ele>
        <time>2025-10-05T10:16:11.000Z</time>
      </trkpt>
      <trkpt lat="49.58547" lon="3.43238">
        <ele>181.8</ele>
        <time>2025-10-05T10:16:12.000Z</time>
      </trkpt>
      <trkpt lat="49.58547" lon="3.43238">
        <ele>181.8</ele>
        <time>2025-10-05T10:16:13.000Z</time>
      </trkpt>
      <trkpt lat="49.58547" lon="3.43238">
        <ele>181.8</ele>
        <time>2025-10-05T10:16:14.000Z</time>
      </trkpt>
      <trkpt lat="49.58547" lon="3.43238">
        <ele>181.8</ele>
        <time>2025-10-05T10:16:15.000Z</time>
      </trkpt>
      <trkpt lat="49.58547" lon="3.43238">
        <ele>181.8</ele>
        <time>2025-10-05T10:16:16.000Z</time>
      </trkpt>
      <trkpt lat="49.58547" lon="3.43238">
        <ele>181.8</ele>
        <time>2025-10-05T10:16:17.000Z</time>
      </trkpt>
      <trkpt lat="49.58547" lon="3.43238">
        <ele>181.8</ele>
        <time>2025-10-05T10:16:18.000Z</time>
      </trkpt>
      <trkpt lat="49.58547" lon="3.43238">
        <ele>181.8</ele>
        <time>2025-10-05T10:16:19.000Z</time>
      </trkpt>
      <trkpt lat="49.58547" lon="3.43238">
        <ele>181.8</ele>
        <time>2025-10-05T10:16:20.000Z</time>
      </trkpt>
      <trkpt lat="49.58547" lon="3.43238">
        <ele>181.8</ele>
        <time>2025-10-05T10:16:21.000Z</time>
      </trkpt>
      <trkpt lat="49.58547" lon="3.43238">
        <ele>181.8</ele>
        <time>2025-10-05T10:16:22.000Z</time>
      </trkpt>
      <trkpt lat="49.58547" lon="3.43238">
        <ele>181.8</ele>
        <time>2025-10-05T10:16:23.000Z</time>
      </trkpt>
      <trkpt lat="49.58547" lon="3.43238">
        <ele>181.8</ele>
        <time>2025-10-05T10:16:24.000Z</time>
      </trkpt>
      <trkpt lat="49.58547" lon="3.43238">
        <ele>181.8</ele>
        <time>2025-10-05T10:16:25.000Z</time>
      </trkpt>
      <trkpt lat="49.58547" lon="3.43238">
        <ele>181.8</ele>
        <time>2025-10-05T10:16:26.000Z</time>
      </trkpt>
      <trkpt lat="49.58547" lon="3.43238">
        <ele>181.8</ele>
        <time>2025-10-05T10:16:27.000Z</time>
      </trkpt>
      <trkpt lat="49.58547" lon="3.43238">
        <ele>181.8</ele>
        <time>2025-10-05T10:16:28.000Z</time>
      </trkpt>
      <trkpt lat="49.58547" lon="3.43238">
        <ele>181.8</ele>
        <time>2025-10-05T10:16:29.000Z</time>
      </trkpt>
      <trkpt lat="49.58547" lon="3.43238">
        <ele>181.8</ele>
        <time>2025-10-05T10:16:30.000Z</time>
      </trkpt>
      <trkpt lat="49.58547" lon="3.43238">
        <ele>181.8</ele>
        <time>2025-10-05T10:16:31.000Z</time>
      </trkpt>
      <trkpt lat="49.58547" lon="3.43238">
        <ele>181.8</ele>
        <time>2025-10-05T10:16:32.000Z</time>
      </trkpt>
      <trkpt lat="49.58547" lon="3.43238">
        <ele>181.8</ele>
        <time>2025-10-05T10:16:33.000Z</time>
      </trkpt>
      <trkpt lat="49.58547" lon="3.43238">
        <ele>181.8</ele>
        <time>2025-10-05T10:16:34.000Z</time>
      </trkpt>
      <trkpt lat="49.58547" lon="3.43238">
        <ele>181.8</ele>
        <time>2025-10-05T10:16:35.000Z</time>
      </trkpt>
      <trkpt lat="49.58547" lon="3.43238">
        <ele>181.8</ele>
        <time>2025-10-05T10:16:36.000Z</time>
      </trkpt>
      <trkpt lat="49.58547" lon="3.43238">
        <ele>181.8</ele>
        <time>2025-10-05T10:16:37.000Z</time>
      </trkpt>
      <trkpt lat="49.58547" lon="3.43238">
        <ele>181.8</ele>
        <time>2025-10-05T10:16:38.000Z</time>
      </trkpt>
      <trkpt lat="49.58547" lon="3.43238">
        <ele>181.8</ele>
        <time>2025-10-05T10:16:39.000Z</time>
      </trkpt>
      <trkpt lat="49.58547" lon="3.43238">
        <ele>181.8</ele>
        <time>2025-10-05T10:16:40.000Z</time>
      </trkpt>
      <trkpt lat="49.58547" lon="3.43238">
        <ele>181.8</ele>
        <time>2025-10-05T10:16:41.000Z</time>
      </trkpt>
      <trkpt lat="49.58547" lon="3.43238">
        <ele>181.8</ele>
        <time>2025-10-05T10:16:42.000Z</time>
      </trkpt>
      <trkpt lat="49.58547" lon="3.43238">
        <ele>181.8</ele>
        <time>2025-10-05T10:16:43.000Z</time>
      </trkpt>
      <trkpt lat="49.58547" lon="3.43238">
        <ele>181.8</ele>
        <time>2025-10-05T10:16:44.000Z</time>
      </trkpt>
      <trkpt lat="49.58547" lon="3.43238">
        <ele>181.8</ele>
        <time>2025-10-05T10:16:45.000Z</time>
      </trkpt>
      <trkpt lat="49.58547" lon="3.43238">
        <ele>181.8</ele>
        <time>2025-10-05T10:16:46.000Z</time>
      </trkpt>
      <trkpt lat="49.58547" lon="3.43238">
        <ele>181.8</ele>
        <time>2025-10-05T10:16:47.000Z</time>
      </trkpt>
      <trkpt lat="49.58547" lon="3.43238">
        <ele>181.8</ele>
        <time>2025-10-05T10:16:48.000Z</time>
      </trkpt>
      <trkpt lat="49.58547" lon="3.43238">
        <ele>181.8</ele>
        <time>2025-10-05T10:16:49.000Z</time>
      </trkpt>
      <trkpt lat="49.58547" lon="3.43238">
        <ele>181.8</ele>
        <time>2025-10-05T10:16:50.000Z</time>
      </trkpt>
      <trkpt lat="49.58547" lon="3.43238">
        <ele>181.8</ele>
        <time>2025-10-05T10:16:51.000Z</time>
      </trkpt>
      <trkpt lat="49.58547" lon="3.43238">
        <ele>181.8</ele>
        <time>2025-10-05T10:16:52.000Z</time>
      </trkpt>
      <trkpt lat="49.58547" lon="3.43238">
        <ele>181.8</ele>
        <time>2025-10-05T10:16:53.000Z</time>
      </trkpt>
      <trkpt lat="49.58553" lon="3.43241">
        <ele>174.5</ele>
        <time>2025-10-05T10:16:54.000Z</time>
      </trkpt>
      <trkpt lat="49.58554" lon="3.4324">
        <ele>174.5</ele>
        <time>2025-10-05T10:16:55.000Z</time>
      </trkpt>
      <trkpt lat="49.58555" lon="3.43239">
        <ele>174.5</ele>
        <time>2025-10-05T10:16:56.000Z</time>
      </trkpt>
      <trkpt lat="49.58556" lon="3.43239">
        <ele>174.4</ele>
        <time>2025-10-05T10:16:57.000Z</time>
      </trkpt>
      <trkpt lat="49.58556" lon="3.43239">
        <ele>174.3</ele>
        <time>2025-10-05T10:16:58.000Z</time>
      </trkpt>
      <trkpt lat="49.58557" lon="3.4324">
        <ele>174.2</ele>
        <time>2025-10-05T10:16:59.000Z</time>
      </trkpt>
      <trkpt lat="49.58557" lon="3.4324">
        <ele>174.2</ele>
        <time>2025-10-05T10:17:00.000Z</time>
      </trkpt>
      <trkpt lat="49.58558" lon="3.4324">
        <ele>174</ele>
        <time>2025-10-05T10:17:01.000Z</time>
      </trkpt>
      <trkpt lat="49.58558" lon="3.43241">
        <ele>173.9</ele>
        <time>2025-10-05T10:17:02.000Z</time>
      </trkpt>
      <trkpt lat="49.58558" lon="3.43241">
        <ele>173.9</ele>
        <time>2025-10-05T10:17:03.000Z</time>
      </trkpt>
      <trkpt lat="49.58558" lon="3.43242">
        <ele>174</ele>
        <time>2025-10-05T10:17:04.000Z</time>
      </trkpt>
      <trkpt lat="49.58559" lon="3.43243">
        <ele>174</ele>
        <time>2025-10-05T10:17:05.000Z</time>
      </trkpt>
      <trkpt lat="49.58559" lon="3.43243">
        <ele>174.1</ele>
        <time>2025-10-05T10:17:06.000Z</time>
      </trkpt>
      <trkpt lat="49.5856" lon="3.43244">
        <ele>174.1</ele>
        <time>2025-10-05T10:17:07.000Z</time>
      </trkpt>
      <trkpt lat="49.5856" lon="3.43245">
        <ele>174.3</ele>
        <time>2025-10-05T10:17:08.000Z</time>
      </trkpt>
      <trkpt lat="49.5856" lon="3.43245">
        <ele>174.6</ele>
        <time>2025-10-05T10:17:09.000Z</time>
      </trkpt>
      <trkpt lat="49.58561" lon="3.43246">
        <ele>174.8</ele>
        <time>2025-10-05T10:17:10.000Z</time>
      </trkpt>
      <trkpt lat="49.58561" lon="3.43247">
        <ele>174.9</ele>
        <time>2025-10-05T10:17:11.000Z</time>
      </trkpt>
      <trkpt lat="49.58562" lon="3.43247">
        <ele>175</ele>
        <time>2025-10-05T10:17:12.000Z</time>
      </trkpt>
      <trkpt lat="49.58563" lon="3.43248">
        <ele>175.2</ele>
        <time>2025-10-05T10:17:13.000Z</time>
      </trkpt>
      <trkpt lat="49.58564" lon="3.43249">
        <ele>175.4</ele>
        <time>2025-10-05T10:17:14.000Z</time>
      </trkpt>
      <trkpt lat="49.58565" lon="3.43249">
        <ele>175.5</ele>
        <time>2025-10-05T10:17:15.000Z</time>
      </trkpt>
      <trkpt lat="49.58566" lon="3.4325">
        <ele>175.6</ele>
        <time>2025-10-05T10:17:16.000Z</time>
      </trkpt>
      <trkpt lat="49.58567" lon="3.4325">
        <ele>175.7</ele>
        <time>2025-10-05T10:17:17.000Z</time>
      </trkpt>
      <trkpt lat="49.58569" lon="3.4325">
        <ele>175.8</ele>
        <time>2025-10-05T10:17:18.000Z</time>
      </trkpt>
      <trkpt lat="49.5857" lon="3.43251">
        <ele>175.9</ele>
        <time>2025-10-05T10:17:19.000Z</time>
      </trkpt>
      <trkpt lat="49.58571" lon="3.43251">
        <ele>176.1</ele>
        <time>2025-10-05T10:17:20.000Z</time>
      </trkpt>
      <trkpt lat="49.58572" lon="3.43251">
        <ele>176.3</ele>
        <time>2025-10-05T10:17:21.000Z</time>
      </trkpt>
      <trkpt lat="49.58574" lon="3.43252">
        <ele>176.5</ele>
        <time>2025-10-05T10:17:22.000Z</time>
      </trkpt>
      <trkpt lat="49.58575" lon="3.43252">
        <ele>176.6</ele>
        <time>2025-10-05T10:17:23.000Z</time>
      </trkpt>
      <trkpt lat="49.58576" lon="3.43253">
        <ele>176.9</ele>
        <time>2025-10-05T10:17:24.000Z</time>
      </trkpt>
      <trkpt lat="49.58576" lon="3.43253">
        <ele>177</ele>
        <time>2025-10-05T10:17:25.000Z</time>
      </trkpt>
      <trkpt lat="49.58577" lon="3.43253">
        <ele>177.3</ele>
        <time>2025-10-05T10:17:26.000Z</time>
      </trkpt>
      <trkpt lat="49.58578" lon="3.43253">
        <ele>177.3</ele>
        <time>2025-10-05T10:17:27.000Z</time>
      </trkpt>
      <trkpt lat="49.58578" lon="3.43253">
        <ele>177.4</ele>
        <time>2025-10-05T10:17:28.000Z</time>
      </trkpt>
      <trkpt lat="49.58579" lon="3.43254">
        <ele>177.7</ele>
        <time>2025-10-05T10:17:29.000Z</time>
      </trkpt>
      <trkpt lat="49.5858" lon="3.43256">
        <ele>177.4</ele>
        <time>2025-10-05T10:17:30.000Z</time>
      </trkpt>
      <trkpt lat="49.58581" lon="3.43257">
        <ele>177.4</ele>
        <time>2025-10-05T10:17:31.000Z</time>
      </trkpt>
      <trkpt lat="49.58582" lon="3.43257">
        <ele>177.2</ele>
        <time>2025-10-05T10:17:32.000Z</time>
      </trkpt>
      <trkpt lat="49.58582" lon="3.43257">
        <ele>177</ele>
        <time>2025-10-05T10:17:33.000Z</time>
      </trkpt>
      <trkpt lat="49.58583" lon="3.43258">
        <ele>177.2</ele>
        <time>2025-10-05T10:17:34.000Z</time>
      </trkpt>
      <trkpt lat="49.58584" lon="3.43259">
        <ele>177.1</ele>
        <time>2025-10-05T10:17:35.000Z</time>
      </trkpt>
      <trkpt lat="49.58585" lon="3.43259">
        <ele>177.1</ele>
        <time>2025-10-05T10:17:36.000Z</time>
      </trkpt>
      <trkpt lat="49.58586" lon="3.43259">
        <ele>177.3</ele>
        <time>2025-10-05T10:17:37.000Z</time>
      </trkpt>
      <trkpt lat="49.58587" lon="3.43259">
        <ele>177.5</ele>
        <time>2025-10-05T10:17:38.000Z</time>
      </trkpt>
      <trkpt lat="49.58588" lon="3.43259">
        <ele>177.2</ele>
        <time>2025-10-05T10:17:39.000Z</time>
      </trkpt>
      <trkpt lat="49.58589" lon="3.43259">
        <ele>177.1</ele>
        <time>2025-10-05T10:17:40.000Z</time>
      </trkpt>
      <trkpt lat="49.5859" lon="3.4326">
        <ele>176.7</ele>
        <time>2025-10-05T10:17:41.000Z</time>
      </trkpt>
      <trkpt lat="49.5859" lon="3.4326">
        <ele>176.6</ele>
        <time>2025-10-05T10:17:42.000Z</time>
      </trkpt>
      <trkpt lat="49.58591" lon="3.43261">
        <ele>176.6</ele>
        <time>2025-10-05T10:17:43.000Z</time>
      </trkpt>
      <trkpt lat="49.58593" lon="3.43262">
        <ele>176.9</ele>
        <time>2025-10-05T10:17:44.000Z</time>
      </trkpt>
      <trkpt lat="49.58594" lon="3.43262">
        <ele>177.1</ele>
        <time>2025-10-05T10:17:45.000Z</time>
      </trkpt>
      <trkpt lat="49.58594" lon="3.43263">
        <ele>176.9</ele>
        <time>2025-10-05T10:17:46.000Z</time>
      </trkpt>
      <trkpt lat="49.58595" lon="3.43263">
        <ele>176.9</ele>
        <time>2025-10-05T10:17:47.000Z</time>
      </trkpt>
      <trkpt lat="49.58596" lon="3.43264">
        <ele>176.9</ele>
        <time>2025-10-05T10:17:48.000Z</time>
      </trkpt>
      <trkpt lat="49.58597" lon="3.43264">
        <ele>176.6</ele>
        <time>2025-10-05T10:17:49.000Z</time>
      </trkpt>
      <trkpt lat="49.58598" lon="3.43264">
        <ele>176.8</ele>
        <time>2025-10-05T10:17:50.000Z</time>
      </trkpt>
      <trkpt lat="49.58599" lon="3.43265">
        <ele>177.1</ele>
        <time>2025-10-05T10:17:51.000Z</time>
      </trkpt>
      <trkpt lat="49.586" lon="3.43265">
        <ele>177.3</ele>
        <time>2025-10-05T10:17:52.000Z</time>
      </trkpt>
      <trkpt lat="49.58601" lon="3.43267">
        <ele>177.4</ele>
        <time>2025-10-05T10:17:53.000Z</time>
      </trkpt>
      <trkpt lat="49.58602" lon="3.43268">
        <ele>177.8</ele>
        <time>2025-10-05T10:17:54.000Z</time>
      </trkpt>
      <trkpt lat="49.58602" lon="3.4327">
        <ele>178.1</ele>
        <time>2025-10-05T10:17:55.000Z</time>
      </trkpt>
      <trkpt lat="49.58602" lon="3.43271">
        <ele>178.1</ele>
        <time>2025-10-05T10:17:56.000Z</time>
      </trkpt>
      <trkpt lat="49.58602" lon="3.43273">
        <ele>178</ele>
        <time>2025-10-05T10:17:57.000Z</time>
      </trkpt>
      <trkpt lat="49.58602" lon="3.43274">
        <ele>177.8</ele>
        <time>2025-10-05T10:17:58.000Z</time>
      </trkpt>
      <trkpt lat="49.58602" lon="3.43276">
        <ele>178</ele>
        <time>2025-10-05T10:17:59.000Z</time>
      </trkpt>
      <trkpt lat="49.58602" lon="3.43277">
        <ele>177.9</ele>
        <time>2025-10-05T10:18:00.000Z</time>
      </trkpt>
      <trkpt lat="49.58602" lon="3.43278">
        <ele>177.6</ele>
        <time>2025-10-05T10:18:01.000Z</time>
      </trkpt>
      <trkpt lat="49.58602" lon="3.43279">
        <ele>177.4</ele>
        <time>2025-10-05T10:18:02.000Z</time>
      </trkpt>
      <trkpt lat="49.58601" lon="3.4328">
        <ele>177.4</ele>
        <time>2025-10-05T10:18:03.000Z</time>
      </trkpt>
      <trkpt lat="49.58601" lon="3.43282">
        <ele>177.4</ele>
        <time>2025-10-05T10:18:04.000Z</time>
      </trkpt>
      <trkpt lat="49.586" lon="3.43283">
        <ele>177.2</ele>
        <time>2025-10-05T10:18:05.000Z</time>
      </trkpt>
      <trkpt lat="49.586" lon="3.43284">
        <ele>177.3</ele>
        <time>2025-10-05T10:18:06.000Z</time>
      </trkpt>
      <trkpt lat="49.586" lon="3.43285">
        <ele>177.5</ele>
        <time>2025-10-05T10:18:07.000Z</time>
      </trkpt>
      <trkpt lat="49.586" lon="3.43286">
        <ele>177.5</ele>
        <time>2025-10-05T10:18:08.000Z</time>
      </trkpt>
      <trkpt lat="49.586" lon="3.43287">
        <ele>177.6</ele>
        <time>2025-10-05T10:18:09.000Z</time>
      </trkpt>
      <trkpt lat="49.586" lon="3.43287">
        <ele>177.6</ele>
        <time>2025-10-05T10:18:10.000Z</time>
      </trkpt>
      <trkpt lat="49.586" lon="3.43288">
        <ele>177.5</ele>
        <time>2025-10-05T10:18:11.000Z</time>
      </trkpt>
      <trkpt lat="49.586" lon="3.43289">
        <ele>177.5</ele>
        <time>2025-10-05T10:18:12.000Z</time>
      </trkpt>
      <trkpt lat="49.586" lon="3.43289">
        <ele>177.5</ele>
        <time>2025-10-05T10:18:13.000Z</time>
      </trkpt>
      <trkpt lat="49.586" lon="3.4329">
        <ele>177.5</ele>
        <time>2025-10-05T10:18:14.000Z</time>
      </trkpt>
      <trkpt lat="49.586" lon="3.43291">
        <ele>177.5</ele>
        <time>2025-10-05T10:18:15.000Z</time>
      </trkpt>
      <trkpt lat="49.586" lon="3.43292">
        <ele>177.5</ele>
        <time>2025-10-05T10:18:16.000Z</time>
      </trkpt>
      <trkpt lat="49.586" lon="3.43292">
        <ele>177.5</ele>
        <time>2025-10-05T10:18:17.000Z</time>
      </trkpt>
      <trkpt lat="49.586" lon="3.43293">
        <ele>177.4</ele>
        <time>2025-10-05T10:18:18.000Z</time>
      </trkpt>
      <trkpt lat="49.58599" lon="3.43294">
        <ele>177.3</ele>
        <time>2025-10-05T10:18:19.000Z</time>
      </trkpt>
      <trkpt lat="49.58599" lon="3.43295">
        <ele>177.3</ele>
        <time>2025-10-05T10:18:20.000Z</time>
      </trkpt>
      <trkpt lat="49.58599" lon="3.43296">
        <ele>177.3</ele>
        <time>2025-10-05T10:18:21.000Z</time>
      </trkpt>
      <trkpt lat="49.58599" lon="3.43297">
        <ele>177.4</ele>
        <time>2025-10-05T10:18:22.000Z</time>
      </trkpt>
      <trkpt lat="49.58598" lon="3.43298">
        <ele>177.2</ele>
        <time>2025-10-05T10:18:23.000Z</time>
      </trkpt>
      <trkpt lat="49.58599" lon="3.43299">
        <ele>177.2</ele>
        <time>2025-10-05T10:18:24.000Z</time>
      </trkpt>
      <trkpt lat="49.58599" lon="3.433">
        <ele>177.2</ele>
        <time>2025-10-05T10:18:25.000Z</time>
      </trkpt>
      <trkpt lat="49.58599" lon="3.43301">
        <ele>177.1</ele>
        <time>2025-10-05T10:18:26.000Z</time>
      </trkpt>
      <trkpt lat="49.58599" lon="3.43302">
        <ele>177.1</ele>
        <time>2025-10-05T10:18:27.000Z</time>
      </trkpt>
      <trkpt lat="49.58598" lon="3.43303">
        <ele>177.2</ele>
        <time>2025-10-05T10:18:28.000Z</time>
      </trkpt>
      <trkpt lat="49.58598" lon="3.43304">
        <ele>177</ele>
        <time>2025-10-05T10:18:29.000Z</time>
      </trkpt>
      <trkpt lat="49.58598" lon="3.43305">
        <ele>176.8</ele>
        <time>2025-10-05T10:18:30.000Z</time>
      </trkpt>
      <trkpt lat="49.58597" lon="3.43306">
        <ele>176.7</ele>
        <time>2025-10-05T10:18:31.000Z</time>
      </trkpt>
      <trkpt lat="49.58597" lon="3.43307">
        <ele>176.4</ele>
        <time>2025-10-05T10:18:32.000Z</time>
      </trkpt>
      <trkpt lat="49.58597" lon="3.43308">
        <ele>176.1</ele>
        <time>2025-10-05T10:18:33.000Z</time>
      </trkpt>
      <trkpt lat="49.58596" lon="3.43309">
        <ele>175.8</ele>
        <time>2025-10-05T10:18:34.000Z</time>
      </trkpt>
      <trkpt lat="49.58596" lon="3.4331">
        <ele>175.4</ele>
        <time>2025-10-05T10:18:35.000Z</time>
      </trkpt>
      <trkpt lat="49.58596" lon="3.43311">
        <ele>174.9</ele>
        <time>2025-10-05T10:18:36.000Z</time>
      </trkpt>
      <trkpt lat="49.58596" lon="3.43312">
        <ele>174.5</ele>
        <time>2025-10-05T10:18:37.000Z</time>
      </trkpt>
      <trkpt lat="49.58595" lon="3.43313">
        <ele>174.1</ele>
        <time>2025-10-05T10:18:38.000Z</time>
      </trkpt>
      <trkpt lat="49.58595" lon="3.43314">
        <ele>173.8</ele>
        <time>2025-10-05T10:18:39.000Z</time>
      </trkpt>
      <trkpt lat="49.58595" lon="3.43315">
        <ele>173</ele>
        <time>2025-10-05T10:18:40.000Z</time>
      </trkpt>
      <trkpt lat="49.58595" lon="3.43316">
        <ele>172.2</ele>
        <time>2025-10-05T10:18:41.000Z</time>
      </trkpt>
      <trkpt lat="49.58595" lon="3.43317">
        <ele>171.9</ele>
        <time>2025-10-05T10:18:42.000Z</time>
      </trkpt>
      <trkpt lat="49.58595" lon="3.43318">
        <ele>171.7</ele>
        <time>2025-10-05T10:18:43.000Z</time>
      </trkpt>
      <trkpt lat="49.58595" lon="3.43319">
        <ele>171.6</ele>
        <time>2025-10-05T10:18:44.000Z</time>
      </trkpt>
      <trkpt lat="49.58595" lon="3.4332">
        <ele>171.5</ele>
        <time>2025-10-05T10:18:45.000Z</time>
      </trkpt>
      <trkpt lat="49.58595" lon="3.43322">
        <ele>171.5</ele>
        <time>2025-10-05T10:18:46.000Z</time>
      </trkpt>
      <trkpt lat="49.58596" lon="3.43323">
        <ele>171.4</ele>
        <time>2025-10-05T10:18:47.000Z</time>
      </trkpt>
      <trkpt lat="49.58595" lon="3.43323">
        <ele>171.4</ele>
        <time>2025-10-05T10:18:48.000Z</time>
      </trkpt>
      <trkpt lat="49.58595" lon="3.43324">
        <ele>171.8</ele>
        <time>2025-10-05T10:18:49.000Z</time>
      </trkpt>
      <trkpt lat="49.58595" lon="3.43325">
        <ele>171.3</ele>
        <time>2025-10-05T10:18:50.000Z</time>
      </trkpt>
      <trkpt lat="49.58595" lon="3.43326">
        <ele>170.8</ele>
        <time>2025-10-05T10:18:51.000Z</time>
      </trkpt>
      <trkpt lat="49.58595" lon="3.43326">
        <ele>170.4</ele>
        <time>2025-10-05T10:18:52.000Z</time>
      </trkpt>
      <trkpt lat="49.58594" lon="3.43327">
        <ele>170.2</ele>
        <time>2025-10-05T10:18:53.000Z</time>
      </trkpt>
      <trkpt lat="49.58594" lon="3.43329">
        <ele>169.8</ele>
        <time>2025-10-05T10:18:54.000Z</time>
      </trkpt>
      <trkpt lat="49.58593" lon="3.4333">
        <ele>169.2</ele>
        <time>2025-10-05T10:18:55.000Z</time>
      </trkpt>
      <trkpt lat="49.58592" lon="3.43331">
        <ele>168.9</ele>
        <time>2025-10-05T10:18:56.000Z</time>
      </trkpt>
      <trkpt lat="49.58592" lon="3.43332">
        <ele>168.8</ele>
        <time>2025-10-05T10:18:57.000Z</time>
      </trkpt>
      <trkpt lat="49.58592" lon="3.43332">
        <ele>168.6</ele>
        <time>2025-10-05T10:18:58.000Z</time>
      </trkpt>
      <trkpt lat="49.58591" lon="3.43333">
        <ele>168</ele>
        <time>2025-10-05T10:18:59.000Z</time>
      </trkpt>
      <trkpt lat="49.58591" lon="3.43334">
        <ele>167.8</ele>
        <time>2025-10-05T10:19:00.000Z</time>
      </trkpt>
      <trkpt lat="49.5859" lon="3.43336">
        <ele>167.5</ele>
        <time>2025-10-05T10:19:01.000Z</time>
      </trkpt>
      <trkpt lat="49.5859" lon="3.43337">
        <ele>167.2</ele>
        <time>2025-10-05T10:19:02.000Z</time>
      </trkpt>
      <trkpt lat="49.5859" lon="3.43338">
        <ele>167.1</ele>
        <time>2025-10-05T10:19:03.000Z</time>
      </trkpt>
      <trkpt lat="49.5859" lon="3.43339">
        <ele>167</ele>
        <time>2025-10-05T10:19:04.000Z</time>
      </trkpt>
      <trkpt lat="49.5859" lon="3.4334">
        <ele>166.7</ele>
        <time>2025-10-05T10:19:05.000Z</time>
      </trkpt>
      <trkpt lat="49.5859" lon="3.4334">
        <ele>166.2</ele>
        <time>2025-10-05T10:19:06.000Z</time>
      </trkpt>
      <trkpt lat="49.58589" lon="3.43341">
        <ele>165.8</ele>
        <time>2025-10-05T10:19:07.000Z</time>
      </trkpt>
      <trkpt lat="49.58589" lon="3.43342">
        <ele>165.7</ele>
        <time>2025-10-05T10:19:08.000Z</time>
      </trkpt>
      <trkpt lat="49.58589" lon="3.43343">
        <ele>165.5</ele>
        <time>2025-10-05T10:19:09.000Z</time>
      </trkpt>
      <trkpt lat="49.58589" lon="3.43345">
        <ele>165.4</ele>
        <time>2025-10-05T10:19:10.000Z</time>
      </trkpt>
      <trkpt lat="49.58589" lon="3.43347">
        <ele>165.4</ele>
        <time>2025-10-05T10:19:11.000Z</time>
      </trkpt>
      <trkpt lat="49.58588" lon="3.43348">
        <ele>165.3</ele>
        <time>2025-10-05T10:19:12.000Z</time>
      </trkpt>
      <trkpt lat="49.58588" lon="3.43349">
        <ele>165</ele>
        <time>2025-10-05T10:19:13.000Z</time>
      </trkpt>
      <trkpt lat="49.58588" lon="3.4335">
        <ele>164.8</ele>
        <time>2025-10-05T10:19:14.000Z</time>
      </trkpt>
      <trkpt lat="49.58588" lon="3.43351">
        <ele>164.5</ele>
        <time>2025-10-05T10:19:15.000Z</time>
      </trkpt>
      <trkpt lat="49.58588" lon="3.43352">
        <ele>164.1</ele>
        <time>2025-10-05T10:19:16.000Z</time>
      </trkpt>
      <trkpt lat="49.58588" lon="3.43353">
        <ele>163.8</ele>
        <time>2025-10-05T10:19:17.000Z</time>
      </trkpt>
      <trkpt lat="49.58588" lon="3.43355">
        <ele>163.8</ele>
        <time>2025-10-05T10:19:18.000Z</time>
      </trkpt>
      <trkpt lat="49.58588" lon="3.43356">
        <ele>163.6</ele>
        <time>2025-10-05T10:19:19.000Z</time>
      </trkpt>
      <trkpt lat="49.58588" lon="3.43357">
        <ele>163.5</ele>
        <time>2025-10-05T10:19:20.000Z</time>
      </trkpt>
      <trkpt lat="49.58587" lon="3.43359">
        <ele>163.4</ele>
        <time>2025-10-05T10:19:21.000Z</time>
      </trkpt>
      <trkpt lat="49.58587" lon="3.43359">
        <ele>163.2</ele>
        <time>2025-10-05T10:19:22.000Z</time>
      </trkpt>
      <trkpt lat="49.58587" lon="3.4336">
        <ele>163</ele>
        <time>2025-10-05T10:19:23.000Z</time>
      </trkpt>
      <trkpt lat="49.58587" lon="3.43361">
        <ele>163.1</ele>
        <time>2025-10-05T10:19:24.000Z</time>
      </trkpt>
      <trkpt lat="49.58587" lon="3.43362">
        <ele>163.1</ele>
        <time>2025-10-05T10:19:25.000Z</time>
      </trkpt>
      <trkpt lat="49.58586" lon="3.43364">
        <ele>163.1</ele>
        <time>2025-10-05T10:19:26.000Z</time>
      </trkpt>
      <trkpt lat="49.58587" lon="3.43366">
        <ele>163.1</ele>
        <time>2025-10-05T10:19:27.000Z</time>
      </trkpt>
      <trkpt lat="49.58586" lon="3.43367">
        <ele>162.8</ele>
        <time>2025-10-05T10:19:28.000Z</time>
      </trkpt>
      <trkpt lat="49.58586" lon="3.43368">
        <ele>162.7</ele>
        <time>2025-10-05T10:19:29.000Z</time>
      </trkpt>
      <trkpt lat="49.58586" lon="3.4337">
        <ele>162.7</ele>
        <time>2025-10-05T10:19:30.000Z</time>
      </trkpt>
      <trkpt lat="49.58586" lon="3.43371">
        <ele>162.6</ele>
        <time>2025-10-05T10:19:31.000Z</time>
      </trkpt>
      <trkpt lat="49.58586" lon="3.43372">
        <ele>162.6</ele>
        <time>2025-10-05T10:19:32.000Z</time>
      </trkpt>
      <trkpt lat="49.58586" lon="3.43373">
        <ele>162.4</ele>
        <time>2025-10-05T10:19:33.000Z</time>
      </trkpt>
      <trkpt lat="49.58585" lon="3.43374">
        <ele>162.4</ele>
        <time>2025-10-05T10:19:34.000Z</time>
      </trkpt>
      <trkpt lat="49.58585" lon="3.43376">
        <ele>162.3</ele>
        <time>2025-10-05T10:19:35.000Z</time>
      </trkpt>
      <trkpt lat="49.58584" lon="3.43377">
        <ele>162.2</ele>
        <time>2025-10-05T10:19:36.000Z</time>
      </trkpt>
      <trkpt lat="49.58584" lon="3.43379">
        <ele>162.1</ele>
        <time>2025-10-05T10:19:37.000Z</time>
      </trkpt>
      <trkpt lat="49.58584" lon="3.43379">
        <ele>161.8</ele>
        <time>2025-10-05T10:19:38.000Z</time>
      </trkpt>
      <trkpt lat="49.58583" lon="3.43381">
        <ele>161.2</ele>
        <time>2025-10-05T10:19:39.000Z</time>
      </trkpt>
      <trkpt lat="49.58583" lon="3.43382">
        <ele>161</ele>
        <time>2025-10-05T10:19:40.000Z</time>
      </trkpt>
      <trkpt lat="49.58583" lon="3.43383">
        <ele>161.1</ele>
        <time>2025-10-05T10:19:41.000Z</time>
      </trkpt>
      <trkpt lat="49.58583" lon="3.43385">
        <ele>161</ele>
        <time>2025-10-05T10:19:42.000Z</time>
      </trkpt>
      <trkpt lat="49.58583" lon="3.43386">
        <ele>160.9</ele>
        <time>2025-10-05T10:19:43.000Z</time>
      </trkpt>
      <trkpt lat="49.58582" lon="3.43388">
        <ele>160.8</ele>
        <time>2025-10-05T10:19:44.000Z</time>
      </trkpt>
      <trkpt lat="49.58582" lon="3.4339">
        <ele>160.7</ele>
        <time>2025-10-05T10:19:45.000Z</time>
      </trkpt>
      <trkpt lat="49.58581" lon="3.43392">
        <ele>160.2</ele>
        <time>2025-10-05T10:19:46.000Z</time>
      </trkpt>
      <trkpt lat="49.58581" lon="3.43394">
        <ele>160</ele>
        <time>2025-10-05T10:19:47.000Z</time>
      </trkpt>
      <trkpt lat="49.5858" lon="3.43396">
        <ele>159.7</ele>
        <time>2025-10-05T10:19:48.000Z</time>
      </trkpt>
      <trkpt lat="49.5858" lon="3.43397">
        <ele>159.7</ele>
        <time>2025-10-05T10:19:49.000Z</time>
      </trkpt>
      <trkpt lat="49.5858" lon="3.43398">
        <ele>159.5</ele>
        <time>2025-10-05T10:19:50.000Z</time>
      </trkpt>
      <trkpt lat="49.5858" lon="3.43399">
        <ele>159.3</ele>
        <time>2025-10-05T10:19:51.000Z</time>
      </trkpt>
      <trkpt lat="49.5858" lon="3.434">
        <ele>159</ele>
        <time>2025-10-05T10:19:52.000Z</time>
      </trkpt>
      <trkpt lat="49.58579" lon="3.43402">
        <ele>158.7</ele>
        <time>2025-10-05T10:19:53.000Z</time>
      </trkpt>
      <trkpt lat="49.58579" lon="3.43403">
        <ele>158.4</ele>
        <time>2025-10-05T10:19:54.000Z</time>
      </trkpt>
      <trkpt lat="49.58579" lon="3.43405">
        <ele>158</ele>
        <time>2025-10-05T10:19:55.000Z</time>
      </trkpt>
      <trkpt lat="49.58579" lon="3.43407">
        <ele>157.6</ele>
        <time>2025-10-05T10:19:56.000Z</time>
      </trkpt>
      <trkpt lat="49.58579" lon="3.43409">
        <ele>157.1</ele>
        <time>2025-10-05T10:19:57.000Z</time>
      </trkpt>
      <trkpt lat="49.58578" lon="3.4341">
        <ele>156.9</ele>
        <time>2025-10-05T10:19:58.000Z</time>
      </trkpt>
      <trkpt lat="49.58578" lon="3.43411">
        <ele>156.7</ele>
        <time>2025-10-05T10:19:59.000Z</time>
      </trkpt>
      <trkpt lat="49.58578" lon="3.43412">
        <ele>156.5</ele>
        <time>2025-10-05T10:20:00.000Z</time>
      </trkpt>
      <trkpt lat="49.58578" lon="3.43413">
        <ele>156.5</ele>
        <time>2025-10-05T10:20:01.000Z</time>
      </trkpt>
      <trkpt lat="49.58578" lon="3.43415">
        <ele>156.6</ele>
        <time>2025-10-05T10:20:02.000Z</time>
      </trkpt>
      <trkpt lat="49.58578" lon="3.43416">
        <ele>156.7</ele>
        <time>2025-10-05T10:20:03.000Z</time>
      </trkpt>
      <trkpt lat="49.58578" lon="3.43417">
        <ele>156.7</ele>
        <time>2025-10-05T10:20:04.000Z</time>
      </trkpt>
      <trkpt lat="49.58579" lon="3.43418">
        <ele>156.6</ele>
        <time>2025-10-05T10:20:05.000Z</time>
      </trkpt>
      <trkpt lat="49.58579" lon="3.43418">
        <ele>156.7</ele>
        <time>2025-10-05T10:20:06.000Z</time>
      </trkpt>
      <trkpt lat="49.5858" lon="3.43418">
        <ele>156.8</ele>
        <time>2025-10-05T10:20:07.000Z</time>
      </trkpt>
      <trkpt lat="49.58581" lon="3.43418">
        <ele>156.7</ele>
        <time>2025-10-05T10:20:08.000Z</time>
      </trkpt>
      <trkpt lat="49.58581" lon="3.43418">
        <ele>156.7</ele>
        <time>2025-10-05T10:20:09.000Z</time>
      </trkpt>
      <trkpt lat="49.58582" lon="3.43417">
        <ele>156.7</ele>
        <time>2025-10-05T10:20:10.000Z</time>
      </trkpt>
      <trkpt lat="49.58582" lon="3.43418">
        <ele>156.7</ele>
        <time>2025-10-05T10:20:11.000Z</time>
      </trkpt>
      <trkpt lat="49.58583" lon="3.43418">
        <ele>156.4</ele>
        <time>2025-10-05T10:20:12.000Z</time>
      </trkpt>
      <trkpt lat="49.58583" lon="3.43418">
        <ele>156.2</ele>
        <time>2025-10-05T10:20:13.000Z</time>
      </trkpt>
      <trkpt lat="49.58583" lon="3.43417">
        <ele>156.2</ele>
        <time>2025-10-05T10:20:14.000Z</time>
      </trkpt>
      <trkpt lat="49.58583" lon="3.43417">
        <ele>156.3</ele>
        <time>2025-10-05T10:20:15.000Z</time>
      </trkpt>
      <trkpt lat="49.58583" lon="3.43417">
        <ele>156.4</ele>
        <time>2025-10-05T10:20:16.000Z</time>
      </trkpt>
      <trkpt lat="49.58583" lon="3.43417">
        <ele>156.4</ele>
        <time>2025-10-05T10:20:17.000Z</time>
      </trkpt>
      <trkpt lat="49.58582" lon="3.43417">
        <ele>156.5</ele>
        <time>2025-10-05T10:20:18.000Z</time>
      </trkpt>
      <trkpt lat="49.58582" lon="3.43417">
        <ele>156.5</ele>
        <time>2025-10-05T10:20:19.000Z</time>
      </trkpt>
      <trkpt lat="49.58583" lon="3.43417">
        <ele>156.5</ele>
        <time>2025-10-05T10:20:20.000Z</time>
      </trkpt>
      <trkpt lat="49.58583" lon="3.43417">
        <ele>156.6</ele>
        <time>2025-10-05T10:20:21.000Z</time>
      </trkpt>
      <trkpt lat="49.58583" lon="3.43417">
        <ele>156.7</ele>
        <time>2025-10-05T10:20:22.000Z</time>
      </trkpt>
      <trkpt lat="49.58583" lon="3.43417">
        <ele>156.7</ele>
        <time>2025-10-05T10:20:23.000Z</time>
      </trkpt>
      <trkpt lat="49.58583" lon="3.43417">
        <ele>156.7</ele>
        <time>2025-10-05T10:20:24.000Z</time>
      </trkpt>
      <trkpt lat="49.58583" lon="3.43417">
        <ele>156.7</ele>
        <time>2025-10-05T10:20:25.000Z</time>
      </trkpt>
      <trkpt lat="49.58583" lon="3.43417">
        <ele>156.7</ele>
        <time>2025-10-05T10:20:26.000Z</time>
      </trkpt>
      <trkpt lat="49.58583" lon="3.43417">
        <ele>156.7</ele>
        <time>2025-10-05T10:20:27.000Z</time>
      </trkpt>
      <trkpt lat="49.58586" lon="3.43417">
        <ele>157.2</ele>
        <time>2025-10-05T10:20:28.000Z</time>
      </trkpt>
      <trkpt lat="49.58586" lon="3.43417">
        <ele>157.3</ele>
        <time>2025-10-05T10:20:29.000Z</time>
      </trkpt>
      <trkpt lat="49.58587" lon="3.43417">
        <ele>157.4</ele>
        <time>2025-10-05T10:20:30.000Z</time>
      </trkpt>
      <trkpt lat="49.58588" lon="3.43418">
        <ele>157.5</ele>
        <time>2025-10-05T10:20:31.000Z</time>
      </trkpt>
      <trkpt lat="49.58589" lon="3.43418">
        <ele>157.5</ele>
        <time>2025-10-05T10:20:32.000Z</time>
      </trkpt>
      <trkpt lat="49.5859" lon="3.43418">
        <ele>157.5</ele>
        <time>2025-10-05T10:20:33.000Z</time>
      </trkpt>
      <trkpt lat="49.5859" lon="3.43419">
        <ele>157.8</ele>
        <time>2025-10-05T10:20:34.000Z</time>
      </trkpt>
      <trkpt lat="49.58591" lon="3.4342">
        <ele>157.9</ele>
        <time>2025-10-05T10:20:35.000Z</time>
      </trkpt>
      <trkpt lat="49.58592" lon="3.4342">
        <ele>157.6</ele>
        <time>2025-10-05T10:20:36.000Z</time>
      </trkpt>
      <trkpt lat="49.58593" lon="3.4342">
        <ele>157.3</ele>
        <time>2025-10-05T10:20:37.000Z</time>
      </trkpt>
      <trkpt lat="49.58594" lon="3.43418">
        <ele>157</ele>
        <time>2025-10-05T10:20:38.000Z</time>
      </trkpt>
      <trkpt lat="49.58596" lon="3.43417">
        <ele>156.9</ele>
        <time>2025-10-05T10:20:39.000Z</time>
      </trkpt>
      <trkpt lat="49.58597" lon="3.43416">
        <ele>156.8</ele>
        <time>2025-10-05T10:20:40.000Z</time>
      </trkpt>
      <trkpt lat="49.58598" lon="3.43416">
        <ele>156.7</ele>
        <time>2025-10-05T10:20:41.000Z</time>
      </trkpt>
      <trkpt lat="49.58599" lon="3.43416">
        <ele>156.8</ele>
        <time>2025-10-05T10:20:42.000Z</time>
      </trkpt>
      <trkpt lat="49.58601" lon="3.43417">
        <ele>156.8</ele>
        <time>2025-10-05T10:20:43.000Z</time>
      </trkpt>
      <trkpt lat="49.58602" lon="3.43417">
        <ele>157.1</ele>
        <time>2025-10-05T10:20:44.000Z</time>
      </trkpt>
      <trkpt lat="49.58603" lon="3.43417">
        <ele>157</ele>
        <time>2025-10-05T10:20:45.000Z</time>
      </trkpt>
      <trkpt lat="49.58604" lon="3.43417">
        <ele>156.9</ele>
        <time>2025-10-05T10:20:46.000Z</time>
      </trkpt>
      <trkpt lat="49.58606" lon="3.43417">
        <ele>156.8</ele>
        <time>2025-10-05T10:20:47.000Z</time>
      </trkpt>
      <trkpt lat="49.58607" lon="3.43417">
        <ele>156.6</ele>
        <time>2025-10-05T10:20:48.000Z</time>
      </trkpt>
      <trkpt lat="49.58608" lon="3.43417">
        <ele>156.5</ele>
        <time>2025-10-05T10:20:49.000Z</time>
      </trkpt>
      <trkpt lat="49.5861" lon="3.43418">
        <ele>156.4</ele>
        <time>2025-10-05T10:20:50.000Z</time>
      </trkpt>
      <trkpt lat="49.58611" lon="3.43418">
        <ele>156.5</ele>
        <time>2025-10-05T10:20:51.000Z</time>
      </trkpt>
      <trkpt lat="49.58612" lon="3.43418">
        <ele>156.4</ele>
        <time>2025-10-05T10:20:52.000Z</time>
      </trkpt>
      <trkpt lat="49.58614" lon="3.43418">
        <ele>156</ele>
        <time>2025-10-05T10:20:53.000Z</time>
      </trkpt>
      <trkpt lat="49.58616" lon="3.43418">
        <ele>155.8</ele>
        <time>2025-10-05T10:20:54.000Z</time>
      </trkpt>
      <trkpt lat="49.58617" lon="3.43418">
        <ele>155.8</ele>
        <time>2025-10-05T10:20:55.000Z</time>
      </trkpt>
      <trkpt lat="49.58618" lon="3.43418">
        <ele>156</ele>
        <time>2025-10-05T10:20:56.000Z</time>
      </trkpt>
      <trkpt lat="49.5862" lon="3.43418">
        <ele>156</ele>
        <time>2025-10-05T10:20:57.000Z</time>
      </trkpt>
      <trkpt lat="49.58622" lon="3.43418">
        <ele>156</ele>
        <time>2025-10-05T10:20:58.000Z</time>
      </trkpt>
      <trkpt lat="49.58624" lon="3.43419">
        <ele>155.8</ele>
        <time>2025-10-05T10:20:59.000Z</time>
      </trkpt>
      <trkpt lat="49.58625" lon="3.43419">
        <ele>155.7</ele>
        <time>2025-10-05T10:21:00.000Z</time>
      </trkpt>
      <trkpt lat="49.58626" lon="3.43419">
        <ele>155.6</ele>
        <time>2025-10-05T10:21:01.000Z</time>
      </trkpt>
      <trkpt lat="49.58628" lon="3.43419">
        <ele>155.3</ele>
        <time>2025-10-05T10:21:02.000Z</time>
      </trkpt>
      <trkpt lat="49.58629" lon="3.43419">
        <ele>155.1</ele>
        <time>2025-10-05T10:21:03.000Z</time>
      </trkpt>
      <trkpt lat="49.5863" lon="3.43419">
        <ele>155</ele>
        <time>2025-10-05T10:21:04.000Z</time>
      </trkpt>
      <trkpt lat="49.58632" lon="3.4342">
        <ele>155.2</ele>
        <time>2025-10-05T10:21:05.000Z</time>
      </trkpt>
      <trkpt lat="49.58633" lon="3.4342">
        <ele>155.1</ele>
        <time>2025-10-05T10:21:06.000Z</time>
      </trkpt>
      <trkpt lat="49.58634" lon="3.4342">
        <ele>155.4</ele>
        <time>2025-10-05T10:21:07.000Z</time>
      </trkpt>
      <trkpt lat="49.58635" lon="3.43421">
        <ele>155.6</ele>
        <time>2025-10-05T10:21:08.000Z</time>
      </trkpt>
      <trkpt lat="49.58636" lon="3.4342">
        <ele>156</ele>
        <time>2025-10-05T10:21:09.000Z</time>
      </trkpt>
      <trkpt lat="49.58636" lon="3.4342">
        <ele>156</ele>
        <time>2025-10-05T10:21:10.000Z</time>
      </trkpt>
      <trkpt lat="49.58637" lon="3.4342">
        <ele>156.2</ele>
        <time>2025-10-05T10:21:11.000Z</time>
      </trkpt>
      <trkpt lat="49.58639" lon="3.4342">
        <ele>156.4</ele>
        <time>2025-10-05T10:21:12.000Z</time>
      </trkpt>
      <trkpt lat="49.5864" lon="3.4342">
        <ele>156.3</ele>
        <time>2025-10-05T10:21:13.000Z</time>
      </trkpt>
      <trkpt lat="49.58641" lon="3.4342">
        <ele>156.4</ele>
        <time>2025-10-05T10:21:14.000Z</time>
      </trkpt>
      <trkpt lat="49.58642" lon="3.4342">
        <ele>156.3</ele>
        <time>2025-10-05T10:21:15.000Z</time>
      </trkpt>
      <trkpt lat="49.58643" lon="3.4342">
        <ele>156</ele>
        <time>2025-10-05T10:21:16.000Z</time>
      </trkpt>
      <trkpt lat="49.58645" lon="3.4342">
        <ele>155.8</ele>
        <time>2025-10-05T10:21:17.000Z</time>
      </trkpt>
      <trkpt lat="49.58646" lon="3.43419">
        <ele>155.7</ele>
        <time>2025-10-05T10:21:18.000Z</time>
      </trkpt>
      <trkpt lat="49.58648" lon="3.43419">
        <ele>155.6</ele>
        <time>2025-10-05T10:21:19.000Z</time>
      </trkpt>
      <trkpt lat="49.58649" lon="3.43418">
        <ele>155.7</ele>
        <time>2025-10-05T10:21:20.000Z</time>
      </trkpt>
      <trkpt lat="49.5865" lon="3.43418">
        <ele>155.7</ele>
        <time>2025-10-05T10:21:21.000Z</time>
      </trkpt>
      <trkpt lat="49.58651" lon="3.43418">
        <ele>155.6</ele>
        <time>2025-10-05T10:21:22.000Z</time>
      </trkpt>
      <trkpt lat="49.58653" lon="3.43419">
        <ele>155.4</ele>
        <time>2025-10-05T10:21:23.000Z</time>
      </trkpt>
      <trkpt lat="49.58655" lon="3.4342">
        <ele>155.2</ele>
        <time>2025-10-05T10:21:24.000Z</time>
      </trkpt>
      <trkpt lat="49.58658" lon="3.4342">
        <ele>155.4</ele>
        <time>2025-10-05T10:21:25.000Z</time>
      </trkpt>
      <trkpt lat="49.5866" lon="3.43421">
        <ele>155.3</ele>
        <time>2025-10-05T10:21:26.000Z</time>
      </trkpt>
      <trkpt lat="49.58662" lon="3.4342">
        <ele>155</ele>
        <time>2025-10-05T10:21:27.000Z</time>
      </trkpt>
      <trkpt lat="49.58663" lon="3.4342">
        <ele>154.6</ele>
        <time>2025-10-05T10:21:28.000Z</time>
      </trkpt>
      <trkpt lat="49.58664" lon="3.4342">
        <ele>154.6</ele>
        <time>2025-10-05T10:21:29.000Z</time>
      </trkpt>
      <trkpt lat="49.58666" lon="3.4342">
        <ele>154.7</ele>
        <time>2025-10-05T10:21:30.000Z</time>
      </trkpt>
      <trkpt lat="49.58667" lon="3.43421">
        <ele>154.6</ele>
        <time>2025-10-05T10:21:31.000Z</time>
      </trkpt>
      <trkpt lat="49.58668" lon="3.43421">
        <ele>154.7</ele>
        <time>2025-10-05T10:21:32.000Z</time>
      </trkpt>
      <trkpt lat="49.58669" lon="3.43421">
        <ele>154.7</ele>
        <time>2025-10-05T10:21:33.000Z</time>
      </trkpt>
      <trkpt lat="49.58671" lon="3.43421">
        <ele>154.6</ele>
        <time>2025-10-05T10:21:34.000Z</time>
      </trkpt>
      <trkpt lat="49.58672" lon="3.43421">
        <ele>154.8</ele>
        <time>2025-10-05T10:21:35.000Z</time>
      </trkpt>
      <trkpt lat="49.58673" lon="3.4342">
        <ele>154.6</ele>
        <time>2025-10-05T10:21:36.000Z</time>
      </trkpt>
      <trkpt lat="49.58675" lon="3.4342">
        <ele>154.6</ele>
        <time>2025-10-05T10:21:37.000Z</time>
      </trkpt>
      <trkpt lat="49.58676" lon="3.43419">
        <ele>154.8</ele>
        <time>2025-10-05T10:21:38.000Z</time>
      </trkpt>
      <trkpt lat="49.58677" lon="3.43419">
        <ele>154.4</ele>
        <time>2025-10-05T10:21:39.000Z</time>
      </trkpt>
      <trkpt lat="49.58678" lon="3.43417">
        <ele>154.2</ele>
        <time>2025-10-05T10:21:40.000Z</time>
      </trkpt>
      <trkpt lat="49.58679" lon="3.43417">
        <ele>154.4</ele>
        <time>2025-10-05T10:21:41.000Z</time>
      </trkpt>
      <trkpt lat="49.5868" lon="3.43417">
        <ele>154.5</ele>
        <time>2025-10-05T10:21:42.000Z</time>
      </trkpt>
      <trkpt lat="49.5868" lon="3.43417">
        <ele>154.6</ele>
        <time>2025-10-05T10:21:43.000Z</time>
      </trkpt>
      <trkpt lat="49.58681" lon="3.43416">
        <ele>154.7</ele>
        <time>2025-10-05T10:21:44.000Z</time>
      </trkpt>
      <trkpt lat="49.58682" lon="3.43416">
        <ele>154.9</ele>
        <time>2025-10-05T10:21:45.000Z</time>
      </trkpt>
      <trkpt lat="49.58683" lon="3.43416">
        <ele>155.2</ele>
        <time>2025-10-05T10:21:46.000Z</time>
      </trkpt>
      <trkpt lat="49.58685" lon="3.43416">
        <ele>155.7</ele>
        <time>2025-10-05T10:21:47.000Z</time>
      </trkpt>
      <trkpt lat="49.58686" lon="3.43416">
        <ele>155.8</ele>
        <time>2025-10-05T10:21:48.000Z</time>
      </trkpt>
      <trkpt lat="49.58688" lon="3.43415">
        <ele>155.9</ele>
        <time>2025-10-05T10:21:49.000Z</time>
      </trkpt>
      <trkpt lat="49.58689" lon="3.43415">
        <ele>155.8</ele>
        <time>2025-10-05T10:21:50.000Z</time>
      </trkpt>
      <trkpt lat="49.58691" lon="3.43414">
        <ele>155.8</ele>
        <time>2025-10-05T10:21:51.000Z</time>
      </trkpt>
      <trkpt lat="49.58692" lon="3.43414">
        <ele>156</ele>
        <time>2025-10-05T10:21:52.000Z</time>
      </trkpt>
      <trkpt lat="49.58694" lon="3.43414">
        <ele>155.8</ele>
        <time>2025-10-05T10:21:53.000Z</time>
      </trkpt>
      <trkpt lat="49.58696" lon="3.43414">
        <ele>155.6</ele>
        <time>2025-10-05T10:21:54.000Z</time>
      </trkpt>
      <trkpt lat="49.58698" lon="3.43413">
        <ele>155.5</ele>
        <time>2025-10-05T10:21:55.000Z</time>
      </trkpt>
      <trkpt lat="49.587" lon="3.43413">
        <ele>155.4</ele>
        <time>2025-10-05T10:21:56.000Z</time>
      </trkpt>
      <trkpt lat="49.58701" lon="3.43411">
        <ele>155</ele>
        <time>2025-10-05T10:21:57.000Z</time>
      </trkpt>
      <trkpt lat="49.58703" lon="3.4341">
        <ele>154.8</ele>
        <time>2025-10-05T10:21:58.000Z</time>
      </trkpt>
      <trkpt lat="49.58704" lon="3.4341">
        <ele>154.2</ele>
        <time>2025-10-05T10:21:59.000Z</time>
      </trkpt>
      <trkpt lat="49.58705" lon="3.43409">
        <ele>153.5</ele>
        <time>2025-10-05T10:22:00.000Z</time>
      </trkpt>
      <trkpt lat="49.58706" lon="3.43409">
        <ele>153.1</ele>
        <time>2025-10-05T10:22:01.000Z</time>
      </trkpt>
      <trkpt lat="49.58707" lon="3.43408">
        <ele>153.1</ele>
        <time>2025-10-05T10:22:02.000Z</time>
      </trkpt>
      <trkpt lat="49.58708" lon="3.43408">
        <ele>152.8</ele>
        <time>2025-10-05T10:22:03.000Z</time>
      </trkpt>
      <trkpt lat="49.58709" lon="3.43408">
        <ele>152.8</ele>
        <time>2025-10-05T10:22:04.000Z</time>
      </trkpt>
      <trkpt lat="49.58711" lon="3.43407">
        <ele>152.7</ele>
        <time>2025-10-05T10:22:05.000Z</time>
      </trkpt>
      <trkpt lat="49.58712" lon="3.43407">
        <ele>152.6</ele>
        <time>2025-10-05T10:22:06.000Z</time>
      </trkpt>
      <trkpt lat="49.58713" lon="3.43407">
        <ele>152.8</ele>
        <time>2025-10-05T10:22:07.000Z</time>
      </trkpt>
      <trkpt lat="49.58714" lon="3.43406">
        <ele>152.8</ele>
        <time>2025-10-05T10:22:08.000Z</time>
      </trkpt>
      <trkpt lat="49.58715" lon="3.43406">
        <ele>152.9</ele>
        <time>2025-10-05T10:22:09.000Z</time>
      </trkpt>
      <trkpt lat="49.58717" lon="3.43405">
        <ele>153</ele>
        <time>2025-10-05T10:22:10.000Z</time>
      </trkpt>
      <trkpt lat="49.58718" lon="3.43404">
        <ele>153.1</ele>
        <time>2025-10-05T10:22:11.000Z</time>
      </trkpt>
      <trkpt lat="49.58719" lon="3.43404">
        <ele>153.3</ele>
        <time>2025-10-05T10:22:12.000Z</time>
      </trkpt>
      <trkpt lat="49.5872" lon="3.43403">
        <ele>153.4</ele>
        <time>2025-10-05T10:22:13.000Z</time>
      </trkpt>
      <trkpt lat="49.58721" lon="3.43402">
        <ele>153.4</ele>
        <time>2025-10-05T10:22:14.000Z</time>
      </trkpt>
      <trkpt lat="49.58723" lon="3.43401">
        <ele>153.3</ele>
        <time>2025-10-05T10:22:15.000Z</time>
      </trkpt>
      <trkpt lat="49.58724" lon="3.43401">
        <ele>153.4</ele>
        <time>2025-10-05T10:22:16.000Z</time>
      </trkpt>
      <trkpt lat="49.58725" lon="3.434">
        <ele>153.6</ele>
        <time>2025-10-05T10:22:17.000Z</time>
      </trkpt>
      <trkpt lat="49.58726" lon="3.43399">
        <ele>153.9</ele>
        <time>2025-10-05T10:22:18.000Z</time>
      </trkpt>
      <trkpt lat="49.58727" lon="3.43399">
        <ele>154.4</ele>
        <time>2025-10-05T10:22:19.000Z</time>
      </trkpt>
      <trkpt lat="49.58728" lon="3.43398">
        <ele>154.5</ele>
        <time>2025-10-05T10:22:20.000Z</time>
      </trkpt>
      <trkpt lat="49.58729" lon="3.43397">
        <ele>154.8</ele>
        <time>2025-10-05T10:22:21.000Z</time>
      </trkpt>
      <trkpt lat="49.5873" lon="3.43397">
        <ele>154.6</ele>
        <time>2025-10-05T10:22:22.000Z</time>
      </trkpt>
      <trkpt lat="49.58731" lon="3.43396">
        <ele>154.4</ele>
        <time>2025-10-05T10:22:23.000Z</time>
      </trkpt>
      <trkpt lat="49.58733" lon="3.43395">
        <ele>154</ele>
        <time>2025-10-05T10:22:24.000Z</time>
      </trkpt>
      <trkpt lat="49.58734" lon="3.43394">
        <ele>153.7</ele>
        <time>2025-10-05T10:22:25.000Z</time>
      </trkpt>
      <trkpt lat="49.58735" lon="3.43393">
        <ele>153.8</ele>
        <time>2025-10-05T10:22:26.000Z</time>
      </trkpt>
      <trkpt lat="49.58736" lon="3.43392">
        <ele>153.7</ele>
        <time>2025-10-05T10:22:27.000Z</time>
      </trkpt>
      <trkpt lat="49.58737" lon="3.43391">
        <ele>153.3</ele>
        <time>2025-10-05T10:22:28.000Z</time>
      </trkpt>
      <trkpt lat="49.58738" lon="3.4339">
        <ele>153</ele>
        <time>2025-10-05T10:22:29.000Z</time>
      </trkpt>
      <trkpt lat="49.58739" lon="3.43389">
        <ele>152.8</ele>
        <time>2025-10-05T10:22:30.000Z</time>
      </trkpt>
      <trkpt lat="49.5874" lon="3.43387">
        <ele>152.9</ele>
        <time>2025-10-05T10:22:31.000Z</time>
      </trkpt>
      <trkpt lat="49.58741" lon="3.43385">
        <ele>152.9</ele>
        <time>2025-10-05T10:22:32.000Z</time>
      </trkpt>
      <trkpt lat="49.58742" lon="3.43385">
        <ele>152.8</ele>
        <time>2025-10-05T10:22:33.000Z</time>
      </trkpt>
      <trkpt lat="49.58743" lon="3.43383">
        <ele>153.1</ele>
        <time>2025-10-05T10:22:34.000Z</time>
      </trkpt>
      <trkpt lat="49.58744" lon="3.43382">
        <ele>152.9</ele>
        <time>2025-10-05T10:22:35.000Z</time>
      </trkpt>
      <trkpt lat="49.58745" lon="3.43382">
        <ele>152.4</ele>
        <time>2025-10-05T10:22:36.000Z</time>
      </trkpt>
      <trkpt lat="49.58746" lon="3.43381">
        <ele>152</ele>
        <time>2025-10-05T10:22:37.000Z</time>
      </trkpt>
      <trkpt lat="49.58747" lon="3.4338">
        <ele>151.6</ele>
        <time>2025-10-05T10:22:38.000Z</time>
      </trkpt>
      <trkpt lat="49.58747" lon="3.43379">
        <ele>151.3</ele>
        <time>2025-10-05T10:22:39.000Z</time>
      </trkpt>
      <trkpt lat="49.58748" lon="3.43378">
        <ele>151.3</ele>
        <time>2025-10-05T10:22:40.000Z</time>
      </trkpt>
      <trkpt lat="49.58749" lon="3.43377">
        <ele>151.3</ele>
        <time>2025-10-05T10:22:41.000Z</time>
      </trkpt>
      <trkpt lat="49.5875" lon="3.43376">
        <ele>151.3</ele>
        <time>2025-10-05T10:22:42.000Z</time>
      </trkpt>
      <trkpt lat="49.58751" lon="3.43375">
        <ele>151.1</ele>
        <time>2025-10-05T10:22:43.000Z</time>
      </trkpt>
      <trkpt lat="49.58751" lon="3.43374">
        <ele>151</ele>
        <time>2025-10-05T10:22:44.000Z</time>
      </trkpt>
      <trkpt lat="49.58752" lon="3.43373">
        <ele>151</ele>
        <time>2025-10-05T10:22:45.000Z</time>
      </trkpt>
      <trkpt lat="49.58753" lon="3.43372">
        <ele>151.1</ele>
        <time>2025-10-05T10:22:46.000Z</time>
      </trkpt>
      <trkpt lat="49.58754" lon="3.43371">
        <ele>151</ele>
        <time>2025-10-05T10:22:47.000Z</time>
      </trkpt>
      <trkpt lat="49.58755" lon="3.4337">
        <ele>150.9</ele>
        <time>2025-10-05T10:22:48.000Z</time>
      </trkpt>
      <trkpt lat="49.58757" lon="3.43368">
        <ele>150.8</ele>
        <time>2025-10-05T10:22:49.000Z</time>
      </trkpt>
      <trkpt lat="49.58758" lon="3.43367">
        <ele>150.8</ele>
        <time>2025-10-05T10:22:50.000Z</time>
      </trkpt>
      <trkpt lat="49.58759" lon="3.43366">
        <ele>150.7</ele>
        <time>2025-10-05T10:22:51.000Z</time>
      </trkpt>
      <trkpt lat="49.5876" lon="3.43365">
        <ele>150.7</ele>
        <time>2025-10-05T10:22:52.000Z</time>
      </trkpt>
      <trkpt lat="49.58761" lon="3.43364">
        <ele>150.7</ele>
        <time>2025-10-05T10:22:53.000Z</time>
      </trkpt>
      <trkpt lat="49.58762" lon="3.43363">
        <ele>150.8</ele>
        <time>2025-10-05T10:22:54.000Z</time>
      </trkpt>
      <trkpt lat="49.58763" lon="3.43363">
        <ele>150.7</ele>
        <time>2025-10-05T10:22:55.000Z</time>
      </trkpt>
      <trkpt lat="49.58764" lon="3.43362">
        <ele>150.6</ele>
        <time>2025-10-05T10:22:56.000Z</time>
      </trkpt>
      <trkpt lat="49.58765" lon="3.43361">
        <ele>150.6</ele>
        <time>2025-10-05T10:22:57.000Z</time>
      </trkpt>
      <trkpt lat="49.58766" lon="3.43359">
        <ele>151.1</ele>
        <time>2025-10-05T10:22:58.000Z</time>
      </trkpt>
      <trkpt lat="49.58767" lon="3.43358">
        <ele>151.3</ele>
        <time>2025-10-05T10:22:59.000Z</time>
      </trkpt>
      <trkpt lat="49.58768" lon="3.43357">
        <ele>151.4</ele>
        <time>2025-10-05T10:23:00.000Z</time>
      </trkpt>
      <trkpt lat="49.58769" lon="3.43356">
        <ele>151.6</ele>
        <time>2025-10-05T10:23:01.000Z</time>
      </trkpt>
      <trkpt lat="49.5877" lon="3.43355">
        <ele>151.6</ele>
        <time>2025-10-05T10:23:02.000Z</time>
      </trkpt>
      <trkpt lat="49.58771" lon="3.43354">
        <ele>151.8</ele>
        <time>2025-10-05T10:23:03.000Z</time>
      </trkpt>
      <trkpt lat="49.58772" lon="3.43352">
        <ele>151.5</ele>
        <time>2025-10-05T10:23:04.000Z</time>
      </trkpt>
      <trkpt lat="49.58773" lon="3.43351">
        <ele>151.4</ele>
        <time>2025-10-05T10:23:05.000Z</time>
      </trkpt>
      <trkpt lat="49.58773" lon="3.4335">
        <ele>151.4</ele>
        <time>2025-10-05T10:23:06.000Z</time>
      </trkpt>
      <trkpt lat="49.58774" lon="3.43349">
        <ele>151.4</ele>
        <time>2025-10-05T10:23:07.000Z</time>
      </trkpt>
      <trkpt lat="49.58775" lon="3.43348">
        <ele>151.5</ele>
        <time>2025-10-05T10:23:08.000Z</time>
      </trkpt>
      <trkpt lat="49.58776" lon="3.43347">
        <ele>151.3</ele>
        <time>2025-10-05T10:23:09.000Z</time>
      </trkpt>
      <trkpt lat="49.58777" lon="3.43346">
        <ele>151.3</ele>
        <time>2025-10-05T10:23:10.000Z</time>
      </trkpt>
      <trkpt lat="49.58777" lon="3.43344">
        <ele>151.6</ele>
        <time>2025-10-05T10:23:11.000Z</time>
      </trkpt>
      <trkpt lat="49.58778" lon="3.43343">
        <ele>151.9</ele>
        <time>2025-10-05T10:23:12.000Z</time>
      </trkpt>
      <trkpt lat="49.5878" lon="3.43343">
        <ele>152.7</ele>
        <time>2025-10-05T10:23:13.000Z</time>
      </trkpt>
      <trkpt lat="49.58781" lon="3.43343">
        <ele>153.5</ele>
        <time>2025-10-05T10:23:14.000Z</time>
      </trkpt>
      <trkpt lat="49.58783" lon="3.43342">
        <ele>154.2</ele>
        <time>2025-10-05T10:23:15.000Z</time>
      </trkpt>
      <trkpt lat="49.58784" lon="3.43342">
        <ele>154.5</ele>
        <time>2025-10-05T10:23:16.000Z</time>
      </trkpt>
      <trkpt lat="49.58784" lon="3.43341">
        <ele>154.4</ele>
        <time>2025-10-05T10:23:17.000Z</time>
      </trkpt>
      <trkpt lat="49.58785" lon="3.4334">
        <ele>154.4</ele>
        <time>2025-10-05T10:23:18.000Z</time>
      </trkpt>
      <trkpt lat="49.58786" lon="3.43339">
        <ele>154.5</ele>
        <time>2025-10-05T10:23:19.000Z</time>
      </trkpt>
      <trkpt lat="49.58787" lon="3.43339">
        <ele>154.4</ele>
        <time>2025-10-05T10:23:20.000Z</time>
      </trkpt>
      <trkpt lat="49.58788" lon="3.43338">
        <ele>154.2</ele>
        <time>2025-10-05T10:23:21.000Z</time>
      </trkpt>
      <trkpt lat="49.58788" lon="3.43337">
        <ele>154.1</ele>
        <time>2025-10-05T10:23:22.000Z</time>
      </trkpt>
      <trkpt lat="49.58789" lon="3.43337">
        <ele>153.9</ele>
        <time>2025-10-05T10:23:23.000Z</time>
      </trkpt>
      <trkpt lat="49.5879" lon="3.43336">
        <ele>153.8</ele>
        <time>2025-10-05T10:23:24.000Z</time>
      </trkpt>
      <trkpt lat="49.58791" lon="3.43335">
        <ele>153.5</ele>
        <time>2025-10-05T10:23:25.000Z</time>
      </trkpt>
      <trkpt lat="49.58793" lon="3.43334">
        <ele>153.2</ele>
        <time>2025-10-05T10:23:26.000Z</time>
      </trkpt>
      <trkpt lat="49.58794" lon="3.43333">
        <ele>152.9</ele>
        <time>2025-10-05T10:23:27.000Z</time>
      </trkpt>
      <trkpt lat="49.58795" lon="3.43332">
        <ele>152.7</ele>
        <time>2025-10-05T10:23:28.000Z</time>
      </trkpt>
      <trkpt lat="49.58796" lon="3.43331">
        <ele>152.5</ele>
        <time>2025-10-05T10:23:29.000Z</time>
      </trkpt>
      <trkpt lat="49.58797" lon="3.4333">
        <ele>152.4</ele>
        <time>2025-10-05T10:23:30.000Z</time>
      </trkpt>
      <trkpt lat="49.58799" lon="3.43329">
        <ele>152.5</ele>
        <time>2025-10-05T10:23:31.000Z</time>
      </trkpt>
      <trkpt lat="49.588" lon="3.43328">
        <ele>152.7</ele>
        <time>2025-10-05T10:23:32.000Z</time>
      </trkpt>
      <trkpt lat="49.58801" lon="3.43327">
        <ele>152.7</ele>
        <time>2025-10-05T10:23:33.000Z</time>
      </trkpt>
      <trkpt lat="49.58802" lon="3.43326">
        <ele>152.9</ele>
        <time>2025-10-05T10:23:34.000Z</time>
      </trkpt>
      <trkpt lat="49.58803" lon="3.43326">
        <ele>152.9</ele>
        <time>2025-10-05T10:23:35.000Z</time>
      </trkpt>
      <trkpt lat="49.58805" lon="3.43324">
        <ele>152.7</ele>
        <time>2025-10-05T10:23:36.000Z</time>
      </trkpt>
      <trkpt lat="49.58806" lon="3.43323">
        <ele>152.3</ele>
        <time>2025-10-05T10:23:37.000Z</time>
      </trkpt>
      <trkpt lat="49.58807" lon="3.43322">
        <ele>152.1</ele>
        <time>2025-10-05T10:23:38.000Z</time>
      </trkpt>
      <trkpt lat="49.58808" lon="3.43321">
        <ele>151.6</ele>
        <time>2025-10-05T10:23:39.000Z</time>
      </trkpt>
      <trkpt lat="49.58809" lon="3.4332">
        <ele>151.4</ele>
        <time>2025-10-05T10:23:40.000Z</time>
      </trkpt>
      <trkpt lat="49.5881" lon="3.4332">
        <ele>151.1</ele>
        <time>2025-10-05T10:23:41.000Z</time>
      </trkpt>
      <trkpt lat="49.58811" lon="3.43319">
        <ele>151</ele>
        <time>2025-10-05T10:23:42.000Z</time>
      </trkpt>
      <trkpt lat="49.58812" lon="3.43317">
        <ele>150.9</ele>
        <time>2025-10-05T10:23:43.000Z</time>
      </trkpt>
      <trkpt lat="49.58813" lon="3.43316">
        <ele>151</ele>
        <time>2025-10-05T10:23:44.000Z</time>
      </trkpt>
      <trkpt lat="49.58814" lon="3.43316">
        <ele>150.6</ele>
        <time>2025-10-05T10:23:45.000Z</time>
      </trkpt>
      <trkpt lat="49.58815" lon="3.43314">
        <ele>150.6</ele>
        <time>2025-10-05T10:23:46.000Z</time>
      </trkpt>
      <trkpt lat="49.58816" lon="3.43314">
        <ele>150.8</ele>
        <time>2025-10-05T10:23:47.000Z</time>
      </trkpt>
      <trkpt lat="49.58817" lon="3.43313">
        <ele>150.8</ele>
        <time>2025-10-05T10:23:48.000Z</time>
      </trkpt>
      <trkpt lat="49.58818" lon="3.43311">
        <ele>151</ele>
        <time>2025-10-05T10:23:49.000Z</time>
      </trkpt>
      <trkpt lat="49.58819" lon="3.4331">
        <ele>151.3</ele>
        <time>2025-10-05T10:23:50.000Z</time>
      </trkpt>
      <trkpt lat="49.5882" lon="3.43309">
        <ele>151.6</ele>
        <time>2025-10-05T10:23:51.000Z</time>
      </trkpt>
      <trkpt lat="49.58821" lon="3.43309">
        <ele>151.9</ele>
        <time>2025-10-05T10:23:52.000Z</time>
      </trkpt>
      <trkpt lat="49.58822" lon="3.43308">
        <ele>151.9</ele>
        <time>2025-10-05T10:23:53.000Z</time>
      </trkpt>
      <trkpt lat="49.58823" lon="3.43307">
        <ele>152</ele>
        <time>2025-10-05T10:23:54.000Z</time>
      </trkpt>
      <trkpt lat="49.58824" lon="3.43306">
        <ele>152.3</ele>
        <time>2025-10-05T10:23:55.000Z</time>
      </trkpt>
      <trkpt lat="49.58825" lon="3.43305">
        <ele>152.5</ele>
        <time>2025-10-05T10:23:56.000Z</time>
      </trkpt>
      <trkpt lat="49.58826" lon="3.43303">
        <ele>152.8</ele>
        <time>2025-10-05T10:23:57.000Z</time>
      </trkpt>
      <trkpt lat="49.58828" lon="3.43303">
        <ele>153.1</ele>
        <time>2025-10-05T10:23:58.000Z</time>
      </trkpt>
      <trkpt lat="49.58829" lon="3.43301">
        <ele>152.9</ele>
        <time>2025-10-05T10:23:59.000Z</time>
      </trkpt>
      <trkpt lat="49.5883" lon="3.43301">
        <ele>152.9</ele>
        <time>2025-10-05T10:24:00.000Z</time>
      </trkpt>
      <trkpt lat="49.58831" lon="3.433">
        <ele>152.6</ele>
        <time>2025-10-05T10:24:01.000Z</time>
      </trkpt>
      <trkpt lat="49.58832" lon="3.43299">
        <ele>152.7</ele>
        <time>2025-10-05T10:24:02.000Z</time>
      </trkpt>
      <trkpt lat="49.58833" lon="3.43298">
        <ele>152.8</ele>
        <time>2025-10-05T10:24:03.000Z</time>
      </trkpt>
      <trkpt lat="49.58834" lon="3.43298">
        <ele>152.7</ele>
        <time>2025-10-05T10:24:04.000Z</time>
      </trkpt>
      <trkpt lat="49.58834" lon="3.43297">
        <ele>152.6</ele>
        <time>2025-10-05T10:24:05.000Z</time>
      </trkpt>
      <trkpt lat="49.58835" lon="3.43296">
        <ele>152.4</ele>
        <time>2025-10-05T10:24:06.000Z</time>
      </trkpt>
      <trkpt lat="49.58836" lon="3.43295">
        <ele>152.3</ele>
        <time>2025-10-05T10:24:07.000Z</time>
      </trkpt>
      <trkpt lat="49.58837" lon="3.43293">
        <ele>152.3</ele>
        <time>2025-10-05T10:24:08.000Z</time>
      </trkpt>
      <trkpt lat="49.58838" lon="3.43291">
        <ele>152.2</ele>
        <time>2025-10-05T10:24:09.000Z</time>
      </trkpt>
      <trkpt lat="49.58838" lon="3.43289">
        <ele>152.2</ele>
        <time>2025-10-05T10:24:10.000Z</time>
      </trkpt>
      <trkpt lat="49.5884" lon="3.43288">
        <ele>151.9</ele>
        <time>2025-10-05T10:24:11.000Z</time>
      </trkpt>
      <trkpt lat="49.58841" lon="3.43287">
        <ele>151.5</ele>
        <time>2025-10-05T10:24:12.000Z</time>
      </trkpt>
      <trkpt lat="49.58842" lon="3.43286">
        <ele>151.2</ele>
        <time>2025-10-05T10:24:13.000Z</time>
      </trkpt>
      <trkpt lat="49.58843" lon="3.43286">
        <ele>150.8</ele>
        <time>2025-10-05T10:24:14.000Z</time>
      </trkpt>
      <trkpt lat="49.58843" lon="3.43286">
        <ele>150.6</ele>
        <time>2025-10-05T10:24:15.000Z</time>
      </trkpt>
      <trkpt lat="49.58844" lon="3.43286">
        <ele>150.5</ele>
        <time>2025-10-05T10:24:16.000Z</time>
      </trkpt>
      <trkpt lat="49.58844" lon="3.43285">
        <ele>150.3</ele>
        <time>2025-10-05T10:24:17.000Z</time>
      </trkpt>
      <trkpt lat="49.58845" lon="3.43284">
        <ele>150.3</ele>
        <time>2025-10-05T10:24:18.000Z</time>
      </trkpt>
      <trkpt lat="49.58845" lon="3.43283">
        <ele>150.3</ele>
        <time>2025-10-05T10:24:19.000Z</time>
      </trkpt>
      <trkpt lat="49.58846" lon="3.43282">
        <ele>150.2</ele>
        <time>2025-10-05T10:24:20.000Z</time>
      </trkpt>
      <trkpt lat="49.58847" lon="3.43281">
        <ele>150.1</ele>
        <time>2025-10-05T10:24:21.000Z</time>
      </trkpt>
      <trkpt lat="49.58847" lon="3.4328">
        <ele>150.1</ele>
        <time>2025-10-05T10:24:22.000Z</time>
      </trkpt>
      <trkpt lat="49.58848" lon="3.43279">
        <ele>150.1</ele>
        <time>2025-10-05T10:24:23.000Z</time>
      </trkpt>
      <trkpt lat="49.58849" lon="3.43278">
        <ele>150.1</ele>
        <time>2025-10-05T10:24:24.000Z</time>
      </trkpt>
      <trkpt lat="49.5885" lon="3.43277">
        <ele>150</ele>
        <time>2025-10-05T10:24:25.000Z</time>
      </trkpt>
      <trkpt lat="49.58851" lon="3.43275">
        <ele>150</ele>
        <time>2025-10-05T10:24:26.000Z</time>
      </trkpt>
      <trkpt lat="49.58852" lon="3.43274">
        <ele>150</ele>
        <time>2025-10-05T10:24:27.000Z</time>
      </trkpt>
      <trkpt lat="49.58853" lon="3.43273">
        <ele>149.8</ele>
        <time>2025-10-05T10:24:28.000Z</time>
      </trkpt>
      <trkpt lat="49.58854" lon="3.43271">
        <ele>149.9</ele>
        <time>2025-10-05T10:24:29.000Z</time>
      </trkpt>
      <trkpt lat="49.58855" lon="3.43269">
        <ele>149.8</ele>
        <time>2025-10-05T10:24:30.000Z</time>
      </trkpt>
      <trkpt lat="49.58856" lon="3.43268">
        <ele>149.7</ele>
        <time>2025-10-05T10:24:31.000Z</time>
      </trkpt>
      <trkpt lat="49.58857" lon="3.43266">
        <ele>149.4</ele>
        <time>2025-10-05T10:24:32.000Z</time>
      </trkpt>
      <trkpt lat="49.58857" lon="3.43265">
        <ele>149.3</ele>
        <time>2025-10-05T10:24:33.000Z</time>
      </trkpt>
      <trkpt lat="49.58858" lon="3.43264">
        <ele>149.2</ele>
        <time>2025-10-05T10:24:34.000Z</time>
      </trkpt>
      <trkpt lat="49.58858" lon="3.43263">
        <ele>149.3</ele>
        <time>2025-10-05T10:24:35.000Z</time>
      </trkpt>
      <trkpt lat="49.5886" lon="3.43262">
        <ele>149.3</ele>
        <time>2025-10-05T10:24:36.000Z</time>
      </trkpt>
      <trkpt lat="49.58861" lon="3.4326">
        <ele>149.6</ele>
        <time>2025-10-05T10:24:37.000Z</time>
      </trkpt>
      <trkpt lat="49.58863" lon="3.43259">
        <ele>149.6</ele>
        <time>2025-10-05T10:24:38.000Z</time>
      </trkpt>
      <trkpt lat="49.58864" lon="3.43257">
        <ele>149.6</ele>
        <time>2025-10-05T10:24:39.000Z</time>
      </trkpt>
      <trkpt lat="49.58865" lon="3.43256">
        <ele>149.5</ele>
        <time>2025-10-05T10:24:40.000Z</time>
      </trkpt>
      <trkpt lat="49.58866" lon="3.43255">
        <ele>149.6</ele>
        <time>2025-10-05T10:24:41.000Z</time>
      </trkpt>
      <trkpt lat="49.58867" lon="3.43253">
        <ele>149.7</ele>
        <time>2025-10-05T10:24:42.000Z</time>
      </trkpt>
      <trkpt lat="49.58868" lon="3.43252">
        <ele>149.8</ele>
        <time>2025-10-05T10:24:43.000Z</time>
      </trkpt>
      <trkpt lat="49.58869" lon="3.4325">
        <ele>149.5</ele>
        <time>2025-10-05T10:24:44.000Z</time>
      </trkpt>
      <trkpt lat="49.58869" lon="3.43248">
        <ele>149.3</ele>
        <time>2025-10-05T10:24:45.000Z</time>
      </trkpt>
      <trkpt lat="49.5887" lon="3.43246">
        <ele>149.6</ele>
        <time>2025-10-05T10:24:46.000Z</time>
      </trkpt>
      <trkpt lat="49.58871" lon="3.43245">
        <ele>150</ele>
        <time>2025-10-05T10:24:47.000Z</time>
      </trkpt>
      <trkpt lat="49.58872" lon="3.43243">
        <ele>150.1</ele>
        <time>2025-10-05T10:24:48.000Z</time>
      </trkpt>
      <trkpt lat="49.58873" lon="3.43241">
        <ele>150</ele>
        <time>2025-10-05T10:24:49.000Z</time>
      </trkpt>
      <trkpt lat="49.58874" lon="3.4324">
        <ele>150.4</ele>
        <time>2025-10-05T10:24:50.000Z</time>
      </trkpt>
      <trkpt lat="49.58874" lon="3.43238">
        <ele>150.7</ele>
        <time>2025-10-05T10:24:51.000Z</time>
      </trkpt>
      <trkpt lat="49.58875" lon="3.43237">
        <ele>151.1</ele>
        <time>2025-10-05T10:24:52.000Z</time>
      </trkpt>
      <trkpt lat="49.58876" lon="3.43235">
        <ele>151.4</ele>
        <time>2025-10-05T10:24:53.000Z</time>
      </trkpt>
      <trkpt lat="49.58877" lon="3.43232">
        <ele>151.9</ele>
        <time>2025-10-05T10:24:54.000Z</time>
      </trkpt>
      <trkpt lat="49.58878" lon="3.4323">
        <ele>152.5</ele>
        <time>2025-10-05T10:24:55.000Z</time>
      </trkpt>
      <trkpt lat="49.58878" lon="3.43228">
        <ele>152.9</ele>
        <time>2025-10-05T10:24:56.000Z</time>
      </trkpt>
      <trkpt lat="49.58879" lon="3.43226">
        <ele>153.4</ele>
        <time>2025-10-05T10:24:57.000Z</time>
      </trkpt>
      <trkpt lat="49.5888" lon="3.43225">
        <ele>153.6</ele>
        <time>2025-10-05T10:24:58.000Z</time>
      </trkpt>
      <trkpt lat="49.58881" lon="3.43225">
        <ele>153.7</ele>
        <time>2025-10-05T10:24:59.000Z</time>
      </trkpt>
      <trkpt lat="49.58882" lon="3.43224">
        <ele>153.8</ele>
        <time>2025-10-05T10:25:00.000Z</time>
      </trkpt>
      <trkpt lat="49.58882" lon="3.43223">
        <ele>154.1</ele>
        <time>2025-10-05T10:25:01.000Z</time>
      </trkpt>
      <trkpt lat="49.58883" lon="3.43221">
        <ele>154.4</ele>
        <time>2025-10-05T10:25:02.000Z</time>
      </trkpt>
      <trkpt lat="49.58884" lon="3.4322">
        <ele>154.5</ele>
        <time>2025-10-05T10:25:03.000Z</time>
      </trkpt>
      <trkpt lat="49.58885" lon="3.43219">
        <ele>154</ele>
        <time>2025-10-05T10:25:04.000Z</time>
      </trkpt>
      <trkpt lat="49.58885" lon="3.43218">
        <ele>153.8</ele>
        <time>2025-10-05T10:25:05.000Z</time>
      </trkpt>
      <trkpt lat="49.58886" lon="3.43216">
        <ele>153.8</ele>
        <time>2025-10-05T10:25:06.000Z</time>
      </trkpt>
      <trkpt lat="49.58887" lon="3.43215">
        <ele>153.3</ele>
        <time>2025-10-05T10:25:07.000Z</time>
      </trkpt>
      <trkpt lat="49.58888" lon="3.43214">
        <ele>153.1</ele>
        <time>2025-10-05T10:25:08.000Z</time>
      </trkpt>
      <trkpt lat="49.58888" lon="3.43213">
        <ele>152.9</ele>
        <time>2025-10-05T10:25:09.000Z</time>
      </trkpt>
      <trkpt lat="49.58889" lon="3.43212">
        <ele>152.6</ele>
        <time>2025-10-05T10:25:10.000Z</time>
      </trkpt>
      <trkpt lat="49.5889" lon="3.43211">
        <ele>152.3</ele>
        <time>2025-10-05T10:25:11.000Z</time>
      </trkpt>
      <trkpt lat="49.5889" lon="3.4321">
        <ele>151.9</ele>
        <time>2025-10-05T10:25:12.000Z</time>
      </trkpt>
      <trkpt lat="49.58891" lon="3.43208">
        <ele>151.8</ele>
        <time>2025-10-05T10:25:13.000Z</time>
      </trkpt>
      <trkpt lat="49.58892" lon="3.43207">
        <ele>151.8</ele>
        <time>2025-10-05T10:25:14.000Z</time>
      </trkpt>
      <trkpt lat="49.58893" lon="3.43206">
        <ele>151.2</ele>
        <time>2025-10-05T10:25:15.000Z</time>
      </trkpt>
      <trkpt lat="49.58894" lon="3.43205">
        <ele>150.8</ele>
        <time>2025-10-05T10:25:16.000Z</time>
      </trkpt>
      <trkpt lat="49.58895" lon="3.43204">
        <ele>150.4</ele>
        <time>2025-10-05T10:25:17.000Z</time>
      </trkpt>
      <trkpt lat="49.58896" lon="3.43203">
        <ele>150.1</ele>
        <time>2025-10-05T10:25:18.000Z</time>
      </trkpt>
      <trkpt lat="49.58897" lon="3.43201">
        <ele>149.8</ele>
        <time>2025-10-05T10:25:19.000Z</time>
      </trkpt>
      <trkpt lat="49.58897" lon="3.432">
        <ele>149.3</ele>
        <time>2025-10-05T10:25:20.000Z</time>
      </trkpt>
      <trkpt lat="49.58898" lon="3.43199">
        <ele>148.8</ele>
        <time>2025-10-05T10:25:21.000Z</time>
      </trkpt>
      <trkpt lat="49.58899" lon="3.43198">
        <ele>148.5</ele>
        <time>2025-10-05T10:25:22.000Z</time>
      </trkpt>
      <trkpt lat="49.589" lon="3.43197">
        <ele>148.2</ele>
        <time>2025-10-05T10:25:23.000Z</time>
      </trkpt>
      <trkpt lat="49.58901" lon="3.43195">
        <ele>148</ele>
        <time>2025-10-05T10:25:24.000Z</time>
      </trkpt>
      <trkpt lat="49.58902" lon="3.43194">
        <ele>147.6</ele>
        <time>2025-10-05T10:25:25.000Z</time>
      </trkpt>
      <trkpt lat="49.58903" lon="3.43193">
        <ele>147.3</ele>
        <time>2025-10-05T10:25:26.000Z</time>
      </trkpt>
      <trkpt lat="49.58903" lon="3.43191">
        <ele>147.2</ele>
        <time>2025-10-05T10:25:27.000Z</time>
      </trkpt>
      <trkpt lat="49.58904" lon="3.4319">
        <ele>147.1</ele>
        <time>2025-10-05T10:25:28.000Z</time>
      </trkpt>
      <trkpt lat="49.58905" lon="3.43188">
        <ele>147</ele>
        <time>2025-10-05T10:25:29.000Z</time>
      </trkpt>
      <trkpt lat="49.58906" lon="3.43186">
        <ele>147</ele>
        <time>2025-10-05T10:25:30.000Z</time>
      </trkpt>
      <trkpt lat="49.58907" lon="3.43185">
        <ele>146.8</ele>
        <time>2025-10-05T10:25:31.000Z</time>
      </trkpt>
      <trkpt lat="49.58908" lon="3.43184">
        <ele>146.4</ele>
        <time>2025-10-05T10:25:32.000Z</time>
      </trkpt>
      <trkpt lat="49.58909" lon="3.43183">
        <ele>145.9</ele>
        <time>2025-10-05T10:25:33.000Z</time>
      </trkpt>
      <trkpt lat="49.5891" lon="3.43182">
        <ele>145.6</ele>
        <time>2025-10-05T10:25:34.000Z</time>
      </trkpt>
      <trkpt lat="49.5891" lon="3.43181">
        <ele>145.8</ele>
        <time>2025-10-05T10:25:35.000Z</time>
      </trkpt>
      <trkpt lat="49.58911" lon="3.4318">
        <ele>145.9</ele>
        <time>2025-10-05T10:25:36.000Z</time>
      </trkpt>
      <trkpt lat="49.58912" lon="3.43178">
        <ele>145.9</ele>
        <time>2025-10-05T10:25:37.000Z</time>
      </trkpt>
      <trkpt lat="49.58913" lon="3.43177">
        <ele>145.9</ele>
        <time>2025-10-05T10:25:38.000Z</time>
      </trkpt>
      <trkpt lat="49.58913" lon="3.43175">
        <ele>145.7</ele>
        <time>2025-10-05T10:25:39.000Z</time>
      </trkpt>
      <trkpt lat="49.58914" lon="3.43173">
        <ele>145.4</ele>
        <time>2025-10-05T10:25:40.000Z</time>
      </trkpt>
      <trkpt lat="49.58915" lon="3.43172">
        <ele>145.4</ele>
        <time>2025-10-05T10:25:41.000Z</time>
      </trkpt>
      <trkpt lat="49.58916" lon="3.4317">
        <ele>145</ele>
        <time>2025-10-05T10:25:42.000Z</time>
      </trkpt>
      <trkpt lat="49.58917" lon="3.43168">
        <ele>145.1</ele>
        <time>2025-10-05T10:25:43.000Z</time>
      </trkpt>
      <trkpt lat="49.58917" lon="3.43167">
        <ele>145</ele>
        <time>2025-10-05T10:25:44.000Z</time>
      </trkpt>
      <trkpt lat="49.58918" lon="3.43165">
        <ele>144.8</ele>
        <time>2025-10-05T10:25:45.000Z</time>
      </trkpt>
      <trkpt lat="49.58919" lon="3.43164">
        <ele>144.6</ele>
        <time>2025-10-05T10:25:46.000Z</time>
      </trkpt>
      <trkpt lat="49.5892" lon="3.43162">
        <ele>144.8</ele>
        <time>2025-10-05T10:25:47.000Z</time>
      </trkpt>
      <trkpt lat="49.58921" lon="3.43161">
        <ele>144.9</ele>
        <time>2025-10-05T10:25:48.000Z</time>
      </trkpt>
      <trkpt lat="49.58922" lon="3.43159">
        <ele>145.1</ele>
        <time>2025-10-05T10:25:49.000Z</time>
      </trkpt>
      <trkpt lat="49.58923" lon="3.43158">
        <ele>145.1</ele>
        <time>2025-10-05T10:25:50.000Z</time>
      </trkpt>
      <trkpt lat="49.58923" lon="3.43157">
        <ele>145.1</ele>
        <time>2025-10-05T10:25:51.000Z</time>
      </trkpt>
      <trkpt lat="49.58924" lon="3.43155">
        <ele>145.2</ele>
        <time>2025-10-05T10:25:52.000Z</time>
      </trkpt>
      <trkpt lat="49.58925" lon="3.43154">
        <ele>145.4</ele>
        <time>2025-10-05T10:25:53.000Z</time>
      </trkpt>
      <trkpt lat="49.58926" lon="3.43152">
        <ele>145.4</ele>
        <time>2025-10-05T10:25:54.000Z</time>
      </trkpt>
      <trkpt lat="49.58926" lon="3.43151">
        <ele>145.8</ele>
        <time>2025-10-05T10:25:55.000Z</time>
      </trkpt>
      <trkpt lat="49.58927" lon="3.4315">
        <ele>145.9</ele>
        <time>2025-10-05T10:25:56.000Z</time>
      </trkpt>
      <trkpt lat="49.58928" lon="3.43149">
        <ele>145.9</ele>
        <time>2025-10-05T10:25:57.000Z</time>
      </trkpt>
      <trkpt lat="49.58929" lon="3.43148">
        <ele>146.2</ele>
        <time>2025-10-05T10:25:58.000Z</time>
      </trkpt>
      <trkpt lat="49.5893" lon="3.43147">
        <ele>146.2</ele>
        <time>2025-10-05T10:25:59.000Z</time>
      </trkpt>
      <trkpt lat="49.58931" lon="3.43145">
        <ele>146.1</ele>
        <time>2025-10-05T10:26:00.000Z</time>
      </trkpt>
      <trkpt lat="49.58932" lon="3.43144">
        <ele>146</ele>
        <time>2025-10-05T10:26:01.000Z</time>
      </trkpt>
      <trkpt lat="49.58933" lon="3.43142">
        <ele>145.9</ele>
        <time>2025-10-05T10:26:02.000Z</time>
      </trkpt>
      <trkpt lat="49.58934" lon="3.43141">
        <ele>145.6</ele>
        <time>2025-10-05T10:26:03.000Z</time>
      </trkpt>
      <trkpt lat="49.58935" lon="3.43139">
        <ele>145.3</ele>
        <time>2025-10-05T10:26:04.000Z</time>
      </trkpt>
      <trkpt lat="49.58936" lon="3.43137">
        <ele>145.1</ele>
        <time>2025-10-05T10:26:05.000Z</time>
      </trkpt>
      <trkpt lat="49.58937" lon="3.43136">
        <ele>144.8</ele>
        <time>2025-10-05T10:26:06.000Z</time>
      </trkpt>
      <trkpt lat="49.58938" lon="3.43135">
        <ele>144.5</ele>
        <time>2025-10-05T10:26:07.000Z</time>
      </trkpt>
      <trkpt lat="49.58939" lon="3.43133">
        <ele>144.4</ele>
        <time>2025-10-05T10:26:08.000Z</time>
      </trkpt>
      <trkpt lat="49.58939" lon="3.43131">
        <ele>144</ele>
        <time>2025-10-05T10:26:09.000Z</time>
      </trkpt>
      <trkpt lat="49.5894" lon="3.4313">
        <ele>144</ele>
        <time>2025-10-05T10:26:10.000Z</time>
      </trkpt>
      <trkpt lat="49.58941" lon="3.43129">
        <ele>143.9</ele>
        <time>2025-10-05T10:26:11.000Z</time>
      </trkpt>
      <trkpt lat="49.58942" lon="3.43128">
        <ele>143.9</ele>
        <time>2025-10-05T10:26:12.000Z</time>
      </trkpt>
      <trkpt lat="49.58942" lon="3.43127">
        <ele>143.9</ele>
        <time>2025-10-05T10:26:13.000Z</time>
      </trkpt>
      <trkpt lat="49.58943" lon="3.43126">
        <ele>143.9</ele>
        <time>2025-10-05T10:26:14.000Z</time>
      </trkpt>
      <trkpt lat="49.58944" lon="3.43125">
        <ele>143.7</ele>
        <time>2025-10-05T10:26:15.000Z</time>
      </trkpt>
      <trkpt lat="49.58945" lon="3.43124">
        <ele>143.5</ele>
        <time>2025-10-05T10:26:16.000Z</time>
      </trkpt>
      <trkpt lat="49.58946" lon="3.43123">
        <ele>144</ele>
        <time>2025-10-05T10:26:17.000Z</time>
      </trkpt>
      <trkpt lat="49.58946" lon="3.43122">
        <ele>144.1</ele>
        <time>2025-10-05T10:26:18.000Z</time>
      </trkpt>
      <trkpt lat="49.58947" lon="3.4312">
        <ele>144.3</ele>
        <time>2025-10-05T10:26:19.000Z</time>
      </trkpt>
      <trkpt lat="49.58947" lon="3.43119">
        <ele>144.5</ele>
        <time>2025-10-05T10:26:20.000Z</time>
      </trkpt>
      <trkpt lat="49.58948" lon="3.43118">
        <ele>144.5</ele>
        <time>2025-10-05T10:26:21.000Z</time>
      </trkpt>
      <trkpt lat="49.58949" lon="3.43116">
        <ele>144.7</ele>
        <time>2025-10-05T10:26:22.000Z</time>
      </trkpt>
      <trkpt lat="49.58949" lon="3.43115">
        <ele>145</ele>
        <time>2025-10-05T10:26:23.000Z</time>
      </trkpt>
      <trkpt lat="49.5895" lon="3.43113">
        <ele>145.3</ele>
        <time>2025-10-05T10:26:24.000Z</time>
      </trkpt>
      <trkpt lat="49.58951" lon="3.43112">
        <ele>145.7</ele>
        <time>2025-10-05T10:26:25.000Z</time>
      </trkpt>
      <trkpt lat="49.58952" lon="3.43111">
        <ele>145.9</ele>
        <time>2025-10-05T10:26:26.000Z</time>
      </trkpt>
      <trkpt lat="49.58952" lon="3.4311">
        <ele>145.8</ele>
        <time>2025-10-05T10:26:27.000Z</time>
      </trkpt>
      <trkpt lat="49.58953" lon="3.43108">
        <ele>146.1</ele>
        <time>2025-10-05T10:26:28.000Z</time>
      </trkpt>
      <trkpt lat="49.58954" lon="3.43105">
        <ele>146.3</ele>
        <time>2025-10-05T10:26:29.000Z</time>
      </trkpt>
      <trkpt lat="49.58955" lon="3.43103">
        <ele>146.5</ele>
        <time>2025-10-05T10:26:30.000Z</time>
      </trkpt>
      <trkpt lat="49.58957" lon="3.43102">
        <ele>146.7</ele>
        <time>2025-10-05T10:26:31.000Z</time>
      </trkpt>
      <trkpt lat="49.58958" lon="3.43101">
        <ele>146.6</ele>
        <time>2025-10-05T10:26:32.000Z</time>
      </trkpt>
      <trkpt lat="49.58959" lon="3.43101">
        <ele>146.7</ele>
        <time>2025-10-05T10:26:33.000Z</time>
      </trkpt>
      <trkpt lat="49.58961" lon="3.43099">
        <ele>146.5</ele>
        <time>2025-10-05T10:26:34.000Z</time>
      </trkpt>
      <trkpt lat="49.58961" lon="3.43098">
        <ele>146.5</ele>
        <time>2025-10-05T10:26:35.000Z</time>
      </trkpt>
      <trkpt lat="49.58962" lon="3.43096">
        <ele>146.5</ele>
        <time>2025-10-05T10:26:36.000Z</time>
      </trkpt>
      <trkpt lat="49.58963" lon="3.43094">
        <ele>146.6</ele>
        <time>2025-10-05T10:26:37.000Z</time>
      </trkpt>
      <trkpt lat="49.58963" lon="3.43092">
        <ele>146.5</ele>
        <time>2025-10-05T10:26:38.000Z</time>
      </trkpt>
      <trkpt lat="49.58964" lon="3.43091">
        <ele>146.7</ele>
        <time>2025-10-05T10:26:39.000Z</time>
      </trkpt>
      <trkpt lat="49.58965" lon="3.43089">
        <ele>146.9</ele>
        <time>2025-10-05T10:26:40.000Z</time>
      </trkpt>
      <trkpt lat="49.58966" lon="3.43088">
        <ele>146.9</ele>
        <time>2025-10-05T10:26:41.000Z</time>
      </trkpt>
      <trkpt lat="49.58968" lon="3.43086">
        <ele>146.8</ele>
        <time>2025-10-05T10:26:42.000Z</time>
      </trkpt>
      <trkpt lat="49.58969" lon="3.43085">
        <ele>146.7</ele>
        <time>2025-10-05T10:26:43.000Z</time>
      </trkpt>
      <trkpt lat="49.5897" lon="3.43084">
        <ele>146.4</ele>
        <time>2025-10-05T10:26:44.000Z</time>
      </trkpt>
      <trkpt lat="49.5897" lon="3.43081">
        <ele>146.1</ele>
        <time>2025-10-05T10:26:45.000Z</time>
      </trkpt>
      <trkpt lat="49.58971" lon="3.4308">
        <ele>146.1</ele>
        <time>2025-10-05T10:26:46.000Z</time>
      </trkpt>
      <trkpt lat="49.58972" lon="3.43079">
        <ele>146</ele>
        <time>2025-10-05T10:26:47.000Z</time>
      </trkpt>
      <trkpt lat="49.58973" lon="3.43078">
        <ele>146.1</ele>
        <time>2025-10-05T10:26:48.000Z</time>
      </trkpt>
      <trkpt lat="49.58974" lon="3.43077">
        <ele>146.2</ele>
        <time>2025-10-05T10:26:49.000Z</time>
      </trkpt>
      <trkpt lat="49.58975" lon="3.43076">
        <ele>146.2</ele>
        <time>2025-10-05T10:26:50.000Z</time>
      </trkpt>
      <trkpt lat="49.58976" lon="3.43075">
        <ele>145.8</ele>
        <time>2025-10-05T10:26:51.000Z</time>
      </trkpt>
      <trkpt lat="49.58977" lon="3.43075">
        <ele>145.8</ele>
        <time>2025-10-05T10:26:52.000Z</time>
      </trkpt>
      <trkpt lat="49.58977" lon="3.43074">
        <ele>145.7</ele>
        <time>2025-10-05T10:26:53.000Z</time>
      </trkpt>
      <trkpt lat="49.58978" lon="3.43073">
        <ele>145.6</ele>
        <time>2025-10-05T10:26:54.000Z</time>
      </trkpt>
      <trkpt lat="49.58979" lon="3.43072">
        <ele>145.5</ele>
        <time>2025-10-05T10:26:55.000Z</time>
      </trkpt>
      <trkpt lat="49.5898" lon="3.43071">
        <ele>145.8</ele>
        <time>2025-10-05T10:26:56.000Z</time>
      </trkpt>
      <trkpt lat="49.58981" lon="3.4307">
        <ele>145.9</ele>
        <time>2025-10-05T10:26:57.000Z</time>
      </trkpt>
      <trkpt lat="49.58982" lon="3.43069">
        <ele>146</ele>
        <time>2025-10-05T10:26:58.000Z</time>
      </trkpt>
      <trkpt lat="49.58983" lon="3.43067">
        <ele>146.2</ele>
        <time>2025-10-05T10:26:59.000Z</time>
      </trkpt>
      <trkpt lat="49.58983" lon="3.43067">
        <ele>146.2</ele>
        <time>2025-10-05T10:27:00.000Z</time>
      </trkpt>
      <trkpt lat="49.58984" lon="3.43066">
        <ele>146.3</ele>
        <time>2025-10-05T10:27:01.000Z</time>
      </trkpt>
      <trkpt lat="49.58985" lon="3.43065">
        <ele>146.3</ele>
        <time>2025-10-05T10:27:02.000Z</time>
      </trkpt>
      <trkpt lat="49.58986" lon="3.43064">
        <ele>146.3</ele>
        <time>2025-10-05T10:27:03.000Z</time>
      </trkpt>
      <trkpt lat="49.58987" lon="3.43064">
        <ele>146.2</ele>
        <time>2025-10-05T10:27:04.000Z</time>
      </trkpt>
      <trkpt lat="49.58988" lon="3.43063">
        <ele>146.1</ele>
        <time>2025-10-05T10:27:05.000Z</time>
      </trkpt>
      <trkpt lat="49.58989" lon="3.43062">
        <ele>145.9</ele>
        <time>2025-10-05T10:27:06.000Z</time>
      </trkpt>
      <trkpt lat="49.5899" lon="3.4306">
        <ele>145.9</ele>
        <time>2025-10-05T10:27:07.000Z</time>
      </trkpt>
      <trkpt lat="49.58991" lon="3.43059">
        <ele>145.9</ele>
        <time>2025-10-05T10:27:08.000Z</time>
      </trkpt>
      <trkpt lat="49.58992" lon="3.43058">
        <ele>145.8</ele>
        <time>2025-10-05T10:27:09.000Z</time>
      </trkpt>
      <trkpt lat="49.58994" lon="3.43057">
        <ele>145.8</ele>
        <time>2025-10-05T10:27:10.000Z</time>
      </trkpt>
      <trkpt lat="49.58995" lon="3.43056">
        <ele>145.6</ele>
        <time>2025-10-05T10:27:11.000Z</time>
      </trkpt>
      <trkpt lat="49.58997" lon="3.43055">
        <ele>145.4</ele>
        <time>2025-10-05T10:27:12.000Z</time>
      </trkpt>
      <trkpt lat="49.58998" lon="3.43054">
        <ele>145.6</ele>
        <time>2025-10-05T10:27:13.000Z</time>
      </trkpt>
      <trkpt lat="49.58999" lon="3.43052">
        <ele>145.8</ele>
        <time>2025-10-05T10:27:14.000Z</time>
      </trkpt>
      <trkpt lat="49.59" lon="3.43051">
        <ele>145.8</ele>
        <time>2025-10-05T10:27:15.000Z</time>
      </trkpt>
      <trkpt lat="49.59002" lon="3.43051">
        <ele>145.7</ele>
        <time>2025-10-05T10:27:16.000Z</time>
      </trkpt>
      <trkpt lat="49.59003" lon="3.4305">
        <ele>145.4</ele>
        <time>2025-10-05T10:27:17.000Z</time>
      </trkpt>
      <trkpt lat="49.59004" lon="3.43049">
        <ele>145.4</ele>
        <time>2025-10-05T10:27:18.000Z</time>
      </trkpt>
      <trkpt lat="49.59005" lon="3.43048">
        <ele>145.2</ele>
        <time>2025-10-05T10:27:19.000Z</time>
      </trkpt>
      <trkpt lat="49.59006" lon="3.43048">
        <ele>144.9</ele>
        <time>2025-10-05T10:27:20.000Z</time>
      </trkpt>
      <trkpt lat="49.59007" lon="3.43047">
        <ele>145</ele>
        <time>2025-10-05T10:27:21.000Z</time>
      </trkpt>
      <trkpt lat="49.59008" lon="3.43047">
        <ele>145</ele>
        <time>2025-10-05T10:27:22.000Z</time>
      </trkpt>
      <trkpt lat="49.59009" lon="3.43045">
        <ele>144.6</ele>
        <time>2025-10-05T10:27:23.000Z</time>
      </trkpt>
      <trkpt lat="49.5901" lon="3.43044">
        <ele>144.4</ele>
        <time>2025-10-05T10:27:24.000Z</time>
      </trkpt>
      <trkpt lat="49.59011" lon="3.43043">
        <ele>144.3</ele>
        <time>2025-10-05T10:27:25.000Z</time>
      </trkpt>
      <trkpt lat="49.59012" lon="3.43042">
        <ele>144.2</ele>
        <time>2025-10-05T10:27:26.000Z</time>
      </trkpt>
      <trkpt lat="49.59013" lon="3.4304">
        <ele>144.1</ele>
        <time>2025-10-05T10:27:27.000Z</time>
      </trkpt>
      <trkpt lat="49.59015" lon="3.43039">
        <ele>143.9</ele>
        <time>2025-10-05T10:27:28.000Z</time>
      </trkpt>
      <trkpt lat="49.59016" lon="3.43038">
        <ele>143.9</ele>
        <time>2025-10-05T10:27:29.000Z</time>
      </trkpt>
      <trkpt lat="49.59018" lon="3.43036">
        <ele>143.8</ele>
        <time>2025-10-05T10:27:30.000Z</time>
      </trkpt>
      <trkpt lat="49.5902" lon="3.43035">
        <ele>143.8</ele>
        <time>2025-10-05T10:27:31.000Z</time>
      </trkpt>
      <trkpt lat="49.59021" lon="3.43035">
        <ele>143.9</ele>
        <time>2025-10-05T10:27:32.000Z</time>
      </trkpt>
      <trkpt lat="49.59022" lon="3.43035">
        <ele>143.8</ele>
        <time>2025-10-05T10:27:33.000Z</time>
      </trkpt>
      <trkpt lat="49.59023" lon="3.43034">
        <ele>143.9</ele>
        <time>2025-10-05T10:27:34.000Z</time>
      </trkpt>
      <trkpt lat="49.59024" lon="3.43033">
        <ele>143.9</ele>
        <time>2025-10-05T10:27:35.000Z</time>
      </trkpt>
      <trkpt lat="49.59025" lon="3.43032">
        <ele>144</ele>
        <time>2025-10-05T10:27:36.000Z</time>
      </trkpt>
      <trkpt lat="49.59025" lon="3.43031">
        <ele>144.1</ele>
        <time>2025-10-05T10:27:37.000Z</time>
      </trkpt>
      <trkpt lat="49.59026" lon="3.4303">
        <ele>144.3</ele>
        <time>2025-10-05T10:27:38.000Z</time>
      </trkpt>
      <trkpt lat="49.59027" lon="3.43029">
        <ele>144.6</ele>
        <time>2025-10-05T10:27:39.000Z</time>
      </trkpt>
      <trkpt lat="49.59028" lon="3.43028">
        <ele>145</ele>
        <time>2025-10-05T10:27:40.000Z</time>
      </trkpt>
      <trkpt lat="49.59028" lon="3.43028">
        <ele>145.3</ele>
        <time>2025-10-05T10:27:41.000Z</time>
      </trkpt>
      <trkpt lat="49.59029" lon="3.43027">
        <ele>145.6</ele>
        <time>2025-10-05T10:27:42.000Z</time>
      </trkpt>
      <trkpt lat="49.5903" lon="3.43026">
        <ele>145.8</ele>
        <time>2025-10-05T10:27:43.000Z</time>
      </trkpt>
      <trkpt lat="49.59031" lon="3.43026">
        <ele>146.2</ele>
        <time>2025-10-05T10:27:44.000Z</time>
      </trkpt>
      <trkpt lat="49.59032" lon="3.43025">
        <ele>146.4</ele>
        <time>2025-10-05T10:27:45.000Z</time>
      </trkpt>
      <trkpt lat="49.59032" lon="3.43024">
        <ele>146.5</ele>
        <time>2025-10-05T10:27:46.000Z</time>
      </trkpt>
      <trkpt lat="49.59033" lon="3.43023">
        <ele>146.8</ele>
        <time>2025-10-05T10:27:47.000Z</time>
      </trkpt>
      <trkpt lat="49.59034" lon="3.43022">
        <ele>146.9</ele>
        <time>2025-10-05T10:27:48.000Z</time>
      </trkpt>
      <trkpt lat="49.59035" lon="3.43021">
        <ele>147.2</ele>
        <time>2025-10-05T10:27:49.000Z</time>
      </trkpt>
      <trkpt lat="49.59036" lon="3.4302">
        <ele>147.5</ele>
        <time>2025-10-05T10:27:50.000Z</time>
      </trkpt>
      <trkpt lat="49.59037" lon="3.43019">
        <ele>147.8</ele>
        <time>2025-10-05T10:27:51.000Z</time>
      </trkpt>
      <trkpt lat="49.59038" lon="3.43018">
        <ele>148</ele>
        <time>2025-10-05T10:27:52.000Z</time>
      </trkpt>
      <trkpt lat="49.59039" lon="3.43017">
        <ele>148</ele>
        <time>2025-10-05T10:27:53.000Z</time>
      </trkpt>
      <trkpt lat="49.5904" lon="3.43016">
        <ele>148.3</ele>
        <time>2025-10-05T10:27:54.000Z</time>
      </trkpt>
      <trkpt lat="49.59041" lon="3.43014">
        <ele>148.2</ele>
        <time>2025-10-05T10:27:55.000Z</time>
      </trkpt>
      <trkpt lat="49.59041" lon="3.43013">
        <ele>148.2</ele>
        <time>2025-10-05T10:27:56.000Z</time>
      </trkpt>
      <trkpt lat="49.59043" lon="3.43012">
        <ele>148.2</ele>
        <time>2025-10-05T10:27:57.000Z</time>
      </trkpt>
      <trkpt lat="49.59044" lon="3.43012">
        <ele>148.2</ele>
        <time>2025-10-05T10:27:58.000Z</time>
      </trkpt>
      <trkpt lat="49.59045" lon="3.43011">
        <ele>148.3</ele>
        <time>2025-10-05T10:27:59.000Z</time>
      </trkpt>
      <trkpt lat="49.59046" lon="3.4301">
        <ele>148.3</ele>
        <time>2025-10-05T10:28:00.000Z</time>
      </trkpt>
      <trkpt lat="49.59047" lon="3.43008">
        <ele>148.3</ele>
        <time>2025-10-05T10:28:01.000Z</time>
      </trkpt>
      <trkpt lat="49.59048" lon="3.43007">
        <ele>148.4</ele>
        <time>2025-10-05T10:28:02.000Z</time>
      </trkpt>
      <trkpt lat="49.59049" lon="3.43006">
        <ele>148.3</ele>
        <time>2025-10-05T10:28:03.000Z</time>
      </trkpt>
      <trkpt lat="49.5905" lon="3.43005">
        <ele>148.3</ele>
        <time>2025-10-05T10:28:04.000Z</time>
      </trkpt>
      <trkpt lat="49.59051" lon="3.43004">
        <ele>148.3</ele>
        <time>2025-10-05T10:28:05.000Z</time>
      </trkpt>
      <trkpt lat="49.59052" lon="3.43003">
        <ele>148.2</ele>
        <time>2025-10-05T10:28:06.000Z</time>
      </trkpt>
      <trkpt lat="49.59053" lon="3.43001">
        <ele>148</ele>
        <time>2025-10-05T10:28:07.000Z</time>
      </trkpt>
      <trkpt lat="49.59055" lon="3.43">
        <ele>147.9</ele>
        <time>2025-10-05T10:28:08.000Z</time>
      </trkpt>
      <trkpt lat="49.59056" lon="3.42998">
        <ele>147.7</ele>
        <time>2025-10-05T10:28:09.000Z</time>
      </trkpt>
      <trkpt lat="49.59057" lon="3.42996">
        <ele>147.7</ele>
        <time>2025-10-05T10:28:10.000Z</time>
      </trkpt>
      <trkpt lat="49.59058" lon="3.42995">
        <ele>147.3</ele>
        <time>2025-10-05T10:28:11.000Z</time>
      </trkpt>
      <trkpt lat="49.59059" lon="3.42993">
        <ele>147.1</ele>
        <time>2025-10-05T10:28:12.000Z</time>
      </trkpt>
      <trkpt lat="49.5906" lon="3.42991">
        <ele>147</ele>
        <time>2025-10-05T10:28:13.000Z</time>
      </trkpt>
      <trkpt lat="49.59061" lon="3.42989">
        <ele>147</ele>
        <time>2025-10-05T10:28:14.000Z</time>
      </trkpt>
      <trkpt lat="49.59062" lon="3.42988">
        <ele>146.9</ele>
        <time>2025-10-05T10:28:15.000Z</time>
      </trkpt>
      <trkpt lat="49.59063" lon="3.42987">
        <ele>146.7</ele>
        <time>2025-10-05T10:28:16.000Z</time>
      </trkpt>
      <trkpt lat="49.59064" lon="3.42986">
        <ele>146.7</ele>
        <time>2025-10-05T10:28:17.000Z</time>
      </trkpt>
      <trkpt lat="49.59064" lon="3.42985">
        <ele>146.8</ele>
        <time>2025-10-05T10:28:18.000Z</time>
      </trkpt>
      <trkpt lat="49.59065" lon="3.42984">
        <ele>147.1</ele>
        <time>2025-10-05T10:28:19.000Z</time>
      </trkpt>
      <trkpt lat="49.59066" lon="3.42982">
        <ele>147.2</ele>
        <time>2025-10-05T10:28:20.000Z</time>
      </trkpt>
      <trkpt lat="49.59066" lon="3.4298">
        <ele>147.1</ele>
        <time>2025-10-05T10:28:21.000Z</time>
      </trkpt>
      <trkpt lat="49.59067" lon="3.42978">
        <ele>147.5</ele>
        <time>2025-10-05T10:28:22.000Z</time>
      </trkpt>
      <trkpt lat="49.59069" lon="3.42977">
        <ele>148</ele>
        <time>2025-10-05T10:28:23.000Z</time>
      </trkpt>
      <trkpt lat="49.5907" lon="3.42975">
        <ele>148.6</ele>
        <time>2025-10-05T10:28:24.000Z</time>
      </trkpt>
      <trkpt lat="49.59071" lon="3.42973">
        <ele>148.9</ele>
        <time>2025-10-05T10:28:25.000Z</time>
      </trkpt>
      <trkpt lat="49.59072" lon="3.42971">
        <ele>149.2</ele>
        <time>2025-10-05T10:28:26.000Z</time>
      </trkpt>
      <trkpt lat="49.59073" lon="3.42969">
        <ele>149.6</ele>
        <time>2025-10-05T10:28:27.000Z</time>
      </trkpt>
      <trkpt lat="49.59074" lon="3.42967">
        <ele>149.7</ele>
        <time>2025-10-05T10:28:28.000Z</time>
      </trkpt>
      <trkpt lat="49.59074" lon="3.42965">
        <ele>149.7</ele>
        <time>2025-10-05T10:28:29.000Z</time>
      </trkpt>
      <trkpt lat="49.59075" lon="3.42963">
        <ele>149.7</ele>
        <time>2025-10-05T10:28:30.000Z</time>
      </trkpt>
      <trkpt lat="49.59076" lon="3.42961">
        <ele>149.7</ele>
        <time>2025-10-05T10:28:31.000Z</time>
      </trkpt>
      <trkpt lat="49.59077" lon="3.4296">
        <ele>150.1</ele>
        <time>2025-10-05T10:28:32.000Z</time>
      </trkpt>
      <trkpt lat="49.59078" lon="3.42958">
        <ele>150.3</ele>
        <time>2025-10-05T10:28:33.000Z</time>
      </trkpt>
      <trkpt lat="49.59079" lon="3.42957">
        <ele>150.5</ele>
        <time>2025-10-05T10:28:34.000Z</time>
      </trkpt>
      <trkpt lat="49.5908" lon="3.42955">
        <ele>150.4</ele>
        <time>2025-10-05T10:28:35.000Z</time>
      </trkpt>
      <trkpt lat="49.59081" lon="3.42954">
        <ele>150.2</ele>
        <time>2025-10-05T10:28:36.000Z</time>
      </trkpt>
      <trkpt lat="49.59082" lon="3.42953">
        <ele>149.9</ele>
        <time>2025-10-05T10:28:37.000Z</time>
      </trkpt>
      <trkpt lat="49.59083" lon="3.42951">
        <ele>150</ele>
        <time>2025-10-05T10:28:38.000Z</time>
      </trkpt>
      <trkpt lat="49.59083" lon="3.4295">
        <ele>150.2</ele>
        <time>2025-10-05T10:28:39.000Z</time>
      </trkpt>
      <trkpt lat="49.59084" lon="3.4295">
        <ele>150.4</ele>
        <time>2025-10-05T10:28:40.000Z</time>
      </trkpt>
      <trkpt lat="49.59085" lon="3.42949">
        <ele>150</ele>
        <time>2025-10-05T10:28:41.000Z</time>
      </trkpt>
      <trkpt lat="49.59085" lon="3.42949">
        <ele>149.7</ele>
        <time>2025-10-05T10:28:42.000Z</time>
      </trkpt>
      <trkpt lat="49.59085" lon="3.42948">
        <ele>149.6</ele>
        <time>2025-10-05T10:28:43.000Z</time>
      </trkpt>
      <trkpt lat="49.59085" lon="3.42947">
        <ele>149.5</ele>
        <time>2025-10-05T10:28:44.000Z</time>
      </trkpt>
      <trkpt lat="49.59086" lon="3.42946">
        <ele>149.2</ele>
        <time>2025-10-05T10:28:45.000Z</time>
      </trkpt>
      <trkpt lat="49.59086" lon="3.42946">
        <ele>149.1</ele>
        <time>2025-10-05T10:28:46.000Z</time>
      </trkpt>
      <trkpt lat="49.59087" lon="3.42945">
        <ele>148.7</ele>
        <time>2025-10-05T10:28:47.000Z</time>
      </trkpt>
      <trkpt lat="49.59088" lon="3.42944">
        <ele>148.4</ele>
        <time>2025-10-05T10:28:48.000Z</time>
      </trkpt>
      <trkpt lat="49.5909" lon="3.42943">
        <ele>148.1</ele>
        <time>2025-10-05T10:28:49.000Z</time>
      </trkpt>
      <trkpt lat="49.5909" lon="3.42942">
        <ele>147.8</ele>
        <time>2025-10-05T10:28:50.000Z</time>
      </trkpt>
      <trkpt lat="49.59092" lon="3.42941">
        <ele>147.8</ele>
        <time>2025-10-05T10:28:51.000Z</time>
      </trkpt>
      <trkpt lat="49.59093" lon="3.4294">
        <ele>147.4</ele>
        <time>2025-10-05T10:28:52.000Z</time>
      </trkpt>
      <trkpt lat="49.59094" lon="3.4294">
        <ele>147.1</ele>
        <time>2025-10-05T10:28:53.000Z</time>
      </trkpt>
      <trkpt lat="49.59095" lon="3.42939">
        <ele>146.7</ele>
        <time>2025-10-05T10:28:54.000Z</time>
      </trkpt>
      <trkpt lat="49.59096" lon="3.42939">
        <ele>146.6</ele>
        <time>2025-10-05T10:28:55.000Z</time>
      </trkpt>
      <trkpt lat="49.59097" lon="3.42938">
        <ele>146.7</ele>
        <time>2025-10-05T10:28:56.000Z</time>
      </trkpt>
      <trkpt lat="49.59098" lon="3.42938">
        <ele>146.4</ele>
        <time>2025-10-05T10:28:57.000Z</time>
      </trkpt>
      <trkpt lat="49.59099" lon="3.42938">
        <ele>146.2</ele>
        <time>2025-10-05T10:28:58.000Z</time>
      </trkpt>
      <trkpt lat="49.591" lon="3.42938">
        <ele>146.3</ele>
        <time>2025-10-05T10:28:59.000Z</time>
      </trkpt>
      <trkpt lat="49.59101" lon="3.42938">
        <ele>146.2</ele>
        <time>2025-10-05T10:29:00.000Z</time>
      </trkpt>
      <trkpt lat="49.59102" lon="3.42938">
        <ele>146.4</ele>
        <time>2025-10-05T10:29:01.000Z</time>
      </trkpt>
      <trkpt lat="49.59103" lon="3.42938">
        <ele>146.6</ele>
        <time>2025-10-05T10:29:02.000Z</time>
      </trkpt>
      <trkpt lat="49.59105" lon="3.42938">
        <ele>146.8</ele>
        <time>2025-10-05T10:29:03.000Z</time>
      </trkpt>
      <trkpt lat="49.59106" lon="3.42937">
        <ele>146.8</ele>
        <time>2025-10-05T10:29:04.000Z</time>
      </trkpt>
      <trkpt lat="49.59107" lon="3.42937">
        <ele>146.9</ele>
        <time>2025-10-05T10:29:05.000Z</time>
      </trkpt>
      <trkpt lat="49.59108" lon="3.42936">
        <ele>147.3</ele>
        <time>2025-10-05T10:29:06.000Z</time>
      </trkpt>
      <trkpt lat="49.5911" lon="3.42936">
        <ele>147.2</ele>
        <time>2025-10-05T10:29:07.000Z</time>
      </trkpt>
      <trkpt lat="49.59111" lon="3.42936">
        <ele>147</ele>
        <time>2025-10-05T10:29:08.000Z</time>
      </trkpt>
      <trkpt lat="49.59112" lon="3.42936">
        <ele>147.2</ele>
        <time>2025-10-05T10:29:09.000Z</time>
      </trkpt>
      <trkpt lat="49.59114" lon="3.42937">
        <ele>147.1</ele>
        <time>2025-10-05T10:29:10.000Z</time>
      </trkpt>
      <trkpt lat="49.59115" lon="3.42937">
        <ele>147.3</ele>
        <time>2025-10-05T10:29:11.000Z</time>
      </trkpt>
      <trkpt lat="49.59116" lon="3.42938">
        <ele>147.1</ele>
        <time>2025-10-05T10:29:12.000Z</time>
      </trkpt>
      <trkpt lat="49.59118" lon="3.42938">
        <ele>146.6</ele>
        <time>2025-10-05T10:29:13.000Z</time>
      </trkpt>
      <trkpt lat="49.59119" lon="3.42938">
        <ele>146</ele>
        <time>2025-10-05T10:29:14.000Z</time>
      </trkpt>
      <trkpt lat="49.5912" lon="3.42938">
        <ele>145.6</ele>
        <time>2025-10-05T10:29:15.000Z</time>
      </trkpt>
      <trkpt lat="49.59121" lon="3.42939">
        <ele>145.3</ele>
        <time>2025-10-05T10:29:16.000Z</time>
      </trkpt>
      <trkpt lat="49.59122" lon="3.4294">
        <ele>145</ele>
        <time>2025-10-05T10:29:17.000Z</time>
      </trkpt>
      <trkpt lat="49.59123" lon="3.4294">
        <ele>144.9</ele>
        <time>2025-10-05T10:29:18.000Z</time>
      </trkpt>
      <trkpt lat="49.59124" lon="3.42941">
        <ele>144.6</ele>
        <time>2025-10-05T10:29:19.000Z</time>
      </trkpt>
      <trkpt lat="49.59125" lon="3.42942">
        <ele>144.3</ele>
        <time>2025-10-05T10:29:20.000Z</time>
      </trkpt>
      <trkpt lat="49.59126" lon="3.42942">
        <ele>144.2</ele>
        <time>2025-10-05T10:29:21.000Z</time>
      </trkpt>
      <trkpt lat="49.59127" lon="3.42942">
        <ele>144</ele>
        <time>2025-10-05T10:29:22.000Z</time>
      </trkpt>
      <trkpt lat="49.59128" lon="3.42942">
        <ele>144</ele>
        <time>2025-10-05T10:29:23.000Z</time>
      </trkpt>
      <trkpt lat="49.59129" lon="3.42942">
        <ele>144.2</ele>
        <time>2025-10-05T10:29:24.000Z</time>
      </trkpt>
      <trkpt lat="49.5913" lon="3.42943">
        <ele>144.3</ele>
        <time>2025-10-05T10:29:25.000Z</time>
      </trkpt>
      <trkpt lat="49.59131" lon="3.42943">
        <ele>144.2</ele>
        <time>2025-10-05T10:29:26.000Z</time>
      </trkpt>
      <trkpt lat="49.59133" lon="3.42943">
        <ele>144.3</ele>
        <time>2025-10-05T10:29:27.000Z</time>
      </trkpt>
      <trkpt lat="49.59134" lon="3.42943">
        <ele>144.2</ele>
        <time>2025-10-05T10:29:28.000Z</time>
      </trkpt>
      <trkpt lat="49.59136" lon="3.42944">
        <ele>144.3</ele>
        <time>2025-10-05T10:29:29.000Z</time>
      </trkpt>
      <trkpt lat="49.59137" lon="3.42944">
        <ele>144.5</ele>
        <time>2025-10-05T10:29:30.000Z</time>
      </trkpt>
      <trkpt lat="49.59139" lon="3.42944">
        <ele>145</ele>
        <time>2025-10-05T10:29:31.000Z</time>
      </trkpt>
      <trkpt lat="49.5914" lon="3.42945">
        <ele>145.3</ele>
        <time>2025-10-05T10:29:32.000Z</time>
      </trkpt>
      <trkpt lat="49.59141" lon="3.42945">
        <ele>145.6</ele>
        <time>2025-10-05T10:29:33.000Z</time>
      </trkpt>
      <trkpt lat="49.59141" lon="3.42945">
        <ele>145.5</ele>
        <time>2025-10-05T10:29:34.000Z</time>
      </trkpt>
      <trkpt lat="49.59142" lon="3.42945">
        <ele>145.3</ele>
        <time>2025-10-05T10:29:35.000Z</time>
      </trkpt>
      <trkpt lat="49.59143" lon="3.42946">
        <ele>145.2</ele>
        <time>2025-10-05T10:29:36.000Z</time>
      </trkpt>
      <trkpt lat="49.59144" lon="3.42946">
        <ele>145.1</ele>
        <time>2025-10-05T10:29:37.000Z</time>
      </trkpt>
      <trkpt lat="49.59145" lon="3.42947">
        <ele>145</ele>
        <time>2025-10-05T10:29:38.000Z</time>
      </trkpt>
      <trkpt lat="49.59146" lon="3.42947">
        <ele>145.3</ele>
        <time>2025-10-05T10:29:39.000Z</time>
      </trkpt>
      <trkpt lat="49.59147" lon="3.42949">
        <ele>145.4</ele>
        <time>2025-10-05T10:29:40.000Z</time>
      </trkpt>
      <trkpt lat="49.59148" lon="3.4295">
        <ele>145.5</ele>
        <time>2025-10-05T10:29:41.000Z</time>
      </trkpt>
      <trkpt lat="49.59149" lon="3.4295">
        <ele>145.5</ele>
        <time>2025-10-05T10:29:42.000Z</time>
      </trkpt>
      <trkpt lat="49.5915" lon="3.4295">
        <ele>145.3</ele>
        <time>2025-10-05T10:29:43.000Z</time>
      </trkpt>
      <trkpt lat="49.59151" lon="3.4295">
        <ele>145.1</ele>
        <time>2025-10-05T10:29:44.000Z</time>
      </trkpt>
      <trkpt lat="49.59152" lon="3.4295">
        <ele>145.3</ele>
        <time>2025-10-05T10:29:45.000Z</time>
      </trkpt>
      <trkpt lat="49.59153" lon="3.4295">
        <ele>145.3</ele>
        <time>2025-10-05T10:29:46.000Z</time>
      </trkpt>
      <trkpt lat="49.59155" lon="3.42951">
        <ele>145.3</ele>
        <time>2025-10-05T10:29:47.000Z</time>
      </trkpt>
      <trkpt lat="49.59155" lon="3.42952">
        <ele>145.4</ele>
        <time>2025-10-05T10:29:48.000Z</time>
      </trkpt>
      <trkpt lat="49.59156" lon="3.42953">
        <ele>145.3</ele>
        <time>2025-10-05T10:29:49.000Z</time>
      </trkpt>
      <trkpt lat="49.59158" lon="3.42953">
        <ele>145.3</ele>
        <time>2025-10-05T10:29:50.000Z</time>
      </trkpt>
      <trkpt lat="49.59159" lon="3.42953">
        <ele>145.3</ele>
        <time>2025-10-05T10:29:51.000Z</time>
      </trkpt>
      <trkpt lat="49.5916" lon="3.42954">
        <ele>145.5</ele>
        <time>2025-10-05T10:29:52.000Z</time>
      </trkpt>
      <trkpt lat="49.59161" lon="3.42955">
        <ele>145.3</ele>
        <time>2025-10-05T10:29:53.000Z</time>
      </trkpt>
      <trkpt lat="49.59162" lon="3.42956">
        <ele>145.3</ele>
        <time>2025-10-05T10:29:54.000Z</time>
      </trkpt>
      <trkpt lat="49.59164" lon="3.42956">
        <ele>145.2</ele>
        <time>2025-10-05T10:29:55.000Z</time>
      </trkpt>
      <trkpt lat="49.59165" lon="3.42957">
        <ele>145</ele>
        <time>2025-10-05T10:29:56.000Z</time>
      </trkpt>
      <trkpt lat="49.59166" lon="3.42958">
        <ele>145.1</ele>
        <time>2025-10-05T10:29:57.000Z</time>
      </trkpt>
      <trkpt lat="49.59167" lon="3.42959">
        <ele>144.9</ele>
        <time>2025-10-05T10:29:58.000Z</time>
      </trkpt>
      <trkpt lat="49.59168" lon="3.4296">
        <ele>144.8</ele>
        <time>2025-10-05T10:29:59.000Z</time>
      </trkpt>
      <trkpt lat="49.59169" lon="3.42961">
        <ele>144.7</ele>
        <time>2025-10-05T10:30:00.000Z</time>
      </trkpt>
      <trkpt lat="49.5917" lon="3.42962">
        <ele>144.6</ele>
        <time>2025-10-05T10:30:01.000Z</time>
      </trkpt>
      <trkpt lat="49.59172" lon="3.42962">
        <ele>144.6</ele>
        <time>2025-10-05T10:30:02.000Z</time>
      </trkpt>
      <trkpt lat="49.59173" lon="3.42963">
        <ele>144.6</ele>
        <time>2025-10-05T10:30:03.000Z</time>
      </trkpt>
      <trkpt lat="49.59174" lon="3.42964">
        <ele>144.7</ele>
        <time>2025-10-05T10:30:04.000Z</time>
      </trkpt>
      <trkpt lat="49.59176" lon="3.42964">
        <ele>144.8</ele>
        <time>2025-10-05T10:30:05.000Z</time>
      </trkpt>
      <trkpt lat="49.59178" lon="3.42965">
        <ele>145</ele>
        <time>2025-10-05T10:30:06.000Z</time>
      </trkpt>
      <trkpt lat="49.59179" lon="3.42965">
        <ele>144.6</ele>
        <time>2025-10-05T10:30:07.000Z</time>
      </trkpt>
      <trkpt lat="49.59181" lon="3.42966">
        <ele>144.5</ele>
        <time>2025-10-05T10:30:08.000Z</time>
      </trkpt>
      <trkpt lat="49.59182" lon="3.42966">
        <ele>144.5</ele>
        <time>2025-10-05T10:30:09.000Z</time>
      </trkpt>
      <trkpt lat="49.59182" lon="3.42966">
        <ele>144.7</ele>
        <time>2025-10-05T10:30:10.000Z</time>
      </trkpt>
      <trkpt lat="49.59183" lon="3.42966">
        <ele>144.7</ele>
        <time>2025-10-05T10:30:11.000Z</time>
      </trkpt>
      <trkpt lat="49.59184" lon="3.42966">
        <ele>145</ele>
        <time>2025-10-05T10:30:12.000Z</time>
      </trkpt>
      <trkpt lat="49.59185" lon="3.42967">
        <ele>145.3</ele>
        <time>2025-10-05T10:30:13.000Z</time>
      </trkpt>
      <trkpt lat="49.59186" lon="3.42967">
        <ele>145.5</ele>
        <time>2025-10-05T10:30:14.000Z</time>
      </trkpt>
      <trkpt lat="49.59187" lon="3.42968">
        <ele>145.7</ele>
        <time>2025-10-05T10:30:15.000Z</time>
      </trkpt>
      <trkpt lat="49.59188" lon="3.42969">
        <ele>145.8</ele>
        <time>2025-10-05T10:30:16.000Z</time>
      </trkpt>
      <trkpt lat="49.59188" lon="3.4297">
        <ele>145.7</ele>
        <time>2025-10-05T10:30:17.000Z</time>
      </trkpt>
      <trkpt lat="49.59189" lon="3.42971">
        <ele>145.6</ele>
        <time>2025-10-05T10:30:18.000Z</time>
      </trkpt>
      <trkpt lat="49.5919" lon="3.42972">
        <ele>145.4</ele>
        <time>2025-10-05T10:30:19.000Z</time>
      </trkpt>
      <trkpt lat="49.59191" lon="3.42973">
        <ele>145.1</ele>
        <time>2025-10-05T10:30:20.000Z</time>
      </trkpt>
      <trkpt lat="49.59193" lon="3.42973">
        <ele>145.1</ele>
        <time>2025-10-05T10:30:21.000Z</time>
      </trkpt>
      <trkpt lat="49.59194" lon="3.42974">
        <ele>144.8</ele>
        <time>2025-10-05T10:30:22.000Z</time>
      </trkpt>
      <trkpt lat="49.59195" lon="3.42975">
        <ele>144.7</ele>
        <time>2025-10-05T10:30:23.000Z</time>
      </trkpt>
      <trkpt lat="49.59196" lon="3.42976">
        <ele>144.7</ele>
        <time>2025-10-05T10:30:24.000Z</time>
      </trkpt>
      <trkpt lat="49.59198" lon="3.42978">
        <ele>144.7</ele>
        <time>2025-10-05T10:30:25.000Z</time>
      </trkpt>
      <trkpt lat="49.59199" lon="3.42979">
        <ele>144.5</ele>
        <time>2025-10-05T10:30:26.000Z</time>
      </trkpt>
      <trkpt lat="49.59199" lon="3.42979">
        <ele>144.4</ele>
        <time>2025-10-05T10:30:27.000Z</time>
      </trkpt>
      <trkpt lat="49.592" lon="3.4298">
        <ele>144.2</ele>
        <time>2025-10-05T10:30:28.000Z</time>
      </trkpt>
      <trkpt lat="49.59201" lon="3.42982">
        <ele>144.1</ele>
        <time>2025-10-05T10:30:29.000Z</time>
      </trkpt>
      <trkpt lat="49.59202" lon="3.42983">
        <ele>143.9</ele>
        <time>2025-10-05T10:30:30.000Z</time>
      </trkpt>
      <trkpt lat="49.59203" lon="3.42985">
        <ele>143.6</ele>
        <time>2025-10-05T10:30:31.000Z</time>
      </trkpt>
      <trkpt lat="49.59204" lon="3.42986">
        <ele>143.7</ele>
        <time>2025-10-05T10:30:32.000Z</time>
      </trkpt>
      <trkpt lat="49.59205" lon="3.42987">
        <ele>143.8</ele>
        <time>2025-10-05T10:30:33.000Z</time>
      </trkpt>
      <trkpt lat="49.59206" lon="3.42989">
        <ele>144.1</ele>
        <time>2025-10-05T10:30:34.000Z</time>
      </trkpt>
      <trkpt lat="49.59206" lon="3.42992">
        <ele>144.2</ele>
        <time>2025-10-05T10:30:35.000Z</time>
      </trkpt>
      <trkpt lat="49.59207" lon="3.42994">
        <ele>144.5</ele>
        <time>2025-10-05T10:30:36.000Z</time>
      </trkpt>
      <trkpt lat="49.59207" lon="3.42996">
        <ele>144.7</ele>
        <time>2025-10-05T10:30:37.000Z</time>
      </trkpt>
      <trkpt lat="49.59208" lon="3.42998">
        <ele>144.9</ele>
        <time>2025-10-05T10:30:38.000Z</time>
      </trkpt>
      <trkpt lat="49.5921" lon="3.43">
        <ele>144.9</ele>
        <time>2025-10-05T10:30:39.000Z</time>
      </trkpt>
      <trkpt lat="49.59211" lon="3.43001">
        <ele>144.9</ele>
        <time>2025-10-05T10:30:40.000Z</time>
      </trkpt>
      <trkpt lat="49.59211" lon="3.43003">
        <ele>144.8</ele>
        <time>2025-10-05T10:30:41.000Z</time>
      </trkpt>
      <trkpt lat="49.59212" lon="3.43004">
        <ele>144.4</ele>
        <time>2025-10-05T10:30:42.000Z</time>
      </trkpt>
      <trkpt lat="49.59212" lon="3.43006">
        <ele>143.5</ele>
        <time>2025-10-05T10:30:43.000Z</time>
      </trkpt>
      <trkpt lat="49.59212" lon="3.43007">
        <ele>142.8</ele>
        <time>2025-10-05T10:30:44.000Z</time>
      </trkpt>
      <trkpt lat="49.59212" lon="3.43008">
        <ele>142.3</ele>
        <time>2025-10-05T10:30:45.000Z</time>
      </trkpt>
      <trkpt lat="49.59212" lon="3.43009">
        <ele>141.9</ele>
        <time>2025-10-05T10:30:46.000Z</time>
      </trkpt>
      <trkpt lat="49.59212" lon="3.4301">
        <ele>141.5</ele>
        <time>2025-10-05T10:30:47.000Z</time>
      </trkpt>
      <trkpt lat="49.59213" lon="3.43011">
        <ele>141.1</ele>
        <time>2025-10-05T10:30:48.000Z</time>
      </trkpt>
      <trkpt lat="49.59213" lon="3.43013">
        <ele>140.6</ele>
        <time>2025-10-05T10:30:49.000Z</time>
      </trkpt>
      <trkpt lat="49.59213" lon="3.43014">
        <ele>140.1</ele>
        <time>2025-10-05T10:30:50.000Z</time>
      </trkpt>
      <trkpt lat="49.59213" lon="3.43016">
        <ele>139.8</ele>
        <time>2025-10-05T10:30:51.000Z</time>
      </trkpt>
      <trkpt lat="49.59213" lon="3.43017">
        <ele>139.5</ele>
        <time>2025-10-05T10:30:52.000Z</time>
      </trkpt>
      <trkpt lat="49.59213" lon="3.43018">
        <ele>139.4</ele>
        <time>2025-10-05T10:30:53.000Z</time>
      </trkpt>
      <trkpt lat="49.59213" lon="3.43019">
        <ele>139.4</ele>
        <time>2025-10-05T10:30:54.000Z</time>
      </trkpt>
      <trkpt lat="49.59214" lon="3.4302">
        <ele>139.7</ele>
        <time>2025-10-05T10:30:55.000Z</time>
      </trkpt>
      <trkpt lat="49.59214" lon="3.43021">
        <ele>140.2</ele>
        <time>2025-10-05T10:30:56.000Z</time>
      </trkpt>
      <trkpt lat="49.59214" lon="3.43022">
        <ele>140.6</ele>
        <time>2025-10-05T10:30:57.000Z</time>
      </trkpt>
      <trkpt lat="49.59214" lon="3.43023">
        <ele>140.9</ele>
        <time>2025-10-05T10:30:58.000Z</time>
      </trkpt>
      <trkpt lat="49.59214" lon="3.43024">
        <ele>141</ele>
        <time>2025-10-05T10:30:59.000Z</time>
      </trkpt>
      <trkpt lat="49.59213" lon="3.43024">
        <ele>141.1</ele>
        <time>2025-10-05T10:31:00.000Z</time>
      </trkpt>
      <trkpt lat="49.59213" lon="3.43025">
        <ele>141.4</ele>
        <time>2025-10-05T10:31:01.000Z</time>
      </trkpt>
      <trkpt lat="49.59213" lon="3.43025">
        <ele>141.6</ele>
        <time>2025-10-05T10:31:02.000Z</time>
      </trkpt>
      <trkpt lat="49.59213" lon="3.43025">
        <ele>141.8</ele>
        <time>2025-10-05T10:31:03.000Z</time>
      </trkpt>
      <trkpt lat="49.59213" lon="3.43026">
        <ele>141.9</ele>
        <time>2025-10-05T10:31:04.000Z</time>
      </trkpt>
      <trkpt lat="49.59214" lon="3.43026">
        <ele>142.1</ele>
        <time>2025-10-05T10:31:05.000Z</time>
      </trkpt>
      <trkpt lat="49.59214" lon="3.43027">
        <ele>142.2</ele>
        <time>2025-10-05T10:31:06.000Z</time>
      </trkpt>
      <trkpt lat="49.59215" lon="3.43027">
        <ele>142.2</ele>
        <time>2025-10-05T10:31:07.000Z</time>
      </trkpt>
      <trkpt lat="49.59215" lon="3.43028">
        <ele>142.4</ele>
        <time>2025-10-05T10:31:08.000Z</time>
      </trkpt>
      <trkpt lat="49.59216" lon="3.43029">
        <ele>142.9</ele>
        <time>2025-10-05T10:31:09.000Z</time>
      </trkpt>
      <trkpt lat="49.59217" lon="3.4303">
        <ele>143.2</ele>
        <time>2025-10-05T10:31:10.000Z</time>
      </trkpt>
      <trkpt lat="49.59216" lon="3.43031">
        <ele>143</ele>
        <time>2025-10-05T10:31:11.000Z</time>
      </trkpt>
      <trkpt lat="49.59216" lon="3.43032">
        <ele>143</ele>
        <time>2025-10-05T10:31:12.000Z</time>
      </trkpt>
      <trkpt lat="49.59215" lon="3.43032">
        <ele>143.1</ele>
        <time>2025-10-05T10:31:13.000Z</time>
      </trkpt>
      <trkpt lat="49.59215" lon="3.43032">
        <ele>142.9</ele>
        <time>2025-10-05T10:31:14.000Z</time>
      </trkpt>
      <trkpt lat="49.59215" lon="3.43031">
        <ele>143.1</ele>
        <time>2025-10-05T10:31:15.000Z</time>
      </trkpt>
      <trkpt lat="49.59215" lon="3.43031">
        <ele>143.5</ele>
        <time>2025-10-05T10:31:16.000Z</time>
      </trkpt>
      <trkpt lat="49.59215" lon="3.43031">
        <ele>143.9</ele>
        <time>2025-10-05T10:31:17.000Z</time>
      </trkpt>
      <trkpt lat="49.59215" lon="3.43031">
        <ele>144.5</ele>
        <time>2025-10-05T10:31:18.000Z</time>
      </trkpt>
      <trkpt lat="49.59215" lon="3.43031">
        <ele>144.6</ele>
        <time>2025-10-05T10:31:19.000Z</time>
      </trkpt>
      <trkpt lat="49.59215" lon="3.43031">
        <ele>144.7</ele>
        <time>2025-10-05T10:31:20.000Z</time>
      </trkpt>
      <trkpt lat="49.59215" lon="3.43031">
        <ele>144.7</ele>
        <time>2025-10-05T10:31:21.000Z</time>
      </trkpt>
      <trkpt lat="49.59215" lon="3.43031">
        <ele>144.7</ele>
        <time>2025-10-05T10:31:22.000Z</time>
      </trkpt>
      <trkpt lat="49.59215" lon="3.43031">
        <ele>144.7</ele>
        <time>2025-10-05T10:31:23.000Z</time>
      </trkpt>
      <trkpt lat="49.59215" lon="3.43031">
        <ele>144.7</ele>
        <time>2025-10-05T10:31:24.000Z</time>
      </trkpt>
      <trkpt lat="49.59215" lon="3.43031">
        <ele>144.7</ele>
        <time>2025-10-05T10:31:25.000Z</time>
      </trkpt>
      <trkpt lat="49.59215" lon="3.43031">
        <ele>144.7</ele>
        <time>2025-10-05T10:31:26.000Z</time>
      </trkpt>
      <trkpt lat="49.59215" lon="3.43031">
        <ele>144.7</ele>
        <time>2025-10-05T10:31:27.000Z</time>
      </trkpt>
      <trkpt lat="49.59215" lon="3.43031">
        <ele>144.7</ele>
        <time>2025-10-05T10:31:28.000Z</time>
      </trkpt>
      <trkpt lat="49.59215" lon="3.43031">
        <ele>144.7</ele>
        <time>2025-10-05T10:31:29.000Z</time>
      </trkpt>
      <trkpt lat="49.59215" lon="3.43031">
        <ele>144.7</ele>
        <time>2025-10-05T10:31:30.000Z</time>
      </trkpt>
      <trkpt lat="49.59215" lon="3.43031">
        <ele>144.7</ele>
        <time>2025-10-05T10:31:31.000Z</time>
      </trkpt>
      <trkpt lat="49.59215" lon="3.43031">
        <ele>144.7</ele>
        <time>2025-10-05T10:31:32.000Z</time>
      </trkpt>
      <trkpt lat="49.59215" lon="3.43031">
        <ele>144.7</ele>
        <time>2025-10-05T10:31:33.000Z</time>
      </trkpt>
      <trkpt lat="49.59215" lon="3.43031">
        <ele>144.7</ele>
        <time>2025-10-05T10:31:34.000Z</time>
      </trkpt>
      <trkpt lat="49.59215" lon="3.43031">
        <ele>144.7</ele>
        <time>2025-10-05T10:31:35.000Z</time>
      </trkpt>
      <trkpt lat="49.59215" lon="3.43031">
        <ele>144.7</ele>
        <time>2025-10-05T10:31:36.000Z</time>
      </trkpt>
      <trkpt lat="49.59215" lon="3.43031">
        <ele>144.7</ele>
        <time>2025-10-05T10:31:37.000Z</time>
      </trkpt>
      <trkpt lat="49.59215" lon="3.43031">
        <ele>144.7</ele>
        <time>2025-10-05T10:31:38.000Z</time>
      </trkpt>
      <trkpt lat="49.59215" lon="3.43031">
        <ele>144.7</ele>
        <time>2025-10-05T10:31:39.000Z</time>
      </trkpt>
      <trkpt lat="49.59215" lon="3.43031">
        <ele>144.7</ele>
        <time>2025-10-05T10:31:40.000Z</time>
      </trkpt>
      <trkpt lat="49.59215" lon="3.43031">
        <ele>144.7</ele>
        <time>2025-10-05T10:31:41.000Z</time>
      </trkpt>
      <trkpt lat="49.59215" lon="3.43031">
        <ele>144.7</ele>
        <time>2025-10-05T10:31:42.000Z</time>
      </trkpt>
      <trkpt lat="49.59215" lon="3.43031">
        <ele>144.7</ele>
        <time>2025-10-05T10:31:43.000Z</time>
      </trkpt>
      <trkpt lat="49.59215" lon="3.43031">
        <ele>144.7</ele>
        <time>2025-10-05T10:31:44.000Z</time>
      </trkpt>
      <trkpt lat="49.59215" lon="3.43031">
        <ele>144.7</ele>
        <time>2025-10-05T10:31:45.000Z</time>
      </trkpt>
      <trkpt lat="49.59215" lon="3.43031">
        <ele>144.7</ele>
        <time>2025-10-05T10:31:46.000Z</time>
      </trkpt>
      <trkpt lat="49.59215" lon="3.43031">
        <ele>144.7</ele>
        <time>2025-10-05T10:31:47.000Z</time>
      </trkpt>
      <trkpt lat="49.59215" lon="3.43031">
        <ele>144.7</ele>
        <time>2025-10-05T10:31:48.000Z</time>
      </trkpt>
      <trkpt lat="49.59215" lon="3.43031">
        <ele>144.7</ele>
        <time>2025-10-05T10:31:49.000Z</time>
      </trkpt>
      <trkpt lat="49.59215" lon="3.43031">
        <ele>144.7</ele>
        <time>2025-10-05T10:31:50.000Z</time>
      </trkpt>
      <trkpt lat="49.59215" lon="3.43031">
        <ele>144.7</ele>
        <time>2025-10-05T10:31:51.000Z</time>
      </trkpt>
      <trkpt lat="49.59215" lon="3.43031">
        <ele>144.7</ele>
        <time>2025-10-05T10:31:52.000Z</time>
      </trkpt>
      <trkpt lat="49.59215" lon="3.43031">
        <ele>144.7</ele>
        <time>2025-10-05T10:31:53.000Z</time>
      </trkpt>
      <trkpt lat="49.59215" lon="3.43031">
        <ele>144.7</ele>
        <time>2025-10-05T10:31:54.000Z</time>
      </trkpt>
      <trkpt lat="49.59215" lon="3.43031">
        <ele>144.7</ele>
        <time>2025-10-05T10:31:55.000Z</time>
      </trkpt>
      <trkpt lat="49.59215" lon="3.43031">
        <ele>144.7</ele>
        <time>2025-10-05T10:31:56.000Z</time>
      </trkpt>
      <trkpt lat="49.59215" lon="3.43031">
        <ele>144.7</ele>
        <time>2025-10-05T10:31:57.000Z</time>
      </trkpt>
      <trkpt lat="49.59215" lon="3.43031">
        <ele>144.7</ele>
        <time>2025-10-05T10:31:58.000Z</time>
      </trkpt>
      <trkpt lat="49.59215" lon="3.43031">
        <ele>144.7</ele>
        <time>2025-10-05T10:31:59.000Z</time>
      </trkpt>
      <trkpt lat="49.59215" lon="3.43031">
        <ele>144.7</ele>
        <time>2025-10-05T10:32:00.000Z</time>
      </trkpt>
      <trkpt lat="49.59215" lon="3.43031">
        <ele>144.7</ele>
        <time>2025-10-05T10:32:01.000Z</time>
      </trkpt>
      <trkpt lat="49.59215" lon="3.43031">
        <ele>144.7</ele>
        <time>2025-10-05T10:32:02.000Z</time>
      </trkpt>
      <trkpt lat="49.59215" lon="3.43031">
        <ele>144.7</ele>
        <time>2025-10-05T10:32:03.000Z</time>
      </trkpt>
      <trkpt lat="49.59215" lon="3.43031">
        <ele>144.7</ele>
        <time>2025-10-05T10:32:04.000Z</time>
      </trkpt>
      <trkpt lat="49.59215" lon="3.43031">
        <ele>144.7</ele>
        <time>2025-10-05T10:32:05.000Z</time>
      </trkpt>
      <trkpt lat="49.59215" lon="3.43031">
        <ele>144.7</ele>
        <time>2025-10-05T10:32:06.000Z</time>
      </trkpt>
      <trkpt lat="49.59215" lon="3.43031">
        <ele>144.7</ele>
        <time>2025-10-05T10:32:07.000Z</time>
      </trkpt>
      <trkpt lat="49.59215" lon="3.43031">
        <ele>144.7</ele>
        <time>2025-10-05T10:32:08.000Z</time>
      </trkpt>
      <trkpt lat="49.59215" lon="3.43031">
        <ele>144.7</ele>
        <time>2025-10-05T10:32:09.000Z</time>
      </trkpt>
      <trkpt lat="49.59215" lon="3.43031">
        <ele>144.7</ele>
        <time>2025-10-05T10:32:10.000Z</time>
      </trkpt>
      <trkpt lat="49.59215" lon="3.43031">
        <ele>144.7</ele>
        <time>2025-10-05T10:32:11.000Z</time>
      </trkpt>
      <trkpt lat="49.59215" lon="3.43031">
        <ele>144.7</ele>
        <time>2025-10-05T10:32:12.000Z</time>
      </trkpt>
      <trkpt lat="49.59215" lon="3.43031">
        <ele>144.7</ele>
        <time>2025-10-05T10:32:13.000Z</time>
      </trkpt>
      <trkpt lat="49.59215" lon="3.43031">
        <ele>144.7</ele>
        <time>2025-10-05T10:32:14.000Z</time>
      </trkpt>
      <trkpt lat="49.59215" lon="3.43031">
        <ele>144.7</ele>
        <time>2025-10-05T10:32:15.000Z</time>
      </trkpt>
      <trkpt lat="49.59215" lon="3.43031">
        <ele>144.7</ele>
        <time>2025-10-05T10:32:16.000Z</time>
      </trkpt>
      <trkpt lat="49.59215" lon="3.43031">
        <ele>144.7</ele>
        <time>2025-10-05T10:32:17.000Z</time>
      </trkpt>
      <trkpt lat="49.59215" lon="3.43031">
        <ele>144.7</ele>
        <time>2025-10-05T10:32:18.000Z</time>
      </trkpt>
      <trkpt lat="49.59215" lon="3.43031">
        <ele>144.7</ele>
        <time>2025-10-05T10:32:19.000Z</time>
      </trkpt>
      <trkpt lat="49.59215" lon="3.43031">
        <ele>144.7</ele>
        <time>2025-10-05T10:32:20.000Z</time>
      </trkpt>
      <trkpt lat="49.59215" lon="3.43031">
        <ele>144.7</ele>
        <time>2025-10-05T10:32:21.000Z</time>
      </trkpt>
      <trkpt lat="49.59215" lon="3.43031">
        <ele>144.7</ele>
        <time>2025-10-05T10:32:22.000Z</time>
      </trkpt>
      <trkpt lat="49.59215" lon="3.43031">
        <ele>144.7</ele>
        <time>2025-10-05T10:32:23.000Z</time>
      </trkpt>
      <trkpt lat="49.59215" lon="3.43031">
        <ele>144.7</ele>
        <time>2025-10-05T10:32:24.000Z</time>
      </trkpt>
      <trkpt lat="49.59215" lon="3.43031">
        <ele>144.7</ele>
        <time>2025-10-05T10:32:25.000Z</time>
      </trkpt>
      <trkpt lat="49.59215" lon="3.43031">
        <ele>144.7</ele>
        <time>2025-10-05T10:32:26.000Z</time>
      </trkpt>
      <trkpt lat="49.59215" lon="3.43031">
        <ele>144.7</ele>
        <time>2025-10-05T10:32:27.000Z</time>
      </trkpt>
      <trkpt lat="49.59215" lon="3.43031">
        <ele>144.7</ele>
        <time>2025-10-05T10:32:28.000Z</time>
      </trkpt>
      <trkpt lat="49.59215" lon="3.43031">
        <ele>144.7</ele>
        <time>2025-10-05T10:32:29.000Z</time>
      </trkpt>
      <trkpt lat="49.59215" lon="3.43031">
        <ele>144.7</ele>
        <time>2025-10-05T10:32:30.000Z</time>
      </trkpt>
      <trkpt lat="49.59215" lon="3.43031">
        <ele>144.7</ele>
        <time>2025-10-05T10:32:31.000Z</time>
      </trkpt>
      <trkpt lat="49.59215" lon="3.43031">
        <ele>144.7</ele>
        <time>2025-10-05T10:32:32.000Z</time>
      </trkpt>
      <trkpt lat="49.59215" lon="3.43031">
        <ele>144.7</ele>
        <time>2025-10-05T10:32:33.000Z</time>
      </trkpt>
      <trkpt lat="49.59215" lon="3.43031">
        <ele>144.7</ele>
        <time>2025-10-05T10:32:34.000Z</time>
      </trkpt>
      <trkpt lat="49.59215" lon="3.43031">
        <ele>144.7</ele>
        <time>2025-10-05T10:32:35.000Z</time>
      </trkpt>
      <trkpt lat="49.59215" lon="3.43031">
        <ele>144.7</ele>
        <time>2025-10-05T10:32:36.000Z</time>
      </trkpt>
      <trkpt lat="49.59215" lon="3.43031">
        <ele>140.2</ele>
        <time>2025-10-05T10:32:37.000Z</time>
      </trkpt>
      <trkpt lat="49.59215" lon="3.43031">
        <ele>140.2</ele>
        <time>2025-10-05T10:32:38.000Z</time>
      </trkpt>
      <trkpt lat="49.59215" lon="3.43031">
        <ele>140.2</ele>
        <time>2025-10-05T10:32:39.000Z</time>
      </trkpt>
      <trkpt lat="49.59215" lon="3.43031">
        <ele>140.2</ele>
        <time>2025-10-05T10:32:40.000Z</time>
      </trkpt>
      <trkpt lat="49.59215" lon="3.43031">
        <ele>140.2</ele>
        <time>2025-10-05T10:32:41.000Z</time>
      </trkpt>
      <trkpt lat="49.59215" lon="3.43031">
        <ele>140.2</ele>
        <time>2025-10-05T10:32:42.000Z</time>
      </trkpt>
      <trkpt lat="49.59215" lon="3.43031">
        <ele>140.2</ele>
        <time>2025-10-05T10:32:43.000Z</time>
      </trkpt>
      <trkpt lat="49.59215" lon="3.43031">
        <ele>140.2</ele>
        <time>2025-10-05T10:32:44.000Z</time>
      </trkpt>
      <trkpt lat="49.59215" lon="3.43031">
        <ele>140.2</ele>
        <time>2025-10-05T10:32:45.000Z</time>
      </trkpt>
      <trkpt lat="49.59215" lon="3.43031">
        <ele>140.2</ele>
        <time>2025-10-05T10:32:46.000Z</time>
      </trkpt>
      <trkpt lat="49.59215" lon="3.43031">
        <ele>140.2</ele>
        <time>2025-10-05T10:32:47.000Z</time>
      </trkpt>
      <trkpt lat="49.59215" lon="3.43031">
        <ele>140.2</ele>
        <time>2025-10-05T10:32:48.000Z</time>
      </trkpt>
      <trkpt lat="49.59215" lon="3.43031">
        <ele>140.2</ele>
        <time>2025-10-05T10:32:49.000Z</time>
      </trkpt>
      <trkpt lat="49.59215" lon="3.43031">
        <ele>140.2</ele>
        <time>2025-10-05T10:32:50.000Z</time>
      </trkpt>
      <trkpt lat="49.59215" lon="3.43031">
        <ele>140.2</ele>
        <time>2025-10-05T10:32:51.000Z</time>
      </trkpt>
      <trkpt lat="49.59215" lon="3.43031">
        <ele>140.2</ele>
        <time>2025-10-05T10:32:52.000Z</time>
      </trkpt>
      <trkpt lat="49.59215" lon="3.43031">
        <ele>140.2</ele>
        <time>2025-10-05T10:32:53.000Z</time>
      </trkpt>
      <trkpt lat="49.59215" lon="3.43031">
        <ele>140.2</ele>
        <time>2025-10-05T10:32:54.000Z</time>
      </trkpt>
      <trkpt lat="49.59215" lon="3.43031">
        <ele>140.2</ele>
        <time>2025-10-05T10:32:55.000Z</time>
      </trkpt>
      <trkpt lat="49.59216" lon="3.43029">
        <ele>142</ele>
        <time>2025-10-05T10:32:56.000Z</time>
      </trkpt>
      <trkpt lat="49.59216" lon="3.43029">
        <ele>142.1</ele>
        <time>2025-10-05T10:32:57.000Z</time>
      </trkpt>
      <trkpt lat="49.59216" lon="3.4303">
        <ele>142.1</ele>
        <time>2025-10-05T10:32:58.000Z</time>
      </trkpt>
      <trkpt lat="49.59215" lon="3.43029">
        <ele>142.2</ele>
        <time>2025-10-05T10:32:59.000Z</time>
      </trkpt>
      <trkpt lat="49.59215" lon="3.43029">
        <ele>142</ele>
        <time>2025-10-05T10:33:00.000Z</time>
      </trkpt>
      <trkpt lat="49.59215" lon="3.43029">
        <ele>142</ele>
        <time>2025-10-05T10:33:01.000Z</time>
      </trkpt>
      <trkpt lat="49.59215" lon="3.43029">
        <ele>142</ele>
        <time>2025-10-05T10:33:02.000Z</time>
      </trkpt>
      <trkpt lat="49.59215" lon="3.43029">
        <ele>142</ele>
        <time>2025-10-05T10:33:03.000Z</time>
      </trkpt>
      <trkpt lat="49.59215" lon="3.43029">
        <ele>142</ele>
        <time>2025-10-05T10:33:04.000Z</time>
      </trkpt>
      <trkpt lat="49.59215" lon="3.43029">
        <ele>142</ele>
        <time>2025-10-05T10:33:05.000Z</time>
      </trkpt>
      <trkpt lat="49.59215" lon="3.43029">
        <ele>142</ele>
        <time>2025-10-05T10:33:06.000Z</time>
      </trkpt>
      <trkpt lat="49.59215" lon="3.43029">
        <ele>142</ele>
        <time>2025-10-05T10:33:07.000Z</time>
      </trkpt>
      <trkpt lat="49.59215" lon="3.43029">
        <ele>142</ele>
        <time>2025-10-05T10:33:08.000Z</time>
      </trkpt>
      <trkpt lat="49.59215" lon="3.43029">
        <ele>142</ele>
        <time>2025-10-05T10:33:09.000Z</time>
      </trkpt>
      <trkpt lat="49.59215" lon="3.43029">
        <ele>142</ele>
        <time>2025-10-05T10:33:10.000Z</time>
      </trkpt>
      <trkpt lat="49.59215" lon="3.43029">
        <ele>142</ele>
        <time>2025-10-05T10:33:11.000Z</time>
      </trkpt>
      <trkpt lat="49.59215" lon="3.43029">
        <ele>142</ele>
        <time>2025-10-05T10:33:12.000Z</time>
      </trkpt>
      <trkpt lat="49.59214" lon="3.43034">
        <ele>140</ele>
        <time>2025-10-05T10:33:13.000Z</time>
      </trkpt>
      <trkpt lat="49.59215" lon="3.43034">
        <ele>139.9</ele>
        <time>2025-10-05T10:33:14.000Z</time>
      </trkpt>
      <trkpt lat="49.59216" lon="3.43035">
        <ele>139.6</ele>
        <time>2025-10-05T10:33:15.000Z</time>
      </trkpt>
      <trkpt lat="49.59216" lon="3.43036">
        <ele>139.4</ele>
        <time>2025-10-05T10:33:16.000Z</time>
      </trkpt>
      <trkpt lat="49.59217" lon="3.43037">
        <ele>139.2</ele>
        <time>2025-10-05T10:33:17.000Z</time>
      </trkpt>
      <trkpt lat="49.59218" lon="3.43037">
        <ele>139.2</ele>
        <time>2025-10-05T10:33:18.000Z</time>
      </trkpt>
      <trkpt lat="49.59219" lon="3.43037">
        <ele>139.3</ele>
        <time>2025-10-05T10:33:19.000Z</time>
      </trkpt>
      <trkpt lat="49.5922" lon="3.43036">
        <ele>139.4</ele>
        <time>2025-10-05T10:33:20.000Z</time>
      </trkpt>
      <trkpt lat="49.59221" lon="3.43036">
        <ele>139.5</ele>
        <time>2025-10-05T10:33:21.000Z</time>
      </trkpt>
      <trkpt lat="49.59222" lon="3.43036">
        <ele>139.5</ele>
        <time>2025-10-05T10:33:22.000Z</time>
      </trkpt>
      <trkpt lat="49.59223" lon="3.43037">
        <ele>139.3</ele>
        <time>2025-10-05T10:33:23.000Z</time>
      </trkpt>
      <trkpt lat="49.59224" lon="3.43039">
        <ele>138.9</ele>
        <time>2025-10-05T10:33:24.000Z</time>
      </trkpt>
      <trkpt lat="49.59225" lon="3.43041">
        <ele>138.6</ele>
        <time>2025-10-05T10:33:25.000Z</time>
      </trkpt>
      <trkpt lat="49.59226" lon="3.43042">
        <ele>138.4</ele>
        <time>2025-10-05T10:33:26.000Z</time>
      </trkpt>
      <trkpt lat="49.59227" lon="3.43044">
        <ele>138.2</ele>
        <time>2025-10-05T10:33:27.000Z</time>
      </trkpt>
      <trkpt lat="49.59227" lon="3.43045">
        <ele>138.5</ele>
        <time>2025-10-05T10:33:28.000Z</time>
      </trkpt>
      <trkpt lat="49.59228" lon="3.43046">
        <ele>138.4</ele>
        <time>2025-10-05T10:33:29.000Z</time>
      </trkpt>
      <trkpt lat="49.59229" lon="3.43046">
        <ele>138.5</ele>
        <time>2025-10-05T10:33:30.000Z</time>
      </trkpt>
      <trkpt lat="49.59229" lon="3.43047">
        <ele>138.5</ele>
        <time>2025-10-05T10:33:31.000Z</time>
      </trkpt>
      <trkpt lat="49.59229" lon="3.43048">
        <ele>138.2</ele>
        <time>2025-10-05T10:33:32.000Z</time>
      </trkpt>
      <trkpt lat="49.5923" lon="3.43049">
        <ele>138.2</ele>
        <time>2025-10-05T10:33:33.000Z</time>
      </trkpt>
      <trkpt lat="49.5923" lon="3.4305">
        <ele>137.9</ele>
        <time>2025-10-05T10:33:34.000Z</time>
      </trkpt>
      <trkpt lat="49.59231" lon="3.43052">
        <ele>137.8</ele>
        <time>2025-10-05T10:33:35.000Z</time>
      </trkpt>
      <trkpt lat="49.59231" lon="3.43053">
        <ele>137.8</ele>
        <time>2025-10-05T10:33:36.000Z</time>
      </trkpt>
      <trkpt lat="49.59232" lon="3.43055">
        <ele>137.6</ele>
        <time>2025-10-05T10:33:37.000Z</time>
      </trkpt>
      <trkpt lat="49.59232" lon="3.43056">
        <ele>137.2</ele>
        <time>2025-10-05T10:33:38.000Z</time>
      </trkpt>
      <trkpt lat="49.59232" lon="3.43058">
        <ele>136.7</ele>
        <time>2025-10-05T10:33:39.000Z</time>
      </trkpt>
      <trkpt lat="49.59232" lon="3.43059">
        <ele>136.7</ele>
        <time>2025-10-05T10:33:40.000Z</time>
      </trkpt>
      <trkpt lat="49.59233" lon="3.4306">
        <ele>136.8</ele>
        <time>2025-10-05T10:33:41.000Z</time>
      </trkpt>
      <trkpt lat="49.59233" lon="3.43061">
        <ele>136.7</ele>
        <time>2025-10-05T10:33:42.000Z</time>
      </trkpt>
      <trkpt lat="49.59233" lon="3.43062">
        <ele>136.6</ele>
        <time>2025-10-05T10:33:43.000Z</time>
      </trkpt>
      <trkpt lat="49.59234" lon="3.43063">
        <ele>136.3</ele>
        <time>2025-10-05T10:33:44.000Z</time>
      </trkpt>
      <trkpt lat="49.59234" lon="3.43065">
        <ele>136</ele>
        <time>2025-10-05T10:33:45.000Z</time>
      </trkpt>
      <trkpt lat="49.59234" lon="3.43066">
        <ele>135.9</ele>
        <time>2025-10-05T10:33:46.000Z</time>
      </trkpt>
      <trkpt lat="49.59234" lon="3.43067">
        <ele>135.9</ele>
        <time>2025-10-05T10:33:47.000Z</time>
      </trkpt>
      <trkpt lat="49.59234" lon="3.43068">
        <ele>135.8</ele>
        <time>2025-10-05T10:33:48.000Z</time>
      </trkpt>
      <trkpt lat="49.59235" lon="3.43069">
        <ele>135.5</ele>
        <time>2025-10-05T10:33:49.000Z</time>
      </trkpt>
      <trkpt lat="49.59235" lon="3.4307">
        <ele>135.3</ele>
        <time>2025-10-05T10:33:50.000Z</time>
      </trkpt>
      <trkpt lat="49.59235" lon="3.43071">
        <ele>135</ele>
        <time>2025-10-05T10:33:51.000Z</time>
      </trkpt>
      <trkpt lat="49.59235" lon="3.43072">
        <ele>135</ele>
        <time>2025-10-05T10:33:52.000Z</time>
      </trkpt>
      <trkpt lat="49.59235" lon="3.43074">
        <ele>135.1</ele>
        <time>2025-10-05T10:33:53.000Z</time>
      </trkpt>
      <trkpt lat="49.59236" lon="3.43075">
        <ele>135.1</ele>
        <time>2025-10-05T10:33:54.000Z</time>
      </trkpt>
      <trkpt lat="49.59236" lon="3.43076">
        <ele>135</ele>
        <time>2025-10-05T10:33:55.000Z</time>
      </trkpt>
      <trkpt lat="49.59236" lon="3.43078">
        <ele>134.8</ele>
        <time>2025-10-05T10:33:56.000Z</time>
      </trkpt>
      <trkpt lat="49.59236" lon="3.43079">
        <ele>134.5</ele>
        <time>2025-10-05T10:33:57.000Z</time>
      </trkpt>
      <trkpt lat="49.59236" lon="3.4308">
        <ele>134.3</ele>
        <time>2025-10-05T10:33:58.000Z</time>
      </trkpt>
      <trkpt lat="49.59236" lon="3.4308">
        <ele>134.1</ele>
        <time>2025-10-05T10:33:59.000Z</time>
      </trkpt>
      <trkpt lat="49.59236" lon="3.4308">
        <ele>134.1</ele>
        <time>2025-10-05T10:34:00.000Z</time>
      </trkpt>
      <trkpt lat="49.59236" lon="3.4308">
        <ele>134.1</ele>
        <time>2025-10-05T10:34:01.000Z</time>
      </trkpt>
      <trkpt lat="49.59236" lon="3.4308">
        <ele>134.1</ele>
        <time>2025-10-05T10:34:02.000Z</time>
      </trkpt>
      <trkpt lat="49.59236" lon="3.4308">
        <ele>134</ele>
        <time>2025-10-05T10:34:03.000Z</time>
      </trkpt>
      <trkpt lat="49.59236" lon="3.43081">
        <ele>134</ele>
        <time>2025-10-05T10:34:04.000Z</time>
      </trkpt>
      <trkpt lat="49.59236" lon="3.43081">
        <ele>134.1</ele>
        <time>2025-10-05T10:34:05.000Z</time>
      </trkpt>
      <trkpt lat="49.59236" lon="3.43081">
        <ele>134.1</ele>
        <time>2025-10-05T10:34:06.000Z</time>
      </trkpt>
      <trkpt lat="49.59236" lon="3.43081">
        <ele>134.1</ele>
        <time>2025-10-05T10:34:07.000Z</time>
      </trkpt>
      <trkpt lat="49.59236" lon="3.43081">
        <ele>134.1</ele>
        <time>2025-10-05T10:34:08.000Z</time>
      </trkpt>
      <trkpt lat="49.59236" lon="3.43081">
        <ele>134.1</ele>
        <time>2025-10-05T10:34:09.000Z</time>
      </trkpt>
      <trkpt lat="49.59236" lon="3.43081">
        <ele>134.1</ele>
        <time>2025-10-05T10:34:10.000Z</time>
      </trkpt>
      <trkpt lat="49.59236" lon="3.43081">
        <ele>134.1</ele>
        <time>2025-10-05T10:34:11.000Z</time>
      </trkpt>
      <trkpt lat="49.59236" lon="3.43081">
        <ele>134.1</ele>
        <time>2025-10-05T10:34:12.000Z</time>
      </trkpt>
      <trkpt lat="49.59236" lon="3.43082">
        <ele>134.2</ele>
        <time>2025-10-05T10:34:13.000Z</time>
      </trkpt>
      <trkpt lat="49.59236" lon="3.43083">
        <ele>134.4</ele>
        <time>2025-10-05T10:34:14.000Z</time>
      </trkpt>
      <trkpt lat="49.59236" lon="3.43083">
        <ele>134.4</ele>
        <time>2025-10-05T10:34:15.000Z</time>
      </trkpt>
      <trkpt lat="49.59236" lon="3.43083">
        <ele>134.2</ele>
        <time>2025-10-05T10:34:16.000Z</time>
      </trkpt>
      <trkpt lat="49.59236" lon="3.43084">
        <ele>134.3</ele>
        <time>2025-10-05T10:34:17.000Z</time>
      </trkpt>
      <trkpt lat="49.59237" lon="3.43084">
        <ele>134.3</ele>
        <time>2025-10-05T10:34:18.000Z</time>
      </trkpt>
      <trkpt lat="49.59237" lon="3.43084">
        <ele>134.2</ele>
        <time>2025-10-05T10:34:19.000Z</time>
      </trkpt>
      <trkpt lat="49.59237" lon="3.43084">
        <ele>134.1</ele>
        <time>2025-10-05T10:34:20.000Z</time>
      </trkpt>
      <trkpt lat="49.59237" lon="3.43084">
        <ele>134.1</ele>
        <time>2025-10-05T10:34:21.000Z</time>
      </trkpt>
      <trkpt lat="49.59237" lon="3.43084">
        <ele>134.1</ele>
        <time>2025-10-05T10:34:22.000Z</time>
      </trkpt>
      <trkpt lat="49.59237" lon="3.43084">
        <ele>134.1</ele>
        <time>2025-10-05T10:34:23.000Z</time>
      </trkpt>
      <trkpt lat="49.59237" lon="3.43084">
        <ele>134.1</ele>
        <time>2025-10-05T10:34:24.000Z</time>
      </trkpt>
      <trkpt lat="49.59237" lon="3.43084">
        <ele>134.1</ele>
        <time>2025-10-05T10:34:25.000Z</time>
      </trkpt>
      <trkpt lat="49.59237" lon="3.43084">
        <ele>134.1</ele>
        <time>2025-10-05T10:34:26.000Z</time>
      </trkpt>
      <trkpt lat="49.59237" lon="3.43084">
        <ele>134.1</ele>
        <time>2025-10-05T10:34:27.000Z</time>
      </trkpt>
      <trkpt lat="49.59237" lon="3.43084">
        <ele>134.1</ele>
        <time>2025-10-05T10:34:28.000Z</time>
      </trkpt>
      <trkpt lat="49.59237" lon="3.43084">
        <ele>134.1</ele>
        <time>2025-10-05T10:34:29.000Z</time>
      </trkpt>
      <trkpt lat="49.59237" lon="3.43084">
        <ele>134.1</ele>
        <time>2025-10-05T10:34:30.000Z</time>
      </trkpt>
      <trkpt lat="49.59236" lon="3.43083">
        <ele>132.6</ele>
        <time>2025-10-05T10:34:31.000Z</time>
      </trkpt>
      <trkpt lat="49.59235" lon="3.43082">
        <ele>132.3</ele>
        <time>2025-10-05T10:34:32.000Z</time>
      </trkpt>
      <trkpt lat="49.59235" lon="3.43082">
        <ele>132</ele>
        <time>2025-10-05T10:34:33.000Z</time>
      </trkpt>
      <trkpt lat="49.59234" lon="3.43081">
        <ele>131.8</ele>
        <time>2025-10-05T10:34:34.000Z</time>
      </trkpt>
      <trkpt lat="49.59234" lon="3.43081">
        <ele>131.8</ele>
        <time>2025-10-05T10:34:35.000Z</time>
      </trkpt>
      <trkpt lat="49.59234" lon="3.43081">
        <ele>132</ele>
        <time>2025-10-05T10:34:36.000Z</time>
      </trkpt>
      <trkpt lat="49.59234" lon="3.43081">
        <ele>132.3</ele>
        <time>2025-10-05T10:34:37.000Z</time>
      </trkpt>
      <trkpt lat="49.59235" lon="3.43081">
        <ele>132.7</ele>
        <time>2025-10-05T10:34:38.000Z</time>
      </trkpt>
      <trkpt lat="49.59235" lon="3.43081">
        <ele>132.7</ele>
        <time>2025-10-05T10:34:39.000Z</time>
      </trkpt>
      <trkpt lat="49.59235" lon="3.43081">
        <ele>132.7</ele>
        <time>2025-10-05T10:34:40.000Z</time>
      </trkpt>
      <trkpt lat="49.59235" lon="3.43081">
        <ele>132.7</ele>
        <time>2025-10-05T10:34:41.000Z</time>
      </trkpt>
      <trkpt lat="49.59235" lon="3.43081">
        <ele>132.7</ele>
        <time>2025-10-05T10:34:42.000Z</time>
      </trkpt>
      <trkpt lat="49.59235" lon="3.43081">
        <ele>132.7</ele>
        <time>2025-10-05T10:34:43.000Z</time>
      </trkpt>
      <trkpt lat="49.59235" lon="3.43081">
        <ele>132.7</ele>
        <time>2025-10-05T10:34:44.000Z</time>
      </trkpt>
      <trkpt lat="49.59235" lon="3.43081">
        <ele>132.7</ele>
        <time>2025-10-05T10:34:45.000Z</time>
      </trkpt>
      <trkpt lat="49.59235" lon="3.43081">
        <ele>132.7</ele>
        <time>2025-10-05T10:34:46.000Z</time>
      </trkpt>
      <trkpt lat="49.59235" lon="3.43081">
        <ele>132.7</ele>
        <time>2025-10-05T10:34:47.000Z</time>
      </trkpt>
      <trkpt lat="49.59235" lon="3.43081">
        <ele>132.7</ele>
        <time>2025-10-05T10:34:48.000Z</time>
      </trkpt>
      <trkpt lat="49.59235" lon="3.43081">
        <ele>132.7</ele>
        <time>2025-10-05T10:34:49.000Z</time>
      </trkpt>
      <trkpt lat="49.59235" lon="3.43081">
        <ele>132.7</ele>
        <time>2025-10-05T10:34:50.000Z</time>
      </trkpt>
      <trkpt lat="49.59235" lon="3.43081">
        <ele>132.7</ele>
        <time>2025-10-05T10:34:51.000Z</time>
      </trkpt>
      <trkpt lat="49.59235" lon="3.43081">
        <ele>132.7</ele>
        <time>2025-10-05T10:34:52.000Z</time>
      </trkpt>
      <trkpt lat="49.59235" lon="3.43081">
        <ele>132.7</ele>
        <time>2025-10-05T10:34:53.000Z</time>
      </trkpt>
      <trkpt lat="49.59235" lon="3.43081">
        <ele>132.7</ele>
        <time>2025-10-05T10:34:54.000Z</time>
      </trkpt>
      <trkpt lat="49.59235" lon="3.43081">
        <ele>132.7</ele>
        <time>2025-10-05T10:34:55.000Z</time>
      </trkpt>
      <trkpt lat="49.59235" lon="3.43081">
        <ele>132.7</ele>
        <time>2025-10-05T10:34:56.000Z</time>
      </trkpt>
      <trkpt lat="49.59235" lon="3.43081">
        <ele>132.7</ele>
        <time>2025-10-05T10:34:57.000Z</time>
      </trkpt>
      <trkpt lat="49.59235" lon="3.43081">
        <ele>132.7</ele>
        <time>2025-10-05T10:34:58.000Z</time>
      </trkpt>
      <trkpt lat="49.59235" lon="3.43081">
        <ele>132.7</ele>
        <time>2025-10-05T10:34:59.000Z</time>
      </trkpt>
      <trkpt lat="49.59235" lon="3.43081">
        <ele>132.7</ele>
        <time>2025-10-05T10:35:00.000Z</time>
      </trkpt>
      <trkpt lat="49.59235" lon="3.43081">
        <ele>132.7</ele>
        <time>2025-10-05T10:35:01.000Z</time>
      </trkpt>
      <trkpt lat="49.59235" lon="3.43081">
        <ele>132.7</ele>
        <time>2025-10-05T10:35:02.000Z</time>
      </trkpt>
      <trkpt lat="49.59235" lon="3.43081">
        <ele>132.7</ele>
        <time>2025-10-05T10:35:03.000Z</time>
      </trkpt>
      <trkpt lat="49.59235" lon="3.43081">
        <ele>132.7</ele>
        <time>2025-10-05T10:35:04.000Z</time>
      </trkpt>
      <trkpt lat="49.59235" lon="3.43081">
        <ele>132.7</ele>
        <time>2025-10-05T10:35:05.000Z</time>
      </trkpt>
      <trkpt lat="49.59235" lon="3.43081">
        <ele>132.7</ele>
        <time>2025-10-05T10:35:06.000Z</time>
      </trkpt>
      <trkpt lat="49.59235" lon="3.43081">
        <ele>132.7</ele>
        <time>2025-10-05T10:35:07.000Z</time>
      </trkpt>
      <trkpt lat="49.59235" lon="3.43081">
        <ele>132.7</ele>
        <time>2025-10-05T10:35:08.000Z</time>
      </trkpt>
      <trkpt lat="49.59235" lon="3.43081">
        <ele>132.7</ele>
        <time>2025-10-05T10:35:09.000Z</time>
      </trkpt>
      <trkpt lat="49.59235" lon="3.43081">
        <ele>132.7</ele>
        <time>2025-10-05T10:35:10.000Z</time>
      </trkpt>
      <trkpt lat="49.59235" lon="3.43081">
        <ele>132.7</ele>
        <time>2025-10-05T10:35:11.000Z</time>
      </trkpt>
      <trkpt lat="49.59235" lon="3.43081">
        <ele>132.7</ele>
        <time>2025-10-05T10:35:12.000Z</time>
      </trkpt>
      <trkpt lat="49.59235" lon="3.43081">
        <ele>132.7</ele>
        <time>2025-10-05T10:35:13.000Z</time>
      </trkpt>
      <trkpt lat="49.59235" lon="3.43081">
        <ele>132.7</ele>
        <time>2025-10-05T10:35:14.000Z</time>
      </trkpt>
      <trkpt lat="49.59235" lon="3.43081">
        <ele>132.7</ele>
        <time>2025-10-05T10:35:15.000Z</time>
      </trkpt>
      <trkpt lat="49.59235" lon="3.43081">
        <ele>132.7</ele>
        <time>2025-10-05T10:35:16.000Z</time>
      </trkpt>
      <trkpt lat="49.59235" lon="3.43081">
        <ele>132.7</ele>
        <time>2025-10-05T10:35:17.000Z</time>
      </trkpt>
      <trkpt lat="49.59235" lon="3.43081">
        <ele>132.7</ele>
        <time>2025-10-05T10:35:18.000Z</time>
      </trkpt>
      <trkpt lat="49.59235" lon="3.43081">
        <ele>132.7</ele>
        <time>2025-10-05T10:35:19.000Z</time>
      </trkpt>
      <trkpt lat="49.59235" lon="3.43081">
        <ele>132.7</ele>
        <time>2025-10-05T10:35:20.000Z</time>
      </trkpt>
      <trkpt lat="49.59235" lon="3.43081">
        <ele>132.7</ele>
        <time>2025-10-05T10:35:21.000Z</time>
      </trkpt>
      <trkpt lat="49.59235" lon="3.43081">
        <ele>132.7</ele>
        <time>2025-10-05T10:35:22.000Z</time>
      </trkpt>
      <trkpt lat="49.59235" lon="3.43081">
        <ele>132.7</ele>
        <time>2025-10-05T10:35:23.000Z</time>
      </trkpt>
      <trkpt lat="49.59235" lon="3.43081">
        <ele>132.7</ele>
        <time>2025-10-05T10:35:24.000Z</time>
      </trkpt>
      <trkpt lat="49.59235" lon="3.43081">
        <ele>132.7</ele>
        <time>2025-10-05T10:35:25.000Z</time>
      </trkpt>
      <trkpt lat="49.59235" lon="3.43081">
        <ele>132.7</ele>
        <time>2025-10-05T10:35:26.000Z</time>
      </trkpt>
      <trkpt lat="49.59235" lon="3.43081">
        <ele>132.7</ele>
        <time>2025-10-05T10:35:27.000Z</time>
      </trkpt>
      <trkpt lat="49.59235" lon="3.43081">
        <ele>132.7</ele>
        <time>2025-10-05T10:35:28.000Z</time>
      </trkpt>
      <trkpt lat="49.59235" lon="3.43081">
        <ele>132.7</ele>
        <time>2025-10-05T10:35:29.000Z</time>
      </trkpt>
      <trkpt lat="49.59235" lon="3.43081">
        <ele>132.7</ele>
        <time>2025-10-05T10:35:30.000Z</time>
      </trkpt>
      <trkpt lat="49.59235" lon="3.43081">
        <ele>132.7</ele>
        <time>2025-10-05T10:35:31.000Z</time>
      </trkpt>
      <trkpt lat="49.59235" lon="3.43081">
        <ele>132.7</ele>
        <time>2025-10-05T10:35:32.000Z</time>
      </trkpt>
      <trkpt lat="49.59235" lon="3.43081">
        <ele>132.7</ele>
        <time>2025-10-05T10:35:33.000Z</time>
      </trkpt>
      <trkpt lat="49.59235" lon="3.43081">
        <ele>132.7</ele>
        <time>2025-10-05T10:35:34.000Z</time>
      </trkpt>
      <trkpt lat="49.59235" lon="3.43081">
        <ele>132.7</ele>
        <time>2025-10-05T10:35:35.000Z</time>
      </trkpt>
      <trkpt lat="49.59235" lon="3.43081">
        <ele>132.7</ele>
        <time>2025-10-05T10:35:36.000Z</time>
      </trkpt>
      <trkpt lat="49.59235" lon="3.43081">
        <ele>132.7</ele>
        <time>2025-10-05T10:35:37.000Z</time>
      </trkpt>
      <trkpt lat="49.59235" lon="3.43081">
        <ele>132.7</ele>
        <time>2025-10-05T10:35:38.000Z</time>
      </trkpt>
      <trkpt lat="49.59235" lon="3.43081">
        <ele>132.7</ele>
        <time>2025-10-05T10:35:39.000Z</time>
      </trkpt>
      <trkpt lat="49.59233" lon="3.43081">
        <ele>131.7</ele>
        <time>2025-10-05T10:35:40.000Z</time>
      </trkpt>
      <trkpt lat="49.59233" lon="3.43081">
        <ele>131.8</ele>
        <time>2025-10-05T10:35:41.000Z</time>
      </trkpt>
      <trkpt lat="49.59233" lon="3.43081">
        <ele>131.8</ele>
        <time>2025-10-05T10:35:42.000Z</time>
      </trkpt>
      <trkpt lat="49.59233" lon="3.43082">
        <ele>132</ele>
        <time>2025-10-05T10:35:43.000Z</time>
      </trkpt>
      <trkpt lat="49.59233" lon="3.43081">
        <ele>132.1</ele>
        <time>2025-10-05T10:35:44.000Z</time>
      </trkpt>
      <trkpt lat="49.59233" lon="3.43081">
        <ele>132.2</ele>
        <time>2025-10-05T10:35:45.000Z</time>
      </trkpt>
      <trkpt lat="49.59233" lon="3.43081">
        <ele>132.2</ele>
        <time>2025-10-05T10:35:46.000Z</time>
      </trkpt>
      <trkpt lat="49.59233" lon="3.43081">
        <ele>132.2</ele>
        <time>2025-10-05T10:35:47.000Z</time>
      </trkpt>
      <trkpt lat="49.59233" lon="3.43081">
        <ele>132.2</ele>
        <time>2025-10-05T10:35:48.000Z</time>
      </trkpt>
      <trkpt lat="49.59233" lon="3.43081">
        <ele>132.2</ele>
        <time>2025-10-05T10:35:49.000Z</time>
      </trkpt>
      <trkpt lat="49.59233" lon="3.43081">
        <ele>132.2</ele>
        <time>2025-10-05T10:35:50.000Z</time>
      </trkpt>
      <trkpt lat="49.59233" lon="3.43081">
        <ele>132.2</ele>
        <time>2025-10-05T10:35:51.000Z</time>
      </trkpt>
      <trkpt lat="49.59233" lon="3.43081">
        <ele>132.2</ele>
        <time>2025-10-05T10:35:52.000Z</time>
      </trkpt>
      <trkpt lat="49.59233" lon="3.43081">
        <ele>132.2</ele>
        <time>2025-10-05T10:35:53.000Z</time>
      </trkpt>
      <trkpt lat="49.59233" lon="3.43081">
        <ele>132.2</ele>
        <time>2025-10-05T10:35:54.000Z</time>
      </trkpt>
      <trkpt lat="49.59233" lon="3.43081">
        <ele>132.2</ele>
        <time>2025-10-05T10:35:55.000Z</time>
      </trkpt>
      <trkpt lat="49.59233" lon="3.43081">
        <ele>132.2</ele>
        <time>2025-10-05T10:35:56.000Z</time>
      </trkpt>
      <trkpt lat="49.59233" lon="3.43081">
        <ele>132.2</ele>
        <time>2025-10-05T10:35:57.000Z</time>
      </trkpt>
      <trkpt lat="49.59233" lon="3.43081">
        <ele>132.2</ele>
        <time>2025-10-05T10:35:58.000Z</time>
      </trkpt>
      <trkpt lat="49.59233" lon="3.43081">
        <ele>132.2</ele>
        <time>2025-10-05T10:35:59.000Z</time>
      </trkpt>
      <trkpt lat="49.59233" lon="3.43081">
        <ele>132.2</ele>
        <time>2025-10-05T10:36:00.000Z</time>
      </trkpt>
      <trkpt lat="49.59233" lon="3.43081">
        <ele>132.2</ele>
        <time>2025-10-05T10:36:01.000Z</time>
      </trkpt>
      <trkpt lat="49.59233" lon="3.43081">
        <ele>132.2</ele>
        <time>2025-10-05T10:36:02.000Z</time>
      </trkpt>
      <trkpt lat="49.59233" lon="3.43081">
        <ele>132.2</ele>
        <time>2025-10-05T10:36:03.000Z</time>
      </trkpt>
      <trkpt lat="49.59233" lon="3.43081">
        <ele>132.2</ele>
        <time>2025-10-05T10:36:04.000Z</time>
      </trkpt>
      <trkpt lat="49.59233" lon="3.43081">
        <ele>133.1</ele>
        <time>2025-10-05T10:36:05.000Z</time>
      </trkpt>
      <trkpt lat="49.59233" lon="3.43081">
        <ele>133.1</ele>
        <time>2025-10-05T10:36:06.000Z</time>
      </trkpt>
      <trkpt lat="49.59233" lon="3.43081">
        <ele>133.1</ele>
        <time>2025-10-05T10:36:07.000Z</time>
      </trkpt>
      <trkpt lat="49.59233" lon="3.43081">
        <ele>133.1</ele>
        <time>2025-10-05T10:36:08.000Z</time>
      </trkpt>
      <trkpt lat="49.59233" lon="3.43081">
        <ele>133.1</ele>
        <time>2025-10-05T10:36:09.000Z</time>
      </trkpt>
      <trkpt lat="49.59233" lon="3.43081">
        <ele>133.1</ele>
        <time>2025-10-05T10:36:10.000Z</time>
      </trkpt>
      <trkpt lat="49.59233" lon="3.43081">
        <ele>133.1</ele>
        <time>2025-10-05T10:36:11.000Z</time>
      </trkpt>
      <trkpt lat="49.59233" lon="3.43081">
        <ele>133.1</ele>
        <time>2025-10-05T10:36:12.000Z</time>
      </trkpt>
      <trkpt lat="49.59233" lon="3.43081">
        <ele>133.1</ele>
        <time>2025-10-05T10:36:13.000Z</time>
      </trkpt>
      <trkpt lat="49.59233" lon="3.43081">
        <ele>133.1</ele>
        <time>2025-10-05T10:36:14.000Z</time>
      </trkpt>
      <trkpt lat="49.59233" lon="3.43081">
        <ele>133.1</ele>
        <time>2025-10-05T10:36:15.000Z</time>
      </trkpt>
      <trkpt lat="49.59233" lon="3.43081">
        <ele>133.1</ele>
        <time>2025-10-05T10:36:16.000Z</time>
      </trkpt>
      <trkpt lat="49.59233" lon="3.43081">
        <ele>133.1</ele>
        <time>2025-10-05T10:36:17.000Z</time>
      </trkpt>
      <trkpt lat="49.59233" lon="3.43081">
        <ele>133.1</ele>
        <time>2025-10-05T10:36:18.000Z</time>
      </trkpt>
      <trkpt lat="49.59233" lon="3.43081">
        <ele>133.1</ele>
        <time>2025-10-05T10:36:19.000Z</time>
      </trkpt>
      <trkpt lat="49.59233" lon="3.43081">
        <ele>133.1</ele>
        <time>2025-10-05T10:36:20.000Z</time>
      </trkpt>
      <trkpt lat="49.59233" lon="3.43081">
        <ele>133.1</ele>
        <time>2025-10-05T10:36:21.000Z</time>
      </trkpt>
      <trkpt lat="49.59233" lon="3.43081">
        <ele>133.1</ele>
        <time>2025-10-05T10:36:22.000Z</time>
      </trkpt>
      <trkpt lat="49.59233" lon="3.43081">
        <ele>133.1</ele>
        <time>2025-10-05T10:36:23.000Z</time>
      </trkpt>
      <trkpt lat="49.59233" lon="3.43081">
        <ele>133.1</ele>
        <time>2025-10-05T10:36:24.000Z</time>
      </trkpt>
      <trkpt lat="49.59248" lon="3.4308">
        <ele>131.2</ele>
        <time>2025-10-05T11:38:04.000Z</time>
      </trkpt>
      <trkpt lat="49.59248" lon="3.43079">
        <ele>131.2</ele>
        <time>2025-10-05T11:38:05.000Z</time>
      </trkpt>
      <trkpt lat="49.59249" lon="3.43078">
        <ele>131.2</ele>
        <time>2025-10-05T11:38:06.000Z</time>
      </trkpt>
      <trkpt lat="49.59249" lon="3.43077">
        <ele>131</ele>
        <time>2025-10-05T11:38:07.000Z</time>
      </trkpt>
      <trkpt lat="49.5925" lon="3.43076">
        <ele>130.9</ele>
        <time>2025-10-05T11:38:08.000Z</time>
      </trkpt>
      <trkpt lat="49.59251" lon="3.43075">
        <ele>131.2</ele>
        <time>2025-10-05T11:38:09.000Z</time>
      </trkpt>
      <trkpt lat="49.59252" lon="3.43074">
        <ele>131.5</ele>
        <time>2025-10-05T11:38:10.000Z</time>
      </trkpt>
      <trkpt lat="49.59252" lon="3.43073">
        <ele>131.8</ele>
        <time>2025-10-05T11:38:11.000Z</time>
      </trkpt>
      <trkpt lat="49.59253" lon="3.43073">
        <ele>132.1</ele>
        <time>2025-10-05T11:38:12.000Z</time>
      </trkpt>
      <trkpt lat="49.59253" lon="3.43073">
        <ele>132</ele>
        <time>2025-10-05T11:38:13.000Z</time>
      </trkpt>
      <trkpt lat="49.59254" lon="3.43073">
        <ele>132</ele>
        <time>2025-10-05T11:38:14.000Z</time>
      </trkpt>
      <trkpt lat="49.59255" lon="3.43073">
        <ele>132.1</ele>
        <time>2025-10-05T11:38:15.000Z</time>
      </trkpt>
      <trkpt lat="49.59256" lon="3.43074">
        <ele>132</ele>
        <time>2025-10-05T11:38:16.000Z</time>
      </trkpt>
      <trkpt lat="49.59257" lon="3.43075">
        <ele>132.1</ele>
        <time>2025-10-05T11:38:17.000Z</time>
      </trkpt>
      <trkpt lat="49.59259" lon="3.43076">
        <ele>132.3</ele>
        <time>2025-10-05T11:38:18.000Z</time>
      </trkpt>
      <trkpt lat="49.59259" lon="3.43075">
        <ele>132.5</ele>
        <time>2025-10-05T11:38:19.000Z</time>
      </trkpt>
      <trkpt lat="49.59261" lon="3.43076">
        <ele>132.8</ele>
        <time>2025-10-05T11:38:20.000Z</time>
      </trkpt>
      <trkpt lat="49.59262" lon="3.43076">
        <ele>133.3</ele>
        <time>2025-10-05T11:38:21.000Z</time>
      </trkpt>
      <trkpt lat="49.59262" lon="3.43076">
        <ele>133.3</ele>
        <time>2025-10-05T11:38:22.000Z</time>
      </trkpt>
      <trkpt lat="49.59263" lon="3.43077">
        <ele>133.4</ele>
        <time>2025-10-05T11:38:23.000Z</time>
      </trkpt>
      <trkpt lat="49.59263" lon="3.43077">
        <ele>133.4</ele>
        <time>2025-10-05T11:38:24.000Z</time>
      </trkpt>
      <trkpt lat="49.59265" lon="3.43077">
        <ele>133.4</ele>
        <time>2025-10-05T11:38:25.000Z</time>
      </trkpt>
      <trkpt lat="49.59266" lon="3.43077">
        <ele>133.6</ele>
        <time>2025-10-05T11:38:26.000Z</time>
      </trkpt>
      <trkpt lat="49.59267" lon="3.43078">
        <ele>133.9</ele>
        <time>2025-10-05T11:38:27.000Z</time>
      </trkpt>
      <trkpt lat="49.59268" lon="3.43078">
        <ele>134.1</ele>
        <time>2025-10-05T11:38:28.000Z</time>
      </trkpt>
      <trkpt lat="49.59269" lon="3.43078">
        <ele>134.4</ele>
        <time>2025-10-05T11:38:29.000Z</time>
      </trkpt>
      <trkpt lat="49.5927" lon="3.43079">
        <ele>134.8</ele>
        <time>2025-10-05T11:38:30.000Z</time>
      </trkpt>
      <trkpt lat="49.59271" lon="3.43079">
        <ele>135.3</ele>
        <time>2025-10-05T11:38:31.000Z</time>
      </trkpt>
      <trkpt lat="49.59272" lon="3.4308">
        <ele>135.6</ele>
        <time>2025-10-05T11:38:32.000Z</time>
      </trkpt>
      <trkpt lat="49.59273" lon="3.43081">
        <ele>135.8</ele>
        <time>2025-10-05T11:38:33.000Z</time>
      </trkpt>
      <trkpt lat="49.59275" lon="3.43081">
        <ele>136</ele>
        <time>2025-10-05T11:38:34.000Z</time>
      </trkpt>
      <trkpt lat="49.59276" lon="3.43082">
        <ele>136.3</ele>
        <time>2025-10-05T11:38:35.000Z</time>
      </trkpt>
      <trkpt lat="49.59276" lon="3.43082">
        <ele>136.5</ele>
        <time>2025-10-05T11:38:36.000Z</time>
      </trkpt>
      <trkpt lat="49.59277" lon="3.43083">
        <ele>136.4</ele>
        <time>2025-10-05T11:38:37.000Z</time>
      </trkpt>
      <trkpt lat="49.59277" lon="3.43083">
        <ele>136.3</ele>
        <time>2025-10-05T11:38:38.000Z</time>
      </trkpt>
      <trkpt lat="49.59278" lon="3.43083">
        <ele>136.4</ele>
        <time>2025-10-05T11:38:39.000Z</time>
      </trkpt>
      <trkpt lat="49.59279" lon="3.43083">
        <ele>136.2</ele>
        <time>2025-10-05T11:38:40.000Z</time>
      </trkpt>
      <trkpt lat="49.5928" lon="3.43084">
        <ele>136</ele>
        <time>2025-10-05T11:38:41.000Z</time>
      </trkpt>
      <trkpt lat="49.59281" lon="3.43085">
        <ele>135.7</ele>
        <time>2025-10-05T11:38:42.000Z</time>
      </trkpt>
      <trkpt lat="49.59281" lon="3.43086">
        <ele>135.3</ele>
        <time>2025-10-05T11:38:43.000Z</time>
      </trkpt>
      <trkpt lat="49.59282" lon="3.43087">
        <ele>135</ele>
        <time>2025-10-05T11:38:44.000Z</time>
      </trkpt>
      <trkpt lat="49.59283" lon="3.43087">
        <ele>134.7</ele>
        <time>2025-10-05T11:38:45.000Z</time>
      </trkpt>
      <trkpt lat="49.59284" lon="3.43088">
        <ele>134.5</ele>
        <time>2025-10-05T11:38:46.000Z</time>
      </trkpt>
      <trkpt lat="49.59286" lon="3.43088">
        <ele>134.4</ele>
        <time>2025-10-05T11:38:47.000Z</time>
      </trkpt>
      <trkpt lat="49.59287" lon="3.43089">
        <ele>134.3</ele>
        <time>2025-10-05T11:38:48.000Z</time>
      </trkpt>
      <trkpt lat="49.59288" lon="3.4309">
        <ele>134.5</ele>
        <time>2025-10-05T11:38:49.000Z</time>
      </trkpt>
      <trkpt lat="49.59288" lon="3.4309">
        <ele>134.7</ele>
        <time>2025-10-05T11:38:50.000Z</time>
      </trkpt>
      <trkpt lat="49.59289" lon="3.43091">
        <ele>134.7</ele>
        <time>2025-10-05T11:38:51.000Z</time>
      </trkpt>
      <trkpt lat="49.59289" lon="3.43091">
        <ele>134.5</ele>
        <time>2025-10-05T11:38:52.000Z</time>
      </trkpt>
      <trkpt lat="49.5929" lon="3.43091">
        <ele>134.3</ele>
        <time>2025-10-05T11:38:53.000Z</time>
      </trkpt>
      <trkpt lat="49.59291" lon="3.43092">
        <ele>134</ele>
        <time>2025-10-05T11:38:54.000Z</time>
      </trkpt>
      <trkpt lat="49.59292" lon="3.43093">
        <ele>133.7</ele>
        <time>2025-10-05T11:38:55.000Z</time>
      </trkpt>
      <trkpt lat="49.59293" lon="3.43094">
        <ele>133.6</ele>
        <time>2025-10-05T11:38:56.000Z</time>
      </trkpt>
      <trkpt lat="49.59294" lon="3.43094">
        <ele>133.3</ele>
        <time>2025-10-05T11:38:57.000Z</time>
      </trkpt>
      <trkpt lat="49.59295" lon="3.43095">
        <ele>133.2</ele>
        <time>2025-10-05T11:38:58.000Z</time>
      </trkpt>
      <trkpt lat="49.59296" lon="3.43096">
        <ele>133.1</ele>
        <time>2025-10-05T11:38:59.000Z</time>
      </trkpt>
      <trkpt lat="49.59297" lon="3.43097">
        <ele>133</ele>
        <time>2025-10-05T11:39:00.000Z</time>
      </trkpt>
      <trkpt lat="49.59298" lon="3.43097">
        <ele>133.1</ele>
        <time>2025-10-05T11:39:01.000Z</time>
      </trkpt>
      <trkpt lat="49.593" lon="3.43098">
        <ele>133.1</ele>
        <time>2025-10-05T11:39:02.000Z</time>
      </trkpt>
      <trkpt lat="49.59301" lon="3.43099">
        <ele>133.2</ele>
        <time>2025-10-05T11:39:03.000Z</time>
      </trkpt>
      <trkpt lat="49.59302" lon="3.43099">
        <ele>133.2</ele>
        <time>2025-10-05T11:39:04.000Z</time>
      </trkpt>
      <trkpt lat="49.59303" lon="3.43101">
        <ele>133.1</ele>
        <time>2025-10-05T11:39:05.000Z</time>
      </trkpt>
      <trkpt lat="49.59304" lon="3.43101">
        <ele>133.1</ele>
        <time>2025-10-05T11:39:06.000Z</time>
      </trkpt>
      <trkpt lat="49.59305" lon="3.43102">
        <ele>132.6</ele>
        <time>2025-10-05T11:39:07.000Z</time>
      </trkpt>
      <trkpt lat="49.59306" lon="3.43103">
        <ele>132.1</ele>
        <time>2025-10-05T11:39:08.000Z</time>
      </trkpt>
      <trkpt lat="49.59306" lon="3.43103">
        <ele>131.6</ele>
        <time>2025-10-05T11:39:09.000Z</time>
      </trkpt>
      <trkpt lat="49.59307" lon="3.43104">
        <ele>131.2</ele>
        <time>2025-10-05T11:39:10.000Z</time>
      </trkpt>
      <trkpt lat="49.59308" lon="3.43104">
        <ele>130.7</ele>
        <time>2025-10-05T11:39:11.000Z</time>
      </trkpt>
      <trkpt lat="49.59309" lon="3.43105">
        <ele>130.3</ele>
        <time>2025-10-05T11:39:12.000Z</time>
      </trkpt>
      <trkpt lat="49.5931" lon="3.43106">
        <ele>130.2</ele>
        <time>2025-10-05T11:39:13.000Z</time>
      </trkpt>
      <trkpt lat="49.59311" lon="3.43107">
        <ele>130</ele>
        <time>2025-10-05T11:39:14.000Z</time>
      </trkpt>
      <trkpt lat="49.59312" lon="3.43107">
        <ele>130</ele>
        <time>2025-10-05T11:39:15.000Z</time>
      </trkpt>
      <trkpt lat="49.59313" lon="3.43107">
        <ele>130</ele>
        <time>2025-10-05T11:39:16.000Z</time>
      </trkpt>
      <trkpt lat="49.59313" lon="3.43108">
        <ele>129.9</ele>
        <time>2025-10-05T11:39:17.000Z</time>
      </trkpt>
      <trkpt lat="49.59314" lon="3.43109">
        <ele>129.9</ele>
        <time>2025-10-05T11:39:18.000Z</time>
      </trkpt>
      <trkpt lat="49.59315" lon="3.4311">
        <ele>129.8</ele>
        <time>2025-10-05T11:39:19.000Z</time>
      </trkpt>
      <trkpt lat="49.59316" lon="3.43111">
        <ele>129.7</ele>
        <time>2025-10-05T11:39:20.000Z</time>
      </trkpt>
      <trkpt lat="49.59317" lon="3.43113">
        <ele>129.8</ele>
        <time>2025-10-05T11:39:21.000Z</time>
      </trkpt>
      <trkpt lat="49.59318" lon="3.43114">
        <ele>129.8</ele>
        <time>2025-10-05T11:39:22.000Z</time>
      </trkpt>
      <trkpt lat="49.59319" lon="3.43115">
        <ele>129.9</ele>
        <time>2025-10-05T11:39:23.000Z</time>
      </trkpt>
      <trkpt lat="49.5932" lon="3.43116">
        <ele>129.9</ele>
        <time>2025-10-05T11:39:24.000Z</time>
      </trkpt>
      <trkpt lat="49.59322" lon="3.43116">
        <ele>130.1</ele>
        <time>2025-10-05T11:39:25.000Z</time>
      </trkpt>
      <trkpt lat="49.59323" lon="3.43117">
        <ele>130.4</ele>
        <time>2025-10-05T11:39:26.000Z</time>
      </trkpt>
      <trkpt lat="49.59324" lon="3.43118">
        <ele>131.1</ele>
        <time>2025-10-05T11:39:27.000Z</time>
      </trkpt>
      <trkpt lat="49.59325" lon="3.43119">
        <ele>131.2</ele>
        <time>2025-10-05T11:39:28.000Z</time>
      </trkpt>
      <trkpt lat="49.59325" lon="3.4312">
        <ele>131.2</ele>
        <time>2025-10-05T11:39:29.000Z</time>
      </trkpt>
      <trkpt lat="49.59326" lon="3.43121">
        <ele>131.3</ele>
        <time>2025-10-05T11:39:30.000Z</time>
      </trkpt>
      <trkpt lat="49.59326" lon="3.43122">
        <ele>131.3</ele>
        <time>2025-10-05T11:39:31.000Z</time>
      </trkpt>
      <trkpt lat="49.59327" lon="3.43123">
        <ele>131.1</ele>
        <time>2025-10-05T11:39:32.000Z</time>
      </trkpt>
      <trkpt lat="49.59327" lon="3.43124">
        <ele>131</ele>
        <time>2025-10-05T11:39:33.000Z</time>
      </trkpt>
      <trkpt lat="49.59328" lon="3.43125">
        <ele>130.8</ele>
        <time>2025-10-05T11:39:34.000Z</time>
      </trkpt>
      <trkpt lat="49.59328" lon="3.43126">
        <ele>130.8</ele>
        <time>2025-10-05T11:39:35.000Z</time>
      </trkpt>
      <trkpt lat="49.59329" lon="3.43127">
        <ele>130.8</ele>
        <time>2025-10-05T11:39:36.000Z</time>
      </trkpt>
      <trkpt lat="49.5933" lon="3.43128">
        <ele>130.9</ele>
        <time>2025-10-05T11:39:37.000Z</time>
      </trkpt>
      <trkpt lat="49.59331" lon="3.43129">
        <ele>131</ele>
        <time>2025-10-05T11:39:38.000Z</time>
      </trkpt>
      <trkpt lat="49.59332" lon="3.4313">
        <ele>130.9</ele>
        <time>2025-10-05T11:39:39.000Z</time>
      </trkpt>
      <trkpt lat="49.59334" lon="3.43131">
        <ele>130.7</ele>
        <time>2025-10-05T11:39:40.000Z</time>
      </trkpt>
      <trkpt lat="49.59335" lon="3.43131">
        <ele>130.4</ele>
        <time>2025-10-05T11:39:41.000Z</time>
      </trkpt>
      <trkpt lat="49.59336" lon="3.43132">
        <ele>130.5</ele>
        <time>2025-10-05T11:39:42.000Z</time>
      </trkpt>
      <trkpt lat="49.59337" lon="3.43133">
        <ele>130.8</ele>
        <time>2025-10-05T11:39:43.000Z</time>
      </trkpt>
      <trkpt lat="49.59338" lon="3.43133">
        <ele>130.8</ele>
        <time>2025-10-05T11:39:44.000Z</time>
      </trkpt>
      <trkpt lat="49.59339" lon="3.43134">
        <ele>131.2</ele>
        <time>2025-10-05T11:39:45.000Z</time>
      </trkpt>
      <trkpt lat="49.5934" lon="3.43134">
        <ele>131.5</ele>
        <time>2025-10-05T11:39:46.000Z</time>
      </trkpt>
      <trkpt lat="49.5934" lon="3.43135">
        <ele>132</ele>
        <time>2025-10-05T11:39:47.000Z</time>
      </trkpt>
      <trkpt lat="49.59341" lon="3.43136">
        <ele>132.4</ele>
        <time>2025-10-05T11:39:48.000Z</time>
      </trkpt>
      <trkpt lat="49.59342" lon="3.43137">
        <ele>132.7</ele>
        <time>2025-10-05T11:39:49.000Z</time>
      </trkpt>
      <trkpt lat="49.59343" lon="3.43138">
        <ele>132.7</ele>
        <time>2025-10-05T11:39:50.000Z</time>
      </trkpt>
      <trkpt lat="49.59344" lon="3.43138">
        <ele>132.9</ele>
        <time>2025-10-05T11:39:51.000Z</time>
      </trkpt>
      <trkpt lat="49.59345" lon="3.43139">
        <ele>132.8</ele>
        <time>2025-10-05T11:39:52.000Z</time>
      </trkpt>
      <trkpt lat="49.59345" lon="3.43139">
        <ele>132.8</ele>
        <time>2025-10-05T11:39:53.000Z</time>
      </trkpt>
      <trkpt lat="49.59347" lon="3.4314">
        <ele>132.7</ele>
        <time>2025-10-05T11:39:54.000Z</time>
      </trkpt>
      <trkpt lat="49.59347" lon="3.4314">
        <ele>132.4</ele>
        <time>2025-10-05T11:39:55.000Z</time>
      </trkpt>
      <trkpt lat="49.59348" lon="3.4314">
        <ele>132.4</ele>
        <time>2025-10-05T11:39:56.000Z</time>
      </trkpt>
      <trkpt lat="49.59349" lon="3.43142">
        <ele>132.6</ele>
        <time>2025-10-05T11:39:57.000Z</time>
      </trkpt>
      <trkpt lat="49.5935" lon="3.43142">
        <ele>132.9</ele>
        <time>2025-10-05T11:39:58.000Z</time>
      </trkpt>
      <trkpt lat="49.59352" lon="3.43143">
        <ele>132.8</ele>
        <time>2025-10-05T11:39:59.000Z</time>
      </trkpt>
      <trkpt lat="49.59353" lon="3.43144">
        <ele>132.2</ele>
        <time>2025-10-05T11:40:00.000Z</time>
      </trkpt>
      <trkpt lat="49.59355" lon="3.43145">
        <ele>131.9</ele>
        <time>2025-10-05T11:40:01.000Z</time>
      </trkpt>
      <trkpt lat="49.59357" lon="3.43145">
        <ele>131.7</ele>
        <time>2025-10-05T11:40:02.000Z</time>
      </trkpt>
      <trkpt lat="49.59358" lon="3.43147">
        <ele>132.2</ele>
        <time>2025-10-05T11:40:03.000Z</time>
      </trkpt>
      <trkpt lat="49.59359" lon="3.43147">
        <ele>132</ele>
        <time>2025-10-05T11:40:04.000Z</time>
      </trkpt>
      <trkpt lat="49.5936" lon="3.43147">
        <ele>131.6</ele>
        <time>2025-10-05T11:40:05.000Z</time>
      </trkpt>
      <trkpt lat="49.5936" lon="3.43147">
        <ele>131.6</ele>
        <time>2025-10-05T11:40:06.000Z</time>
      </trkpt>
      <trkpt lat="49.59361" lon="3.43147">
        <ele>131.7</ele>
        <time>2025-10-05T11:40:07.000Z</time>
      </trkpt>
      <trkpt lat="49.59361" lon="3.43148">
        <ele>131.9</ele>
        <time>2025-10-05T11:40:08.000Z</time>
      </trkpt>
      <trkpt lat="49.59363" lon="3.43149">
        <ele>132.2</ele>
        <time>2025-10-05T11:40:09.000Z</time>
      </trkpt>
      <trkpt lat="49.59364" lon="3.4315">
        <ele>132.5</ele>
        <time>2025-10-05T11:40:10.000Z</time>
      </trkpt>
      <trkpt lat="49.59365" lon="3.43151">
        <ele>132.8</ele>
        <time>2025-10-05T11:40:11.000Z</time>
      </trkpt>
      <trkpt lat="49.59366" lon="3.43152">
        <ele>133</ele>
        <time>2025-10-05T11:40:12.000Z</time>
      </trkpt>
      <trkpt lat="49.59367" lon="3.43152">
        <ele>133.3</ele>
        <time>2025-10-05T11:40:13.000Z</time>
      </trkpt>
      <trkpt lat="49.59369" lon="3.43154">
        <ele>133.4</ele>
        <time>2025-10-05T11:40:14.000Z</time>
      </trkpt>
      <trkpt lat="49.5937" lon="3.43155">
        <ele>133.3</ele>
        <time>2025-10-05T11:40:15.000Z</time>
      </trkpt>
      <trkpt lat="49.59371" lon="3.43156">
        <ele>133.1</ele>
        <time>2025-10-05T11:40:16.000Z</time>
      </trkpt>
      <trkpt lat="49.59373" lon="3.43157">
        <ele>133.1</ele>
        <time>2025-10-05T11:40:17.000Z</time>
      </trkpt>
      <trkpt lat="49.59373" lon="3.43157">
        <ele>132.9</ele>
        <time>2025-10-05T11:40:18.000Z</time>
      </trkpt>
      <trkpt lat="49.59374" lon="3.43157">
        <ele>132.9</ele>
        <time>2025-10-05T11:40:19.000Z</time>
      </trkpt>
      <trkpt lat="49.59374" lon="3.43157">
        <ele>132.9</ele>
        <time>2025-10-05T11:40:20.000Z</time>
      </trkpt>
      <trkpt lat="49.59375" lon="3.43158">
        <ele>133</ele>
        <time>2025-10-05T11:40:21.000Z</time>
      </trkpt>
      <trkpt lat="49.59376" lon="3.43159">
        <ele>133</ele>
        <time>2025-10-05T11:40:22.000Z</time>
      </trkpt>
      <trkpt lat="49.59377" lon="3.43159">
        <ele>133.1</ele>
        <time>2025-10-05T11:40:23.000Z</time>
      </trkpt>
      <trkpt lat="49.59379" lon="3.4316">
        <ele>133.1</ele>
        <time>2025-10-05T11:40:24.000Z</time>
      </trkpt>
      <trkpt lat="49.5938" lon="3.43161">
        <ele>132.9</ele>
        <time>2025-10-05T11:40:25.000Z</time>
      </trkpt>
      <trkpt lat="49.59381" lon="3.43161">
        <ele>132.8</ele>
        <time>2025-10-05T11:40:26.000Z</time>
      </trkpt>
      <trkpt lat="49.59382" lon="3.43162">
        <ele>132.7</ele>
        <time>2025-10-05T11:40:27.000Z</time>
      </trkpt>
      <trkpt lat="49.59383" lon="3.43163">
        <ele>132.6</ele>
        <time>2025-10-05T11:40:28.000Z</time>
      </trkpt>
      <trkpt lat="49.59383" lon="3.43164">
        <ele>132.5</ele>
        <time>2025-10-05T11:40:29.000Z</time>
      </trkpt>
      <trkpt lat="49.59384" lon="3.43166">
        <ele>132.5</ele>
        <time>2025-10-05T11:40:30.000Z</time>
      </trkpt>
      <trkpt lat="49.59385" lon="3.43167">
        <ele>132.2</ele>
        <time>2025-10-05T11:40:31.000Z</time>
      </trkpt>
      <trkpt lat="49.59386" lon="3.43168">
        <ele>132.2</ele>
        <time>2025-10-05T11:40:32.000Z</time>
      </trkpt>
      <trkpt lat="49.59387" lon="3.43169">
        <ele>132.2</ele>
        <time>2025-10-05T11:40:33.000Z</time>
      </trkpt>
      <trkpt lat="49.59388" lon="3.4317">
        <ele>131.9</ele>
        <time>2025-10-05T11:40:34.000Z</time>
      </trkpt>
      <trkpt lat="49.59389" lon="3.43171">
        <ele>131.9</ele>
        <time>2025-10-05T11:40:35.000Z</time>
      </trkpt>
      <trkpt lat="49.5939" lon="3.43172">
        <ele>132.1</ele>
        <time>2025-10-05T11:40:36.000Z</time>
      </trkpt>
      <trkpt lat="49.59391" lon="3.43173">
        <ele>131.8</ele>
        <time>2025-10-05T11:40:37.000Z</time>
      </trkpt>
      <trkpt lat="49.59392" lon="3.43173">
        <ele>132</ele>
        <time>2025-10-05T11:40:38.000Z</time>
      </trkpt>
      <trkpt lat="49.59393" lon="3.43174">
        <ele>132.4</ele>
        <time>2025-10-05T11:40:39.000Z</time>
      </trkpt>
      <trkpt lat="49.59393" lon="3.43175">
        <ele>132.7</ele>
        <time>2025-10-05T11:40:40.000Z</time>
      </trkpt>
      <trkpt lat="49.59394" lon="3.43176">
        <ele>132.8</ele>
        <time>2025-10-05T11:40:41.000Z</time>
      </trkpt>
      <trkpt lat="49.59395" lon="3.43176">
        <ele>132.9</ele>
        <time>2025-10-05T11:40:42.000Z</time>
      </trkpt>
      <trkpt lat="49.59396" lon="3.43177">
        <ele>133.1</ele>
        <time>2025-10-05T11:40:43.000Z</time>
      </trkpt>
      <trkpt lat="49.59397" lon="3.43178">
        <ele>133.4</ele>
        <time>2025-10-05T11:40:44.000Z</time>
      </trkpt>
      <trkpt lat="49.59398" lon="3.43179">
        <ele>133.7</ele>
        <time>2025-10-05T11:40:45.000Z</time>
      </trkpt>
      <trkpt lat="49.594" lon="3.43179">
        <ele>133.9</ele>
        <time>2025-10-05T11:40:46.000Z</time>
      </trkpt>
      <trkpt lat="49.59401" lon="3.43179">
        <ele>133.7</ele>
        <time>2025-10-05T11:40:47.000Z</time>
      </trkpt>
      <trkpt lat="49.59402" lon="3.4318">
        <ele>133.4</ele>
        <time>2025-10-05T11:40:48.000Z</time>
      </trkpt>
      <trkpt lat="49.59404" lon="3.43181">
        <ele>133.2</ele>
        <time>2025-10-05T11:40:49.000Z</time>
      </trkpt>
      <trkpt lat="49.59405" lon="3.43181">
        <ele>133.1</ele>
        <time>2025-10-05T11:40:50.000Z</time>
      </trkpt>
      <trkpt lat="49.59406" lon="3.43182">
        <ele>133.1</ele>
        <time>2025-10-05T11:40:51.000Z</time>
      </trkpt>
      <trkpt lat="49.59407" lon="3.43182">
        <ele>133.1</ele>
        <time>2025-10-05T11:40:52.000Z</time>
      </trkpt>
      <trkpt lat="49.59409" lon="3.43183">
        <ele>132.9</ele>
        <time>2025-10-05T11:40:53.000Z</time>
      </trkpt>
      <trkpt lat="49.5941" lon="3.43183">
        <ele>132.6</ele>
        <time>2025-10-05T11:40:54.000Z</time>
      </trkpt>
      <trkpt lat="49.59411" lon="3.43183">
        <ele>132.5</ele>
        <time>2025-10-05T11:40:55.000Z</time>
      </trkpt>
      <trkpt lat="49.59412" lon="3.43183">
        <ele>132.2</ele>
        <time>2025-10-05T11:40:56.000Z</time>
      </trkpt>
      <trkpt lat="49.59413" lon="3.43183">
        <ele>132.1</ele>
        <time>2025-10-05T11:40:57.000Z</time>
      </trkpt>
      <trkpt lat="49.59414" lon="3.43184">
        <ele>132.3</ele>
        <time>2025-10-05T11:40:58.000Z</time>
      </trkpt>
      <trkpt lat="49.59415" lon="3.43184">
        <ele>132.4</ele>
        <time>2025-10-05T11:40:59.000Z</time>
      </trkpt>
      <trkpt lat="49.59417" lon="3.43184">
        <ele>132.5</ele>
        <time>2025-10-05T11:41:00.000Z</time>
      </trkpt>
      <trkpt lat="49.59418" lon="3.43185">
        <ele>132.7</ele>
        <time>2025-10-05T11:41:01.000Z</time>
      </trkpt>
      <trkpt lat="49.59419" lon="3.43184">
        <ele>133</ele>
        <time>2025-10-05T11:41:02.000Z</time>
      </trkpt>
      <trkpt lat="49.59421" lon="3.43184">
        <ele>133</ele>
        <time>2025-10-05T11:41:03.000Z</time>
      </trkpt>
      <trkpt lat="49.59423" lon="3.43185">
        <ele>132.9</ele>
        <time>2025-10-05T11:41:04.000Z</time>
      </trkpt>
      <trkpt lat="49.59424" lon="3.43185">
        <ele>132.5</ele>
        <time>2025-10-05T11:41:05.000Z</time>
      </trkpt>
      <trkpt lat="49.59425" lon="3.43186">
        <ele>132.4</ele>
        <time>2025-10-05T11:41:06.000Z</time>
      </trkpt>
      <trkpt lat="49.59426" lon="3.43186">
        <ele>132.2</ele>
        <time>2025-10-05T11:41:07.000Z</time>
      </trkpt>
      <trkpt lat="49.59427" lon="3.43186">
        <ele>132.2</ele>
        <time>2025-10-05T11:41:08.000Z</time>
      </trkpt>
      <trkpt lat="49.59428" lon="3.43187">
        <ele>132.3</ele>
        <time>2025-10-05T11:41:09.000Z</time>
      </trkpt>
      <trkpt lat="49.59429" lon="3.43187">
        <ele>132.3</ele>
        <time>2025-10-05T11:41:10.000Z</time>
      </trkpt>
      <trkpt lat="49.5943" lon="3.43187">
        <ele>132.3</ele>
        <time>2025-10-05T11:41:11.000Z</time>
      </trkpt>
      <trkpt lat="49.59432" lon="3.43187">
        <ele>132</ele>
        <time>2025-10-05T11:41:12.000Z</time>
      </trkpt>
      <trkpt lat="49.59433" lon="3.43188">
        <ele>131.7</ele>
        <time>2025-10-05T11:41:13.000Z</time>
      </trkpt>
      <trkpt lat="49.59434" lon="3.43188">
        <ele>131.8</ele>
        <time>2025-10-05T11:41:14.000Z</time>
      </trkpt>
      <trkpt lat="49.59435" lon="3.43188">
        <ele>131.9</ele>
        <time>2025-10-05T11:41:15.000Z</time>
      </trkpt>
      <trkpt lat="49.59436" lon="3.43189">
        <ele>132.5</ele>
        <time>2025-10-05T11:41:16.000Z</time>
      </trkpt>
      <trkpt lat="49.59437" lon="3.43189">
        <ele>132.8</ele>
        <time>2025-10-05T11:41:17.000Z</time>
      </trkpt>
      <trkpt lat="49.59438" lon="3.43189">
        <ele>133.4</ele>
        <time>2025-10-05T11:41:18.000Z</time>
      </trkpt>
      <trkpt lat="49.59439" lon="3.43189">
        <ele>133.9</ele>
        <time>2025-10-05T11:41:19.000Z</time>
      </trkpt>
      <trkpt lat="49.5944" lon="3.4319">
        <ele>134.3</ele>
        <time>2025-10-05T11:41:20.000Z</time>
      </trkpt>
      <trkpt lat="49.59441" lon="3.4319">
        <ele>134.5</ele>
        <time>2025-10-05T11:41:21.000Z</time>
      </trkpt>
      <trkpt lat="49.59441" lon="3.4319">
        <ele>134.7</ele>
        <time>2025-10-05T11:41:22.000Z</time>
      </trkpt>
      <trkpt lat="49.59442" lon="3.4319">
        <ele>134.8</ele>
        <time>2025-10-05T11:41:23.000Z</time>
      </trkpt>
      <trkpt lat="49.59443" lon="3.4319">
        <ele>134.8</ele>
        <time>2025-10-05T11:41:24.000Z</time>
      </trkpt>
      <trkpt lat="49.59444" lon="3.4319">
        <ele>134.8</ele>
        <time>2025-10-05T11:41:25.000Z</time>
      </trkpt>
      <trkpt lat="49.59445" lon="3.4319">
        <ele>134.8</ele>
        <time>2025-10-05T11:41:26.000Z</time>
      </trkpt>
      <trkpt lat="49.59446" lon="3.4319">
        <ele>134.6</ele>
        <time>2025-10-05T11:41:27.000Z</time>
      </trkpt>
      <trkpt lat="49.59448" lon="3.4319">
        <ele>134.4</ele>
        <time>2025-10-05T11:41:28.000Z</time>
      </trkpt>
      <trkpt lat="49.59449" lon="3.4319">
        <ele>134</ele>
        <time>2025-10-05T11:41:29.000Z</time>
      </trkpt>
      <trkpt lat="49.5945" lon="3.43189">
        <ele>133.7</ele>
        <time>2025-10-05T11:41:30.000Z</time>
      </trkpt>
      <trkpt lat="49.59451" lon="3.43188">
        <ele>133.3</ele>
        <time>2025-10-05T11:41:31.000Z</time>
      </trkpt>
      <trkpt lat="49.59453" lon="3.43188">
        <ele>133.1</ele>
        <time>2025-10-05T11:41:32.000Z</time>
      </trkpt>
      <trkpt lat="49.59454" lon="3.43187">
        <ele>133.2</ele>
        <time>2025-10-05T11:41:33.000Z</time>
      </trkpt>
      <trkpt lat="49.59456" lon="3.43187">
        <ele>133.1</ele>
        <time>2025-10-05T11:41:34.000Z</time>
      </trkpt>
      <trkpt lat="49.59457" lon="3.43187">
        <ele>132.5</ele>
        <time>2025-10-05T11:41:35.000Z</time>
      </trkpt>
      <trkpt lat="49.59458" lon="3.43187">
        <ele>132</ele>
        <time>2025-10-05T11:41:36.000Z</time>
      </trkpt>
      <trkpt lat="49.59459" lon="3.43186">
        <ele>131.3</ele>
        <time>2025-10-05T11:41:37.000Z</time>
      </trkpt>
      <trkpt lat="49.5946" lon="3.43186">
        <ele>130.6</ele>
        <time>2025-10-05T11:41:38.000Z</time>
      </trkpt>
      <trkpt lat="49.59461" lon="3.43186">
        <ele>130.6</ele>
        <time>2025-10-05T11:41:39.000Z</time>
      </trkpt>
      <trkpt lat="49.59462" lon="3.43185">
        <ele>130.6</ele>
        <time>2025-10-05T11:41:40.000Z</time>
      </trkpt>
      <trkpt lat="49.59463" lon="3.43185">
        <ele>130.6</ele>
        <time>2025-10-05T11:41:41.000Z</time>
      </trkpt>
      <trkpt lat="49.59464" lon="3.43185">
        <ele>130.5</ele>
        <time>2025-10-05T11:41:42.000Z</time>
      </trkpt>
      <trkpt lat="49.59465" lon="3.43185">
        <ele>130.2</ele>
        <time>2025-10-05T11:41:43.000Z</time>
      </trkpt>
      <trkpt lat="49.59467" lon="3.43183">
        <ele>130</ele>
        <time>2025-10-05T11:41:44.000Z</time>
      </trkpt>
      <trkpt lat="49.59468" lon="3.43182">
        <ele>130</ele>
        <time>2025-10-05T11:41:45.000Z</time>
      </trkpt>
      <trkpt lat="49.59469" lon="3.43182">
        <ele>129.9</ele>
        <time>2025-10-05T11:41:46.000Z</time>
      </trkpt>
      <trkpt lat="49.5947" lon="3.43181">
        <ele>130</ele>
        <time>2025-10-05T11:41:47.000Z</time>
      </trkpt>
      <trkpt lat="49.59472" lon="3.4318">
        <ele>130.2</ele>
        <time>2025-10-05T11:41:48.000Z</time>
      </trkpt>
      <trkpt lat="49.59473" lon="3.4318">
        <ele>130.1</ele>
        <time>2025-10-05T11:41:49.000Z</time>
      </trkpt>
      <trkpt lat="49.59473" lon="3.4318">
        <ele>130.1</ele>
        <time>2025-10-05T11:41:50.000Z</time>
      </trkpt>
      <trkpt lat="49.59474" lon="3.4318">
        <ele>129.8</ele>
        <time>2025-10-05T11:41:51.000Z</time>
      </trkpt>
      <trkpt lat="49.59474" lon="3.4318">
        <ele>129.2</ele>
        <time>2025-10-05T11:41:52.000Z</time>
      </trkpt>
      <trkpt lat="49.59475" lon="3.4318">
        <ele>129</ele>
        <time>2025-10-05T11:41:53.000Z</time>
      </trkpt>
      <trkpt lat="49.59475" lon="3.43179">
        <ele>128.8</ele>
        <time>2025-10-05T11:41:54.000Z</time>
      </trkpt>
      <trkpt lat="49.59476" lon="3.43179">
        <ele>128.6</ele>
        <time>2025-10-05T11:41:55.000Z</time>
      </trkpt>
      <trkpt lat="49.59476" lon="3.43179">
        <ele>128.6</ele>
        <time>2025-10-05T11:41:56.000Z</time>
      </trkpt>
      <trkpt lat="49.59477" lon="3.43178">
        <ele>128.9</ele>
        <time>2025-10-05T11:41:57.000Z</time>
      </trkpt>
      <trkpt lat="49.59478" lon="3.43177">
        <ele>128.9</ele>
        <time>2025-10-05T11:41:58.000Z</time>
      </trkpt>
      <trkpt lat="49.59479" lon="3.43176">
        <ele>128.7</ele>
        <time>2025-10-05T11:41:59.000Z</time>
      </trkpt>
      <trkpt lat="49.5948" lon="3.43175">
        <ele>128.7</ele>
        <time>2025-10-05T11:42:00.000Z</time>
      </trkpt>
      <trkpt lat="49.59481" lon="3.43174">
        <ele>128.5</ele>
        <time>2025-10-05T11:42:01.000Z</time>
      </trkpt>
      <trkpt lat="49.59483" lon="3.43174">
        <ele>128.3</ele>
        <time>2025-10-05T11:42:02.000Z</time>
      </trkpt>
      <trkpt lat="49.59484" lon="3.43173">
        <ele>128.3</ele>
        <time>2025-10-05T11:42:03.000Z</time>
      </trkpt>
      <trkpt lat="49.59486" lon="3.43172">
        <ele>128.4</ele>
        <time>2025-10-05T11:42:04.000Z</time>
      </trkpt>
      <trkpt lat="49.59487" lon="3.43171">
        <ele>128.2</ele>
        <time>2025-10-05T11:42:05.000Z</time>
      </trkpt>
      <trkpt lat="49.59489" lon="3.4317">
        <ele>128.3</ele>
        <time>2025-10-05T11:42:06.000Z</time>
      </trkpt>
      <trkpt lat="49.5949" lon="3.43169">
        <ele>128.4</ele>
        <time>2025-10-05T11:42:07.000Z</time>
      </trkpt>
      <trkpt lat="49.59491" lon="3.43168">
        <ele>128.5</ele>
        <time>2025-10-05T11:42:08.000Z</time>
      </trkpt>
      <trkpt lat="49.59492" lon="3.43168">
        <ele>128.8</ele>
        <time>2025-10-05T11:42:09.000Z</time>
      </trkpt>
      <trkpt lat="49.59492" lon="3.43168">
        <ele>129.1</ele>
        <time>2025-10-05T11:42:10.000Z</time>
      </trkpt>
      <trkpt lat="49.59492" lon="3.43168">
        <ele>129.5</ele>
        <time>2025-10-05T11:42:11.000Z</time>
      </trkpt>
      <trkpt lat="49.59492" lon="3.43168">
        <ele>129.9</ele>
        <time>2025-10-05T11:42:12.000Z</time>
      </trkpt>
      <trkpt lat="49.59492" lon="3.43168">
        <ele>129.7</ele>
        <time>2025-10-05T11:42:13.000Z</time>
      </trkpt>
      <trkpt lat="49.59492" lon="3.43169">
        <ele>129.5</ele>
        <time>2025-10-05T11:42:14.000Z</time>
      </trkpt>
      <trkpt lat="49.59492" lon="3.43168">
        <ele>129.4</ele>
        <time>2025-10-05T11:42:15.000Z</time>
      </trkpt>
      <trkpt lat="49.59491" lon="3.43168">
        <ele>129.4</ele>
        <time>2025-10-05T11:42:16.000Z</time>
      </trkpt>
      <trkpt lat="49.59491" lon="3.43168">
        <ele>129.3</ele>
        <time>2025-10-05T11:42:17.000Z</time>
      </trkpt>
      <trkpt lat="49.59491" lon="3.43168">
        <ele>129.5</ele>
        <time>2025-10-05T11:42:18.000Z</time>
      </trkpt>
      <trkpt lat="49.59491" lon="3.43168">
        <ele>129.5</ele>
        <time>2025-10-05T11:42:19.000Z</time>
      </trkpt>
      <trkpt lat="49.59491" lon="3.43168">
        <ele>129.5</ele>
        <time>2025-10-05T11:42:20.000Z</time>
      </trkpt>
      <trkpt lat="49.59491" lon="3.43168">
        <ele>129.5</ele>
        <time>2025-10-05T11:42:21.000Z</time>
      </trkpt>
      <trkpt lat="49.59491" lon="3.43168">
        <ele>129.5</ele>
        <time>2025-10-05T11:42:22.000Z</time>
      </trkpt>
      <trkpt lat="49.59491" lon="3.43168">
        <ele>129.5</ele>
        <time>2025-10-05T11:42:23.000Z</time>
      </trkpt>
      <trkpt lat="49.59491" lon="3.43168">
        <ele>129.5</ele>
        <time>2025-10-05T11:42:24.000Z</time>
      </trkpt>
      <trkpt lat="49.59491" lon="3.43168">
        <ele>129.5</ele>
        <time>2025-10-05T11:42:25.000Z</time>
      </trkpt>
      <trkpt lat="49.59491" lon="3.43168">
        <ele>129.5</ele>
        <time>2025-10-05T11:42:26.000Z</time>
      </trkpt>
      <trkpt lat="49.59491" lon="3.43168">
        <ele>129.5</ele>
        <time>2025-10-05T11:42:27.000Z</time>
      </trkpt>
      <trkpt lat="49.59492" lon="3.43167">
        <ele>128.2</ele>
        <time>2025-10-05T11:42:28.000Z</time>
      </trkpt>
      <trkpt lat="49.59493" lon="3.43167">
        <ele>128.3</ele>
        <time>2025-10-05T11:42:29.000Z</time>
      </trkpt>
      <trkpt lat="49.59494" lon="3.43166">
        <ele>128.4</ele>
        <time>2025-10-05T11:42:30.000Z</time>
      </trkpt>
      <trkpt lat="49.59495" lon="3.43165">
        <ele>128.6</ele>
        <time>2025-10-05T11:42:31.000Z</time>
      </trkpt>
      <trkpt lat="49.59496" lon="3.43164">
        <ele>128.9</ele>
        <time>2025-10-05T11:42:32.000Z</time>
      </trkpt>
      <trkpt lat="49.59498" lon="3.43162">
        <ele>129.2</ele>
        <time>2025-10-05T11:42:33.000Z</time>
      </trkpt>
      <trkpt lat="49.59499" lon="3.4316">
        <ele>129.5</ele>
        <time>2025-10-05T11:42:34.000Z</time>
      </trkpt>
      <trkpt lat="49.59499" lon="3.43159">
        <ele>129.7</ele>
        <time>2025-10-05T11:42:35.000Z</time>
      </trkpt>
      <trkpt lat="49.59501" lon="3.43159">
        <ele>129.8</ele>
        <time>2025-10-05T11:42:36.000Z</time>
      </trkpt>
      <trkpt lat="49.59502" lon="3.43158">
        <ele>130</ele>
        <time>2025-10-05T11:42:37.000Z</time>
      </trkpt>
      <trkpt lat="49.59503" lon="3.43157">
        <ele>129.9</ele>
        <time>2025-10-05T11:42:38.000Z</time>
      </trkpt>
      <trkpt lat="49.59504" lon="3.43156">
        <ele>130</ele>
        <time>2025-10-05T11:42:39.000Z</time>
      </trkpt>
      <trkpt lat="49.59504" lon="3.43155">
        <ele>129.9</ele>
        <time>2025-10-05T11:42:40.000Z</time>
      </trkpt>
      <trkpt lat="49.59505" lon="3.43154">
        <ele>129.8</ele>
        <time>2025-10-05T11:42:41.000Z</time>
      </trkpt>
      <trkpt lat="49.59506" lon="3.43154">
        <ele>129.9</ele>
        <time>2025-10-05T11:42:42.000Z</time>
      </trkpt>
      <trkpt lat="49.59506" lon="3.43152">
        <ele>130</ele>
        <time>2025-10-05T11:42:43.000Z</time>
      </trkpt>
      <trkpt lat="49.59507" lon="3.43151">
        <ele>130.2</ele>
        <time>2025-10-05T11:42:44.000Z</time>
      </trkpt>
      <trkpt lat="49.59508" lon="3.4315">
        <ele>130.5</ele>
        <time>2025-10-05T11:42:45.000Z</time>
      </trkpt>
      <trkpt lat="49.59509" lon="3.43149">
        <ele>130.7</ele>
        <time>2025-10-05T11:42:46.000Z</time>
      </trkpt>
      <trkpt lat="49.59511" lon="3.43148">
        <ele>131.2</ele>
        <time>2025-10-05T11:42:47.000Z</time>
      </trkpt>
      <trkpt lat="49.59512" lon="3.43147">
        <ele>131.4</ele>
        <time>2025-10-05T11:42:48.000Z</time>
      </trkpt>
      <trkpt lat="49.59513" lon="3.43146">
        <ele>131.2</ele>
        <time>2025-10-05T11:42:49.000Z</time>
      </trkpt>
      <trkpt lat="49.59515" lon="3.43145">
        <ele>131.3</ele>
        <time>2025-10-05T11:42:50.000Z</time>
      </trkpt>
      <trkpt lat="49.59516" lon="3.43144">
        <ele>131.7</ele>
        <time>2025-10-05T11:42:51.000Z</time>
      </trkpt>
      <trkpt lat="49.59517" lon="3.43143">
        <ele>132</ele>
        <time>2025-10-05T11:42:52.000Z</time>
      </trkpt>
      <trkpt lat="49.59519" lon="3.43141">
        <ele>132.1</ele>
        <time>2025-10-05T11:42:53.000Z</time>
      </trkpt>
      <trkpt lat="49.5952" lon="3.43141">
        <ele>132.2</ele>
        <time>2025-10-05T11:42:54.000Z</time>
      </trkpt>
      <trkpt lat="49.59522" lon="3.4314">
        <ele>132.3</ele>
        <time>2025-10-05T11:42:55.000Z</time>
      </trkpt>
      <trkpt lat="49.59523" lon="3.4314">
        <ele>132.2</ele>
        <time>2025-10-05T11:42:56.000Z</time>
      </trkpt>
      <trkpt lat="49.59523" lon="3.43139">
        <ele>132.2</ele>
        <time>2025-10-05T11:42:57.000Z</time>
      </trkpt>
      <trkpt lat="49.59524" lon="3.43139">
        <ele>132</ele>
        <time>2025-10-05T11:42:58.000Z</time>
      </trkpt>
      <trkpt lat="49.59525" lon="3.43138">
        <ele>131.8</ele>
        <time>2025-10-05T11:42:59.000Z</time>
      </trkpt>
      <trkpt lat="49.59526" lon="3.43137">
        <ele>131.3</ele>
        <time>2025-10-05T11:43:00.000Z</time>
      </trkpt>
      <trkpt lat="49.59527" lon="3.43136">
        <ele>130.9</ele>
        <time>2025-10-05T11:43:01.000Z</time>
      </trkpt>
      <trkpt lat="49.59528" lon="3.43136">
        <ele>130.8</ele>
        <time>2025-10-05T11:43:02.000Z</time>
      </trkpt>
      <trkpt lat="49.59529" lon="3.43135">
        <ele>131</ele>
        <time>2025-10-05T11:43:03.000Z</time>
      </trkpt>
      <trkpt lat="49.5953" lon="3.43134">
        <ele>131.1</ele>
        <time>2025-10-05T11:43:04.000Z</time>
      </trkpt>
      <trkpt lat="49.59531" lon="3.43134">
        <ele>131</ele>
        <time>2025-10-05T11:43:05.000Z</time>
      </trkpt>
      <trkpt lat="49.59533" lon="3.43133">
        <ele>131</ele>
        <time>2025-10-05T11:43:06.000Z</time>
      </trkpt>
      <trkpt lat="49.59534" lon="3.43132">
        <ele>130.8</ele>
        <time>2025-10-05T11:43:07.000Z</time>
      </trkpt>
      <trkpt lat="49.59535" lon="3.4313">
        <ele>130.8</ele>
        <time>2025-10-05T11:43:08.000Z</time>
      </trkpt>
      <trkpt lat="49.59536" lon="3.43129">
        <ele>130.8</ele>
        <time>2025-10-05T11:43:09.000Z</time>
      </trkpt>
      <trkpt lat="49.59537" lon="3.43128">
        <ele>130.7</ele>
        <time>2025-10-05T11:43:10.000Z</time>
      </trkpt>
      <trkpt lat="49.59538" lon="3.43128">
        <ele>130.7</ele>
        <time>2025-10-05T11:43:11.000Z</time>
      </trkpt>
      <trkpt lat="49.59539" lon="3.43127">
        <ele>130.6</ele>
        <time>2025-10-05T11:43:12.000Z</time>
      </trkpt>
      <trkpt lat="49.59539" lon="3.43126">
        <ele>130.5</ele>
        <time>2025-10-05T11:43:13.000Z</time>
      </trkpt>
      <trkpt lat="49.5954" lon="3.43126">
        <ele>130.5</ele>
        <time>2025-10-05T11:43:14.000Z</time>
      </trkpt>
      <trkpt lat="49.59541" lon="3.43125">
        <ele>130.6</ele>
        <time>2025-10-05T11:43:15.000Z</time>
      </trkpt>
      <trkpt lat="49.59542" lon="3.43125">
        <ele>130.5</ele>
        <time>2025-10-05T11:43:16.000Z</time>
      </trkpt>
      <trkpt lat="49.59543" lon="3.43125">
        <ele>129.9</ele>
        <time>2025-10-05T11:43:17.000Z</time>
      </trkpt>
      <trkpt lat="49.59543" lon="3.43125">
        <ele>129.4</ele>
        <time>2025-10-05T11:43:18.000Z</time>
      </trkpt>
      <trkpt lat="49.59544" lon="3.43124">
        <ele>129</ele>
        <time>2025-10-05T11:43:19.000Z</time>
      </trkpt>
      <trkpt lat="49.59545" lon="3.43124">
        <ele>128.6</ele>
        <time>2025-10-05T11:43:20.000Z</time>
      </trkpt>
      <trkpt lat="49.59546" lon="3.43123">
        <ele>128.6</ele>
        <time>2025-10-05T11:43:21.000Z</time>
      </trkpt>
      <trkpt lat="49.59547" lon="3.43123">
        <ele>128.6</ele>
        <time>2025-10-05T11:43:22.000Z</time>
      </trkpt>
      <trkpt lat="49.59548" lon="3.43122">
        <ele>128.8</ele>
        <time>2025-10-05T11:43:23.000Z</time>
      </trkpt>
      <trkpt lat="49.59548" lon="3.43122">
        <ele>129</ele>
        <time>2025-10-05T11:43:24.000Z</time>
      </trkpt>
      <trkpt lat="49.5955" lon="3.43121">
        <ele>129.1</ele>
        <time>2025-10-05T11:43:25.000Z</time>
      </trkpt>
      <trkpt lat="49.59551" lon="3.4312">
        <ele>129.1</ele>
        <time>2025-10-05T11:43:26.000Z</time>
      </trkpt>
      <trkpt lat="49.59552" lon="3.43119">
        <ele>128.8</ele>
        <time>2025-10-05T11:43:27.000Z</time>
      </trkpt>
      <trkpt lat="49.59553" lon="3.43117">
        <ele>128.6</ele>
        <time>2025-10-05T11:43:28.000Z</time>
      </trkpt>
      <trkpt lat="49.59554" lon="3.43116">
        <ele>128.4</ele>
        <time>2025-10-05T11:43:29.000Z</time>
      </trkpt>
      <trkpt lat="49.59555" lon="3.43115">
        <ele>128.2</ele>
        <time>2025-10-05T11:43:30.000Z</time>
      </trkpt>
      <trkpt lat="49.59556" lon="3.43114">
        <ele>128</ele>
        <time>2025-10-05T11:43:31.000Z</time>
      </trkpt>
      <trkpt lat="49.59558" lon="3.43113">
        <ele>127.9</ele>
        <time>2025-10-05T11:43:32.000Z</time>
      </trkpt>
      <trkpt lat="49.59559" lon="3.43111">
        <ele>127.7</ele>
        <time>2025-10-05T11:43:33.000Z</time>
      </trkpt>
      <trkpt lat="49.5956" lon="3.4311">
        <ele>127.7</ele>
        <time>2025-10-05T11:43:34.000Z</time>
      </trkpt>
      <trkpt lat="49.59561" lon="3.43109">
        <ele>127.7</ele>
        <time>2025-10-05T11:43:35.000Z</time>
      </trkpt>
      <trkpt lat="49.59563" lon="3.43108">
        <ele>127.5</ele>
        <time>2025-10-05T11:43:36.000Z</time>
      </trkpt>
      <trkpt lat="49.59563" lon="3.43107">
        <ele>127.4</ele>
        <time>2025-10-05T11:43:37.000Z</time>
      </trkpt>
      <trkpt lat="49.59564" lon="3.43106">
        <ele>127.1</ele>
        <time>2025-10-05T11:43:38.000Z</time>
      </trkpt>
      <trkpt lat="49.59565" lon="3.43105">
        <ele>127.2</ele>
        <time>2025-10-05T11:43:39.000Z</time>
      </trkpt>
      <trkpt lat="49.59566" lon="3.43104">
        <ele>127</ele>
        <time>2025-10-05T11:43:40.000Z</time>
      </trkpt>
      <trkpt lat="49.59566" lon="3.43103">
        <ele>126.9</ele>
        <time>2025-10-05T11:43:41.000Z</time>
      </trkpt>
      <trkpt lat="49.59567" lon="3.43101">
        <ele>126.9</ele>
        <time>2025-10-05T11:43:42.000Z</time>
      </trkpt>
      <trkpt lat="49.59568" lon="3.431">
        <ele>126.9</ele>
        <time>2025-10-05T11:43:43.000Z</time>
      </trkpt>
      <trkpt lat="49.59569" lon="3.43099">
        <ele>127</ele>
        <time>2025-10-05T11:43:44.000Z</time>
      </trkpt>
      <trkpt lat="49.5957" lon="3.43097">
        <ele>126.9</ele>
        <time>2025-10-05T11:43:45.000Z</time>
      </trkpt>
      <trkpt lat="49.59571" lon="3.43096">
        <ele>126.9</ele>
        <time>2025-10-05T11:43:46.000Z</time>
      </trkpt>
      <trkpt lat="49.59571" lon="3.43095">
        <ele>127.1</ele>
        <time>2025-10-05T11:43:47.000Z</time>
      </trkpt>
      <trkpt lat="49.59572" lon="3.43094">
        <ele>127.1</ele>
        <time>2025-10-05T11:43:48.000Z</time>
      </trkpt>
      <trkpt lat="49.59572" lon="3.43092">
        <ele>127.5</ele>
        <time>2025-10-05T11:43:49.000Z</time>
      </trkpt>
      <trkpt lat="49.59573" lon="3.43091">
        <ele>127.4</ele>
        <time>2025-10-05T11:43:50.000Z</time>
      </trkpt>
      <trkpt lat="49.59574" lon="3.4309">
        <ele>127.5</ele>
        <time>2025-10-05T11:43:51.000Z</time>
      </trkpt>
      <trkpt lat="49.59574" lon="3.43088">
        <ele>127.7</ele>
        <time>2025-10-05T11:43:52.000Z</time>
      </trkpt>
      <trkpt lat="49.59575" lon="3.43086">
        <ele>127.8</ele>
        <time>2025-10-05T11:43:53.000Z</time>
      </trkpt>
      <trkpt lat="49.59575" lon="3.43085">
        <ele>127.9</ele>
        <time>2025-10-05T11:43:54.000Z</time>
      </trkpt>
      <trkpt lat="49.59576" lon="3.43083">
        <ele>127.9</ele>
        <time>2025-10-05T11:43:55.000Z</time>
      </trkpt>
      <trkpt lat="49.59576" lon="3.43081">
        <ele>127.8</ele>
        <time>2025-10-05T11:43:56.000Z</time>
      </trkpt>
      <trkpt lat="49.59577" lon="3.43079">
        <ele>127.5</ele>
        <time>2025-10-05T11:43:57.000Z</time>
      </trkpt>
      <trkpt lat="49.59577" lon="3.43077">
        <ele>127.4</ele>
        <time>2025-10-05T11:43:58.000Z</time>
      </trkpt>
      <trkpt lat="49.59578" lon="3.43075">
        <ele>127.4</ele>
        <time>2025-10-05T11:43:59.000Z</time>
      </trkpt>
      <trkpt lat="49.59578" lon="3.43073">
        <ele>127.5</ele>
        <time>2025-10-05T11:44:00.000Z</time>
      </trkpt>
      <trkpt lat="49.59579" lon="3.43072">
        <ele>127.5</ele>
        <time>2025-10-05T11:44:01.000Z</time>
      </trkpt>
      <trkpt lat="49.5958" lon="3.4307">
        <ele>127.3</ele>
        <time>2025-10-05T11:44:02.000Z</time>
      </trkpt>
      <trkpt lat="49.5958" lon="3.43069">
        <ele>127.2</ele>
        <time>2025-10-05T11:44:03.000Z</time>
      </trkpt>
      <trkpt lat="49.59581" lon="3.43067">
        <ele>127</ele>
        <time>2025-10-05T11:44:04.000Z</time>
      </trkpt>
      <trkpt lat="49.59581" lon="3.43066">
        <ele>126.9</ele>
        <time>2025-10-05T11:44:05.000Z</time>
      </trkpt>
      <trkpt lat="49.59581" lon="3.43064">
        <ele>126.9</ele>
        <time>2025-10-05T11:44:06.000Z</time>
      </trkpt>
      <trkpt lat="49.59582" lon="3.43062">
        <ele>126.6</ele>
        <time>2025-10-05T11:44:07.000Z</time>
      </trkpt>
      <trkpt lat="49.59582" lon="3.43061">
        <ele>126.3</ele>
        <time>2025-10-05T11:44:08.000Z</time>
      </trkpt>
      <trkpt lat="49.59583" lon="3.43059">
        <ele>126.1</ele>
        <time>2025-10-05T11:44:09.000Z</time>
      </trkpt>
      <trkpt lat="49.59584" lon="3.43058">
        <ele>126.2</ele>
        <time>2025-10-05T11:44:10.000Z</time>
      </trkpt>
      <trkpt lat="49.59584" lon="3.43056">
        <ele>126.4</ele>
        <time>2025-10-05T11:44:11.000Z</time>
      </trkpt>
      <trkpt lat="49.59585" lon="3.43054">
        <ele>126.3</ele>
        <time>2025-10-05T11:44:12.000Z</time>
      </trkpt>
      <trkpt lat="49.59586" lon="3.43052">
        <ele>126.1</ele>
        <time>2025-10-05T11:44:13.000Z</time>
      </trkpt>
      <trkpt lat="49.59586" lon="3.4305">
        <ele>125.8</ele>
        <time>2025-10-05T11:44:14.000Z</time>
      </trkpt>
      <trkpt lat="49.59587" lon="3.43048">
        <ele>125.7</ele>
        <time>2025-10-05T11:44:15.000Z</time>
      </trkpt>
      <trkpt lat="49.59588" lon="3.43047">
        <ele>125.5</ele>
        <time>2025-10-05T11:44:16.000Z</time>
      </trkpt>
      <trkpt lat="49.59588" lon="3.43045">
        <ele>125.3</ele>
        <time>2025-10-05T11:44:17.000Z</time>
      </trkpt>
      <trkpt lat="49.59589" lon="3.43043">
        <ele>124.7</ele>
        <time>2025-10-05T11:44:18.000Z</time>
      </trkpt>
      <trkpt lat="49.59589" lon="3.43043">
        <ele>124.4</ele>
        <time>2025-10-05T11:44:19.000Z</time>
      </trkpt>
      <trkpt lat="49.59589" lon="3.43041">
        <ele>124.3</ele>
        <time>2025-10-05T11:44:20.000Z</time>
      </trkpt>
      <trkpt lat="49.5959" lon="3.4304">
        <ele>123.9</ele>
        <time>2025-10-05T11:44:21.000Z</time>
      </trkpt>
      <trkpt lat="49.5959" lon="3.43039">
        <ele>123.4</ele>
        <time>2025-10-05T11:44:22.000Z</time>
      </trkpt>
      <trkpt lat="49.5959" lon="3.43038">
        <ele>123.2</ele>
        <time>2025-10-05T11:44:23.000Z</time>
      </trkpt>
      <trkpt lat="49.5959" lon="3.43037">
        <ele>123.6</ele>
        <time>2025-10-05T11:44:24.000Z</time>
      </trkpt>
      <trkpt lat="49.5959" lon="3.43036">
        <ele>123.6</ele>
        <time>2025-10-05T11:44:25.000Z</time>
      </trkpt>
      <trkpt lat="49.5959" lon="3.43035">
        <ele>123.6</ele>
        <time>2025-10-05T11:44:26.000Z</time>
      </trkpt>
      <trkpt lat="49.5959" lon="3.43034">
        <ele>123.4</ele>
        <time>2025-10-05T11:44:27.000Z</time>
      </trkpt>
      <trkpt lat="49.59591" lon="3.43033">
        <ele>123.1</ele>
        <time>2025-10-05T11:44:28.000Z</time>
      </trkpt>
      <trkpt lat="49.59591" lon="3.43031">
        <ele>123.2</ele>
        <time>2025-10-05T11:44:29.000Z</time>
      </trkpt>
      <trkpt lat="49.59592" lon="3.4303">
        <ele>123.3</ele>
        <time>2025-10-05T11:44:30.000Z</time>
      </trkpt>
      <trkpt lat="49.59592" lon="3.43028">
        <ele>123.3</ele>
        <time>2025-10-05T11:44:31.000Z</time>
      </trkpt>
      <trkpt lat="49.59593" lon="3.43027">
        <ele>123.3</ele>
        <time>2025-10-05T11:44:32.000Z</time>
      </trkpt>
      <trkpt lat="49.59593" lon="3.43025">
        <ele>123.4</ele>
        <time>2025-10-05T11:44:33.000Z</time>
      </trkpt>
      <trkpt lat="49.59594" lon="3.43023">
        <ele>123.5</ele>
        <time>2025-10-05T11:44:34.000Z</time>
      </trkpt>
      <trkpt lat="49.59594" lon="3.43021">
        <ele>123.8</ele>
        <time>2025-10-05T11:44:35.000Z</time>
      </trkpt>
      <trkpt lat="49.59594" lon="3.43019">
        <ele>124.2</ele>
        <time>2025-10-05T11:44:36.000Z</time>
      </trkpt>
      <trkpt lat="49.59594" lon="3.43017">
        <ele>124.5</ele>
        <time>2025-10-05T11:44:37.000Z</time>
      </trkpt>
      <trkpt lat="49.59595" lon="3.43015">
        <ele>124.8</ele>
        <time>2025-10-05T11:44:38.000Z</time>
      </trkpt>
      <trkpt lat="49.59595" lon="3.43013">
        <ele>125.2</ele>
        <time>2025-10-05T11:44:39.000Z</time>
      </trkpt>
      <trkpt lat="49.59595" lon="3.43011">
        <ele>125.6</ele>
        <time>2025-10-05T11:44:40.000Z</time>
      </trkpt>
      <trkpt lat="49.59595" lon="3.43009">
        <ele>125.9</ele>
        <time>2025-10-05T11:44:41.000Z</time>
      </trkpt>
      <trkpt lat="49.59596" lon="3.43007">
        <ele>126.2</ele>
        <time>2025-10-05T11:44:42.000Z</time>
      </trkpt>
      <trkpt lat="49.59597" lon="3.43006">
        <ele>126.8</ele>
        <time>2025-10-05T11:44:43.000Z</time>
      </trkpt>
      <trkpt lat="49.59597" lon="3.43005">
        <ele>127.1</ele>
        <time>2025-10-05T11:44:44.000Z</time>
      </trkpt>
      <trkpt lat="49.59598" lon="3.43003">
        <ele>127.5</ele>
        <time>2025-10-05T11:44:45.000Z</time>
      </trkpt>
      <trkpt lat="49.59598" lon="3.43002">
        <ele>128</ele>
        <time>2025-10-05T11:44:46.000Z</time>
      </trkpt>
      <trkpt lat="49.59599" lon="3.43001">
        <ele>128.2</ele>
        <time>2025-10-05T11:44:47.000Z</time>
      </trkpt>
      <trkpt lat="49.59599" lon="3.43">
        <ele>128.2</ele>
        <time>2025-10-05T11:44:48.000Z</time>
      </trkpt>
      <trkpt lat="49.59599" lon="3.42999">
        <ele>128</ele>
        <time>2025-10-05T11:44:49.000Z</time>
      </trkpt>
      <trkpt lat="49.596" lon="3.42998">
        <ele>127.9</ele>
        <time>2025-10-05T11:44:50.000Z</time>
      </trkpt>
      <trkpt lat="49.59601" lon="3.42997">
        <ele>127.7</ele>
        <time>2025-10-05T11:44:51.000Z</time>
      </trkpt>
      <trkpt lat="49.59601" lon="3.42995">
        <ele>127.4</ele>
        <time>2025-10-05T11:44:52.000Z</time>
      </trkpt>
      <trkpt lat="49.59602" lon="3.42994">
        <ele>127.2</ele>
        <time>2025-10-05T11:44:53.000Z</time>
      </trkpt>
      <trkpt lat="49.59603" lon="3.42993">
        <ele>126.9</ele>
        <time>2025-10-05T11:44:54.000Z</time>
      </trkpt>
      <trkpt lat="49.59603" lon="3.42991">
        <ele>126.6</ele>
        <time>2025-10-05T11:44:55.000Z</time>
      </trkpt>
      <trkpt lat="49.59604" lon="3.42989">
        <ele>126.5</ele>
        <time>2025-10-05T11:44:56.000Z</time>
      </trkpt>
      <trkpt lat="49.59604" lon="3.42987">
        <ele>126.3</ele>
        <time>2025-10-05T11:44:57.000Z</time>
      </trkpt>
      <trkpt lat="49.59605" lon="3.42985">
        <ele>126</ele>
        <time>2025-10-05T11:44:58.000Z</time>
      </trkpt>
      <trkpt lat="49.59605" lon="3.42984">
        <ele>126</ele>
        <time>2025-10-05T11:44:59.000Z</time>
      </trkpt>
      <trkpt lat="49.59605" lon="3.42981">
        <ele>126</ele>
        <time>2025-10-05T11:45:00.000Z</time>
      </trkpt>
      <trkpt lat="49.59606" lon="3.42979">
        <ele>125.9</ele>
        <time>2025-10-05T11:45:01.000Z</time>
      </trkpt>
      <trkpt lat="49.59607" lon="3.42977">
        <ele>126.1</ele>
        <time>2025-10-05T11:45:02.000Z</time>
      </trkpt>
      <trkpt lat="49.59608" lon="3.42975">
        <ele>126.1</ele>
        <time>2025-10-05T11:45:03.000Z</time>
      </trkpt>
      <trkpt lat="49.59608" lon="3.42973">
        <ele>125.9</ele>
        <time>2025-10-05T11:45:04.000Z</time>
      </trkpt>
      <trkpt lat="49.59609" lon="3.42972">
        <ele>126</ele>
        <time>2025-10-05T11:45:05.000Z</time>
      </trkpt>
      <trkpt lat="49.5961" lon="3.4297">
        <ele>126</ele>
        <time>2025-10-05T11:45:06.000Z</time>
      </trkpt>
      <trkpt lat="49.5961" lon="3.42969">
        <ele>126</ele>
        <time>2025-10-05T11:45:07.000Z</time>
      </trkpt>
      <trkpt lat="49.59611" lon="3.42967">
        <ele>126</ele>
        <time>2025-10-05T11:45:08.000Z</time>
      </trkpt>
      <trkpt lat="49.59612" lon="3.42965">
        <ele>125.9</ele>
        <time>2025-10-05T11:45:09.000Z</time>
      </trkpt>
      <trkpt lat="49.59613" lon="3.42964">
        <ele>125.9</ele>
        <time>2025-10-05T11:45:10.000Z</time>
      </trkpt>
      <trkpt lat="49.59613" lon="3.42962">
        <ele>126.1</ele>
        <time>2025-10-05T11:45:11.000Z</time>
      </trkpt>
      <trkpt lat="49.59614" lon="3.42961">
        <ele>126.1</ele>
        <time>2025-10-05T11:45:12.000Z</time>
      </trkpt>
      <trkpt lat="49.59614" lon="3.42959">
        <ele>125.8</ele>
        <time>2025-10-05T11:45:13.000Z</time>
      </trkpt>
      <trkpt lat="49.59614" lon="3.42958">
        <ele>125.7</ele>
        <time>2025-10-05T11:45:14.000Z</time>
      </trkpt>
      <trkpt lat="49.59615" lon="3.42957">
        <ele>125.9</ele>
        <time>2025-10-05T11:45:15.000Z</time>
      </trkpt>
      <trkpt lat="49.59615" lon="3.42955">
        <ele>125.8</ele>
        <time>2025-10-05T11:45:16.000Z</time>
      </trkpt>
      <trkpt lat="49.59616" lon="3.42953">
        <ele>125.8</ele>
        <time>2025-10-05T11:45:17.000Z</time>
      </trkpt>
      <trkpt lat="49.59617" lon="3.42951">
        <ele>126.1</ele>
        <time>2025-10-05T11:45:18.000Z</time>
      </trkpt>
      <trkpt lat="49.59617" lon="3.42949">
        <ele>126.3</ele>
        <time>2025-10-05T11:45:19.000Z</time>
      </trkpt>
      <trkpt lat="49.59618" lon="3.42948">
        <ele>126.4</ele>
        <time>2025-10-05T11:45:20.000Z</time>
      </trkpt>
      <trkpt lat="49.59619" lon="3.42946">
        <ele>126.4</ele>
        <time>2025-10-05T11:45:21.000Z</time>
      </trkpt>
      <trkpt lat="49.5962" lon="3.42944">
        <ele>126.7</ele>
        <time>2025-10-05T11:45:22.000Z</time>
      </trkpt>
      <trkpt lat="49.5962" lon="3.42943">
        <ele>126.9</ele>
        <time>2025-10-05T11:45:23.000Z</time>
      </trkpt>
      <trkpt lat="49.59621" lon="3.42941">
        <ele>127</ele>
        <time>2025-10-05T11:45:24.000Z</time>
      </trkpt>
      <trkpt lat="49.59621" lon="3.4294">
        <ele>127.1</ele>
        <time>2025-10-05T11:45:25.000Z</time>
      </trkpt>
      <trkpt lat="49.59622" lon="3.42938">
        <ele>127.3</ele>
        <time>2025-10-05T11:45:26.000Z</time>
      </trkpt>
      <trkpt lat="49.59623" lon="3.42936">
        <ele>127.3</ele>
        <time>2025-10-05T11:45:27.000Z</time>
      </trkpt>
      <trkpt lat="49.59623" lon="3.42935">
        <ele>127</ele>
        <time>2025-10-05T11:45:28.000Z</time>
      </trkpt>
      <trkpt lat="49.59624" lon="3.42933">
        <ele>126.4</ele>
        <time>2025-10-05T11:45:29.000Z</time>
      </trkpt>
      <trkpt lat="49.59625" lon="3.42932">
        <ele>126.2</ele>
        <time>2025-10-05T11:45:30.000Z</time>
      </trkpt>
      <trkpt lat="49.59626" lon="3.4293">
        <ele>126</ele>
        <time>2025-10-05T11:45:31.000Z</time>
      </trkpt>
      <trkpt lat="49.59626" lon="3.42929">
        <ele>125.6</ele>
        <time>2025-10-05T11:45:32.000Z</time>
      </trkpt>
      <trkpt lat="49.59627" lon="3.42928">
        <ele>125.5</ele>
        <time>2025-10-05T11:45:33.000Z</time>
      </trkpt>
      <trkpt lat="49.59627" lon="3.42927">
        <ele>125.4</ele>
        <time>2025-10-05T11:45:34.000Z</time>
      </trkpt>
      <trkpt lat="49.59628" lon="3.42926">
        <ele>125.4</ele>
        <time>2025-10-05T11:45:35.000Z</time>
      </trkpt>
      <trkpt lat="49.59628" lon="3.42924">
        <ele>125.5</ele>
        <time>2025-10-05T11:45:36.000Z</time>
      </trkpt>
      <trkpt lat="49.59629" lon="3.42922">
        <ele>125.4</ele>
        <time>2025-10-05T11:45:37.000Z</time>
      </trkpt>
      <trkpt lat="49.5963" lon="3.42921">
        <ele>125.4</ele>
        <time>2025-10-05T11:45:38.000Z</time>
      </trkpt>
      <trkpt lat="49.5963" lon="3.42919">
        <ele>125.4</ele>
        <time>2025-10-05T11:45:39.000Z</time>
      </trkpt>
      <trkpt lat="49.59631" lon="3.42918">
        <ele>125.4</ele>
        <time>2025-10-05T11:45:40.000Z</time>
      </trkpt>
      <trkpt lat="49.59632" lon="3.42917">
        <ele>125.2</ele>
        <time>2025-10-05T11:45:41.000Z</time>
      </trkpt>
      <trkpt lat="49.59632" lon="3.42916">
        <ele>125.2</ele>
        <time>2025-10-05T11:45:42.000Z</time>
      </trkpt>
      <trkpt lat="49.59633" lon="3.42915">
        <ele>124.8</ele>
        <time>2025-10-05T11:45:43.000Z</time>
      </trkpt>
      <trkpt lat="49.59634" lon="3.42913">
        <ele>124.8</ele>
        <time>2025-10-05T11:45:44.000Z</time>
      </trkpt>
      <trkpt lat="49.59634" lon="3.42912">
        <ele>124.8</ele>
        <time>2025-10-05T11:45:45.000Z</time>
      </trkpt>
      <trkpt lat="49.59635" lon="3.42911">
        <ele>124.8</ele>
        <time>2025-10-05T11:45:46.000Z</time>
      </trkpt>
      <trkpt lat="49.59636" lon="3.42909">
        <ele>124.8</ele>
        <time>2025-10-05T11:45:47.000Z</time>
      </trkpt>
      <trkpt lat="49.59636" lon="3.42908">
        <ele>124.6</ele>
        <time>2025-10-05T11:45:48.000Z</time>
      </trkpt>
      <trkpt lat="49.59637" lon="3.42906">
        <ele>124.4</ele>
        <time>2025-10-05T11:45:49.000Z</time>
      </trkpt>
      <trkpt lat="49.59638" lon="3.42905">
        <ele>124</ele>
        <time>2025-10-05T11:45:50.000Z</time>
      </trkpt>
      <trkpt lat="49.59639" lon="3.42904">
        <ele>123.6</ele>
        <time>2025-10-05T11:45:51.000Z</time>
      </trkpt>
      <trkpt lat="49.5964" lon="3.42902">
        <ele>123.5</ele>
        <time>2025-10-05T11:45:52.000Z</time>
      </trkpt>
      <trkpt lat="49.5964" lon="3.429">
        <ele>123.3</ele>
        <time>2025-10-05T11:45:53.000Z</time>
      </trkpt>
      <trkpt lat="49.59641" lon="3.42899">
        <ele>123.3</ele>
        <time>2025-10-05T11:45:54.000Z</time>
      </trkpt>
      <trkpt lat="49.59642" lon="3.42897">
        <ele>123.3</ele>
        <time>2025-10-05T11:45:55.000Z</time>
      </trkpt>
      <trkpt lat="49.59643" lon="3.42896">
        <ele>123.5</ele>
        <time>2025-10-05T11:45:56.000Z</time>
      </trkpt>
      <trkpt lat="49.59643" lon="3.42894">
        <ele>123.7</ele>
        <time>2025-10-05T11:45:57.000Z</time>
      </trkpt>
      <trkpt lat="49.59644" lon="3.42893">
        <ele>123.7</ele>
        <time>2025-10-05T11:45:58.000Z</time>
      </trkpt>
      <trkpt lat="49.59645" lon="3.42892">
        <ele>123.7</ele>
        <time>2025-10-05T11:45:59.000Z</time>
      </trkpt>
      <trkpt lat="49.59645" lon="3.42891">
        <ele>123.9</ele>
        <time>2025-10-05T11:46:00.000Z</time>
      </trkpt>
      <trkpt lat="49.59646" lon="3.4289">
        <ele>124.2</ele>
        <time>2025-10-05T11:46:01.000Z</time>
      </trkpt>
      <trkpt lat="49.59647" lon="3.42889">
        <ele>124.4</ele>
        <time>2025-10-05T11:46:02.000Z</time>
      </trkpt>
      <trkpt lat="49.59648" lon="3.42887">
        <ele>124.5</ele>
        <time>2025-10-05T11:46:03.000Z</time>
      </trkpt>
      <trkpt lat="49.59649" lon="3.42886">
        <ele>124.7</ele>
        <time>2025-10-05T11:46:04.000Z</time>
      </trkpt>
      <trkpt lat="49.59649" lon="3.42885">
        <ele>124.8</ele>
        <time>2025-10-05T11:46:05.000Z</time>
      </trkpt>
      <trkpt lat="49.5965" lon="3.42884">
        <ele>124.8</ele>
        <time>2025-10-05T11:46:06.000Z</time>
      </trkpt>
      <trkpt lat="49.59652" lon="3.42882">
        <ele>125</ele>
        <time>2025-10-05T11:46:07.000Z</time>
      </trkpt>
      <trkpt lat="49.59653" lon="3.42881">
        <ele>125.2</ele>
        <time>2025-10-05T11:46:08.000Z</time>
      </trkpt>
      <trkpt lat="49.59654" lon="3.4288">
        <ele>125.3</ele>
        <time>2025-10-05T11:46:09.000Z</time>
      </trkpt>
      <trkpt lat="49.59655" lon="3.4288">
        <ele>125.7</ele>
        <time>2025-10-05T11:46:10.000Z</time>
      </trkpt>
      <trkpt lat="49.59656" lon="3.42879">
        <ele>125.9</ele>
        <time>2025-10-05T11:46:11.000Z</time>
      </trkpt>
      <trkpt lat="49.59658" lon="3.42879">
        <ele>125.9</ele>
        <time>2025-10-05T11:46:12.000Z</time>
      </trkpt>
      <trkpt lat="49.59659" lon="3.42879">
        <ele>125.9</ele>
        <time>2025-10-05T11:46:13.000Z</time>
      </trkpt>
      <trkpt lat="49.59659" lon="3.42878">
        <ele>126</ele>
        <time>2025-10-05T11:46:14.000Z</time>
      </trkpt>
      <trkpt lat="49.5966" lon="3.42877">
        <ele>126</ele>
        <time>2025-10-05T11:46:15.000Z</time>
      </trkpt>
      <trkpt lat="49.59662" lon="3.42876">
        <ele>126</ele>
        <time>2025-10-05T11:46:16.000Z</time>
      </trkpt>
      <trkpt lat="49.59664" lon="3.42876">
        <ele>126.1</ele>
        <time>2025-10-05T11:46:17.000Z</time>
      </trkpt>
      <trkpt lat="49.59665" lon="3.42876">
        <ele>126.3</ele>
        <time>2025-10-05T11:46:18.000Z</time>
      </trkpt>
      <trkpt lat="49.59666" lon="3.42876">
        <ele>126.2</ele>
        <time>2025-10-05T11:46:19.000Z</time>
      </trkpt>
      <trkpt lat="49.59668" lon="3.42876">
        <ele>126.2</ele>
        <time>2025-10-05T11:46:20.000Z</time>
      </trkpt>
      <trkpt lat="49.59668" lon="3.42876">
        <ele>126.2</ele>
        <time>2025-10-05T11:46:21.000Z</time>
      </trkpt>
      <trkpt lat="49.59669" lon="3.42876">
        <ele>126.3</ele>
        <time>2025-10-05T11:46:22.000Z</time>
      </trkpt>
      <trkpt lat="49.5967" lon="3.42876">
        <ele>126.5</ele>
        <time>2025-10-05T11:46:23.000Z</time>
      </trkpt>
      <trkpt lat="49.59671" lon="3.42876">
        <ele>126.4</ele>
        <time>2025-10-05T11:46:24.000Z</time>
      </trkpt>
      <trkpt lat="49.59672" lon="3.42876">
        <ele>126.4</ele>
        <time>2025-10-05T11:46:25.000Z</time>
      </trkpt>
      <trkpt lat="49.59674" lon="3.42876">
        <ele>126.5</ele>
        <time>2025-10-05T11:46:26.000Z</time>
      </trkpt>
      <trkpt lat="49.59675" lon="3.42877">
        <ele>126.5</ele>
        <time>2025-10-05T11:46:27.000Z</time>
      </trkpt>
      <trkpt lat="49.59676" lon="3.42877">
        <ele>126.5</ele>
        <time>2025-10-05T11:46:28.000Z</time>
      </trkpt>
      <trkpt lat="49.59678" lon="3.42877">
        <ele>126.5</ele>
        <time>2025-10-05T11:46:29.000Z</time>
      </trkpt>
      <trkpt lat="49.59679" lon="3.42877">
        <ele>126.6</ele>
        <time>2025-10-05T11:46:30.000Z</time>
      </trkpt>
      <trkpt lat="49.5968" lon="3.42877">
        <ele>126.6</ele>
        <time>2025-10-05T11:46:31.000Z</time>
      </trkpt>
      <trkpt lat="49.59681" lon="3.42878">
        <ele>126.2</ele>
        <time>2025-10-05T11:46:32.000Z</time>
      </trkpt>
      <trkpt lat="49.59682" lon="3.42879">
        <ele>126</ele>
        <time>2025-10-05T11:46:33.000Z</time>
      </trkpt>
      <trkpt lat="49.59684" lon="3.42879">
        <ele>125.8</ele>
        <time>2025-10-05T11:46:34.000Z</time>
      </trkpt>
      <trkpt lat="49.59685" lon="3.4288">
        <ele>125.6</ele>
        <time>2025-10-05T11:46:35.000Z</time>
      </trkpt>
      <trkpt lat="49.59686" lon="3.42881">
        <ele>125.5</ele>
        <time>2025-10-05T11:46:36.000Z</time>
      </trkpt>
      <trkpt lat="49.59688" lon="3.42882">
        <ele>125.5</ele>
        <time>2025-10-05T11:46:37.000Z</time>
      </trkpt>
      <trkpt lat="49.59689" lon="3.42884">
        <ele>125.7</ele>
        <time>2025-10-05T11:46:38.000Z</time>
      </trkpt>
      <trkpt lat="49.5969" lon="3.42884">
        <ele>125.7</ele>
        <time>2025-10-05T11:46:39.000Z</time>
      </trkpt>
      <trkpt lat="49.59691" lon="3.42885">
        <ele>125.4</ele>
        <time>2025-10-05T11:46:40.000Z</time>
      </trkpt>
      <trkpt lat="49.59693" lon="3.42886">
        <ele>125</ele>
        <time>2025-10-05T11:46:41.000Z</time>
      </trkpt>
      <trkpt lat="49.59695" lon="3.42886">
        <ele>124.7</ele>
        <time>2025-10-05T11:46:42.000Z</time>
      </trkpt>
      <trkpt lat="49.59696" lon="3.42888">
        <ele>124.1</ele>
        <time>2025-10-05T11:46:43.000Z</time>
      </trkpt>
      <trkpt lat="49.59697" lon="3.42888">
        <ele>123.5</ele>
        <time>2025-10-05T11:46:44.000Z</time>
      </trkpt>
      <trkpt lat="49.59698" lon="3.42889">
        <ele>123.4</ele>
        <time>2025-10-05T11:46:45.000Z</time>
      </trkpt>
      <trkpt lat="49.597" lon="3.4289">
        <ele>123.4</ele>
        <time>2025-10-05T11:46:46.000Z</time>
      </trkpt>
      <trkpt lat="49.597" lon="3.42891">
        <ele>123.4</ele>
        <time>2025-10-05T11:46:47.000Z</time>
      </trkpt>
      <trkpt lat="49.59701" lon="3.42891">
        <ele>123.4</ele>
        <time>2025-10-05T11:46:48.000Z</time>
      </trkpt>
      <trkpt lat="49.59702" lon="3.42892">
        <ele>123.4</ele>
        <time>2025-10-05T11:46:49.000Z</time>
      </trkpt>
      <trkpt lat="49.59702" lon="3.42893">
        <ele>123.5</ele>
        <time>2025-10-05T11:46:50.000Z</time>
      </trkpt>
      <trkpt lat="49.59703" lon="3.42893">
        <ele>123.6</ele>
        <time>2025-10-05T11:46:51.000Z</time>
      </trkpt>
      <trkpt lat="49.59704" lon="3.42894">
        <ele>123.7</ele>
        <time>2025-10-05T11:46:52.000Z</time>
      </trkpt>
      <trkpt lat="49.59705" lon="3.42895">
        <ele>123.8</ele>
        <time>2025-10-05T11:46:53.000Z</time>
      </trkpt>
      <trkpt lat="49.59706" lon="3.42895">
        <ele>123.8</ele>
        <time>2025-10-05T11:46:54.000Z</time>
      </trkpt>
      <trkpt lat="49.59707" lon="3.42896">
        <ele>123.7</ele>
        <time>2025-10-05T11:46:55.000Z</time>
      </trkpt>
      <trkpt lat="49.59708" lon="3.42897">
        <ele>123.6</ele>
        <time>2025-10-05T11:46:56.000Z</time>
      </trkpt>
      <trkpt lat="49.59708" lon="3.42898">
        <ele>123.6</ele>
        <time>2025-10-05T11:46:57.000Z</time>
      </trkpt>
      <trkpt lat="49.59709" lon="3.42898">
        <ele>123.6</ele>
        <time>2025-10-05T11:46:58.000Z</time>
      </trkpt>
      <trkpt lat="49.5971" lon="3.42899">
        <ele>123.6</ele>
        <time>2025-10-05T11:46:59.000Z</time>
      </trkpt>
      <trkpt lat="49.59711" lon="3.429">
        <ele>123.4</ele>
        <time>2025-10-05T11:47:00.000Z</time>
      </trkpt>
      <trkpt lat="49.59713" lon="3.42901">
        <ele>123.6</ele>
        <time>2025-10-05T11:47:01.000Z</time>
      </trkpt>
      <trkpt lat="49.59714" lon="3.42902">
        <ele>123.8</ele>
        <time>2025-10-05T11:47:02.000Z</time>
      </trkpt>
      <trkpt lat="49.59715" lon="3.42904">
        <ele>123.7</ele>
        <time>2025-10-05T11:47:03.000Z</time>
      </trkpt>
      <trkpt lat="49.59716" lon="3.42905">
        <ele>123.7</ele>
        <time>2025-10-05T11:47:04.000Z</time>
      </trkpt>
      <trkpt lat="49.59718" lon="3.42906">
        <ele>123.8</ele>
        <time>2025-10-05T11:47:05.000Z</time>
      </trkpt>
      <trkpt lat="49.59719" lon="3.42907">
        <ele>123.9</ele>
        <time>2025-10-05T11:47:06.000Z</time>
      </trkpt>
      <trkpt lat="49.5972" lon="3.42908">
        <ele>123.9</ele>
        <time>2025-10-05T11:47:07.000Z</time>
      </trkpt>
      <trkpt lat="49.5972" lon="3.42909">
        <ele>124</ele>
        <time>2025-10-05T11:47:08.000Z</time>
      </trkpt>
      <trkpt lat="49.59722" lon="3.4291">
        <ele>124.1</ele>
        <time>2025-10-05T11:47:09.000Z</time>
      </trkpt>
      <trkpt lat="49.59723" lon="3.42911">
        <ele>124.3</ele>
        <time>2025-10-05T11:47:10.000Z</time>
      </trkpt>
      <trkpt lat="49.59724" lon="3.42913">
        <ele>124.1</ele>
        <time>2025-10-05T11:47:11.000Z</time>
      </trkpt>
      <trkpt lat="49.59725" lon="3.42914">
        <ele>124</ele>
        <time>2025-10-05T11:47:12.000Z</time>
      </trkpt>
      <trkpt lat="49.59726" lon="3.42915">
        <ele>123.6</ele>
        <time>2025-10-05T11:47:13.000Z</time>
      </trkpt>
      <trkpt lat="49.59727" lon="3.42917">
        <ele>123.1</ele>
        <time>2025-10-05T11:47:14.000Z</time>
      </trkpt>
      <trkpt lat="49.59728" lon="3.42918">
        <ele>123.3</ele>
        <time>2025-10-05T11:47:15.000Z</time>
      </trkpt>
      <trkpt lat="49.5973" lon="3.42919">
        <ele>123.3</ele>
        <time>2025-10-05T11:47:16.000Z</time>
      </trkpt>
      <trkpt lat="49.5973" lon="3.4292">
        <ele>124</ele>
        <time>2025-10-05T11:47:17.000Z</time>
      </trkpt>
      <trkpt lat="49.59731" lon="3.42921">
        <ele>124.6</ele>
        <time>2025-10-05T11:47:18.000Z</time>
      </trkpt>
      <trkpt lat="49.59732" lon="3.42921">
        <ele>124.7</ele>
        <time>2025-10-05T11:47:19.000Z</time>
      </trkpt>
      <trkpt lat="49.59733" lon="3.42922">
        <ele>124.7</ele>
        <time>2025-10-05T11:47:20.000Z</time>
      </trkpt>
      <trkpt lat="49.59733" lon="3.42923">
        <ele>124.8</ele>
        <time>2025-10-05T11:47:21.000Z</time>
      </trkpt>
      <trkpt lat="49.59734" lon="3.42924">
        <ele>125.2</ele>
        <time>2025-10-05T11:47:22.000Z</time>
      </trkpt>
      <trkpt lat="49.59735" lon="3.42925">
        <ele>125.7</ele>
        <time>2025-10-05T11:47:23.000Z</time>
      </trkpt>
      <trkpt lat="49.59736" lon="3.42926">
        <ele>126</ele>
        <time>2025-10-05T11:47:24.000Z</time>
      </trkpt>
      <trkpt lat="49.59736" lon="3.42927">
        <ele>126.3</ele>
        <time>2025-10-05T11:47:25.000Z</time>
      </trkpt>
      <trkpt lat="49.59737" lon="3.42928">
        <ele>126.3</ele>
        <time>2025-10-05T11:47:26.000Z</time>
      </trkpt>
      <trkpt lat="49.59738" lon="3.4293">
        <ele>126.5</ele>
        <time>2025-10-05T11:47:27.000Z</time>
      </trkpt>
      <trkpt lat="49.59739" lon="3.42932">
        <ele>126.8</ele>
        <time>2025-10-05T11:47:28.000Z</time>
      </trkpt>
      <trkpt lat="49.5974" lon="3.42933">
        <ele>127.2</ele>
        <time>2025-10-05T11:47:29.000Z</time>
      </trkpt>
      <trkpt lat="49.59741" lon="3.42935">
        <ele>127.2</ele>
        <time>2025-10-05T11:47:30.000Z</time>
      </trkpt>
      <trkpt lat="49.59741" lon="3.42936">
        <ele>127</ele>
        <time>2025-10-05T11:47:31.000Z</time>
      </trkpt>
      <trkpt lat="49.59742" lon="3.42938">
        <ele>127</ele>
        <time>2025-10-05T11:47:32.000Z</time>
      </trkpt>
      <trkpt lat="49.59743" lon="3.4294">
        <ele>127.1</ele>
        <time>2025-10-05T11:47:33.000Z</time>
      </trkpt>
      <trkpt lat="49.59744" lon="3.42942">
        <ele>127.2</ele>
        <time>2025-10-05T11:47:34.000Z</time>
      </trkpt>
      <trkpt lat="49.59745" lon="3.42944">
        <ele>127.2</ele>
        <time>2025-10-05T11:47:35.000Z</time>
      </trkpt>
      <trkpt lat="49.59746" lon="3.42945">
        <ele>127.2</ele>
        <time>2025-10-05T11:47:36.000Z</time>
      </trkpt>
      <trkpt lat="49.59747" lon="3.42947">
        <ele>127</ele>
        <time>2025-10-05T11:47:37.000Z</time>
      </trkpt>
      <trkpt lat="49.59748" lon="3.42948">
        <ele>127.2</ele>
        <time>2025-10-05T11:47:38.000Z</time>
      </trkpt>
      <trkpt lat="49.59748" lon="3.42949">
        <ele>127.3</ele>
        <time>2025-10-05T11:47:39.000Z</time>
      </trkpt>
      <trkpt lat="49.59749" lon="3.42951">
        <ele>127.6</ele>
        <time>2025-10-05T11:47:40.000Z</time>
      </trkpt>
      <trkpt lat="49.59749" lon="3.42952">
        <ele>127.7</ele>
        <time>2025-10-05T11:47:41.000Z</time>
      </trkpt>
      <trkpt lat="49.59749" lon="3.42953">
        <ele>127.4</ele>
        <time>2025-10-05T11:47:42.000Z</time>
      </trkpt>
      <trkpt lat="49.59749" lon="3.42955">
        <ele>127.1</ele>
        <time>2025-10-05T11:47:43.000Z</time>
      </trkpt>
      <trkpt lat="49.5975" lon="3.42956">
        <ele>127</ele>
        <time>2025-10-05T11:47:44.000Z</time>
      </trkpt>
      <trkpt lat="49.5975" lon="3.42958">
        <ele>127.2</ele>
        <time>2025-10-05T11:47:45.000Z</time>
      </trkpt>
      <trkpt lat="49.5975" lon="3.4296">
        <ele>126.9</ele>
        <time>2025-10-05T11:47:46.000Z</time>
      </trkpt>
      <trkpt lat="49.59751" lon="3.42962">
        <ele>127</ele>
        <time>2025-10-05T11:47:47.000Z</time>
      </trkpt>
      <trkpt lat="49.59751" lon="3.42963">
        <ele>127</ele>
        <time>2025-10-05T11:47:48.000Z</time>
      </trkpt>
      <trkpt lat="49.59752" lon="3.42965">
        <ele>127</ele>
        <time>2025-10-05T11:47:49.000Z</time>
      </trkpt>
      <trkpt lat="49.59753" lon="3.42967">
        <ele>126.8</ele>
        <time>2025-10-05T11:47:50.000Z</time>
      </trkpt>
      <trkpt lat="49.59753" lon="3.42968">
        <ele>126.6</ele>
        <time>2025-10-05T11:47:51.000Z</time>
      </trkpt>
      <trkpt lat="49.59754" lon="3.42969">
        <ele>126.8</ele>
        <time>2025-10-05T11:47:52.000Z</time>
      </trkpt>
      <trkpt lat="49.59755" lon="3.4297">
        <ele>127</ele>
        <time>2025-10-05T11:47:53.000Z</time>
      </trkpt>
      <trkpt lat="49.59755" lon="3.42971">
        <ele>127.1</ele>
        <time>2025-10-05T11:47:54.000Z</time>
      </trkpt>
      <trkpt lat="49.59755" lon="3.42971">
        <ele>127.3</ele>
        <time>2025-10-05T11:47:55.000Z</time>
      </trkpt>
      <trkpt lat="49.59756" lon="3.42972">
        <ele>127.4</ele>
        <time>2025-10-05T11:47:56.000Z</time>
      </trkpt>
      <trkpt lat="49.59757" lon="3.42973">
        <ele>127.2</ele>
        <time>2025-10-05T11:47:57.000Z</time>
      </trkpt>
      <trkpt lat="49.59757" lon="3.42973">
        <ele>127.3</ele>
        <time>2025-10-05T11:47:58.000Z</time>
      </trkpt>
      <trkpt lat="49.59758" lon="3.42974">
        <ele>127.4</ele>
        <time>2025-10-05T11:47:59.000Z</time>
      </trkpt>
      <trkpt lat="49.5976" lon="3.42974">
        <ele>127.5</ele>
        <time>2025-10-05T11:48:00.000Z</time>
      </trkpt>
      <trkpt lat="49.59761" lon="3.42975">
        <ele>127.7</ele>
        <time>2025-10-05T11:48:01.000Z</time>
      </trkpt>
      <trkpt lat="49.59762" lon="3.42977">
        <ele>127.8</ele>
        <time>2025-10-05T11:48:02.000Z</time>
      </trkpt>
      <trkpt lat="49.59764" lon="3.42978">
        <ele>127.9</ele>
        <time>2025-10-05T11:48:03.000Z</time>
      </trkpt>
      <trkpt lat="49.59765" lon="3.42979">
        <ele>128.1</ele>
        <time>2025-10-05T11:48:04.000Z</time>
      </trkpt>
      <trkpt lat="49.59766" lon="3.42979">
        <ele>128.2</ele>
        <time>2025-10-05T11:48:05.000Z</time>
      </trkpt>
      <trkpt lat="49.59767" lon="3.4298">
        <ele>128.3</ele>
        <time>2025-10-05T11:48:06.000Z</time>
      </trkpt>
      <trkpt lat="49.59768" lon="3.42982">
        <ele>128.7</ele>
        <time>2025-10-05T11:48:07.000Z</time>
      </trkpt>
      <trkpt lat="49.5977" lon="3.42983">
        <ele>129.2</ele>
        <time>2025-10-05T11:48:08.000Z</time>
      </trkpt>
      <trkpt lat="49.59771" lon="3.42983">
        <ele>129.2</ele>
        <time>2025-10-05T11:48:09.000Z</time>
      </trkpt>
      <trkpt lat="49.59773" lon="3.42983">
        <ele>129.3</ele>
        <time>2025-10-05T11:48:10.000Z</time>
      </trkpt>
      <trkpt lat="49.59774" lon="3.42984">
        <ele>129.4</ele>
        <time>2025-10-05T11:48:11.000Z</time>
      </trkpt>
      <trkpt lat="49.59774" lon="3.42984">
        <ele>129.6</ele>
        <time>2025-10-05T11:48:12.000Z</time>
      </trkpt>
      <trkpt lat="49.59774" lon="3.42984">
        <ele>129.3</ele>
        <time>2025-10-05T11:48:13.000Z</time>
      </trkpt>
      <trkpt lat="49.59775" lon="3.42983">
        <ele>129.2</ele>
        <time>2025-10-05T11:48:14.000Z</time>
      </trkpt>
      <trkpt lat="49.59775" lon="3.42983">
        <ele>128.8</ele>
        <time>2025-10-05T11:48:15.000Z</time>
      </trkpt>
      <trkpt lat="49.59775" lon="3.42983">
        <ele>128.5</ele>
        <time>2025-10-05T11:48:16.000Z</time>
      </trkpt>
      <trkpt lat="49.59776" lon="3.42982">
        <ele>128.4</ele>
        <time>2025-10-05T11:48:17.000Z</time>
      </trkpt>
      <trkpt lat="49.59777" lon="3.42981">
        <ele>128.4</ele>
        <time>2025-10-05T11:48:18.000Z</time>
      </trkpt>
      <trkpt lat="49.59778" lon="3.42981">
        <ele>128.6</ele>
        <time>2025-10-05T11:48:19.000Z</time>
      </trkpt>
      <trkpt lat="49.5978" lon="3.4298">
        <ele>128.7</ele>
        <time>2025-10-05T11:48:20.000Z</time>
      </trkpt>
      <trkpt lat="49.59781" lon="3.4298">
        <ele>128.7</ele>
        <time>2025-10-05T11:48:21.000Z</time>
      </trkpt>
      <trkpt lat="49.59783" lon="3.42979">
        <ele>128.8</ele>
        <time>2025-10-05T11:48:22.000Z</time>
      </trkpt>
      <trkpt lat="49.59784" lon="3.42979">
        <ele>128.7</ele>
        <time>2025-10-05T11:48:23.000Z</time>
      </trkpt>
      <trkpt lat="49.59786" lon="3.42979">
        <ele>128.5</ele>
        <time>2025-10-05T11:48:24.000Z</time>
      </trkpt>
      <trkpt lat="49.59787" lon="3.42979">
        <ele>128.4</ele>
        <time>2025-10-05T11:48:25.000Z</time>
      </trkpt>
      <trkpt lat="49.59789" lon="3.42978">
        <ele>128.2</ele>
        <time>2025-10-05T11:48:26.000Z</time>
      </trkpt>
      <trkpt lat="49.5979" lon="3.42978">
        <ele>128.1</ele>
        <time>2025-10-05T11:48:27.000Z</time>
      </trkpt>
      <trkpt lat="49.59792" lon="3.42976">
        <ele>128.4</ele>
        <time>2025-10-05T11:48:28.000Z</time>
      </trkpt>
      <trkpt lat="49.59793" lon="3.42976">
        <ele>128.6</ele>
        <time>2025-10-05T11:48:29.000Z</time>
      </trkpt>
      <trkpt lat="49.59793" lon="3.42974">
        <ele>129.3</ele>
        <time>2025-10-05T11:48:30.000Z</time>
      </trkpt>
      <trkpt lat="49.59794" lon="3.42974">
        <ele>130</ele>
        <time>2025-10-05T11:48:31.000Z</time>
      </trkpt>
      <trkpt lat="49.59795" lon="3.42974">
        <ele>130.3</ele>
        <time>2025-10-05T11:48:32.000Z</time>
      </trkpt>
      <trkpt lat="49.59795" lon="3.42974">
        <ele>130.9</ele>
        <time>2025-10-05T11:48:33.000Z</time>
      </trkpt>
      <trkpt lat="49.59796" lon="3.42973">
        <ele>131.2</ele>
        <time>2025-10-05T11:48:34.000Z</time>
      </trkpt>
      <trkpt lat="49.59796" lon="3.42973">
        <ele>131.6</ele>
        <time>2025-10-05T11:48:35.000Z</time>
      </trkpt>
      <trkpt lat="49.59797" lon="3.42972">
        <ele>131.5</ele>
        <time>2025-10-05T11:48:36.000Z</time>
      </trkpt>
      <trkpt lat="49.59798" lon="3.42972">
        <ele>131.5</ele>
        <time>2025-10-05T11:48:37.000Z</time>
      </trkpt>
      <trkpt lat="49.59799" lon="3.42971">
        <ele>131.7</ele>
        <time>2025-10-05T11:48:38.000Z</time>
      </trkpt>
      <trkpt lat="49.598" lon="3.42969">
        <ele>132</ele>
        <time>2025-10-05T11:48:39.000Z</time>
      </trkpt>
      <trkpt lat="49.59802" lon="3.42968">
        <ele>132.2</ele>
        <time>2025-10-05T11:48:40.000Z</time>
      </trkpt>
      <trkpt lat="49.59803" lon="3.42968">
        <ele>132.3</ele>
        <time>2025-10-05T11:48:41.000Z</time>
      </trkpt>
      <trkpt lat="49.59805" lon="3.42967">
        <ele>132.4</ele>
        <time>2025-10-05T11:48:42.000Z</time>
      </trkpt>
      <trkpt lat="49.59806" lon="3.42967">
        <ele>132.2</ele>
        <time>2025-10-05T11:48:43.000Z</time>
      </trkpt>
      <trkpt lat="49.59807" lon="3.42966">
        <ele>131.9</ele>
        <time>2025-10-05T11:48:44.000Z</time>
      </trkpt>
      <trkpt lat="49.59808" lon="3.42966">
        <ele>131.6</ele>
        <time>2025-10-05T11:48:45.000Z</time>
      </trkpt>
      <trkpt lat="49.59809" lon="3.42966">
        <ele>131.7</ele>
        <time>2025-10-05T11:48:46.000Z</time>
      </trkpt>
      <trkpt lat="49.59811" lon="3.42965">
        <ele>131.6</ele>
        <time>2025-10-05T11:48:47.000Z</time>
      </trkpt>
      <trkpt lat="49.59812" lon="3.42965">
        <ele>131.5</ele>
        <time>2025-10-05T11:48:48.000Z</time>
      </trkpt>
      <trkpt lat="49.59813" lon="3.42964">
        <ele>131.4</ele>
        <time>2025-10-05T11:48:49.000Z</time>
      </trkpt>
      <trkpt lat="49.59815" lon="3.42964">
        <ele>131.1</ele>
        <time>2025-10-05T11:48:50.000Z</time>
      </trkpt>
      <trkpt lat="49.59816" lon="3.42964">
        <ele>131.2</ele>
        <time>2025-10-05T11:48:51.000Z</time>
      </trkpt>
      <trkpt lat="49.59817" lon="3.42962">
        <ele>131</ele>
        <time>2025-10-05T11:48:52.000Z</time>
      </trkpt>
      <trkpt lat="49.59818" lon="3.42962">
        <ele>131.1</ele>
        <time>2025-10-05T11:48:53.000Z</time>
      </trkpt>
      <trkpt lat="49.59819" lon="3.42961">
        <ele>131.1</ele>
        <time>2025-10-05T11:48:54.000Z</time>
      </trkpt>
      <trkpt lat="49.5982" lon="3.42961">
        <ele>131.4</ele>
        <time>2025-10-05T11:48:55.000Z</time>
      </trkpt>
      <trkpt lat="49.5982" lon="3.42961">
        <ele>131.6</ele>
        <time>2025-10-05T11:48:56.000Z</time>
      </trkpt>
      <trkpt lat="49.59821" lon="3.42961">
        <ele>131.7</ele>
        <time>2025-10-05T11:48:57.000Z</time>
      </trkpt>
      <trkpt lat="49.59822" lon="3.4296">
        <ele>132</ele>
        <time>2025-10-05T11:48:58.000Z</time>
      </trkpt>
      <trkpt lat="49.59823" lon="3.42959">
        <ele>132.4</ele>
        <time>2025-10-05T11:48:59.000Z</time>
      </trkpt>
      <trkpt lat="49.59824" lon="3.42959">
        <ele>132.5</ele>
        <time>2025-10-05T11:49:00.000Z</time>
      </trkpt>
      <trkpt lat="49.59824" lon="3.42958">
        <ele>132.7</ele>
        <time>2025-10-05T11:49:01.000Z</time>
      </trkpt>
      <trkpt lat="49.59825" lon="3.42958">
        <ele>133.1</ele>
        <time>2025-10-05T11:49:02.000Z</time>
      </trkpt>
      <trkpt lat="49.59826" lon="3.42957">
        <ele>133.1</ele>
        <time>2025-10-05T11:49:03.000Z</time>
      </trkpt>
      <trkpt lat="49.59827" lon="3.42957">
        <ele>133.4</ele>
        <time>2025-10-05T11:49:04.000Z</time>
      </trkpt>
      <trkpt lat="49.59829" lon="3.42956">
        <ele>133.8</ele>
        <time>2025-10-05T11:49:05.000Z</time>
      </trkpt>
      <trkpt lat="49.5983" lon="3.42956">
        <ele>134.3</ele>
        <time>2025-10-05T11:49:06.000Z</time>
      </trkpt>
      <trkpt lat="49.59831" lon="3.42955">
        <ele>134.7</ele>
        <time>2025-10-05T11:49:07.000Z</time>
      </trkpt>
      <trkpt lat="49.59833" lon="3.42954">
        <ele>134.8</ele>
        <time>2025-10-05T11:49:08.000Z</time>
      </trkpt>
      <trkpt lat="49.59834" lon="3.42954">
        <ele>134.9</ele>
        <time>2025-10-05T11:49:09.000Z</time>
      </trkpt>
      <trkpt lat="49.59836" lon="3.42953">
        <ele>135.1</ele>
        <time>2025-10-05T11:49:10.000Z</time>
      </trkpt>
      <trkpt lat="49.59837" lon="3.42953">
        <ele>135</ele>
        <time>2025-10-05T11:49:11.000Z</time>
      </trkpt>
      <trkpt lat="49.59838" lon="3.42952">
        <ele>135.2</ele>
        <time>2025-10-05T11:49:12.000Z</time>
      </trkpt>
      <trkpt lat="49.5984" lon="3.42952">
        <ele>135.7</ele>
        <time>2025-10-05T11:49:13.000Z</time>
      </trkpt>
      <trkpt lat="49.59841" lon="3.42952">
        <ele>135.9</ele>
        <time>2025-10-05T11:49:14.000Z</time>
      </trkpt>
      <trkpt lat="49.59842" lon="3.42951">
        <ele>135.7</ele>
        <time>2025-10-05T11:49:15.000Z</time>
      </trkpt>
      <trkpt lat="49.59844" lon="3.42951">
        <ele>135.4</ele>
        <time>2025-10-05T11:49:16.000Z</time>
      </trkpt>
      <trkpt lat="49.59845" lon="3.4295">
        <ele>134.8</ele>
        <time>2025-10-05T11:49:17.000Z</time>
      </trkpt>
      <trkpt lat="49.59846" lon="3.42949">
        <ele>135.1</ele>
        <time>2025-10-05T11:49:18.000Z</time>
      </trkpt>
      <trkpt lat="49.59847" lon="3.42948">
        <ele>135.2</ele>
        <time>2025-10-05T11:49:19.000Z</time>
      </trkpt>
      <trkpt lat="49.59848" lon="3.42946">
        <ele>135</ele>
        <time>2025-10-05T11:49:20.000Z</time>
      </trkpt>
      <trkpt lat="49.59848" lon="3.42946">
        <ele>134.9</ele>
        <time>2025-10-05T11:49:21.000Z</time>
      </trkpt>
      <trkpt lat="49.59849" lon="3.42946">
        <ele>134.7</ele>
        <time>2025-10-05T11:49:22.000Z</time>
      </trkpt>
      <trkpt lat="49.5985" lon="3.42946">
        <ele>134.8</ele>
        <time>2025-10-05T11:49:23.000Z</time>
      </trkpt>
      <trkpt lat="49.59851" lon="3.42945">
        <ele>134.7</ele>
        <time>2025-10-05T11:49:24.000Z</time>
      </trkpt>
      <trkpt lat="49.59851" lon="3.42945">
        <ele>134.4</ele>
        <time>2025-10-05T11:49:25.000Z</time>
      </trkpt>
      <trkpt lat="49.59852" lon="3.42944">
        <ele>133.8</ele>
        <time>2025-10-05T11:49:26.000Z</time>
      </trkpt>
      <trkpt lat="49.59852" lon="3.42944">
        <ele>133.4</ele>
        <time>2025-10-05T11:49:27.000Z</time>
      </trkpt>
      <trkpt lat="49.59853" lon="3.42942">
        <ele>133.2</ele>
        <time>2025-10-05T11:49:28.000Z</time>
      </trkpt>
      <trkpt lat="49.59854" lon="3.42941">
        <ele>133.2</ele>
        <time>2025-10-05T11:49:29.000Z</time>
      </trkpt>
      <trkpt lat="49.59855" lon="3.4294">
        <ele>133.3</ele>
        <time>2025-10-05T11:49:30.000Z</time>
      </trkpt>
      <trkpt lat="49.59856" lon="3.42939">
        <ele>133.5</ele>
        <time>2025-10-05T11:49:31.000Z</time>
      </trkpt>
      <trkpt lat="49.59857" lon="3.42937">
        <ele>133.6</ele>
        <time>2025-10-05T11:49:32.000Z</time>
      </trkpt>
      <trkpt lat="49.59859" lon="3.42936">
        <ele>133.8</ele>
        <time>2025-10-05T11:49:33.000Z</time>
      </trkpt>
      <trkpt lat="49.5986" lon="3.42934">
        <ele>134</ele>
        <time>2025-10-05T11:49:34.000Z</time>
      </trkpt>
      <trkpt lat="49.59861" lon="3.42932">
        <ele>133.8</ele>
        <time>2025-10-05T11:49:35.000Z</time>
      </trkpt>
      <trkpt lat="49.59862" lon="3.42932">
        <ele>133.9</ele>
        <time>2025-10-05T11:49:36.000Z</time>
      </trkpt>
      <trkpt lat="49.59863" lon="3.42931">
        <ele>133.9</ele>
        <time>2025-10-05T11:49:37.000Z</time>
      </trkpt>
      <trkpt lat="49.59864" lon="3.42931">
        <ele>133.7</ele>
        <time>2025-10-05T11:49:38.000Z</time>
      </trkpt>
      <trkpt lat="49.59864" lon="3.4293">
        <ele>133.5</ele>
        <time>2025-10-05T11:49:39.000Z</time>
      </trkpt>
      <trkpt lat="49.59865" lon="3.4293">
        <ele>133.4</ele>
        <time>2025-10-05T11:49:40.000Z</time>
      </trkpt>
      <trkpt lat="49.59866" lon="3.42929">
        <ele>133.4</ele>
        <time>2025-10-05T11:49:41.000Z</time>
      </trkpt>
      <trkpt lat="49.59866" lon="3.42928">
        <ele>133.3</ele>
        <time>2025-10-05T11:49:42.000Z</time>
      </trkpt>
      <trkpt lat="49.59867" lon="3.42927">
        <ele>133.1</ele>
        <time>2025-10-05T11:49:43.000Z</time>
      </trkpt>
      <trkpt lat="49.59868" lon="3.42926">
        <ele>133.1</ele>
        <time>2025-10-05T11:49:44.000Z</time>
      </trkpt>
      <trkpt lat="49.59869" lon="3.42925">
        <ele>133.1</ele>
        <time>2025-10-05T11:49:45.000Z</time>
      </trkpt>
      <trkpt lat="49.5987" lon="3.42924">
        <ele>133</ele>
        <time>2025-10-05T11:49:46.000Z</time>
      </trkpt>
      <trkpt lat="49.59871" lon="3.42923">
        <ele>132.8</ele>
        <time>2025-10-05T11:49:47.000Z</time>
      </trkpt>
      <trkpt lat="49.59872" lon="3.42922">
        <ele>132.7</ele>
        <time>2025-10-05T11:49:48.000Z</time>
      </trkpt>
      <trkpt lat="49.59874" lon="3.42921">
        <ele>132.9</ele>
        <time>2025-10-05T11:49:49.000Z</time>
      </trkpt>
      <trkpt lat="49.59875" lon="3.42919">
        <ele>132.8</ele>
        <time>2025-10-05T11:49:50.000Z</time>
      </trkpt>
      <trkpt lat="49.59876" lon="3.42918">
        <ele>133.2</ele>
        <time>2025-10-05T11:49:51.000Z</time>
      </trkpt>
      <trkpt lat="49.59877" lon="3.42917">
        <ele>133.5</ele>
        <time>2025-10-05T11:49:52.000Z</time>
      </trkpt>
      <trkpt lat="49.59878" lon="3.42916">
        <ele>133.5</ele>
        <time>2025-10-05T11:49:53.000Z</time>
      </trkpt>
      <trkpt lat="49.59879" lon="3.42914">
        <ele>133.6</ele>
        <time>2025-10-05T11:49:54.000Z</time>
      </trkpt>
      <trkpt lat="49.59879" lon="3.42913">
        <ele>134</ele>
        <time>2025-10-05T11:49:55.000Z</time>
      </trkpt>
      <trkpt lat="49.5988" lon="3.42913">
        <ele>134.1</ele>
        <time>2025-10-05T11:49:56.000Z</time>
      </trkpt>
      <trkpt lat="49.5988" lon="3.42912">
        <ele>134.2</ele>
        <time>2025-10-05T11:49:57.000Z</time>
      </trkpt>
      <trkpt lat="49.59881" lon="3.42911">
        <ele>134.5</ele>
        <time>2025-10-05T11:49:58.000Z</time>
      </trkpt>
      <trkpt lat="49.59881" lon="3.42911">
        <ele>134.8</ele>
        <time>2025-10-05T11:49:59.000Z</time>
      </trkpt>
      <trkpt lat="49.59881" lon="3.42909">
        <ele>135.2</ele>
        <time>2025-10-05T11:50:00.000Z</time>
      </trkpt>
      <trkpt lat="49.59882" lon="3.42908">
        <ele>135.5</ele>
        <time>2025-10-05T11:50:01.000Z</time>
      </trkpt>
      <trkpt lat="49.59883" lon="3.42907">
        <ele>135.8</ele>
        <time>2025-10-05T11:50:02.000Z</time>
      </trkpt>
      <trkpt lat="49.59883" lon="3.42905">
        <ele>136</ele>
        <time>2025-10-05T11:50:03.000Z</time>
      </trkpt>
      <trkpt lat="49.59884" lon="3.42904">
        <ele>136.3</ele>
        <time>2025-10-05T11:50:04.000Z</time>
      </trkpt>
      <trkpt lat="49.59885" lon="3.42902">
        <ele>136.4</ele>
        <time>2025-10-05T11:50:05.000Z</time>
      </trkpt>
      <trkpt lat="49.59886" lon="3.42901">
        <ele>136.6</ele>
        <time>2025-10-05T11:50:06.000Z</time>
      </trkpt>
      <trkpt lat="49.59886" lon="3.42901">
        <ele>136.8</ele>
        <time>2025-10-05T11:50:07.000Z</time>
      </trkpt>
      <trkpt lat="49.59887" lon="3.429">
        <ele>136.8</ele>
        <time>2025-10-05T11:50:08.000Z</time>
      </trkpt>
      <trkpt lat="49.59887" lon="3.42899">
        <ele>136.6</ele>
        <time>2025-10-05T11:50:09.000Z</time>
      </trkpt>
      <trkpt lat="49.59888" lon="3.42898">
        <ele>136.4</ele>
        <time>2025-10-05T11:50:10.000Z</time>
      </trkpt>
      <trkpt lat="49.59889" lon="3.42897">
        <ele>136.3</ele>
        <time>2025-10-05T11:50:11.000Z</time>
      </trkpt>
      <trkpt lat="49.5989" lon="3.42895">
        <ele>136.2</ele>
        <time>2025-10-05T11:50:12.000Z</time>
      </trkpt>
      <trkpt lat="49.59891" lon="3.42895">
        <ele>136.2</ele>
        <time>2025-10-05T11:50:13.000Z</time>
      </trkpt>
      <trkpt lat="49.59892" lon="3.42893">
        <ele>136.2</ele>
        <time>2025-10-05T11:50:14.000Z</time>
      </trkpt>
      <trkpt lat="49.59893" lon="3.42892">
        <ele>136.3</ele>
        <time>2025-10-05T11:50:15.000Z</time>
      </trkpt>
      <trkpt lat="49.59893" lon="3.42892">
        <ele>136.6</ele>
        <time>2025-10-05T11:50:16.000Z</time>
      </trkpt>
      <trkpt lat="49.59894" lon="3.42891">
        <ele>136.8</ele>
        <time>2025-10-05T11:50:17.000Z</time>
      </trkpt>
      <trkpt lat="49.59895" lon="3.4289">
        <ele>137.1</ele>
        <time>2025-10-05T11:50:18.000Z</time>
      </trkpt>
      <trkpt lat="49.59895" lon="3.42888">
        <ele>137.3</ele>
        <time>2025-10-05T11:50:19.000Z</time>
      </trkpt>
      <trkpt lat="49.59896" lon="3.42887">
        <ele>137.5</ele>
        <time>2025-10-05T11:50:20.000Z</time>
      </trkpt>
      <trkpt lat="49.59896" lon="3.42886">
        <ele>137.7</ele>
        <time>2025-10-05T11:50:21.000Z</time>
      </trkpt>
      <trkpt lat="49.59897" lon="3.42885">
        <ele>137.6</ele>
        <time>2025-10-05T11:50:22.000Z</time>
      </trkpt>
      <trkpt lat="49.59898" lon="3.42883">
        <ele>137.6</ele>
        <time>2025-10-05T11:50:23.000Z</time>
      </trkpt>
      <trkpt lat="49.59899" lon="3.42882">
        <ele>137.4</ele>
        <time>2025-10-05T11:50:24.000Z</time>
      </trkpt>
      <trkpt lat="49.59899" lon="3.42881">
        <ele>137.5</ele>
        <time>2025-10-05T11:50:25.000Z</time>
      </trkpt>
      <trkpt lat="49.59899" lon="3.4288">
        <ele>137.6</ele>
        <time>2025-10-05T11:50:26.000Z</time>
      </trkpt>
      <trkpt lat="49.59899" lon="3.42879">
        <ele>137.6</ele>
        <time>2025-10-05T11:50:27.000Z</time>
      </trkpt>
      <trkpt lat="49.599" lon="3.42877">
        <ele>137.7</ele>
        <time>2025-10-05T11:50:28.000Z</time>
      </trkpt>
      <trkpt lat="49.599" lon="3.42876">
        <ele>137.9</ele>
        <time>2025-10-05T11:50:29.000Z</time>
      </trkpt>
      <trkpt lat="49.599" lon="3.42875">
        <ele>138.1</ele>
        <time>2025-10-05T11:50:30.000Z</time>
      </trkpt>
      <trkpt lat="49.59901" lon="3.42874">
        <ele>138.2</ele>
        <time>2025-10-05T11:50:31.000Z</time>
      </trkpt>
      <trkpt lat="49.59901" lon="3.42873">
        <ele>138.1</ele>
        <time>2025-10-05T11:50:32.000Z</time>
      </trkpt>
      <trkpt lat="49.59902" lon="3.42872">
        <ele>138.1</ele>
        <time>2025-10-05T11:50:33.000Z</time>
      </trkpt>
      <trkpt lat="49.59903" lon="3.4287">
        <ele>138.2</ele>
        <time>2025-10-05T11:50:34.000Z</time>
      </trkpt>
      <trkpt lat="49.59904" lon="3.42869">
        <ele>138.2</ele>
        <time>2025-10-05T11:50:35.000Z</time>
      </trkpt>
      <trkpt lat="49.59904" lon="3.42867">
        <ele>138.4</ele>
        <time>2025-10-05T11:50:36.000Z</time>
      </trkpt>
      <trkpt lat="49.59905" lon="3.42866">
        <ele>139.2</ele>
        <time>2025-10-05T11:50:37.000Z</time>
      </trkpt>
      <trkpt lat="49.59905" lon="3.42865">
        <ele>139.6</ele>
        <time>2025-10-05T11:50:38.000Z</time>
      </trkpt>
      <trkpt lat="49.59906" lon="3.42864">
        <ele>139.9</ele>
        <time>2025-10-05T11:50:39.000Z</time>
      </trkpt>
      <trkpt lat="49.59907" lon="3.42863">
        <ele>139.9</ele>
        <time>2025-10-05T11:50:40.000Z</time>
      </trkpt>
      <trkpt lat="49.59908" lon="3.42862">
        <ele>140</ele>
        <time>2025-10-05T11:50:41.000Z</time>
      </trkpt>
      <trkpt lat="49.59909" lon="3.42861">
        <ele>139.8</ele>
        <time>2025-10-05T11:50:42.000Z</time>
      </trkpt>
      <trkpt lat="49.5991" lon="3.42859">
        <ele>139.6</ele>
        <time>2025-10-05T11:50:43.000Z</time>
      </trkpt>
      <trkpt lat="49.59911" lon="3.42858">
        <ele>139.4</ele>
        <time>2025-10-05T11:50:44.000Z</time>
      </trkpt>
      <trkpt lat="49.59911" lon="3.42857">
        <ele>139.1</ele>
        <time>2025-10-05T11:50:45.000Z</time>
      </trkpt>
      <trkpt lat="49.59912" lon="3.42857">
        <ele>138.9</ele>
        <time>2025-10-05T11:50:46.000Z</time>
      </trkpt>
      <trkpt lat="49.59912" lon="3.42855">
        <ele>138.8</ele>
        <time>2025-10-05T11:50:47.000Z</time>
      </trkpt>
      <trkpt lat="49.59913" lon="3.42854">
        <ele>138.6</ele>
        <time>2025-10-05T11:50:48.000Z</time>
      </trkpt>
      <trkpt lat="49.59914" lon="3.42853">
        <ele>138.7</ele>
        <time>2025-10-05T11:50:49.000Z</time>
      </trkpt>
      <trkpt lat="49.59914" lon="3.42852">
        <ele>139</ele>
        <time>2025-10-05T11:50:50.000Z</time>
      </trkpt>
      <trkpt lat="49.59915" lon="3.42852">
        <ele>139.3</ele>
        <time>2025-10-05T11:50:51.000Z</time>
      </trkpt>
      <trkpt lat="49.59915" lon="3.42852">
        <ele>139.5</ele>
        <time>2025-10-05T11:50:52.000Z</time>
      </trkpt>
      <trkpt lat="49.59916" lon="3.42851">
        <ele>139.7</ele>
        <time>2025-10-05T11:50:53.000Z</time>
      </trkpt>
      <trkpt lat="49.59916" lon="3.42851">
        <ele>140.1</ele>
        <time>2025-10-05T11:50:54.000Z</time>
      </trkpt>
      <trkpt lat="49.59916" lon="3.42852">
        <ele>140.4</ele>
        <time>2025-10-05T11:50:55.000Z</time>
      </trkpt>
      <trkpt lat="49.59917" lon="3.42852">
        <ele>140.7</ele>
        <time>2025-10-05T11:50:56.000Z</time>
      </trkpt>
      <trkpt lat="49.59917" lon="3.42852">
        <ele>141</ele>
        <time>2025-10-05T11:50:57.000Z</time>
      </trkpt>
      <trkpt lat="49.59917" lon="3.42852">
        <ele>141.1</ele>
        <time>2025-10-05T11:50:58.000Z</time>
      </trkpt>
      <trkpt lat="49.59917" lon="3.42852">
        <ele>141.1</ele>
        <time>2025-10-05T11:50:59.000Z</time>
      </trkpt>
      <trkpt lat="49.59917" lon="3.42852">
        <ele>141.1</ele>
        <time>2025-10-05T11:51:00.000Z</time>
      </trkpt>
      <trkpt lat="49.59917" lon="3.42852">
        <ele>141.1</ele>
        <time>2025-10-05T11:51:01.000Z</time>
      </trkpt>
      <trkpt lat="49.59917" lon="3.42852">
        <ele>141.1</ele>
        <time>2025-10-05T11:51:02.000Z</time>
      </trkpt>
      <trkpt lat="49.59917" lon="3.42852">
        <ele>141.1</ele>
        <time>2025-10-05T11:51:03.000Z</time>
      </trkpt>
      <trkpt lat="49.59917" lon="3.42852">
        <ele>141.1</ele>
        <time>2025-10-05T11:51:04.000Z</time>
      </trkpt>
      <trkpt lat="49.59917" lon="3.42852">
        <ele>141.1</ele>
        <time>2025-10-05T11:51:05.000Z</time>
      </trkpt>
      <trkpt lat="49.59917" lon="3.42852">
        <ele>141.1</ele>
        <time>2025-10-05T11:51:06.000Z</time>
      </trkpt>
      <trkpt lat="49.59917" lon="3.42852">
        <ele>141.1</ele>
        <time>2025-10-05T11:51:07.000Z</time>
      </trkpt>
      <trkpt lat="49.59917" lon="3.42852">
        <ele>141.1</ele>
        <time>2025-10-05T11:51:08.000Z</time>
      </trkpt>
      <trkpt lat="49.59917" lon="3.42852">
        <ele>141.1</ele>
        <time>2025-10-05T11:51:09.000Z</time>
      </trkpt>
      <trkpt lat="49.59917" lon="3.42852">
        <ele>141.1</ele>
        <time>2025-10-05T11:51:10.000Z</time>
      </trkpt>
      <trkpt lat="49.59917" lon="3.42852">
        <ele>141.1</ele>
        <time>2025-10-05T11:51:11.000Z</time>
      </trkpt>
      <trkpt lat="49.59917" lon="3.42852">
        <ele>141.1</ele>
        <time>2025-10-05T11:51:12.000Z</time>
      </trkpt>
      <trkpt lat="49.59917" lon="3.42852">
        <ele>141.1</ele>
        <time>2025-10-05T11:51:13.000Z</time>
      </trkpt>
      <trkpt lat="49.59917" lon="3.42852">
        <ele>141.1</ele>
        <time>2025-10-05T11:51:14.000Z</time>
      </trkpt>
      <trkpt lat="49.59917" lon="3.42852">
        <ele>141.1</ele>
        <time>2025-10-05T11:51:15.000Z</time>
      </trkpt>
      <trkpt lat="49.59917" lon="3.42852">
        <ele>141.1</ele>
        <time>2025-10-05T11:51:16.000Z</time>
      </trkpt>
      <trkpt lat="49.59917" lon="3.42852">
        <ele>141.1</ele>
        <time>2025-10-05T11:51:17.000Z</time>
      </trkpt>
      <trkpt lat="49.59917" lon="3.42852">
        <ele>141.1</ele>
        <time>2025-10-05T11:51:18.000Z</time>
      </trkpt>
      <trkpt lat="49.59917" lon="3.42852">
        <ele>141.1</ele>
        <time>2025-10-05T11:51:19.000Z</time>
      </trkpt>
      <trkpt lat="49.59917" lon="3.42852">
        <ele>141.1</ele>
        <time>2025-10-05T11:51:20.000Z</time>
      </trkpt>
      <trkpt lat="49.59917" lon="3.42852">
        <ele>141.1</ele>
        <time>2025-10-05T11:51:21.000Z</time>
      </trkpt>
      <trkpt lat="49.59917" lon="3.42852">
        <ele>141.1</ele>
        <time>2025-10-05T11:51:22.000Z</time>
      </trkpt>
      <trkpt lat="49.59917" lon="3.42852">
        <ele>141.1</ele>
        <time>2025-10-05T11:51:23.000Z</time>
      </trkpt>
      <trkpt lat="49.59917" lon="3.42852">
        <ele>141.1</ele>
        <time>2025-10-05T11:51:24.000Z</time>
      </trkpt>
      <trkpt lat="49.59917" lon="3.42852">
        <ele>141.1</ele>
        <time>2025-10-05T11:51:25.000Z</time>
      </trkpt>
      <trkpt lat="49.59917" lon="3.42852">
        <ele>141.1</ele>
        <time>2025-10-05T11:51:26.000Z</time>
      </trkpt>
      <trkpt lat="49.59917" lon="3.42852">
        <ele>141.1</ele>
        <time>2025-10-05T11:51:27.000Z</time>
      </trkpt>
      <trkpt lat="49.59917" lon="3.42852">
        <ele>141.1</ele>
        <time>2025-10-05T11:51:28.000Z</time>
      </trkpt>
      <trkpt lat="49.59917" lon="3.42852">
        <ele>141.1</ele>
        <time>2025-10-05T11:51:29.000Z</time>
      </trkpt>
      <trkpt lat="49.59917" lon="3.42852">
        <ele>141.1</ele>
        <time>2025-10-05T11:51:30.000Z</time>
      </trkpt>
      <trkpt lat="49.59917" lon="3.42852">
        <ele>141.1</ele>
        <time>2025-10-05T11:51:31.000Z</time>
      </trkpt>
      <trkpt lat="49.59917" lon="3.42852">
        <ele>141.1</ele>
        <time>2025-10-05T11:51:32.000Z</time>
      </trkpt>
      <trkpt lat="49.59917" lon="3.42852">
        <ele>141.1</ele>
        <time>2025-10-05T11:51:33.000Z</time>
      </trkpt>
      <trkpt lat="49.59917" lon="3.42852">
        <ele>141.1</ele>
        <time>2025-10-05T11:51:34.000Z</time>
      </trkpt>
      <trkpt lat="49.59917" lon="3.42852">
        <ele>141.1</ele>
        <time>2025-10-05T11:51:35.000Z</time>
      </trkpt>
      <trkpt lat="49.59917" lon="3.42852">
        <ele>141.1</ele>
        <time>2025-10-05T11:51:36.000Z</time>
      </trkpt>
      <trkpt lat="49.59917" lon="3.42852">
        <ele>141.1</ele>
        <time>2025-10-05T11:51:37.000Z</time>
      </trkpt>
      <trkpt lat="49.59917" lon="3.42852">
        <ele>141.1</ele>
        <time>2025-10-05T11:51:38.000Z</time>
      </trkpt>
      <trkpt lat="49.59917" lon="3.42852">
        <ele>141.1</ele>
        <time>2025-10-05T11:51:39.000Z</time>
      </trkpt>
      <trkpt lat="49.59917" lon="3.42852">
        <ele>141.1</ele>
        <time>2025-10-05T11:51:40.000Z</time>
      </trkpt>
      <trkpt lat="49.59917" lon="3.42852">
        <ele>141.1</ele>
        <time>2025-10-05T11:51:41.000Z</time>
      </trkpt>
      <trkpt lat="49.59917" lon="3.42852">
        <ele>141.1</ele>
        <time>2025-10-05T11:51:42.000Z</time>
      </trkpt>
      <trkpt lat="49.59917" lon="3.42852">
        <ele>141.1</ele>
        <time>2025-10-05T11:51:43.000Z</time>
      </trkpt>
      <trkpt lat="49.59917" lon="3.42852">
        <ele>141.1</ele>
        <time>2025-10-05T11:51:44.000Z</time>
      </trkpt>
      <trkpt lat="49.59917" lon="3.42852">
        <ele>141.1</ele>
        <time>2025-10-05T11:51:45.000Z</time>
      </trkpt>
      <trkpt lat="49.59917" lon="3.42852">
        <ele>141.1</ele>
        <time>2025-10-05T11:51:46.000Z</time>
      </trkpt>
      <trkpt lat="49.59917" lon="3.42852">
        <ele>141.1</ele>
        <time>2025-10-05T11:51:47.000Z</time>
      </trkpt>
      <trkpt lat="49.59917" lon="3.42852">
        <ele>141.1</ele>
        <time>2025-10-05T11:51:48.000Z</time>
      </trkpt>
      <trkpt lat="49.59917" lon="3.42852">
        <ele>141.1</ele>
        <time>2025-10-05T11:51:49.000Z</time>
      </trkpt>
      <trkpt lat="49.59917" lon="3.42852">
        <ele>141.1</ele>
        <time>2025-10-05T11:51:50.000Z</time>
      </trkpt>
      <trkpt lat="49.59917" lon="3.42852">
        <ele>141.1</ele>
        <time>2025-10-05T11:51:51.000Z</time>
      </trkpt>
      <trkpt lat="49.59917" lon="3.42852">
        <ele>141.1</ele>
        <time>2025-10-05T11:51:52.000Z</time>
      </trkpt>
      <trkpt lat="49.59917" lon="3.42852">
        <ele>141.1</ele>
        <time>2025-10-05T11:51:53.000Z</time>
      </trkpt>
      <trkpt lat="49.59917" lon="3.42852">
        <ele>141.1</ele>
        <time>2025-10-05T11:51:54.000Z</time>
      </trkpt>
      <trkpt lat="49.59917" lon="3.42852">
        <ele>141.1</ele>
        <time>2025-10-05T11:51:55.000Z</time>
      </trkpt>
      <trkpt lat="49.59917" lon="3.42852">
        <ele>141.1</ele>
        <time>2025-10-05T11:51:56.000Z</time>
      </trkpt>
      <trkpt lat="49.59917" lon="3.42852">
        <ele>141.1</ele>
        <time>2025-10-05T11:51:57.000Z</time>
      </trkpt>
      <trkpt lat="49.59917" lon="3.42852">
        <ele>141.1</ele>
        <time>2025-10-05T11:51:58.000Z</time>
      </trkpt>
      <trkpt lat="49.59917" lon="3.42852">
        <ele>141.1</ele>
        <time>2025-10-05T11:51:59.000Z</time>
      </trkpt>
      <trkpt lat="49.59917" lon="3.42852">
        <ele>141.1</ele>
        <time>2025-10-05T11:52:00.000Z</time>
      </trkpt>
      <trkpt lat="49.59917" lon="3.42852">
        <ele>141.1</ele>
        <time>2025-10-05T11:52:01.000Z</time>
      </trkpt>
      <trkpt lat="49.59917" lon="3.42852">
        <ele>141.1</ele>
        <time>2025-10-05T11:52:02.000Z</time>
      </trkpt>
      <trkpt lat="49.59917" lon="3.42852">
        <ele>141.1</ele>
        <time>2025-10-05T11:52:03.000Z</time>
      </trkpt>
      <trkpt lat="49.59917" lon="3.42852">
        <ele>141.1</ele>
        <time>2025-10-05T11:52:04.000Z</time>
      </trkpt>
      <trkpt lat="49.59917" lon="3.42852">
        <ele>141.1</ele>
        <time>2025-10-05T11:52:05.000Z</time>
      </trkpt>
      <trkpt lat="49.59917" lon="3.42852">
        <ele>141.1</ele>
        <time>2025-10-05T11:52:06.000Z</time>
      </trkpt>
      <trkpt lat="49.59917" lon="3.42852">
        <ele>141.1</ele>
        <time>2025-10-05T11:52:07.000Z</time>
      </trkpt>
      <trkpt lat="49.59917" lon="3.42852">
        <ele>141.1</ele>
        <time>2025-10-05T11:52:08.000Z</time>
      </trkpt>
      <trkpt lat="49.59917" lon="3.42852">
        <ele>141.1</ele>
        <time>2025-10-05T11:52:09.000Z</time>
      </trkpt>
      <trkpt lat="49.59917" lon="3.42852">
        <ele>141.1</ele>
        <time>2025-10-05T11:52:10.000Z</time>
      </trkpt>
      <trkpt lat="49.59917" lon="3.42852">
        <ele>141.1</ele>
        <time>2025-10-05T11:52:11.000Z</time>
      </trkpt>
      <trkpt lat="49.59917" lon="3.42852">
        <ele>141.1</ele>
        <time>2025-10-05T11:52:12.000Z</time>
      </trkpt>
      <trkpt lat="49.59917" lon="3.42852">
        <ele>141.1</ele>
        <time>2025-10-05T11:52:13.000Z</time>
      </trkpt>
      <trkpt lat="49.59917" lon="3.42852">
        <ele>141.1</ele>
        <time>2025-10-05T11:52:14.000Z</time>
      </trkpt>
      <trkpt lat="49.59917" lon="3.42852">
        <ele>141.1</ele>
        <time>2025-10-05T11:52:15.000Z</time>
      </trkpt>
      <trkpt lat="49.59917" lon="3.42852">
        <ele>141.1</ele>
        <time>2025-10-05T11:52:16.000Z</time>
      </trkpt>
      <trkpt lat="49.59917" lon="3.42852">
        <ele>141.1</ele>
        <time>2025-10-05T11:52:17.000Z</time>
      </trkpt>
      <trkpt lat="49.59917" lon="3.42852">
        <ele>141.1</ele>
        <time>2025-10-05T11:52:18.000Z</time>
      </trkpt>
      <trkpt lat="49.59917" lon="3.42852">
        <ele>141.1</ele>
        <time>2025-10-05T11:52:19.000Z</time>
      </trkpt>
      <trkpt lat="49.59917" lon="3.42852">
        <ele>141.1</ele>
        <time>2025-10-05T11:52:20.000Z</time>
      </trkpt>
      <trkpt lat="49.59917" lon="3.42852">
        <ele>141.1</ele>
        <time>2025-10-05T11:52:21.000Z</time>
      </trkpt>
      <trkpt lat="49.59917" lon="3.42852">
        <ele>141.1</ele>
        <time>2025-10-05T11:52:22.000Z</time>
      </trkpt>
      <trkpt lat="49.59917" lon="3.42852">
        <ele>141.1</ele>
        <time>2025-10-05T11:52:23.000Z</time>
      </trkpt>
      <trkpt lat="49.59917" lon="3.42852">
        <ele>141.1</ele>
        <time>2025-10-05T11:52:24.000Z</time>
      </trkpt>
      <trkpt lat="49.59917" lon="3.42852">
        <ele>141.1</ele>
        <time>2025-10-05T11:52:25.000Z</time>
      </trkpt>
      <trkpt lat="49.59917" lon="3.42852">
        <ele>141.1</ele>
        <time>2025-10-05T11:52:26.000Z</time>
      </trkpt>
      <trkpt lat="49.59917" lon="3.42852">
        <ele>141.1</ele>
        <time>2025-10-05T11:52:27.000Z</time>
      </trkpt>
      <trkpt lat="49.59917" lon="3.42852">
        <ele>141.1</ele>
        <time>2025-10-05T11:52:28.000Z</time>
      </trkpt>
      <trkpt lat="49.59917" lon="3.42852">
        <ele>141.1</ele>
        <time>2025-10-05T11:52:29.000Z</time>
      </trkpt>
      <trkpt lat="49.59917" lon="3.42852">
        <ele>141.1</ele>
        <time>2025-10-05T11:52:30.000Z</time>
      </trkpt>
      <trkpt lat="49.59917" lon="3.42852">
        <ele>141.1</ele>
        <time>2025-10-05T11:52:31.000Z</time>
      </trkpt>
      <trkpt lat="49.59917" lon="3.42852">
        <ele>141.1</ele>
        <time>2025-10-05T11:52:32.000Z</time>
      </trkpt>
      <trkpt lat="49.59917" lon="3.42852">
        <ele>141.1</ele>
        <time>2025-10-05T11:52:33.000Z</time>
      </trkpt>
      <trkpt lat="49.59917" lon="3.42852">
        <ele>141.1</ele>
        <time>2025-10-05T11:52:34.000Z</time>
      </trkpt>
      <trkpt lat="49.59917" lon="3.42852">
        <ele>141.1</ele>
        <time>2025-10-05T11:52:35.000Z</time>
      </trkpt>
      <trkpt lat="49.59917" lon="3.42852">
        <ele>141.1</ele>
        <time>2025-10-05T11:52:36.000Z</time>
      </trkpt>
      <trkpt lat="49.59917" lon="3.42852">
        <ele>141.1</ele>
        <time>2025-10-05T11:52:37.000Z</time>
      </trkpt>
      <trkpt lat="49.59917" lon="3.42852">
        <ele>141.1</ele>
        <time>2025-10-05T11:52:38.000Z</time>
      </trkpt>
      <trkpt lat="49.59917" lon="3.42852">
        <ele>141.1</ele>
        <time>2025-10-05T11:52:39.000Z</time>
      </trkpt>
      <trkpt lat="49.59917" lon="3.42852">
        <ele>141.1</ele>
        <time>2025-10-05T11:52:40.000Z</time>
      </trkpt>
      <trkpt lat="49.59917" lon="3.42852">
        <ele>141.1</ele>
        <time>2025-10-05T11:52:41.000Z</time>
      </trkpt>
      <trkpt lat="49.59917" lon="3.42852">
        <ele>141.1</ele>
        <time>2025-10-05T11:52:42.000Z</time>
      </trkpt>
      <trkpt lat="49.59917" lon="3.42852">
        <ele>141.1</ele>
        <time>2025-10-05T11:52:43.000Z</time>
      </trkpt>
      <trkpt lat="49.59917" lon="3.42852">
        <ele>141.1</ele>
        <time>2025-10-05T11:52:44.000Z</time>
      </trkpt>
      <trkpt lat="49.59917" lon="3.42852">
        <ele>141.1</ele>
        <time>2025-10-05T11:52:45.000Z</time>
      </trkpt>
      <trkpt lat="49.59917" lon="3.42852">
        <ele>141.1</ele>
        <time>2025-10-05T11:52:46.000Z</time>
      </trkpt>
      <trkpt lat="49.59917" lon="3.42852">
        <ele>141.1</ele>
        <time>2025-10-05T11:52:47.000Z</time>
      </trkpt>
      <trkpt lat="49.59917" lon="3.42852">
        <ele>141.1</ele>
        <time>2025-10-05T11:52:48.000Z</time>
      </trkpt>
      <trkpt lat="49.59917" lon="3.42852">
        <ele>141.1</ele>
        <time>2025-10-05T11:52:49.000Z</time>
      </trkpt>
      <trkpt lat="49.59917" lon="3.42852">
        <ele>141.1</ele>
        <time>2025-10-05T11:52:50.000Z</time>
      </trkpt>
      <trkpt lat="49.59917" lon="3.42852">
        <ele>141.1</ele>
        <time>2025-10-05T11:52:51.000Z</time>
      </trkpt>
      <trkpt lat="49.59917" lon="3.42852">
        <ele>141.1</ele>
        <time>2025-10-05T11:52:52.000Z</time>
      </trkpt>
      <trkpt lat="49.59917" lon="3.42852">
        <ele>141.1</ele>
        <time>2025-10-05T11:52:53.000Z</time>
      </trkpt>
      <trkpt lat="49.59917" lon="3.42852">
        <ele>141.1</ele>
        <time>2025-10-05T11:52:54.000Z</time>
      </trkpt>
      <trkpt lat="49.59917" lon="3.42852">
        <ele>141.1</ele>
        <time>2025-10-05T11:52:55.000Z</time>
      </trkpt>
      <trkpt lat="49.59917" lon="3.42852">
        <ele>141.1</ele>
        <time>2025-10-05T11:52:56.000Z</time>
      </trkpt>
      <trkpt lat="49.59917" lon="3.42852">
        <ele>141.1</ele>
        <time>2025-10-05T11:52:57.000Z</time>
      </trkpt>
      <trkpt lat="49.59917" lon="3.42852">
        <ele>141.1</ele>
        <time>2025-10-05T11:52:58.000Z</time>
      </trkpt>
      <trkpt lat="49.59917" lon="3.42852">
        <ele>141.1</ele>
        <time>2025-10-05T11:52:59.000Z</time>
      </trkpt>
      <trkpt lat="49.59917" lon="3.42852">
        <ele>141.1</ele>
        <time>2025-10-05T11:53:00.000Z</time>
      </trkpt>
      <trkpt lat="49.59917" lon="3.42852">
        <ele>141.1</ele>
        <time>2025-10-05T11:53:01.000Z</time>
      </trkpt>
      <trkpt lat="49.59917" lon="3.42852">
        <ele>141.1</ele>
        <time>2025-10-05T11:53:02.000Z</time>
      </trkpt>
      <trkpt lat="49.59917" lon="3.42852">
        <ele>141.1</ele>
        <time>2025-10-05T11:53:03.000Z</time>
      </trkpt>
      <trkpt lat="49.59917" lon="3.42852">
        <ele>141.1</ele>
        <time>2025-10-05T11:53:04.000Z</time>
      </trkpt>
      <trkpt lat="49.59917" lon="3.42852">
        <ele>141.1</ele>
        <time>2025-10-05T11:53:05.000Z</time>
      </trkpt>
      <trkpt lat="49.59917" lon="3.42852">
        <ele>141.1</ele>
        <time>2025-10-05T11:53:06.000Z</time>
      </trkpt>
      <trkpt lat="49.59917" lon="3.42852">
        <ele>141.1</ele>
        <time>2025-10-05T11:53:07.000Z</time>
      </trkpt>
      <trkpt lat="49.59917" lon="3.42852">
        <ele>141.1</ele>
        <time>2025-10-05T11:53:08.000Z</time>
      </trkpt>
      <trkpt lat="49.59917" lon="3.42852">
        <ele>141.1</ele>
        <time>2025-10-05T11:53:09.000Z</time>
      </trkpt>
      <trkpt lat="49.59917" lon="3.42852">
        <ele>141.1</ele>
        <time>2025-10-05T11:53:10.000Z</time>
      </trkpt>
      <trkpt lat="49.59917" lon="3.42852">
        <ele>141.1</ele>
        <time>2025-10-05T11:53:11.000Z</time>
      </trkpt>
      <trkpt lat="49.59917" lon="3.42852">
        <ele>141.1</ele>
        <time>2025-10-05T11:53:12.000Z</time>
      </trkpt>
      <trkpt lat="49.59917" lon="3.42852">
        <ele>141.1</ele>
        <time>2025-10-05T11:53:13.000Z</time>
      </trkpt>
      <trkpt lat="49.59917" lon="3.42852">
        <ele>141.1</ele>
        <time>2025-10-05T11:53:14.000Z</time>
      </trkpt>
      <trkpt lat="49.59917" lon="3.42852">
        <ele>141.1</ele>
        <time>2025-10-05T11:53:15.000Z</time>
      </trkpt>
      <trkpt lat="49.59917" lon="3.42852">
        <ele>141.1</ele>
        <time>2025-10-05T11:53:16.000Z</time>
      </trkpt>
      <trkpt lat="49.59917" lon="3.42852">
        <ele>141.1</ele>
        <time>2025-10-05T11:53:17.000Z</time>
      </trkpt>
      <trkpt lat="49.59917" lon="3.42852">
        <ele>141.1</ele>
        <time>2025-10-05T11:53:18.000Z</time>
      </trkpt>
      <trkpt lat="49.59917" lon="3.42852">
        <ele>141.1</ele>
        <time>2025-10-05T11:53:19.000Z</time>
      </trkpt>
      <trkpt lat="49.59917" lon="3.42852">
        <ele>141.1</ele>
        <time>2025-10-05T11:53:20.000Z</time>
      </trkpt>
      <trkpt lat="49.59917" lon="3.42852">
        <ele>141.1</ele>
        <time>2025-10-05T11:53:21.000Z</time>
      </trkpt>
      <trkpt lat="49.59917" lon="3.42852">
        <ele>141.1</ele>
        <time>2025-10-05T11:53:22.000Z</time>
      </trkpt>
      <trkpt lat="49.59917" lon="3.42852">
        <ele>141.1</ele>
        <time>2025-10-05T11:53:23.000Z</time>
      </trkpt>
      <trkpt lat="49.59917" lon="3.42852">
        <ele>141.1</ele>
        <time>2025-10-05T11:53:24.000Z</time>
      </trkpt>
      <trkpt lat="49.59917" lon="3.42852">
        <ele>141.1</ele>
        <time>2025-10-05T11:53:25.000Z</time>
      </trkpt>
      <trkpt lat="49.59917" lon="3.42852">
        <ele>141.1</ele>
        <time>2025-10-05T11:53:26.000Z</time>
      </trkpt>
      <trkpt lat="49.59917" lon="3.42852">
        <ele>141.1</ele>
        <time>2025-10-05T11:53:27.000Z</time>
      </trkpt>
      <trkpt lat="49.59917" lon="3.42852">
        <ele>141.1</ele>
        <time>2025-10-05T11:53:28.000Z</time>
      </trkpt>
      <trkpt lat="49.59917" lon="3.42852">
        <ele>141.1</ele>
        <time>2025-10-05T11:53:29.000Z</time>
      </trkpt>
      <trkpt lat="49.59917" lon="3.42852">
        <ele>141.1</ele>
        <time>2025-10-05T11:53:30.000Z</time>
      </trkpt>
      <trkpt lat="49.59917" lon="3.42852">
        <ele>141.1</ele>
        <time>2025-10-05T11:53:31.000Z</time>
      </trkpt>
      <trkpt lat="49.59917" lon="3.42852">
        <ele>141.1</ele>
        <time>2025-10-05T11:53:32.000Z</time>
      </trkpt>
      <trkpt lat="49.59917" lon="3.42852">
        <ele>141.1</ele>
        <time>2025-10-05T11:53:33.000Z</time>
      </trkpt>
      <trkpt lat="49.59917" lon="3.42852">
        <ele>141.1</ele>
        <time>2025-10-05T11:53:34.000Z</time>
      </trkpt>
      <trkpt lat="49.59917" lon="3.42852">
        <ele>141.1</ele>
        <time>2025-10-05T11:53:35.000Z</time>
      </trkpt>
      <trkpt lat="49.59917" lon="3.42852">
        <ele>141.1</ele>
        <time>2025-10-05T11:53:36.000Z</time>
      </trkpt>
      <trkpt lat="49.59917" lon="3.42852">
        <ele>141.1</ele>
        <time>2025-10-05T11:53:37.000Z</time>
      </trkpt>
      <trkpt lat="49.59917" lon="3.42852">
        <ele>141.1</ele>
        <time>2025-10-05T11:53:38.000Z</time>
      </trkpt>
      <trkpt lat="49.59917" lon="3.42852">
        <ele>141.1</ele>
        <time>2025-10-05T11:53:39.000Z</time>
      </trkpt>
      <trkpt lat="49.59917" lon="3.42852">
        <ele>141.1</ele>
        <time>2025-10-05T11:53:40.000Z</time>
      </trkpt>
      <trkpt lat="49.59917" lon="3.42852">
        <ele>141.1</ele>
        <time>2025-10-05T11:53:41.000Z</time>
      </trkpt>
      <trkpt lat="49.59917" lon="3.42852">
        <ele>141.1</ele>
        <time>2025-10-05T11:53:42.000Z</time>
      </trkpt>
      <trkpt lat="49.59917" lon="3.42852">
        <ele>141.1</ele>
        <time>2025-10-05T11:53:43.000Z</time>
      </trkpt>
      <trkpt lat="49.59917" lon="3.42852">
        <ele>141.1</ele>
        <time>2025-10-05T11:53:44.000Z</time>
      </trkpt>
      <trkpt lat="49.59917" lon="3.42852">
        <ele>141.1</ele>
        <time>2025-10-05T11:53:45.000Z</time>
      </trkpt>
      <trkpt lat="49.59917" lon="3.42852">
        <ele>141.1</ele>
        <time>2025-10-05T11:53:46.000Z</time>
      </trkpt>
      <trkpt lat="49.59917" lon="3.42852">
        <ele>141.1</ele>
        <time>2025-10-05T11:53:47.000Z</time>
      </trkpt>
      <trkpt lat="49.59917" lon="3.42852">
        <ele>141.1</ele>
        <time>2025-10-05T11:53:48.000Z</time>
      </trkpt>
      <trkpt lat="49.59917" lon="3.42852">
        <ele>141.1</ele>
        <time>2025-10-05T11:53:49.000Z</time>
      </trkpt>
      <trkpt lat="49.59922" lon="3.42858">
        <ele>139.8</ele>
        <time>2025-10-05T11:53:50.000Z</time>
      </trkpt>
      <trkpt lat="49.59922" lon="3.42859">
        <ele>139.9</ele>
        <time>2025-10-05T11:53:51.000Z</time>
      </trkpt>
      <trkpt lat="49.59923" lon="3.4286">
        <ele>139.9</ele>
        <time>2025-10-05T11:53:52.000Z</time>
      </trkpt>
      <trkpt lat="49.59924" lon="3.42861">
        <ele>139.7</ele>
        <time>2025-10-05T11:53:53.000Z</time>
      </trkpt>
      <trkpt lat="49.59924" lon="3.42863">
        <ele>139.4</ele>
        <time>2025-10-05T11:53:54.000Z</time>
      </trkpt>
      <trkpt lat="49.59925" lon="3.42865">
        <ele>139.3</ele>
        <time>2025-10-05T11:53:55.000Z</time>
      </trkpt>
      <trkpt lat="49.59925" lon="3.42867">
        <ele>139.3</ele>
        <time>2025-10-05T11:53:56.000Z</time>
      </trkpt>
      <trkpt lat="49.59925" lon="3.42868">
        <ele>139.4</ele>
        <time>2025-10-05T11:53:57.000Z</time>
      </trkpt>
      <trkpt lat="49.59926" lon="3.4287">
        <ele>139.4</ele>
        <time>2025-10-05T11:53:58.000Z</time>
      </trkpt>
      <trkpt lat="49.59927" lon="3.42872">
        <ele>139.3</ele>
        <time>2025-10-05T11:53:59.000Z</time>
      </trkpt>
      <trkpt lat="49.59927" lon="3.42873">
        <ele>138.9</ele>
        <time>2025-10-05T11:54:00.000Z</time>
      </trkpt>
      <trkpt lat="49.59928" lon="3.42875">
        <ele>138.4</ele>
        <time>2025-10-05T11:54:01.000Z</time>
      </trkpt>
      <trkpt lat="49.59928" lon="3.42876">
        <ele>138</ele>
        <time>2025-10-05T11:54:02.000Z</time>
      </trkpt>
      <trkpt lat="49.59928" lon="3.42877">
        <ele>137.8</ele>
        <time>2025-10-05T11:54:03.000Z</time>
      </trkpt>
      <trkpt lat="49.59929" lon="3.42879">
        <ele>137.9</ele>
        <time>2025-10-05T11:54:04.000Z</time>
      </trkpt>
      <trkpt lat="49.5993" lon="3.4288">
        <ele>137.8</ele>
        <time>2025-10-05T11:54:05.000Z</time>
      </trkpt>
      <trkpt lat="49.5993" lon="3.42881">
        <ele>138</ele>
        <time>2025-10-05T11:54:06.000Z</time>
      </trkpt>
      <trkpt lat="49.59931" lon="3.42882">
        <ele>137.9</ele>
        <time>2025-10-05T11:54:07.000Z</time>
      </trkpt>
      <trkpt lat="49.59932" lon="3.42884">
        <ele>137.8</ele>
        <time>2025-10-05T11:54:08.000Z</time>
      </trkpt>
      <trkpt lat="49.59932" lon="3.42885">
        <ele>137.6</ele>
        <time>2025-10-05T11:54:09.000Z</time>
      </trkpt>
      <trkpt lat="49.59933" lon="3.42887">
        <ele>137.4</ele>
        <time>2025-10-05T11:54:10.000Z</time>
      </trkpt>
      <trkpt lat="49.59933" lon="3.42888">
        <ele>137.2</ele>
        <time>2025-10-05T11:54:11.000Z</time>
      </trkpt>
      <trkpt lat="49.59934" lon="3.42889">
        <ele>137.2</ele>
        <time>2025-10-05T11:54:12.000Z</time>
      </trkpt>
      <trkpt lat="49.59935" lon="3.42891">
        <ele>137.2</ele>
        <time>2025-10-05T11:54:13.000Z</time>
      </trkpt>
      <trkpt lat="49.59935" lon="3.42892">
        <ele>137.2</ele>
        <time>2025-10-05T11:54:14.000Z</time>
      </trkpt>
      <trkpt lat="49.59936" lon="3.42893">
        <ele>137.1</ele>
        <time>2025-10-05T11:54:15.000Z</time>
      </trkpt>
      <trkpt lat="49.59936" lon="3.42895">
        <ele>137</ele>
        <time>2025-10-05T11:54:16.000Z</time>
      </trkpt>
      <trkpt lat="49.59937" lon="3.42896">
        <ele>136.9</ele>
        <time>2025-10-05T11:54:17.000Z</time>
      </trkpt>
      <trkpt lat="49.59937" lon="3.42898">
        <ele>136.7</ele>
        <time>2025-10-05T11:54:18.000Z</time>
      </trkpt>
      <trkpt lat="49.59938" lon="3.429">
        <ele>136.8</ele>
        <time>2025-10-05T11:54:19.000Z</time>
      </trkpt>
      <trkpt lat="49.5994" lon="3.42902">
        <ele>137</ele>
        <time>2025-10-05T11:54:20.000Z</time>
      </trkpt>
      <trkpt lat="49.59941" lon="3.42903">
        <ele>137.5</ele>
        <time>2025-10-05T11:54:21.000Z</time>
      </trkpt>
      <trkpt lat="49.59942" lon="3.42905">
        <ele>138.1</ele>
        <time>2025-10-05T11:54:22.000Z</time>
      </trkpt>
      <trkpt lat="49.59943" lon="3.42907">
        <ele>138.4</ele>
        <time>2025-10-05T11:54:23.000Z</time>
      </trkpt>
      <trkpt lat="49.59944" lon="3.42909">
        <ele>138.7</ele>
        <time>2025-10-05T11:54:24.000Z</time>
      </trkpt>
      <trkpt lat="49.59944" lon="3.4291">
        <ele>138.7</ele>
        <time>2025-10-05T11:54:25.000Z</time>
      </trkpt>
      <trkpt lat="49.59945" lon="3.42911">
        <ele>138.8</ele>
        <time>2025-10-05T11:54:26.000Z</time>
      </trkpt>
      <trkpt lat="49.59945" lon="3.42913">
        <ele>138.9</ele>
        <time>2025-10-05T11:54:27.000Z</time>
      </trkpt>
      <trkpt lat="49.59946" lon="3.42914">
        <ele>139.1</ele>
        <time>2025-10-05T11:54:28.000Z</time>
      </trkpt>
      <trkpt lat="49.59946" lon="3.42915">
        <ele>139</ele>
        <time>2025-10-05T11:54:29.000Z</time>
      </trkpt>
      <trkpt lat="49.59947" lon="3.42916">
        <ele>138.9</ele>
        <time>2025-10-05T11:54:30.000Z</time>
      </trkpt>
      <trkpt lat="49.59947" lon="3.42918">
        <ele>138.8</ele>
        <time>2025-10-05T11:54:31.000Z</time>
      </trkpt>
      <trkpt lat="49.59948" lon="3.42919">
        <ele>138.4</ele>
        <time>2025-10-05T11:54:32.000Z</time>
      </trkpt>
      <trkpt lat="49.59948" lon="3.42922">
        <ele>138.1</ele>
        <time>2025-10-05T11:54:33.000Z</time>
      </trkpt>
      <trkpt lat="49.59949" lon="3.42924">
        <ele>137.9</ele>
        <time>2025-10-05T11:54:34.000Z</time>
      </trkpt>
      <trkpt lat="49.59949" lon="3.42926">
        <ele>137.8</ele>
        <time>2025-10-05T11:54:35.000Z</time>
      </trkpt>
      <trkpt lat="49.5995" lon="3.42927">
        <ele>137.8</ele>
        <time>2025-10-05T11:54:36.000Z</time>
      </trkpt>
      <trkpt lat="49.5995" lon="3.42928">
        <ele>138</ele>
        <time>2025-10-05T11:54:37.000Z</time>
      </trkpt>
      <trkpt lat="49.5995" lon="3.42929">
        <ele>138.2</ele>
        <time>2025-10-05T11:54:38.000Z</time>
      </trkpt>
      <trkpt lat="49.59951" lon="3.4293">
        <ele>138.3</ele>
        <time>2025-10-05T11:54:39.000Z</time>
      </trkpt>
      <trkpt lat="49.59951" lon="3.42931">
        <ele>138</ele>
        <time>2025-10-05T11:54:40.000Z</time>
      </trkpt>
      <trkpt lat="49.59952" lon="3.42933">
        <ele>137.7</ele>
        <time>2025-10-05T11:54:41.000Z</time>
      </trkpt>
      <trkpt lat="49.59952" lon="3.42935">
        <ele>137.4</ele>
        <time>2025-10-05T11:54:42.000Z</time>
      </trkpt>
      <trkpt lat="49.59952" lon="3.42937">
        <ele>137.1</ele>
        <time>2025-10-05T11:54:43.000Z</time>
      </trkpt>
      <trkpt lat="49.59953" lon="3.42938">
        <ele>136.7</ele>
        <time>2025-10-05T11:54:44.000Z</time>
      </trkpt>
      <trkpt lat="49.59953" lon="3.42939">
        <ele>136.6</ele>
        <time>2025-10-05T11:54:45.000Z</time>
      </trkpt>
      <trkpt lat="49.59954" lon="3.4294">
        <ele>136.3</ele>
        <time>2025-10-05T11:54:46.000Z</time>
      </trkpt>
      <trkpt lat="49.59954" lon="3.42942">
        <ele>135.8</ele>
        <time>2025-10-05T11:54:47.000Z</time>
      </trkpt>
      <trkpt lat="49.59954" lon="3.42943">
        <ele>135.5</ele>
        <time>2025-10-05T11:54:48.000Z</time>
      </trkpt>
      <trkpt lat="49.59955" lon="3.42945">
        <ele>135.3</ele>
        <time>2025-10-05T11:54:49.000Z</time>
      </trkpt>
      <trkpt lat="49.59956" lon="3.42947">
        <ele>135.2</ele>
        <time>2025-10-05T11:54:50.000Z</time>
      </trkpt>
      <trkpt lat="49.59957" lon="3.42948">
        <ele>135.3</ele>
        <time>2025-10-05T11:54:51.000Z</time>
      </trkpt>
      <trkpt lat="49.59958" lon="3.4295">
        <ele>135.5</ele>
        <time>2025-10-05T11:54:52.000Z</time>
      </trkpt>
      <trkpt lat="49.59959" lon="3.42952">
        <ele>135.7</ele>
        <time>2025-10-05T11:54:53.000Z</time>
      </trkpt>
      <trkpt lat="49.5996" lon="3.42953">
        <ele>135.4</ele>
        <time>2025-10-05T11:54:54.000Z</time>
      </trkpt>
      <trkpt lat="49.5996" lon="3.42954">
        <ele>135.2</ele>
        <time>2025-10-05T11:54:55.000Z</time>
      </trkpt>
      <trkpt lat="49.59961" lon="3.42956">
        <ele>135</ele>
        <time>2025-10-05T11:54:56.000Z</time>
      </trkpt>
      <trkpt lat="49.59961" lon="3.42957">
        <ele>134.7</ele>
        <time>2025-10-05T11:54:57.000Z</time>
      </trkpt>
      <trkpt lat="49.59962" lon="3.42958">
        <ele>134.6</ele>
        <time>2025-10-05T11:54:58.000Z</time>
      </trkpt>
      <trkpt lat="49.59963" lon="3.4296">
        <ele>134.5</ele>
        <time>2025-10-05T11:54:59.000Z</time>
      </trkpt>
      <trkpt lat="49.59963" lon="3.42962">
        <ele>134.3</ele>
        <time>2025-10-05T11:55:00.000Z</time>
      </trkpt>
      <trkpt lat="49.59964" lon="3.42963">
        <ele>134.2</ele>
        <time>2025-10-05T11:55:01.000Z</time>
      </trkpt>
      <trkpt lat="49.59964" lon="3.42965">
        <ele>134.1</ele>
        <time>2025-10-05T11:55:02.000Z</time>
      </trkpt>
      <trkpt lat="49.59964" lon="3.42967">
        <ele>134</ele>
        <time>2025-10-05T11:55:03.000Z</time>
      </trkpt>
      <trkpt lat="49.59965" lon="3.42969">
        <ele>133.5</ele>
        <time>2025-10-05T11:55:04.000Z</time>
      </trkpt>
      <trkpt lat="49.59966" lon="3.42971">
        <ele>133</ele>
        <time>2025-10-05T11:55:05.000Z</time>
      </trkpt>
      <trkpt lat="49.59967" lon="3.42972">
        <ele>132.6</ele>
        <time>2025-10-05T11:55:06.000Z</time>
      </trkpt>
      <trkpt lat="49.59967" lon="3.42974">
        <ele>132</ele>
        <time>2025-10-05T11:55:07.000Z</time>
      </trkpt>
      <trkpt lat="49.59968" lon="3.42975">
        <ele>132</ele>
        <time>2025-10-05T11:55:08.000Z</time>
      </trkpt>
      <trkpt lat="49.59969" lon="3.42977">
        <ele>131.8</ele>
        <time>2025-10-05T11:55:09.000Z</time>
      </trkpt>
      <trkpt lat="49.59969" lon="3.42979">
        <ele>131.7</ele>
        <time>2025-10-05T11:55:10.000Z</time>
      </trkpt>
      <trkpt lat="49.5997" lon="3.42981">
        <ele>131.4</ele>
        <time>2025-10-05T11:55:11.000Z</time>
      </trkpt>
      <trkpt lat="49.59971" lon="3.42983">
        <ele>131.2</ele>
        <time>2025-10-05T11:55:12.000Z</time>
      </trkpt>
      <trkpt lat="49.59971" lon="3.42984">
        <ele>131.2</ele>
        <time>2025-10-05T11:55:13.000Z</time>
      </trkpt>
      <trkpt lat="49.59972" lon="3.42985">
        <ele>131.5</ele>
        <time>2025-10-05T11:55:14.000Z</time>
      </trkpt>
      <trkpt lat="49.59973" lon="3.42987">
        <ele>131.7</ele>
        <time>2025-10-05T11:55:15.000Z</time>
      </trkpt>
      <trkpt lat="49.59974" lon="3.42989">
        <ele>132</ele>
        <time>2025-10-05T11:55:16.000Z</time>
      </trkpt>
      <trkpt lat="49.59974" lon="3.42991">
        <ele>131.9</ele>
        <time>2025-10-05T11:55:17.000Z</time>
      </trkpt>
      <trkpt lat="49.59975" lon="3.42993">
        <ele>131.8</ele>
        <time>2025-10-05T11:55:18.000Z</time>
      </trkpt>
      <trkpt lat="49.59976" lon="3.42993">
        <ele>132</ele>
        <time>2025-10-05T11:55:19.000Z</time>
      </trkpt>
      <trkpt lat="49.59977" lon="3.42995">
        <ele>132.5</ele>
        <time>2025-10-05T11:55:20.000Z</time>
      </trkpt>
      <trkpt lat="49.59977" lon="3.42996">
        <ele>132.7</ele>
        <time>2025-10-05T11:55:21.000Z</time>
      </trkpt>
      <trkpt lat="49.59978" lon="3.42997">
        <ele>132.9</ele>
        <time>2025-10-05T11:55:22.000Z</time>
      </trkpt>
      <trkpt lat="49.59978" lon="3.42998">
        <ele>132.9</ele>
        <time>2025-10-05T11:55:23.000Z</time>
      </trkpt>
      <trkpt lat="49.59978" lon="3.42999">
        <ele>132.9</ele>
        <time>2025-10-05T11:55:24.000Z</time>
      </trkpt>
      <trkpt lat="49.59979" lon="3.43001">
        <ele>132.9</ele>
        <time>2025-10-05T11:55:25.000Z</time>
      </trkpt>
      <trkpt lat="49.5998" lon="3.43002">
        <ele>133.1</ele>
        <time>2025-10-05T11:55:26.000Z</time>
      </trkpt>
      <trkpt lat="49.59981" lon="3.43003">
        <ele>133.3</ele>
        <time>2025-10-05T11:55:27.000Z</time>
      </trkpt>
      <trkpt lat="49.59981" lon="3.43004">
        <ele>133.6</ele>
        <time>2025-10-05T11:55:28.000Z</time>
      </trkpt>
      <trkpt lat="49.59982" lon="3.43005">
        <ele>133.6</ele>
        <time>2025-10-05T11:55:29.000Z</time>
      </trkpt>
      <trkpt lat="49.59983" lon="3.43007">
        <ele>133.8</ele>
        <time>2025-10-05T11:55:30.000Z</time>
      </trkpt>
      <trkpt lat="49.59983" lon="3.43008">
        <ele>133.8</ele>
        <time>2025-10-05T11:55:31.000Z</time>
      </trkpt>
      <trkpt lat="49.59984" lon="3.43009">
        <ele>133.8</ele>
        <time>2025-10-05T11:55:32.000Z</time>
      </trkpt>
      <trkpt lat="49.59984" lon="3.43011">
        <ele>133.6</ele>
        <time>2025-10-05T11:55:33.000Z</time>
      </trkpt>
      <trkpt lat="49.59985" lon="3.43012">
        <ele>133.4</ele>
        <time>2025-10-05T11:55:34.000Z</time>
      </trkpt>
      <trkpt lat="49.59986" lon="3.43013">
        <ele>133.4</ele>
        <time>2025-10-05T11:55:35.000Z</time>
      </trkpt>
      <trkpt lat="49.59987" lon="3.43015">
        <ele>133.3</ele>
        <time>2025-10-05T11:55:36.000Z</time>
      </trkpt>
      <trkpt lat="49.59988" lon="3.43016">
        <ele>133.2</ele>
        <time>2025-10-05T11:55:37.000Z</time>
      </trkpt>
      <trkpt lat="49.59989" lon="3.43018">
        <ele>132.9</ele>
        <time>2025-10-05T11:55:38.000Z</time>
      </trkpt>
      <trkpt lat="49.59989" lon="3.43019">
        <ele>132.7</ele>
        <time>2025-10-05T11:55:39.000Z</time>
      </trkpt>
      <trkpt lat="49.5999" lon="3.43021">
        <ele>132.4</ele>
        <time>2025-10-05T11:55:40.000Z</time>
      </trkpt>
      <trkpt lat="49.59991" lon="3.43021">
        <ele>132.2</ele>
        <time>2025-10-05T11:55:41.000Z</time>
      </trkpt>
      <trkpt lat="49.59992" lon="3.43022">
        <ele>131.8</ele>
        <time>2025-10-05T11:55:42.000Z</time>
      </trkpt>
      <trkpt lat="49.59992" lon="3.43023">
        <ele>131.2</ele>
        <time>2025-10-05T11:55:43.000Z</time>
      </trkpt>
      <trkpt lat="49.59993" lon="3.43024">
        <ele>130.8</ele>
        <time>2025-10-05T11:55:44.000Z</time>
      </trkpt>
      <trkpt lat="49.59993" lon="3.43025">
        <ele>130.6</ele>
        <time>2025-10-05T11:55:45.000Z</time>
      </trkpt>
      <trkpt lat="49.59994" lon="3.43027">
        <ele>130.4</ele>
        <time>2025-10-05T11:55:46.000Z</time>
      </trkpt>
      <trkpt lat="49.59995" lon="3.43029">
        <ele>130</ele>
        <time>2025-10-05T11:55:47.000Z</time>
      </trkpt>
      <trkpt lat="49.59996" lon="3.43031">
        <ele>130.1</ele>
        <time>2025-10-05T11:55:48.000Z</time>
      </trkpt>
      <trkpt lat="49.59997" lon="3.43033">
        <ele>130.3</ele>
        <time>2025-10-05T11:55:49.000Z</time>
      </trkpt>
      <trkpt lat="49.59996" lon="3.43034">
        <ele>130.7</ele>
        <time>2025-10-05T11:55:50.000Z</time>
      </trkpt>
      <trkpt lat="49.59997" lon="3.43035">
        <ele>131.1</ele>
        <time>2025-10-05T11:55:51.000Z</time>
      </trkpt>
      <trkpt lat="49.59997" lon="3.43037">
        <ele>131.3</ele>
        <time>2025-10-05T11:55:52.000Z</time>
      </trkpt>
      <trkpt lat="49.59997" lon="3.43038">
        <ele>131</ele>
        <time>2025-10-05T11:55:53.000Z</time>
      </trkpt>
      <trkpt lat="49.59997" lon="3.43039">
        <ele>130.7</ele>
        <time>2025-10-05T11:55:54.000Z</time>
      </trkpt>
      <trkpt lat="49.59998" lon="3.43041">
        <ele>130.6</ele>
        <time>2025-10-05T11:55:55.000Z</time>
      </trkpt>
      <trkpt lat="49.59998" lon="3.43042">
        <ele>130.6</ele>
        <time>2025-10-05T11:55:56.000Z</time>
      </trkpt>
      <trkpt lat="49.59998" lon="3.43043">
        <ele>130.5</ele>
        <time>2025-10-05T11:55:57.000Z</time>
      </trkpt>
      <trkpt lat="49.59998" lon="3.43044">
        <ele>130.2</ele>
        <time>2025-10-05T11:55:58.000Z</time>
      </trkpt>
      <trkpt lat="49.59999" lon="3.43045">
        <ele>130.2</ele>
        <time>2025-10-05T11:55:59.000Z</time>
      </trkpt>
      <trkpt lat="49.59999" lon="3.43047">
        <ele>130.1</ele>
        <time>2025-10-05T11:56:00.000Z</time>
      </trkpt>
      <trkpt lat="49.59999" lon="3.43048">
        <ele>130.4</ele>
        <time>2025-10-05T11:56:01.000Z</time>
      </trkpt>
      <trkpt lat="49.6" lon="3.4305">
        <ele>130.6</ele>
        <time>2025-10-05T11:56:02.000Z</time>
      </trkpt>
      <trkpt lat="49.6" lon="3.4305">
        <ele>131</ele>
        <time>2025-10-05T11:56:03.000Z</time>
      </trkpt>
      <trkpt lat="49.60001" lon="3.43051">
        <ele>131.5</ele>
        <time>2025-10-05T11:56:04.000Z</time>
      </trkpt>
      <trkpt lat="49.60001" lon="3.43052">
        <ele>131.5</ele>
        <time>2025-10-05T11:56:05.000Z</time>
      </trkpt>
      <trkpt lat="49.60001" lon="3.43052">
        <ele>131.7</ele>
        <time>2025-10-05T11:56:06.000Z</time>
      </trkpt>
      <trkpt lat="49.60001" lon="3.43052">
        <ele>131.8</ele>
        <time>2025-10-05T11:56:07.000Z</time>
      </trkpt>
      <trkpt lat="49.60001" lon="3.43052">
        <ele>131.8</ele>
        <time>2025-10-05T11:56:08.000Z</time>
      </trkpt>
      <trkpt lat="49.60001" lon="3.43052">
        <ele>131.7</ele>
        <time>2025-10-05T11:56:09.000Z</time>
      </trkpt>
      <trkpt lat="49.60001" lon="3.43052">
        <ele>131.7</ele>
        <time>2025-10-05T11:56:10.000Z</time>
      </trkpt>
      <trkpt lat="49.60001" lon="3.43052">
        <ele>131.7</ele>
        <time>2025-10-05T11:56:11.000Z</time>
      </trkpt>
      <trkpt lat="49.60001" lon="3.43052">
        <ele>131.7</ele>
        <time>2025-10-05T11:56:12.000Z</time>
      </trkpt>
      <trkpt lat="49.60001" lon="3.43052">
        <ele>131.7</ele>
        <time>2025-10-05T11:56:13.000Z</time>
      </trkpt>
      <trkpt lat="49.60001" lon="3.43052">
        <ele>131.7</ele>
        <time>2025-10-05T11:56:14.000Z</time>
      </trkpt>
      <trkpt lat="49.60001" lon="3.43052">
        <ele>131.7</ele>
        <time>2025-10-05T11:56:15.000Z</time>
      </trkpt>
      <trkpt lat="49.60001" lon="3.43052">
        <ele>131.7</ele>
        <time>2025-10-05T11:56:16.000Z</time>
      </trkpt>
      <trkpt lat="49.60001" lon="3.43054">
        <ele>133.3</ele>
        <time>2025-10-05T11:56:17.000Z</time>
      </trkpt>
      <trkpt lat="49.60002" lon="3.43055">
        <ele>133.6</ele>
        <time>2025-10-05T11:56:18.000Z</time>
      </trkpt>
      <trkpt lat="49.60004" lon="3.43056">
        <ele>133.8</ele>
        <time>2025-10-05T11:56:19.000Z</time>
      </trkpt>
      <trkpt lat="49.60005" lon="3.43058">
        <ele>134.1</ele>
        <time>2025-10-05T11:56:20.000Z</time>
      </trkpt>
      <trkpt lat="49.60007" lon="3.43059">
        <ele>134.8</ele>
        <time>2025-10-05T11:56:21.000Z</time>
      </trkpt>
      <trkpt lat="49.60009" lon="3.43061">
        <ele>135.4</ele>
        <time>2025-10-05T11:56:22.000Z</time>
      </trkpt>
      <trkpt lat="49.60011" lon="3.43062">
        <ele>135.9</ele>
        <time>2025-10-05T11:56:23.000Z</time>
      </trkpt>
      <trkpt lat="49.60012" lon="3.43063">
        <ele>136</ele>
        <time>2025-10-05T11:56:24.000Z</time>
      </trkpt>
      <trkpt lat="49.60013" lon="3.43064">
        <ele>136.3</ele>
        <time>2025-10-05T11:56:25.000Z</time>
      </trkpt>
      <trkpt lat="49.60014" lon="3.43065">
        <ele>136.8</ele>
        <time>2025-10-05T11:56:26.000Z</time>
      </trkpt>
      <trkpt lat="49.60015" lon="3.43067">
        <ele>137.3</ele>
        <time>2025-10-05T11:56:27.000Z</time>
      </trkpt>
      <trkpt lat="49.60016" lon="3.43068">
        <ele>137.7</ele>
        <time>2025-10-05T11:56:28.000Z</time>
      </trkpt>
      <trkpt lat="49.60016" lon="3.4307">
        <ele>138</ele>
        <time>2025-10-05T11:56:29.000Z</time>
      </trkpt>
      <trkpt lat="49.60017" lon="3.43072">
        <ele>138.4</ele>
        <time>2025-10-05T11:56:30.000Z</time>
      </trkpt>
      <trkpt lat="49.60017" lon="3.43073">
        <ele>138.4</ele>
        <time>2025-10-05T11:56:31.000Z</time>
      </trkpt>
      <trkpt lat="49.60017" lon="3.43074">
        <ele>138.2</ele>
        <time>2025-10-05T11:56:32.000Z</time>
      </trkpt>
      <trkpt lat="49.60018" lon="3.43076">
        <ele>138.3</ele>
        <time>2025-10-05T11:56:33.000Z</time>
      </trkpt>
      <trkpt lat="49.6002" lon="3.43077">
        <ele>138.6</ele>
        <time>2025-10-05T11:56:34.000Z</time>
      </trkpt>
      <trkpt lat="49.60021" lon="3.43078">
        <ele>138.6</ele>
        <time>2025-10-05T11:56:35.000Z</time>
      </trkpt>
      <trkpt lat="49.60021" lon="3.4308">
        <ele>138.7</ele>
        <time>2025-10-05T11:56:36.000Z</time>
      </trkpt>
      <trkpt lat="49.60021" lon="3.43082">
        <ele>138.6</ele>
        <time>2025-10-05T11:56:37.000Z</time>
      </trkpt>
      <trkpt lat="49.60022" lon="3.43084">
        <ele>138.4</ele>
        <time>2025-10-05T11:56:38.000Z</time>
      </trkpt>
      <trkpt lat="49.60022" lon="3.43084">
        <ele>138.6</ele>
        <time>2025-10-05T11:56:39.000Z</time>
      </trkpt>
      <trkpt lat="49.60022" lon="3.43086">
        <ele>138.6</ele>
        <time>2025-10-05T11:56:40.000Z</time>
      </trkpt>
      <trkpt lat="49.60023" lon="3.43087">
        <ele>138.6</ele>
        <time>2025-10-05T11:56:41.000Z</time>
      </trkpt>
      <trkpt lat="49.60023" lon="3.43089">
        <ele>138.3</ele>
        <time>2025-10-05T11:56:42.000Z</time>
      </trkpt>
      <trkpt lat="49.60023" lon="3.43091">
        <ele>138.1</ele>
        <time>2025-10-05T11:56:43.000Z</time>
      </trkpt>
      <trkpt lat="49.60024" lon="3.43093">
        <ele>138</ele>
        <time>2025-10-05T11:56:44.000Z</time>
      </trkpt>
      <trkpt lat="49.60025" lon="3.43094">
        <ele>138</ele>
        <time>2025-10-05T11:56:45.000Z</time>
      </trkpt>
      <trkpt lat="49.60026" lon="3.43095">
        <ele>137.9</ele>
        <time>2025-10-05T11:56:46.000Z</time>
      </trkpt>
      <trkpt lat="49.60026" lon="3.43097">
        <ele>137.8</ele>
        <time>2025-10-05T11:56:47.000Z</time>
      </trkpt>
      <trkpt lat="49.60027" lon="3.43099">
        <ele>137.8</ele>
        <time>2025-10-05T11:56:48.000Z</time>
      </trkpt>
      <trkpt lat="49.60028" lon="3.431">
        <ele>137.7</ele>
        <time>2025-10-05T11:56:49.000Z</time>
      </trkpt>
      <trkpt lat="49.60028" lon="3.43101">
        <ele>138</ele>
        <time>2025-10-05T11:56:50.000Z</time>
      </trkpt>
      <trkpt lat="49.60028" lon="3.43101">
        <ele>137.9</ele>
        <time>2025-10-05T11:56:51.000Z</time>
      </trkpt>
      <trkpt lat="49.60028" lon="3.43102">
        <ele>138</ele>
        <time>2025-10-05T11:56:52.000Z</time>
      </trkpt>
      <trkpt lat="49.60029" lon="3.43102">
        <ele>138</ele>
        <time>2025-10-05T11:56:53.000Z</time>
      </trkpt>
      <trkpt lat="49.60029" lon="3.43103">
        <ele>138.1</ele>
        <time>2025-10-05T11:56:54.000Z</time>
      </trkpt>
      <trkpt lat="49.6003" lon="3.43105">
        <ele>138.3</ele>
        <time>2025-10-05T11:56:55.000Z</time>
      </trkpt>
      <trkpt lat="49.60031" lon="3.43106">
        <ele>138.4</ele>
        <time>2025-10-05T11:56:56.000Z</time>
      </trkpt>
      <trkpt lat="49.60032" lon="3.43107">
        <ele>138.7</ele>
        <time>2025-10-05T11:56:57.000Z</time>
      </trkpt>
      <trkpt lat="49.60033" lon="3.43108">
        <ele>139</ele>
        <time>2025-10-05T11:56:58.000Z</time>
      </trkpt>
      <trkpt lat="49.60033" lon="3.43109">
        <ele>139</ele>
        <time>2025-10-05T11:56:59.000Z</time>
      </trkpt>
      <trkpt lat="49.60033" lon="3.43109">
        <ele>138.8</ele>
        <time>2025-10-05T11:57:00.000Z</time>
      </trkpt>
      <trkpt lat="49.60033" lon="3.43108">
        <ele>138.9</ele>
        <time>2025-10-05T11:57:01.000Z</time>
      </trkpt>
      <trkpt lat="49.60033" lon="3.43108">
        <ele>138.8</ele>
        <time>2025-10-05T11:57:02.000Z</time>
      </trkpt>
      <trkpt lat="49.60033" lon="3.43108">
        <ele>138.7</ele>
        <time>2025-10-05T11:57:03.000Z</time>
      </trkpt>
      <trkpt lat="49.60034" lon="3.43108">
        <ele>138.7</ele>
        <time>2025-10-05T11:57:04.000Z</time>
      </trkpt>
      <trkpt lat="49.60033" lon="3.43108">
        <ele>138.4</ele>
        <time>2025-10-05T11:57:05.000Z</time>
      </trkpt>
      <trkpt lat="49.60034" lon="3.43108">
        <ele>138.3</ele>
        <time>2025-10-05T11:57:06.000Z</time>
      </trkpt>
      <trkpt lat="49.60034" lon="3.43108">
        <ele>138.3</ele>
        <time>2025-10-05T11:57:07.000Z</time>
      </trkpt>
      <trkpt lat="49.60035" lon="3.43109">
        <ele>138.2</ele>
        <time>2025-10-05T11:57:08.000Z</time>
      </trkpt>
      <trkpt lat="49.60035" lon="3.43109">
        <ele>138.1</ele>
        <time>2025-10-05T11:57:09.000Z</time>
      </trkpt>
      <trkpt lat="49.60036" lon="3.43109">
        <ele>137.9</ele>
        <time>2025-10-05T11:57:10.000Z</time>
      </trkpt>
      <trkpt lat="49.60037" lon="3.4311">
        <ele>137.8</ele>
        <time>2025-10-05T11:57:11.000Z</time>
      </trkpt>
      <trkpt lat="49.60037" lon="3.4311">
        <ele>137.4</ele>
        <time>2025-10-05T11:57:12.000Z</time>
      </trkpt>
      <trkpt lat="49.60038" lon="3.4311">
        <ele>136.9</ele>
        <time>2025-10-05T11:57:13.000Z</time>
      </trkpt>
      <trkpt lat="49.60039" lon="3.4311">
        <ele>136.5</ele>
        <time>2025-10-05T11:57:14.000Z</time>
      </trkpt>
      <trkpt lat="49.6004" lon="3.4311">
        <ele>136.2</ele>
        <time>2025-10-05T11:57:15.000Z</time>
      </trkpt>
      <trkpt lat="49.6004" lon="3.4311">
        <ele>136.1</ele>
        <time>2025-10-05T11:57:16.000Z</time>
      </trkpt>
      <trkpt lat="49.60042" lon="3.43112">
        <ele>136.3</ele>
        <time>2025-10-05T11:57:17.000Z</time>
      </trkpt>
      <trkpt lat="49.60043" lon="3.43112">
        <ele>136.7</ele>
        <time>2025-10-05T11:57:18.000Z</time>
      </trkpt>
      <trkpt lat="49.60044" lon="3.43112">
        <ele>136.9</ele>
        <time>2025-10-05T11:57:19.000Z</time>
      </trkpt>
      <trkpt lat="49.60044" lon="3.43111">
        <ele>137</ele>
        <time>2025-10-05T11:57:20.000Z</time>
      </trkpt>
      <trkpt lat="49.60045" lon="3.4311">
        <ele>136.9</ele>
        <time>2025-10-05T11:57:21.000Z</time>
      </trkpt>
      <trkpt lat="49.60046" lon="3.43111">
        <ele>136.9</ele>
        <time>2025-10-05T11:57:22.000Z</time>
      </trkpt>
      <trkpt lat="49.60046" lon="3.4311">
        <ele>136.8</ele>
        <time>2025-10-05T11:57:23.000Z</time>
      </trkpt>
      <trkpt lat="49.60045" lon="3.43111">
        <ele>136.8</ele>
        <time>2025-10-05T11:57:24.000Z</time>
      </trkpt>
      <trkpt lat="49.60045" lon="3.43112">
        <ele>136.6</ele>
        <time>2025-10-05T11:57:25.000Z</time>
      </trkpt>
      <trkpt lat="49.60044" lon="3.43112">
        <ele>136.4</ele>
        <time>2025-10-05T11:57:26.000Z</time>
      </trkpt>
      <trkpt lat="49.60044" lon="3.43113">
        <ele>136.2</ele>
        <time>2025-10-05T11:57:27.000Z</time>
      </trkpt>
      <trkpt lat="49.60044" lon="3.43113">
        <ele>136.2</ele>
        <time>2025-10-05T11:57:28.000Z</time>
      </trkpt>
      <trkpt lat="49.60044" lon="3.43113">
        <ele>136.1</ele>
        <time>2025-10-05T11:57:29.000Z</time>
      </trkpt>
      <trkpt lat="49.60044" lon="3.43114">
        <ele>135.9</ele>
        <time>2025-10-05T11:57:30.000Z</time>
      </trkpt>
      <trkpt lat="49.60044" lon="3.43114">
        <ele>135.8</ele>
        <time>2025-10-05T11:57:31.000Z</time>
      </trkpt>
      <trkpt lat="49.60044" lon="3.43114">
        <ele>135.8</ele>
        <time>2025-10-05T11:57:32.000Z</time>
      </trkpt>
      <trkpt lat="49.60045" lon="3.43115">
        <ele>135.7</ele>
        <time>2025-10-05T11:57:33.000Z</time>
      </trkpt>
      <trkpt lat="49.60046" lon="3.43115">
        <ele>135.8</ele>
        <time>2025-10-05T11:57:34.000Z</time>
      </trkpt>
      <trkpt lat="49.60046" lon="3.43114">
        <ele>135.8</ele>
        <time>2025-10-05T11:57:35.000Z</time>
      </trkpt>
      <trkpt lat="49.60047" lon="3.43114">
        <ele>135.9</ele>
        <time>2025-10-05T11:57:36.000Z</time>
      </trkpt>
      <trkpt lat="49.60048" lon="3.43113">
        <ele>136</ele>
        <time>2025-10-05T11:57:37.000Z</time>
      </trkpt>
      <trkpt lat="49.60049" lon="3.43113">
        <ele>136</ele>
        <time>2025-10-05T11:57:38.000Z</time>
      </trkpt>
      <trkpt lat="49.6005" lon="3.43113">
        <ele>136.1</ele>
        <time>2025-10-05T11:57:39.000Z</time>
      </trkpt>
      <trkpt lat="49.60051" lon="3.43113">
        <ele>136.2</ele>
        <time>2025-10-05T11:57:40.000Z</time>
      </trkpt>
      <trkpt lat="49.60052" lon="3.43113">
        <ele>136.2</ele>
        <time>2025-10-05T11:57:41.000Z</time>
      </trkpt>
      <trkpt lat="49.60053" lon="3.43113">
        <ele>136.3</ele>
        <time>2025-10-05T11:57:42.000Z</time>
      </trkpt>
      <trkpt lat="49.60054" lon="3.43113">
        <ele>136.6</ele>
        <time>2025-10-05T11:57:43.000Z</time>
      </trkpt>
      <trkpt lat="49.60055" lon="3.43113">
        <ele>136.9</ele>
        <time>2025-10-05T11:57:44.000Z</time>
      </trkpt>
      <trkpt lat="49.60056" lon="3.43113">
        <ele>137</ele>
        <time>2025-10-05T11:57:45.000Z</time>
      </trkpt>
      <trkpt lat="49.60057" lon="3.43114">
        <ele>137.1</ele>
        <time>2025-10-05T11:57:46.000Z</time>
      </trkpt>
      <trkpt lat="49.60058" lon="3.43115">
        <ele>137.2</ele>
        <time>2025-10-05T11:57:47.000Z</time>
      </trkpt>
      <trkpt lat="49.60059" lon="3.43116">
        <ele>137.6</ele>
        <time>2025-10-05T11:57:48.000Z</time>
      </trkpt>
      <trkpt lat="49.6006" lon="3.43117">
        <ele>137.9</ele>
        <time>2025-10-05T11:57:49.000Z</time>
      </trkpt>
      <trkpt lat="49.60061" lon="3.43118">
        <ele>138.2</ele>
        <time>2025-10-05T11:57:50.000Z</time>
      </trkpt>
      <trkpt lat="49.60062" lon="3.43118">
        <ele>138.3</ele>
        <time>2025-10-05T11:57:51.000Z</time>
      </trkpt>
      <trkpt lat="49.60062" lon="3.43118">
        <ele>138.6</ele>
        <time>2025-10-05T11:57:52.000Z</time>
      </trkpt>
      <trkpt lat="49.60063" lon="3.43118">
        <ele>139</ele>
        <time>2025-10-05T11:57:53.000Z</time>
      </trkpt>
      <trkpt lat="49.60063" lon="3.43118">
        <ele>138.9</ele>
        <time>2025-10-05T11:57:54.000Z</time>
      </trkpt>
      <trkpt lat="49.60063" lon="3.43118">
        <ele>138.8</ele>
        <time>2025-10-05T11:57:55.000Z</time>
      </trkpt>
      <trkpt lat="49.60064" lon="3.43118">
        <ele>138.6</ele>
        <time>2025-10-05T11:57:56.000Z</time>
      </trkpt>
      <trkpt lat="49.60065" lon="3.43118">
        <ele>138.6</ele>
        <time>2025-10-05T11:57:57.000Z</time>
      </trkpt>
      <trkpt lat="49.60067" lon="3.43117">
        <ele>138.8</ele>
        <time>2025-10-05T11:57:58.000Z</time>
      </trkpt>
      <trkpt lat="49.60068" lon="3.43117">
        <ele>138.7</ele>
        <time>2025-10-05T11:57:59.000Z</time>
      </trkpt>
      <trkpt lat="49.60069" lon="3.43117">
        <ele>139</ele>
        <time>2025-10-05T11:58:00.000Z</time>
      </trkpt>
      <trkpt lat="49.60069" lon="3.43117">
        <ele>139.3</ele>
        <time>2025-10-05T11:58:01.000Z</time>
      </trkpt>
      <trkpt lat="49.60069" lon="3.43117">
        <ele>139.8</ele>
        <time>2025-10-05T11:58:02.000Z</time>
      </trkpt>
      <trkpt lat="49.60069" lon="3.43118">
        <ele>139.7</ele>
        <time>2025-10-05T11:58:03.000Z</time>
      </trkpt>
      <trkpt lat="49.60069" lon="3.43119">
        <ele>139.5</ele>
        <time>2025-10-05T11:58:04.000Z</time>
      </trkpt>
      <trkpt lat="49.60069" lon="3.43119">
        <ele>139.2</ele>
        <time>2025-10-05T11:58:05.000Z</time>
      </trkpt>
      <trkpt lat="49.60069" lon="3.43119">
        <ele>139.1</ele>
        <time>2025-10-05T11:58:06.000Z</time>
      </trkpt>
      <trkpt lat="49.60069" lon="3.43118">
        <ele>139</ele>
        <time>2025-10-05T11:58:07.000Z</time>
      </trkpt>
      <trkpt lat="49.60069" lon="3.43118">
        <ele>139.1</ele>
        <time>2025-10-05T11:58:08.000Z</time>
      </trkpt>
      <trkpt lat="49.60069" lon="3.43118">
        <ele>139.2</ele>
        <time>2025-10-05T11:58:09.000Z</time>
      </trkpt>
      <trkpt lat="49.60069" lon="3.43118">
        <ele>139.4</ele>
        <time>2025-10-05T11:58:10.000Z</time>
      </trkpt>
      <trkpt lat="49.6007" lon="3.43117">
        <ele>139.4</ele>
        <time>2025-10-05T11:58:11.000Z</time>
      </trkpt>
      <trkpt lat="49.60071" lon="3.43118">
        <ele>139.4</ele>
        <time>2025-10-05T11:58:12.000Z</time>
      </trkpt>
      <trkpt lat="49.60072" lon="3.43118">
        <ele>139.2</ele>
        <time>2025-10-05T11:58:13.000Z</time>
      </trkpt>
      <trkpt lat="49.60072" lon="3.43119">
        <ele>138.8</ele>
        <time>2025-10-05T11:58:14.000Z</time>
      </trkpt>
      <trkpt lat="49.60071" lon="3.43119">
        <ele>138.6</ele>
        <time>2025-10-05T11:58:15.000Z</time>
      </trkpt>
      <trkpt lat="49.60071" lon="3.43119">
        <ele>138.6</ele>
        <time>2025-10-05T11:58:16.000Z</time>
      </trkpt>
      <trkpt lat="49.60071" lon="3.43119">
        <ele>138.6</ele>
        <time>2025-10-05T11:58:17.000Z</time>
      </trkpt>
      <trkpt lat="49.60071" lon="3.43119">
        <ele>138.6</ele>
        <time>2025-10-05T11:58:18.000Z</time>
      </trkpt>
      <trkpt lat="49.60071" lon="3.43119">
        <ele>138.6</ele>
        <time>2025-10-05T11:58:19.000Z</time>
      </trkpt>
      <trkpt lat="49.60071" lon="3.43119">
        <ele>138.6</ele>
        <time>2025-10-05T11:58:20.000Z</time>
      </trkpt>
      <trkpt lat="49.60071" lon="3.43119">
        <ele>138.6</ele>
        <time>2025-10-05T11:58:21.000Z</time>
      </trkpt>
      <trkpt lat="49.60071" lon="3.43119">
        <ele>138.6</ele>
        <time>2025-10-05T11:58:22.000Z</time>
      </trkpt>
      <trkpt lat="49.60072" lon="3.43116">
        <ele>138.1</ele>
        <time>2025-10-05T11:58:23.000Z</time>
      </trkpt>
      <trkpt lat="49.60072" lon="3.43116">
        <ele>138.1</ele>
        <time>2025-10-05T11:58:24.000Z</time>
      </trkpt>
      <trkpt lat="49.60072" lon="3.43115">
        <ele>138.2</ele>
        <time>2025-10-05T11:58:25.000Z</time>
      </trkpt>
      <trkpt lat="49.60073" lon="3.43115">
        <ele>138.2</ele>
        <time>2025-10-05T11:58:26.000Z</time>
      </trkpt>
      <trkpt lat="49.60074" lon="3.43115">
        <ele>138.1</ele>
        <time>2025-10-05T11:58:27.000Z</time>
      </trkpt>
      <trkpt lat="49.60074" lon="3.43115">
        <ele>138.1</ele>
        <time>2025-10-05T11:58:28.000Z</time>
      </trkpt>
      <trkpt lat="49.60075" lon="3.43116">
        <ele>138</ele>
        <time>2025-10-05T11:58:29.000Z</time>
      </trkpt>
      <trkpt lat="49.60076" lon="3.43116">
        <ele>137.6</ele>
        <time>2025-10-05T11:58:30.000Z</time>
      </trkpt>
      <trkpt lat="49.60077" lon="3.43117">
        <ele>137.4</ele>
        <time>2025-10-05T11:58:31.000Z</time>
      </trkpt>
      <trkpt lat="49.60078" lon="3.43117">
        <ele>137.4</ele>
        <time>2025-10-05T11:58:32.000Z</time>
      </trkpt>
      <trkpt lat="49.60078" lon="3.43117">
        <ele>137.3</ele>
        <time>2025-10-05T11:58:33.000Z</time>
      </trkpt>
      <trkpt lat="49.60079" lon="3.43117">
        <ele>137.1</ele>
        <time>2025-10-05T11:58:34.000Z</time>
      </trkpt>
      <trkpt lat="49.60079" lon="3.43116">
        <ele>136.8</ele>
        <time>2025-10-05T11:58:35.000Z</time>
      </trkpt>
      <trkpt lat="49.6008" lon="3.43116">
        <ele>136.6</ele>
        <time>2025-10-05T11:58:36.000Z</time>
      </trkpt>
      <trkpt lat="49.60081" lon="3.43116">
        <ele>136.5</ele>
        <time>2025-10-05T11:58:37.000Z</time>
      </trkpt>
      <trkpt lat="49.60081" lon="3.43116">
        <ele>136.5</ele>
        <time>2025-10-05T11:58:38.000Z</time>
      </trkpt>
      <trkpt lat="49.60082" lon="3.43116">
        <ele>136.5</ele>
        <time>2025-10-05T11:58:39.000Z</time>
      </trkpt>
      <trkpt lat="49.60083" lon="3.43116">
        <ele>136.4</ele>
        <time>2025-10-05T11:58:40.000Z</time>
      </trkpt>
      <trkpt lat="49.60084" lon="3.43115">
        <ele>136.4</ele>
        <time>2025-10-05T11:58:41.000Z</time>
      </trkpt>
      <trkpt lat="49.60085" lon="3.43115">
        <ele>136.2</ele>
        <time>2025-10-05T11:58:42.000Z</time>
      </trkpt>
      <trkpt lat="49.60085" lon="3.43114">
        <ele>136.2</ele>
        <time>2025-10-05T11:58:43.000Z</time>
      </trkpt>
      <trkpt lat="49.60086" lon="3.43114">
        <ele>135.9</ele>
        <time>2025-10-05T11:58:44.000Z</time>
      </trkpt>
      <trkpt lat="49.60086" lon="3.43113">
        <ele>135.7</ele>
        <time>2025-10-05T11:58:45.000Z</time>
      </trkpt>
      <trkpt lat="49.60086" lon="3.43112">
        <ele>135.4</ele>
        <time>2025-10-05T11:58:46.000Z</time>
      </trkpt>
      <trkpt lat="49.60086" lon="3.43112">
        <ele>135.1</ele>
        <time>2025-10-05T11:58:47.000Z</time>
      </trkpt>
      <trkpt lat="49.60086" lon="3.43112">
        <ele>135</ele>
        <time>2025-10-05T11:58:48.000Z</time>
      </trkpt>
      <trkpt lat="49.60087" lon="3.43111">
        <ele>135.2</ele>
        <time>2025-10-05T11:58:49.000Z</time>
      </trkpt>
      <trkpt lat="49.60088" lon="3.43111">
        <ele>135.4</ele>
        <time>2025-10-05T11:58:50.000Z</time>
      </trkpt>
      <trkpt lat="49.60089" lon="3.4311">
        <ele>135.2</ele>
        <time>2025-10-05T11:58:51.000Z</time>
      </trkpt>
      <trkpt lat="49.60089" lon="3.43109">
        <ele>135</ele>
        <time>2025-10-05T11:58:52.000Z</time>
      </trkpt>
      <trkpt lat="49.60089" lon="3.43109">
        <ele>134.7</ele>
        <time>2025-10-05T11:58:53.000Z</time>
      </trkpt>
      <trkpt lat="49.60089" lon="3.43108">
        <ele>134.5</ele>
        <time>2025-10-05T11:58:54.000Z</time>
      </trkpt>
      <trkpt lat="49.6009" lon="3.43108">
        <ele>134.2</ele>
        <time>2025-10-05T11:58:55.000Z</time>
      </trkpt>
      <trkpt lat="49.6009" lon="3.43108">
        <ele>133.8</ele>
        <time>2025-10-05T11:58:56.000Z</time>
      </trkpt>
      <trkpt lat="49.60091" lon="3.43108">
        <ele>133.7</ele>
        <time>2025-10-05T11:58:57.000Z</time>
      </trkpt>
      <trkpt lat="49.60092" lon="3.43109">
        <ele>133.3</ele>
        <time>2025-10-05T11:58:58.000Z</time>
      </trkpt>
      <trkpt lat="49.60093" lon="3.43109">
        <ele>133</ele>
        <time>2025-10-05T11:58:59.000Z</time>
      </trkpt>
      <trkpt lat="49.60094" lon="3.43108">
        <ele>132.8</ele>
        <time>2025-10-05T11:59:00.000Z</time>
      </trkpt>
      <trkpt lat="49.60094" lon="3.43108">
        <ele>132.6</ele>
        <time>2025-10-05T11:59:01.000Z</time>
      </trkpt>
      <trkpt lat="49.60095" lon="3.43108">
        <ele>132.4</ele>
        <time>2025-10-05T11:59:02.000Z</time>
      </trkpt>
      <trkpt lat="49.60095" lon="3.43108">
        <ele>132.2</ele>
        <time>2025-10-05T11:59:03.000Z</time>
      </trkpt>
      <trkpt lat="49.60096" lon="3.43108">
        <ele>132</ele>
        <time>2025-10-05T11:59:04.000Z</time>
      </trkpt>
      <trkpt lat="49.60097" lon="3.43108">
        <ele>131.8</ele>
        <time>2025-10-05T11:59:05.000Z</time>
      </trkpt>
      <trkpt lat="49.60098" lon="3.43108">
        <ele>131.5</ele>
        <time>2025-10-05T11:59:06.000Z</time>
      </trkpt>
      <trkpt lat="49.60099" lon="3.43108">
        <ele>131.3</ele>
        <time>2025-10-05T11:59:07.000Z</time>
      </trkpt>
      <trkpt lat="49.601" lon="3.43108">
        <ele>131.1</ele>
        <time>2025-10-05T11:59:08.000Z</time>
      </trkpt>
      <trkpt lat="49.60101" lon="3.43109">
        <ele>130.8</ele>
        <time>2025-10-05T11:59:09.000Z</time>
      </trkpt>
      <trkpt lat="49.60102" lon="3.43109">
        <ele>130.4</ele>
        <time>2025-10-05T11:59:10.000Z</time>
      </trkpt>
      <trkpt lat="49.60103" lon="3.43109">
        <ele>130.4</ele>
        <time>2025-10-05T11:59:11.000Z</time>
      </trkpt>
      <trkpt lat="49.60104" lon="3.43109">
        <ele>130.3</ele>
        <time>2025-10-05T11:59:12.000Z</time>
      </trkpt>
      <trkpt lat="49.60105" lon="3.43109">
        <ele>130.2</ele>
        <time>2025-10-05T11:59:13.000Z</time>
      </trkpt>
      <trkpt lat="49.60106" lon="3.43109">
        <ele>130.1</ele>
        <time>2025-10-05T11:59:14.000Z</time>
      </trkpt>
      <trkpt lat="49.60107" lon="3.43109">
        <ele>130.1</ele>
        <time>2025-10-05T11:59:15.000Z</time>
      </trkpt>
      <trkpt lat="49.60108" lon="3.43109">
        <ele>129.9</ele>
        <time>2025-10-05T11:59:16.000Z</time>
      </trkpt>
      <trkpt lat="49.60108" lon="3.43109">
        <ele>129.8</ele>
        <time>2025-10-05T11:59:17.000Z</time>
      </trkpt>
      <trkpt lat="49.60109" lon="3.43109">
        <ele>129.9</ele>
        <time>2025-10-05T11:59:18.000Z</time>
      </trkpt>
      <trkpt lat="49.6011" lon="3.43108">
        <ele>130.2</ele>
        <time>2025-10-05T11:59:19.000Z</time>
      </trkpt>
      <trkpt lat="49.60111" lon="3.43108">
        <ele>130.3</ele>
        <time>2025-10-05T11:59:20.000Z</time>
      </trkpt>
      <trkpt lat="49.60112" lon="3.43107">
        <ele>130.3</ele>
        <time>2025-10-05T11:59:21.000Z</time>
      </trkpt>
      <trkpt lat="49.60114" lon="3.43107">
        <ele>130.2</ele>
        <time>2025-10-05T11:59:22.000Z</time>
      </trkpt>
      <trkpt lat="49.60115" lon="3.43107">
        <ele>130.2</ele>
        <time>2025-10-05T11:59:23.000Z</time>
      </trkpt>
      <trkpt lat="49.60116" lon="3.43107">
        <ele>130.2</ele>
        <time>2025-10-05T11:59:24.000Z</time>
      </trkpt>
      <trkpt lat="49.60117" lon="3.43108">
        <ele>130.1</ele>
        <time>2025-10-05T11:59:25.000Z</time>
      </trkpt>
      <trkpt lat="49.60118" lon="3.43108">
        <ele>130</ele>
        <time>2025-10-05T11:59:26.000Z</time>
      </trkpt>
      <trkpt lat="49.60119" lon="3.43108">
        <ele>129.9</ele>
        <time>2025-10-05T11:59:27.000Z</time>
      </trkpt>
      <trkpt lat="49.6012" lon="3.43108">
        <ele>129.7</ele>
        <time>2025-10-05T11:59:28.000Z</time>
      </trkpt>
      <trkpt lat="49.60121" lon="3.43109">
        <ele>129.5</ele>
        <time>2025-10-05T11:59:29.000Z</time>
      </trkpt>
      <trkpt lat="49.60122" lon="3.4311">
        <ele>129.6</ele>
        <time>2025-10-05T11:59:30.000Z</time>
      </trkpt>
      <trkpt lat="49.60123" lon="3.4311">
        <ele>129.4</ele>
        <time>2025-10-05T11:59:31.000Z</time>
      </trkpt>
      <trkpt lat="49.60123" lon="3.4311">
        <ele>129</ele>
        <time>2025-10-05T11:59:32.000Z</time>
      </trkpt>
      <trkpt lat="49.60124" lon="3.43109">
        <ele>128.8</ele>
        <time>2025-10-05T11:59:33.000Z</time>
      </trkpt>
      <trkpt lat="49.60124" lon="3.4311">
        <ele>128.6</ele>
        <time>2025-10-05T11:59:34.000Z</time>
      </trkpt>
      <trkpt lat="49.60125" lon="3.4311">
        <ele>128.6</ele>
        <time>2025-10-05T11:59:35.000Z</time>
      </trkpt>
      <trkpt lat="49.60126" lon="3.4311">
        <ele>128.6</ele>
        <time>2025-10-05T11:59:36.000Z</time>
      </trkpt>
      <trkpt lat="49.60126" lon="3.43109">
        <ele>128.5</ele>
        <time>2025-10-05T11:59:37.000Z</time>
      </trkpt>
      <trkpt lat="49.60127" lon="3.43109">
        <ele>128.4</ele>
        <time>2025-10-05T11:59:38.000Z</time>
      </trkpt>
      <trkpt lat="49.60128" lon="3.43108">
        <ele>128.6</ele>
        <time>2025-10-05T11:59:39.000Z</time>
      </trkpt>
      <trkpt lat="49.60129" lon="3.43107">
        <ele>128.6</ele>
        <time>2025-10-05T11:59:40.000Z</time>
      </trkpt>
      <trkpt lat="49.6013" lon="3.43107">
        <ele>128.8</ele>
        <time>2025-10-05T11:59:41.000Z</time>
      </trkpt>
      <trkpt lat="49.60131" lon="3.43107">
        <ele>129</ele>
        <time>2025-10-05T11:59:42.000Z</time>
      </trkpt>
      <trkpt lat="49.60132" lon="3.43107">
        <ele>129.1</ele>
        <time>2025-10-05T11:59:43.000Z</time>
      </trkpt>
      <trkpt lat="49.60133" lon="3.43108">
        <ele>128.9</ele>
        <time>2025-10-05T11:59:44.000Z</time>
      </trkpt>
      <trkpt lat="49.60133" lon="3.43107">
        <ele>129</ele>
        <time>2025-10-05T11:59:45.000Z</time>
      </trkpt>
      <trkpt lat="49.60134" lon="3.43108">
        <ele>129.2</ele>
        <time>2025-10-05T11:59:46.000Z</time>
      </trkpt>
      <trkpt lat="49.60136" lon="3.43107">
        <ele>129.4</ele>
        <time>2025-10-05T11:59:47.000Z</time>
      </trkpt>
      <trkpt lat="49.60137" lon="3.43106">
        <ele>129.7</ele>
        <time>2025-10-05T11:59:48.000Z</time>
      </trkpt>
      <trkpt lat="49.60137" lon="3.43105">
        <ele>130</ele>
        <time>2025-10-05T11:59:49.000Z</time>
      </trkpt>
      <trkpt lat="49.60138" lon="3.43105">
        <ele>130.2</ele>
        <time>2025-10-05T11:59:50.000Z</time>
      </trkpt>
      <trkpt lat="49.60138" lon="3.43105">
        <ele>130.2</ele>
        <time>2025-10-05T11:59:51.000Z</time>
      </trkpt>
      <trkpt lat="49.60139" lon="3.43104">
        <ele>130.1</ele>
        <time>2025-10-05T11:59:52.000Z</time>
      </trkpt>
      <trkpt lat="49.60139" lon="3.43104">
        <ele>130</ele>
        <time>2025-10-05T11:59:53.000Z</time>
      </trkpt>
      <trkpt lat="49.6014" lon="3.43104">
        <ele>129.7</ele>
        <time>2025-10-05T11:59:54.000Z</time>
      </trkpt>
      <trkpt lat="49.6014" lon="3.43104">
        <ele>129.3</ele>
        <time>2025-10-05T11:59:55.000Z</time>
      </trkpt>
      <trkpt lat="49.6014" lon="3.43104">
        <ele>129.2</ele>
        <time>2025-10-05T11:59:56.000Z</time>
      </trkpt>
      <trkpt lat="49.60141" lon="3.43104">
        <ele>129.2</ele>
        <time>2025-10-05T11:59:57.000Z</time>
      </trkpt>
      <trkpt lat="49.60142" lon="3.43103">
        <ele>129.2</ele>
        <time>2025-10-05T11:59:58.000Z</time>
      </trkpt>
      <trkpt lat="49.60142" lon="3.43102">
        <ele>129.3</ele>
        <time>2025-10-05T11:59:59.000Z</time>
      </trkpt>
      <trkpt lat="49.60144" lon="3.43101">
        <ele>129.5</ele>
        <time>2025-10-05T12:00:00.000Z</time>
      </trkpt>
      <trkpt lat="49.60144" lon="3.43101">
        <ele>129.2</ele>
        <time>2025-10-05T12:00:01.000Z</time>
      </trkpt>
      <trkpt lat="49.60145" lon="3.43101">
        <ele>129</ele>
        <time>2025-10-05T12:00:02.000Z</time>
      </trkpt>
      <trkpt lat="49.60146" lon="3.43101">
        <ele>128.7</ele>
        <time>2025-10-05T12:00:03.000Z</time>
      </trkpt>
      <trkpt lat="49.60146" lon="3.43101">
        <ele>128.3</ele>
        <time>2025-10-05T12:00:04.000Z</time>
      </trkpt>
      <trkpt lat="49.60147" lon="3.431">
        <ele>127.8</ele>
        <time>2025-10-05T12:00:05.000Z</time>
      </trkpt>
      <trkpt lat="49.60147" lon="3.431">
        <ele>127.3</ele>
        <time>2025-10-05T12:00:06.000Z</time>
      </trkpt>
      <trkpt lat="49.60148" lon="3.431">
        <ele>126.8</ele>
        <time>2025-10-05T12:00:07.000Z</time>
      </trkpt>
      <trkpt lat="49.60149" lon="3.431">
        <ele>126.3</ele>
        <time>2025-10-05T12:00:08.000Z</time>
      </trkpt>
      <trkpt lat="49.6015" lon="3.431">
        <ele>126</ele>
        <time>2025-10-05T12:00:09.000Z</time>
      </trkpt>
      <trkpt lat="49.6015" lon="3.431">
        <ele>125.7</ele>
        <time>2025-10-05T12:00:10.000Z</time>
      </trkpt>
      <trkpt lat="49.60151" lon="3.431">
        <ele>125.3</ele>
        <time>2025-10-05T12:00:11.000Z</time>
      </trkpt>
      <trkpt lat="49.60151" lon="3.431">
        <ele>124.9</ele>
        <time>2025-10-05T12:00:12.000Z</time>
      </trkpt>
      <trkpt lat="49.60153" lon="3.431">
        <ele>124.8</ele>
        <time>2025-10-05T12:00:13.000Z</time>
      </trkpt>
      <trkpt lat="49.60154" lon="3.431">
        <ele>124.6</ele>
        <time>2025-10-05T12:00:14.000Z</time>
      </trkpt>
      <trkpt lat="49.60155" lon="3.43101">
        <ele>124.5</ele>
        <time>2025-10-05T12:00:15.000Z</time>
      </trkpt>
      <trkpt lat="49.60156" lon="3.43101">
        <ele>124.5</ele>
        <time>2025-10-05T12:00:16.000Z</time>
      </trkpt>
      <trkpt lat="49.60157" lon="3.43102">
        <ele>124.4</ele>
        <time>2025-10-05T12:00:17.000Z</time>
      </trkpt>
      <trkpt lat="49.60158" lon="3.43103">
        <ele>124.5</ele>
        <time>2025-10-05T12:00:18.000Z</time>
      </trkpt>
      <trkpt lat="49.60159" lon="3.43103">
        <ele>124.7</ele>
        <time>2025-10-05T12:00:19.000Z</time>
      </trkpt>
      <trkpt lat="49.60161" lon="3.43103">
        <ele>124.5</ele>
        <time>2025-10-05T12:00:20.000Z</time>
      </trkpt>
      <trkpt lat="49.60161" lon="3.43103">
        <ele>124.8</ele>
        <time>2025-10-05T12:00:21.000Z</time>
      </trkpt>
      <trkpt lat="49.60161" lon="3.43102">
        <ele>125</ele>
        <time>2025-10-05T12:00:22.000Z</time>
      </trkpt>
      <trkpt lat="49.60162" lon="3.43102">
        <ele>125.1</ele>
        <time>2025-10-05T12:00:23.000Z</time>
      </trkpt>
      <trkpt lat="49.60163" lon="3.43102">
        <ele>125.2</ele>
        <time>2025-10-05T12:00:24.000Z</time>
      </trkpt>
      <trkpt lat="49.60163" lon="3.43102">
        <ele>125.5</ele>
        <time>2025-10-05T12:00:25.000Z</time>
      </trkpt>
      <trkpt lat="49.60164" lon="3.43101">
        <ele>125.8</ele>
        <time>2025-10-05T12:00:26.000Z</time>
      </trkpt>
      <trkpt lat="49.60165" lon="3.43102">
        <ele>126.1</ele>
        <time>2025-10-05T12:00:27.000Z</time>
      </trkpt>
      <trkpt lat="49.60165" lon="3.43103">
        <ele>126.1</ele>
        <time>2025-10-05T12:00:28.000Z</time>
      </trkpt>
      <trkpt lat="49.60166" lon="3.43104">
        <ele>126.1</ele>
        <time>2025-10-05T12:00:29.000Z</time>
      </trkpt>
      <trkpt lat="49.60167" lon="3.43106">
        <ele>126.2</ele>
        <time>2025-10-05T12:00:30.000Z</time>
      </trkpt>
      <trkpt lat="49.60167" lon="3.43108">
        <ele>125.9</ele>
        <time>2025-10-05T12:00:31.000Z</time>
      </trkpt>
      <trkpt lat="49.60167" lon="3.43109">
        <ele>125.9</ele>
        <time>2025-10-05T12:00:32.000Z</time>
      </trkpt>
      <trkpt lat="49.60166" lon="3.43109">
        <ele>125.9</ele>
        <time>2025-10-05T12:00:33.000Z</time>
      </trkpt>
      <trkpt lat="49.60166" lon="3.43109">
        <ele>126</ele>
        <time>2025-10-05T12:00:34.000Z</time>
      </trkpt>
      <trkpt lat="49.60166" lon="3.4311">
        <ele>126</ele>
        <time>2025-10-05T12:00:35.000Z</time>
      </trkpt>
      <trkpt lat="49.60165" lon="3.4311">
        <ele>126.1</ele>
        <time>2025-10-05T12:00:36.000Z</time>
      </trkpt>
      <trkpt lat="49.60165" lon="3.4311">
        <ele>126.1</ele>
        <time>2025-10-05T12:00:37.000Z</time>
      </trkpt>
      <trkpt lat="49.60165" lon="3.4311">
        <ele>126.1</ele>
        <time>2025-10-05T12:00:38.000Z</time>
      </trkpt>
      <trkpt lat="49.60165" lon="3.4311">
        <ele>126.1</ele>
        <time>2025-10-05T12:00:39.000Z</time>
      </trkpt>
      <trkpt lat="49.60165" lon="3.4311">
        <ele>126.1</ele>
        <time>2025-10-05T12:00:40.000Z</time>
      </trkpt>
      <trkpt lat="49.60165" lon="3.4311">
        <ele>126.1</ele>
        <time>2025-10-05T12:00:41.000Z</time>
      </trkpt>
      <trkpt lat="49.60165" lon="3.4311">
        <ele>126.1</ele>
        <time>2025-10-05T12:00:42.000Z</time>
      </trkpt>
      <trkpt lat="49.60165" lon="3.4311">
        <ele>126.1</ele>
        <time>2025-10-05T12:00:43.000Z</time>
      </trkpt>
      <trkpt lat="49.60165" lon="3.43112">
        <ele>125.5</ele>
        <time>2025-10-05T12:00:44.000Z</time>
      </trkpt>
      <trkpt lat="49.60166" lon="3.43113">
        <ele>125.6</ele>
        <time>2025-10-05T12:00:45.000Z</time>
      </trkpt>
      <trkpt lat="49.60166" lon="3.43114">
        <ele>125.7</ele>
        <time>2025-10-05T12:00:46.000Z</time>
      </trkpt>
      <trkpt lat="49.60167" lon="3.43115">
        <ele>125.9</ele>
        <time>2025-10-05T12:00:47.000Z</time>
      </trkpt>
      <trkpt lat="49.60167" lon="3.43117">
        <ele>125.9</ele>
        <time>2025-10-05T12:00:48.000Z</time>
      </trkpt>
      <trkpt lat="49.60168" lon="3.43119">
        <ele>126</ele>
        <time>2025-10-05T12:00:49.000Z</time>
      </trkpt>
      <trkpt lat="49.60169" lon="3.43119">
        <ele>126.4</ele>
        <time>2025-10-05T12:00:50.000Z</time>
      </trkpt>
      <trkpt lat="49.6017" lon="3.4312">
        <ele>126.7</ele>
        <time>2025-10-05T12:00:51.000Z</time>
      </trkpt>
      <trkpt lat="49.6017" lon="3.43121">
        <ele>127.1</ele>
        <time>2025-10-05T12:00:52.000Z</time>
      </trkpt>
      <trkpt lat="49.6017" lon="3.43122">
        <ele>127.6</ele>
        <time>2025-10-05T12:00:53.000Z</time>
      </trkpt>
      <trkpt lat="49.6017" lon="3.43122">
        <ele>128.2</ele>
        <time>2025-10-05T12:00:54.000Z</time>
      </trkpt>
      <trkpt lat="49.60169" lon="3.43123">
        <ele>128.6</ele>
        <time>2025-10-05T12:00:55.000Z</time>
      </trkpt>
      <trkpt lat="49.60169" lon="3.43124">
        <ele>129</ele>
        <time>2025-10-05T12:00:56.000Z</time>
      </trkpt>
      <trkpt lat="49.60169" lon="3.43124">
        <ele>129.3</ele>
        <time>2025-10-05T12:00:57.000Z</time>
      </trkpt>
      <trkpt lat="49.60169" lon="3.43124">
        <ele>129.4</ele>
        <time>2025-10-05T12:00:58.000Z</time>
      </trkpt>
      <trkpt lat="49.60168" lon="3.43124">
        <ele>129.6</ele>
        <time>2025-10-05T12:00:59.000Z</time>
      </trkpt>
      <trkpt lat="49.60168" lon="3.43124">
        <ele>129.8</ele>
        <time>2025-10-05T12:01:00.000Z</time>
      </trkpt>
      <trkpt lat="49.60168" lon="3.43124">
        <ele>129.8</ele>
        <time>2025-10-05T12:01:01.000Z</time>
      </trkpt>
      <trkpt lat="49.60168" lon="3.43124">
        <ele>129.8</ele>
        <time>2025-10-05T12:01:02.000Z</time>
      </trkpt>
      <trkpt lat="49.60168" lon="3.43124">
        <ele>129.8</ele>
        <time>2025-10-05T12:01:03.000Z</time>
      </trkpt>
      <trkpt lat="49.60168" lon="3.43124">
        <ele>129.8</ele>
        <time>2025-10-05T12:01:04.000Z</time>
      </trkpt>
      <trkpt lat="49.60168" lon="3.43124">
        <ele>129.8</ele>
        <time>2025-10-05T12:01:05.000Z</time>
      </trkpt>
      <trkpt lat="49.60168" lon="3.43124">
        <ele>129.8</ele>
        <time>2025-10-05T12:01:06.000Z</time>
      </trkpt>
      <trkpt lat="49.60168" lon="3.43124">
        <ele>129.8</ele>
        <time>2025-10-05T12:01:07.000Z</time>
      </trkpt>
      <trkpt lat="49.60168" lon="3.43124">
        <ele>129.8</ele>
        <time>2025-10-05T12:01:08.000Z</time>
      </trkpt>
      <trkpt lat="49.60168" lon="3.43124">
        <ele>129.8</ele>
        <time>2025-10-05T12:01:09.000Z</time>
      </trkpt>
      <trkpt lat="49.60168" lon="3.43124">
        <ele>129.8</ele>
        <time>2025-10-05T12:01:10.000Z</time>
      </trkpt>
      <trkpt lat="49.60168" lon="3.43124">
        <ele>129.8</ele>
        <time>2025-10-05T12:01:11.000Z</time>
      </trkpt>
      <trkpt lat="49.60168" lon="3.43124">
        <ele>129.8</ele>
        <time>2025-10-05T12:01:12.000Z</time>
      </trkpt>
      <trkpt lat="49.60168" lon="3.43124">
        <ele>129.8</ele>
        <time>2025-10-05T12:01:13.000Z</time>
      </trkpt>
      <trkpt lat="49.60168" lon="3.43124">
        <ele>129.8</ele>
        <time>2025-10-05T12:01:14.000Z</time>
      </trkpt>
      <trkpt lat="49.60168" lon="3.43124">
        <ele>129.8</ele>
        <time>2025-10-05T12:01:15.000Z</time>
      </trkpt>
      <trkpt lat="49.60168" lon="3.43124">
        <ele>129.8</ele>
        <time>2025-10-05T12:01:16.000Z</time>
      </trkpt>
      <trkpt lat="49.60168" lon="3.43124">
        <ele>129.8</ele>
        <time>2025-10-05T12:01:17.000Z</time>
      </trkpt>
      <trkpt lat="49.60168" lon="3.43124">
        <ele>129.8</ele>
        <time>2025-10-05T12:01:18.000Z</time>
      </trkpt>
      <trkpt lat="49.60168" lon="3.43124">
        <ele>129.8</ele>
        <time>2025-10-05T12:01:19.000Z</time>
      </trkpt>
      <trkpt lat="49.60168" lon="3.43124">
        <ele>129.8</ele>
        <time>2025-10-05T12:01:20.000Z</time>
      </trkpt>
      <trkpt lat="49.60168" lon="3.43124">
        <ele>129.8</ele>
        <time>2025-10-05T12:01:21.000Z</time>
      </trkpt>
      <trkpt lat="49.60168" lon="3.43124">
        <ele>129.8</ele>
        <time>2025-10-05T12:01:22.000Z</time>
      </trkpt>
      <trkpt lat="49.60168" lon="3.43124">
        <ele>129.8</ele>
        <time>2025-10-05T12:01:23.000Z</time>
      </trkpt>
      <trkpt lat="49.60168" lon="3.43124">
        <ele>129.8</ele>
        <time>2025-10-05T12:01:24.000Z</time>
      </trkpt>
      <trkpt lat="49.60168" lon="3.43124">
        <ele>129.8</ele>
        <time>2025-10-05T12:01:25.000Z</time>
      </trkpt>
      <trkpt lat="49.60168" lon="3.43124">
        <ele>129.8</ele>
        <time>2025-10-05T12:01:26.000Z</time>
      </trkpt>
      <trkpt lat="49.60168" lon="3.43124">
        <ele>129.8</ele>
        <time>2025-10-05T12:01:27.000Z</time>
      </trkpt>
      <trkpt lat="49.60168" lon="3.43124">
        <ele>129.8</ele>
        <time>2025-10-05T12:01:28.000Z</time>
      </trkpt>
      <trkpt lat="49.60168" lon="3.43124">
        <ele>129.8</ele>
        <time>2025-10-05T12:01:29.000Z</time>
      </trkpt>
      <trkpt lat="49.60168" lon="3.43124">
        <ele>129.8</ele>
        <time>2025-10-05T12:01:30.000Z</time>
      </trkpt>
      <trkpt lat="49.60168" lon="3.43124">
        <ele>129.8</ele>
        <time>2025-10-05T12:01:31.000Z</time>
      </trkpt>
      <trkpt lat="49.60168" lon="3.43124">
        <ele>129.8</ele>
        <time>2025-10-05T12:01:32.000Z</time>
      </trkpt>
      <trkpt lat="49.60168" lon="3.43124">
        <ele>129.8</ele>
        <time>2025-10-05T12:01:33.000Z</time>
      </trkpt>
      <trkpt lat="49.60168" lon="3.43124">
        <ele>129.8</ele>
        <time>2025-10-05T12:01:34.000Z</time>
      </trkpt>
      <trkpt lat="49.60167" lon="3.43128">
        <ele>135.9</ele>
        <time>2025-10-05T12:01:35.000Z</time>
      </trkpt>
      <trkpt lat="49.60168" lon="3.43128">
        <ele>135.7</ele>
        <time>2025-10-05T12:01:36.000Z</time>
      </trkpt>
      <trkpt lat="49.60169" lon="3.43129">
        <ele>135.6</ele>
        <time>2025-10-05T12:01:37.000Z</time>
      </trkpt>
      <trkpt lat="49.6017" lon="3.4313">
        <ele>135.7</ele>
        <time>2025-10-05T12:01:38.000Z</time>
      </trkpt>
      <trkpt lat="49.60171" lon="3.43131">
        <ele>135.8</ele>
        <time>2025-10-05T12:01:39.000Z</time>
      </trkpt>
      <trkpt lat="49.60171" lon="3.43132">
        <ele>135.8</ele>
        <time>2025-10-05T12:01:40.000Z</time>
      </trkpt>
      <trkpt lat="49.60172" lon="3.43134">
        <ele>135.9</ele>
        <time>2025-10-05T12:01:41.000Z</time>
      </trkpt>
      <trkpt lat="49.60174" lon="3.43135">
        <ele>135.8</ele>
        <time>2025-10-05T12:01:42.000Z</time>
      </trkpt>
      <trkpt lat="49.60175" lon="3.43136">
        <ele>135.7</ele>
        <time>2025-10-05T12:01:43.000Z</time>
      </trkpt>
      <trkpt lat="49.60176" lon="3.43137">
        <ele>135.6</ele>
        <time>2025-10-05T12:01:44.000Z</time>
      </trkpt>
      <trkpt lat="49.60177" lon="3.43138">
        <ele>135.6</ele>
        <time>2025-10-05T12:01:45.000Z</time>
      </trkpt>
      <trkpt lat="49.60178" lon="3.4314">
        <ele>135.6</ele>
        <time>2025-10-05T12:01:46.000Z</time>
      </trkpt>
      <trkpt lat="49.60178" lon="3.43141">
        <ele>135.5</ele>
        <time>2025-10-05T12:01:47.000Z</time>
      </trkpt>
      <trkpt lat="49.60179" lon="3.43142">
        <ele>135.4</ele>
        <time>2025-10-05T12:01:48.000Z</time>
      </trkpt>
      <trkpt lat="49.60179" lon="3.43142">
        <ele>135.4</ele>
        <time>2025-10-05T12:01:49.000Z</time>
      </trkpt>
      <trkpt lat="49.60179" lon="3.43143">
        <ele>135</ele>
        <time>2025-10-05T12:01:50.000Z</time>
      </trkpt>
      <trkpt lat="49.60179" lon="3.43143">
        <ele>134.8</ele>
        <time>2025-10-05T12:01:51.000Z</time>
      </trkpt>
      <trkpt lat="49.60178" lon="3.43144">
        <ele>134.3</ele>
        <time>2025-10-05T12:01:52.000Z</time>
      </trkpt>
      <trkpt lat="49.60178" lon="3.43145">
        <ele>133.9</ele>
        <time>2025-10-05T12:01:53.000Z</time>
      </trkpt>
      <trkpt lat="49.60178" lon="3.43146">
        <ele>133.6</ele>
        <time>2025-10-05T12:01:54.000Z</time>
      </trkpt>
      <trkpt lat="49.60178" lon="3.43148">
        <ele>133.3</ele>
        <time>2025-10-05T12:01:55.000Z</time>
      </trkpt>
      <trkpt lat="49.60179" lon="3.43149">
        <ele>133.3</ele>
        <time>2025-10-05T12:01:56.000Z</time>
      </trkpt>
      <trkpt lat="49.60179" lon="3.43151">
        <ele>133.4</ele>
        <time>2025-10-05T12:01:57.000Z</time>
      </trkpt>
      <trkpt lat="49.60179" lon="3.43153">
        <ele>133.5</ele>
        <time>2025-10-05T12:01:58.000Z</time>
      </trkpt>
      <trkpt lat="49.6018" lon="3.43155">
        <ele>133.5</ele>
        <time>2025-10-05T12:01:59.000Z</time>
      </trkpt>
      <trkpt lat="49.6018" lon="3.43156">
        <ele>133.6</ele>
        <time>2025-10-05T12:02:00.000Z</time>
      </trkpt>
      <trkpt lat="49.60179" lon="3.43158">
        <ele>133.2</ele>
        <time>2025-10-05T12:02:01.000Z</time>
      </trkpt>
      <trkpt lat="49.60179" lon="3.43159">
        <ele>133</ele>
        <time>2025-10-05T12:02:02.000Z</time>
      </trkpt>
      <trkpt lat="49.60178" lon="3.4316">
        <ele>132.6</ele>
        <time>2025-10-05T12:02:03.000Z</time>
      </trkpt>
      <trkpt lat="49.60177" lon="3.43161">
        <ele>132.6</ele>
        <time>2025-10-05T12:02:04.000Z</time>
      </trkpt>
      <trkpt lat="49.60177" lon="3.43162">
        <ele>132.6</ele>
        <time>2025-10-05T12:02:05.000Z</time>
      </trkpt>
      <trkpt lat="49.60177" lon="3.43163">
        <ele>132.4</ele>
        <time>2025-10-05T12:02:06.000Z</time>
      </trkpt>
      <trkpt lat="49.60178" lon="3.43164">
        <ele>132.4</ele>
        <time>2025-10-05T12:02:07.000Z</time>
      </trkpt>
      <trkpt lat="49.60178" lon="3.43166">
        <ele>132.4</ele>
        <time>2025-10-05T12:02:08.000Z</time>
      </trkpt>
      <trkpt lat="49.60179" lon="3.43167">
        <ele>132.3</ele>
        <time>2025-10-05T12:02:09.000Z</time>
      </trkpt>
      <trkpt lat="49.60179" lon="3.43168">
        <ele>132.1</ele>
        <time>2025-10-05T12:02:10.000Z</time>
      </trkpt>
      <trkpt lat="49.60179" lon="3.43169">
        <ele>132.1</ele>
        <time>2025-10-05T12:02:11.000Z</time>
      </trkpt>
      <trkpt lat="49.60179" lon="3.4317">
        <ele>132</ele>
        <time>2025-10-05T12:02:12.000Z</time>
      </trkpt>
      <trkpt lat="49.60179" lon="3.43171">
        <ele>132</ele>
        <time>2025-10-05T12:02:13.000Z</time>
      </trkpt>
      <trkpt lat="49.6018" lon="3.43172">
        <ele>132</ele>
        <time>2025-10-05T12:02:14.000Z</time>
      </trkpt>
      <trkpt lat="49.6018" lon="3.43173">
        <ele>131.9</ele>
        <time>2025-10-05T12:02:15.000Z</time>
      </trkpt>
      <trkpt lat="49.6018" lon="3.43175">
        <ele>131.9</ele>
        <time>2025-10-05T12:02:16.000Z</time>
      </trkpt>
      <trkpt lat="49.60181" lon="3.43176">
        <ele>131.6</ele>
        <time>2025-10-05T12:02:17.000Z</time>
      </trkpt>
      <trkpt lat="49.60181" lon="3.43177">
        <ele>131.6</ele>
        <time>2025-10-05T12:02:18.000Z</time>
      </trkpt>
      <trkpt lat="49.60182" lon="3.43179">
        <ele>131.6</ele>
        <time>2025-10-05T12:02:19.000Z</time>
      </trkpt>
      <trkpt lat="49.60182" lon="3.4318">
        <ele>131.5</ele>
        <time>2025-10-05T12:02:20.000Z</time>
      </trkpt>
      <trkpt lat="49.60182" lon="3.43181">
        <ele>131.3</ele>
        <time>2025-10-05T12:02:21.000Z</time>
      </trkpt>
      <trkpt lat="49.60182" lon="3.43182">
        <ele>131.4</ele>
        <time>2025-10-05T12:02:22.000Z</time>
      </trkpt>
      <trkpt lat="49.60183" lon="3.43184">
        <ele>131</ele>
        <time>2025-10-05T12:02:23.000Z</time>
      </trkpt>
      <trkpt lat="49.60183" lon="3.43185">
        <ele>130.7</ele>
        <time>2025-10-05T12:02:24.000Z</time>
      </trkpt>
      <trkpt lat="49.60183" lon="3.43186">
        <ele>130.6</ele>
        <time>2025-10-05T12:02:25.000Z</time>
      </trkpt>
      <trkpt lat="49.60183" lon="3.43187">
        <ele>130.3</ele>
        <time>2025-10-05T12:02:26.000Z</time>
      </trkpt>
      <trkpt lat="49.60183" lon="3.43188">
        <ele>130.1</ele>
        <time>2025-10-05T12:02:27.000Z</time>
      </trkpt>
      <trkpt lat="49.60183" lon="3.4319">
        <ele>129.9</ele>
        <time>2025-10-05T12:02:28.000Z</time>
      </trkpt>
      <trkpt lat="49.60183" lon="3.43192">
        <ele>129.7</ele>
        <time>2025-10-05T12:02:29.000Z</time>
      </trkpt>
      <trkpt lat="49.60183" lon="3.43193">
        <ele>129.6</ele>
        <time>2025-10-05T12:02:30.000Z</time>
      </trkpt>
      <trkpt lat="49.60183" lon="3.43194">
        <ele>129.3</ele>
        <time>2025-10-05T12:02:31.000Z</time>
      </trkpt>
      <trkpt lat="49.60184" lon="3.43195">
        <ele>129.1</ele>
        <time>2025-10-05T12:02:32.000Z</time>
      </trkpt>
      <trkpt lat="49.60184" lon="3.43197">
        <ele>128.9</ele>
        <time>2025-10-05T12:02:33.000Z</time>
      </trkpt>
      <trkpt lat="49.60185" lon="3.43198">
        <ele>129</ele>
        <time>2025-10-05T12:02:34.000Z</time>
      </trkpt>
      <trkpt lat="49.60185" lon="3.432">
        <ele>129</ele>
        <time>2025-10-05T12:02:35.000Z</time>
      </trkpt>
      <trkpt lat="49.60186" lon="3.43202">
        <ele>129</ele>
        <time>2025-10-05T12:02:36.000Z</time>
      </trkpt>
      <trkpt lat="49.60186" lon="3.43204">
        <ele>129.1</ele>
        <time>2025-10-05T12:02:37.000Z</time>
      </trkpt>
      <trkpt lat="49.60187" lon="3.43205">
        <ele>129.3</ele>
        <time>2025-10-05T12:02:38.000Z</time>
      </trkpt>
      <trkpt lat="49.60188" lon="3.43207">
        <ele>129.7</ele>
        <time>2025-10-05T12:02:39.000Z</time>
      </trkpt>
      <trkpt lat="49.60188" lon="3.43207">
        <ele>129.9</ele>
        <time>2025-10-05T12:02:40.000Z</time>
      </trkpt>
      <trkpt lat="49.60189" lon="3.43208">
        <ele>129.8</ele>
        <time>2025-10-05T12:02:41.000Z</time>
      </trkpt>
      <trkpt lat="49.60188" lon="3.43209">
        <ele>130.2</ele>
        <time>2025-10-05T12:02:42.000Z</time>
      </trkpt>
      <trkpt lat="49.60187" lon="3.43209">
        <ele>130.4</ele>
        <time>2025-10-05T12:02:43.000Z</time>
      </trkpt>
      <trkpt lat="49.60187" lon="3.4321">
        <ele>130.6</ele>
        <time>2025-10-05T12:02:44.000Z</time>
      </trkpt>
      <trkpt lat="49.60186" lon="3.43211">
        <ele>130.6</ele>
        <time>2025-10-05T12:02:45.000Z</time>
      </trkpt>
      <trkpt lat="49.60186" lon="3.43213">
        <ele>130.5</ele>
        <time>2025-10-05T12:02:46.000Z</time>
      </trkpt>
      <trkpt lat="49.60185" lon="3.43214">
        <ele>130.5</ele>
        <time>2025-10-05T12:02:47.000Z</time>
      </trkpt>
      <trkpt lat="49.60185" lon="3.43215">
        <ele>130.4</ele>
        <time>2025-10-05T12:02:48.000Z</time>
      </trkpt>
      <trkpt lat="49.60184" lon="3.43216">
        <ele>130.2</ele>
        <time>2025-10-05T12:02:49.000Z</time>
      </trkpt>
      <trkpt lat="49.60183" lon="3.43218">
        <ele>129.8</ele>
        <time>2025-10-05T12:02:50.000Z</time>
      </trkpt>
      <trkpt lat="49.60182" lon="3.43219">
        <ele>129.5</ele>
        <time>2025-10-05T12:02:51.000Z</time>
      </trkpt>
      <trkpt lat="49.60182" lon="3.43219">
        <ele>128.9</ele>
        <time>2025-10-05T12:02:52.000Z</time>
      </trkpt>
      <trkpt lat="49.60182" lon="3.43218">
        <ele>128.5</ele>
        <time>2025-10-05T12:02:53.000Z</time>
      </trkpt>
      <trkpt lat="49.60182" lon="3.43219">
        <ele>128.2</ele>
        <time>2025-10-05T12:02:54.000Z</time>
      </trkpt>
      <trkpt lat="49.60183" lon="3.43219">
        <ele>128.2</ele>
        <time>2025-10-05T12:02:55.000Z</time>
      </trkpt>
      <trkpt lat="49.60184" lon="3.43219">
        <ele>128.3</ele>
        <time>2025-10-05T12:02:56.000Z</time>
      </trkpt>
      <trkpt lat="49.60185" lon="3.43219">
        <ele>128.4</ele>
        <time>2025-10-05T12:02:57.000Z</time>
      </trkpt>
      <trkpt lat="49.60187" lon="3.43219">
        <ele>128.4</ele>
        <time>2025-10-05T12:02:58.000Z</time>
      </trkpt>
      <trkpt lat="49.60188" lon="3.43219">
        <ele>128.3</ele>
        <time>2025-10-05T12:02:59.000Z</time>
      </trkpt>
      <trkpt lat="49.60189" lon="3.43219">
        <ele>128.4</ele>
        <time>2025-10-05T12:03:00.000Z</time>
      </trkpt>
      <trkpt lat="49.60191" lon="3.4322">
        <ele>128.4</ele>
        <time>2025-10-05T12:03:01.000Z</time>
      </trkpt>
      <trkpt lat="49.60192" lon="3.43221">
        <ele>128.6</ele>
        <time>2025-10-05T12:03:02.000Z</time>
      </trkpt>
      <trkpt lat="49.60193" lon="3.43221">
        <ele>128.8</ele>
        <time>2025-10-05T12:03:03.000Z</time>
      </trkpt>
      <trkpt lat="49.60194" lon="3.43222">
        <ele>129</ele>
        <time>2025-10-05T12:03:04.000Z</time>
      </trkpt>
      <trkpt lat="49.60195" lon="3.43223">
        <ele>129.3</ele>
        <time>2025-10-05T12:03:05.000Z</time>
      </trkpt>
      <trkpt lat="49.60196" lon="3.43225">
        <ele>129.4</ele>
        <time>2025-10-05T12:03:06.000Z</time>
      </trkpt>
      <trkpt lat="49.60196" lon="3.43226">
        <ele>129.5</ele>
        <time>2025-10-05T12:03:07.000Z</time>
      </trkpt>
      <trkpt lat="49.60196" lon="3.43227">
        <ele>129.8</ele>
        <time>2025-10-05T12:03:08.000Z</time>
      </trkpt>
      <trkpt lat="49.60196" lon="3.43227">
        <ele>129.9</ele>
        <time>2025-10-05T12:03:09.000Z</time>
      </trkpt>
      <trkpt lat="49.60196" lon="3.43227">
        <ele>129.9</ele>
        <time>2025-10-05T12:03:10.000Z</time>
      </trkpt>
      <trkpt lat="49.60196" lon="3.43227">
        <ele>130</ele>
        <time>2025-10-05T12:03:11.000Z</time>
      </trkpt>
      <trkpt lat="49.60197" lon="3.43227">
        <ele>130</ele>
        <time>2025-10-05T12:03:12.000Z</time>
      </trkpt>
      <trkpt lat="49.60197" lon="3.43227">
        <ele>130.3</ele>
        <time>2025-10-05T12:03:13.000Z</time>
      </trkpt>
      <trkpt lat="49.60197" lon="3.43228">
        <ele>130.3</ele>
        <time>2025-10-05T12:03:14.000Z</time>
      </trkpt>
      <trkpt lat="49.60198" lon="3.43228">
        <ele>130.1</ele>
        <time>2025-10-05T12:03:15.000Z</time>
      </trkpt>
      <trkpt lat="49.60199" lon="3.43229">
        <ele>130.1</ele>
        <time>2025-10-05T12:03:16.000Z</time>
      </trkpt>
      <trkpt lat="49.60199" lon="3.43229">
        <ele>130.1</ele>
        <time>2025-10-05T12:03:17.000Z</time>
      </trkpt>
      <trkpt lat="49.602" lon="3.4323">
        <ele>130.1</ele>
        <time>2025-10-05T12:03:18.000Z</time>
      </trkpt>
      <trkpt lat="49.60201" lon="3.43231">
        <ele>130</ele>
        <time>2025-10-05T12:03:19.000Z</time>
      </trkpt>
      <trkpt lat="49.60201" lon="3.43231">
        <ele>130.2</ele>
        <time>2025-10-05T12:03:20.000Z</time>
      </trkpt>
      <trkpt lat="49.60202" lon="3.43231">
        <ele>130.1</ele>
        <time>2025-10-05T12:03:21.000Z</time>
      </trkpt>
      <trkpt lat="49.60202" lon="3.43232">
        <ele>130</ele>
        <time>2025-10-05T12:03:22.000Z</time>
      </trkpt>
      <trkpt lat="49.60203" lon="3.43232">
        <ele>129.9</ele>
        <time>2025-10-05T12:03:23.000Z</time>
      </trkpt>
      <trkpt lat="49.60204" lon="3.43233">
        <ele>129.9</ele>
        <time>2025-10-05T12:03:24.000Z</time>
      </trkpt>
      <trkpt lat="49.60205" lon="3.43234">
        <ele>129.9</ele>
        <time>2025-10-05T12:03:25.000Z</time>
      </trkpt>
      <trkpt lat="49.60206" lon="3.43236">
        <ele>129.9</ele>
        <time>2025-10-05T12:03:26.000Z</time>
      </trkpt>
      <trkpt lat="49.60207" lon="3.43237">
        <ele>130</ele>
        <time>2025-10-05T12:03:27.000Z</time>
      </trkpt>
      <trkpt lat="49.60208" lon="3.43238">
        <ele>130.1</ele>
        <time>2025-10-05T12:03:28.000Z</time>
      </trkpt>
      <trkpt lat="49.60208" lon="3.4324">
        <ele>130</ele>
        <time>2025-10-05T12:03:29.000Z</time>
      </trkpt>
      <trkpt lat="49.60208" lon="3.43241">
        <ele>130.1</ele>
        <time>2025-10-05T12:03:30.000Z</time>
      </trkpt>
      <trkpt lat="49.60208" lon="3.43243">
        <ele>130.3</ele>
        <time>2025-10-05T12:03:31.000Z</time>
      </trkpt>
      <trkpt lat="49.60209" lon="3.43244">
        <ele>130.4</ele>
        <time>2025-10-05T12:03:32.000Z</time>
      </trkpt>
      <trkpt lat="49.6021" lon="3.43245">
        <ele>130.4</ele>
        <time>2025-10-05T12:03:33.000Z</time>
      </trkpt>
      <trkpt lat="49.6021" lon="3.43246">
        <ele>130.1</ele>
        <time>2025-10-05T12:03:34.000Z</time>
      </trkpt>
      <trkpt lat="49.60211" lon="3.43246">
        <ele>129.8</ele>
        <time>2025-10-05T12:03:35.000Z</time>
      </trkpt>
      <trkpt lat="49.60211" lon="3.43247">
        <ele>129.4</ele>
        <time>2025-10-05T12:03:36.000Z</time>
      </trkpt>
      <trkpt lat="49.60212" lon="3.43246">
        <ele>129.3</ele>
        <time>2025-10-05T12:03:37.000Z</time>
      </trkpt>
      <trkpt lat="49.60213" lon="3.43245">
        <ele>129.2</ele>
        <time>2025-10-05T12:03:38.000Z</time>
      </trkpt>
      <trkpt lat="49.60215" lon="3.43244">
        <ele>129.4</ele>
        <time>2025-10-05T12:03:39.000Z</time>
      </trkpt>
      <trkpt lat="49.60216" lon="3.43245">
        <ele>129.2</ele>
        <time>2025-10-05T12:03:40.000Z</time>
      </trkpt>
      <trkpt lat="49.60218" lon="3.43246">
        <ele>129</ele>
        <time>2025-10-05T12:03:41.000Z</time>
      </trkpt>
      <trkpt lat="49.60219" lon="3.43247">
        <ele>128.8</ele>
        <time>2025-10-05T12:03:42.000Z</time>
      </trkpt>
      <trkpt lat="49.60221" lon="3.43247">
        <ele>128.9</ele>
        <time>2025-10-05T12:03:43.000Z</time>
      </trkpt>
      <trkpt lat="49.60222" lon="3.43248">
        <ele>129.2</ele>
        <time>2025-10-05T12:03:44.000Z</time>
      </trkpt>
      <trkpt lat="49.60223" lon="3.43248">
        <ele>129.5</ele>
        <time>2025-10-05T12:03:45.000Z</time>
      </trkpt>
      <trkpt lat="49.60224" lon="3.43249">
        <ele>129.9</ele>
        <time>2025-10-05T12:03:46.000Z</time>
      </trkpt>
      <trkpt lat="49.60224" lon="3.4325">
        <ele>130.2</ele>
        <time>2025-10-05T12:03:47.000Z</time>
      </trkpt>
      <trkpt lat="49.60224" lon="3.4325">
        <ele>130.3</ele>
        <time>2025-10-05T12:03:48.000Z</time>
      </trkpt>
      <trkpt lat="49.60225" lon="3.43251">
        <ele>130.3</ele>
        <time>2025-10-05T12:03:49.000Z</time>
      </trkpt>
      <trkpt lat="49.60226" lon="3.43251">
        <ele>130.6</ele>
        <time>2025-10-05T12:03:50.000Z</time>
      </trkpt>
      <trkpt lat="49.60227" lon="3.43252">
        <ele>131</ele>
        <time>2025-10-05T12:03:51.000Z</time>
      </trkpt>
      <trkpt lat="49.60228" lon="3.43254">
        <ele>131.4</ele>
        <time>2025-10-05T12:03:52.000Z</time>
      </trkpt>
      <trkpt lat="49.60229" lon="3.43255">
        <ele>131.8</ele>
        <time>2025-10-05T12:03:53.000Z</time>
      </trkpt>
      <trkpt lat="49.60229" lon="3.43257">
        <ele>131.9</ele>
        <time>2025-10-05T12:03:54.000Z</time>
      </trkpt>
      <trkpt lat="49.60229" lon="3.43258">
        <ele>132.1</ele>
        <time>2025-10-05T12:03:55.000Z</time>
      </trkpt>
      <trkpt lat="49.6023" lon="3.43259">
        <ele>132</ele>
        <time>2025-10-05T12:03:56.000Z</time>
      </trkpt>
      <trkpt lat="49.60231" lon="3.4326">
        <ele>131.9</ele>
        <time>2025-10-05T12:03:57.000Z</time>
      </trkpt>
      <trkpt lat="49.60231" lon="3.43262">
        <ele>131.7</ele>
        <time>2025-10-05T12:03:58.000Z</time>
      </trkpt>
      <trkpt lat="49.60232" lon="3.43263">
        <ele>131.2</ele>
        <time>2025-10-05T12:03:59.000Z</time>
      </trkpt>
      <trkpt lat="49.60232" lon="3.43264">
        <ele>130.9</ele>
        <time>2025-10-05T12:04:00.000Z</time>
      </trkpt>
      <trkpt lat="49.60233" lon="3.43264">
        <ele>130.7</ele>
        <time>2025-10-05T12:04:01.000Z</time>
      </trkpt>
      <trkpt lat="49.60233" lon="3.43266">
        <ele>130.7</ele>
        <time>2025-10-05T12:04:02.000Z</time>
      </trkpt>
      <trkpt lat="49.60234" lon="3.43267">
        <ele>130.7</ele>
        <time>2025-10-05T12:04:03.000Z</time>
      </trkpt>
      <trkpt lat="49.60235" lon="3.43268">
        <ele>130.5</ele>
        <time>2025-10-05T12:04:04.000Z</time>
      </trkpt>
      <trkpt lat="49.60235" lon="3.43269">
        <ele>130.1</ele>
        <time>2025-10-05T12:04:05.000Z</time>
      </trkpt>
      <trkpt lat="49.60236" lon="3.43271">
        <ele>129.7</ele>
        <time>2025-10-05T12:04:06.000Z</time>
      </trkpt>
      <trkpt lat="49.60236" lon="3.43271">
        <ele>129.4</ele>
        <time>2025-10-05T12:04:07.000Z</time>
      </trkpt>
      <trkpt lat="49.60237" lon="3.43271">
        <ele>129.3</ele>
        <time>2025-10-05T12:04:08.000Z</time>
      </trkpt>
      <trkpt lat="49.60238" lon="3.43272">
        <ele>128.9</ele>
        <time>2025-10-05T12:04:09.000Z</time>
      </trkpt>
      <trkpt lat="49.60238" lon="3.43273">
        <ele>128.7</ele>
        <time>2025-10-05T12:04:10.000Z</time>
      </trkpt>
      <trkpt lat="49.60239" lon="3.43273">
        <ele>128.7</ele>
        <time>2025-10-05T12:04:11.000Z</time>
      </trkpt>
      <trkpt lat="49.6024" lon="3.43274">
        <ele>128.9</ele>
        <time>2025-10-05T12:04:12.000Z</time>
      </trkpt>
      <trkpt lat="49.60241" lon="3.43274">
        <ele>128.7</ele>
        <time>2025-10-05T12:04:13.000Z</time>
      </trkpt>
      <trkpt lat="49.60241" lon="3.43275">
        <ele>128.3</ele>
        <time>2025-10-05T12:04:14.000Z</time>
      </trkpt>
      <trkpt lat="49.60242" lon="3.43275">
        <ele>128.1</ele>
        <time>2025-10-05T12:04:15.000Z</time>
      </trkpt>
      <trkpt lat="49.60243" lon="3.43275">
        <ele>127.9</ele>
        <time>2025-10-05T12:04:16.000Z</time>
      </trkpt>
      <trkpt lat="49.60243" lon="3.43276">
        <ele>127.6</ele>
        <time>2025-10-05T12:04:17.000Z</time>
      </trkpt>
      <trkpt lat="49.60244" lon="3.43277">
        <ele>127.1</ele>
        <time>2025-10-05T12:04:18.000Z</time>
      </trkpt>
      <trkpt lat="49.60246" lon="3.43278">
        <ele>127</ele>
        <time>2025-10-05T12:04:19.000Z</time>
      </trkpt>
      <trkpt lat="49.60246" lon="3.43278">
        <ele>126.9</ele>
        <time>2025-10-05T12:04:20.000Z</time>
      </trkpt>
      <trkpt lat="49.60247" lon="3.43278">
        <ele>127</ele>
        <time>2025-10-05T12:04:21.000Z</time>
      </trkpt>
      <trkpt lat="49.60248" lon="3.43279">
        <ele>126.9</ele>
        <time>2025-10-05T12:04:22.000Z</time>
      </trkpt>
      <trkpt lat="49.60248" lon="3.4328">
        <ele>126.9</ele>
        <time>2025-10-05T12:04:23.000Z</time>
      </trkpt>
      <trkpt lat="49.60248" lon="3.4328">
        <ele>126.6</ele>
        <time>2025-10-05T12:04:24.000Z</time>
      </trkpt>
      <trkpt lat="49.60248" lon="3.43281">
        <ele>126.5</ele>
        <time>2025-10-05T12:04:25.000Z</time>
      </trkpt>
      <trkpt lat="49.60248" lon="3.43281">
        <ele>126.3</ele>
        <time>2025-10-05T12:04:26.000Z</time>
      </trkpt>
      <trkpt lat="49.60249" lon="3.43282">
        <ele>126.2</ele>
        <time>2025-10-05T12:04:27.000Z</time>
      </trkpt>
      <trkpt lat="49.6025" lon="3.43282">
        <ele>126.2</ele>
        <time>2025-10-05T12:04:28.000Z</time>
      </trkpt>
      <trkpt lat="49.60251" lon="3.43283">
        <ele>126.5</ele>
        <time>2025-10-05T12:04:29.000Z</time>
      </trkpt>
      <trkpt lat="49.60252" lon="3.43284">
        <ele>126.9</ele>
        <time>2025-10-05T12:04:30.000Z</time>
      </trkpt>
      <trkpt lat="49.60253" lon="3.43285">
        <ele>127.1</ele>
        <time>2025-10-05T12:04:31.000Z</time>
      </trkpt>
      <trkpt lat="49.60255" lon="3.43285">
        <ele>127.3</ele>
        <time>2025-10-05T12:04:32.000Z</time>
      </trkpt>
      <trkpt lat="49.60255" lon="3.43286">
        <ele>127.5</ele>
        <time>2025-10-05T12:04:33.000Z</time>
      </trkpt>
      <trkpt lat="49.60256" lon="3.43288">
        <ele>127.7</ele>
        <time>2025-10-05T12:04:34.000Z</time>
      </trkpt>
      <trkpt lat="49.60257" lon="3.43289">
        <ele>127.8</ele>
        <time>2025-10-05T12:04:35.000Z</time>
      </trkpt>
      <trkpt lat="49.60259" lon="3.4329">
        <ele>127.6</ele>
        <time>2025-10-05T12:04:36.000Z</time>
      </trkpt>
      <trkpt lat="49.6026" lon="3.43291">
        <ele>127.5</ele>
        <time>2025-10-05T12:04:37.000Z</time>
      </trkpt>
      <trkpt lat="49.6026" lon="3.43291">
        <ele>127.5</ele>
        <time>2025-10-05T12:04:38.000Z</time>
      </trkpt>
      <trkpt lat="49.60261" lon="3.43292">
        <ele>127.4</ele>
        <time>2025-10-05T12:04:39.000Z</time>
      </trkpt>
      <trkpt lat="49.60261" lon="3.43292">
        <ele>127.5</ele>
        <time>2025-10-05T12:04:40.000Z</time>
      </trkpt>
      <trkpt lat="49.60262" lon="3.43293">
        <ele>127.4</ele>
        <time>2025-10-05T12:04:41.000Z</time>
      </trkpt>
      <trkpt lat="49.60263" lon="3.43294">
        <ele>127.3</ele>
        <time>2025-10-05T12:04:42.000Z</time>
      </trkpt>
      <trkpt lat="49.60264" lon="3.43295">
        <ele>127.2</ele>
        <time>2025-10-05T12:04:43.000Z</time>
      </trkpt>
      <trkpt lat="49.60265" lon="3.43296">
        <ele>127.1</ele>
        <time>2025-10-05T12:04:44.000Z</time>
      </trkpt>
      <trkpt lat="49.60266" lon="3.43296">
        <ele>127.1</ele>
        <time>2025-10-05T12:04:45.000Z</time>
      </trkpt>
      <trkpt lat="49.60267" lon="3.43297">
        <ele>127</ele>
        <time>2025-10-05T12:04:46.000Z</time>
      </trkpt>
      <trkpt lat="49.60268" lon="3.43298">
        <ele>126.8</ele>
        <time>2025-10-05T12:04:47.000Z</time>
      </trkpt>
      <trkpt lat="49.6027" lon="3.43299">
        <ele>126.5</ele>
        <time>2025-10-05T12:04:48.000Z</time>
      </trkpt>
      <trkpt lat="49.60271" lon="3.433">
        <ele>126.2</ele>
        <time>2025-10-05T12:04:49.000Z</time>
      </trkpt>
      <trkpt lat="49.60273" lon="3.43301">
        <ele>126</ele>
        <time>2025-10-05T12:04:50.000Z</time>
      </trkpt>
      <trkpt lat="49.60274" lon="3.43302">
        <ele>125.6</ele>
        <time>2025-10-05T12:04:51.000Z</time>
      </trkpt>
      <trkpt lat="49.60275" lon="3.43303">
        <ele>125.2</ele>
        <time>2025-10-05T12:04:52.000Z</time>
      </trkpt>
      <trkpt lat="49.60276" lon="3.43303">
        <ele>124.7</ele>
        <time>2025-10-05T12:04:53.000Z</time>
      </trkpt>
      <trkpt lat="49.60277" lon="3.43304">
        <ele>124.5</ele>
        <time>2025-10-05T12:04:54.000Z</time>
      </trkpt>
      <trkpt lat="49.60278" lon="3.43303">
        <ele>124.4</ele>
        <time>2025-10-05T12:04:55.000Z</time>
      </trkpt>
      <trkpt lat="49.60279" lon="3.43303">
        <ele>124.3</ele>
        <time>2025-10-05T12:04:56.000Z</time>
      </trkpt>
      <trkpt lat="49.6028" lon="3.43304">
        <ele>124.2</ele>
        <time>2025-10-05T12:04:57.000Z</time>
      </trkpt>
      <trkpt lat="49.6028" lon="3.43304">
        <ele>124.2</ele>
        <time>2025-10-05T12:04:58.000Z</time>
      </trkpt>
      <trkpt lat="49.6028" lon="3.43304">
        <ele>123.9</ele>
        <time>2025-10-05T12:04:59.000Z</time>
      </trkpt>
      <trkpt lat="49.60281" lon="3.43304">
        <ele>123.7</ele>
        <time>2025-10-05T12:05:00.000Z</time>
      </trkpt>
      <trkpt lat="49.60282" lon="3.43305">
        <ele>123.5</ele>
        <time>2025-10-05T12:05:01.000Z</time>
      </trkpt>
      <trkpt lat="49.60283" lon="3.43306">
        <ele>123.5</ele>
        <time>2025-10-05T12:05:02.000Z</time>
      </trkpt>
      <trkpt lat="49.60284" lon="3.43307">
        <ele>123.4</ele>
        <time>2025-10-05T12:05:03.000Z</time>
      </trkpt>
      <trkpt lat="49.60285" lon="3.43308">
        <ele>123.3</ele>
        <time>2025-10-05T12:05:04.000Z</time>
      </trkpt>
      <trkpt lat="49.60286" lon="3.43308">
        <ele>123.3</ele>
        <time>2025-10-05T12:05:05.000Z</time>
      </trkpt>
      <trkpt lat="49.60287" lon="3.43308">
        <ele>123.3</ele>
        <time>2025-10-05T12:05:06.000Z</time>
      </trkpt>
      <trkpt lat="49.60288" lon="3.43307">
        <ele>123.3</ele>
        <time>2025-10-05T12:05:07.000Z</time>
      </trkpt>
      <trkpt lat="49.60289" lon="3.43308">
        <ele>123.5</ele>
        <time>2025-10-05T12:05:08.000Z</time>
      </trkpt>
      <trkpt lat="49.6029" lon="3.43309">
        <ele>123.7</ele>
        <time>2025-10-05T12:05:09.000Z</time>
      </trkpt>
      <trkpt lat="49.60291" lon="3.4331">
        <ele>123.6</ele>
        <time>2025-10-05T12:05:10.000Z</time>
      </trkpt>
      <trkpt lat="49.60292" lon="3.4331">
        <ele>123.7</ele>
        <time>2025-10-05T12:05:11.000Z</time>
      </trkpt>
      <trkpt lat="49.60293" lon="3.43311">
        <ele>124</ele>
        <time>2025-10-05T12:05:12.000Z</time>
      </trkpt>
      <trkpt lat="49.60294" lon="3.43312">
        <ele>124</ele>
        <time>2025-10-05T12:05:13.000Z</time>
      </trkpt>
      <trkpt lat="49.60295" lon="3.43313">
        <ele>124.1</ele>
        <time>2025-10-05T12:05:14.000Z</time>
      </trkpt>
      <trkpt lat="49.60296" lon="3.43313">
        <ele>124.4</ele>
        <time>2025-10-05T12:05:15.000Z</time>
      </trkpt>
      <trkpt lat="49.60297" lon="3.43314">
        <ele>124.2</ele>
        <time>2025-10-05T12:05:16.000Z</time>
      </trkpt>
      <trkpt lat="49.60298" lon="3.43314">
        <ele>123.9</ele>
        <time>2025-10-05T12:05:17.000Z</time>
      </trkpt>
      <trkpt lat="49.60298" lon="3.43315">
        <ele>123.6</ele>
        <time>2025-10-05T12:05:18.000Z</time>
      </trkpt>
      <trkpt lat="49.60299" lon="3.43316">
        <ele>123.3</ele>
        <time>2025-10-05T12:05:19.000Z</time>
      </trkpt>
      <trkpt lat="49.603" lon="3.43317">
        <ele>123.3</ele>
        <time>2025-10-05T12:05:20.000Z</time>
      </trkpt>
      <trkpt lat="49.60301" lon="3.43318">
        <ele>123</ele>
        <time>2025-10-05T12:05:21.000Z</time>
      </trkpt>
      <trkpt lat="49.60301" lon="3.43319">
        <ele>123.4</ele>
        <time>2025-10-05T12:05:22.000Z</time>
      </trkpt>
      <trkpt lat="49.60302" lon="3.4332">
        <ele>123.6</ele>
        <time>2025-10-05T12:05:23.000Z</time>
      </trkpt>
      <trkpt lat="49.60303" lon="3.4332">
        <ele>123.9</ele>
        <time>2025-10-05T12:05:24.000Z</time>
      </trkpt>
      <trkpt lat="49.60304" lon="3.43321">
        <ele>124.1</ele>
        <time>2025-10-05T12:05:25.000Z</time>
      </trkpt>
      <trkpt lat="49.60305" lon="3.43322">
        <ele>124.5</ele>
        <time>2025-10-05T12:05:26.000Z</time>
      </trkpt>
      <trkpt lat="49.60306" lon="3.43322">
        <ele>125.2</ele>
        <time>2025-10-05T12:05:27.000Z</time>
      </trkpt>
      <trkpt lat="49.60307" lon="3.43324">
        <ele>125.9</ele>
        <time>2025-10-05T12:05:28.000Z</time>
      </trkpt>
      <trkpt lat="49.60308" lon="3.43325">
        <ele>126.1</ele>
        <time>2025-10-05T12:05:29.000Z</time>
      </trkpt>
      <trkpt lat="49.60309" lon="3.43326">
        <ele>126.2</ele>
        <time>2025-10-05T12:05:30.000Z</time>
      </trkpt>
      <trkpt lat="49.6031" lon="3.43327">
        <ele>126.4</ele>
        <time>2025-10-05T12:05:31.000Z</time>
      </trkpt>
      <trkpt lat="49.60311" lon="3.43327">
        <ele>126.8</ele>
        <time>2025-10-05T12:05:32.000Z</time>
      </trkpt>
      <trkpt lat="49.60312" lon="3.4333">
        <ele>126.9</ele>
        <time>2025-10-05T12:05:33.000Z</time>
      </trkpt>
      <trkpt lat="49.60313" lon="3.4333">
        <ele>126.9</ele>
        <time>2025-10-05T12:05:34.000Z</time>
      </trkpt>
      <trkpt lat="49.60313" lon="3.43331">
        <ele>127.2</ele>
        <time>2025-10-05T12:05:35.000Z</time>
      </trkpt>
      <trkpt lat="49.60314" lon="3.43331">
        <ele>127.4</ele>
        <time>2025-10-05T12:05:36.000Z</time>
      </trkpt>
      <trkpt lat="49.60316" lon="3.43331">
        <ele>127.3</ele>
        <time>2025-10-05T12:05:37.000Z</time>
      </trkpt>
      <trkpt lat="49.60316" lon="3.43332">
        <ele>127.5</ele>
        <time>2025-10-05T12:05:38.000Z</time>
      </trkpt>
      <trkpt lat="49.60318" lon="3.43333">
        <ele>127.9</ele>
        <time>2025-10-05T12:05:39.000Z</time>
      </trkpt>
      <trkpt lat="49.60319" lon="3.43332">
        <ele>128.1</ele>
        <time>2025-10-05T12:05:40.000Z</time>
      </trkpt>
      <trkpt lat="49.6032" lon="3.43332">
        <ele>128.6</ele>
        <time>2025-10-05T12:05:41.000Z</time>
      </trkpt>
      <trkpt lat="49.60321" lon="3.43333">
        <ele>128.9</ele>
        <time>2025-10-05T12:05:42.000Z</time>
      </trkpt>
      <trkpt lat="49.60322" lon="3.43334">
        <ele>129.3</ele>
        <time>2025-10-05T12:05:43.000Z</time>
      </trkpt>
      <trkpt lat="49.60322" lon="3.43334">
        <ele>129.5</ele>
        <time>2025-10-05T12:05:44.000Z</time>
      </trkpt>
      <trkpt lat="49.60323" lon="3.43335">
        <ele>129.7</ele>
        <time>2025-10-05T12:05:45.000Z</time>
      </trkpt>
      <trkpt lat="49.60324" lon="3.43335">
        <ele>130.1</ele>
        <time>2025-10-05T12:05:46.000Z</time>
      </trkpt>
      <trkpt lat="49.60325" lon="3.43336">
        <ele>130.1</ele>
        <time>2025-10-05T12:05:47.000Z</time>
      </trkpt>
      <trkpt lat="49.60326" lon="3.43337">
        <ele>130.3</ele>
        <time>2025-10-05T12:05:48.000Z</time>
      </trkpt>
      <trkpt lat="49.60327" lon="3.43337">
        <ele>129.9</ele>
        <time>2025-10-05T12:05:49.000Z</time>
      </trkpt>
      <trkpt lat="49.60327" lon="3.43338">
        <ele>129.8</ele>
        <time>2025-10-05T12:05:50.000Z</time>
      </trkpt>
      <trkpt lat="49.60328" lon="3.43338">
        <ele>129.8</ele>
        <time>2025-10-05T12:05:51.000Z</time>
      </trkpt>
      <trkpt lat="49.60329" lon="3.43338">
        <ele>129.6</ele>
        <time>2025-10-05T12:05:52.000Z</time>
      </trkpt>
      <trkpt lat="49.6033" lon="3.43338">
        <ele>129.5</ele>
        <time>2025-10-05T12:05:53.000Z</time>
      </trkpt>
      <trkpt lat="49.60331" lon="3.43339">
        <ele>129.3</ele>
        <time>2025-10-05T12:05:54.000Z</time>
      </trkpt>
      <trkpt lat="49.60332" lon="3.43339">
        <ele>129.4</ele>
        <time>2025-10-05T12:05:55.000Z</time>
      </trkpt>
      <trkpt lat="49.60333" lon="3.4334">
        <ele>129.6</ele>
        <time>2025-10-05T12:05:56.000Z</time>
      </trkpt>
      <trkpt lat="49.60334" lon="3.43341">
        <ele>129.3</ele>
        <time>2025-10-05T12:05:57.000Z</time>
      </trkpt>
      <trkpt lat="49.60335" lon="3.43341">
        <ele>129.1</ele>
        <time>2025-10-05T12:05:58.000Z</time>
      </trkpt>
      <trkpt lat="49.60336" lon="3.43342">
        <ele>128.9</ele>
        <time>2025-10-05T12:05:59.000Z</time>
      </trkpt>
      <trkpt lat="49.60337" lon="3.43342">
        <ele>128.6</ele>
        <time>2025-10-05T12:06:00.000Z</time>
      </trkpt>
      <trkpt lat="49.60339" lon="3.43342">
        <ele>128.4</ele>
        <time>2025-10-05T12:06:01.000Z</time>
      </trkpt>
      <trkpt lat="49.6034" lon="3.43343">
        <ele>128.4</ele>
        <time>2025-10-05T12:06:02.000Z</time>
      </trkpt>
      <trkpt lat="49.6034" lon="3.43344">
        <ele>128.3</ele>
        <time>2025-10-05T12:06:03.000Z</time>
      </trkpt>
      <trkpt lat="49.6034" lon="3.43345">
        <ele>128.1</ele>
        <time>2025-10-05T12:06:04.000Z</time>
      </trkpt>
      <trkpt lat="49.60341" lon="3.43345">
        <ele>127.9</ele>
        <time>2025-10-05T12:06:05.000Z</time>
      </trkpt>
      <trkpt lat="49.60342" lon="3.43346">
        <ele>127.8</ele>
        <time>2025-10-05T12:06:06.000Z</time>
      </trkpt>
      <trkpt lat="49.60343" lon="3.43347">
        <ele>127.6</ele>
        <time>2025-10-05T12:06:07.000Z</time>
      </trkpt>
      <trkpt lat="49.60344" lon="3.43347">
        <ele>127.5</ele>
        <time>2025-10-05T12:06:08.000Z</time>
      </trkpt>
      <trkpt lat="49.60345" lon="3.43348">
        <ele>127.4</ele>
        <time>2025-10-05T12:06:09.000Z</time>
      </trkpt>
      <trkpt lat="49.60346" lon="3.43349">
        <ele>127.3</ele>
        <time>2025-10-05T12:06:10.000Z</time>
      </trkpt>
      <trkpt lat="49.60347" lon="3.43349">
        <ele>127.1</ele>
        <time>2025-10-05T12:06:11.000Z</time>
      </trkpt>
      <trkpt lat="49.60348" lon="3.4335">
        <ele>127</ele>
        <time>2025-10-05T12:06:12.000Z</time>
      </trkpt>
      <trkpt lat="49.6035" lon="3.4335">
        <ele>127</ele>
        <time>2025-10-05T12:06:13.000Z</time>
      </trkpt>
      <trkpt lat="49.60351" lon="3.43351">
        <ele>127</ele>
        <time>2025-10-05T12:06:14.000Z</time>
      </trkpt>
      <trkpt lat="49.60352" lon="3.43352">
        <ele>127.1</ele>
        <time>2025-10-05T12:06:15.000Z</time>
      </trkpt>
      <trkpt lat="49.60353" lon="3.43353">
        <ele>127</ele>
        <time>2025-10-05T12:06:16.000Z</time>
      </trkpt>
      <trkpt lat="49.60354" lon="3.43353">
        <ele>126.9</ele>
        <time>2025-10-05T12:06:17.000Z</time>
      </trkpt>
      <trkpt lat="49.60355" lon="3.43354">
        <ele>127</ele>
        <time>2025-10-05T12:06:18.000Z</time>
      </trkpt>
      <trkpt lat="49.60355" lon="3.43357">
        <ele>127.4</ele>
        <time>2025-10-05T12:06:19.000Z</time>
      </trkpt>
      <trkpt lat="49.60356" lon="3.43358">
        <ele>127.5</ele>
        <time>2025-10-05T12:06:20.000Z</time>
      </trkpt>
      <trkpt lat="49.60357" lon="3.4336">
        <ele>127.6</ele>
        <time>2025-10-05T12:06:21.000Z</time>
      </trkpt>
      <trkpt lat="49.60357" lon="3.43363">
        <ele>128</ele>
        <time>2025-10-05T12:06:22.000Z</time>
      </trkpt>
      <trkpt lat="49.60358" lon="3.43365">
        <ele>128.3</ele>
        <time>2025-10-05T12:06:23.000Z</time>
      </trkpt>
      <trkpt lat="49.60358" lon="3.43366">
        <ele>128.6</ele>
        <time>2025-10-05T12:06:24.000Z</time>
      </trkpt>
      <trkpt lat="49.60357" lon="3.43368">
        <ele>128.3</ele>
        <time>2025-10-05T12:06:25.000Z</time>
      </trkpt>
      <trkpt lat="49.60356" lon="3.4337">
        <ele>128</ele>
        <time>2025-10-05T12:06:26.000Z</time>
      </trkpt>
      <trkpt lat="49.60356" lon="3.43371">
        <ele>127.8</ele>
        <time>2025-10-05T12:06:27.000Z</time>
      </trkpt>
      <trkpt lat="49.60356" lon="3.43373">
        <ele>127.4</ele>
        <time>2025-10-05T12:06:28.000Z</time>
      </trkpt>
      <trkpt lat="49.60356" lon="3.43374">
        <ele>127.2</ele>
        <time>2025-10-05T12:06:29.000Z</time>
      </trkpt>
      <trkpt lat="49.60355" lon="3.43375">
        <ele>127.3</ele>
        <time>2025-10-05T12:06:30.000Z</time>
      </trkpt>
      <trkpt lat="49.60355" lon="3.43376">
        <ele>127.1</ele>
        <time>2025-10-05T12:06:31.000Z</time>
      </trkpt>
      <trkpt lat="49.60355" lon="3.43377">
        <ele>126.9</ele>
        <time>2025-10-05T12:06:32.000Z</time>
      </trkpt>
      <trkpt lat="49.60355" lon="3.43378">
        <ele>126.7</ele>
        <time>2025-10-05T12:06:33.000Z</time>
      </trkpt>
      <trkpt lat="49.60355" lon="3.43379">
        <ele>126.5</ele>
        <time>2025-10-05T12:06:34.000Z</time>
      </trkpt>
      <trkpt lat="49.60355" lon="3.43379">
        <ele>126.4</ele>
        <time>2025-10-05T12:06:35.000Z</time>
      </trkpt>
      <trkpt lat="49.60356" lon="3.43381">
        <ele>126.4</ele>
        <time>2025-10-05T12:06:36.000Z</time>
      </trkpt>
      <trkpt lat="49.60356" lon="3.43382">
        <ele>126.2</ele>
        <time>2025-10-05T12:06:37.000Z</time>
      </trkpt>
      <trkpt lat="49.60356" lon="3.43383">
        <ele>126</ele>
        <time>2025-10-05T12:06:38.000Z</time>
      </trkpt>
      <trkpt lat="49.60356" lon="3.43384">
        <ele>125.9</ele>
        <time>2025-10-05T12:06:39.000Z</time>
      </trkpt>
      <trkpt lat="49.60357" lon="3.43385">
        <ele>125.8</ele>
        <time>2025-10-05T12:06:40.000Z</time>
      </trkpt>
      <trkpt lat="49.60357" lon="3.43385">
        <ele>125.7</ele>
        <time>2025-10-05T12:06:41.000Z</time>
      </trkpt>
      <trkpt lat="49.60358" lon="3.43386">
        <ele>125.6</ele>
        <time>2025-10-05T12:06:42.000Z</time>
      </trkpt>
      <trkpt lat="49.60359" lon="3.43387">
        <ele>125.2</ele>
        <time>2025-10-05T12:06:43.000Z</time>
      </trkpt>
      <trkpt lat="49.60359" lon="3.43387">
        <ele>125</ele>
        <time>2025-10-05T12:06:44.000Z</time>
      </trkpt>
      <trkpt lat="49.6036" lon="3.43388">
        <ele>124.8</ele>
        <time>2025-10-05T12:06:45.000Z</time>
      </trkpt>
      <trkpt lat="49.6036" lon="3.43389">
        <ele>124.8</ele>
        <time>2025-10-05T12:06:46.000Z</time>
      </trkpt>
      <trkpt lat="49.60361" lon="3.4339">
        <ele>124.6</ele>
        <time>2025-10-05T12:06:47.000Z</time>
      </trkpt>
      <trkpt lat="49.60362" lon="3.43391">
        <ele>124.5</ele>
        <time>2025-10-05T12:06:48.000Z</time>
      </trkpt>
      <trkpt lat="49.60363" lon="3.43392">
        <ele>124.4</ele>
        <time>2025-10-05T12:06:49.000Z</time>
      </trkpt>
      <trkpt lat="49.60364" lon="3.43393">
        <ele>124.2</ele>
        <time>2025-10-05T12:06:50.000Z</time>
      </trkpt>
      <trkpt lat="49.60365" lon="3.43394">
        <ele>124</ele>
        <time>2025-10-05T12:06:51.000Z</time>
      </trkpt>
      <trkpt lat="49.60366" lon="3.43394">
        <ele>123.8</ele>
        <time>2025-10-05T12:06:52.000Z</time>
      </trkpt>
      <trkpt lat="49.60367" lon="3.43395">
        <ele>123.5</ele>
        <time>2025-10-05T12:06:53.000Z</time>
      </trkpt>
      <trkpt lat="49.60368" lon="3.43395">
        <ele>123.3</ele>
        <time>2025-10-05T12:06:54.000Z</time>
      </trkpt>
      <trkpt lat="49.60369" lon="3.43395">
        <ele>123.1</ele>
        <time>2025-10-05T12:06:55.000Z</time>
      </trkpt>
      <trkpt lat="49.6037" lon="3.43395">
        <ele>123.1</ele>
        <time>2025-10-05T12:06:56.000Z</time>
      </trkpt>
      <trkpt lat="49.6037" lon="3.43395">
        <ele>123.1</ele>
        <time>2025-10-05T12:06:57.000Z</time>
      </trkpt>
      <trkpt lat="49.60371" lon="3.43396">
        <ele>123.4</ele>
        <time>2025-10-05T12:06:58.000Z</time>
      </trkpt>
      <trkpt lat="49.60371" lon="3.43397">
        <ele>123.7</ele>
        <time>2025-10-05T12:06:59.000Z</time>
      </trkpt>
      <trkpt lat="49.60372" lon="3.43397">
        <ele>124</ele>
        <time>2025-10-05T12:07:00.000Z</time>
      </trkpt>
      <trkpt lat="49.60372" lon="3.43397">
        <ele>124.1</ele>
        <time>2025-10-05T12:07:01.000Z</time>
      </trkpt>
      <trkpt lat="49.60373" lon="3.43398">
        <ele>124.1</ele>
        <time>2025-10-05T12:07:02.000Z</time>
      </trkpt>
      <trkpt lat="49.60375" lon="3.43398">
        <ele>124.1</ele>
        <time>2025-10-05T12:07:03.000Z</time>
      </trkpt>
      <trkpt lat="49.60376" lon="3.43399">
        <ele>124.3</ele>
        <time>2025-10-05T12:07:04.000Z</time>
      </trkpt>
      <trkpt lat="49.60376" lon="3.43399">
        <ele>124.2</ele>
        <time>2025-10-05T12:07:05.000Z</time>
      </trkpt>
      <trkpt lat="49.60376" lon="3.43399">
        <ele>124.2</ele>
        <time>2025-10-05T12:07:06.000Z</time>
      </trkpt>
      <trkpt lat="49.60377" lon="3.434">
        <ele>124.3</ele>
        <time>2025-10-05T12:07:07.000Z</time>
      </trkpt>
      <trkpt lat="49.60377" lon="3.434">
        <ele>124.3</ele>
        <time>2025-10-05T12:07:08.000Z</time>
      </trkpt>
      <trkpt lat="49.60379" lon="3.43401">
        <ele>124.3</ele>
        <time>2025-10-05T12:07:09.000Z</time>
      </trkpt>
      <trkpt lat="49.6038" lon="3.43402">
        <ele>124.1</ele>
        <time>2025-10-05T12:07:10.000Z</time>
      </trkpt>
      <trkpt lat="49.60381" lon="3.43403">
        <ele>124.1</ele>
        <time>2025-10-05T12:07:11.000Z</time>
      </trkpt>
      <trkpt lat="49.60382" lon="3.43404">
        <ele>124.3</ele>
        <time>2025-10-05T12:07:12.000Z</time>
      </trkpt>
      <trkpt lat="49.60383" lon="3.43405">
        <ele>124.4</ele>
        <time>2025-10-05T12:07:13.000Z</time>
      </trkpt>
      <trkpt lat="49.60384" lon="3.43407">
        <ele>124.3</ele>
        <time>2025-10-05T12:07:14.000Z</time>
      </trkpt>
      <trkpt lat="49.60385" lon="3.43407">
        <ele>124.1</ele>
        <time>2025-10-05T12:07:15.000Z</time>
      </trkpt>
      <trkpt lat="49.60386" lon="3.43408">
        <ele>124.3</ele>
        <time>2025-10-05T12:07:16.000Z</time>
      </trkpt>
      <trkpt lat="49.60387" lon="3.43409">
        <ele>124.4</ele>
        <time>2025-10-05T12:07:17.000Z</time>
      </trkpt>
      <trkpt lat="49.60388" lon="3.43409">
        <ele>124.2</ele>
        <time>2025-10-05T12:07:18.000Z</time>
      </trkpt>
      <trkpt lat="49.60389" lon="3.4341">
        <ele>123.8</ele>
        <time>2025-10-05T12:07:19.000Z</time>
      </trkpt>
      <trkpt lat="49.6039" lon="3.4341">
        <ele>123.6</ele>
        <time>2025-10-05T12:07:20.000Z</time>
      </trkpt>
      <trkpt lat="49.60391" lon="3.43411">
        <ele>123.4</ele>
        <time>2025-10-05T12:07:21.000Z</time>
      </trkpt>
      <trkpt lat="49.60392" lon="3.43412">
        <ele>123.1</ele>
        <time>2025-10-05T12:07:22.000Z</time>
      </trkpt>
      <trkpt lat="49.60393" lon="3.43413">
        <ele>123</ele>
        <time>2025-10-05T12:07:23.000Z</time>
      </trkpt>
      <trkpt lat="49.60394" lon="3.43412">
        <ele>122.9</ele>
        <time>2025-10-05T12:07:24.000Z</time>
      </trkpt>
      <trkpt lat="49.60395" lon="3.43412">
        <ele>122.8</ele>
        <time>2025-10-05T12:07:25.000Z</time>
      </trkpt>
      <trkpt lat="49.60396" lon="3.43412">
        <ele>122.8</ele>
        <time>2025-10-05T12:07:26.000Z</time>
      </trkpt>
      <trkpt lat="49.60397" lon="3.43413">
        <ele>122.9</ele>
        <time>2025-10-05T12:07:27.000Z</time>
      </trkpt>
      <trkpt lat="49.60398" lon="3.43413">
        <ele>123</ele>
        <time>2025-10-05T12:07:28.000Z</time>
      </trkpt>
      <trkpt lat="49.60399" lon="3.43413">
        <ele>123.2</ele>
        <time>2025-10-05T12:07:29.000Z</time>
      </trkpt>
      <trkpt lat="49.60399" lon="3.43414">
        <ele>123.3</ele>
        <time>2025-10-05T12:07:30.000Z</time>
      </trkpt>
      <trkpt lat="49.604" lon="3.43414">
        <ele>123.4</ele>
        <time>2025-10-05T12:07:31.000Z</time>
      </trkpt>
      <trkpt lat="49.60401" lon="3.43414">
        <ele>123.5</ele>
        <time>2025-10-05T12:07:32.000Z</time>
      </trkpt>
      <trkpt lat="49.60402" lon="3.43415">
        <ele>123.6</ele>
        <time>2025-10-05T12:07:33.000Z</time>
      </trkpt>
      <trkpt lat="49.60402" lon="3.43415">
        <ele>123.9</ele>
        <time>2025-10-05T12:07:34.000Z</time>
      </trkpt>
      <trkpt lat="49.60403" lon="3.43416">
        <ele>124.1</ele>
        <time>2025-10-05T12:07:35.000Z</time>
      </trkpt>
      <trkpt lat="49.60404" lon="3.43416">
        <ele>124.5</ele>
        <time>2025-10-05T12:07:36.000Z</time>
      </trkpt>
      <trkpt lat="49.60405" lon="3.43416">
        <ele>124.9</ele>
        <time>2025-10-05T12:07:37.000Z</time>
      </trkpt>
      <trkpt lat="49.60405" lon="3.43417">
        <ele>124.7</ele>
        <time>2025-10-05T12:07:38.000Z</time>
      </trkpt>
      <trkpt lat="49.60406" lon="3.43417">
        <ele>124.6</ele>
        <time>2025-10-05T12:07:39.000Z</time>
      </trkpt>
      <trkpt lat="49.60407" lon="3.43417">
        <ele>124.5</ele>
        <time>2025-10-05T12:07:40.000Z</time>
      </trkpt>
      <trkpt lat="49.60408" lon="3.43417">
        <ele>124.3</ele>
        <time>2025-10-05T12:07:41.000Z</time>
      </trkpt>
      <trkpt lat="49.60409" lon="3.43417">
        <ele>124</ele>
        <time>2025-10-05T12:07:42.000Z</time>
      </trkpt>
      <trkpt lat="49.6041" lon="3.43417">
        <ele>123.8</ele>
        <time>2025-10-05T12:07:43.000Z</time>
      </trkpt>
      <trkpt lat="49.60411" lon="3.43418">
        <ele>123.9</ele>
        <time>2025-10-05T12:07:44.000Z</time>
      </trkpt>
      <trkpt lat="49.60412" lon="3.43419">
        <ele>124.2</ele>
        <time>2025-10-05T12:07:45.000Z</time>
      </trkpt>
      <trkpt lat="49.60413" lon="3.43419">
        <ele>124.4</ele>
        <time>2025-10-05T12:07:46.000Z</time>
      </trkpt>
      <trkpt lat="49.60414" lon="3.4342">
        <ele>124.2</ele>
        <time>2025-10-05T12:07:47.000Z</time>
      </trkpt>
      <trkpt lat="49.60415" lon="3.4342">
        <ele>124.2</ele>
        <time>2025-10-05T12:07:48.000Z</time>
      </trkpt>
      <trkpt lat="49.60416" lon="3.43419">
        <ele>124.5</ele>
        <time>2025-10-05T12:07:49.000Z</time>
      </trkpt>
      <trkpt lat="49.60417" lon="3.4342">
        <ele>124.4</ele>
        <time>2025-10-05T12:07:50.000Z</time>
      </trkpt>
      <trkpt lat="49.60418" lon="3.4342">
        <ele>124.4</ele>
        <time>2025-10-05T12:07:51.000Z</time>
      </trkpt>
      <trkpt lat="49.6042" lon="3.43421">
        <ele>124.5</ele>
        <time>2025-10-05T12:07:52.000Z</time>
      </trkpt>
      <trkpt lat="49.60421" lon="3.43422">
        <ele>124.6</ele>
        <time>2025-10-05T12:07:53.000Z</time>
      </trkpt>
      <trkpt lat="49.60422" lon="3.43422">
        <ele>124.9</ele>
        <time>2025-10-05T12:07:54.000Z</time>
      </trkpt>
      <trkpt lat="49.60423" lon="3.43423">
        <ele>125.1</ele>
        <time>2025-10-05T12:07:55.000Z</time>
      </trkpt>
      <trkpt lat="49.60424" lon="3.43423">
        <ele>125.1</ele>
        <time>2025-10-05T12:07:56.000Z</time>
      </trkpt>
      <trkpt lat="49.60425" lon="3.43423">
        <ele>125.3</ele>
        <time>2025-10-05T12:07:57.000Z</time>
      </trkpt>
      <trkpt lat="49.60427" lon="3.43424">
        <ele>125.6</ele>
        <time>2025-10-05T12:07:58.000Z</time>
      </trkpt>
      <trkpt lat="49.60428" lon="3.43424">
        <ele>125.6</ele>
        <time>2025-10-05T12:07:59.000Z</time>
      </trkpt>
      <trkpt lat="49.60429" lon="3.43424">
        <ele>125.3</ele>
        <time>2025-10-05T12:08:00.000Z</time>
      </trkpt>
      <trkpt lat="49.6043" lon="3.43424">
        <ele>125</ele>
        <time>2025-10-05T12:08:01.000Z</time>
      </trkpt>
      <trkpt lat="49.60431" lon="3.43424">
        <ele>124.8</ele>
        <time>2025-10-05T12:08:02.000Z</time>
      </trkpt>
      <trkpt lat="49.60432" lon="3.43424">
        <ele>124.7</ele>
        <time>2025-10-05T12:08:03.000Z</time>
      </trkpt>
      <trkpt lat="49.60433" lon="3.43423">
        <ele>124.5</ele>
        <time>2025-10-05T12:08:04.000Z</time>
      </trkpt>
      <trkpt lat="49.60433" lon="3.43424">
        <ele>124.1</ele>
        <time>2025-10-05T12:08:05.000Z</time>
      </trkpt>
      <trkpt lat="49.60434" lon="3.43424">
        <ele>124.2</ele>
        <time>2025-10-05T12:08:06.000Z</time>
      </trkpt>
      <trkpt lat="49.60435" lon="3.43423">
        <ele>124.2</ele>
        <time>2025-10-05T12:08:07.000Z</time>
      </trkpt>
      <trkpt lat="49.60436" lon="3.43424">
        <ele>124.5</ele>
        <time>2025-10-05T12:08:08.000Z</time>
      </trkpt>
      <trkpt lat="49.60436" lon="3.43424">
        <ele>124.8</ele>
        <time>2025-10-05T12:08:09.000Z</time>
      </trkpt>
      <trkpt lat="49.60437" lon="3.43425">
        <ele>124.7</ele>
        <time>2025-10-05T12:08:10.000Z</time>
      </trkpt>
      <trkpt lat="49.60438" lon="3.43425">
        <ele>124.7</ele>
        <time>2025-10-05T12:08:11.000Z</time>
      </trkpt>
      <trkpt lat="49.60439" lon="3.43425">
        <ele>124.7</ele>
        <time>2025-10-05T12:08:12.000Z</time>
      </trkpt>
      <trkpt lat="49.6044" lon="3.43426">
        <ele>124.7</ele>
        <time>2025-10-05T12:08:13.000Z</time>
      </trkpt>
      <trkpt lat="49.60441" lon="3.43426">
        <ele>124.9</ele>
        <time>2025-10-05T12:08:14.000Z</time>
      </trkpt>
      <trkpt lat="49.60443" lon="3.43426">
        <ele>125.1</ele>
        <time>2025-10-05T12:08:15.000Z</time>
      </trkpt>
      <trkpt lat="49.60444" lon="3.43426">
        <ele>125.4</ele>
        <time>2025-10-05T12:08:16.000Z</time>
      </trkpt>
      <trkpt lat="49.60445" lon="3.43427">
        <ele>125.6</ele>
        <time>2025-10-05T12:08:17.000Z</time>
      </trkpt>
      <trkpt lat="49.60446" lon="3.43427">
        <ele>125.5</ele>
        <time>2025-10-05T12:08:18.000Z</time>
      </trkpt>
      <trkpt lat="49.60447" lon="3.43427">
        <ele>125.6</ele>
        <time>2025-10-05T12:08:19.000Z</time>
      </trkpt>
      <trkpt lat="49.60448" lon="3.43427">
        <ele>125.6</ele>
        <time>2025-10-05T12:08:20.000Z</time>
      </trkpt>
      <trkpt lat="49.60448" lon="3.43427">
        <ele>125.5</ele>
        <time>2025-10-05T12:08:21.000Z</time>
      </trkpt>
      <trkpt lat="49.60449" lon="3.43427">
        <ele>125.5</ele>
        <time>2025-10-05T12:08:22.000Z</time>
      </trkpt>
      <trkpt lat="49.6045" lon="3.43427">
        <ele>125.6</ele>
        <time>2025-10-05T12:08:23.000Z</time>
      </trkpt>
      <trkpt lat="49.60451" lon="3.43427">
        <ele>125.8</ele>
        <time>2025-10-05T12:08:24.000Z</time>
      </trkpt>
      <trkpt lat="49.60452" lon="3.43427">
        <ele>125.7</ele>
        <time>2025-10-05T12:08:25.000Z</time>
      </trkpt>
      <trkpt lat="49.60453" lon="3.43427">
        <ele>125.7</ele>
        <time>2025-10-05T12:08:26.000Z</time>
      </trkpt>
      <trkpt lat="49.60454" lon="3.43427">
        <ele>125.7</ele>
        <time>2025-10-05T12:08:27.000Z</time>
      </trkpt>
      <trkpt lat="49.60455" lon="3.43428">
        <ele>125.8</ele>
        <time>2025-10-05T12:08:28.000Z</time>
      </trkpt>
      <trkpt lat="49.60456" lon="3.43428">
        <ele>126</ele>
        <time>2025-10-05T12:08:29.000Z</time>
      </trkpt>
      <trkpt lat="49.60457" lon="3.43428">
        <ele>126.4</ele>
        <time>2025-10-05T12:08:30.000Z</time>
      </trkpt>
      <trkpt lat="49.60458" lon="3.43428">
        <ele>126.7</ele>
        <time>2025-10-05T12:08:31.000Z</time>
      </trkpt>
      <trkpt lat="49.60459" lon="3.43428">
        <ele>126.8</ele>
        <time>2025-10-05T12:08:32.000Z</time>
      </trkpt>
      <trkpt lat="49.60459" lon="3.43428">
        <ele>126.5</ele>
        <time>2025-10-05T12:08:33.000Z</time>
      </trkpt>
      <trkpt lat="49.6046" lon="3.43427">
        <ele>126.4</ele>
        <time>2025-10-05T12:08:34.000Z</time>
      </trkpt>
      <trkpt lat="49.6046" lon="3.43427">
        <ele>126.3</ele>
        <time>2025-10-05T12:08:35.000Z</time>
      </trkpt>
      <trkpt lat="49.60461" lon="3.43427">
        <ele>126.3</ele>
        <time>2025-10-05T12:08:36.000Z</time>
      </trkpt>
      <trkpt lat="49.60463" lon="3.43427">
        <ele>126.3</ele>
        <time>2025-10-05T12:08:37.000Z</time>
      </trkpt>
      <trkpt lat="49.60465" lon="3.43428">
        <ele>126.4</ele>
        <time>2025-10-05T12:08:38.000Z</time>
      </trkpt>
      <trkpt lat="49.60466" lon="3.43429">
        <ele>126.3</ele>
        <time>2025-10-05T12:08:39.000Z</time>
      </trkpt>
      <trkpt lat="49.60468" lon="3.43429">
        <ele>126.1</ele>
        <time>2025-10-05T12:08:40.000Z</time>
      </trkpt>
      <trkpt lat="49.60469" lon="3.4343">
        <ele>126</ele>
        <time>2025-10-05T12:08:41.000Z</time>
      </trkpt>
      <trkpt lat="49.6047" lon="3.4343">
        <ele>125.8</ele>
        <time>2025-10-05T12:08:42.000Z</time>
      </trkpt>
      <trkpt lat="49.6047" lon="3.4343">
        <ele>125.6</ele>
        <time>2025-10-05T12:08:43.000Z</time>
      </trkpt>
      <trkpt lat="49.60471" lon="3.4343">
        <ele>125.7</ele>
        <time>2025-10-05T12:08:44.000Z</time>
      </trkpt>
      <trkpt lat="49.60471" lon="3.4343">
        <ele>125.7</ele>
        <time>2025-10-05T12:08:45.000Z</time>
      </trkpt>
      <trkpt lat="49.60473" lon="3.43429">
        <ele>125.8</ele>
        <time>2025-10-05T12:08:46.000Z</time>
      </trkpt>
      <trkpt lat="49.60473" lon="3.4343">
        <ele>125.9</ele>
        <time>2025-10-05T12:08:47.000Z</time>
      </trkpt>
      <trkpt lat="49.60474" lon="3.4343">
        <ele>126.1</ele>
        <time>2025-10-05T12:08:48.000Z</time>
      </trkpt>
      <trkpt lat="49.60476" lon="3.43432">
        <ele>126</ele>
        <time>2025-10-05T12:08:49.000Z</time>
      </trkpt>
      <trkpt lat="49.60477" lon="3.43432">
        <ele>125.9</ele>
        <time>2025-10-05T12:08:50.000Z</time>
      </trkpt>
      <trkpt lat="49.60477" lon="3.43433">
        <ele>125.6</ele>
        <time>2025-10-05T12:08:51.000Z</time>
      </trkpt>
      <trkpt lat="49.60478" lon="3.43433">
        <ele>125.4</ele>
        <time>2025-10-05T12:08:52.000Z</time>
      </trkpt>
      <trkpt lat="49.60478" lon="3.43433">
        <ele>125.5</ele>
        <time>2025-10-05T12:08:53.000Z</time>
      </trkpt>
      <trkpt lat="49.60478" lon="3.43433">
        <ele>125.4</ele>
        <time>2025-10-05T12:08:54.000Z</time>
      </trkpt>
      <trkpt lat="49.60479" lon="3.43432">
        <ele>125.5</ele>
        <time>2025-10-05T12:08:55.000Z</time>
      </trkpt>
      <trkpt lat="49.6048" lon="3.43432">
        <ele>125.7</ele>
        <time>2025-10-05T12:08:56.000Z</time>
      </trkpt>
      <trkpt lat="49.60481" lon="3.43432">
        <ele>125.5</ele>
        <time>2025-10-05T12:08:57.000Z</time>
      </trkpt>
      <trkpt lat="49.60482" lon="3.43432">
        <ele>125.4</ele>
        <time>2025-10-05T12:08:58.000Z</time>
      </trkpt>
      <trkpt lat="49.60483" lon="3.43432">
        <ele>124.6</ele>
        <time>2025-10-05T12:08:59.000Z</time>
      </trkpt>
      <trkpt lat="49.60484" lon="3.43433">
        <ele>124.3</ele>
        <time>2025-10-05T12:09:00.000Z</time>
      </trkpt>
      <trkpt lat="49.60485" lon="3.43433">
        <ele>124.1</ele>
        <time>2025-10-05T12:09:01.000Z</time>
      </trkpt>
      <trkpt lat="49.60487" lon="3.43434">
        <ele>123.8</ele>
        <time>2025-10-05T12:09:02.000Z</time>
      </trkpt>
      <trkpt lat="49.60488" lon="3.43434">
        <ele>123.6</ele>
        <time>2025-10-05T12:09:03.000Z</time>
      </trkpt>
      <trkpt lat="49.60489" lon="3.43434">
        <ele>123.4</ele>
        <time>2025-10-05T12:09:04.000Z</time>
      </trkpt>
      <trkpt lat="49.6049" lon="3.43435">
        <ele>123.5</ele>
        <time>2025-10-05T12:09:05.000Z</time>
      </trkpt>
      <trkpt lat="49.60491" lon="3.43436">
        <ele>123.6</ele>
        <time>2025-10-05T12:09:06.000Z</time>
      </trkpt>
      <trkpt lat="49.60491" lon="3.43436">
        <ele>123.7</ele>
        <time>2025-10-05T12:09:07.000Z</time>
      </trkpt>
      <trkpt lat="49.60491" lon="3.43436">
        <ele>123.7</ele>
        <time>2025-10-05T12:09:08.000Z</time>
      </trkpt>
      <trkpt lat="49.60492" lon="3.43437">
        <ele>123.3</ele>
        <time>2025-10-05T12:09:09.000Z</time>
      </trkpt>
      <trkpt lat="49.60493" lon="3.43437">
        <ele>122.6</ele>
        <time>2025-10-05T12:09:10.000Z</time>
      </trkpt>
      <trkpt lat="49.60494" lon="3.43438">
        <ele>122</ele>
        <time>2025-10-05T12:09:11.000Z</time>
      </trkpt>
      <trkpt lat="49.60495" lon="3.43439">
        <ele>121.7</ele>
        <time>2025-10-05T12:09:12.000Z</time>
      </trkpt>
      <trkpt lat="49.60495" lon="3.43439">
        <ele>121.3</ele>
        <time>2025-10-05T12:09:13.000Z</time>
      </trkpt>
      <trkpt lat="49.60496" lon="3.4344">
        <ele>121.3</ele>
        <time>2025-10-05T12:09:14.000Z</time>
      </trkpt>
      <trkpt lat="49.60497" lon="3.43441">
        <ele>121.3</ele>
        <time>2025-10-05T12:09:15.000Z</time>
      </trkpt>
      <trkpt lat="49.60498" lon="3.43441">
        <ele>121.2</ele>
        <time>2025-10-05T12:09:16.000Z</time>
      </trkpt>
      <trkpt lat="49.60499" lon="3.43441">
        <ele>121.1</ele>
        <time>2025-10-05T12:09:17.000Z</time>
      </trkpt>
      <trkpt lat="49.60499" lon="3.43441">
        <ele>120.8</ele>
        <time>2025-10-05T12:09:18.000Z</time>
      </trkpt>
      <trkpt lat="49.605" lon="3.43442">
        <ele>120.7</ele>
        <time>2025-10-05T12:09:19.000Z</time>
      </trkpt>
      <trkpt lat="49.605" lon="3.43441">
        <ele>120.4</ele>
        <time>2025-10-05T12:09:20.000Z</time>
      </trkpt>
      <trkpt lat="49.60501" lon="3.43441">
        <ele>120.2</ele>
        <time>2025-10-05T12:09:21.000Z</time>
      </trkpt>
      <trkpt lat="49.60501" lon="3.43441">
        <ele>119.9</ele>
        <time>2025-10-05T12:09:22.000Z</time>
      </trkpt>
      <trkpt lat="49.60501" lon="3.43441">
        <ele>119.9</ele>
        <time>2025-10-05T12:09:23.000Z</time>
      </trkpt>
      <trkpt lat="49.60502" lon="3.43441">
        <ele>119.8</ele>
        <time>2025-10-05T12:09:24.000Z</time>
      </trkpt>
      <trkpt lat="49.60503" lon="3.43441">
        <ele>119.7</ele>
        <time>2025-10-05T12:09:25.000Z</time>
      </trkpt>
      <trkpt lat="49.60503" lon="3.43441">
        <ele>119.5</ele>
        <time>2025-10-05T12:09:26.000Z</time>
      </trkpt>
      <trkpt lat="49.60505" lon="3.43442">
        <ele>119.3</ele>
        <time>2025-10-05T12:09:27.000Z</time>
      </trkpt>
      <trkpt lat="49.60505" lon="3.43442">
        <ele>119.2</ele>
        <time>2025-10-05T12:09:28.000Z</time>
      </trkpt>
      <trkpt lat="49.60506" lon="3.43442">
        <ele>119</ele>
        <time>2025-10-05T12:09:29.000Z</time>
      </trkpt>
      <trkpt lat="49.60507" lon="3.43442">
        <ele>118.6</ele>
        <time>2025-10-05T12:09:30.000Z</time>
      </trkpt>
      <trkpt lat="49.60507" lon="3.43442">
        <ele>118.5</ele>
        <time>2025-10-05T12:09:31.000Z</time>
      </trkpt>
      <trkpt lat="49.60508" lon="3.43442">
        <ele>118.3</ele>
        <time>2025-10-05T12:09:32.000Z</time>
      </trkpt>
      <trkpt lat="49.6051" lon="3.43442">
        <ele>118.2</ele>
        <time>2025-10-05T12:09:33.000Z</time>
      </trkpt>
      <trkpt lat="49.60511" lon="3.43442">
        <ele>118.3</ele>
        <time>2025-10-05T12:09:34.000Z</time>
      </trkpt>
      <trkpt lat="49.60512" lon="3.43442">
        <ele>118.2</ele>
        <time>2025-10-05T12:09:35.000Z</time>
      </trkpt>
      <trkpt lat="49.60513" lon="3.43442">
        <ele>118.1</ele>
        <time>2025-10-05T12:09:36.000Z</time>
      </trkpt>
      <trkpt lat="49.60514" lon="3.43442">
        <ele>117.8</ele>
        <time>2025-10-05T12:09:37.000Z</time>
      </trkpt>
      <trkpt lat="49.60515" lon="3.43442">
        <ele>117.6</ele>
        <time>2025-10-05T12:09:38.000Z</time>
      </trkpt>
      <trkpt lat="49.60516" lon="3.43442">
        <ele>117.7</ele>
        <time>2025-10-05T12:09:39.000Z</time>
      </trkpt>
      <trkpt lat="49.60517" lon="3.43442">
        <ele>118</ele>
        <time>2025-10-05T12:09:40.000Z</time>
      </trkpt>
      <trkpt lat="49.60518" lon="3.43443">
        <ele>118.2</ele>
        <time>2025-10-05T12:09:41.000Z</time>
      </trkpt>
      <trkpt lat="49.60519" lon="3.43443">
        <ele>118.1</ele>
        <time>2025-10-05T12:09:42.000Z</time>
      </trkpt>
      <trkpt lat="49.6052" lon="3.43443">
        <ele>117.9</ele>
        <time>2025-10-05T12:09:43.000Z</time>
      </trkpt>
      <trkpt lat="49.60522" lon="3.43444">
        <ele>118</ele>
        <time>2025-10-05T12:09:44.000Z</time>
      </trkpt>
      <trkpt lat="49.60523" lon="3.43444">
        <ele>118</ele>
        <time>2025-10-05T12:09:45.000Z</time>
      </trkpt>
      <trkpt lat="49.60524" lon="3.43444">
        <ele>118</ele>
        <time>2025-10-05T12:09:46.000Z</time>
      </trkpt>
      <trkpt lat="49.60525" lon="3.43443">
        <ele>117.9</ele>
        <time>2025-10-05T12:09:47.000Z</time>
      </trkpt>
      <trkpt lat="49.60526" lon="3.43443">
        <ele>117.6</ele>
        <time>2025-10-05T12:09:48.000Z</time>
      </trkpt>
      <trkpt lat="49.60526" lon="3.43443">
        <ele>117.6</ele>
        <time>2025-10-05T12:09:49.000Z</time>
      </trkpt>
      <trkpt lat="49.60527" lon="3.43443">
        <ele>117.6</ele>
        <time>2025-10-05T12:09:50.000Z</time>
      </trkpt>
      <trkpt lat="49.60528" lon="3.43443">
        <ele>117.5</ele>
        <time>2025-10-05T12:09:51.000Z</time>
      </trkpt>
      <trkpt lat="49.60529" lon="3.43443">
        <ele>117.4</ele>
        <time>2025-10-05T12:09:52.000Z</time>
      </trkpt>
      <trkpt lat="49.6053" lon="3.43444">
        <ele>117.2</ele>
        <time>2025-10-05T12:09:53.000Z</time>
      </trkpt>
      <trkpt lat="49.60531" lon="3.43444">
        <ele>117</ele>
        <time>2025-10-05T12:09:54.000Z</time>
      </trkpt>
      <trkpt lat="49.60532" lon="3.43444">
        <ele>116.9</ele>
        <time>2025-10-05T12:09:55.000Z</time>
      </trkpt>
      <trkpt lat="49.60533" lon="3.43443">
        <ele>117</ele>
        <time>2025-10-05T12:09:56.000Z</time>
      </trkpt>
      <trkpt lat="49.60534" lon="3.43443">
        <ele>117</ele>
        <time>2025-10-05T12:09:57.000Z</time>
      </trkpt>
      <trkpt lat="49.60535" lon="3.43443">
        <ele>117.1</ele>
        <time>2025-10-05T12:09:58.000Z</time>
      </trkpt>
      <trkpt lat="49.60537" lon="3.43442">
        <ele>117.3</ele>
        <time>2025-10-05T12:09:59.000Z</time>
      </trkpt>
      <trkpt lat="49.60538" lon="3.43442">
        <ele>117.4</ele>
        <time>2025-10-05T12:10:00.000Z</time>
      </trkpt>
      <trkpt lat="49.6054" lon="3.43442">
        <ele>117.4</ele>
        <time>2025-10-05T12:10:01.000Z</time>
      </trkpt>
      <trkpt lat="49.6054" lon="3.43442">
        <ele>117.5</ele>
        <time>2025-10-05T12:10:02.000Z</time>
      </trkpt>
      <trkpt lat="49.60541" lon="3.43442">
        <ele>117.5</ele>
        <time>2025-10-05T12:10:03.000Z</time>
      </trkpt>
      <trkpt lat="49.60542" lon="3.43442">
        <ele>117.6</ele>
        <time>2025-10-05T12:10:04.000Z</time>
      </trkpt>
      <trkpt lat="49.60542" lon="3.43441">
        <ele>117.8</ele>
        <time>2025-10-05T12:10:05.000Z</time>
      </trkpt>
      <trkpt lat="49.60543" lon="3.43441">
        <ele>118.1</ele>
        <time>2025-10-05T12:10:06.000Z</time>
      </trkpt>
      <trkpt lat="49.60543" lon="3.43441">
        <ele>118.3</ele>
        <time>2025-10-05T12:10:07.000Z</time>
      </trkpt>
      <trkpt lat="49.60545" lon="3.43441">
        <ele>118.6</ele>
        <time>2025-10-05T12:10:08.000Z</time>
      </trkpt>
      <trkpt lat="49.60546" lon="3.43441">
        <ele>118.8</ele>
        <time>2025-10-05T12:10:09.000Z</time>
      </trkpt>
      <trkpt lat="49.60546" lon="3.43441">
        <ele>119.1</ele>
        <time>2025-10-05T12:10:10.000Z</time>
      </trkpt>
      <trkpt lat="49.60546" lon="3.4344">
        <ele>119.2</ele>
        <time>2025-10-05T12:10:11.000Z</time>
      </trkpt>
      <trkpt lat="49.60547" lon="3.43439">
        <ele>119.3</ele>
        <time>2025-10-05T12:10:12.000Z</time>
      </trkpt>
      <trkpt lat="49.60548" lon="3.43438">
        <ele>119.5</ele>
        <time>2025-10-05T12:10:13.000Z</time>
      </trkpt>
      <trkpt lat="49.60549" lon="3.43438">
        <ele>119.7</ele>
        <time>2025-10-05T12:10:14.000Z</time>
      </trkpt>
      <trkpt lat="49.6055" lon="3.43438">
        <ele>120</ele>
        <time>2025-10-05T12:10:15.000Z</time>
      </trkpt>
      <trkpt lat="49.60552" lon="3.43437">
        <ele>119.8</ele>
        <time>2025-10-05T12:10:16.000Z</time>
      </trkpt>
      <trkpt lat="49.60553" lon="3.43437">
        <ele>119.5</ele>
        <time>2025-10-05T12:10:17.000Z</time>
      </trkpt>
      <trkpt lat="49.60554" lon="3.43437">
        <ele>119.1</ele>
        <time>2025-10-05T12:10:18.000Z</time>
      </trkpt>
      <trkpt lat="49.60555" lon="3.43437">
        <ele>118.6</ele>
        <time>2025-10-05T12:10:19.000Z</time>
      </trkpt>
      <trkpt lat="49.60556" lon="3.43436">
        <ele>118.3</ele>
        <time>2025-10-05T12:10:20.000Z</time>
      </trkpt>
      <trkpt lat="49.60556" lon="3.43436">
        <ele>118.3</ele>
        <time>2025-10-05T12:10:21.000Z</time>
      </trkpt>
      <trkpt lat="49.60557" lon="3.43436">
        <ele>118.5</ele>
        <time>2025-10-05T12:10:22.000Z</time>
      </trkpt>
      <trkpt lat="49.60558" lon="3.43436">
        <ele>118.9</ele>
        <time>2025-10-05T12:10:23.000Z</time>
      </trkpt>
      <trkpt lat="49.60559" lon="3.43436">
        <ele>118.9</ele>
        <time>2025-10-05T12:10:24.000Z</time>
      </trkpt>
      <trkpt lat="49.6056" lon="3.43436">
        <ele>119</ele>
        <time>2025-10-05T12:10:25.000Z</time>
      </trkpt>
      <trkpt lat="49.60561" lon="3.43435">
        <ele>119</ele>
        <time>2025-10-05T12:10:26.000Z</time>
      </trkpt>
      <trkpt lat="49.60563" lon="3.43435">
        <ele>118.9</ele>
        <time>2025-10-05T12:10:27.000Z</time>
      </trkpt>
      <trkpt lat="49.60564" lon="3.43435">
        <ele>118.8</ele>
        <time>2025-10-05T12:10:28.000Z</time>
      </trkpt>
      <trkpt lat="49.60565" lon="3.43435">
        <ele>118.8</ele>
        <time>2025-10-05T12:10:29.000Z</time>
      </trkpt>
      <trkpt lat="49.60567" lon="3.43435">
        <ele>119.1</ele>
        <time>2025-10-05T12:10:30.000Z</time>
      </trkpt>
      <trkpt lat="49.60568" lon="3.43435">
        <ele>119.1</ele>
        <time>2025-10-05T12:10:31.000Z</time>
      </trkpt>
      <trkpt lat="49.6057" lon="3.43436">
        <ele>119.1</ele>
        <time>2025-10-05T12:10:32.000Z</time>
      </trkpt>
      <trkpt lat="49.60571" lon="3.43436">
        <ele>118.9</ele>
        <time>2025-10-05T12:10:33.000Z</time>
      </trkpt>
      <trkpt lat="49.60571" lon="3.43436">
        <ele>118.7</ele>
        <time>2025-10-05T12:10:34.000Z</time>
      </trkpt>
      <trkpt lat="49.60572" lon="3.43436">
        <ele>118.7</ele>
        <time>2025-10-05T12:10:35.000Z</time>
      </trkpt>
      <trkpt lat="49.60573" lon="3.43436">
        <ele>118.9</ele>
        <time>2025-10-05T12:10:36.000Z</time>
      </trkpt>
      <trkpt lat="49.60573" lon="3.43436">
        <ele>119</ele>
        <time>2025-10-05T12:10:37.000Z</time>
      </trkpt>
      <trkpt lat="49.60574" lon="3.43436">
        <ele>119.2</ele>
        <time>2025-10-05T12:10:38.000Z</time>
      </trkpt>
      <trkpt lat="49.60575" lon="3.43436">
        <ele>119.4</ele>
        <time>2025-10-05T12:10:39.000Z</time>
      </trkpt>
      <trkpt lat="49.60576" lon="3.43436">
        <ele>119.6</ele>
        <time>2025-10-05T12:10:40.000Z</time>
      </trkpt>
      <trkpt lat="49.60578" lon="3.43436">
        <ele>119.7</ele>
        <time>2025-10-05T12:10:41.000Z</time>
      </trkpt>
      <trkpt lat="49.60578" lon="3.43437">
        <ele>119.9</ele>
        <time>2025-10-05T12:10:42.000Z</time>
      </trkpt>
      <trkpt lat="49.60579" lon="3.43437">
        <ele>119.6</ele>
        <time>2025-10-05T12:10:43.000Z</time>
      </trkpt>
      <trkpt lat="49.6058" lon="3.43439">
        <ele>119.4</ele>
        <time>2025-10-05T12:10:44.000Z</time>
      </trkpt>
      <trkpt lat="49.6058" lon="3.43441">
        <ele>119.6</ele>
        <time>2025-10-05T12:10:45.000Z</time>
      </trkpt>
      <trkpt lat="49.6058" lon="3.43442">
        <ele>120.1</ele>
        <time>2025-10-05T12:10:46.000Z</time>
      </trkpt>
      <trkpt lat="49.6058" lon="3.43442">
        <ele>120.4</ele>
        <time>2025-10-05T12:10:47.000Z</time>
      </trkpt>
      <trkpt lat="49.6058" lon="3.43443">
        <ele>120.7</ele>
        <time>2025-10-05T12:10:48.000Z</time>
      </trkpt>
      <trkpt lat="49.6058" lon="3.43444">
        <ele>121</ele>
        <time>2025-10-05T12:10:49.000Z</time>
      </trkpt>
      <trkpt lat="49.60581" lon="3.43444">
        <ele>121.2</ele>
        <time>2025-10-05T12:10:50.000Z</time>
      </trkpt>
      <trkpt lat="49.6058" lon="3.43445">
        <ele>121.3</ele>
        <time>2025-10-05T12:10:51.000Z</time>
      </trkpt>
      <trkpt lat="49.6058" lon="3.43445">
        <ele>121.7</ele>
        <time>2025-10-05T12:10:52.000Z</time>
      </trkpt>
      <trkpt lat="49.6058" lon="3.43446">
        <ele>122.1</ele>
        <time>2025-10-05T12:10:53.000Z</time>
      </trkpt>
      <trkpt lat="49.60579" lon="3.43446">
        <ele>122.4</ele>
        <time>2025-10-05T12:10:54.000Z</time>
      </trkpt>
      <trkpt lat="49.60579" lon="3.43446">
        <ele>122.4</ele>
        <time>2025-10-05T12:10:55.000Z</time>
      </trkpt>
      <trkpt lat="49.60579" lon="3.43446">
        <ele>122.4</ele>
        <time>2025-10-05T12:10:56.000Z</time>
      </trkpt>
      <trkpt lat="49.60579" lon="3.43446">
        <ele>122.4</ele>
        <time>2025-10-05T12:10:57.000Z</time>
      </trkpt>
      <trkpt lat="49.60579" lon="3.43446">
        <ele>122.4</ele>
        <time>2025-10-05T12:10:58.000Z</time>
      </trkpt>
      <trkpt lat="49.60579" lon="3.43446">
        <ele>122.4</ele>
        <time>2025-10-05T12:10:59.000Z</time>
      </trkpt>
      <trkpt lat="49.60579" lon="3.43446">
        <ele>122.4</ele>
        <time>2025-10-05T12:11:00.000Z</time>
      </trkpt>
      <trkpt lat="49.60579" lon="3.43446">
        <ele>122.4</ele>
        <time>2025-10-05T12:11:01.000Z</time>
      </trkpt>
      <trkpt lat="49.60579" lon="3.43446">
        <ele>122.4</ele>
        <time>2025-10-05T12:11:02.000Z</time>
      </trkpt>
      <trkpt lat="49.60579" lon="3.43446">
        <ele>122.4</ele>
        <time>2025-10-05T12:11:03.000Z</time>
      </trkpt>
      <trkpt lat="49.60579" lon="3.43446">
        <ele>122.4</ele>
        <time>2025-10-05T12:11:04.000Z</time>
      </trkpt>
      <trkpt lat="49.60579" lon="3.43446">
        <ele>122.4</ele>
        <time>2025-10-05T12:11:05.000Z</time>
      </trkpt>
      <trkpt lat="49.60579" lon="3.43446">
        <ele>122.4</ele>
        <time>2025-10-05T12:11:06.000Z</time>
      </trkpt>
      <trkpt lat="49.60579" lon="3.43446">
        <ele>122.4</ele>
        <time>2025-10-05T12:11:07.000Z</time>
      </trkpt>
      <trkpt lat="49.60579" lon="3.43446">
        <ele>122.4</ele>
        <time>2025-10-05T12:11:08.000Z</time>
      </trkpt>
      <trkpt lat="49.60579" lon="3.43446">
        <ele>122.4</ele>
        <time>2025-10-05T12:11:09.000Z</time>
      </trkpt>
      <trkpt lat="49.60579" lon="3.43446">
        <ele>122.4</ele>
        <time>2025-10-05T12:11:10.000Z</time>
      </trkpt>
      <trkpt lat="49.60579" lon="3.43446">
        <ele>122.4</ele>
        <time>2025-10-05T12:11:11.000Z</time>
      </trkpt>
      <trkpt lat="49.60579" lon="3.43446">
        <ele>122.4</ele>
        <time>2025-10-05T12:11:12.000Z</time>
      </trkpt>
      <trkpt lat="49.60579" lon="3.43446">
        <ele>122.4</ele>
        <time>2025-10-05T12:11:13.000Z</time>
      </trkpt>
      <trkpt lat="49.60579" lon="3.43446">
        <ele>122.4</ele>
        <time>2025-10-05T12:11:14.000Z</time>
      </trkpt>
      <trkpt lat="49.60579" lon="3.43446">
        <ele>122.4</ele>
        <time>2025-10-05T12:11:15.000Z</time>
      </trkpt>
      <trkpt lat="49.60579" lon="3.43446">
        <ele>122.4</ele>
        <time>2025-10-05T12:11:16.000Z</time>
      </trkpt>
      <trkpt lat="49.60579" lon="3.43446">
        <ele>122.4</ele>
        <time>2025-10-05T12:11:17.000Z</time>
      </trkpt>
      <trkpt lat="49.60579" lon="3.43446">
        <ele>122.4</ele>
        <time>2025-10-05T12:11:18.000Z</time>
      </trkpt>
      <trkpt lat="49.60579" lon="3.43446">
        <ele>122.4</ele>
        <time>2025-10-05T12:11:19.000Z</time>
      </trkpt>
      <trkpt lat="49.60579" lon="3.43446">
        <ele>122.4</ele>
        <time>2025-10-05T12:11:20.000Z</time>
      </trkpt>
      <trkpt lat="49.60579" lon="3.43446">
        <ele>122.4</ele>
        <time>2025-10-05T12:11:21.000Z</time>
      </trkpt>
      <trkpt lat="49.60579" lon="3.43446">
        <ele>122.4</ele>
        <time>2025-10-05T12:11:22.000Z</time>
      </trkpt>
      <trkpt lat="49.60579" lon="3.43446">
        <ele>122.4</ele>
        <time>2025-10-05T12:11:23.000Z</time>
      </trkpt>
      <trkpt lat="49.60579" lon="3.43446">
        <ele>122.4</ele>
        <time>2025-10-05T12:11:24.000Z</time>
      </trkpt>
      <trkpt lat="49.60579" lon="3.43446">
        <ele>122.4</ele>
        <time>2025-10-05T12:11:25.000Z</time>
      </trkpt>
      <trkpt lat="49.60579" lon="3.43446">
        <ele>122.4</ele>
        <time>2025-10-05T12:11:26.000Z</time>
      </trkpt>
      <trkpt lat="49.60579" lon="3.43446">
        <ele>122.4</ele>
        <time>2025-10-05T12:11:27.000Z</time>
      </trkpt>
      <trkpt lat="49.60579" lon="3.43446">
        <ele>122.4</ele>
        <time>2025-10-05T12:11:28.000Z</time>
      </trkpt>
      <trkpt lat="49.60579" lon="3.43446">
        <ele>122.4</ele>
        <time>2025-10-05T12:11:29.000Z</time>
      </trkpt>
      <trkpt lat="49.60579" lon="3.43446">
        <ele>122.4</ele>
        <time>2025-10-05T12:11:30.000Z</time>
      </trkpt>
      <trkpt lat="49.60579" lon="3.43446">
        <ele>122.4</ele>
        <time>2025-10-05T12:11:31.000Z</time>
      </trkpt>
      <trkpt lat="49.60579" lon="3.43446">
        <ele>122.4</ele>
        <time>2025-10-05T12:11:32.000Z</time>
      </trkpt>
      <trkpt lat="49.60579" lon="3.43446">
        <ele>122.4</ele>
        <time>2025-10-05T12:11:33.000Z</time>
      </trkpt>
      <trkpt lat="49.60579" lon="3.43446">
        <ele>122.4</ele>
        <time>2025-10-05T12:11:34.000Z</time>
      </trkpt>
      <trkpt lat="49.60579" lon="3.43446">
        <ele>122.4</ele>
        <time>2025-10-05T12:11:35.000Z</time>
      </trkpt>
      <trkpt lat="49.60579" lon="3.43446">
        <ele>122.4</ele>
        <time>2025-10-05T12:11:36.000Z</time>
      </trkpt>
      <trkpt lat="49.60579" lon="3.43446">
        <ele>122.4</ele>
        <time>2025-10-05T12:11:37.000Z</time>
      </trkpt>
      <trkpt lat="49.60579" lon="3.43446">
        <ele>122.4</ele>
        <time>2025-10-05T12:11:38.000Z</time>
      </trkpt>
      <trkpt lat="49.60579" lon="3.43446">
        <ele>122.4</ele>
        <time>2025-10-05T12:11:39.000Z</time>
      </trkpt>
      <trkpt lat="49.60579" lon="3.43446">
        <ele>122.4</ele>
        <time>2025-10-05T12:11:40.000Z</time>
      </trkpt>
      <trkpt lat="49.60579" lon="3.43446">
        <ele>122.4</ele>
        <time>2025-10-05T12:11:41.000Z</time>
      </trkpt>
      <trkpt lat="49.60579" lon="3.43446">
        <ele>122.4</ele>
        <time>2025-10-05T12:11:42.000Z</time>
      </trkpt>
      <trkpt lat="49.60579" lon="3.43446">
        <ele>122.4</ele>
        <time>2025-10-05T12:11:43.000Z</time>
      </trkpt>
      <trkpt lat="49.60579" lon="3.43446">
        <ele>122.4</ele>
        <time>2025-10-05T12:11:44.000Z</time>
      </trkpt>
      <trkpt lat="49.60579" lon="3.43446">
        <ele>122.4</ele>
        <time>2025-10-05T12:11:45.000Z</time>
      </trkpt>
      <trkpt lat="49.60579" lon="3.43446">
        <ele>122.4</ele>
        <time>2025-10-05T12:11:46.000Z</time>
      </trkpt>
      <trkpt lat="49.60579" lon="3.43446">
        <ele>122.4</ele>
        <time>2025-10-05T12:11:47.000Z</time>
      </trkpt>
      <trkpt lat="49.60579" lon="3.43446">
        <ele>122.4</ele>
        <time>2025-10-05T12:11:48.000Z</time>
      </trkpt>
      <trkpt lat="49.60579" lon="3.43446">
        <ele>122.4</ele>
        <time>2025-10-05T12:11:49.000Z</time>
      </trkpt>
      <trkpt lat="49.60579" lon="3.43446">
        <ele>122.4</ele>
        <time>2025-10-05T12:11:50.000Z</time>
      </trkpt>
      <trkpt lat="49.60579" lon="3.43446">
        <ele>122.4</ele>
        <time>2025-10-05T12:11:51.000Z</time>
      </trkpt>
      <trkpt lat="49.60579" lon="3.43446">
        <ele>122.4</ele>
        <time>2025-10-05T12:11:52.000Z</time>
      </trkpt>
      <trkpt lat="49.60579" lon="3.43446">
        <ele>122.4</ele>
        <time>2025-10-05T12:11:53.000Z</time>
      </trkpt>
      <trkpt lat="49.60579" lon="3.43446">
        <ele>122.4</ele>
        <time>2025-10-05T12:11:54.000Z</time>
      </trkpt>
      <trkpt lat="49.60579" lon="3.43446">
        <ele>122.4</ele>
        <time>2025-10-05T12:11:55.000Z</time>
      </trkpt>
      <trkpt lat="49.60579" lon="3.43446">
        <ele>122.4</ele>
        <time>2025-10-05T12:11:56.000Z</time>
      </trkpt>
      <trkpt lat="49.60579" lon="3.43446">
        <ele>122.4</ele>
        <time>2025-10-05T12:11:57.000Z</time>
      </trkpt>
      <trkpt lat="49.60579" lon="3.43446">
        <ele>122.4</ele>
        <time>2025-10-05T12:11:58.000Z</time>
      </trkpt>
      <trkpt lat="49.60579" lon="3.43446">
        <ele>122.4</ele>
        <time>2025-10-05T12:11:59.000Z</time>
      </trkpt>
      <trkpt lat="49.60579" lon="3.43446">
        <ele>122.4</ele>
        <time>2025-10-05T12:12:00.000Z</time>
      </trkpt>
      <trkpt lat="49.60579" lon="3.43446">
        <ele>122.4</ele>
        <time>2025-10-05T12:12:01.000Z</time>
      </trkpt>
      <trkpt lat="49.60579" lon="3.43446">
        <ele>122.4</ele>
        <time>2025-10-05T12:12:02.000Z</time>
      </trkpt>
      <trkpt lat="49.60579" lon="3.43446">
        <ele>122.4</ele>
        <time>2025-10-05T12:12:03.000Z</time>
      </trkpt>
      <trkpt lat="49.60579" lon="3.43446">
        <ele>122.4</ele>
        <time>2025-10-05T12:12:04.000Z</time>
      </trkpt>
      <trkpt lat="49.60579" lon="3.43446">
        <ele>122.4</ele>
        <time>2025-10-05T12:12:05.000Z</time>
      </trkpt>
      <trkpt lat="49.60579" lon="3.43446">
        <ele>122.4</ele>
        <time>2025-10-05T12:12:06.000Z</time>
      </trkpt>
      <trkpt lat="49.60579" lon="3.43446">
        <ele>122.4</ele>
        <time>2025-10-05T12:12:07.000Z</time>
      </trkpt>
      <trkpt lat="49.60579" lon="3.43446">
        <ele>122.4</ele>
        <time>2025-10-05T12:12:08.000Z</time>
      </trkpt>
      <trkpt lat="49.60579" lon="3.43446">
        <ele>122.4</ele>
        <time>2025-10-05T12:12:09.000Z</time>
      </trkpt>
      <trkpt lat="49.60579" lon="3.43446">
        <ele>122.4</ele>
        <time>2025-10-05T12:12:10.000Z</time>
      </trkpt>
      <trkpt lat="49.60579" lon="3.43446">
        <ele>122.4</ele>
        <time>2025-10-05T12:12:11.000Z</time>
      </trkpt>
      <trkpt lat="49.60579" lon="3.43446">
        <ele>122.4</ele>
        <time>2025-10-05T12:12:12.000Z</time>
      </trkpt>
      <trkpt lat="49.60579" lon="3.43446">
        <ele>122.4</ele>
        <time>2025-10-05T12:12:13.000Z</time>
      </trkpt>
      <trkpt lat="49.60579" lon="3.43446">
        <ele>122.4</ele>
        <time>2025-10-05T12:12:14.000Z</time>
      </trkpt>
      <trkpt lat="49.60579" lon="3.43446">
        <ele>122.4</ele>
        <time>2025-10-05T12:12:15.000Z</time>
      </trkpt>
      <trkpt lat="49.60579" lon="3.43446">
        <ele>122.4</ele>
        <time>2025-10-05T12:12:16.000Z</time>
      </trkpt>
      <trkpt lat="49.60579" lon="3.43446">
        <ele>122.4</ele>
        <time>2025-10-05T12:12:17.000Z</time>
      </trkpt>
      <trkpt lat="49.60579" lon="3.43446">
        <ele>122.4</ele>
        <time>2025-10-05T12:12:18.000Z</time>
      </trkpt>
      <trkpt lat="49.60579" lon="3.43446">
        <ele>122.4</ele>
        <time>2025-10-05T12:12:19.000Z</time>
      </trkpt>
      <trkpt lat="49.60579" lon="3.43446">
        <ele>122.4</ele>
        <time>2025-10-05T12:12:20.000Z</time>
      </trkpt>
      <trkpt lat="49.60579" lon="3.43446">
        <ele>122.4</ele>
        <time>2025-10-05T12:12:21.000Z</time>
      </trkpt>
      <trkpt lat="49.60579" lon="3.43446">
        <ele>122.4</ele>
        <time>2025-10-05T12:12:22.000Z</time>
      </trkpt>
      <trkpt lat="49.60579" lon="3.43446">
        <ele>122.4</ele>
        <time>2025-10-05T12:12:23.000Z</time>
      </trkpt>
      <trkpt lat="49.60579" lon="3.43446">
        <ele>122.4</ele>
        <time>2025-10-05T12:12:24.000Z</time>
      </trkpt>
      <trkpt lat="49.60579" lon="3.43446">
        <ele>122.4</ele>
        <time>2025-10-05T12:12:25.000Z</time>
      </trkpt>
      <trkpt lat="49.60579" lon="3.43446">
        <ele>122.4</ele>
        <time>2025-10-05T12:12:26.000Z</time>
      </trkpt>
      <trkpt lat="49.60581" lon="3.43442">
        <ele>121.1</ele>
        <time>2025-10-05T12:12:27.000Z</time>
      </trkpt>
      <trkpt lat="49.60582" lon="3.43441">
        <ele>121.2</ele>
        <time>2025-10-05T12:12:28.000Z</time>
      </trkpt>
      <trkpt lat="49.60583" lon="3.4344">
        <ele>121.2</ele>
        <time>2025-10-05T12:12:29.000Z</time>
      </trkpt>
      <trkpt lat="49.60584" lon="3.43439">
        <ele>121.1</ele>
        <time>2025-10-05T12:12:30.000Z</time>
      </trkpt>
      <trkpt lat="49.60585" lon="3.43438">
        <ele>121.3</ele>
        <time>2025-10-05T12:12:31.000Z</time>
      </trkpt>
      <trkpt lat="49.60587" lon="3.43438">
        <ele>121.5</ele>
        <time>2025-10-05T12:12:32.000Z</time>
      </trkpt>
      <trkpt lat="49.60589" lon="3.43438">
        <ele>121.8</ele>
        <time>2025-10-05T12:12:33.000Z</time>
      </trkpt>
      <trkpt lat="49.6059" lon="3.43439">
        <ele>122.1</ele>
        <time>2025-10-05T12:12:34.000Z</time>
      </trkpt>
      <trkpt lat="49.60591" lon="3.43439">
        <ele>122.4</ele>
        <time>2025-10-05T12:12:35.000Z</time>
      </trkpt>
      <trkpt lat="49.60592" lon="3.4344">
        <ele>122.6</ele>
        <time>2025-10-05T12:12:36.000Z</time>
      </trkpt>
      <trkpt lat="49.60593" lon="3.4344">
        <ele>122.9</ele>
        <time>2025-10-05T12:12:37.000Z</time>
      </trkpt>
      <trkpt lat="49.60594" lon="3.4344">
        <ele>123</ele>
        <time>2025-10-05T12:12:38.000Z</time>
      </trkpt>
      <trkpt lat="49.60594" lon="3.4344">
        <ele>123.2</ele>
        <time>2025-10-05T12:12:39.000Z</time>
      </trkpt>
      <trkpt lat="49.60595" lon="3.43439">
        <ele>123.2</ele>
        <time>2025-10-05T12:12:40.000Z</time>
      </trkpt>
      <trkpt lat="49.60596" lon="3.43439">
        <ele>123.8</ele>
        <time>2025-10-05T12:12:41.000Z</time>
      </trkpt>
      <trkpt lat="49.60597" lon="3.4344">
        <ele>124.3</ele>
        <time>2025-10-05T12:12:42.000Z</time>
      </trkpt>
      <trkpt lat="49.60597" lon="3.43441">
        <ele>124.4</ele>
        <time>2025-10-05T12:12:43.000Z</time>
      </trkpt>
      <trkpt lat="49.60598" lon="3.43443">
        <ele>124.5</ele>
        <time>2025-10-05T12:12:44.000Z</time>
      </trkpt>
      <trkpt lat="49.60599" lon="3.43442">
        <ele>124.8</ele>
        <time>2025-10-05T12:12:45.000Z</time>
      </trkpt>
      <trkpt lat="49.606" lon="3.43443">
        <ele>125</ele>
        <time>2025-10-05T12:12:46.000Z</time>
      </trkpt>
      <trkpt lat="49.606" lon="3.43443">
        <ele>125</ele>
        <time>2025-10-05T12:12:47.000Z</time>
      </trkpt>
      <trkpt lat="49.60601" lon="3.43444">
        <ele>124.8</ele>
        <time>2025-10-05T12:12:48.000Z</time>
      </trkpt>
      <trkpt lat="49.60601" lon="3.43444">
        <ele>124.9</ele>
        <time>2025-10-05T12:12:49.000Z</time>
      </trkpt>
      <trkpt lat="49.60602" lon="3.43445">
        <ele>125</ele>
        <time>2025-10-05T12:12:50.000Z</time>
      </trkpt>
      <trkpt lat="49.60604" lon="3.43445">
        <ele>124.9</ele>
        <time>2025-10-05T12:12:51.000Z</time>
      </trkpt>
      <trkpt lat="49.60605" lon="3.43446">
        <ele>124.5</ele>
        <time>2025-10-05T12:12:52.000Z</time>
      </trkpt>
      <trkpt lat="49.60606" lon="3.43447">
        <ele>124.2</ele>
        <time>2025-10-05T12:12:53.000Z</time>
      </trkpt>
      <trkpt lat="49.60607" lon="3.43448">
        <ele>124.2</ele>
        <time>2025-10-05T12:12:54.000Z</time>
      </trkpt>
      <trkpt lat="49.60608" lon="3.43447">
        <ele>124</ele>
        <time>2025-10-05T12:12:55.000Z</time>
      </trkpt>
      <trkpt lat="49.60609" lon="3.43448">
        <ele>123.8</ele>
        <time>2025-10-05T12:12:56.000Z</time>
      </trkpt>
      <trkpt lat="49.6061" lon="3.43448">
        <ele>123.8</ele>
        <time>2025-10-05T12:12:57.000Z</time>
      </trkpt>
      <trkpt lat="49.60611" lon="3.43448">
        <ele>124.1</ele>
        <time>2025-10-05T12:12:58.000Z</time>
      </trkpt>
      <trkpt lat="49.60612" lon="3.43449">
        <ele>124.4</ele>
        <time>2025-10-05T12:12:59.000Z</time>
      </trkpt>
      <trkpt lat="49.60613" lon="3.43449">
        <ele>124.5</ele>
        <time>2025-10-05T12:13:00.000Z</time>
      </trkpt>
      <trkpt lat="49.60613" lon="3.43448">
        <ele>124.9</ele>
        <time>2025-10-05T12:13:01.000Z</time>
      </trkpt>
      <trkpt lat="49.60614" lon="3.43448">
        <ele>125.2</ele>
        <time>2025-10-05T12:13:02.000Z</time>
      </trkpt>
      <trkpt lat="49.60614" lon="3.43447">
        <ele>125.2</ele>
        <time>2025-10-05T12:13:03.000Z</time>
      </trkpt>
      <trkpt lat="49.60615" lon="3.43447">
        <ele>125</ele>
        <time>2025-10-05T12:13:04.000Z</time>
      </trkpt>
      <trkpt lat="49.60615" lon="3.43447">
        <ele>125.1</ele>
        <time>2025-10-05T12:13:05.000Z</time>
      </trkpt>
      <trkpt lat="49.60616" lon="3.43447">
        <ele>125.1</ele>
        <time>2025-10-05T12:13:06.000Z</time>
      </trkpt>
      <trkpt lat="49.60617" lon="3.43447">
        <ele>124.8</ele>
        <time>2025-10-05T12:13:07.000Z</time>
      </trkpt>
      <trkpt lat="49.60618" lon="3.43448">
        <ele>125.1</ele>
        <time>2025-10-05T12:13:08.000Z</time>
      </trkpt>
      <trkpt lat="49.60618" lon="3.43448">
        <ele>125.4</ele>
        <time>2025-10-05T12:13:09.000Z</time>
      </trkpt>
      <trkpt lat="49.60619" lon="3.43448">
        <ele>125.5</ele>
        <time>2025-10-05T12:13:10.000Z</time>
      </trkpt>
      <trkpt lat="49.6062" lon="3.43449">
        <ele>125.5</ele>
        <time>2025-10-05T12:13:11.000Z</time>
      </trkpt>
      <trkpt lat="49.6062" lon="3.43449">
        <ele>125.3</ele>
        <time>2025-10-05T12:13:12.000Z</time>
      </trkpt>
      <trkpt lat="49.60622" lon="3.43449">
        <ele>125.2</ele>
        <time>2025-10-05T12:13:13.000Z</time>
      </trkpt>
      <trkpt lat="49.60622" lon="3.43449">
        <ele>125.2</ele>
        <time>2025-10-05T12:13:14.000Z</time>
      </trkpt>
      <trkpt lat="49.60624" lon="3.4345">
        <ele>125</ele>
        <time>2025-10-05T12:13:15.000Z</time>
      </trkpt>
      <trkpt lat="49.60625" lon="3.4345">
        <ele>125</ele>
        <time>2025-10-05T12:13:16.000Z</time>
      </trkpt>
      <trkpt lat="49.60626" lon="3.43451">
        <ele>125.1</ele>
        <time>2025-10-05T12:13:17.000Z</time>
      </trkpt>
      <trkpt lat="49.60627" lon="3.43451">
        <ele>125.2</ele>
        <time>2025-10-05T12:13:18.000Z</time>
      </trkpt>
      <trkpt lat="49.60628" lon="3.43451">
        <ele>124.8</ele>
        <time>2025-10-05T12:13:19.000Z</time>
      </trkpt>
      <trkpt lat="49.60629" lon="3.43451">
        <ele>124.7</ele>
        <time>2025-10-05T12:13:20.000Z</time>
      </trkpt>
      <trkpt lat="49.6063" lon="3.43452">
        <ele>124.5</ele>
        <time>2025-10-05T12:13:21.000Z</time>
      </trkpt>
      <trkpt lat="49.60632" lon="3.43453">
        <ele>124.3</ele>
        <time>2025-10-05T12:13:22.000Z</time>
      </trkpt>
      <trkpt lat="49.60633" lon="3.43453">
        <ele>124.3</ele>
        <time>2025-10-05T12:13:23.000Z</time>
      </trkpt>
      <trkpt lat="49.60634" lon="3.43454">
        <ele>124.4</ele>
        <time>2025-10-05T12:13:24.000Z</time>
      </trkpt>
      <trkpt lat="49.60636" lon="3.43454">
        <ele>124.5</ele>
        <time>2025-10-05T12:13:25.000Z</time>
      </trkpt>
      <trkpt lat="49.60636" lon="3.43455">
        <ele>124.6</ele>
        <time>2025-10-05T12:13:26.000Z</time>
      </trkpt>
      <trkpt lat="49.60636" lon="3.43455">
        <ele>124.8</ele>
        <time>2025-10-05T12:13:27.000Z</time>
      </trkpt>
      <trkpt lat="49.60637" lon="3.43455">
        <ele>124.7</ele>
        <time>2025-10-05T12:13:28.000Z</time>
      </trkpt>
      <trkpt lat="49.60639" lon="3.43456">
        <ele>124.5</ele>
        <time>2025-10-05T12:13:29.000Z</time>
      </trkpt>
      <trkpt lat="49.6064" lon="3.43456">
        <ele>124.1</ele>
        <time>2025-10-05T12:13:30.000Z</time>
      </trkpt>
      <trkpt lat="49.60641" lon="3.43456">
        <ele>123.7</ele>
        <time>2025-10-05T12:13:31.000Z</time>
      </trkpt>
      <trkpt lat="49.60641" lon="3.43456">
        <ele>123.3</ele>
        <time>2025-10-05T12:13:32.000Z</time>
      </trkpt>
      <trkpt lat="49.60642" lon="3.43455">
        <ele>122.9</ele>
        <time>2025-10-05T12:13:33.000Z</time>
      </trkpt>
      <trkpt lat="49.60642" lon="3.43455">
        <ele>122.7</ele>
        <time>2025-10-05T12:13:34.000Z</time>
      </trkpt>
      <trkpt lat="49.60643" lon="3.43455">
        <ele>122.6</ele>
        <time>2025-10-05T12:13:35.000Z</time>
      </trkpt>
      <trkpt lat="49.60644" lon="3.43453">
        <ele>122.6</ele>
        <time>2025-10-05T12:13:36.000Z</time>
      </trkpt>
      <trkpt lat="49.60645" lon="3.43453">
        <ele>122.6</ele>
        <time>2025-10-05T12:13:37.000Z</time>
      </trkpt>
      <trkpt lat="49.60646" lon="3.43453">
        <ele>122.5</ele>
        <time>2025-10-05T12:13:38.000Z</time>
      </trkpt>
      <trkpt lat="49.60647" lon="3.43452">
        <ele>122.4</ele>
        <time>2025-10-05T12:13:39.000Z</time>
      </trkpt>
      <trkpt lat="49.60648" lon="3.43452">
        <ele>122.5</ele>
        <time>2025-10-05T12:13:40.000Z</time>
      </trkpt>
      <trkpt lat="49.60649" lon="3.43452">
        <ele>122.7</ele>
        <time>2025-10-05T12:13:41.000Z</time>
      </trkpt>
      <trkpt lat="49.60649" lon="3.43452">
        <ele>123.3</ele>
        <time>2025-10-05T12:13:42.000Z</time>
      </trkpt>
      <trkpt lat="49.6065" lon="3.43452">
        <ele>123.5</ele>
        <time>2025-10-05T12:13:43.000Z</time>
      </trkpt>
      <trkpt lat="49.60651" lon="3.43452">
        <ele>123.7</ele>
        <time>2025-10-05T12:13:44.000Z</time>
      </trkpt>
      <trkpt lat="49.60652" lon="3.43453">
        <ele>124</ele>
        <time>2025-10-05T12:13:45.000Z</time>
      </trkpt>
      <trkpt lat="49.60653" lon="3.43453">
        <ele>124.4</ele>
        <time>2025-10-05T12:13:46.000Z</time>
      </trkpt>
      <trkpt lat="49.60653" lon="3.43452">
        <ele>124.6</ele>
        <time>2025-10-05T12:13:47.000Z</time>
      </trkpt>
      <trkpt lat="49.60654" lon="3.43452">
        <ele>124.5</ele>
        <time>2025-10-05T12:13:48.000Z</time>
      </trkpt>
      <trkpt lat="49.60655" lon="3.43453">
        <ele>124.5</ele>
        <time>2025-10-05T12:13:49.000Z</time>
      </trkpt>
      <trkpt lat="49.60656" lon="3.43453">
        <ele>124.7</ele>
        <time>2025-10-05T12:13:50.000Z</time>
      </trkpt>
      <trkpt lat="49.60656" lon="3.43453">
        <ele>124.9</ele>
        <time>2025-10-05T12:13:51.000Z</time>
      </trkpt>
      <trkpt lat="49.60657" lon="3.43453">
        <ele>125.2</ele>
        <time>2025-10-05T12:13:52.000Z</time>
      </trkpt>
      <trkpt lat="49.60658" lon="3.43452">
        <ele>125.6</ele>
        <time>2025-10-05T12:13:53.000Z</time>
      </trkpt>
      <trkpt lat="49.60659" lon="3.43451">
        <ele>126.1</ele>
        <time>2025-10-05T12:13:54.000Z</time>
      </trkpt>
      <trkpt lat="49.60661" lon="3.43451">
        <ele>126.5</ele>
        <time>2025-10-05T12:13:55.000Z</time>
      </trkpt>
      <trkpt lat="49.60662" lon="3.43451">
        <ele>126.7</ele>
        <time>2025-10-05T12:13:56.000Z</time>
      </trkpt>
      <trkpt lat="49.60664" lon="3.4345">
        <ele>126.7</ele>
        <time>2025-10-05T12:13:57.000Z</time>
      </trkpt>
      <trkpt lat="49.60665" lon="3.4345">
        <ele>126.9</ele>
        <time>2025-10-05T12:13:58.000Z</time>
      </trkpt>
      <trkpt lat="49.60666" lon="3.4345">
        <ele>127</ele>
        <time>2025-10-05T12:13:59.000Z</time>
      </trkpt>
      <trkpt lat="49.60668" lon="3.4345">
        <ele>127.4</ele>
        <time>2025-10-05T12:14:00.000Z</time>
      </trkpt>
      <trkpt lat="49.60669" lon="3.4345">
        <ele>127.5</ele>
        <time>2025-10-05T12:14:01.000Z</time>
      </trkpt>
      <trkpt lat="49.6067" lon="3.4345">
        <ele>127.4</ele>
        <time>2025-10-05T12:14:02.000Z</time>
      </trkpt>
      <trkpt lat="49.60672" lon="3.4345">
        <ele>127.5</ele>
        <time>2025-10-05T12:14:03.000Z</time>
      </trkpt>
      <trkpt lat="49.60673" lon="3.4345">
        <ele>127.7</ele>
        <time>2025-10-05T12:14:04.000Z</time>
      </trkpt>
      <trkpt lat="49.60673" lon="3.4345">
        <ele>127.8</ele>
        <time>2025-10-05T12:14:05.000Z</time>
      </trkpt>
      <trkpt lat="49.60675" lon="3.43449">
        <ele>127.6</ele>
        <time>2025-10-05T12:14:06.000Z</time>
      </trkpt>
      <trkpt lat="49.60676" lon="3.43449">
        <ele>127.6</ele>
        <time>2025-10-05T12:14:07.000Z</time>
      </trkpt>
      <trkpt lat="49.60677" lon="3.43449">
        <ele>127.5</ele>
        <time>2025-10-05T12:14:08.000Z</time>
      </trkpt>
      <trkpt lat="49.60678" lon="3.43449">
        <ele>127.5</ele>
        <time>2025-10-05T12:14:09.000Z</time>
      </trkpt>
      <trkpt lat="49.60679" lon="3.4345">
        <ele>127.5</ele>
        <time>2025-10-05T12:14:10.000Z</time>
      </trkpt>
      <trkpt lat="49.60679" lon="3.4345">
        <ele>127.9</ele>
        <time>2025-10-05T12:14:11.000Z</time>
      </trkpt>
      <trkpt lat="49.6068" lon="3.4345">
        <ele>128.4</ele>
        <time>2025-10-05T12:14:12.000Z</time>
      </trkpt>
      <trkpt lat="49.60681" lon="3.4345">
        <ele>128.7</ele>
        <time>2025-10-05T12:14:13.000Z</time>
      </trkpt>
      <trkpt lat="49.60682" lon="3.43451">
        <ele>128.9</ele>
        <time>2025-10-05T12:14:14.000Z</time>
      </trkpt>
      <trkpt lat="49.60683" lon="3.43451">
        <ele>128.8</ele>
        <time>2025-10-05T12:14:15.000Z</time>
      </trkpt>
      <trkpt lat="49.60683" lon="3.43451">
        <ele>128.9</ele>
        <time>2025-10-05T12:14:16.000Z</time>
      </trkpt>
      <trkpt lat="49.60684" lon="3.43451">
        <ele>129.1</ele>
        <time>2025-10-05T12:14:17.000Z</time>
      </trkpt>
      <trkpt lat="49.60684" lon="3.43452">
        <ele>129.2</ele>
        <time>2025-10-05T12:14:18.000Z</time>
      </trkpt>
      <trkpt lat="49.60685" lon="3.43452">
        <ele>129</ele>
        <time>2025-10-05T12:14:19.000Z</time>
      </trkpt>
      <trkpt lat="49.60686" lon="3.43452">
        <ele>128.8</ele>
        <time>2025-10-05T12:14:20.000Z</time>
      </trkpt>
      <trkpt lat="49.60687" lon="3.43453">
        <ele>128.4</ele>
        <time>2025-10-05T12:14:21.000Z</time>
      </trkpt>
      <trkpt lat="49.60688" lon="3.43453">
        <ele>128.3</ele>
        <time>2025-10-05T12:14:22.000Z</time>
      </trkpt>
      <trkpt lat="49.6069" lon="3.43453">
        <ele>128.1</ele>
        <time>2025-10-05T12:14:23.000Z</time>
      </trkpt>
      <trkpt lat="49.60691" lon="3.43454">
        <ele>127.8</ele>
        <time>2025-10-05T12:14:24.000Z</time>
      </trkpt>
      <trkpt lat="49.60692" lon="3.43455">
        <ele>127.6</ele>
        <time>2025-10-05T12:14:25.000Z</time>
      </trkpt>
      <trkpt lat="49.60693" lon="3.43456">
        <ele>127.6</ele>
        <time>2025-10-05T12:14:26.000Z</time>
      </trkpt>
      <trkpt lat="49.60694" lon="3.43456">
        <ele>127.3</ele>
        <time>2025-10-05T12:14:27.000Z</time>
      </trkpt>
      <trkpt lat="49.60694" lon="3.43457">
        <ele>127.2</ele>
        <time>2025-10-05T12:14:28.000Z</time>
      </trkpt>
      <trkpt lat="49.60696" lon="3.43457">
        <ele>127.1</ele>
        <time>2025-10-05T12:14:29.000Z</time>
      </trkpt>
      <trkpt lat="49.60697" lon="3.43457">
        <ele>127</ele>
        <time>2025-10-05T12:14:30.000Z</time>
      </trkpt>
      <trkpt lat="49.60698" lon="3.43457">
        <ele>127</ele>
        <time>2025-10-05T12:14:31.000Z</time>
      </trkpt>
      <trkpt lat="49.60698" lon="3.43457">
        <ele>127.3</ele>
        <time>2025-10-05T12:14:32.000Z</time>
      </trkpt>
      <trkpt lat="49.60699" lon="3.43458">
        <ele>127</ele>
        <time>2025-10-05T12:14:33.000Z</time>
      </trkpt>
      <trkpt lat="49.607" lon="3.43458">
        <ele>126.8</ele>
        <time>2025-10-05T12:14:34.000Z</time>
      </trkpt>
      <trkpt lat="49.607" lon="3.43458">
        <ele>126.5</ele>
        <time>2025-10-05T12:14:35.000Z</time>
      </trkpt>
      <trkpt lat="49.60701" lon="3.43458">
        <ele>126.4</ele>
        <time>2025-10-05T12:14:36.000Z</time>
      </trkpt>
      <trkpt lat="49.60702" lon="3.43458">
        <ele>126.1</ele>
        <time>2025-10-05T12:14:37.000Z</time>
      </trkpt>
      <trkpt lat="49.60704" lon="3.43458">
        <ele>126</ele>
        <time>2025-10-05T12:14:38.000Z</time>
      </trkpt>
      <trkpt lat="49.60706" lon="3.43458">
        <ele>125.9</ele>
        <time>2025-10-05T12:14:39.000Z</time>
      </trkpt>
      <trkpt lat="49.60707" lon="3.43459">
        <ele>125.9</ele>
        <time>2025-10-05T12:14:40.000Z</time>
      </trkpt>
      <trkpt lat="49.60708" lon="3.4346">
        <ele>126.2</ele>
        <time>2025-10-05T12:14:41.000Z</time>
      </trkpt>
      <trkpt lat="49.60709" lon="3.43461">
        <ele>126.6</ele>
        <time>2025-10-05T12:14:42.000Z</time>
      </trkpt>
      <trkpt lat="49.6071" lon="3.43462">
        <ele>126.7</ele>
        <time>2025-10-05T12:14:43.000Z</time>
      </trkpt>
      <trkpt lat="49.60711" lon="3.43463">
        <ele>126.5</ele>
        <time>2025-10-05T12:14:44.000Z</time>
      </trkpt>
      <trkpt lat="49.60712" lon="3.43464">
        <ele>126.3</ele>
        <time>2025-10-05T12:14:45.000Z</time>
      </trkpt>
      <trkpt lat="49.60712" lon="3.43464">
        <ele>126</ele>
        <time>2025-10-05T12:14:46.000Z</time>
      </trkpt>
      <trkpt lat="49.60714" lon="3.43465">
        <ele>125.6</ele>
        <time>2025-10-05T12:14:47.000Z</time>
      </trkpt>
      <trkpt lat="49.60715" lon="3.43466">
        <ele>125.3</ele>
        <time>2025-10-05T12:14:48.000Z</time>
      </trkpt>
      <trkpt lat="49.60715" lon="3.43466">
        <ele>125.2</ele>
        <time>2025-10-05T12:14:49.000Z</time>
      </trkpt>
      <trkpt lat="49.60716" lon="3.43466">
        <ele>125.1</ele>
        <time>2025-10-05T12:14:50.000Z</time>
      </trkpt>
      <trkpt lat="49.60716" lon="3.43467">
        <ele>124.8</ele>
        <time>2025-10-05T12:14:51.000Z</time>
      </trkpt>
      <trkpt lat="49.60717" lon="3.43466">
        <ele>124.8</ele>
        <time>2025-10-05T12:14:52.000Z</time>
      </trkpt>
      <trkpt lat="49.60717" lon="3.43466">
        <ele>124.6</ele>
        <time>2025-10-05T12:14:53.000Z</time>
      </trkpt>
      <trkpt lat="49.60719" lon="3.43466">
        <ele>124.6</ele>
        <time>2025-10-05T12:14:54.000Z</time>
      </trkpt>
      <trkpt lat="49.6072" lon="3.43466">
        <ele>124.9</ele>
        <time>2025-10-05T12:14:55.000Z</time>
      </trkpt>
      <trkpt lat="49.60722" lon="3.43467">
        <ele>125.1</ele>
        <time>2025-10-05T12:14:56.000Z</time>
      </trkpt>
      <trkpt lat="49.60722" lon="3.43468">
        <ele>125.3</ele>
        <time>2025-10-05T12:14:57.000Z</time>
      </trkpt>
      <trkpt lat="49.60723" lon="3.43467">
        <ele>125.7</ele>
        <time>2025-10-05T12:14:58.000Z</time>
      </trkpt>
      <trkpt lat="49.60724" lon="3.43467">
        <ele>125.9</ele>
        <time>2025-10-05T12:14:59.000Z</time>
      </trkpt>
      <trkpt lat="49.60726" lon="3.43468">
        <ele>126.3</ele>
        <time>2025-10-05T12:15:00.000Z</time>
      </trkpt>
      <trkpt lat="49.60727" lon="3.43468">
        <ele>126.5</ele>
        <time>2025-10-05T12:15:01.000Z</time>
      </trkpt>
      <trkpt lat="49.60728" lon="3.43468">
        <ele>126.9</ele>
        <time>2025-10-05T12:15:02.000Z</time>
      </trkpt>
      <trkpt lat="49.60731" lon="3.43467">
        <ele>127.6</ele>
        <time>2025-10-05T12:15:03.000Z</time>
      </trkpt>
      <trkpt lat="49.60732" lon="3.43468">
        <ele>127.8</ele>
        <time>2025-10-05T12:15:04.000Z</time>
      </trkpt>
      <trkpt lat="49.60734" lon="3.43468">
        <ele>128.2</ele>
        <time>2025-10-05T12:15:05.000Z</time>
      </trkpt>
      <trkpt lat="49.60735" lon="3.43468">
        <ele>128.5</ele>
        <time>2025-10-05T12:15:06.000Z</time>
      </trkpt>
      <trkpt lat="49.60735" lon="3.43468">
        <ele>128.3</ele>
        <time>2025-10-05T12:15:07.000Z</time>
      </trkpt>
      <trkpt lat="49.60736" lon="3.43469">
        <ele>128.3</ele>
        <time>2025-10-05T12:15:08.000Z</time>
      </trkpt>
      <trkpt lat="49.60737" lon="3.4347">
        <ele>128.3</ele>
        <time>2025-10-05T12:15:09.000Z</time>
      </trkpt>
      <trkpt lat="49.60738" lon="3.4347">
        <ele>128.3</ele>
        <time>2025-10-05T12:15:10.000Z</time>
      </trkpt>
      <trkpt lat="49.60739" lon="3.4347">
        <ele>128.2</ele>
        <time>2025-10-05T12:15:11.000Z</time>
      </trkpt>
      <trkpt lat="49.6074" lon="3.4347">
        <ele>128.2</ele>
        <time>2025-10-05T12:15:12.000Z</time>
      </trkpt>
      <trkpt lat="49.60741" lon="3.43471">
        <ele>128.4</ele>
        <time>2025-10-05T12:15:13.000Z</time>
      </trkpt>
      <trkpt lat="49.60742" lon="3.43471">
        <ele>128.5</ele>
        <time>2025-10-05T12:15:14.000Z</time>
      </trkpt>
      <trkpt lat="49.60743" lon="3.43471">
        <ele>128.4</ele>
        <time>2025-10-05T12:15:15.000Z</time>
      </trkpt>
      <trkpt lat="49.60744" lon="3.43471">
        <ele>128.5</ele>
        <time>2025-10-05T12:15:16.000Z</time>
      </trkpt>
      <trkpt lat="49.60745" lon="3.43471">
        <ele>128.4</ele>
        <time>2025-10-05T12:15:17.000Z</time>
      </trkpt>
      <trkpt lat="49.60745" lon="3.43471">
        <ele>128.4</ele>
        <time>2025-10-05T12:15:18.000Z</time>
      </trkpt>
      <trkpt lat="49.60746" lon="3.43471">
        <ele>128.5</ele>
        <time>2025-10-05T12:15:19.000Z</time>
      </trkpt>
      <trkpt lat="49.60747" lon="3.43471">
        <ele>128.4</ele>
        <time>2025-10-05T12:15:20.000Z</time>
      </trkpt>
      <trkpt lat="49.60748" lon="3.43471">
        <ele>128.3</ele>
        <time>2025-10-05T12:15:21.000Z</time>
      </trkpt>
      <trkpt lat="49.60749" lon="3.43471">
        <ele>128.1</ele>
        <time>2025-10-05T12:15:22.000Z</time>
      </trkpt>
      <trkpt lat="49.60749" lon="3.43471">
        <ele>127.8</ele>
        <time>2025-10-05T12:15:23.000Z</time>
      </trkpt>
      <trkpt lat="49.6075" lon="3.43471">
        <ele>127.6</ele>
        <time>2025-10-05T12:15:24.000Z</time>
      </trkpt>
      <trkpt lat="49.6075" lon="3.4347">
        <ele>127.3</ele>
        <time>2025-10-05T12:15:25.000Z</time>
      </trkpt>
      <trkpt lat="49.60752" lon="3.43469">
        <ele>127.1</ele>
        <time>2025-10-05T12:15:26.000Z</time>
      </trkpt>
      <trkpt lat="49.60752" lon="3.43469">
        <ele>126.9</ele>
        <time>2025-10-05T12:15:27.000Z</time>
      </trkpt>
      <trkpt lat="49.60753" lon="3.43468">
        <ele>126.6</ele>
        <time>2025-10-05T12:15:28.000Z</time>
      </trkpt>
      <trkpt lat="49.60753" lon="3.43468">
        <ele>126.4</ele>
        <time>2025-10-05T12:15:29.000Z</time>
      </trkpt>
      <trkpt lat="49.60754" lon="3.43468">
        <ele>126.4</ele>
        <time>2025-10-05T12:15:30.000Z</time>
      </trkpt>
      <trkpt lat="49.60755" lon="3.43468">
        <ele>126.6</ele>
        <time>2025-10-05T12:15:31.000Z</time>
      </trkpt>
      <trkpt lat="49.60755" lon="3.43467">
        <ele>126.8</ele>
        <time>2025-10-05T12:15:32.000Z</time>
      </trkpt>
      <trkpt lat="49.60756" lon="3.43467">
        <ele>126.7</ele>
        <time>2025-10-05T12:15:33.000Z</time>
      </trkpt>
      <trkpt lat="49.60757" lon="3.43466">
        <ele>126.7</ele>
        <time>2025-10-05T12:15:34.000Z</time>
      </trkpt>
      <trkpt lat="49.60758" lon="3.43465">
        <ele>126.6</ele>
        <time>2025-10-05T12:15:35.000Z</time>
      </trkpt>
      <trkpt lat="49.6076" lon="3.43465">
        <ele>126.6</ele>
        <time>2025-10-05T12:15:36.000Z</time>
      </trkpt>
      <trkpt lat="49.60761" lon="3.43464">
        <ele>126.8</ele>
        <time>2025-10-05T12:15:37.000Z</time>
      </trkpt>
      <trkpt lat="49.60761" lon="3.43463">
        <ele>126.9</ele>
        <time>2025-10-05T12:15:38.000Z</time>
      </trkpt>
      <trkpt lat="49.60762" lon="3.43463">
        <ele>127.1</ele>
        <time>2025-10-05T12:15:39.000Z</time>
      </trkpt>
      <trkpt lat="49.60764" lon="3.43463">
        <ele>127.1</ele>
        <time>2025-10-05T12:15:40.000Z</time>
      </trkpt>
      <trkpt lat="49.60765" lon="3.43463">
        <ele>127.2</ele>
        <time>2025-10-05T12:15:41.000Z</time>
      </trkpt>
      <trkpt lat="49.60765" lon="3.43462">
        <ele>127.5</ele>
        <time>2025-10-05T12:15:42.000Z</time>
      </trkpt>
      <trkpt lat="49.60765" lon="3.43461">
        <ele>127.9</ele>
        <time>2025-10-05T12:15:43.000Z</time>
      </trkpt>
      <trkpt lat="49.60766" lon="3.43461">
        <ele>128</ele>
        <time>2025-10-05T12:15:44.000Z</time>
      </trkpt>
      <trkpt lat="49.60766" lon="3.43461">
        <ele>127.9</ele>
        <time>2025-10-05T12:15:45.000Z</time>
      </trkpt>
      <trkpt lat="49.60767" lon="3.43461">
        <ele>127.8</ele>
        <time>2025-10-05T12:15:46.000Z</time>
      </trkpt>
      <trkpt lat="49.60768" lon="3.4346">
        <ele>127.5</ele>
        <time>2025-10-05T12:15:47.000Z</time>
      </trkpt>
      <trkpt lat="49.60769" lon="3.4346">
        <ele>127.2</ele>
        <time>2025-10-05T12:15:48.000Z</time>
      </trkpt>
      <trkpt lat="49.6077" lon="3.43459">
        <ele>127</ele>
        <time>2025-10-05T12:15:49.000Z</time>
      </trkpt>
      <trkpt lat="49.6077" lon="3.43459">
        <ele>126.9</ele>
        <time>2025-10-05T12:15:50.000Z</time>
      </trkpt>
      <trkpt lat="49.60771" lon="3.43459">
        <ele>126.7</ele>
        <time>2025-10-05T12:15:51.000Z</time>
      </trkpt>
      <trkpt lat="49.60771" lon="3.43458">
        <ele>126.5</ele>
        <time>2025-10-05T12:15:52.000Z</time>
      </trkpt>
      <trkpt lat="49.60771" lon="3.43457">
        <ele>126.6</ele>
        <time>2025-10-05T12:15:53.000Z</time>
      </trkpt>
      <trkpt lat="49.60772" lon="3.43456">
        <ele>126.7</ele>
        <time>2025-10-05T12:15:54.000Z</time>
      </trkpt>
      <trkpt lat="49.60772" lon="3.43455">
        <ele>126.6</ele>
        <time>2025-10-05T12:15:55.000Z</time>
      </trkpt>
      <trkpt lat="49.60773" lon="3.43455">
        <ele>126.6</ele>
        <time>2025-10-05T12:15:56.000Z</time>
      </trkpt>
      <trkpt lat="49.60773" lon="3.43455">
        <ele>126.6</ele>
        <time>2025-10-05T12:15:57.000Z</time>
      </trkpt>
      <trkpt lat="49.60773" lon="3.43456">
        <ele>126.6</ele>
        <time>2025-10-05T12:15:58.000Z</time>
      </trkpt>
      <trkpt lat="49.60774" lon="3.43456">
        <ele>126.8</ele>
        <time>2025-10-05T12:15:59.000Z</time>
      </trkpt>
      <trkpt lat="49.60775" lon="3.43456">
        <ele>126.9</ele>
        <time>2025-10-05T12:16:00.000Z</time>
      </trkpt>
      <trkpt lat="49.60774" lon="3.43456">
        <ele>126.8</ele>
        <time>2025-10-05T12:16:01.000Z</time>
      </trkpt>
      <trkpt lat="49.60774" lon="3.43456">
        <ele>126.9</ele>
        <time>2025-10-05T12:16:02.000Z</time>
      </trkpt>
      <trkpt lat="49.60774" lon="3.43455">
        <ele>126.7</ele>
        <time>2025-10-05T12:16:03.000Z</time>
      </trkpt>
      <trkpt lat="49.60775" lon="3.43455">
        <ele>126.9</ele>
        <time>2025-10-05T12:16:04.000Z</time>
      </trkpt>
      <trkpt lat="49.60776" lon="3.43454">
        <ele>126.8</ele>
        <time>2025-10-05T12:16:05.000Z</time>
      </trkpt>
      <trkpt lat="49.60777" lon="3.43454">
        <ele>126.7</ele>
        <time>2025-10-05T12:16:06.000Z</time>
      </trkpt>
      <trkpt lat="49.60777" lon="3.43454">
        <ele>126.7</ele>
        <time>2025-10-05T12:16:07.000Z</time>
      </trkpt>
      <trkpt lat="49.60778" lon="3.43453">
        <ele>126.6</ele>
        <time>2025-10-05T12:16:08.000Z</time>
      </trkpt>
      <trkpt lat="49.60779" lon="3.43453">
        <ele>126.5</ele>
        <time>2025-10-05T12:16:09.000Z</time>
      </trkpt>
      <trkpt lat="49.60779" lon="3.43452">
        <ele>126.4</ele>
        <time>2025-10-05T12:16:10.000Z</time>
      </trkpt>
      <trkpt lat="49.6078" lon="3.43452">
        <ele>126.5</ele>
        <time>2025-10-05T12:16:11.000Z</time>
      </trkpt>
      <trkpt lat="49.60781" lon="3.43451">
        <ele>126.7</ele>
        <time>2025-10-05T12:16:12.000Z</time>
      </trkpt>
      <trkpt lat="49.60781" lon="3.4345">
        <ele>126.9</ele>
        <time>2025-10-05T12:16:13.000Z</time>
      </trkpt>
      <trkpt lat="49.60782" lon="3.4345">
        <ele>127.2</ele>
        <time>2025-10-05T12:16:14.000Z</time>
      </trkpt>
      <trkpt lat="49.60782" lon="3.43451">
        <ele>127.6</ele>
        <time>2025-10-05T12:16:15.000Z</time>
      </trkpt>
      <trkpt lat="49.60782" lon="3.4345">
        <ele>128.1</ele>
        <time>2025-10-05T12:16:16.000Z</time>
      </trkpt>
      <trkpt lat="49.60782" lon="3.43449">
        <ele>128.5</ele>
        <time>2025-10-05T12:16:17.000Z</time>
      </trkpt>
      <trkpt lat="49.60782" lon="3.43449">
        <ele>128.5</ele>
        <time>2025-10-05T12:16:18.000Z</time>
      </trkpt>
      <trkpt lat="49.60783" lon="3.43448">
        <ele>129.2</ele>
        <time>2025-10-05T12:16:19.000Z</time>
      </trkpt>
      <trkpt lat="49.60784" lon="3.43448">
        <ele>129.4</ele>
        <time>2025-10-05T12:16:20.000Z</time>
      </trkpt>
      <trkpt lat="49.60785" lon="3.43447">
        <ele>129.2</ele>
        <time>2025-10-05T12:16:21.000Z</time>
      </trkpt>
      <trkpt lat="49.60786" lon="3.43448">
        <ele>129</ele>
        <time>2025-10-05T12:16:22.000Z</time>
      </trkpt>
      <trkpt lat="49.60787" lon="3.43448">
        <ele>129</ele>
        <time>2025-10-05T12:16:23.000Z</time>
      </trkpt>
      <trkpt lat="49.60788" lon="3.43448">
        <ele>129.2</ele>
        <time>2025-10-05T12:16:24.000Z</time>
      </trkpt>
      <trkpt lat="49.6079" lon="3.43448">
        <ele>129.1</ele>
        <time>2025-10-05T12:16:25.000Z</time>
      </trkpt>
      <trkpt lat="49.60791" lon="3.43448">
        <ele>129.1</ele>
        <time>2025-10-05T12:16:26.000Z</time>
      </trkpt>
      <trkpt lat="49.60793" lon="3.43448">
        <ele>129</ele>
        <time>2025-10-05T12:16:27.000Z</time>
      </trkpt>
      <trkpt lat="49.60793" lon="3.43447">
        <ele>128.9</ele>
        <time>2025-10-05T12:16:28.000Z</time>
      </trkpt>
      <trkpt lat="49.60794" lon="3.43447">
        <ele>128.8</ele>
        <time>2025-10-05T12:16:29.000Z</time>
      </trkpt>
      <trkpt lat="49.60794" lon="3.43446">
        <ele>128.6</ele>
        <time>2025-10-05T12:16:30.000Z</time>
      </trkpt>
      <trkpt lat="49.60795" lon="3.43446">
        <ele>128.4</ele>
        <time>2025-10-05T12:16:31.000Z</time>
      </trkpt>
      <trkpt lat="49.60796" lon="3.43445">
        <ele>128.2</ele>
        <time>2025-10-05T12:16:32.000Z</time>
      </trkpt>
      <trkpt lat="49.60798" lon="3.43445">
        <ele>127.8</ele>
        <time>2025-10-05T12:16:33.000Z</time>
      </trkpt>
      <trkpt lat="49.60799" lon="3.43445">
        <ele>127.5</ele>
        <time>2025-10-05T12:16:34.000Z</time>
      </trkpt>
      <trkpt lat="49.608" lon="3.43445">
        <ele>127.4</ele>
        <time>2025-10-05T12:16:35.000Z</time>
      </trkpt>
      <trkpt lat="49.60801" lon="3.43445">
        <ele>127.3</ele>
        <time>2025-10-05T12:16:36.000Z</time>
      </trkpt>
      <trkpt lat="49.60802" lon="3.43444">
        <ele>127.5</ele>
        <time>2025-10-05T12:16:37.000Z</time>
      </trkpt>
      <trkpt lat="49.60803" lon="3.43443">
        <ele>127.8</ele>
        <time>2025-10-05T12:16:38.000Z</time>
      </trkpt>
      <trkpt lat="49.60804" lon="3.43443">
        <ele>128.2</ele>
        <time>2025-10-05T12:16:39.000Z</time>
      </trkpt>
      <trkpt lat="49.60804" lon="3.43443">
        <ele>128.6</ele>
        <time>2025-10-05T12:16:40.000Z</time>
      </trkpt>
      <trkpt lat="49.60806" lon="3.43444">
        <ele>128.9</ele>
        <time>2025-10-05T12:16:41.000Z</time>
      </trkpt>
      <trkpt lat="49.60806" lon="3.43444">
        <ele>129</ele>
        <time>2025-10-05T12:16:42.000Z</time>
      </trkpt>
      <trkpt lat="49.60808" lon="3.43444">
        <ele>129</ele>
        <time>2025-10-05T12:16:43.000Z</time>
      </trkpt>
      <trkpt lat="49.60809" lon="3.43444">
        <ele>128.9</ele>
        <time>2025-10-05T12:16:44.000Z</time>
      </trkpt>
      <trkpt lat="49.6081" lon="3.43444">
        <ele>129</ele>
        <time>2025-10-05T12:16:45.000Z</time>
      </trkpt>
      <trkpt lat="49.60811" lon="3.43444">
        <ele>128.9</ele>
        <time>2025-10-05T12:16:46.000Z</time>
      </trkpt>
      <trkpt lat="49.60812" lon="3.43445">
        <ele>128.6</ele>
        <time>2025-10-05T12:16:47.000Z</time>
      </trkpt>
      <trkpt lat="49.60813" lon="3.43446">
        <ele>128.4</ele>
        <time>2025-10-05T12:16:48.000Z</time>
      </trkpt>
      <trkpt lat="49.60814" lon="3.43446">
        <ele>128.3</ele>
        <time>2025-10-05T12:16:49.000Z</time>
      </trkpt>
      <trkpt lat="49.60815" lon="3.43447">
        <ele>128.1</ele>
        <time>2025-10-05T12:16:50.000Z</time>
      </trkpt>
      <trkpt lat="49.60816" lon="3.43448">
        <ele>128.1</ele>
        <time>2025-10-05T12:16:51.000Z</time>
      </trkpt>
      <trkpt lat="49.60817" lon="3.43448">
        <ele>128.2</ele>
        <time>2025-10-05T12:16:52.000Z</time>
      </trkpt>
      <trkpt lat="49.60817" lon="3.43448">
        <ele>128.1</ele>
        <time>2025-10-05T12:16:53.000Z</time>
      </trkpt>
      <trkpt lat="49.60818" lon="3.43449">
        <ele>127.7</ele>
        <time>2025-10-05T12:16:54.000Z</time>
      </trkpt>
      <trkpt lat="49.60819" lon="3.4345">
        <ele>127.5</ele>
        <time>2025-10-05T12:16:55.000Z</time>
      </trkpt>
      <trkpt lat="49.6082" lon="3.43451">
        <ele>127.5</ele>
        <time>2025-10-05T12:16:56.000Z</time>
      </trkpt>
      <trkpt lat="49.6082" lon="3.43451">
        <ele>127.1</ele>
        <time>2025-10-05T12:16:57.000Z</time>
      </trkpt>
      <trkpt lat="49.60821" lon="3.43452">
        <ele>127.1</ele>
        <time>2025-10-05T12:16:58.000Z</time>
      </trkpt>
      <trkpt lat="49.60822" lon="3.43453">
        <ele>126.8</ele>
        <time>2025-10-05T12:16:59.000Z</time>
      </trkpt>
      <trkpt lat="49.60822" lon="3.43453">
        <ele>126.6</ele>
        <time>2025-10-05T12:17:00.000Z</time>
      </trkpt>
      <trkpt lat="49.60824" lon="3.43453">
        <ele>126.7</ele>
        <time>2025-10-05T12:17:01.000Z</time>
      </trkpt>
      <trkpt lat="49.60825" lon="3.43453">
        <ele>126.9</ele>
        <time>2025-10-05T12:17:02.000Z</time>
      </trkpt>
      <trkpt lat="49.60826" lon="3.43453">
        <ele>127</ele>
        <time>2025-10-05T12:17:03.000Z</time>
      </trkpt>
      <trkpt lat="49.60827" lon="3.43453">
        <ele>127.2</ele>
        <time>2025-10-05T12:17:04.000Z</time>
      </trkpt>
      <trkpt lat="49.60827" lon="3.43453">
        <ele>127.3</ele>
        <time>2025-10-05T12:17:05.000Z</time>
      </trkpt>
      <trkpt lat="49.60828" lon="3.43453">
        <ele>127.4</ele>
        <time>2025-10-05T12:17:06.000Z</time>
      </trkpt>
      <trkpt lat="49.60829" lon="3.43454">
        <ele>127.6</ele>
        <time>2025-10-05T12:17:07.000Z</time>
      </trkpt>
      <trkpt lat="49.6083" lon="3.43455">
        <ele>127.7</ele>
        <time>2025-10-05T12:17:08.000Z</time>
      </trkpt>
      <trkpt lat="49.60831" lon="3.43456">
        <ele>127.8</ele>
        <time>2025-10-05T12:17:09.000Z</time>
      </trkpt>
      <trkpt lat="49.60831" lon="3.43458">
        <ele>127.9</ele>
        <time>2025-10-05T12:17:10.000Z</time>
      </trkpt>
      <trkpt lat="49.60833" lon="3.43459">
        <ele>128.3</ele>
        <time>2025-10-05T12:17:11.000Z</time>
      </trkpt>
      <trkpt lat="49.60834" lon="3.43459">
        <ele>128.6</ele>
        <time>2025-10-05T12:17:12.000Z</time>
      </trkpt>
      <trkpt lat="49.60835" lon="3.43459">
        <ele>128.9</ele>
        <time>2025-10-05T12:17:13.000Z</time>
      </trkpt>
      <trkpt lat="49.60836" lon="3.43459">
        <ele>128.9</ele>
        <time>2025-10-05T12:17:14.000Z</time>
      </trkpt>
      <trkpt lat="49.60836" lon="3.43458">
        <ele>128.9</ele>
        <time>2025-10-05T12:17:15.000Z</time>
      </trkpt>
      <trkpt lat="49.60837" lon="3.43459">
        <ele>128.9</ele>
        <time>2025-10-05T12:17:16.000Z</time>
      </trkpt>
      <trkpt lat="49.60838" lon="3.4346">
        <ele>128.9</ele>
        <time>2025-10-05T12:17:17.000Z</time>
      </trkpt>
      <trkpt lat="49.60839" lon="3.43461">
        <ele>128.7</ele>
        <time>2025-10-05T12:17:18.000Z</time>
      </trkpt>
      <trkpt lat="49.6084" lon="3.43461">
        <ele>128.8</ele>
        <time>2025-10-05T12:17:19.000Z</time>
      </trkpt>
      <trkpt lat="49.6084" lon="3.43462">
        <ele>129</ele>
        <time>2025-10-05T12:17:20.000Z</time>
      </trkpt>
      <trkpt lat="49.60841" lon="3.43461">
        <ele>129.1</ele>
        <time>2025-10-05T12:17:21.000Z</time>
      </trkpt>
      <trkpt lat="49.60842" lon="3.43462">
        <ele>129.1</ele>
        <time>2025-10-05T12:17:22.000Z</time>
      </trkpt>
      <trkpt lat="49.60843" lon="3.43462">
        <ele>129</ele>
        <time>2025-10-05T12:17:23.000Z</time>
      </trkpt>
      <trkpt lat="49.60844" lon="3.43462">
        <ele>128.9</ele>
        <time>2025-10-05T12:17:24.000Z</time>
      </trkpt>
      <trkpt lat="49.60845" lon="3.43462">
        <ele>128.8</ele>
        <time>2025-10-05T12:17:25.000Z</time>
      </trkpt>
      <trkpt lat="49.60846" lon="3.43463">
        <ele>128.9</ele>
        <time>2025-10-05T12:17:26.000Z</time>
      </trkpt>
      <trkpt lat="49.60847" lon="3.43464">
        <ele>128.9</ele>
        <time>2025-10-05T12:17:27.000Z</time>
      </trkpt>
      <trkpt lat="49.60848" lon="3.43464">
        <ele>128.6</ele>
        <time>2025-10-05T12:17:28.000Z</time>
      </trkpt>
      <trkpt lat="49.60849" lon="3.43464">
        <ele>128.3</ele>
        <time>2025-10-05T12:17:29.000Z</time>
      </trkpt>
      <trkpt lat="49.60849" lon="3.43464">
        <ele>128.3</ele>
        <time>2025-10-05T12:17:30.000Z</time>
      </trkpt>
      <trkpt lat="49.6085" lon="3.43464">
        <ele>128.3</ele>
        <time>2025-10-05T12:17:31.000Z</time>
      </trkpt>
      <trkpt lat="49.60851" lon="3.43465">
        <ele>128.2</ele>
        <time>2025-10-05T12:17:32.000Z</time>
      </trkpt>
      <trkpt lat="49.60852" lon="3.43466">
        <ele>128.2</ele>
        <time>2025-10-05T12:17:33.000Z</time>
      </trkpt>
      <trkpt lat="49.60853" lon="3.43466">
        <ele>128</ele>
        <time>2025-10-05T12:17:34.000Z</time>
      </trkpt>
      <trkpt lat="49.60854" lon="3.43468">
        <ele>128.3</ele>
        <time>2025-10-05T12:17:35.000Z</time>
      </trkpt>
      <trkpt lat="49.60856" lon="3.43469">
        <ele>128.6</ele>
        <time>2025-10-05T12:17:36.000Z</time>
      </trkpt>
      <trkpt lat="49.60857" lon="3.4347">
        <ele>128.8</ele>
        <time>2025-10-05T12:17:37.000Z</time>
      </trkpt>
      <trkpt lat="49.60858" lon="3.4347">
        <ele>128.9</ele>
        <time>2025-10-05T12:17:38.000Z</time>
      </trkpt>
      <trkpt lat="49.60859" lon="3.4347">
        <ele>129</ele>
        <time>2025-10-05T12:17:39.000Z</time>
      </trkpt>
      <trkpt lat="49.6086" lon="3.43469">
        <ele>128.8</ele>
        <time>2025-10-05T12:17:40.000Z</time>
      </trkpt>
      <trkpt lat="49.6086" lon="3.4347">
        <ele>128.4</ele>
        <time>2025-10-05T12:17:41.000Z</time>
      </trkpt>
      <trkpt lat="49.60861" lon="3.4347">
        <ele>128.3</ele>
        <time>2025-10-05T12:17:42.000Z</time>
      </trkpt>
      <trkpt lat="49.60862" lon="3.4347">
        <ele>128.6</ele>
        <time>2025-10-05T12:17:43.000Z</time>
      </trkpt>
      <trkpt lat="49.60863" lon="3.43469">
        <ele>129</ele>
        <time>2025-10-05T12:17:44.000Z</time>
      </trkpt>
      <trkpt lat="49.60865" lon="3.43469">
        <ele>129.2</ele>
        <time>2025-10-05T12:17:45.000Z</time>
      </trkpt>
      <trkpt lat="49.60865" lon="3.4347">
        <ele>129.4</ele>
        <time>2025-10-05T12:17:46.000Z</time>
      </trkpt>
      <trkpt lat="49.60866" lon="3.4347">
        <ele>129.3</ele>
        <time>2025-10-05T12:17:47.000Z</time>
      </trkpt>
      <trkpt lat="49.60867" lon="3.4347">
        <ele>129</ele>
        <time>2025-10-05T12:17:48.000Z</time>
      </trkpt>
      <trkpt lat="49.60868" lon="3.4347">
        <ele>128.4</ele>
        <time>2025-10-05T12:17:49.000Z</time>
      </trkpt>
      <trkpt lat="49.60869" lon="3.4347">
        <ele>128.2</ele>
        <time>2025-10-05T12:17:50.000Z</time>
      </trkpt>
      <trkpt lat="49.6087" lon="3.43471">
        <ele>128</ele>
        <time>2025-10-05T12:17:51.000Z</time>
      </trkpt>
      <trkpt lat="49.60872" lon="3.43471">
        <ele>128</ele>
        <time>2025-10-05T12:17:52.000Z</time>
      </trkpt>
      <trkpt lat="49.60873" lon="3.43472">
        <ele>127.8</ele>
        <time>2025-10-05T12:17:53.000Z</time>
      </trkpt>
      <trkpt lat="49.60875" lon="3.43473">
        <ele>127.7</ele>
        <time>2025-10-05T12:17:54.000Z</time>
      </trkpt>
      <trkpt lat="49.60876" lon="3.43474">
        <ele>127.5</ele>
        <time>2025-10-05T12:17:55.000Z</time>
      </trkpt>
      <trkpt lat="49.60876" lon="3.43474">
        <ele>127.4</ele>
        <time>2025-10-05T12:17:56.000Z</time>
      </trkpt>
      <trkpt lat="49.60877" lon="3.43475">
        <ele>127.4</ele>
        <time>2025-10-05T12:17:57.000Z</time>
      </trkpt>
      <trkpt lat="49.60878" lon="3.43475">
        <ele>127.4</ele>
        <time>2025-10-05T12:17:58.000Z</time>
      </trkpt>
      <trkpt lat="49.60879" lon="3.43475">
        <ele>127.1</ele>
        <time>2025-10-05T12:17:59.000Z</time>
      </trkpt>
      <trkpt lat="49.6088" lon="3.43476">
        <ele>127</ele>
        <time>2025-10-05T12:18:00.000Z</time>
      </trkpt>
      <trkpt lat="49.60881" lon="3.43476">
        <ele>126.8</ele>
        <time>2025-10-05T12:18:01.000Z</time>
      </trkpt>
      <trkpt lat="49.60882" lon="3.43477">
        <ele>126.9</ele>
        <time>2025-10-05T12:18:02.000Z</time>
      </trkpt>
      <trkpt lat="49.60883" lon="3.43478">
        <ele>127.3</ele>
        <time>2025-10-05T12:18:03.000Z</time>
      </trkpt>
      <trkpt lat="49.60884" lon="3.43478">
        <ele>127.6</ele>
        <time>2025-10-05T12:18:04.000Z</time>
      </trkpt>
      <trkpt lat="49.60884" lon="3.43478">
        <ele>127.8</ele>
        <time>2025-10-05T12:18:05.000Z</time>
      </trkpt>
      <trkpt lat="49.60885" lon="3.43479">
        <ele>127.5</ele>
        <time>2025-10-05T12:18:06.000Z</time>
      </trkpt>
      <trkpt lat="49.60886" lon="3.4348">
        <ele>127.7</ele>
        <time>2025-10-05T12:18:07.000Z</time>
      </trkpt>
      <trkpt lat="49.60887" lon="3.43481">
        <ele>127.6</ele>
        <time>2025-10-05T12:18:08.000Z</time>
      </trkpt>
      <trkpt lat="49.60889" lon="3.43482">
        <ele>127.5</ele>
        <time>2025-10-05T12:18:09.000Z</time>
      </trkpt>
      <trkpt lat="49.6089" lon="3.43482">
        <ele>127.3</ele>
        <time>2025-10-05T12:18:10.000Z</time>
      </trkpt>
      <trkpt lat="49.60891" lon="3.43483">
        <ele>126.9</ele>
        <time>2025-10-05T12:18:11.000Z</time>
      </trkpt>
      <trkpt lat="49.60891" lon="3.43484">
        <ele>126.8</ele>
        <time>2025-10-05T12:18:12.000Z</time>
      </trkpt>
      <trkpt lat="49.60891" lon="3.43484">
        <ele>126.6</ele>
        <time>2025-10-05T12:18:13.000Z</time>
      </trkpt>
      <trkpt lat="49.60892" lon="3.43484">
        <ele>126.7</ele>
        <time>2025-10-05T12:18:14.000Z</time>
      </trkpt>
      <trkpt lat="49.60893" lon="3.43484">
        <ele>126.9</ele>
        <time>2025-10-05T12:18:15.000Z</time>
      </trkpt>
      <trkpt lat="49.60893" lon="3.43484">
        <ele>126.9</ele>
        <time>2025-10-05T12:18:16.000Z</time>
      </trkpt>
      <trkpt lat="49.60894" lon="3.43484">
        <ele>127.1</ele>
        <time>2025-10-05T12:18:17.000Z</time>
      </trkpt>
      <trkpt lat="49.60895" lon="3.43484">
        <ele>127.4</ele>
        <time>2025-10-05T12:18:18.000Z</time>
      </trkpt>
      <trkpt lat="49.60896" lon="3.43485">
        <ele>127.4</ele>
        <time>2025-10-05T12:18:19.000Z</time>
      </trkpt>
      <trkpt lat="49.60898" lon="3.43486">
        <ele>127.3</ele>
        <time>2025-10-05T12:18:20.000Z</time>
      </trkpt>
      <trkpt lat="49.60899" lon="3.43487">
        <ele>127.2</ele>
        <time>2025-10-05T12:18:21.000Z</time>
      </trkpt>
      <trkpt lat="49.609" lon="3.43487">
        <ele>127.3</ele>
        <time>2025-10-05T12:18:22.000Z</time>
      </trkpt>
      <trkpt lat="49.60901" lon="3.43488">
        <ele>127.4</ele>
        <time>2025-10-05T12:18:23.000Z</time>
      </trkpt>
      <trkpt lat="49.60902" lon="3.43489">
        <ele>127.6</ele>
        <time>2025-10-05T12:18:24.000Z</time>
      </trkpt>
      <trkpt lat="49.60903" lon="3.43489">
        <ele>127.8</ele>
        <time>2025-10-05T12:18:25.000Z</time>
      </trkpt>
      <trkpt lat="49.60904" lon="3.43488">
        <ele>127.8</ele>
        <time>2025-10-05T12:18:26.000Z</time>
      </trkpt>
      <trkpt lat="49.60905" lon="3.43489">
        <ele>127.8</ele>
        <time>2025-10-05T12:18:27.000Z</time>
      </trkpt>
      <trkpt lat="49.60906" lon="3.43489">
        <ele>127.6</ele>
        <time>2025-10-05T12:18:28.000Z</time>
      </trkpt>
      <trkpt lat="49.60907" lon="3.43489">
        <ele>127.6</ele>
        <time>2025-10-05T12:18:29.000Z</time>
      </trkpt>
      <trkpt lat="49.60908" lon="3.43489">
        <ele>127.6</ele>
        <time>2025-10-05T12:18:30.000Z</time>
      </trkpt>
      <trkpt lat="49.60909" lon="3.4349">
        <ele>127.4</ele>
        <time>2025-10-05T12:18:31.000Z</time>
      </trkpt>
      <trkpt lat="49.60909" lon="3.4349">
        <ele>127.5</ele>
        <time>2025-10-05T12:18:32.000Z</time>
      </trkpt>
      <trkpt lat="49.60909" lon="3.4349">
        <ele>127.6</ele>
        <time>2025-10-05T12:18:33.000Z</time>
      </trkpt>
      <trkpt lat="49.6091" lon="3.43491">
        <ele>128</ele>
        <time>2025-10-05T12:18:34.000Z</time>
      </trkpt>
      <trkpt lat="49.60911" lon="3.43491">
        <ele>127.9</ele>
        <time>2025-10-05T12:18:35.000Z</time>
      </trkpt>
      <trkpt lat="49.60912" lon="3.43492">
        <ele>127.9</ele>
        <time>2025-10-05T12:18:36.000Z</time>
      </trkpt>
      <trkpt lat="49.60913" lon="3.43492">
        <ele>127.9</ele>
        <time>2025-10-05T12:18:37.000Z</time>
      </trkpt>
      <trkpt lat="49.60913" lon="3.43492">
        <ele>127.9</ele>
        <time>2025-10-05T12:18:38.000Z</time>
      </trkpt>
      <trkpt lat="49.60914" lon="3.43492">
        <ele>128</ele>
        <time>2025-10-05T12:18:39.000Z</time>
      </trkpt>
      <trkpt lat="49.60914" lon="3.43492">
        <ele>127.9</ele>
        <time>2025-10-05T12:18:40.000Z</time>
      </trkpt>
      <trkpt lat="49.60915" lon="3.43492">
        <ele>127.7</ele>
        <time>2025-10-05T12:18:41.000Z</time>
      </trkpt>
      <trkpt lat="49.60916" lon="3.43492">
        <ele>127.8</ele>
        <time>2025-10-05T12:18:42.000Z</time>
      </trkpt>
      <trkpt lat="49.60917" lon="3.43493">
        <ele>127.9</ele>
        <time>2025-10-05T12:18:43.000Z</time>
      </trkpt>
      <trkpt lat="49.60917" lon="3.43493">
        <ele>127.7</ele>
        <time>2025-10-05T12:18:44.000Z</time>
      </trkpt>
      <trkpt lat="49.60918" lon="3.43493">
        <ele>127.4</ele>
        <time>2025-10-05T12:18:45.000Z</time>
      </trkpt>
      <trkpt lat="49.60919" lon="3.43494">
        <ele>127</ele>
        <time>2025-10-05T12:18:46.000Z</time>
      </trkpt>
      <trkpt lat="49.6092" lon="3.43494">
        <ele>126.8</ele>
        <time>2025-10-05T12:18:47.000Z</time>
      </trkpt>
      <trkpt lat="49.60921" lon="3.43495">
        <ele>126.7</ele>
        <time>2025-10-05T12:18:48.000Z</time>
      </trkpt>
      <trkpt lat="49.60922" lon="3.43495">
        <ele>126.5</ele>
        <time>2025-10-05T12:18:49.000Z</time>
      </trkpt>
      <trkpt lat="49.60923" lon="3.43496">
        <ele>126.4</ele>
        <time>2025-10-05T12:18:50.000Z</time>
      </trkpt>
      <trkpt lat="49.60924" lon="3.43496">
        <ele>126.4</ele>
        <time>2025-10-05T12:18:51.000Z</time>
      </trkpt>
      <trkpt lat="49.60925" lon="3.43497">
        <ele>126.6</ele>
        <time>2025-10-05T12:18:52.000Z</time>
      </trkpt>
      <trkpt lat="49.60927" lon="3.43497">
        <ele>126.8</ele>
        <time>2025-10-05T12:18:53.000Z</time>
      </trkpt>
      <trkpt lat="49.60928" lon="3.43498">
        <ele>126.9</ele>
        <time>2025-10-05T12:18:54.000Z</time>
      </trkpt>
      <trkpt lat="49.60929" lon="3.43498">
        <ele>126.9</ele>
        <time>2025-10-05T12:18:55.000Z</time>
      </trkpt>
      <trkpt lat="49.6093" lon="3.43499">
        <ele>127.1</ele>
        <time>2025-10-05T12:18:56.000Z</time>
      </trkpt>
      <trkpt lat="49.60931" lon="3.435">
        <ele>127.1</ele>
        <time>2025-10-05T12:18:57.000Z</time>
      </trkpt>
      <trkpt lat="49.60932" lon="3.435">
        <ele>127.4</ele>
        <time>2025-10-05T12:18:58.000Z</time>
      </trkpt>
      <trkpt lat="49.60933" lon="3.435">
        <ele>127.3</ele>
        <time>2025-10-05T12:18:59.000Z</time>
      </trkpt>
      <trkpt lat="49.60934" lon="3.435">
        <ele>127.3</ele>
        <time>2025-10-05T12:19:00.000Z</time>
      </trkpt>
      <trkpt lat="49.60935" lon="3.435">
        <ele>127.3</ele>
        <time>2025-10-05T12:19:01.000Z</time>
      </trkpt>
      <trkpt lat="49.60935" lon="3.43501">
        <ele>126.9</ele>
        <time>2025-10-05T12:19:02.000Z</time>
      </trkpt>
      <trkpt lat="49.60935" lon="3.43502">
        <ele>126.9</ele>
        <time>2025-10-05T12:19:03.000Z</time>
      </trkpt>
      <trkpt lat="49.60936" lon="3.43502">
        <ele>127</ele>
        <time>2025-10-05T12:19:04.000Z</time>
      </trkpt>
      <trkpt lat="49.60936" lon="3.43502">
        <ele>127.1</ele>
        <time>2025-10-05T12:19:05.000Z</time>
      </trkpt>
      <trkpt lat="49.60937" lon="3.43503">
        <ele>127.3</ele>
        <time>2025-10-05T12:19:06.000Z</time>
      </trkpt>
      <trkpt lat="49.60937" lon="3.43503">
        <ele>127.6</ele>
        <time>2025-10-05T12:19:07.000Z</time>
      </trkpt>
      <trkpt lat="49.60938" lon="3.43504">
        <ele>127.6</ele>
        <time>2025-10-05T12:19:08.000Z</time>
      </trkpt>
      <trkpt lat="49.60938" lon="3.43505">
        <ele>127.8</ele>
        <time>2025-10-05T12:19:09.000Z</time>
      </trkpt>
      <trkpt lat="49.60939" lon="3.43505">
        <ele>127.8</ele>
        <time>2025-10-05T12:19:10.000Z</time>
      </trkpt>
      <trkpt lat="49.60939" lon="3.43505">
        <ele>127.8</ele>
        <time>2025-10-05T12:19:11.000Z</time>
      </trkpt>
      <trkpt lat="49.6094" lon="3.43505">
        <ele>127.6</ele>
        <time>2025-10-05T12:19:12.000Z</time>
      </trkpt>
      <trkpt lat="49.60941" lon="3.43505">
        <ele>127.4</ele>
        <time>2025-10-05T12:19:13.000Z</time>
      </trkpt>
      <trkpt lat="49.60942" lon="3.43505">
        <ele>127.5</ele>
        <time>2025-10-05T12:19:14.000Z</time>
      </trkpt>
      <trkpt lat="49.60943" lon="3.43505">
        <ele>127.5</ele>
        <time>2025-10-05T12:19:15.000Z</time>
      </trkpt>
      <trkpt lat="49.60944" lon="3.43506">
        <ele>127.3</ele>
        <time>2025-10-05T12:19:16.000Z</time>
      </trkpt>
      <trkpt lat="49.60945" lon="3.43506">
        <ele>127.2</ele>
        <time>2025-10-05T12:19:17.000Z</time>
      </trkpt>
      <trkpt lat="49.60946" lon="3.43507">
        <ele>127.1</ele>
        <time>2025-10-05T12:19:18.000Z</time>
      </trkpt>
      <trkpt lat="49.60946" lon="3.43507">
        <ele>127.4</ele>
        <time>2025-10-05T12:19:19.000Z</time>
      </trkpt>
      <trkpt lat="49.60947" lon="3.43507">
        <ele>127.3</ele>
        <time>2025-10-05T12:19:20.000Z</time>
      </trkpt>
      <trkpt lat="49.60948" lon="3.43508">
        <ele>127.3</ele>
        <time>2025-10-05T12:19:21.000Z</time>
      </trkpt>
      <trkpt lat="49.60948" lon="3.43508">
        <ele>127.3</ele>
        <time>2025-10-05T12:19:22.000Z</time>
      </trkpt>
      <trkpt lat="49.60948" lon="3.43508">
        <ele>127.4</ele>
        <time>2025-10-05T12:19:23.000Z</time>
      </trkpt>
      <trkpt lat="49.60949" lon="3.43508">
        <ele>127.3</ele>
        <time>2025-10-05T12:19:24.000Z</time>
      </trkpt>
      <trkpt lat="49.6095" lon="3.43508">
        <ele>127.2</ele>
        <time>2025-10-05T12:19:25.000Z</time>
      </trkpt>
      <trkpt lat="49.60951" lon="3.43509">
        <ele>127</ele>
        <time>2025-10-05T12:19:26.000Z</time>
      </trkpt>
      <trkpt lat="49.60951" lon="3.43508">
        <ele>126.7</ele>
        <time>2025-10-05T12:19:27.000Z</time>
      </trkpt>
      <trkpt lat="49.60951" lon="3.43509">
        <ele>126.4</ele>
        <time>2025-10-05T12:19:28.000Z</time>
      </trkpt>
      <trkpt lat="49.60951" lon="3.4351">
        <ele>126</ele>
        <time>2025-10-05T12:19:29.000Z</time>
      </trkpt>
      <trkpt lat="49.60952" lon="3.43511">
        <ele>125.9</ele>
        <time>2025-10-05T12:19:30.000Z</time>
      </trkpt>
      <trkpt lat="49.60952" lon="3.43511">
        <ele>125.4</ele>
        <time>2025-10-05T12:19:31.000Z</time>
      </trkpt>
      <trkpt lat="49.60952" lon="3.43511">
        <ele>125</ele>
        <time>2025-10-05T12:19:32.000Z</time>
      </trkpt>
      <trkpt lat="49.60953" lon="3.43511">
        <ele>124.9</ele>
        <time>2025-10-05T12:19:33.000Z</time>
      </trkpt>
      <trkpt lat="49.60954" lon="3.43512">
        <ele>124.9</ele>
        <time>2025-10-05T12:19:34.000Z</time>
      </trkpt>
      <trkpt lat="49.60955" lon="3.43512">
        <ele>124.8</ele>
        <time>2025-10-05T12:19:35.000Z</time>
      </trkpt>
      <trkpt lat="49.60956" lon="3.43513">
        <ele>124.6</ele>
        <time>2025-10-05T12:19:36.000Z</time>
      </trkpt>
      <trkpt lat="49.60957" lon="3.43513">
        <ele>124.7</ele>
        <time>2025-10-05T12:19:37.000Z</time>
      </trkpt>
      <trkpt lat="49.60958" lon="3.43513">
        <ele>124.6</ele>
        <time>2025-10-05T12:19:38.000Z</time>
      </trkpt>
      <trkpt lat="49.60958" lon="3.43513">
        <ele>124.4</ele>
        <time>2025-10-05T12:19:39.000Z</time>
      </trkpt>
      <trkpt lat="49.60959" lon="3.43514">
        <ele>124.1</ele>
        <time>2025-10-05T12:19:40.000Z</time>
      </trkpt>
      <trkpt lat="49.6096" lon="3.43514">
        <ele>123.9</ele>
        <time>2025-10-05T12:19:41.000Z</time>
      </trkpt>
      <trkpt lat="49.6096" lon="3.43515">
        <ele>123.7</ele>
        <time>2025-10-05T12:19:42.000Z</time>
      </trkpt>
      <trkpt lat="49.60961" lon="3.43515">
        <ele>123.4</ele>
        <time>2025-10-05T12:19:43.000Z</time>
      </trkpt>
      <trkpt lat="49.60962" lon="3.43515">
        <ele>123.4</ele>
        <time>2025-10-05T12:19:44.000Z</time>
      </trkpt>
      <trkpt lat="49.60963" lon="3.43516">
        <ele>123.3</ele>
        <time>2025-10-05T12:19:45.000Z</time>
      </trkpt>
      <trkpt lat="49.60964" lon="3.43516">
        <ele>123.2</ele>
        <time>2025-10-05T12:19:46.000Z</time>
      </trkpt>
      <trkpt lat="49.60965" lon="3.43517">
        <ele>123.1</ele>
        <time>2025-10-05T12:19:47.000Z</time>
      </trkpt>
      <trkpt lat="49.60966" lon="3.43518">
        <ele>123.2</ele>
        <time>2025-10-05T12:19:48.000Z</time>
      </trkpt>
      <trkpt lat="49.60967" lon="3.43518">
        <ele>123.2</ele>
        <time>2025-10-05T12:19:49.000Z</time>
      </trkpt>
      <trkpt lat="49.60968" lon="3.43519">
        <ele>123.4</ele>
        <time>2025-10-05T12:19:50.000Z</time>
      </trkpt>
      <trkpt lat="49.60969" lon="3.4352">
        <ele>123.6</ele>
        <time>2025-10-05T12:19:51.000Z</time>
      </trkpt>
      <trkpt lat="49.6097" lon="3.4352">
        <ele>123.8</ele>
        <time>2025-10-05T12:19:52.000Z</time>
      </trkpt>
      <trkpt lat="49.60971" lon="3.4352">
        <ele>124</ele>
        <time>2025-10-05T12:19:53.000Z</time>
      </trkpt>
      <trkpt lat="49.60971" lon="3.4352">
        <ele>124.1</ele>
        <time>2025-10-05T12:19:54.000Z</time>
      </trkpt>
      <trkpt lat="49.60972" lon="3.43521">
        <ele>123.9</ele>
        <time>2025-10-05T12:19:55.000Z</time>
      </trkpt>
      <trkpt lat="49.60973" lon="3.43522">
        <ele>124</ele>
        <time>2025-10-05T12:19:56.000Z</time>
      </trkpt>
      <trkpt lat="49.60973" lon="3.43523">
        <ele>124</ele>
        <time>2025-10-05T12:19:57.000Z</time>
      </trkpt>
      <trkpt lat="49.60974" lon="3.43523">
        <ele>124.3</ele>
        <time>2025-10-05T12:19:58.000Z</time>
      </trkpt>
      <trkpt lat="49.60974" lon="3.43524">
        <ele>124.4</ele>
        <time>2025-10-05T12:19:59.000Z</time>
      </trkpt>
      <trkpt lat="49.60975" lon="3.43526">
        <ele>124.6</ele>
        <time>2025-10-05T12:20:00.000Z</time>
      </trkpt>
      <trkpt lat="49.60976" lon="3.43527">
        <ele>124.7</ele>
        <time>2025-10-05T12:20:01.000Z</time>
      </trkpt>
      <trkpt lat="49.60976" lon="3.43528">
        <ele>124.9</ele>
        <time>2025-10-05T12:20:02.000Z</time>
      </trkpt>
      <trkpt lat="49.60976" lon="3.43528">
        <ele>125.3</ele>
        <time>2025-10-05T12:20:03.000Z</time>
      </trkpt>
      <trkpt lat="49.60976" lon="3.43528">
        <ele>126</ele>
        <time>2025-10-05T12:20:04.000Z</time>
      </trkpt>
      <trkpt lat="49.60976" lon="3.43529">
        <ele>126.6</ele>
        <time>2025-10-05T12:20:05.000Z</time>
      </trkpt>
      <trkpt lat="49.60977" lon="3.43528">
        <ele>127</ele>
        <time>2025-10-05T12:20:06.000Z</time>
      </trkpt>
      <trkpt lat="49.60977" lon="3.43529">
        <ele>127.1</ele>
        <time>2025-10-05T12:20:07.000Z</time>
      </trkpt>
      <trkpt lat="49.60977" lon="3.43529">
        <ele>127.2</ele>
        <time>2025-10-05T12:20:08.000Z</time>
      </trkpt>
      <trkpt lat="49.60977" lon="3.43529">
        <ele>127.3</ele>
        <time>2025-10-05T12:20:09.000Z</time>
      </trkpt>
      <trkpt lat="49.60977" lon="3.43529">
        <ele>127.3</ele>
        <time>2025-10-05T12:20:10.000Z</time>
      </trkpt>
      <trkpt lat="49.60977" lon="3.43529">
        <ele>127.3</ele>
        <time>2025-10-05T12:20:11.000Z</time>
      </trkpt>
      <trkpt lat="49.60977" lon="3.43529">
        <ele>127.3</ele>
        <time>2025-10-05T12:20:12.000Z</time>
      </trkpt>
      <trkpt lat="49.60977" lon="3.43529">
        <ele>127.3</ele>
        <time>2025-10-05T12:20:13.000Z</time>
      </trkpt>
      <trkpt lat="49.60977" lon="3.43529">
        <ele>127.3</ele>
        <time>2025-10-05T12:20:14.000Z</time>
      </trkpt>
      <trkpt lat="49.60977" lon="3.43529">
        <ele>127.3</ele>
        <time>2025-10-05T12:20:15.000Z</time>
      </trkpt>
      <trkpt lat="49.60977" lon="3.43529">
        <ele>127.3</ele>
        <time>2025-10-05T12:20:16.000Z</time>
      </trkpt>
      <trkpt lat="49.60977" lon="3.43529">
        <ele>127.3</ele>
        <time>2025-10-05T12:20:17.000Z</time>
      </trkpt>
      <trkpt lat="49.60977" lon="3.43529">
        <ele>127.3</ele>
        <time>2025-10-05T12:20:18.000Z</time>
      </trkpt>
      <trkpt lat="49.60977" lon="3.43529">
        <ele>127.3</ele>
        <time>2025-10-05T12:20:19.000Z</time>
      </trkpt>
      <trkpt lat="49.60977" lon="3.43529">
        <ele>127.3</ele>
        <time>2025-10-05T12:20:20.000Z</time>
      </trkpt>
      <trkpt lat="49.60977" lon="3.43529">
        <ele>127.3</ele>
        <time>2025-10-05T12:20:21.000Z</time>
      </trkpt>
      <trkpt lat="49.60977" lon="3.43529">
        <ele>127.3</ele>
        <time>2025-10-05T12:20:22.000Z</time>
      </trkpt>
      <trkpt lat="49.60977" lon="3.43529">
        <ele>127.3</ele>
        <time>2025-10-05T12:20:23.000Z</time>
      </trkpt>
      <trkpt lat="49.60977" lon="3.43529">
        <ele>127.3</ele>
        <time>2025-10-05T12:20:24.000Z</time>
      </trkpt>
      <trkpt lat="49.60977" lon="3.43529">
        <ele>127.3</ele>
        <time>2025-10-05T12:20:25.000Z</time>
      </trkpt>
      <trkpt lat="49.60977" lon="3.43529">
        <ele>127.3</ele>
        <time>2025-10-05T12:20:26.000Z</time>
      </trkpt>
      <trkpt lat="49.60977" lon="3.43529">
        <ele>127.3</ele>
        <time>2025-10-05T12:20:27.000Z</time>
      </trkpt>
      <trkpt lat="49.60977" lon="3.43529">
        <ele>127.3</ele>
        <time>2025-10-05T12:20:28.000Z</time>
      </trkpt>
      <trkpt lat="49.60977" lon="3.43529">
        <ele>127.3</ele>
        <time>2025-10-05T12:20:29.000Z</time>
      </trkpt>
      <trkpt lat="49.60977" lon="3.43529">
        <ele>127.3</ele>
        <time>2025-10-05T12:20:30.000Z</time>
      </trkpt>
      <trkpt lat="49.60977" lon="3.43529">
        <ele>127.3</ele>
        <time>2025-10-05T12:20:31.000Z</time>
      </trkpt>
      <trkpt lat="49.60977" lon="3.43529">
        <ele>127.3</ele>
        <time>2025-10-05T12:20:32.000Z</time>
      </trkpt>
      <trkpt lat="49.60977" lon="3.43529">
        <ele>127.3</ele>
        <time>2025-10-05T12:20:33.000Z</time>
      </trkpt>
      <trkpt lat="49.60977" lon="3.43529">
        <ele>127.3</ele>
        <time>2025-10-05T12:20:34.000Z</time>
      </trkpt>
      <trkpt lat="49.60977" lon="3.43529">
        <ele>127.3</ele>
        <time>2025-10-05T12:20:35.000Z</time>
      </trkpt>
      <trkpt lat="49.60977" lon="3.43529">
        <ele>127.3</ele>
        <time>2025-10-05T12:20:36.000Z</time>
      </trkpt>
      <trkpt lat="49.60977" lon="3.43529">
        <ele>127.3</ele>
        <time>2025-10-05T12:20:37.000Z</time>
      </trkpt>
      <trkpt lat="49.60977" lon="3.43529">
        <ele>127.3</ele>
        <time>2025-10-05T12:20:38.000Z</time>
      </trkpt>
      <trkpt lat="49.60977" lon="3.43529">
        <ele>127.3</ele>
        <time>2025-10-05T12:20:39.000Z</time>
      </trkpt>
      <trkpt lat="49.60977" lon="3.43529">
        <ele>127.3</ele>
        <time>2025-10-05T12:20:40.000Z</time>
      </trkpt>
      <trkpt lat="49.60977" lon="3.43529">
        <ele>127.3</ele>
        <time>2025-10-05T12:20:41.000Z</time>
      </trkpt>
      <trkpt lat="49.60977" lon="3.43529">
        <ele>127.3</ele>
        <time>2025-10-05T12:20:42.000Z</time>
      </trkpt>
      <trkpt lat="49.60977" lon="3.43529">
        <ele>127.3</ele>
        <time>2025-10-05T12:20:43.000Z</time>
      </trkpt>
      <trkpt lat="49.60977" lon="3.43529">
        <ele>127.3</ele>
        <time>2025-10-05T12:20:44.000Z</time>
      </trkpt>
      <trkpt lat="49.60977" lon="3.43529">
        <ele>127.3</ele>
        <time>2025-10-05T12:20:45.000Z</time>
      </trkpt>
      <trkpt lat="49.60977" lon="3.43529">
        <ele>127.3</ele>
        <time>2025-10-05T12:20:46.000Z</time>
      </trkpt>
      <trkpt lat="49.60977" lon="3.43529">
        <ele>127.3</ele>
        <time>2025-10-05T12:20:47.000Z</time>
      </trkpt>
      <trkpt lat="49.60977" lon="3.43529">
        <ele>127.3</ele>
        <time>2025-10-05T12:20:48.000Z</time>
      </trkpt>
      <trkpt lat="49.60977" lon="3.43529">
        <ele>127.3</ele>
        <time>2025-10-05T12:20:49.000Z</time>
      </trkpt>
      <trkpt lat="49.60977" lon="3.43529">
        <ele>127.3</ele>
        <time>2025-10-05T12:20:50.000Z</time>
      </trkpt>
      <trkpt lat="49.60977" lon="3.43529">
        <ele>127.3</ele>
        <time>2025-10-05T12:20:51.000Z</time>
      </trkpt>
      <trkpt lat="49.60977" lon="3.43529">
        <ele>127.3</ele>
        <time>2025-10-05T12:20:52.000Z</time>
      </trkpt>
      <trkpt lat="49.60977" lon="3.43529">
        <ele>127.3</ele>
        <time>2025-10-05T12:20:53.000Z</time>
      </trkpt>
      <trkpt lat="49.60977" lon="3.43529">
        <ele>127.3</ele>
        <time>2025-10-05T12:20:54.000Z</time>
      </trkpt>
      <trkpt lat="49.60981" lon="3.43533">
        <ele>124.4</ele>
        <time>2025-10-05T12:20:55.000Z</time>
      </trkpt>
      <trkpt lat="49.60982" lon="3.43532">
        <ele>124.3</ele>
        <time>2025-10-05T12:20:56.000Z</time>
      </trkpt>
      <trkpt lat="49.60982" lon="3.43531">
        <ele>124.2</ele>
        <time>2025-10-05T12:20:57.000Z</time>
      </trkpt>
      <trkpt lat="49.60983" lon="3.4353">
        <ele>124</ele>
        <time>2025-10-05T12:20:58.000Z</time>
      </trkpt>
      <trkpt lat="49.60984" lon="3.43531">
        <ele>124.2</ele>
        <time>2025-10-05T12:20:59.000Z</time>
      </trkpt>
      <trkpt lat="49.60984" lon="3.43531">
        <ele>124.5</ele>
        <time>2025-10-05T12:21:00.000Z</time>
      </trkpt>
      <trkpt lat="49.60984" lon="3.43531">
        <ele>124.5</ele>
        <time>2025-10-05T12:21:01.000Z</time>
      </trkpt>
      <trkpt lat="49.60983" lon="3.43532">
        <ele>124.7</ele>
        <time>2025-10-05T12:21:02.000Z</time>
      </trkpt>
      <trkpt lat="49.60983" lon="3.43531">
        <ele>124.8</ele>
        <time>2025-10-05T12:21:03.000Z</time>
      </trkpt>
      <trkpt lat="49.60983" lon="3.43532">
        <ele>124.7</ele>
        <time>2025-10-05T12:21:04.000Z</time>
      </trkpt>
      <trkpt lat="49.60983" lon="3.43532">
        <ele>124.7</ele>
        <time>2025-10-05T12:21:05.000Z</time>
      </trkpt>
      <trkpt lat="49.60983" lon="3.43532">
        <ele>124.7</ele>
        <time>2025-10-05T12:21:06.000Z</time>
      </trkpt>
      <trkpt lat="49.60983" lon="3.43532">
        <ele>124.7</ele>
        <time>2025-10-05T12:21:07.000Z</time>
      </trkpt>
      <trkpt lat="49.60983" lon="3.43532">
        <ele>124.7</ele>
        <time>2025-10-05T12:21:08.000Z</time>
      </trkpt>
      <trkpt lat="49.60983" lon="3.43532">
        <ele>124.7</ele>
        <time>2025-10-05T12:21:09.000Z</time>
      </trkpt>
      <trkpt lat="49.60983" lon="3.43532">
        <ele>124.7</ele>
        <time>2025-10-05T12:21:10.000Z</time>
      </trkpt>
      <trkpt lat="49.60984" lon="3.43534">
        <ele>125</ele>
        <time>2025-10-05T12:21:11.000Z</time>
      </trkpt>
      <trkpt lat="49.60985" lon="3.43533">
        <ele>125.1</ele>
        <time>2025-10-05T12:21:12.000Z</time>
      </trkpt>
      <trkpt lat="49.60986" lon="3.43534">
        <ele>125.4</ele>
        <time>2025-10-05T12:21:13.000Z</time>
      </trkpt>
      <trkpt lat="49.60986" lon="3.43534">
        <ele>125.7</ele>
        <time>2025-10-05T12:21:14.000Z</time>
      </trkpt>
      <trkpt lat="49.60987" lon="3.43534">
        <ele>125.8</ele>
        <time>2025-10-05T12:21:15.000Z</time>
      </trkpt>
      <trkpt lat="49.60987" lon="3.43534">
        <ele>125.9</ele>
        <time>2025-10-05T12:21:16.000Z</time>
      </trkpt>
      <trkpt lat="49.60987" lon="3.43534">
        <ele>126.1</ele>
        <time>2025-10-05T12:21:17.000Z</time>
      </trkpt>
      <trkpt lat="49.60988" lon="3.43535">
        <ele>125.9</ele>
        <time>2025-10-05T12:21:18.000Z</time>
      </trkpt>
      <trkpt lat="49.60988" lon="3.43535">
        <ele>125.7</ele>
        <time>2025-10-05T12:21:19.000Z</time>
      </trkpt>
      <trkpt lat="49.60989" lon="3.43535">
        <ele>125.4</ele>
        <time>2025-10-05T12:21:20.000Z</time>
      </trkpt>
      <trkpt lat="49.6099" lon="3.43535">
        <ele>125.4</ele>
        <time>2025-10-05T12:21:21.000Z</time>
      </trkpt>
      <trkpt lat="49.60992" lon="3.43536">
        <ele>125.4</ele>
        <time>2025-10-05T12:21:22.000Z</time>
      </trkpt>
      <trkpt lat="49.60993" lon="3.43535">
        <ele>125.2</ele>
        <time>2025-10-05T12:21:23.000Z</time>
      </trkpt>
      <trkpt lat="49.60994" lon="3.43536">
        <ele>125.2</ele>
        <time>2025-10-05T12:21:24.000Z</time>
      </trkpt>
      <trkpt lat="49.60995" lon="3.43536">
        <ele>125.1</ele>
        <time>2025-10-05T12:21:25.000Z</time>
      </trkpt>
      <trkpt lat="49.60996" lon="3.43536">
        <ele>124.9</ele>
        <time>2025-10-05T12:21:26.000Z</time>
      </trkpt>
      <trkpt lat="49.60997" lon="3.43537">
        <ele>124.8</ele>
        <time>2025-10-05T12:21:27.000Z</time>
      </trkpt>
      <trkpt lat="49.60997" lon="3.43537">
        <ele>124.9</ele>
        <time>2025-10-05T12:21:28.000Z</time>
      </trkpt>
      <trkpt lat="49.60998" lon="3.43538">
        <ele>124.7</ele>
        <time>2025-10-05T12:21:29.000Z</time>
      </trkpt>
      <trkpt lat="49.60999" lon="3.43538">
        <ele>124.6</ele>
        <time>2025-10-05T12:21:30.000Z</time>
      </trkpt>
      <trkpt lat="49.61" lon="3.43539">
        <ele>124.5</ele>
        <time>2025-10-05T12:21:31.000Z</time>
      </trkpt>
      <trkpt lat="49.61" lon="3.4354">
        <ele>124.4</ele>
        <time>2025-10-05T12:21:32.000Z</time>
      </trkpt>
      <trkpt lat="49.61001" lon="3.4354">
        <ele>124.4</ele>
        <time>2025-10-05T12:21:33.000Z</time>
      </trkpt>
      <trkpt lat="49.61002" lon="3.43541">
        <ele>124.4</ele>
        <time>2025-10-05T12:21:34.000Z</time>
      </trkpt>
      <trkpt lat="49.61003" lon="3.43542">
        <ele>124.3</ele>
        <time>2025-10-05T12:21:35.000Z</time>
      </trkpt>
      <trkpt lat="49.61005" lon="3.43542">
        <ele>124.4</ele>
        <time>2025-10-05T12:21:36.000Z</time>
      </trkpt>
      <trkpt lat="49.61006" lon="3.43543">
        <ele>124.4</ele>
        <time>2025-10-05T12:21:37.000Z</time>
      </trkpt>
      <trkpt lat="49.61007" lon="3.43544">
        <ele>124.5</ele>
        <time>2025-10-05T12:21:38.000Z</time>
      </trkpt>
      <trkpt lat="49.61008" lon="3.43544">
        <ele>124.6</ele>
        <time>2025-10-05T12:21:39.000Z</time>
      </trkpt>
      <trkpt lat="49.61009" lon="3.43544">
        <ele>124.7</ele>
        <time>2025-10-05T12:21:40.000Z</time>
      </trkpt>
      <trkpt lat="49.61009" lon="3.43544">
        <ele>124.4</ele>
        <time>2025-10-05T12:21:41.000Z</time>
      </trkpt>
      <trkpt lat="49.6101" lon="3.43544">
        <ele>124.1</ele>
        <time>2025-10-05T12:21:42.000Z</time>
      </trkpt>
      <trkpt lat="49.61011" lon="3.43544">
        <ele>124.2</ele>
        <time>2025-10-05T12:21:43.000Z</time>
      </trkpt>
      <trkpt lat="49.61012" lon="3.43545">
        <ele>124.1</ele>
        <time>2025-10-05T12:21:44.000Z</time>
      </trkpt>
      <trkpt lat="49.61013" lon="3.43545">
        <ele>124.2</ele>
        <time>2025-10-05T12:21:45.000Z</time>
      </trkpt>
      <trkpt lat="49.61014" lon="3.43546">
        <ele>124.4</ele>
        <time>2025-10-05T12:21:46.000Z</time>
      </trkpt>
      <trkpt lat="49.61015" lon="3.43547">
        <ele>124.9</ele>
        <time>2025-10-05T12:21:47.000Z</time>
      </trkpt>
      <trkpt lat="49.61016" lon="3.43547">
        <ele>125.2</ele>
        <time>2025-10-05T12:21:48.000Z</time>
      </trkpt>
      <trkpt lat="49.61017" lon="3.43547">
        <ele>125.3</ele>
        <time>2025-10-05T12:21:49.000Z</time>
      </trkpt>
      <trkpt lat="49.61018" lon="3.43548">
        <ele>125.3</ele>
        <time>2025-10-05T12:21:50.000Z</time>
      </trkpt>
      <trkpt lat="49.61019" lon="3.43548">
        <ele>125.3</ele>
        <time>2025-10-05T12:21:51.000Z</time>
      </trkpt>
      <trkpt lat="49.6102" lon="3.43549">
        <ele>125.4</ele>
        <time>2025-10-05T12:21:52.000Z</time>
      </trkpt>
      <trkpt lat="49.61021" lon="3.43549">
        <ele>125.2</ele>
        <time>2025-10-05T12:21:53.000Z</time>
      </trkpt>
      <trkpt lat="49.61022" lon="3.43549">
        <ele>124.6</ele>
        <time>2025-10-05T12:21:54.000Z</time>
      </trkpt>
      <trkpt lat="49.61023" lon="3.4355">
        <ele>124.2</ele>
        <time>2025-10-05T12:21:55.000Z</time>
      </trkpt>
      <trkpt lat="49.61024" lon="3.4355">
        <ele>123.6</ele>
        <time>2025-10-05T12:21:56.000Z</time>
      </trkpt>
      <trkpt lat="49.61025" lon="3.43551">
        <ele>123.4</ele>
        <time>2025-10-05T12:21:57.000Z</time>
      </trkpt>
      <trkpt lat="49.61025" lon="3.43551">
        <ele>123.5</ele>
        <time>2025-10-05T12:21:58.000Z</time>
      </trkpt>
      <trkpt lat="49.61026" lon="3.43551">
        <ele>123.4</ele>
        <time>2025-10-05T12:21:59.000Z</time>
      </trkpt>
      <trkpt lat="49.61027" lon="3.43552">
        <ele>123.3</ele>
        <time>2025-10-05T12:22:00.000Z</time>
      </trkpt>
      <trkpt lat="49.61028" lon="3.43553">
        <ele>123.3</ele>
        <time>2025-10-05T12:22:01.000Z</time>
      </trkpt>
      <trkpt lat="49.6103" lon="3.43554">
        <ele>123.3</ele>
        <time>2025-10-05T12:22:02.000Z</time>
      </trkpt>
      <trkpt lat="49.61031" lon="3.43554">
        <ele>123.5</ele>
        <time>2025-10-05T12:22:03.000Z</time>
      </trkpt>
      <trkpt lat="49.61031" lon="3.43554">
        <ele>123.7</ele>
        <time>2025-10-05T12:22:04.000Z</time>
      </trkpt>
      <trkpt lat="49.61032" lon="3.43554">
        <ele>123.6</ele>
        <time>2025-10-05T12:22:05.000Z</time>
      </trkpt>
      <trkpt lat="49.61033" lon="3.43554">
        <ele>123.6</ele>
        <time>2025-10-05T12:22:06.000Z</time>
      </trkpt>
      <trkpt lat="49.61034" lon="3.43555">
        <ele>123.9</ele>
        <time>2025-10-05T12:22:07.000Z</time>
      </trkpt>
      <trkpt lat="49.61035" lon="3.43555">
        <ele>123.9</ele>
        <time>2025-10-05T12:22:08.000Z</time>
      </trkpt>
      <trkpt lat="49.61036" lon="3.43556">
        <ele>124.6</ele>
        <time>2025-10-05T12:22:09.000Z</time>
      </trkpt>
      <trkpt lat="49.61037" lon="3.43556">
        <ele>124.5</ele>
        <time>2025-10-05T12:22:10.000Z</time>
      </trkpt>
      <trkpt lat="49.61038" lon="3.43557">
        <ele>124.3</ele>
        <time>2025-10-05T12:22:11.000Z</time>
      </trkpt>
      <trkpt lat="49.61039" lon="3.43557">
        <ele>124.5</ele>
        <time>2025-10-05T12:22:12.000Z</time>
      </trkpt>
      <trkpt lat="49.6104" lon="3.43558">
        <ele>124.4</ele>
        <time>2025-10-05T12:22:13.000Z</time>
      </trkpt>
      <trkpt lat="49.61041" lon="3.43558">
        <ele>124.4</ele>
        <time>2025-10-05T12:22:14.000Z</time>
      </trkpt>
      <trkpt lat="49.61042" lon="3.4356">
        <ele>124.7</ele>
        <time>2025-10-05T12:22:15.000Z</time>
      </trkpt>
      <trkpt lat="49.61044" lon="3.4356">
        <ele>124.8</ele>
        <time>2025-10-05T12:22:16.000Z</time>
      </trkpt>
      <trkpt lat="49.61045" lon="3.43561">
        <ele>124.9</ele>
        <time>2025-10-05T12:22:17.000Z</time>
      </trkpt>
      <trkpt lat="49.61046" lon="3.43562">
        <ele>124.8</ele>
        <time>2025-10-05T12:22:18.000Z</time>
      </trkpt>
      <trkpt lat="49.61047" lon="3.43563">
        <ele>124.8</ele>
        <time>2025-10-05T12:22:19.000Z</time>
      </trkpt>
      <trkpt lat="49.61048" lon="3.43564">
        <ele>124.6</ele>
        <time>2025-10-05T12:22:20.000Z</time>
      </trkpt>
      <trkpt lat="49.61049" lon="3.43564">
        <ele>124.2</ele>
        <time>2025-10-05T12:22:21.000Z</time>
      </trkpt>
      <trkpt lat="49.6105" lon="3.43565">
        <ele>123.8</ele>
        <time>2025-10-05T12:22:22.000Z</time>
      </trkpt>
      <trkpt lat="49.61051" lon="3.43565">
        <ele>123.9</ele>
        <time>2025-10-05T12:22:23.000Z</time>
      </trkpt>
      <trkpt lat="49.61051" lon="3.43566">
        <ele>123.7</ele>
        <time>2025-10-05T12:22:24.000Z</time>
      </trkpt>
      <trkpt lat="49.61053" lon="3.43566">
        <ele>123.5</ele>
        <time>2025-10-05T12:22:25.000Z</time>
      </trkpt>
      <trkpt lat="49.61054" lon="3.43566">
        <ele>123.4</ele>
        <time>2025-10-05T12:22:26.000Z</time>
      </trkpt>
      <trkpt lat="49.61055" lon="3.43567">
        <ele>123.3</ele>
        <time>2025-10-05T12:22:27.000Z</time>
      </trkpt>
      <trkpt lat="49.61056" lon="3.43567">
        <ele>123.5</ele>
        <time>2025-10-05T12:22:28.000Z</time>
      </trkpt>
      <trkpt lat="49.61058" lon="3.43568">
        <ele>123.8</ele>
        <time>2025-10-05T12:22:29.000Z</time>
      </trkpt>
      <trkpt lat="49.61058" lon="3.43568">
        <ele>124.2</ele>
        <time>2025-10-05T12:22:30.000Z</time>
      </trkpt>
      <trkpt lat="49.6106" lon="3.43568">
        <ele>124.5</ele>
        <time>2025-10-05T12:22:31.000Z</time>
      </trkpt>
      <trkpt lat="49.61061" lon="3.43569">
        <ele>124.4</ele>
        <time>2025-10-05T12:22:32.000Z</time>
      </trkpt>
      <trkpt lat="49.61062" lon="3.4357">
        <ele>124.4</ele>
        <time>2025-10-05T12:22:33.000Z</time>
      </trkpt>
      <trkpt lat="49.61065" lon="3.43571">
        <ele>124.5</ele>
        <time>2025-10-05T12:22:34.000Z</time>
      </trkpt>
      <trkpt lat="49.61066" lon="3.43572">
        <ele>124.4</ele>
        <time>2025-10-05T12:22:35.000Z</time>
      </trkpt>
      <trkpt lat="49.61067" lon="3.43572">
        <ele>124.7</ele>
        <time>2025-10-05T12:22:36.000Z</time>
      </trkpt>
      <trkpt lat="49.61068" lon="3.43573">
        <ele>124.8</ele>
        <time>2025-10-05T12:22:37.000Z</time>
      </trkpt>
      <trkpt lat="49.61069" lon="3.43573">
        <ele>124.8</ele>
        <time>2025-10-05T12:22:38.000Z</time>
      </trkpt>
      <trkpt lat="49.61069" lon="3.43573">
        <ele>124.5</ele>
        <time>2025-10-05T12:22:39.000Z</time>
      </trkpt>
      <trkpt lat="49.6107" lon="3.43574">
        <ele>124.5</ele>
        <time>2025-10-05T12:22:40.000Z</time>
      </trkpt>
      <trkpt lat="49.61071" lon="3.43574">
        <ele>124.7</ele>
        <time>2025-10-05T12:22:41.000Z</time>
      </trkpt>
      <trkpt lat="49.61072" lon="3.43575">
        <ele>124.5</ele>
        <time>2025-10-05T12:22:42.000Z</time>
      </trkpt>
      <trkpt lat="49.61072" lon="3.43576">
        <ele>124.3</ele>
        <time>2025-10-05T12:22:43.000Z</time>
      </trkpt>
      <trkpt lat="49.61074" lon="3.43577">
        <ele>124.4</ele>
        <time>2025-10-05T12:22:44.000Z</time>
      </trkpt>
      <trkpt lat="49.61075" lon="3.43578">
        <ele>124.6</ele>
        <time>2025-10-05T12:22:45.000Z</time>
      </trkpt>
      <trkpt lat="49.61076" lon="3.43579">
        <ele>124.6</ele>
        <time>2025-10-05T12:22:46.000Z</time>
      </trkpt>
      <trkpt lat="49.61077" lon="3.4358">
        <ele>124.5</ele>
        <time>2025-10-05T12:22:47.000Z</time>
      </trkpt>
      <trkpt lat="49.61078" lon="3.4358">
        <ele>124.4</ele>
        <time>2025-10-05T12:22:48.000Z</time>
      </trkpt>
      <trkpt lat="49.6108" lon="3.4358">
        <ele>124</ele>
        <time>2025-10-05T12:22:49.000Z</time>
      </trkpt>
      <trkpt lat="49.61081" lon="3.4358">
        <ele>123.4</ele>
        <time>2025-10-05T12:22:50.000Z</time>
      </trkpt>
      <trkpt lat="49.61081" lon="3.4358">
        <ele>123.3</ele>
        <time>2025-10-05T12:22:51.000Z</time>
      </trkpt>
      <trkpt lat="49.61082" lon="3.43581">
        <ele>123.1</ele>
        <time>2025-10-05T12:22:52.000Z</time>
      </trkpt>
      <trkpt lat="49.61083" lon="3.43582">
        <ele>122.9</ele>
        <time>2025-10-05T12:22:53.000Z</time>
      </trkpt>
      <trkpt lat="49.61085" lon="3.43583">
        <ele>122.9</ele>
        <time>2025-10-05T12:22:54.000Z</time>
      </trkpt>
      <trkpt lat="49.61086" lon="3.43584">
        <ele>123</ele>
        <time>2025-10-05T12:22:55.000Z</time>
      </trkpt>
      <trkpt lat="49.61087" lon="3.43585">
        <ele>123.2</ele>
        <time>2025-10-05T12:22:56.000Z</time>
      </trkpt>
      <trkpt lat="49.61087" lon="3.43586">
        <ele>123.5</ele>
        <time>2025-10-05T12:22:57.000Z</time>
      </trkpt>
      <trkpt lat="49.61088" lon="3.43586">
        <ele>124</ele>
        <time>2025-10-05T12:22:58.000Z</time>
      </trkpt>
      <trkpt lat="49.61089" lon="3.43587">
        <ele>123.9</ele>
        <time>2025-10-05T12:22:59.000Z</time>
      </trkpt>
      <trkpt lat="49.6109" lon="3.43587">
        <ele>123.9</ele>
        <time>2025-10-05T12:23:00.000Z</time>
      </trkpt>
      <trkpt lat="49.61091" lon="3.43588">
        <ele>123.8</ele>
        <time>2025-10-05T12:23:01.000Z</time>
      </trkpt>
      <trkpt lat="49.61092" lon="3.43588">
        <ele>123.8</ele>
        <time>2025-10-05T12:23:02.000Z</time>
      </trkpt>
      <trkpt lat="49.61093" lon="3.43589">
        <ele>123.8</ele>
        <time>2025-10-05T12:23:03.000Z</time>
      </trkpt>
      <trkpt lat="49.61094" lon="3.4359">
        <ele>124</ele>
        <time>2025-10-05T12:23:04.000Z</time>
      </trkpt>
      <trkpt lat="49.61095" lon="3.43591">
        <ele>124.3</ele>
        <time>2025-10-05T12:23:05.000Z</time>
      </trkpt>
      <trkpt lat="49.61096" lon="3.43592">
        <ele>124.1</ele>
        <time>2025-10-05T12:23:06.000Z</time>
      </trkpt>
      <trkpt lat="49.61097" lon="3.43593">
        <ele>123.8</ele>
        <time>2025-10-05T12:23:07.000Z</time>
      </trkpt>
      <trkpt lat="49.61098" lon="3.43594">
        <ele>123.4</ele>
        <time>2025-10-05T12:23:08.000Z</time>
      </trkpt>
      <trkpt lat="49.61099" lon="3.43594">
        <ele>123.3</ele>
        <time>2025-10-05T12:23:09.000Z</time>
      </trkpt>
      <trkpt lat="49.611" lon="3.43595">
        <ele>123.1</ele>
        <time>2025-10-05T12:23:10.000Z</time>
      </trkpt>
      <trkpt lat="49.611" lon="3.43595">
        <ele>123.1</ele>
        <time>2025-10-05T12:23:11.000Z</time>
      </trkpt>
      <trkpt lat="49.61101" lon="3.43595">
        <ele>122.8</ele>
        <time>2025-10-05T12:23:12.000Z</time>
      </trkpt>
      <trkpt lat="49.61102" lon="3.43596">
        <ele>122.7</ele>
        <time>2025-10-05T12:23:13.000Z</time>
      </trkpt>
      <trkpt lat="49.61103" lon="3.43596">
        <ele>122.7</ele>
        <time>2025-10-05T12:23:14.000Z</time>
      </trkpt>
      <trkpt lat="49.61103" lon="3.43597">
        <ele>122.9</ele>
        <time>2025-10-05T12:23:15.000Z</time>
      </trkpt>
      <trkpt lat="49.61104" lon="3.43598">
        <ele>122.9</ele>
        <time>2025-10-05T12:23:16.000Z</time>
      </trkpt>
      <trkpt lat="49.61105" lon="3.43598">
        <ele>122.6</ele>
        <time>2025-10-05T12:23:17.000Z</time>
      </trkpt>
      <trkpt lat="49.61106" lon="3.43599">
        <ele>122.3</ele>
        <time>2025-10-05T12:23:18.000Z</time>
      </trkpt>
      <trkpt lat="49.61107" lon="3.436">
        <ele>121.8</ele>
        <time>2025-10-05T12:23:19.000Z</time>
      </trkpt>
      <trkpt lat="49.61108" lon="3.436">
        <ele>121.4</ele>
        <time>2025-10-05T12:23:20.000Z</time>
      </trkpt>
      <trkpt lat="49.61109" lon="3.43601">
        <ele>121.1</ele>
        <time>2025-10-05T12:23:21.000Z</time>
      </trkpt>
      <trkpt lat="49.61111" lon="3.43602">
        <ele>120.9</ele>
        <time>2025-10-05T12:23:22.000Z</time>
      </trkpt>
      <trkpt lat="49.61112" lon="3.43603">
        <ele>120.5</ele>
        <time>2025-10-05T12:23:23.000Z</time>
      </trkpt>
      <trkpt lat="49.61113" lon="3.43604">
        <ele>120.2</ele>
        <time>2025-10-05T12:23:24.000Z</time>
      </trkpt>
      <trkpt lat="49.61114" lon="3.43605">
        <ele>119.9</ele>
        <time>2025-10-05T12:23:25.000Z</time>
      </trkpt>
      <trkpt lat="49.61115" lon="3.43606">
        <ele>119.6</ele>
        <time>2025-10-05T12:23:26.000Z</time>
      </trkpt>
      <trkpt lat="49.61116" lon="3.43606">
        <ele>119.1</ele>
        <time>2025-10-05T12:23:27.000Z</time>
      </trkpt>
      <trkpt lat="49.61116" lon="3.43607">
        <ele>118.9</ele>
        <time>2025-10-05T12:23:28.000Z</time>
      </trkpt>
      <trkpt lat="49.61117" lon="3.43608">
        <ele>118.7</ele>
        <time>2025-10-05T12:23:29.000Z</time>
      </trkpt>
      <trkpt lat="49.61118" lon="3.43609">
        <ele>118.7</ele>
        <time>2025-10-05T12:23:30.000Z</time>
      </trkpt>
      <trkpt lat="49.61119" lon="3.4361">
        <ele>118.6</ele>
        <time>2025-10-05T12:23:31.000Z</time>
      </trkpt>
      <trkpt lat="49.6112" lon="3.4361">
        <ele>118.5</ele>
        <time>2025-10-05T12:23:32.000Z</time>
      </trkpt>
      <trkpt lat="49.61121" lon="3.4361">
        <ele>118.3</ele>
        <time>2025-10-05T12:23:33.000Z</time>
      </trkpt>
      <trkpt lat="49.61122" lon="3.43611">
        <ele>118.4</ele>
        <time>2025-10-05T12:23:34.000Z</time>
      </trkpt>
      <trkpt lat="49.61124" lon="3.43612">
        <ele>118.4</ele>
        <time>2025-10-05T12:23:35.000Z</time>
      </trkpt>
      <trkpt lat="49.61125" lon="3.43612">
        <ele>118.3</ele>
        <time>2025-10-05T12:23:36.000Z</time>
      </trkpt>
      <trkpt lat="49.61126" lon="3.43613">
        <ele>118.6</ele>
        <time>2025-10-05T12:23:37.000Z</time>
      </trkpt>
      <trkpt lat="49.61127" lon="3.43614">
        <ele>118.6</ele>
        <time>2025-10-05T12:23:38.000Z</time>
      </trkpt>
      <trkpt lat="49.61128" lon="3.43614">
        <ele>118.6</ele>
        <time>2025-10-05T12:23:39.000Z</time>
      </trkpt>
      <trkpt lat="49.61129" lon="3.43615">
        <ele>118.8</ele>
        <time>2025-10-05T12:23:40.000Z</time>
      </trkpt>
      <trkpt lat="49.6113" lon="3.43615">
        <ele>118.8</ele>
        <time>2025-10-05T12:23:41.000Z</time>
      </trkpt>
      <trkpt lat="49.61131" lon="3.43615">
        <ele>119.2</ele>
        <time>2025-10-05T12:23:42.000Z</time>
      </trkpt>
      <trkpt lat="49.61131" lon="3.43616">
        <ele>119.5</ele>
        <time>2025-10-05T12:23:43.000Z</time>
      </trkpt>
      <trkpt lat="49.61132" lon="3.43616">
        <ele>119.8</ele>
        <time>2025-10-05T12:23:44.000Z</time>
      </trkpt>
      <trkpt lat="49.61133" lon="3.43616">
        <ele>120.2</ele>
        <time>2025-10-05T12:23:45.000Z</time>
      </trkpt>
      <trkpt lat="49.61134" lon="3.43617">
        <ele>120</ele>
        <time>2025-10-05T12:23:46.000Z</time>
      </trkpt>
      <trkpt lat="49.61135" lon="3.43618">
        <ele>119.8</ele>
        <time>2025-10-05T12:23:47.000Z</time>
      </trkpt>
      <trkpt lat="49.61136" lon="3.43618">
        <ele>119.5</ele>
        <time>2025-10-05T12:23:48.000Z</time>
      </trkpt>
      <trkpt lat="49.61138" lon="3.43619">
        <ele>119.8</ele>
        <time>2025-10-05T12:23:49.000Z</time>
      </trkpt>
      <trkpt lat="49.61138" lon="3.43618">
        <ele>119.8</ele>
        <time>2025-10-05T12:23:50.000Z</time>
      </trkpt>
      <trkpt lat="49.61139" lon="3.43618">
        <ele>119.8</ele>
        <time>2025-10-05T12:23:51.000Z</time>
      </trkpt>
      <trkpt lat="49.6114" lon="3.43619">
        <ele>119.6</ele>
        <time>2025-10-05T12:23:52.000Z</time>
      </trkpt>
      <trkpt lat="49.6114" lon="3.4362">
        <ele>119.7</ele>
        <time>2025-10-05T12:23:53.000Z</time>
      </trkpt>
      <trkpt lat="49.61141" lon="3.43621">
        <ele>119.7</ele>
        <time>2025-10-05T12:23:54.000Z</time>
      </trkpt>
      <trkpt lat="49.61142" lon="3.43621">
        <ele>119.6</ele>
        <time>2025-10-05T12:23:55.000Z</time>
      </trkpt>
      <trkpt lat="49.61143" lon="3.43622">
        <ele>119.7</ele>
        <time>2025-10-05T12:23:56.000Z</time>
      </trkpt>
      <trkpt lat="49.61144" lon="3.43622">
        <ele>119.8</ele>
        <time>2025-10-05T12:23:57.000Z</time>
      </trkpt>
      <trkpt lat="49.61145" lon="3.43623">
        <ele>120</ele>
        <time>2025-10-05T12:23:58.000Z</time>
      </trkpt>
      <trkpt lat="49.61146" lon="3.43623">
        <ele>120.2</ele>
        <time>2025-10-05T12:23:59.000Z</time>
      </trkpt>
      <trkpt lat="49.61146" lon="3.43624">
        <ele>120.5</ele>
        <time>2025-10-05T12:24:00.000Z</time>
      </trkpt>
      <trkpt lat="49.61148" lon="3.43625">
        <ele>120.9</ele>
        <time>2025-10-05T12:24:01.000Z</time>
      </trkpt>
      <trkpt lat="49.61148" lon="3.43626">
        <ele>121.1</ele>
        <time>2025-10-05T12:24:02.000Z</time>
      </trkpt>
      <trkpt lat="49.6115" lon="3.43626">
        <ele>121.3</ele>
        <time>2025-10-05T12:24:03.000Z</time>
      </trkpt>
      <trkpt lat="49.61151" lon="3.43627">
        <ele>121.4</ele>
        <time>2025-10-05T12:24:04.000Z</time>
      </trkpt>
      <trkpt lat="49.61151" lon="3.43628">
        <ele>121.6</ele>
        <time>2025-10-05T12:24:05.000Z</time>
      </trkpt>
      <trkpt lat="49.61152" lon="3.43629">
        <ele>121.8</ele>
        <time>2025-10-05T12:24:06.000Z</time>
      </trkpt>
      <trkpt lat="49.61153" lon="3.4363">
        <ele>121.9</ele>
        <time>2025-10-05T12:24:07.000Z</time>
      </trkpt>
      <trkpt lat="49.61154" lon="3.4363">
        <ele>122.1</ele>
        <time>2025-10-05T12:24:08.000Z</time>
      </trkpt>
      <trkpt lat="49.61156" lon="3.43631">
        <ele>122.1</ele>
        <time>2025-10-05T12:24:09.000Z</time>
      </trkpt>
      <trkpt lat="49.61157" lon="3.43632">
        <ele>122</ele>
        <time>2025-10-05T12:24:10.000Z</time>
      </trkpt>
      <trkpt lat="49.61158" lon="3.43633">
        <ele>122.1</ele>
        <time>2025-10-05T12:24:11.000Z</time>
      </trkpt>
      <trkpt lat="49.61158" lon="3.43635">
        <ele>122</ele>
        <time>2025-10-05T12:24:12.000Z</time>
      </trkpt>
      <trkpt lat="49.61159" lon="3.43637">
        <ele>122</ele>
        <time>2025-10-05T12:24:13.000Z</time>
      </trkpt>
      <trkpt lat="49.61159" lon="3.43638">
        <ele>122</ele>
        <time>2025-10-05T12:24:14.000Z</time>
      </trkpt>
      <trkpt lat="49.6116" lon="3.4364">
        <ele>121.9</ele>
        <time>2025-10-05T12:24:15.000Z</time>
      </trkpt>
      <trkpt lat="49.6116" lon="3.4364">
        <ele>121.8</ele>
        <time>2025-10-05T12:24:16.000Z</time>
      </trkpt>
      <trkpt lat="49.61161" lon="3.43641">
        <ele>122</ele>
        <time>2025-10-05T12:24:17.000Z</time>
      </trkpt>
      <trkpt lat="49.61163" lon="3.43643">
        <ele>122.1</ele>
        <time>2025-10-05T12:24:18.000Z</time>
      </trkpt>
      <trkpt lat="49.61164" lon="3.43644">
        <ele>121.9</ele>
        <time>2025-10-05T12:24:19.000Z</time>
      </trkpt>
      <trkpt lat="49.61165" lon="3.43645">
        <ele>121.8</ele>
        <time>2025-10-05T12:24:20.000Z</time>
      </trkpt>
      <trkpt lat="49.61166" lon="3.43646">
        <ele>121.6</ele>
        <time>2025-10-05T12:24:21.000Z</time>
      </trkpt>
      <trkpt lat="49.61167" lon="3.43648">
        <ele>121.5</ele>
        <time>2025-10-05T12:24:22.000Z</time>
      </trkpt>
      <trkpt lat="49.61167" lon="3.4365">
        <ele>121.4</ele>
        <time>2025-10-05T12:24:23.000Z</time>
      </trkpt>
      <trkpt lat="49.61168" lon="3.4365">
        <ele>120.9</ele>
        <time>2025-10-05T12:24:24.000Z</time>
      </trkpt>
      <trkpt lat="49.61168" lon="3.43651">
        <ele>120.3</ele>
        <time>2025-10-05T12:24:25.000Z</time>
      </trkpt>
      <trkpt lat="49.61168" lon="3.43652">
        <ele>119.9</ele>
        <time>2025-10-05T12:24:26.000Z</time>
      </trkpt>
      <trkpt lat="49.61168" lon="3.43653">
        <ele>119.4</ele>
        <time>2025-10-05T12:24:27.000Z</time>
      </trkpt>
      <trkpt lat="49.61169" lon="3.43654">
        <ele>119.5</ele>
        <time>2025-10-05T12:24:28.000Z</time>
      </trkpt>
      <trkpt lat="49.6117" lon="3.43655">
        <ele>119.2</ele>
        <time>2025-10-05T12:24:29.000Z</time>
      </trkpt>
      <trkpt lat="49.61171" lon="3.43656">
        <ele>118.8</ele>
        <time>2025-10-05T12:24:30.000Z</time>
      </trkpt>
      <trkpt lat="49.61172" lon="3.43658">
        <ele>118.4</ele>
        <time>2025-10-05T12:24:31.000Z</time>
      </trkpt>
      <trkpt lat="49.61173" lon="3.43659">
        <ele>118.2</ele>
        <time>2025-10-05T12:24:32.000Z</time>
      </trkpt>
      <trkpt lat="49.61174" lon="3.4366">
        <ele>118.2</ele>
        <time>2025-10-05T12:24:33.000Z</time>
      </trkpt>
      <trkpt lat="49.61175" lon="3.43661">
        <ele>118.4</ele>
        <time>2025-10-05T12:24:34.000Z</time>
      </trkpt>
      <trkpt lat="49.61176" lon="3.43662">
        <ele>118.6</ele>
        <time>2025-10-05T12:24:35.000Z</time>
      </trkpt>
      <trkpt lat="49.61176" lon="3.43663">
        <ele>118.8</ele>
        <time>2025-10-05T12:24:36.000Z</time>
      </trkpt>
      <trkpt lat="49.61176" lon="3.43663">
        <ele>119</ele>
        <time>2025-10-05T12:24:37.000Z</time>
      </trkpt>
      <trkpt lat="49.61177" lon="3.43664">
        <ele>119.1</ele>
        <time>2025-10-05T12:24:38.000Z</time>
      </trkpt>
      <trkpt lat="49.61178" lon="3.43665">
        <ele>119.3</ele>
        <time>2025-10-05T12:24:39.000Z</time>
      </trkpt>
      <trkpt lat="49.61178" lon="3.43667">
        <ele>119.6</ele>
        <time>2025-10-05T12:24:40.000Z</time>
      </trkpt>
      <trkpt lat="49.61179" lon="3.43668">
        <ele>119.9</ele>
        <time>2025-10-05T12:24:41.000Z</time>
      </trkpt>
      <trkpt lat="49.61179" lon="3.43669">
        <ele>120</ele>
        <time>2025-10-05T12:24:42.000Z</time>
      </trkpt>
      <trkpt lat="49.6118" lon="3.4367">
        <ele>120</ele>
        <time>2025-10-05T12:24:43.000Z</time>
      </trkpt>
      <trkpt lat="49.6118" lon="3.43672">
        <ele>120</ele>
        <time>2025-10-05T12:24:44.000Z</time>
      </trkpt>
      <trkpt lat="49.61181" lon="3.43673">
        <ele>120</ele>
        <time>2025-10-05T12:24:45.000Z</time>
      </trkpt>
      <trkpt lat="49.61181" lon="3.43674">
        <ele>120.2</ele>
        <time>2025-10-05T12:24:46.000Z</time>
      </trkpt>
      <trkpt lat="49.61182" lon="3.43676">
        <ele>120</ele>
        <time>2025-10-05T12:24:47.000Z</time>
      </trkpt>
      <trkpt lat="49.61182" lon="3.43677">
        <ele>119.8</ele>
        <time>2025-10-05T12:24:48.000Z</time>
      </trkpt>
      <trkpt lat="49.61183" lon="3.43679">
        <ele>119.8</ele>
        <time>2025-10-05T12:24:49.000Z</time>
      </trkpt>
      <trkpt lat="49.61184" lon="3.43681">
        <ele>119.8</ele>
        <time>2025-10-05T12:24:50.000Z</time>
      </trkpt>
      <trkpt lat="49.61185" lon="3.43683">
        <ele>119.9</ele>
        <time>2025-10-05T12:24:51.000Z</time>
      </trkpt>
      <trkpt lat="49.61185" lon="3.43684">
        <ele>120</ele>
        <time>2025-10-05T12:24:52.000Z</time>
      </trkpt>
      <trkpt lat="49.61185" lon="3.43686">
        <ele>119.8</ele>
        <time>2025-10-05T12:24:53.000Z</time>
      </trkpt>
      <trkpt lat="49.61186" lon="3.43687">
        <ele>119.5</ele>
        <time>2025-10-05T12:24:54.000Z</time>
      </trkpt>
      <trkpt lat="49.61187" lon="3.43689">
        <ele>119.4</ele>
        <time>2025-10-05T12:24:55.000Z</time>
      </trkpt>
      <trkpt lat="49.61189" lon="3.4369">
        <ele>119.3</ele>
        <time>2025-10-05T12:24:56.000Z</time>
      </trkpt>
      <trkpt lat="49.61189" lon="3.4369">
        <ele>119.2</ele>
        <time>2025-10-05T12:24:57.000Z</time>
      </trkpt>
      <trkpt lat="49.6119" lon="3.43691">
        <ele>119.4</ele>
        <time>2025-10-05T12:24:58.000Z</time>
      </trkpt>
      <trkpt lat="49.61191" lon="3.43693">
        <ele>119.7</ele>
        <time>2025-10-05T12:24:59.000Z</time>
      </trkpt>
      <trkpt lat="49.61191" lon="3.43694">
        <ele>120</ele>
        <time>2025-10-05T12:25:00.000Z</time>
      </trkpt>
      <trkpt lat="49.61193" lon="3.43695">
        <ele>120.3</ele>
        <time>2025-10-05T12:25:01.000Z</time>
      </trkpt>
      <trkpt lat="49.61194" lon="3.43695">
        <ele>120.3</ele>
        <time>2025-10-05T12:25:02.000Z</time>
      </trkpt>
      <trkpt lat="49.61195" lon="3.43697">
        <ele>120.2</ele>
        <time>2025-10-05T12:25:03.000Z</time>
      </trkpt>
      <trkpt lat="49.61196" lon="3.43698">
        <ele>120.2</ele>
        <time>2025-10-05T12:25:04.000Z</time>
      </trkpt>
      <trkpt lat="49.61197" lon="3.43699">
        <ele>120</ele>
        <time>2025-10-05T12:25:05.000Z</time>
      </trkpt>
      <trkpt lat="49.61197" lon="3.437">
        <ele>119.9</ele>
        <time>2025-10-05T12:25:06.000Z</time>
      </trkpt>
      <trkpt lat="49.61197" lon="3.43701">
        <ele>119.8</ele>
        <time>2025-10-05T12:25:07.000Z</time>
      </trkpt>
      <trkpt lat="49.61198" lon="3.43701">
        <ele>119.7</ele>
        <time>2025-10-05T12:25:08.000Z</time>
      </trkpt>
      <trkpt lat="49.61199" lon="3.43702">
        <ele>119.9</ele>
        <time>2025-10-05T12:25:09.000Z</time>
      </trkpt>
      <trkpt lat="49.612" lon="3.43702">
        <ele>119.9</ele>
        <time>2025-10-05T12:25:10.000Z</time>
      </trkpt>
      <trkpt lat="49.61201" lon="3.43703">
        <ele>120</ele>
        <time>2025-10-05T12:25:11.000Z</time>
      </trkpt>
      <trkpt lat="49.61202" lon="3.43703">
        <ele>120.5</ele>
        <time>2025-10-05T12:25:12.000Z</time>
      </trkpt>
      <trkpt lat="49.61203" lon="3.43703">
        <ele>120.9</ele>
        <time>2025-10-05T12:25:13.000Z</time>
      </trkpt>
      <trkpt lat="49.61204" lon="3.43703">
        <ele>121.1</ele>
        <time>2025-10-05T12:25:14.000Z</time>
      </trkpt>
      <trkpt lat="49.61205" lon="3.43703">
        <ele>121.3</ele>
        <time>2025-10-05T12:25:15.000Z</time>
      </trkpt>
      <trkpt lat="49.61206" lon="3.43702">
        <ele>121.3</ele>
        <time>2025-10-05T12:25:16.000Z</time>
      </trkpt>
      <trkpt lat="49.61207" lon="3.43702">
        <ele>121.4</ele>
        <time>2025-10-05T12:25:17.000Z</time>
      </trkpt>
      <trkpt lat="49.61208" lon="3.43702">
        <ele>121.5</ele>
        <time>2025-10-05T12:25:18.000Z</time>
      </trkpt>
      <trkpt lat="49.61209" lon="3.43703">
        <ele>121.4</ele>
        <time>2025-10-05T12:25:19.000Z</time>
      </trkpt>
      <trkpt lat="49.6121" lon="3.43704">
        <ele>121.4</ele>
        <time>2025-10-05T12:25:20.000Z</time>
      </trkpt>
      <trkpt lat="49.61211" lon="3.43706">
        <ele>121.4</ele>
        <time>2025-10-05T12:25:21.000Z</time>
      </trkpt>
      <trkpt lat="49.61211" lon="3.43706">
        <ele>121.5</ele>
        <time>2025-10-05T12:25:22.000Z</time>
      </trkpt>
      <trkpt lat="49.61212" lon="3.43706">
        <ele>121.2</ele>
        <time>2025-10-05T12:25:23.000Z</time>
      </trkpt>
      <trkpt lat="49.61212" lon="3.43707">
        <ele>120.9</ele>
        <time>2025-10-05T12:25:24.000Z</time>
      </trkpt>
      <trkpt lat="49.61213" lon="3.43708">
        <ele>120.7</ele>
        <time>2025-10-05T12:25:25.000Z</time>
      </trkpt>
      <trkpt lat="49.61214" lon="3.43708">
        <ele>120.3</ele>
        <time>2025-10-05T12:25:26.000Z</time>
      </trkpt>
      <trkpt lat="49.61216" lon="3.43709">
        <ele>120.1</ele>
        <time>2025-10-05T12:25:27.000Z</time>
      </trkpt>
      <trkpt lat="49.61217" lon="3.4371">
        <ele>120</ele>
        <time>2025-10-05T12:25:28.000Z</time>
      </trkpt>
      <trkpt lat="49.61218" lon="3.4371">
        <ele>119.8</ele>
        <time>2025-10-05T12:25:29.000Z</time>
      </trkpt>
      <trkpt lat="49.61219" lon="3.43711">
        <ele>119.4</ele>
        <time>2025-10-05T12:25:30.000Z</time>
      </trkpt>
      <trkpt lat="49.6122" lon="3.43711">
        <ele>119.2</ele>
        <time>2025-10-05T12:25:31.000Z</time>
      </trkpt>
      <trkpt lat="49.61221" lon="3.43712">
        <ele>118.8</ele>
        <time>2025-10-05T12:25:32.000Z</time>
      </trkpt>
      <trkpt lat="49.61222" lon="3.43712">
        <ele>118</ele>
        <time>2025-10-05T12:25:33.000Z</time>
      </trkpt>
      <trkpt lat="49.61223" lon="3.43712">
        <ele>117.5</ele>
        <time>2025-10-05T12:25:34.000Z</time>
      </trkpt>
      <trkpt lat="49.61224" lon="3.43713">
        <ele>116.9</ele>
        <time>2025-10-05T12:25:35.000Z</time>
      </trkpt>
      <trkpt lat="49.61224" lon="3.43714">
        <ele>116.6</ele>
        <time>2025-10-05T12:25:36.000Z</time>
      </trkpt>
      <trkpt lat="49.61225" lon="3.43715">
        <ele>116.2</ele>
        <time>2025-10-05T12:25:37.000Z</time>
      </trkpt>
      <trkpt lat="49.61226" lon="3.43716">
        <ele>115.8</ele>
        <time>2025-10-05T12:25:38.000Z</time>
      </trkpt>
      <trkpt lat="49.61226" lon="3.43717">
        <ele>115.7</ele>
        <time>2025-10-05T12:25:39.000Z</time>
      </trkpt>
      <trkpt lat="49.61227" lon="3.43719">
        <ele>115.7</ele>
        <time>2025-10-05T12:25:40.000Z</time>
      </trkpt>
      <trkpt lat="49.61228" lon="3.4372">
        <ele>116</ele>
        <time>2025-10-05T12:25:41.000Z</time>
      </trkpt>
      <trkpt lat="49.61228" lon="3.43721">
        <ele>115.8</ele>
        <time>2025-10-05T12:25:42.000Z</time>
      </trkpt>
      <trkpt lat="49.61228" lon="3.43721">
        <ele>115.3</ele>
        <time>2025-10-05T12:25:43.000Z</time>
      </trkpt>
      <trkpt lat="49.61228" lon="3.43721">
        <ele>115.2</ele>
        <time>2025-10-05T12:25:44.000Z</time>
      </trkpt>
      <trkpt lat="49.61228" lon="3.43722">
        <ele>115.2</ele>
        <time>2025-10-05T12:25:45.000Z</time>
      </trkpt>
      <trkpt lat="49.61228" lon="3.43722">
        <ele>115</ele>
        <time>2025-10-05T12:25:46.000Z</time>
      </trkpt>
      <trkpt lat="49.61228" lon="3.43722">
        <ele>114.6</ele>
        <time>2025-10-05T12:25:47.000Z</time>
      </trkpt>
      <trkpt lat="49.61228" lon="3.43723">
        <ele>114.5</ele>
        <time>2025-10-05T12:25:48.000Z</time>
      </trkpt>
      <trkpt lat="49.61227" lon="3.43723">
        <ele>114.2</ele>
        <time>2025-10-05T12:25:49.000Z</time>
      </trkpt>
      <trkpt lat="49.61227" lon="3.43724">
        <ele>113.9</ele>
        <time>2025-10-05T12:25:50.000Z</time>
      </trkpt>
      <trkpt lat="49.61227" lon="3.43724">
        <ele>113.9</ele>
        <time>2025-10-05T12:25:51.000Z</time>
      </trkpt>
      <trkpt lat="49.61227" lon="3.43724">
        <ele>113.9</ele>
        <time>2025-10-05T12:25:52.000Z</time>
      </trkpt>
      <trkpt lat="49.61227" lon="3.43724">
        <ele>113.9</ele>
        <time>2025-10-05T12:25:53.000Z</time>
      </trkpt>
      <trkpt lat="49.61227" lon="3.43724">
        <ele>113.9</ele>
        <time>2025-10-05T12:25:54.000Z</time>
      </trkpt>
      <trkpt lat="49.61227" lon="3.43724">
        <ele>113.9</ele>
        <time>2025-10-05T12:25:55.000Z</time>
      </trkpt>
      <trkpt lat="49.61227" lon="3.43724">
        <ele>113.9</ele>
        <time>2025-10-05T12:25:56.000Z</time>
      </trkpt>
      <trkpt lat="49.61227" lon="3.43724">
        <ele>113.9</ele>
        <time>2025-10-05T12:25:57.000Z</time>
      </trkpt>
      <trkpt lat="49.61226" lon="3.43723">
        <ele>112.5</ele>
        <time>2025-10-05T12:25:58.000Z</time>
      </trkpt>
      <trkpt lat="49.61227" lon="3.43723">
        <ele>112.7</ele>
        <time>2025-10-05T12:25:59.000Z</time>
      </trkpt>
      <trkpt lat="49.61227" lon="3.43722">
        <ele>112.9</ele>
        <time>2025-10-05T12:26:00.000Z</time>
      </trkpt>
      <trkpt lat="49.61227" lon="3.43722">
        <ele>113.1</ele>
        <time>2025-10-05T12:26:01.000Z</time>
      </trkpt>
      <trkpt lat="49.61228" lon="3.43722">
        <ele>113.2</ele>
        <time>2025-10-05T12:26:02.000Z</time>
      </trkpt>
      <trkpt lat="49.61228" lon="3.43722">
        <ele>113.3</ele>
        <time>2025-10-05T12:26:03.000Z</time>
      </trkpt>
      <trkpt lat="49.61228" lon="3.43722">
        <ele>113.7</ele>
        <time>2025-10-05T12:26:04.000Z</time>
      </trkpt>
      <trkpt lat="49.61229" lon="3.43722">
        <ele>113.8</ele>
        <time>2025-10-05T12:26:05.000Z</time>
      </trkpt>
      <trkpt lat="49.61229" lon="3.43722">
        <ele>114.1</ele>
        <time>2025-10-05T12:26:06.000Z</time>
      </trkpt>
      <trkpt lat="49.61229" lon="3.43722">
        <ele>114.3</ele>
        <time>2025-10-05T12:26:07.000Z</time>
      </trkpt>
      <trkpt lat="49.61229" lon="3.43722">
        <ele>114.3</ele>
        <time>2025-10-05T12:26:08.000Z</time>
      </trkpt>
      <trkpt lat="49.61229" lon="3.43722">
        <ele>114.3</ele>
        <time>2025-10-05T12:26:09.000Z</time>
      </trkpt>
      <trkpt lat="49.61229" lon="3.43722">
        <ele>114.3</ele>
        <time>2025-10-05T12:26:10.000Z</time>
      </trkpt>
      <trkpt lat="49.61229" lon="3.43722">
        <ele>114.3</ele>
        <time>2025-10-05T12:26:11.000Z</time>
      </trkpt>
      <trkpt lat="49.61229" lon="3.43722">
        <ele>114.3</ele>
        <time>2025-10-05T12:26:12.000Z</time>
      </trkpt>
      <trkpt lat="49.61229" lon="3.43722">
        <ele>114.3</ele>
        <time>2025-10-05T12:26:13.000Z</time>
      </trkpt>
      <trkpt lat="49.61229" lon="3.43722">
        <ele>114.3</ele>
        <time>2025-10-05T12:26:14.000Z</time>
      </trkpt>
      <trkpt lat="49.61229" lon="3.43722">
        <ele>114.3</ele>
        <time>2025-10-05T12:26:15.000Z</time>
      </trkpt>
      <trkpt lat="49.61229" lon="3.43722">
        <ele>114.3</ele>
        <time>2025-10-05T12:26:16.000Z</time>
      </trkpt>
      <trkpt lat="49.61229" lon="3.43722">
        <ele>114.3</ele>
        <time>2025-10-05T12:26:17.000Z</time>
      </trkpt>
      <trkpt lat="49.61229" lon="3.43722">
        <ele>114.3</ele>
        <time>2025-10-05T12:26:18.000Z</time>
      </trkpt>
      <trkpt lat="49.61229" lon="3.43722">
        <ele>114.3</ele>
        <time>2025-10-05T12:26:19.000Z</time>
      </trkpt>
      <trkpt lat="49.61229" lon="3.43722">
        <ele>114.3</ele>
        <time>2025-10-05T12:26:20.000Z</time>
      </trkpt>
      <trkpt lat="49.61229" lon="3.43722">
        <ele>114.3</ele>
        <time>2025-10-05T12:26:21.000Z</time>
      </trkpt>
      <trkpt lat="49.61229" lon="3.43722">
        <ele>114.3</ele>
        <time>2025-10-05T12:26:22.000Z</time>
      </trkpt>
      <trkpt lat="49.61229" lon="3.43722">
        <ele>114.3</ele>
        <time>2025-10-05T12:26:23.000Z</time>
      </trkpt>
      <trkpt lat="49.61229" lon="3.43722">
        <ele>114.3</ele>
        <time>2025-10-05T12:26:24.000Z</time>
      </trkpt>
      <trkpt lat="49.61229" lon="3.43722">
        <ele>114.3</ele>
        <time>2025-10-05T12:26:25.000Z</time>
      </trkpt>
      <trkpt lat="49.61229" lon="3.43722">
        <ele>114.3</ele>
        <time>2025-10-05T12:26:26.000Z</time>
      </trkpt>
      <trkpt lat="49.61229" lon="3.43722">
        <ele>114.3</ele>
        <time>2025-10-05T12:26:27.000Z</time>
      </trkpt>
      <trkpt lat="49.61229" lon="3.43722">
        <ele>114.3</ele>
        <time>2025-10-05T12:26:28.000Z</time>
      </trkpt>
      <trkpt lat="49.61229" lon="3.43722">
        <ele>114.3</ele>
        <time>2025-10-05T12:26:29.000Z</time>
      </trkpt>
      <trkpt lat="49.61229" lon="3.43722">
        <ele>114.3</ele>
        <time>2025-10-05T12:26:30.000Z</time>
      </trkpt>
      <trkpt lat="49.61229" lon="3.43722">
        <ele>114.3</ele>
        <time>2025-10-05T12:26:31.000Z</time>
      </trkpt>
      <trkpt lat="49.61229" lon="3.43722">
        <ele>114.3</ele>
        <time>2025-10-05T12:26:32.000Z</time>
      </trkpt>
      <trkpt lat="49.61229" lon="3.43722">
        <ele>114.3</ele>
        <time>2025-10-05T12:26:33.000Z</time>
      </trkpt>
      <trkpt lat="49.61229" lon="3.43722">
        <ele>114.3</ele>
        <time>2025-10-05T12:26:34.000Z</time>
      </trkpt>
      <trkpt lat="49.61229" lon="3.43722">
        <ele>114.3</ele>
        <time>2025-10-05T12:26:35.000Z</time>
      </trkpt>
      <trkpt lat="49.61229" lon="3.43722">
        <ele>114.3</ele>
        <time>2025-10-05T12:26:36.000Z</time>
      </trkpt>
      <trkpt lat="49.61229" lon="3.43722">
        <ele>114.3</ele>
        <time>2025-10-05T12:26:37.000Z</time>
      </trkpt>
      <trkpt lat="49.61229" lon="3.43722">
        <ele>114.3</ele>
        <time>2025-10-05T12:26:38.000Z</time>
      </trkpt>
      <trkpt lat="49.61229" lon="3.43722">
        <ele>114.3</ele>
        <time>2025-10-05T12:26:39.000Z</time>
      </trkpt>
      <trkpt lat="49.61229" lon="3.43722">
        <ele>114.3</ele>
        <time>2025-10-05T12:26:40.000Z</time>
      </trkpt>
      <trkpt lat="49.61229" lon="3.43722">
        <ele>114.3</ele>
        <time>2025-10-05T12:26:41.000Z</time>
      </trkpt>
      <trkpt lat="49.61229" lon="3.43722">
        <ele>114.3</ele>
        <time>2025-10-05T12:26:42.000Z</time>
      </trkpt>
      <trkpt lat="49.61229" lon="3.43722">
        <ele>114.3</ele>
        <time>2025-10-05T12:26:43.000Z</time>
      </trkpt>
      <trkpt lat="49.61229" lon="3.43722">
        <ele>114.3</ele>
        <time>2025-10-05T12:26:44.000Z</time>
      </trkpt>
      <trkpt lat="49.61229" lon="3.43722">
        <ele>114.9</ele>
        <time>2025-10-05T12:26:45.000Z</time>
      </trkpt>
      <trkpt lat="49.61229" lon="3.43721">
        <ele>114.5</ele>
        <time>2025-10-05T12:26:46.000Z</time>
      </trkpt>
      <trkpt lat="49.61229" lon="3.4372">
        <ele>114.2</ele>
        <time>2025-10-05T12:26:47.000Z</time>
      </trkpt>
      <trkpt lat="49.6123" lon="3.43719">
        <ele>114.1</ele>
        <time>2025-10-05T12:26:48.000Z</time>
      </trkpt>
      <trkpt lat="49.6123" lon="3.43718">
        <ele>114</ele>
        <time>2025-10-05T12:26:49.000Z</time>
      </trkpt>
      <trkpt lat="49.61232" lon="3.43717">
        <ele>114</ele>
        <time>2025-10-05T12:26:50.000Z</time>
      </trkpt>
      <trkpt lat="49.61232" lon="3.43717">
        <ele>114</ele>
        <time>2025-10-05T12:26:51.000Z</time>
      </trkpt>
      <trkpt lat="49.61233" lon="3.43717">
        <ele>114.1</ele>
        <time>2025-10-05T12:26:52.000Z</time>
      </trkpt>
      <trkpt lat="49.61233" lon="3.43718">
        <ele>114.1</ele>
        <time>2025-10-05T12:26:53.000Z</time>
      </trkpt>
      <trkpt lat="49.61233" lon="3.43717">
        <ele>113.9</ele>
        <time>2025-10-05T12:26:54.000Z</time>
      </trkpt>
      <trkpt lat="49.61233" lon="3.43717">
        <ele>113.9</ele>
        <time>2025-10-05T12:26:55.000Z</time>
      </trkpt>
      <trkpt lat="49.61233" lon="3.43716">
        <ele>113.8</ele>
        <time>2025-10-05T12:26:56.000Z</time>
      </trkpt>
      <trkpt lat="49.61233" lon="3.43716">
        <ele>113.9</ele>
        <time>2025-10-05T12:26:57.000Z</time>
      </trkpt>
      <trkpt lat="49.61234" lon="3.43715">
        <ele>114</ele>
        <time>2025-10-05T12:26:58.000Z</time>
      </trkpt>
      <trkpt lat="49.61234" lon="3.43715">
        <ele>114.3</ele>
        <time>2025-10-05T12:26:59.000Z</time>
      </trkpt>
      <trkpt lat="49.61235" lon="3.43715">
        <ele>114.4</ele>
        <time>2025-10-05T12:27:00.000Z</time>
      </trkpt>
      <trkpt lat="49.61236" lon="3.43715">
        <ele>114.4</ele>
        <time>2025-10-05T12:27:01.000Z</time>
      </trkpt>
      <trkpt lat="49.61238" lon="3.43715">
        <ele>114.7</ele>
        <time>2025-10-05T12:27:02.000Z</time>
      </trkpt>
      <trkpt lat="49.6124" lon="3.43714">
        <ele>114.9</ele>
        <time>2025-10-05T12:27:03.000Z</time>
      </trkpt>
      <trkpt lat="49.61242" lon="3.43714">
        <ele>115</ele>
        <time>2025-10-05T12:27:04.000Z</time>
      </trkpt>
      <trkpt lat="49.61243" lon="3.43713">
        <ele>115.3</ele>
        <time>2025-10-05T12:27:05.000Z</time>
      </trkpt>
      <trkpt lat="49.61244" lon="3.43713">
        <ele>115.6</ele>
        <time>2025-10-05T12:27:06.000Z</time>
      </trkpt>
      <trkpt lat="49.61245" lon="3.43714">
        <ele>115.6</ele>
        <time>2025-10-05T12:27:07.000Z</time>
      </trkpt>
      <trkpt lat="49.61246" lon="3.43714">
        <ele>115.8</ele>
        <time>2025-10-05T12:27:08.000Z</time>
      </trkpt>
      <trkpt lat="49.61247" lon="3.43714">
        <ele>115.8</ele>
        <time>2025-10-05T12:27:09.000Z</time>
      </trkpt>
      <trkpt lat="49.61248" lon="3.43714">
        <ele>116.1</ele>
        <time>2025-10-05T12:27:10.000Z</time>
      </trkpt>
      <trkpt lat="49.61249" lon="3.43714">
        <ele>116.3</ele>
        <time>2025-10-05T12:27:11.000Z</time>
      </trkpt>
      <trkpt lat="49.6125" lon="3.43714">
        <ele>116.5</ele>
        <time>2025-10-05T12:27:12.000Z</time>
      </trkpt>
      <trkpt lat="49.61251" lon="3.43715">
        <ele>116.8</ele>
        <time>2025-10-05T12:27:13.000Z</time>
      </trkpt>
      <trkpt lat="49.61253" lon="3.43715">
        <ele>117.1</ele>
        <time>2025-10-05T12:27:14.000Z</time>
      </trkpt>
      <trkpt lat="49.61254" lon="3.43715">
        <ele>116.8</ele>
        <time>2025-10-05T12:27:15.000Z</time>
      </trkpt>
      <trkpt lat="49.61255" lon="3.43717">
        <ele>116.8</ele>
        <time>2025-10-05T12:27:16.000Z</time>
      </trkpt>
      <trkpt lat="49.61257" lon="3.43718">
        <ele>116.6</ele>
        <time>2025-10-05T12:27:17.000Z</time>
      </trkpt>
      <trkpt lat="49.61258" lon="3.43719">
        <ele>116.7</ele>
        <time>2025-10-05T12:27:18.000Z</time>
      </trkpt>
      <trkpt lat="49.6126" lon="3.43721">
        <ele>116.6</ele>
        <time>2025-10-05T12:27:19.000Z</time>
      </trkpt>
      <trkpt lat="49.6126" lon="3.43722">
        <ele>116.7</ele>
        <time>2025-10-05T12:27:20.000Z</time>
      </trkpt>
      <trkpt lat="49.61262" lon="3.43723">
        <ele>116.3</ele>
        <time>2025-10-05T12:27:21.000Z</time>
      </trkpt>
      <trkpt lat="49.61263" lon="3.43724">
        <ele>116.3</ele>
        <time>2025-10-05T12:27:22.000Z</time>
      </trkpt>
      <trkpt lat="49.61264" lon="3.43726">
        <ele>115.9</ele>
        <time>2025-10-05T12:27:23.000Z</time>
      </trkpt>
      <trkpt lat="49.61265" lon="3.43727">
        <ele>115.7</ele>
        <time>2025-10-05T12:27:24.000Z</time>
      </trkpt>
      <trkpt lat="49.61267" lon="3.43727">
        <ele>115.3</ele>
        <time>2025-10-05T12:27:25.000Z</time>
      </trkpt>
      <trkpt lat="49.61268" lon="3.43728">
        <ele>115</ele>
        <time>2025-10-05T12:27:26.000Z</time>
      </trkpt>
      <trkpt lat="49.61268" lon="3.4373">
        <ele>114.8</ele>
        <time>2025-10-05T12:27:27.000Z</time>
      </trkpt>
      <trkpt lat="49.61269" lon="3.4373">
        <ele>114.7</ele>
        <time>2025-10-05T12:27:28.000Z</time>
      </trkpt>
      <trkpt lat="49.6127" lon="3.43731">
        <ele>114.3</ele>
        <time>2025-10-05T12:27:29.000Z</time>
      </trkpt>
      <trkpt lat="49.61271" lon="3.43733">
        <ele>114.4</ele>
        <time>2025-10-05T12:27:30.000Z</time>
      </trkpt>
      <trkpt lat="49.61271" lon="3.43734">
        <ele>113.7</ele>
        <time>2025-10-05T12:27:31.000Z</time>
      </trkpt>
      <trkpt lat="49.61271" lon="3.43736">
        <ele>113.4</ele>
        <time>2025-10-05T12:27:32.000Z</time>
      </trkpt>
      <trkpt lat="49.61272" lon="3.43737">
        <ele>113.4</ele>
        <time>2025-10-05T12:27:33.000Z</time>
      </trkpt>
      <trkpt lat="49.61272" lon="3.43739">
        <ele>113.3</ele>
        <time>2025-10-05T12:27:34.000Z</time>
      </trkpt>
      <trkpt lat="49.61273" lon="3.43741">
        <ele>113.3</ele>
        <time>2025-10-05T12:27:35.000Z</time>
      </trkpt>
      <trkpt lat="49.61274" lon="3.43742">
        <ele>113.5</ele>
        <time>2025-10-05T12:27:36.000Z</time>
      </trkpt>
      <trkpt lat="49.61275" lon="3.43743">
        <ele>113.7</ele>
        <time>2025-10-05T12:27:37.000Z</time>
      </trkpt>
      <trkpt lat="49.61275" lon="3.43743">
        <ele>113.8</ele>
        <time>2025-10-05T12:27:38.000Z</time>
      </trkpt>
      <trkpt lat="49.61276" lon="3.43744">
        <ele>113.9</ele>
        <time>2025-10-05T12:27:39.000Z</time>
      </trkpt>
      <trkpt lat="49.61277" lon="3.43746">
        <ele>114.2</ele>
        <time>2025-10-05T12:27:40.000Z</time>
      </trkpt>
      <trkpt lat="49.61277" lon="3.43747">
        <ele>114.3</ele>
        <time>2025-10-05T12:27:41.000Z</time>
      </trkpt>
      <trkpt lat="49.61278" lon="3.43748">
        <ele>114.1</ele>
        <time>2025-10-05T12:27:42.000Z</time>
      </trkpt>
      <trkpt lat="49.61279" lon="3.4375">
        <ele>114</ele>
        <time>2025-10-05T12:27:43.000Z</time>
      </trkpt>
      <trkpt lat="49.6128" lon="3.43752">
        <ele>113.7</ele>
        <time>2025-10-05T12:27:44.000Z</time>
      </trkpt>
      <trkpt lat="49.6128" lon="3.43753">
        <ele>113.8</ele>
        <time>2025-10-05T12:27:45.000Z</time>
      </trkpt>
      <trkpt lat="49.61281" lon="3.43754">
        <ele>113.6</ele>
        <time>2025-10-05T12:27:46.000Z</time>
      </trkpt>
      <trkpt lat="49.61282" lon="3.43755">
        <ele>113.4</ele>
        <time>2025-10-05T12:27:47.000Z</time>
      </trkpt>
      <trkpt lat="49.61283" lon="3.43756">
        <ele>113.6</ele>
        <time>2025-10-05T12:27:48.000Z</time>
      </trkpt>
      <trkpt lat="49.61283" lon="3.43756">
        <ele>114.1</ele>
        <time>2025-10-05T12:27:49.000Z</time>
      </trkpt>
      <trkpt lat="49.61284" lon="3.43757">
        <ele>114.3</ele>
        <time>2025-10-05T12:27:50.000Z</time>
      </trkpt>
      <trkpt lat="49.61284" lon="3.43758">
        <ele>114.1</ele>
        <time>2025-10-05T12:27:51.000Z</time>
      </trkpt>
      <trkpt lat="49.61285" lon="3.43759">
        <ele>114.1</ele>
        <time>2025-10-05T12:27:52.000Z</time>
      </trkpt>
      <trkpt lat="49.61286" lon="3.43761">
        <ele>114.1</ele>
        <time>2025-10-05T12:27:53.000Z</time>
      </trkpt>
      <trkpt lat="49.61287" lon="3.43763">
        <ele>114.4</ele>
        <time>2025-10-05T12:27:54.000Z</time>
      </trkpt>
      <trkpt lat="49.61288" lon="3.43764">
        <ele>114.7</ele>
        <time>2025-10-05T12:27:55.000Z</time>
      </trkpt>
      <trkpt lat="49.61288" lon="3.43765">
        <ele>114.7</ele>
        <time>2025-10-05T12:27:56.000Z</time>
      </trkpt>
      <trkpt lat="49.61289" lon="3.43766">
        <ele>114.9</ele>
        <time>2025-10-05T12:27:57.000Z</time>
      </trkpt>
      <trkpt lat="49.6129" lon="3.43768">
        <ele>115.2</ele>
        <time>2025-10-05T12:27:58.000Z</time>
      </trkpt>
      <trkpt lat="49.61291" lon="3.4377">
        <ele>115.4</ele>
        <time>2025-10-05T12:27:59.000Z</time>
      </trkpt>
      <trkpt lat="49.61292" lon="3.43771">
        <ele>115.9</ele>
        <time>2025-10-05T12:28:00.000Z</time>
      </trkpt>
      <trkpt lat="49.61293" lon="3.43772">
        <ele>116.4</ele>
        <time>2025-10-05T12:28:01.000Z</time>
      </trkpt>
      <trkpt lat="49.61294" lon="3.43774">
        <ele>117.1</ele>
        <time>2025-10-05T12:28:02.000Z</time>
      </trkpt>
      <trkpt lat="49.61294" lon="3.43774">
        <ele>117.2</ele>
        <time>2025-10-05T12:28:03.000Z</time>
      </trkpt>
      <trkpt lat="49.61294" lon="3.43774">
        <ele>117</ele>
        <time>2025-10-05T12:28:04.000Z</time>
      </trkpt>
      <trkpt lat="49.61294" lon="3.43775">
        <ele>116.5</ele>
        <time>2025-10-05T12:28:05.000Z</time>
      </trkpt>
      <trkpt lat="49.61295" lon="3.43777">
        <ele>116.3</ele>
        <time>2025-10-05T12:28:06.000Z</time>
      </trkpt>
      <trkpt lat="49.61295" lon="3.43779">
        <ele>116</ele>
        <time>2025-10-05T12:28:07.000Z</time>
      </trkpt>
      <trkpt lat="49.61295" lon="3.4378">
        <ele>115.6</ele>
        <time>2025-10-05T12:28:08.000Z</time>
      </trkpt>
      <trkpt lat="49.61296" lon="3.43782">
        <ele>115.3</ele>
        <time>2025-10-05T12:28:09.000Z</time>
      </trkpt>
      <trkpt lat="49.61296" lon="3.43783">
        <ele>115</ele>
        <time>2025-10-05T12:28:10.000Z</time>
      </trkpt>
      <trkpt lat="49.61297" lon="3.43785">
        <ele>115.1</ele>
        <time>2025-10-05T12:28:11.000Z</time>
      </trkpt>
      <trkpt lat="49.61298" lon="3.43786">
        <ele>115.1</ele>
        <time>2025-10-05T12:28:12.000Z</time>
      </trkpt>
      <trkpt lat="49.61298" lon="3.43788">
        <ele>115</ele>
        <time>2025-10-05T12:28:13.000Z</time>
      </trkpt>
      <trkpt lat="49.61299" lon="3.43789">
        <ele>115</ele>
        <time>2025-10-05T12:28:14.000Z</time>
      </trkpt>
      <trkpt lat="49.61299" lon="3.43791">
        <ele>115.2</ele>
        <time>2025-10-05T12:28:15.000Z</time>
      </trkpt>
      <trkpt lat="49.613" lon="3.43792">
        <ele>115.1</ele>
        <time>2025-10-05T12:28:16.000Z</time>
      </trkpt>
      <trkpt lat="49.61301" lon="3.43794">
        <ele>115.1</ele>
        <time>2025-10-05T12:28:17.000Z</time>
      </trkpt>
      <trkpt lat="49.61301" lon="3.43795">
        <ele>115.3</ele>
        <time>2025-10-05T12:28:18.000Z</time>
      </trkpt>
      <trkpt lat="49.61302" lon="3.43797">
        <ele>115.4</ele>
        <time>2025-10-05T12:28:19.000Z</time>
      </trkpt>
      <trkpt lat="49.61303" lon="3.43798">
        <ele>115.6</ele>
        <time>2025-10-05T12:28:20.000Z</time>
      </trkpt>
      <trkpt lat="49.61303" lon="3.43799">
        <ele>115.9</ele>
        <time>2025-10-05T12:28:21.000Z</time>
      </trkpt>
      <trkpt lat="49.61303" lon="3.43799">
        <ele>116.2</ele>
        <time>2025-10-05T12:28:22.000Z</time>
      </trkpt>
      <trkpt lat="49.61304" lon="3.43801">
        <ele>116.6</ele>
        <time>2025-10-05T12:28:23.000Z</time>
      </trkpt>
      <trkpt lat="49.61304" lon="3.43802">
        <ele>116.8</ele>
        <time>2025-10-05T12:28:24.000Z</time>
      </trkpt>
      <trkpt lat="49.61305" lon="3.43804">
        <ele>116.8</ele>
        <time>2025-10-05T12:28:25.000Z</time>
      </trkpt>
      <trkpt lat="49.61305" lon="3.43806">
        <ele>116.7</ele>
        <time>2025-10-05T12:28:26.000Z</time>
      </trkpt>
      <trkpt lat="49.61306" lon="3.43808">
        <ele>116.4</ele>
        <time>2025-10-05T12:28:27.000Z</time>
      </trkpt>
      <trkpt lat="49.61307" lon="3.4381">
        <ele>116.2</ele>
        <time>2025-10-05T12:28:28.000Z</time>
      </trkpt>
      <trkpt lat="49.61308" lon="3.43812">
        <ele>116.2</ele>
        <time>2025-10-05T12:28:29.000Z</time>
      </trkpt>
      <trkpt lat="49.61308" lon="3.43814">
        <ele>116.1</ele>
        <time>2025-10-05T12:28:30.000Z</time>
      </trkpt>
      <trkpt lat="49.61309" lon="3.43815">
        <ele>116</ele>
        <time>2025-10-05T12:28:31.000Z</time>
      </trkpt>
      <trkpt lat="49.61309" lon="3.43816">
        <ele>116.1</ele>
        <time>2025-10-05T12:28:32.000Z</time>
      </trkpt>
      <trkpt lat="49.6131" lon="3.43818">
        <ele>116.7</ele>
        <time>2025-10-05T12:28:33.000Z</time>
      </trkpt>
      <trkpt lat="49.61311" lon="3.43818">
        <ele>116.7</ele>
        <time>2025-10-05T12:28:34.000Z</time>
      </trkpt>
      <trkpt lat="49.61312" lon="3.43819">
        <ele>117</ele>
        <time>2025-10-05T12:28:35.000Z</time>
      </trkpt>
      <trkpt lat="49.61312" lon="3.4382">
        <ele>117</ele>
        <time>2025-10-05T12:28:36.000Z</time>
      </trkpt>
      <trkpt lat="49.61314" lon="3.43822">
        <ele>117</ele>
        <time>2025-10-05T12:28:37.000Z</time>
      </trkpt>
      <trkpt lat="49.61314" lon="3.43823">
        <ele>117.5</ele>
        <time>2025-10-05T12:28:38.000Z</time>
      </trkpt>
      <trkpt lat="49.61314" lon="3.43823">
        <ele>117.8</ele>
        <time>2025-10-05T12:28:39.000Z</time>
      </trkpt>
      <trkpt lat="49.61315" lon="3.43824">
        <ele>118</ele>
        <time>2025-10-05T12:28:40.000Z</time>
      </trkpt>
      <trkpt lat="49.61316" lon="3.43825">
        <ele>117.9</ele>
        <time>2025-10-05T12:28:41.000Z</time>
      </trkpt>
      <trkpt lat="49.61317" lon="3.43826">
        <ele>118.1</ele>
        <time>2025-10-05T12:28:42.000Z</time>
      </trkpt>
      <trkpt lat="49.61317" lon="3.43827">
        <ele>118.1</ele>
        <time>2025-10-05T12:28:43.000Z</time>
      </trkpt>
      <trkpt lat="49.61318" lon="3.4383">
        <ele>117.9</ele>
        <time>2025-10-05T12:28:44.000Z</time>
      </trkpt>
      <trkpt lat="49.61318" lon="3.43831">
        <ele>117.8</ele>
        <time>2025-10-05T12:28:45.000Z</time>
      </trkpt>
      <trkpt lat="49.61319" lon="3.43833">
        <ele>117.6</ele>
        <time>2025-10-05T12:28:46.000Z</time>
      </trkpt>
      <trkpt lat="49.6132" lon="3.43834">
        <ele>117.3</ele>
        <time>2025-10-05T12:28:47.000Z</time>
      </trkpt>
      <trkpt lat="49.6132" lon="3.43835">
        <ele>117.1</ele>
        <time>2025-10-05T12:28:48.000Z</time>
      </trkpt>
      <trkpt lat="49.6132" lon="3.43836">
        <ele>117.1</ele>
        <time>2025-10-05T12:28:49.000Z</time>
      </trkpt>
      <trkpt lat="49.61321" lon="3.43837">
        <ele>117.4</ele>
        <time>2025-10-05T12:28:50.000Z</time>
      </trkpt>
      <trkpt lat="49.61321" lon="3.43838">
        <ele>117.6</ele>
        <time>2025-10-05T12:28:51.000Z</time>
      </trkpt>
      <trkpt lat="49.61322" lon="3.43839">
        <ele>117.9</ele>
        <time>2025-10-05T12:28:52.000Z</time>
      </trkpt>
      <trkpt lat="49.61322" lon="3.4384">
        <ele>118.3</ele>
        <time>2025-10-05T12:28:53.000Z</time>
      </trkpt>
      <trkpt lat="49.61323" lon="3.4384">
        <ele>118.5</ele>
        <time>2025-10-05T12:28:54.000Z</time>
      </trkpt>
      <trkpt lat="49.61324" lon="3.43842">
        <ele>118.6</ele>
        <time>2025-10-05T12:28:55.000Z</time>
      </trkpt>
      <trkpt lat="49.61325" lon="3.43843">
        <ele>118.5</ele>
        <time>2025-10-05T12:28:56.000Z</time>
      </trkpt>
      <trkpt lat="49.61325" lon="3.43844">
        <ele>118.2</ele>
        <time>2025-10-05T12:28:57.000Z</time>
      </trkpt>
      <trkpt lat="49.61324" lon="3.43845">
        <ele>117.7</ele>
        <time>2025-10-05T12:28:58.000Z</time>
      </trkpt>
      <trkpt lat="49.61325" lon="3.43846">
        <ele>117.5</ele>
        <time>2025-10-05T12:28:59.000Z</time>
      </trkpt>
      <trkpt lat="49.61325" lon="3.43848">
        <ele>117.3</ele>
        <time>2025-10-05T12:29:00.000Z</time>
      </trkpt>
      <trkpt lat="49.61325" lon="3.43849">
        <ele>117.1</ele>
        <time>2025-10-05T12:29:01.000Z</time>
      </trkpt>
      <trkpt lat="49.61324" lon="3.4385">
        <ele>116.9</ele>
        <time>2025-10-05T12:29:02.000Z</time>
      </trkpt>
      <trkpt lat="49.61324" lon="3.43851">
        <ele>116.6</ele>
        <time>2025-10-05T12:29:03.000Z</time>
      </trkpt>
      <trkpt lat="49.61324" lon="3.43851">
        <ele>116.2</ele>
        <time>2025-10-05T12:29:04.000Z</time>
      </trkpt>
      <trkpt lat="49.61324" lon="3.43852">
        <ele>116</ele>
        <time>2025-10-05T12:29:05.000Z</time>
      </trkpt>
      <trkpt lat="49.61324" lon="3.43853">
        <ele>115.7</ele>
        <time>2025-10-05T12:29:06.000Z</time>
      </trkpt>
      <trkpt lat="49.61324" lon="3.43853">
        <ele>115.5</ele>
        <time>2025-10-05T12:29:07.000Z</time>
      </trkpt>
      <trkpt lat="49.61323" lon="3.43854">
        <ele>115.2</ele>
        <time>2025-10-05T12:29:08.000Z</time>
      </trkpt>
      <trkpt lat="49.61323" lon="3.43855">
        <ele>115.1</ele>
        <time>2025-10-05T12:29:09.000Z</time>
      </trkpt>
      <trkpt lat="49.61323" lon="3.43857">
        <ele>114.9</ele>
        <time>2025-10-05T12:29:10.000Z</time>
      </trkpt>
      <trkpt lat="49.61322" lon="3.43859">
        <ele>114.7</ele>
        <time>2025-10-05T12:29:11.000Z</time>
      </trkpt>
      <trkpt lat="49.61322" lon="3.4386">
        <ele>114.5</ele>
        <time>2025-10-05T12:29:12.000Z</time>
      </trkpt>
      <trkpt lat="49.61321" lon="3.43861">
        <ele>114.4</ele>
        <time>2025-10-05T12:29:13.000Z</time>
      </trkpt>
      <trkpt lat="49.61321" lon="3.43862">
        <ele>114.4</ele>
        <time>2025-10-05T12:29:14.000Z</time>
      </trkpt>
      <trkpt lat="49.61321" lon="3.43863">
        <ele>114.5</ele>
        <time>2025-10-05T12:29:15.000Z</time>
      </trkpt>
      <trkpt lat="49.6132" lon="3.43864">
        <ele>114.5</ele>
        <time>2025-10-05T12:29:16.000Z</time>
      </trkpt>
      <trkpt lat="49.61319" lon="3.43866">
        <ele>114.6</ele>
        <time>2025-10-05T12:29:17.000Z</time>
      </trkpt>
      <trkpt lat="49.61319" lon="3.43867">
        <ele>114.6</ele>
        <time>2025-10-05T12:29:18.000Z</time>
      </trkpt>
      <trkpt lat="49.61318" lon="3.43868">
        <ele>114.7</ele>
        <time>2025-10-05T12:29:19.000Z</time>
      </trkpt>
      <trkpt lat="49.61317" lon="3.43869">
        <ele>114.7</ele>
        <time>2025-10-05T12:29:20.000Z</time>
      </trkpt>
      <trkpt lat="49.61316" lon="3.43871">
        <ele>114.6</ele>
        <time>2025-10-05T12:29:21.000Z</time>
      </trkpt>
      <trkpt lat="49.61315" lon="3.43872">
        <ele>114.4</ele>
        <time>2025-10-05T12:29:22.000Z</time>
      </trkpt>
      <trkpt lat="49.61314" lon="3.43873">
        <ele>114.1</ele>
        <time>2025-10-05T12:29:23.000Z</time>
      </trkpt>
      <trkpt lat="49.61313" lon="3.43874">
        <ele>113.8</ele>
        <time>2025-10-05T12:29:24.000Z</time>
      </trkpt>
      <trkpt lat="49.61313" lon="3.43875">
        <ele>113.8</ele>
        <time>2025-10-05T12:29:25.000Z</time>
      </trkpt>
      <trkpt lat="49.61312" lon="3.43875">
        <ele>113.9</ele>
        <time>2025-10-05T12:29:26.000Z</time>
      </trkpt>
      <trkpt lat="49.61312" lon="3.43876">
        <ele>113.9</ele>
        <time>2025-10-05T12:29:27.000Z</time>
      </trkpt>
      <trkpt lat="49.61311" lon="3.43877">
        <ele>114</ele>
        <time>2025-10-05T12:29:28.000Z</time>
      </trkpt>
      <trkpt lat="49.61311" lon="3.43878">
        <ele>114</ele>
        <time>2025-10-05T12:29:29.000Z</time>
      </trkpt>
      <trkpt lat="49.6131" lon="3.43879">
        <ele>114</ele>
        <time>2025-10-05T12:29:30.000Z</time>
      </trkpt>
      <trkpt lat="49.61309" lon="3.4388">
        <ele>114.1</ele>
        <time>2025-10-05T12:29:31.000Z</time>
      </trkpt>
      <trkpt lat="49.61308" lon="3.43881">
        <ele>114</ele>
        <time>2025-10-05T12:29:32.000Z</time>
      </trkpt>
      <trkpt lat="49.61307" lon="3.43882">
        <ele>113.9</ele>
        <time>2025-10-05T12:29:33.000Z</time>
      </trkpt>
      <trkpt lat="49.61305" lon="3.43883">
        <ele>113.7</ele>
        <time>2025-10-05T12:29:34.000Z</time>
      </trkpt>
      <trkpt lat="49.61304" lon="3.43884">
        <ele>113.6</ele>
        <time>2025-10-05T12:29:35.000Z</time>
      </trkpt>
      <trkpt lat="49.61303" lon="3.43884">
        <ele>113.7</ele>
        <time>2025-10-05T12:29:36.000Z</time>
      </trkpt>
      <trkpt lat="49.61303" lon="3.43885">
        <ele>113.9</ele>
        <time>2025-10-05T12:29:37.000Z</time>
      </trkpt>
      <trkpt lat="49.61302" lon="3.43886">
        <ele>114.1</ele>
        <time>2025-10-05T12:29:38.000Z</time>
      </trkpt>
      <trkpt lat="49.61302" lon="3.43887">
        <ele>114.4</ele>
        <time>2025-10-05T12:29:39.000Z</time>
      </trkpt>
      <trkpt lat="49.61301" lon="3.43888">
        <ele>114.6</ele>
        <time>2025-10-05T12:29:40.000Z</time>
      </trkpt>
      <trkpt lat="49.613" lon="3.43889">
        <ele>114.6</ele>
        <time>2025-10-05T12:29:41.000Z</time>
      </trkpt>
      <trkpt lat="49.61299" lon="3.4389">
        <ele>114.7</ele>
        <time>2025-10-05T12:29:42.000Z</time>
      </trkpt>
      <trkpt lat="49.61298" lon="3.43891">
        <ele>114.6</ele>
        <time>2025-10-05T12:29:43.000Z</time>
      </trkpt>
      <trkpt lat="49.61297" lon="3.43892">
        <ele>114.4</ele>
        <time>2025-10-05T12:29:44.000Z</time>
      </trkpt>
      <trkpt lat="49.61296" lon="3.43893">
        <ele>114.3</ele>
        <time>2025-10-05T12:29:45.000Z</time>
      </trkpt>
      <trkpt lat="49.61295" lon="3.43893">
        <ele>114.1</ele>
        <time>2025-10-05T12:29:46.000Z</time>
      </trkpt>
      <trkpt lat="49.61294" lon="3.43893">
        <ele>114</ele>
        <time>2025-10-05T12:29:47.000Z</time>
      </trkpt>
      <trkpt lat="49.61293" lon="3.43893">
        <ele>113.9</ele>
        <time>2025-10-05T12:29:48.000Z</time>
      </trkpt>
      <trkpt lat="49.61293" lon="3.43894">
        <ele>113.9</ele>
        <time>2025-10-05T12:29:49.000Z</time>
      </trkpt>
      <trkpt lat="49.61292" lon="3.43895">
        <ele>114</ele>
        <time>2025-10-05T12:29:50.000Z</time>
      </trkpt>
      <trkpt lat="49.61291" lon="3.43896">
        <ele>114</ele>
        <time>2025-10-05T12:29:51.000Z</time>
      </trkpt>
      <trkpt lat="49.6129" lon="3.43897">
        <ele>114.1</ele>
        <time>2025-10-05T12:29:52.000Z</time>
      </trkpt>
      <trkpt lat="49.61289" lon="3.43899">
        <ele>114.2</ele>
        <time>2025-10-05T12:29:53.000Z</time>
      </trkpt>
      <trkpt lat="49.61288" lon="3.439">
        <ele>114.1</ele>
        <time>2025-10-05T12:29:54.000Z</time>
      </trkpt>
      <trkpt lat="49.61287" lon="3.43901">
        <ele>113.9</ele>
        <time>2025-10-05T12:29:55.000Z</time>
      </trkpt>
      <trkpt lat="49.61286" lon="3.43902">
        <ele>114</ele>
        <time>2025-10-05T12:29:56.000Z</time>
      </trkpt>
      <trkpt lat="49.61286" lon="3.43903">
        <ele>113.8</ele>
        <time>2025-10-05T12:29:57.000Z</time>
      </trkpt>
      <trkpt lat="49.61285" lon="3.43904">
        <ele>113.7</ele>
        <time>2025-10-05T12:29:58.000Z</time>
      </trkpt>
      <trkpt lat="49.61285" lon="3.43905">
        <ele>113.6</ele>
        <time>2025-10-05T12:29:59.000Z</time>
      </trkpt>
      <trkpt lat="49.61284" lon="3.43906">
        <ele>113.6</ele>
        <time>2025-10-05T12:30:00.000Z</time>
      </trkpt>
      <trkpt lat="49.61283" lon="3.43907">
        <ele>113.6</ele>
        <time>2025-10-05T12:30:01.000Z</time>
      </trkpt>
      <trkpt lat="49.61282" lon="3.43908">
        <ele>113.6</ele>
        <time>2025-10-05T12:30:02.000Z</time>
      </trkpt>
      <trkpt lat="49.6128" lon="3.4391">
        <ele>113.6</ele>
        <time>2025-10-05T12:30:03.000Z</time>
      </trkpt>
      <trkpt lat="49.61279" lon="3.43911">
        <ele>113.5</ele>
        <time>2025-10-05T12:30:04.000Z</time>
      </trkpt>
      <trkpt lat="49.61278" lon="3.43913">
        <ele>113.5</ele>
        <time>2025-10-05T12:30:05.000Z</time>
      </trkpt>
      <trkpt lat="49.61278" lon="3.43914">
        <ele>113.6</ele>
        <time>2025-10-05T12:30:06.000Z</time>
      </trkpt>
      <trkpt lat="49.61277" lon="3.43915">
        <ele>113.7</ele>
        <time>2025-10-05T12:30:07.000Z</time>
      </trkpt>
      <trkpt lat="49.61276" lon="3.43915">
        <ele>113.6</ele>
        <time>2025-10-05T12:30:08.000Z</time>
      </trkpt>
      <trkpt lat="49.61276" lon="3.43916">
        <ele>113.3</ele>
        <time>2025-10-05T12:30:09.000Z</time>
      </trkpt>
      <trkpt lat="49.61275" lon="3.43916">
        <ele>113.1</ele>
        <time>2025-10-05T12:30:10.000Z</time>
      </trkpt>
      <trkpt lat="49.61275" lon="3.43917">
        <ele>113.2</ele>
        <time>2025-10-05T12:30:11.000Z</time>
      </trkpt>
      <trkpt lat="49.61274" lon="3.43917">
        <ele>113.3</ele>
        <time>2025-10-05T12:30:12.000Z</time>
      </trkpt>
      <trkpt lat="49.61273" lon="3.43918">
        <ele>113.5</ele>
        <time>2025-10-05T12:30:13.000Z</time>
      </trkpt>
      <trkpt lat="49.61272" lon="3.43919">
        <ele>113.8</ele>
        <time>2025-10-05T12:30:14.000Z</time>
      </trkpt>
      <trkpt lat="49.61271" lon="3.43919">
        <ele>113.5</ele>
        <time>2025-10-05T12:30:15.000Z</time>
      </trkpt>
      <trkpt lat="49.61269" lon="3.43918">
        <ele>113.2</ele>
        <time>2025-10-05T12:30:16.000Z</time>
      </trkpt>
      <trkpt lat="49.61267" lon="3.43919">
        <ele>113.1</ele>
        <time>2025-10-05T12:30:17.000Z</time>
      </trkpt>
      <trkpt lat="49.61265" lon="3.43919">
        <ele>112.9</ele>
        <time>2025-10-05T12:30:18.000Z</time>
      </trkpt>
      <trkpt lat="49.61264" lon="3.43918">
        <ele>112.7</ele>
        <time>2025-10-05T12:30:19.000Z</time>
      </trkpt>
      <trkpt lat="49.61262" lon="3.43917">
        <ele>112</ele>
        <time>2025-10-05T12:30:20.000Z</time>
      </trkpt>
      <trkpt lat="49.61262" lon="3.43917">
        <ele>112.2</ele>
        <time>2025-10-05T12:30:21.000Z</time>
      </trkpt>
      <trkpt lat="49.61261" lon="3.43917">
        <ele>111.9</ele>
        <time>2025-10-05T12:30:22.000Z</time>
      </trkpt>
      <trkpt lat="49.6126" lon="3.43917">
        <ele>112.2</ele>
        <time>2025-10-05T12:30:23.000Z</time>
      </trkpt>
      <trkpt lat="49.61259" lon="3.43918">
        <ele>112.5</ele>
        <time>2025-10-05T12:30:24.000Z</time>
      </trkpt>
      <trkpt lat="49.61258" lon="3.43917">
        <ele>112.3</ele>
        <time>2025-10-05T12:30:25.000Z</time>
      </trkpt>
      <trkpt lat="49.61257" lon="3.43917">
        <ele>112.1</ele>
        <time>2025-10-05T12:30:26.000Z</time>
      </trkpt>
      <trkpt lat="49.61256" lon="3.43917">
        <ele>112</ele>
        <time>2025-10-05T12:30:27.000Z</time>
      </trkpt>
      <trkpt lat="49.61254" lon="3.43916">
        <ele>111.7</ele>
        <time>2025-10-05T12:30:28.000Z</time>
      </trkpt>
      <trkpt lat="49.61253" lon="3.43916">
        <ele>111.5</ele>
        <time>2025-10-05T12:30:29.000Z</time>
      </trkpt>
      <trkpt lat="49.61252" lon="3.43916">
        <ele>111.5</ele>
        <time>2025-10-05T12:30:30.000Z</time>
      </trkpt>
      <trkpt lat="49.61252" lon="3.43917">
        <ele>111.6</ele>
        <time>2025-10-05T12:30:31.000Z</time>
      </trkpt>
      <trkpt lat="49.61251" lon="3.43918">
        <ele>111.7</ele>
        <time>2025-10-05T12:30:32.000Z</time>
      </trkpt>
      <trkpt lat="49.6125" lon="3.43919">
        <ele>111.8</ele>
        <time>2025-10-05T12:30:33.000Z</time>
      </trkpt>
      <trkpt lat="49.61249" lon="3.4392">
        <ele>111.8</ele>
        <time>2025-10-05T12:30:34.000Z</time>
      </trkpt>
      <trkpt lat="49.61248" lon="3.4392">
        <ele>111.7</ele>
        <time>2025-10-05T12:30:35.000Z</time>
      </trkpt>
      <trkpt lat="49.61246" lon="3.43921">
        <ele>111.7</ele>
        <time>2025-10-05T12:30:36.000Z</time>
      </trkpt>
      <trkpt lat="49.61245" lon="3.43922">
        <ele>111.9</ele>
        <time>2025-10-05T12:30:37.000Z</time>
      </trkpt>
      <trkpt lat="49.61244" lon="3.43923">
        <ele>111.7</ele>
        <time>2025-10-05T12:30:38.000Z</time>
      </trkpt>
      <trkpt lat="49.61242" lon="3.43925">
        <ele>111.7</ele>
        <time>2025-10-05T12:30:39.000Z</time>
      </trkpt>
      <trkpt lat="49.61241" lon="3.43926">
        <ele>111.6</ele>
        <time>2025-10-05T12:30:40.000Z</time>
      </trkpt>
      <trkpt lat="49.61241" lon="3.43927">
        <ele>111.8</ele>
        <time>2025-10-05T12:30:41.000Z</time>
      </trkpt>
      <trkpt lat="49.6124" lon="3.43928">
        <ele>111.9</ele>
        <time>2025-10-05T12:30:42.000Z</time>
      </trkpt>
      <trkpt lat="49.6124" lon="3.43929">
        <ele>112.1</ele>
        <time>2025-10-05T12:30:43.000Z</time>
      </trkpt>
      <trkpt lat="49.61239" lon="3.4393">
        <ele>112</ele>
        <time>2025-10-05T12:30:44.000Z</time>
      </trkpt>
      <trkpt lat="49.61239" lon="3.4393">
        <ele>111.9</ele>
        <time>2025-10-05T12:30:45.000Z</time>
      </trkpt>
      <trkpt lat="49.61238" lon="3.43931">
        <ele>111.8</ele>
        <time>2025-10-05T12:30:46.000Z</time>
      </trkpt>
      <trkpt lat="49.61237" lon="3.43932">
        <ele>111.7</ele>
        <time>2025-10-05T12:30:47.000Z</time>
      </trkpt>
      <trkpt lat="49.61236" lon="3.43933">
        <ele>111.8</ele>
        <time>2025-10-05T12:30:48.000Z</time>
      </trkpt>
      <trkpt lat="49.61235" lon="3.43934">
        <ele>112</ele>
        <time>2025-10-05T12:30:49.000Z</time>
      </trkpt>
      <trkpt lat="49.61235" lon="3.43935">
        <ele>112</ele>
        <time>2025-10-05T12:30:50.000Z</time>
      </trkpt>
      <trkpt lat="49.61234" lon="3.43937">
        <ele>112.1</ele>
        <time>2025-10-05T12:30:51.000Z</time>
      </trkpt>
      <trkpt lat="49.61233" lon="3.43938">
        <ele>112.2</ele>
        <time>2025-10-05T12:30:52.000Z</time>
      </trkpt>
      <trkpt lat="49.61233" lon="3.4394">
        <ele>112.4</ele>
        <time>2025-10-05T12:30:53.000Z</time>
      </trkpt>
      <trkpt lat="49.61233" lon="3.43941">
        <ele>112.5</ele>
        <time>2025-10-05T12:30:54.000Z</time>
      </trkpt>
      <trkpt lat="49.61232" lon="3.43942">
        <ele>112.6</ele>
        <time>2025-10-05T12:30:55.000Z</time>
      </trkpt>
      <trkpt lat="49.61232" lon="3.43943">
        <ele>112.4</ele>
        <time>2025-10-05T12:30:56.000Z</time>
      </trkpt>
      <trkpt lat="49.61231" lon="3.43944">
        <ele>112.4</ele>
        <time>2025-10-05T12:30:57.000Z</time>
      </trkpt>
      <trkpt lat="49.61231" lon="3.43945">
        <ele>112.4</ele>
        <time>2025-10-05T12:30:58.000Z</time>
      </trkpt>
      <trkpt lat="49.6123" lon="3.43946">
        <ele>112.4</ele>
        <time>2025-10-05T12:30:59.000Z</time>
      </trkpt>
      <trkpt lat="49.61229" lon="3.43948">
        <ele>112.3</ele>
        <time>2025-10-05T12:31:00.000Z</time>
      </trkpt>
      <trkpt lat="49.61228" lon="3.4395">
        <ele>112.1</ele>
        <time>2025-10-05T12:31:01.000Z</time>
      </trkpt>
      <trkpt lat="49.61227" lon="3.43951">
        <ele>112.1</ele>
        <time>2025-10-05T12:31:02.000Z</time>
      </trkpt>
      <trkpt lat="49.61226" lon="3.43952">
        <ele>112</ele>
        <time>2025-10-05T12:31:03.000Z</time>
      </trkpt>
      <trkpt lat="49.61225" lon="3.43952">
        <ele>111.8</ele>
        <time>2025-10-05T12:31:04.000Z</time>
      </trkpt>
      <trkpt lat="49.61225" lon="3.43953">
        <ele>111.7</ele>
        <time>2025-10-05T12:31:05.000Z</time>
      </trkpt>
      <trkpt lat="49.61224" lon="3.43954">
        <ele>111.6</ele>
        <time>2025-10-05T12:31:06.000Z</time>
      </trkpt>
      <trkpt lat="49.61224" lon="3.43955">
        <ele>111.6</ele>
        <time>2025-10-05T12:31:07.000Z</time>
      </trkpt>
      <trkpt lat="49.61223" lon="3.43956">
        <ele>111.4</ele>
        <time>2025-10-05T12:31:08.000Z</time>
      </trkpt>
      <trkpt lat="49.61222" lon="3.43958">
        <ele>111.3</ele>
        <time>2025-10-05T12:31:09.000Z</time>
      </trkpt>
      <trkpt lat="49.61221" lon="3.43959">
        <ele>111.2</ele>
        <time>2025-10-05T12:31:10.000Z</time>
      </trkpt>
      <trkpt lat="49.6122" lon="3.4396">
        <ele>111.2</ele>
        <time>2025-10-05T12:31:11.000Z</time>
      </trkpt>
      <trkpt lat="49.61219" lon="3.43961">
        <ele>110.8</ele>
        <time>2025-10-05T12:31:12.000Z</time>
      </trkpt>
      <trkpt lat="49.61218" lon="3.43962">
        <ele>110.8</ele>
        <time>2025-10-05T12:31:13.000Z</time>
      </trkpt>
      <trkpt lat="49.61218" lon="3.43963">
        <ele>110.9</ele>
        <time>2025-10-05T12:31:14.000Z</time>
      </trkpt>
      <trkpt lat="49.61217" lon="3.43964">
        <ele>111.2</ele>
        <time>2025-10-05T12:31:15.000Z</time>
      </trkpt>
      <trkpt lat="49.61217" lon="3.43966">
        <ele>111.4</ele>
        <time>2025-10-05T12:31:16.000Z</time>
      </trkpt>
      <trkpt lat="49.61216" lon="3.43967">
        <ele>111.6</ele>
        <time>2025-10-05T12:31:17.000Z</time>
      </trkpt>
      <trkpt lat="49.61215" lon="3.43968">
        <ele>111.9</ele>
        <time>2025-10-05T12:31:18.000Z</time>
      </trkpt>
      <trkpt lat="49.61214" lon="3.43969">
        <ele>112.2</ele>
        <time>2025-10-05T12:31:19.000Z</time>
      </trkpt>
      <trkpt lat="49.61214" lon="3.4397">
        <ele>112.5</ele>
        <time>2025-10-05T12:31:20.000Z</time>
      </trkpt>
      <trkpt lat="49.61213" lon="3.43971">
        <ele>112.8</ele>
        <time>2025-10-05T12:31:21.000Z</time>
      </trkpt>
      <trkpt lat="49.61212" lon="3.43972">
        <ele>113</ele>
        <time>2025-10-05T12:31:22.000Z</time>
      </trkpt>
      <trkpt lat="49.61211" lon="3.43974">
        <ele>113.5</ele>
        <time>2025-10-05T12:31:23.000Z</time>
      </trkpt>
      <trkpt lat="49.6121" lon="3.43975">
        <ele>114</ele>
        <time>2025-10-05T12:31:24.000Z</time>
      </trkpt>
      <trkpt lat="49.61209" lon="3.43976">
        <ele>114.2</ele>
        <time>2025-10-05T12:31:25.000Z</time>
      </trkpt>
      <trkpt lat="49.61209" lon="3.43978">
        <ele>114.4</ele>
        <time>2025-10-05T12:31:26.000Z</time>
      </trkpt>
      <trkpt lat="49.61208" lon="3.43979">
        <ele>114.5</ele>
        <time>2025-10-05T12:31:27.000Z</time>
      </trkpt>
      <trkpt lat="49.61207" lon="3.4398">
        <ele>114.4</ele>
        <time>2025-10-05T12:31:28.000Z</time>
      </trkpt>
      <trkpt lat="49.61207" lon="3.4398">
        <ele>114.7</ele>
        <time>2025-10-05T12:31:29.000Z</time>
      </trkpt>
      <trkpt lat="49.61207" lon="3.43982">
        <ele>114.9</ele>
        <time>2025-10-05T12:31:30.000Z</time>
      </trkpt>
      <trkpt lat="49.61206" lon="3.43983">
        <ele>114.7</ele>
        <time>2025-10-05T12:31:31.000Z</time>
      </trkpt>
      <trkpt lat="49.61205" lon="3.43985">
        <ele>114.9</ele>
        <time>2025-10-05T12:31:32.000Z</time>
      </trkpt>
      <trkpt lat="49.61205" lon="3.43986">
        <ele>115.4</ele>
        <time>2025-10-05T12:31:33.000Z</time>
      </trkpt>
      <trkpt lat="49.61204" lon="3.43987">
        <ele>115.6</ele>
        <time>2025-10-05T12:31:34.000Z</time>
      </trkpt>
      <trkpt lat="49.61203" lon="3.43989">
        <ele>115.7</ele>
        <time>2025-10-05T12:31:35.000Z</time>
      </trkpt>
      <trkpt lat="49.61202" lon="3.43991">
        <ele>115.6</ele>
        <time>2025-10-05T12:31:36.000Z</time>
      </trkpt>
      <trkpt lat="49.61201" lon="3.43992">
        <ele>115.5</ele>
        <time>2025-10-05T12:31:37.000Z</time>
      </trkpt>
      <trkpt lat="49.612" lon="3.43994">
        <ele>115</ele>
        <time>2025-10-05T12:31:38.000Z</time>
      </trkpt>
      <trkpt lat="49.612" lon="3.43995">
        <ele>114.7</ele>
        <time>2025-10-05T12:31:39.000Z</time>
      </trkpt>
      <trkpt lat="49.612" lon="3.43995">
        <ele>114.5</ele>
        <time>2025-10-05T12:31:40.000Z</time>
      </trkpt>
      <trkpt lat="49.612" lon="3.43996">
        <ele>114.2</ele>
        <time>2025-10-05T12:31:41.000Z</time>
      </trkpt>
      <trkpt lat="49.61199" lon="3.43997">
        <ele>114</ele>
        <time>2025-10-05T12:31:42.000Z</time>
      </trkpt>
      <trkpt lat="49.61199" lon="3.43998">
        <ele>114.2</ele>
        <time>2025-10-05T12:31:43.000Z</time>
      </trkpt>
      <trkpt lat="49.61198" lon="3.43999">
        <ele>113.9</ele>
        <time>2025-10-05T12:31:44.000Z</time>
      </trkpt>
      <trkpt lat="49.61198" lon="3.44">
        <ele>113.5</ele>
        <time>2025-10-05T12:31:45.000Z</time>
      </trkpt>
      <trkpt lat="49.61197" lon="3.44001">
        <ele>113.1</ele>
        <time>2025-10-05T12:31:46.000Z</time>
      </trkpt>
      <trkpt lat="49.61196" lon="3.44002">
        <ele>112.9</ele>
        <time>2025-10-05T12:31:47.000Z</time>
      </trkpt>
      <trkpt lat="49.61196" lon="3.44005">
        <ele>113</ele>
        <time>2025-10-05T12:31:48.000Z</time>
      </trkpt>
      <trkpt lat="49.61195" lon="3.44007">
        <ele>113</ele>
        <time>2025-10-05T12:31:49.000Z</time>
      </trkpt>
      <trkpt lat="49.61195" lon="3.44009">
        <ele>112.8</ele>
        <time>2025-10-05T12:31:50.000Z</time>
      </trkpt>
      <trkpt lat="49.61194" lon="3.44011">
        <ele>112.9</ele>
        <time>2025-10-05T12:31:51.000Z</time>
      </trkpt>
      <trkpt lat="49.61194" lon="3.44012">
        <ele>112.6</ele>
        <time>2025-10-05T12:31:52.000Z</time>
      </trkpt>
      <trkpt lat="49.61193" lon="3.44013">
        <ele>112.4</ele>
        <time>2025-10-05T12:31:53.000Z</time>
      </trkpt>
      <trkpt lat="49.61193" lon="3.44014">
        <ele>112.5</ele>
        <time>2025-10-05T12:31:54.000Z</time>
      </trkpt>
      <trkpt lat="49.61192" lon="3.44016">
        <ele>112.4</ele>
        <time>2025-10-05T12:31:55.000Z</time>
      </trkpt>
      <trkpt lat="49.61192" lon="3.44017">
        <ele>112.5</ele>
        <time>2025-10-05T12:31:56.000Z</time>
      </trkpt>
      <trkpt lat="49.61191" lon="3.44018">
        <ele>112.7</ele>
        <time>2025-10-05T12:31:57.000Z</time>
      </trkpt>
      <trkpt lat="49.6119" lon="3.4402">
        <ele>112.7</ele>
        <time>2025-10-05T12:31:58.000Z</time>
      </trkpt>
      <trkpt lat="49.61189" lon="3.44022">
        <ele>112.8</ele>
        <time>2025-10-05T12:31:59.000Z</time>
      </trkpt>
      <trkpt lat="49.61188" lon="3.44024">
        <ele>112.8</ele>
        <time>2025-10-05T12:32:00.000Z</time>
      </trkpt>
      <trkpt lat="49.61187" lon="3.44025">
        <ele>112.8</ele>
        <time>2025-10-05T12:32:01.000Z</time>
      </trkpt>
      <trkpt lat="49.61187" lon="3.44026">
        <ele>112.8</ele>
        <time>2025-10-05T12:32:02.000Z</time>
      </trkpt>
      <trkpt lat="49.61186" lon="3.44027">
        <ele>112.8</ele>
        <time>2025-10-05T12:32:03.000Z</time>
      </trkpt>
      <trkpt lat="49.61186" lon="3.44028">
        <ele>113</ele>
        <time>2025-10-05T12:32:04.000Z</time>
      </trkpt>
      <trkpt lat="49.61185" lon="3.44028">
        <ele>113</ele>
        <time>2025-10-05T12:32:05.000Z</time>
      </trkpt>
      <trkpt lat="49.61185" lon="3.44029">
        <ele>113</ele>
        <time>2025-10-05T12:32:06.000Z</time>
      </trkpt>
      <trkpt lat="49.61185" lon="3.44031">
        <ele>113</ele>
        <time>2025-10-05T12:32:07.000Z</time>
      </trkpt>
      <trkpt lat="49.61184" lon="3.44032">
        <ele>113.2</ele>
        <time>2025-10-05T12:32:08.000Z</time>
      </trkpt>
      <trkpt lat="49.61183" lon="3.44033">
        <ele>113.6</ele>
        <time>2025-10-05T12:32:09.000Z</time>
      </trkpt>
      <trkpt lat="49.61182" lon="3.44034">
        <ele>114</ele>
        <time>2025-10-05T12:32:10.000Z</time>
      </trkpt>
      <trkpt lat="49.61182" lon="3.44035">
        <ele>114.2</ele>
        <time>2025-10-05T12:32:11.000Z</time>
      </trkpt>
      <trkpt lat="49.61181" lon="3.44037">
        <ele>114.1</ele>
        <time>2025-10-05T12:32:12.000Z</time>
      </trkpt>
      <trkpt lat="49.6118" lon="3.44038">
        <ele>114.3</ele>
        <time>2025-10-05T12:32:13.000Z</time>
      </trkpt>
      <trkpt lat="49.6118" lon="3.44039">
        <ele>114.3</ele>
        <time>2025-10-05T12:32:14.000Z</time>
      </trkpt>
      <trkpt lat="49.61179" lon="3.4404">
        <ele>114.1</ele>
        <time>2025-10-05T12:32:15.000Z</time>
      </trkpt>
      <trkpt lat="49.61179" lon="3.44041">
        <ele>114.1</ele>
        <time>2025-10-05T12:32:16.000Z</time>
      </trkpt>
      <trkpt lat="49.61178" lon="3.44042">
        <ele>114.1</ele>
        <time>2025-10-05T12:32:17.000Z</time>
      </trkpt>
      <trkpt lat="49.61177" lon="3.44043">
        <ele>114</ele>
        <time>2025-10-05T12:32:18.000Z</time>
      </trkpt>
      <trkpt lat="49.61176" lon="3.44046">
        <ele>113.7</ele>
        <time>2025-10-05T12:32:19.000Z</time>
      </trkpt>
      <trkpt lat="49.61174" lon="3.44047">
        <ele>113.5</ele>
        <time>2025-10-05T12:32:20.000Z</time>
      </trkpt>
      <trkpt lat="49.61174" lon="3.44048">
        <ele>113.3</ele>
        <time>2025-10-05T12:32:21.000Z</time>
      </trkpt>
      <trkpt lat="49.61173" lon="3.44049">
        <ele>113.1</ele>
        <time>2025-10-05T12:32:22.000Z</time>
      </trkpt>
      <trkpt lat="49.61172" lon="3.4405">
        <ele>113.2</ele>
        <time>2025-10-05T12:32:23.000Z</time>
      </trkpt>
      <trkpt lat="49.61172" lon="3.44052">
        <ele>113.4</ele>
        <time>2025-10-05T12:32:24.000Z</time>
      </trkpt>
      <trkpt lat="49.61171" lon="3.44053">
        <ele>113.6</ele>
        <time>2025-10-05T12:32:25.000Z</time>
      </trkpt>
      <trkpt lat="49.6117" lon="3.44055">
        <ele>113.7</ele>
        <time>2025-10-05T12:32:26.000Z</time>
      </trkpt>
      <trkpt lat="49.61169" lon="3.44057">
        <ele>113.8</ele>
        <time>2025-10-05T12:32:27.000Z</time>
      </trkpt>
      <trkpt lat="49.61168" lon="3.44058">
        <ele>113.7</ele>
        <time>2025-10-05T12:32:28.000Z</time>
      </trkpt>
      <trkpt lat="49.61167" lon="3.4406">
        <ele>113.7</ele>
        <time>2025-10-05T12:32:29.000Z</time>
      </trkpt>
      <trkpt lat="49.61166" lon="3.44061">
        <ele>113.4</ele>
        <time>2025-10-05T12:32:30.000Z</time>
      </trkpt>
      <trkpt lat="49.61165" lon="3.44063">
        <ele>113</ele>
        <time>2025-10-05T12:32:31.000Z</time>
      </trkpt>
      <trkpt lat="49.61164" lon="3.44063">
        <ele>112.8</ele>
        <time>2025-10-05T12:32:32.000Z</time>
      </trkpt>
      <trkpt lat="49.61164" lon="3.44063">
        <ele>112.5</ele>
        <time>2025-10-05T12:32:33.000Z</time>
      </trkpt>
      <trkpt lat="49.61164" lon="3.44064">
        <ele>112.7</ele>
        <time>2025-10-05T12:32:34.000Z</time>
      </trkpt>
      <trkpt lat="49.61164" lon="3.44065">
        <ele>113</ele>
        <time>2025-10-05T12:32:35.000Z</time>
      </trkpt>
      <trkpt lat="49.61163" lon="3.44066">
        <ele>113.1</ele>
        <time>2025-10-05T12:32:36.000Z</time>
      </trkpt>
      <trkpt lat="49.61163" lon="3.44067">
        <ele>113.1</ele>
        <time>2025-10-05T12:32:37.000Z</time>
      </trkpt>
      <trkpt lat="49.61162" lon="3.44069">
        <ele>113</ele>
        <time>2025-10-05T12:32:38.000Z</time>
      </trkpt>
      <trkpt lat="49.61161" lon="3.4407">
        <ele>113.1</ele>
        <time>2025-10-05T12:32:39.000Z</time>
      </trkpt>
      <trkpt lat="49.6116" lon="3.44073">
        <ele>113</ele>
        <time>2025-10-05T12:32:40.000Z</time>
      </trkpt>
      <trkpt lat="49.61159" lon="3.44074">
        <ele>112.7</ele>
        <time>2025-10-05T12:32:41.000Z</time>
      </trkpt>
      <trkpt lat="49.61158" lon="3.44074">
        <ele>112.6</ele>
        <time>2025-10-05T12:32:42.000Z</time>
      </trkpt>
      <trkpt lat="49.61158" lon="3.44075">
        <ele>112.8</ele>
        <time>2025-10-05T12:32:43.000Z</time>
      </trkpt>
      <trkpt lat="49.61158" lon="3.44076">
        <ele>112.8</ele>
        <time>2025-10-05T12:32:44.000Z</time>
      </trkpt>
      <trkpt lat="49.61157" lon="3.44078">
        <ele>113.1</ele>
        <time>2025-10-05T12:32:45.000Z</time>
      </trkpt>
      <trkpt lat="49.61156" lon="3.44079">
        <ele>113.4</ele>
        <time>2025-10-05T12:32:46.000Z</time>
      </trkpt>
      <trkpt lat="49.61155" lon="3.4408">
        <ele>113.7</ele>
        <time>2025-10-05T12:32:47.000Z</time>
      </trkpt>
      <trkpt lat="49.61155" lon="3.44082">
        <ele>113.6</ele>
        <time>2025-10-05T12:32:48.000Z</time>
      </trkpt>
      <trkpt lat="49.61154" lon="3.44084">
        <ele>113.5</ele>
        <time>2025-10-05T12:32:49.000Z</time>
      </trkpt>
      <trkpt lat="49.61153" lon="3.44085">
        <ele>113.2</ele>
        <time>2025-10-05T12:32:50.000Z</time>
      </trkpt>
      <trkpt lat="49.61153" lon="3.44087">
        <ele>112.9</ele>
        <time>2025-10-05T12:32:51.000Z</time>
      </trkpt>
      <trkpt lat="49.61152" lon="3.44087">
        <ele>112.6</ele>
        <time>2025-10-05T12:32:52.000Z</time>
      </trkpt>
      <trkpt lat="49.61152" lon="3.44088">
        <ele>112.7</ele>
        <time>2025-10-05T12:32:53.000Z</time>
      </trkpt>
      <trkpt lat="49.61151" lon="3.4409">
        <ele>112.9</ele>
        <time>2025-10-05T12:32:54.000Z</time>
      </trkpt>
      <trkpt lat="49.6115" lon="3.44091">
        <ele>113</ele>
        <time>2025-10-05T12:32:55.000Z</time>
      </trkpt>
      <trkpt lat="49.6115" lon="3.44092">
        <ele>112.8</ele>
        <time>2025-10-05T12:32:56.000Z</time>
      </trkpt>
      <trkpt lat="49.61149" lon="3.44094">
        <ele>112.6</ele>
        <time>2025-10-05T12:32:57.000Z</time>
      </trkpt>
      <trkpt lat="49.61148" lon="3.44095">
        <ele>112.3</ele>
        <time>2025-10-05T12:32:58.000Z</time>
      </trkpt>
      <trkpt lat="49.61147" lon="3.44097">
        <ele>112.2</ele>
        <time>2025-10-05T12:32:59.000Z</time>
      </trkpt>
      <trkpt lat="49.61146" lon="3.44097">
        <ele>112</ele>
        <time>2025-10-05T12:33:00.000Z</time>
      </trkpt>
      <trkpt lat="49.61146" lon="3.44098">
        <ele>112</ele>
        <time>2025-10-05T12:33:01.000Z</time>
      </trkpt>
      <trkpt lat="49.61145" lon="3.44099">
        <ele>112.1</ele>
        <time>2025-10-05T12:33:02.000Z</time>
      </trkpt>
      <trkpt lat="49.61145" lon="3.44099">
        <ele>112</ele>
        <time>2025-10-05T12:33:03.000Z</time>
      </trkpt>
      <trkpt lat="49.61144" lon="3.441">
        <ele>111.9</ele>
        <time>2025-10-05T12:33:04.000Z</time>
      </trkpt>
      <trkpt lat="49.61143" lon="3.44101">
        <ele>111.8</ele>
        <time>2025-10-05T12:33:05.000Z</time>
      </trkpt>
      <trkpt lat="49.61142" lon="3.44103">
        <ele>111.7</ele>
        <time>2025-10-05T12:33:06.000Z</time>
      </trkpt>
      <trkpt lat="49.61141" lon="3.44104">
        <ele>111.4</ele>
        <time>2025-10-05T12:33:07.000Z</time>
      </trkpt>
      <trkpt lat="49.6114" lon="3.44105">
        <ele>111.4</ele>
        <time>2025-10-05T12:33:08.000Z</time>
      </trkpt>
      <trkpt lat="49.6114" lon="3.44105">
        <ele>111.5</ele>
        <time>2025-10-05T12:33:09.000Z</time>
      </trkpt>
      <trkpt lat="49.6114" lon="3.44106">
        <ele>111.8</ele>
        <time>2025-10-05T12:33:10.000Z</time>
      </trkpt>
      <trkpt lat="49.6114" lon="3.44105">
        <ele>112</ele>
        <time>2025-10-05T12:33:11.000Z</time>
      </trkpt>
      <trkpt lat="49.6114" lon="3.44105">
        <ele>111.9</ele>
        <time>2025-10-05T12:33:12.000Z</time>
      </trkpt>
      <trkpt lat="49.6114" lon="3.44105">
        <ele>112</ele>
        <time>2025-10-05T12:33:13.000Z</time>
      </trkpt>
      <trkpt lat="49.6114" lon="3.44104">
        <ele>112.1</ele>
        <time>2025-10-05T12:33:14.000Z</time>
      </trkpt>
      <trkpt lat="49.6114" lon="3.44104">
        <ele>112.3</ele>
        <time>2025-10-05T12:33:15.000Z</time>
      </trkpt>
      <trkpt lat="49.6114" lon="3.44104">
        <ele>112.5</ele>
        <time>2025-10-05T12:33:16.000Z</time>
      </trkpt>
      <trkpt lat="49.61139" lon="3.44104">
        <ele>112.7</ele>
        <time>2025-10-05T12:33:17.000Z</time>
      </trkpt>
      <trkpt lat="49.61139" lon="3.44104">
        <ele>112.8</ele>
        <time>2025-10-05T12:33:18.000Z</time>
      </trkpt>
      <trkpt lat="49.61139" lon="3.44105">
        <ele>112.7</ele>
        <time>2025-10-05T12:33:19.000Z</time>
      </trkpt>
      <trkpt lat="49.61139" lon="3.44105">
        <ele>112.8</ele>
        <time>2025-10-05T12:33:20.000Z</time>
      </trkpt>
      <trkpt lat="49.61138" lon="3.44105">
        <ele>112.7</ele>
        <time>2025-10-05T12:33:21.000Z</time>
      </trkpt>
      <trkpt lat="49.61138" lon="3.44105">
        <ele>112.5</ele>
        <time>2025-10-05T12:33:22.000Z</time>
      </trkpt>
      <trkpt lat="49.61138" lon="3.44105">
        <ele>112.5</ele>
        <time>2025-10-05T12:33:23.000Z</time>
      </trkpt>
      <trkpt lat="49.61137" lon="3.44105">
        <ele>112.6</ele>
        <time>2025-10-05T12:33:24.000Z</time>
      </trkpt>
      <trkpt lat="49.61137" lon="3.44106">
        <ele>112.8</ele>
        <time>2025-10-05T12:33:25.000Z</time>
      </trkpt>
      <trkpt lat="49.61136" lon="3.44107">
        <ele>112.8</ele>
        <time>2025-10-05T12:33:26.000Z</time>
      </trkpt>
      <trkpt lat="49.61135" lon="3.44109">
        <ele>113</ele>
        <time>2025-10-05T12:33:27.000Z</time>
      </trkpt>
      <trkpt lat="49.61134" lon="3.4411">
        <ele>113.1</ele>
        <time>2025-10-05T12:33:28.000Z</time>
      </trkpt>
      <trkpt lat="49.61134" lon="3.44111">
        <ele>113.1</ele>
        <time>2025-10-05T12:33:29.000Z</time>
      </trkpt>
      <trkpt lat="49.61133" lon="3.44112">
        <ele>113</ele>
        <time>2025-10-05T12:33:30.000Z</time>
      </trkpt>
      <trkpt lat="49.61132" lon="3.44113">
        <ele>113</ele>
        <time>2025-10-05T12:33:31.000Z</time>
      </trkpt>
      <trkpt lat="49.61131" lon="3.44115">
        <ele>112.9</ele>
        <time>2025-10-05T12:33:32.000Z</time>
      </trkpt>
      <trkpt lat="49.6113" lon="3.44115">
        <ele>112.7</ele>
        <time>2025-10-05T12:33:33.000Z</time>
      </trkpt>
      <trkpt lat="49.61129" lon="3.44116">
        <ele>112.4</ele>
        <time>2025-10-05T12:33:34.000Z</time>
      </trkpt>
      <trkpt lat="49.61128" lon="3.44117">
        <ele>112.2</ele>
        <time>2025-10-05T12:33:35.000Z</time>
      </trkpt>
      <trkpt lat="49.61127" lon="3.44118">
        <ele>112.2</ele>
        <time>2025-10-05T12:33:36.000Z</time>
      </trkpt>
      <trkpt lat="49.61126" lon="3.44119">
        <ele>112.1</ele>
        <time>2025-10-05T12:33:37.000Z</time>
      </trkpt>
      <trkpt lat="49.61126" lon="3.4412">
        <ele>111.9</ele>
        <time>2025-10-05T12:33:38.000Z</time>
      </trkpt>
      <trkpt lat="49.61125" lon="3.44121">
        <ele>111.8</ele>
        <time>2025-10-05T12:33:39.000Z</time>
      </trkpt>
      <trkpt lat="49.61124" lon="3.44121">
        <ele>111.8</ele>
        <time>2025-10-05T12:33:40.000Z</time>
      </trkpt>
      <trkpt lat="49.61123" lon="3.44122">
        <ele>111.7</ele>
        <time>2025-10-05T12:33:41.000Z</time>
      </trkpt>
      <trkpt lat="49.61122" lon="3.44122">
        <ele>111.7</ele>
        <time>2025-10-05T12:33:42.000Z</time>
      </trkpt>
      <trkpt lat="49.61121" lon="3.44123">
        <ele>111.6</ele>
        <time>2025-10-05T12:33:43.000Z</time>
      </trkpt>
      <trkpt lat="49.6112" lon="3.44124">
        <ele>111.6</ele>
        <time>2025-10-05T12:33:44.000Z</time>
      </trkpt>
      <trkpt lat="49.61119" lon="3.44125">
        <ele>111.6</ele>
        <time>2025-10-05T12:33:45.000Z</time>
      </trkpt>
      <trkpt lat="49.61118" lon="3.44125">
        <ele>111.7</ele>
        <time>2025-10-05T12:33:46.000Z</time>
      </trkpt>
      <trkpt lat="49.61117" lon="3.44126">
        <ele>111.9</ele>
        <time>2025-10-05T12:33:47.000Z</time>
      </trkpt>
      <trkpt lat="49.61117" lon="3.44126">
        <ele>112</ele>
        <time>2025-10-05T12:33:48.000Z</time>
      </trkpt>
      <trkpt lat="49.61116" lon="3.44127">
        <ele>112</ele>
        <time>2025-10-05T12:33:49.000Z</time>
      </trkpt>
      <trkpt lat="49.61115" lon="3.44128">
        <ele>111.8</ele>
        <time>2025-10-05T12:33:50.000Z</time>
      </trkpt>
      <trkpt lat="49.61113" lon="3.44129">
        <ele>111.6</ele>
        <time>2025-10-05T12:33:51.000Z</time>
      </trkpt>
      <trkpt lat="49.61112" lon="3.44129">
        <ele>111.4</ele>
        <time>2025-10-05T12:33:52.000Z</time>
      </trkpt>
      <trkpt lat="49.61111" lon="3.4413">
        <ele>111.3</ele>
        <time>2025-10-05T12:33:53.000Z</time>
      </trkpt>
      <trkpt lat="49.61109" lon="3.44132">
        <ele>111</ele>
        <time>2025-10-05T12:33:54.000Z</time>
      </trkpt>
      <trkpt lat="49.61108" lon="3.44131">
        <ele>110.5</ele>
        <time>2025-10-05T12:33:55.000Z</time>
      </trkpt>
      <trkpt lat="49.61107" lon="3.4413">
        <ele>109.9</ele>
        <time>2025-10-05T12:33:56.000Z</time>
      </trkpt>
      <trkpt lat="49.61107" lon="3.44129">
        <ele>109.8</ele>
        <time>2025-10-05T12:33:57.000Z</time>
      </trkpt>
      <trkpt lat="49.61105" lon="3.44128">
        <ele>110</ele>
        <time>2025-10-05T12:33:58.000Z</time>
      </trkpt>
      <trkpt lat="49.61104" lon="3.44128">
        <ele>110</ele>
        <time>2025-10-05T12:33:59.000Z</time>
      </trkpt>
      <trkpt lat="49.61103" lon="3.44129">
        <ele>110.1</ele>
        <time>2025-10-05T12:34:00.000Z</time>
      </trkpt>
      <trkpt lat="49.61102" lon="3.44129">
        <ele>110.2</ele>
        <time>2025-10-05T12:34:01.000Z</time>
      </trkpt>
      <trkpt lat="49.61101" lon="3.4413">
        <ele>110.5</ele>
        <time>2025-10-05T12:34:02.000Z</time>
      </trkpt>
      <trkpt lat="49.611" lon="3.4413">
        <ele>110.6</ele>
        <time>2025-10-05T12:34:03.000Z</time>
      </trkpt>
      <trkpt lat="49.61099" lon="3.44131">
        <ele>110.6</ele>
        <time>2025-10-05T12:34:04.000Z</time>
      </trkpt>
      <trkpt lat="49.61099" lon="3.44132">
        <ele>110.4</ele>
        <time>2025-10-05T12:34:05.000Z</time>
      </trkpt>
      <trkpt lat="49.61098" lon="3.44133">
        <ele>110.1</ele>
        <time>2025-10-05T12:34:06.000Z</time>
      </trkpt>
      <trkpt lat="49.61097" lon="3.44133">
        <ele>110.1</ele>
        <time>2025-10-05T12:34:07.000Z</time>
      </trkpt>
      <trkpt lat="49.61096" lon="3.44134">
        <ele>110.2</ele>
        <time>2025-10-05T12:34:08.000Z</time>
      </trkpt>
      <trkpt lat="49.61095" lon="3.44135">
        <ele>110.1</ele>
        <time>2025-10-05T12:34:09.000Z</time>
      </trkpt>
      <trkpt lat="49.61094" lon="3.44136">
        <ele>109.8</ele>
        <time>2025-10-05T12:34:10.000Z</time>
      </trkpt>
      <trkpt lat="49.61093" lon="3.44136">
        <ele>109.7</ele>
        <time>2025-10-05T12:34:11.000Z</time>
      </trkpt>
      <trkpt lat="49.61093" lon="3.44137">
        <ele>109.6</ele>
        <time>2025-10-05T12:34:12.000Z</time>
      </trkpt>
      <trkpt lat="49.61092" lon="3.44137">
        <ele>109.4</ele>
        <time>2025-10-05T12:34:13.000Z</time>
      </trkpt>
      <trkpt lat="49.61091" lon="3.44137">
        <ele>109.5</ele>
        <time>2025-10-05T12:34:14.000Z</time>
      </trkpt>
      <trkpt lat="49.6109" lon="3.44137">
        <ele>109</ele>
        <time>2025-10-05T12:34:15.000Z</time>
      </trkpt>
      <trkpt lat="49.6109" lon="3.44136">
        <ele>109.1</ele>
        <time>2025-10-05T12:34:16.000Z</time>
      </trkpt>
      <trkpt lat="49.61089" lon="3.44136">
        <ele>109</ele>
        <time>2025-10-05T12:34:17.000Z</time>
      </trkpt>
      <trkpt lat="49.61088" lon="3.44136">
        <ele>109</ele>
        <time>2025-10-05T12:34:18.000Z</time>
      </trkpt>
      <trkpt lat="49.61087" lon="3.44136">
        <ele>109.1</ele>
        <time>2025-10-05T12:34:19.000Z</time>
      </trkpt>
      <trkpt lat="49.61086" lon="3.44137">
        <ele>109.3</ele>
        <time>2025-10-05T12:34:20.000Z</time>
      </trkpt>
      <trkpt lat="49.61086" lon="3.44138">
        <ele>109</ele>
        <time>2025-10-05T12:34:21.000Z</time>
      </trkpt>
      <trkpt lat="49.61085" lon="3.44138">
        <ele>108.8</ele>
        <time>2025-10-05T12:34:22.000Z</time>
      </trkpt>
      <trkpt lat="49.61084" lon="3.44138">
        <ele>108.8</ele>
        <time>2025-10-05T12:34:23.000Z</time>
      </trkpt>
      <trkpt lat="49.61083" lon="3.44139">
        <ele>108.7</ele>
        <time>2025-10-05T12:34:24.000Z</time>
      </trkpt>
      <trkpt lat="49.61082" lon="3.44139">
        <ele>108.6</ele>
        <time>2025-10-05T12:34:25.000Z</time>
      </trkpt>
      <trkpt lat="49.61081" lon="3.4414">
        <ele>108.4</ele>
        <time>2025-10-05T12:34:26.000Z</time>
      </trkpt>
      <trkpt lat="49.61079" lon="3.4414">
        <ele>108.3</ele>
        <time>2025-10-05T12:34:27.000Z</time>
      </trkpt>
      <trkpt lat="49.61079" lon="3.4414">
        <ele>107.9</ele>
        <time>2025-10-05T12:34:28.000Z</time>
      </trkpt>
      <trkpt lat="49.61078" lon="3.44139">
        <ele>107.7</ele>
        <time>2025-10-05T12:34:29.000Z</time>
      </trkpt>
      <trkpt lat="49.61077" lon="3.44139">
        <ele>107.4</ele>
        <time>2025-10-05T12:34:30.000Z</time>
      </trkpt>
      <trkpt lat="49.61076" lon="3.4414">
        <ele>107.6</ele>
        <time>2025-10-05T12:34:31.000Z</time>
      </trkpt>
      <trkpt lat="49.61076" lon="3.4414">
        <ele>107.8</ele>
        <time>2025-10-05T12:34:32.000Z</time>
      </trkpt>
      <trkpt lat="49.61075" lon="3.44141">
        <ele>107.9</ele>
        <time>2025-10-05T12:34:33.000Z</time>
      </trkpt>
      <trkpt lat="49.61074" lon="3.44141">
        <ele>108</ele>
        <time>2025-10-05T12:34:34.000Z</time>
      </trkpt>
      <trkpt lat="49.61073" lon="3.44141">
        <ele>108.3</ele>
        <time>2025-10-05T12:34:35.000Z</time>
      </trkpt>
      <trkpt lat="49.61073" lon="3.44142">
        <ele>108.4</ele>
        <time>2025-10-05T12:34:36.000Z</time>
      </trkpt>
      <trkpt lat="49.61072" lon="3.44142">
        <ele>108.7</ele>
        <time>2025-10-05T12:34:37.000Z</time>
      </trkpt>
      <trkpt lat="49.61071" lon="3.44142">
        <ele>108.6</ele>
        <time>2025-10-05T12:34:38.000Z</time>
      </trkpt>
      <trkpt lat="49.61069" lon="3.44142">
        <ele>108.6</ele>
        <time>2025-10-05T12:34:39.000Z</time>
      </trkpt>
      <trkpt lat="49.61068" lon="3.44143">
        <ele>108.6</ele>
        <time>2025-10-05T12:34:40.000Z</time>
      </trkpt>
      <trkpt lat="49.61067" lon="3.44144">
        <ele>108.5</ele>
        <time>2025-10-05T12:34:41.000Z</time>
      </trkpt>
      <trkpt lat="49.61066" lon="3.44145">
        <ele>108.7</ele>
        <time>2025-10-05T12:34:42.000Z</time>
      </trkpt>
      <trkpt lat="49.61065" lon="3.44145">
        <ele>108.8</ele>
        <time>2025-10-05T12:34:43.000Z</time>
      </trkpt>
      <trkpt lat="49.61064" lon="3.44145">
        <ele>108.8</ele>
        <time>2025-10-05T12:34:44.000Z</time>
      </trkpt>
      <trkpt lat="49.61063" lon="3.44145">
        <ele>108.6</ele>
        <time>2025-10-05T12:34:45.000Z</time>
      </trkpt>
      <trkpt lat="49.61062" lon="3.44146">
        <ele>108.7</ele>
        <time>2025-10-05T12:34:46.000Z</time>
      </trkpt>
      <trkpt lat="49.61061" lon="3.44146">
        <ele>109</ele>
        <time>2025-10-05T12:34:47.000Z</time>
      </trkpt>
      <trkpt lat="49.6106" lon="3.44146">
        <ele>109.4</ele>
        <time>2025-10-05T12:34:48.000Z</time>
      </trkpt>
      <trkpt lat="49.61058" lon="3.44146">
        <ele>109.9</ele>
        <time>2025-10-05T12:34:49.000Z</time>
      </trkpt>
      <trkpt lat="49.61057" lon="3.44146">
        <ele>110.5</ele>
        <time>2025-10-05T12:34:50.000Z</time>
      </trkpt>
      <trkpt lat="49.61056" lon="3.44147">
        <ele>110.9</ele>
        <time>2025-10-05T12:34:51.000Z</time>
      </trkpt>
      <trkpt lat="49.61055" lon="3.44148">
        <ele>111.3</ele>
        <time>2025-10-05T12:34:52.000Z</time>
      </trkpt>
      <trkpt lat="49.61054" lon="3.44149">
        <ele>111.8</ele>
        <time>2025-10-05T12:34:53.000Z</time>
      </trkpt>
      <trkpt lat="49.61053" lon="3.4415">
        <ele>112.2</ele>
        <time>2025-10-05T12:34:54.000Z</time>
      </trkpt>
      <trkpt lat="49.61052" lon="3.4415">
        <ele>112.5</ele>
        <time>2025-10-05T12:34:55.000Z</time>
      </trkpt>
      <trkpt lat="49.6105" lon="3.4415">
        <ele>112.7</ele>
        <time>2025-10-05T12:34:56.000Z</time>
      </trkpt>
      <trkpt lat="49.61049" lon="3.4415">
        <ele>112.9</ele>
        <time>2025-10-05T12:34:57.000Z</time>
      </trkpt>
      <trkpt lat="49.61048" lon="3.4415">
        <ele>113</ele>
        <time>2025-10-05T12:34:58.000Z</time>
      </trkpt>
      <trkpt lat="49.61048" lon="3.44151">
        <ele>113.3</ele>
        <time>2025-10-05T12:34:59.000Z</time>
      </trkpt>
      <trkpt lat="49.61047" lon="3.44151">
        <ele>113.7</ele>
        <time>2025-10-05T12:35:00.000Z</time>
      </trkpt>
      <trkpt lat="49.61046" lon="3.44151">
        <ele>113.8</ele>
        <time>2025-10-05T12:35:01.000Z</time>
      </trkpt>
      <trkpt lat="49.61045" lon="3.44151">
        <ele>113.7</ele>
        <time>2025-10-05T12:35:02.000Z</time>
      </trkpt>
      <trkpt lat="49.61044" lon="3.44151">
        <ele>113.7</ele>
        <time>2025-10-05T12:35:03.000Z</time>
      </trkpt>
      <trkpt lat="49.61043" lon="3.4415">
        <ele>113.8</ele>
        <time>2025-10-05T12:35:04.000Z</time>
      </trkpt>
      <trkpt lat="49.61042" lon="3.4415">
        <ele>113.9</ele>
        <time>2025-10-05T12:35:05.000Z</time>
      </trkpt>
      <trkpt lat="49.61041" lon="3.4415">
        <ele>113.9</ele>
        <time>2025-10-05T12:35:06.000Z</time>
      </trkpt>
      <trkpt lat="49.61039" lon="3.4415">
        <ele>113.9</ele>
        <time>2025-10-05T12:35:07.000Z</time>
      </trkpt>
      <trkpt lat="49.61037" lon="3.44151">
        <ele>114</ele>
        <time>2025-10-05T12:35:08.000Z</time>
      </trkpt>
      <trkpt lat="49.61036" lon="3.44151">
        <ele>114.4</ele>
        <time>2025-10-05T12:35:09.000Z</time>
      </trkpt>
      <trkpt lat="49.61036" lon="3.44151">
        <ele>114.5</ele>
        <time>2025-10-05T12:35:10.000Z</time>
      </trkpt>
      <trkpt lat="49.61035" lon="3.44152">
        <ele>114.7</ele>
        <time>2025-10-05T12:35:11.000Z</time>
      </trkpt>
      <trkpt lat="49.61034" lon="3.44152">
        <ele>114.7</ele>
        <time>2025-10-05T12:35:12.000Z</time>
      </trkpt>
      <trkpt lat="49.61033" lon="3.44152">
        <ele>114.8</ele>
        <time>2025-10-05T12:35:13.000Z</time>
      </trkpt>
      <trkpt lat="49.61032" lon="3.44153">
        <ele>114.7</ele>
        <time>2025-10-05T12:35:14.000Z</time>
      </trkpt>
      <trkpt lat="49.61031" lon="3.44153">
        <ele>114.6</ele>
        <time>2025-10-05T12:35:15.000Z</time>
      </trkpt>
      <trkpt lat="49.6103" lon="3.44153">
        <ele>114.5</ele>
        <time>2025-10-05T12:35:16.000Z</time>
      </trkpt>
      <trkpt lat="49.61029" lon="3.44154">
        <ele>114.5</ele>
        <time>2025-10-05T12:35:17.000Z</time>
      </trkpt>
      <trkpt lat="49.61028" lon="3.44154">
        <ele>114.6</ele>
        <time>2025-10-05T12:35:18.000Z</time>
      </trkpt>
      <trkpt lat="49.61026" lon="3.44154">
        <ele>114.5</ele>
        <time>2025-10-05T12:35:19.000Z</time>
      </trkpt>
      <trkpt lat="49.61025" lon="3.44155">
        <ele>114.3</ele>
        <time>2025-10-05T12:35:20.000Z</time>
      </trkpt>
      <trkpt lat="49.61024" lon="3.44155">
        <ele>114.2</ele>
        <time>2025-10-05T12:35:21.000Z</time>
      </trkpt>
      <trkpt lat="49.61023" lon="3.44155">
        <ele>114.1</ele>
        <time>2025-10-05T12:35:22.000Z</time>
      </trkpt>
      <trkpt lat="49.61023" lon="3.44155">
        <ele>113.9</ele>
        <time>2025-10-05T12:35:23.000Z</time>
      </trkpt>
      <trkpt lat="49.61022" lon="3.44155">
        <ele>113.8</ele>
        <time>2025-10-05T12:35:24.000Z</time>
      </trkpt>
      <trkpt lat="49.61021" lon="3.44155">
        <ele>113.8</ele>
        <time>2025-10-05T12:35:25.000Z</time>
      </trkpt>
      <trkpt lat="49.6102" lon="3.44156">
        <ele>113.9</ele>
        <time>2025-10-05T12:35:26.000Z</time>
      </trkpt>
      <trkpt lat="49.61019" lon="3.44156">
        <ele>113.7</ele>
        <time>2025-10-05T12:35:27.000Z</time>
      </trkpt>
      <trkpt lat="49.61018" lon="3.44156">
        <ele>113.7</ele>
        <time>2025-10-05T12:35:28.000Z</time>
      </trkpt>
      <trkpt lat="49.61018" lon="3.44157">
        <ele>113.7</ele>
        <time>2025-10-05T12:35:29.000Z</time>
      </trkpt>
      <trkpt lat="49.61017" lon="3.44158">
        <ele>114</ele>
        <time>2025-10-05T12:35:30.000Z</time>
      </trkpt>
      <trkpt lat="49.61016" lon="3.44158">
        <ele>114.1</ele>
        <time>2025-10-05T12:35:31.000Z</time>
      </trkpt>
      <trkpt lat="49.61015" lon="3.44158">
        <ele>114.1</ele>
        <time>2025-10-05T12:35:32.000Z</time>
      </trkpt>
      <trkpt lat="49.61014" lon="3.44159">
        <ele>114.5</ele>
        <time>2025-10-05T12:35:33.000Z</time>
      </trkpt>
      <trkpt lat="49.61012" lon="3.4416">
        <ele>114.6</ele>
        <time>2025-10-05T12:35:34.000Z</time>
      </trkpt>
      <trkpt lat="49.61011" lon="3.44161">
        <ele>115</ele>
        <time>2025-10-05T12:35:35.000Z</time>
      </trkpt>
      <trkpt lat="49.61009" lon="3.44162">
        <ele>115.4</ele>
        <time>2025-10-05T12:35:36.000Z</time>
      </trkpt>
      <trkpt lat="49.61008" lon="3.44163">
        <ele>115.2</ele>
        <time>2025-10-05T12:35:37.000Z</time>
      </trkpt>
      <trkpt lat="49.61007" lon="3.44164">
        <ele>115.4</ele>
        <time>2025-10-05T12:35:38.000Z</time>
      </trkpt>
      <trkpt lat="49.61006" lon="3.44165">
        <ele>115.3</ele>
        <time>2025-10-05T12:35:39.000Z</time>
      </trkpt>
      <trkpt lat="49.61006" lon="3.44166">
        <ele>115.6</ele>
        <time>2025-10-05T12:35:40.000Z</time>
      </trkpt>
      <trkpt lat="49.61005" lon="3.44166">
        <ele>115.6</ele>
        <time>2025-10-05T12:35:41.000Z</time>
      </trkpt>
      <trkpt lat="49.61004" lon="3.44166">
        <ele>115.9</ele>
        <time>2025-10-05T12:35:42.000Z</time>
      </trkpt>
      <trkpt lat="49.61003" lon="3.44166">
        <ele>116</ele>
        <time>2025-10-05T12:35:43.000Z</time>
      </trkpt>
      <trkpt lat="49.61002" lon="3.44167">
        <ele>115.9</ele>
        <time>2025-10-05T12:35:44.000Z</time>
      </trkpt>
      <trkpt lat="49.61001" lon="3.44167">
        <ele>115.4</ele>
        <time>2025-10-05T12:35:45.000Z</time>
      </trkpt>
      <trkpt lat="49.60999" lon="3.44167">
        <ele>115.1</ele>
        <time>2025-10-05T12:35:46.000Z</time>
      </trkpt>
      <trkpt lat="49.60998" lon="3.44167">
        <ele>115.1</ele>
        <time>2025-10-05T12:35:47.000Z</time>
      </trkpt>
      <trkpt lat="49.60996" lon="3.44167">
        <ele>115</ele>
        <time>2025-10-05T12:35:48.000Z</time>
      </trkpt>
      <trkpt lat="49.60995" lon="3.44168">
        <ele>115.2</ele>
        <time>2025-10-05T12:35:49.000Z</time>
      </trkpt>
      <trkpt lat="49.60994" lon="3.44168">
        <ele>115.5</ele>
        <time>2025-10-05T12:35:50.000Z</time>
      </trkpt>
      <trkpt lat="49.60993" lon="3.4417">
        <ele>115.7</ele>
        <time>2025-10-05T12:35:51.000Z</time>
      </trkpt>
      <trkpt lat="49.60992" lon="3.4417">
        <ele>116</ele>
        <time>2025-10-05T12:35:52.000Z</time>
      </trkpt>
      <trkpt lat="49.60991" lon="3.4417">
        <ele>116.2</ele>
        <time>2025-10-05T12:35:53.000Z</time>
      </trkpt>
      <trkpt lat="49.6099" lon="3.44171">
        <ele>116.7</ele>
        <time>2025-10-05T12:35:54.000Z</time>
      </trkpt>
      <trkpt lat="49.6099" lon="3.44171">
        <ele>117</ele>
        <time>2025-10-05T12:35:55.000Z</time>
      </trkpt>
      <trkpt lat="49.60988" lon="3.44172">
        <ele>117.3</ele>
        <time>2025-10-05T12:35:56.000Z</time>
      </trkpt>
      <trkpt lat="49.60987" lon="3.44173">
        <ele>117.6</ele>
        <time>2025-10-05T12:35:57.000Z</time>
      </trkpt>
      <trkpt lat="49.60986" lon="3.44173">
        <ele>117.9</ele>
        <time>2025-10-05T12:35:58.000Z</time>
      </trkpt>
      <trkpt lat="49.60985" lon="3.44174">
        <ele>117.8</ele>
        <time>2025-10-05T12:35:59.000Z</time>
      </trkpt>
      <trkpt lat="49.60983" lon="3.44174">
        <ele>117.4</ele>
        <time>2025-10-05T12:36:00.000Z</time>
      </trkpt>
      <trkpt lat="49.60982" lon="3.44174">
        <ele>117.2</ele>
        <time>2025-10-05T12:36:01.000Z</time>
      </trkpt>
      <trkpt lat="49.60982" lon="3.44174">
        <ele>116.9</ele>
        <time>2025-10-05T12:36:02.000Z</time>
      </trkpt>
      <trkpt lat="49.60981" lon="3.44174">
        <ele>116.7</ele>
        <time>2025-10-05T12:36:03.000Z</time>
      </trkpt>
      <trkpt lat="49.6098" lon="3.44174">
        <ele>116.5</ele>
        <time>2025-10-05T12:36:04.000Z</time>
      </trkpt>
      <trkpt lat="49.60979" lon="3.44175">
        <ele>116.3</ele>
        <time>2025-10-05T12:36:05.000Z</time>
      </trkpt>
      <trkpt lat="49.60978" lon="3.44175">
        <ele>116.2</ele>
        <time>2025-10-05T12:36:06.000Z</time>
      </trkpt>
      <trkpt lat="49.60977" lon="3.44176">
        <ele>116.2</ele>
        <time>2025-10-05T12:36:07.000Z</time>
      </trkpt>
      <trkpt lat="49.60976" lon="3.44177">
        <ele>116.2</ele>
        <time>2025-10-05T12:36:08.000Z</time>
      </trkpt>
      <trkpt lat="49.60976" lon="3.44177">
        <ele>116.2</ele>
        <time>2025-10-05T12:36:09.000Z</time>
      </trkpt>
      <trkpt lat="49.60975" lon="3.44178">
        <ele>116.2</ele>
        <time>2025-10-05T12:36:10.000Z</time>
      </trkpt>
      <trkpt lat="49.60974" lon="3.44177">
        <ele>116.1</ele>
        <time>2025-10-05T12:36:11.000Z</time>
      </trkpt>
      <trkpt lat="49.60973" lon="3.44177">
        <ele>115.8</ele>
        <time>2025-10-05T12:36:12.000Z</time>
      </trkpt>
      <trkpt lat="49.60971" lon="3.44178">
        <ele>115.6</ele>
        <time>2025-10-05T12:36:13.000Z</time>
      </trkpt>
      <trkpt lat="49.6097" lon="3.44179">
        <ele>115.4</ele>
        <time>2025-10-05T12:36:14.000Z</time>
      </trkpt>
      <trkpt lat="49.60969" lon="3.4418">
        <ele>115.4</ele>
        <time>2025-10-05T12:36:15.000Z</time>
      </trkpt>
      <trkpt lat="49.60968" lon="3.44181">
        <ele>115.2</ele>
        <time>2025-10-05T12:36:16.000Z</time>
      </trkpt>
      <trkpt lat="49.60967" lon="3.44182">
        <ele>115.3</ele>
        <time>2025-10-05T12:36:17.000Z</time>
      </trkpt>
      <trkpt lat="49.60966" lon="3.44182">
        <ele>115.3</ele>
        <time>2025-10-05T12:36:18.000Z</time>
      </trkpt>
      <trkpt lat="49.60965" lon="3.44183">
        <ele>115.4</ele>
        <time>2025-10-05T12:36:19.000Z</time>
      </trkpt>
      <trkpt lat="49.60964" lon="3.44184">
        <ele>115.7</ele>
        <time>2025-10-05T12:36:20.000Z</time>
      </trkpt>
      <trkpt lat="49.60964" lon="3.44185">
        <ele>116</ele>
        <time>2025-10-05T12:36:21.000Z</time>
      </trkpt>
      <trkpt lat="49.60963" lon="3.44186">
        <ele>116.1</ele>
        <time>2025-10-05T12:36:22.000Z</time>
      </trkpt>
      <trkpt lat="49.60961" lon="3.44186">
        <ele>116.1</ele>
        <time>2025-10-05T12:36:23.000Z</time>
      </trkpt>
      <trkpt lat="49.6096" lon="3.44186">
        <ele>115.9</ele>
        <time>2025-10-05T12:36:24.000Z</time>
      </trkpt>
      <trkpt lat="49.60959" lon="3.44187">
        <ele>115.9</ele>
        <time>2025-10-05T12:36:25.000Z</time>
      </trkpt>
      <trkpt lat="49.60958" lon="3.44187">
        <ele>115.6</ele>
        <time>2025-10-05T12:36:26.000Z</time>
      </trkpt>
      <trkpt lat="49.60957" lon="3.44188">
        <ele>115.5</ele>
        <time>2025-10-05T12:36:27.000Z</time>
      </trkpt>
      <trkpt lat="49.60956" lon="3.44188">
        <ele>115.7</ele>
        <time>2025-10-05T12:36:28.000Z</time>
      </trkpt>
      <trkpt lat="49.60955" lon="3.44189">
        <ele>116.2</ele>
        <time>2025-10-05T12:36:29.000Z</time>
      </trkpt>
      <trkpt lat="49.60955" lon="3.4419">
        <ele>116.4</ele>
        <time>2025-10-05T12:36:30.000Z</time>
      </trkpt>
      <trkpt lat="49.60953" lon="3.4419">
        <ele>116.6</ele>
        <time>2025-10-05T12:36:31.000Z</time>
      </trkpt>
      <trkpt lat="49.60952" lon="3.44191">
        <ele>116.7</ele>
        <time>2025-10-05T12:36:32.000Z</time>
      </trkpt>
      <trkpt lat="49.60951" lon="3.44192">
        <ele>116.7</ele>
        <time>2025-10-05T12:36:33.000Z</time>
      </trkpt>
      <trkpt lat="49.6095" lon="3.44193">
        <ele>116.5</ele>
        <time>2025-10-05T12:36:34.000Z</time>
      </trkpt>
      <trkpt lat="49.60948" lon="3.44194">
        <ele>116.8</ele>
        <time>2025-10-05T12:36:35.000Z</time>
      </trkpt>
      <trkpt lat="49.60947" lon="3.44194">
        <ele>116.9</ele>
        <time>2025-10-05T12:36:36.000Z</time>
      </trkpt>
      <trkpt lat="49.60946" lon="3.44195">
        <ele>116.9</ele>
        <time>2025-10-05T12:36:37.000Z</time>
      </trkpt>
      <trkpt lat="49.60945" lon="3.44195">
        <ele>116.9</ele>
        <time>2025-10-05T12:36:38.000Z</time>
      </trkpt>
      <trkpt lat="49.60945" lon="3.44196">
        <ele>116.7</ele>
        <time>2025-10-05T12:36:39.000Z</time>
      </trkpt>
      <trkpt lat="49.60944" lon="3.44196">
        <ele>116.7</ele>
        <time>2025-10-05T12:36:40.000Z</time>
      </trkpt>
      <trkpt lat="49.60943" lon="3.44197">
        <ele>116.6</ele>
        <time>2025-10-05T12:36:41.000Z</time>
      </trkpt>
      <trkpt lat="49.60942" lon="3.44197">
        <ele>116.5</ele>
        <time>2025-10-05T12:36:42.000Z</time>
      </trkpt>
      <trkpt lat="49.60941" lon="3.44198">
        <ele>116.3</ele>
        <time>2025-10-05T12:36:43.000Z</time>
      </trkpt>
      <trkpt lat="49.6094" lon="3.44198">
        <ele>116.3</ele>
        <time>2025-10-05T12:36:44.000Z</time>
      </trkpt>
      <trkpt lat="49.60939" lon="3.44198">
        <ele>116.1</ele>
        <time>2025-10-05T12:36:45.000Z</time>
      </trkpt>
      <trkpt lat="49.60938" lon="3.44198">
        <ele>116</ele>
        <time>2025-10-05T12:36:46.000Z</time>
      </trkpt>
      <trkpt lat="49.60937" lon="3.44199">
        <ele>115.8</ele>
        <time>2025-10-05T12:36:47.000Z</time>
      </trkpt>
      <trkpt lat="49.60937" lon="3.44199">
        <ele>115.6</ele>
        <time>2025-10-05T12:36:48.000Z</time>
      </trkpt>
      <trkpt lat="49.60936" lon="3.44199">
        <ele>115.5</ele>
        <time>2025-10-05T12:36:49.000Z</time>
      </trkpt>
      <trkpt lat="49.60935" lon="3.44199">
        <ele>115.5</ele>
        <time>2025-10-05T12:36:50.000Z</time>
      </trkpt>
      <trkpt lat="49.60935" lon="3.44199">
        <ele>115.5</ele>
        <time>2025-10-05T12:36:51.000Z</time>
      </trkpt>
      <trkpt lat="49.60935" lon="3.442">
        <ele>115.4</ele>
        <time>2025-10-05T12:36:52.000Z</time>
      </trkpt>
      <trkpt lat="49.60935" lon="3.442">
        <ele>115.5</ele>
        <time>2025-10-05T12:36:53.000Z</time>
      </trkpt>
      <trkpt lat="49.60934" lon="3.44201">
        <ele>115.6</ele>
        <time>2025-10-05T12:36:54.000Z</time>
      </trkpt>
      <trkpt lat="49.60934" lon="3.44201">
        <ele>115.9</ele>
        <time>2025-10-05T12:36:55.000Z</time>
      </trkpt>
      <trkpt lat="49.60934" lon="3.44202">
        <ele>115.9</ele>
        <time>2025-10-05T12:36:56.000Z</time>
      </trkpt>
      <trkpt lat="49.60934" lon="3.44202">
        <ele>116.1</ele>
        <time>2025-10-05T12:36:57.000Z</time>
      </trkpt>
      <trkpt lat="49.60934" lon="3.44202">
        <ele>116.1</ele>
        <time>2025-10-05T12:36:58.000Z</time>
      </trkpt>
      <trkpt lat="49.60934" lon="3.44202">
        <ele>116.5</ele>
        <time>2025-10-05T12:36:59.000Z</time>
      </trkpt>
      <trkpt lat="49.60934" lon="3.44202">
        <ele>116.6</ele>
        <time>2025-10-05T12:37:00.000Z</time>
      </trkpt>
      <trkpt lat="49.60934" lon="3.44201">
        <ele>116.8</ele>
        <time>2025-10-05T12:37:01.000Z</time>
      </trkpt>
      <trkpt lat="49.60934" lon="3.44201">
        <ele>116.8</ele>
        <time>2025-10-05T12:37:02.000Z</time>
      </trkpt>
      <trkpt lat="49.60933" lon="3.44201">
        <ele>117.1</ele>
        <time>2025-10-05T12:37:03.000Z</time>
      </trkpt>
      <trkpt lat="49.60933" lon="3.44201">
        <ele>117.2</ele>
        <time>2025-10-05T12:37:04.000Z</time>
      </trkpt>
      <trkpt lat="49.60933" lon="3.44201">
        <ele>117.1</ele>
        <time>2025-10-05T12:37:05.000Z</time>
      </trkpt>
      <trkpt lat="49.60933" lon="3.44202">
        <ele>117.1</ele>
        <time>2025-10-05T12:37:06.000Z</time>
      </trkpt>
      <trkpt lat="49.60933" lon="3.44201">
        <ele>117.1</ele>
        <time>2025-10-05T12:37:07.000Z</time>
      </trkpt>
      <trkpt lat="49.60933" lon="3.44201">
        <ele>117.1</ele>
        <time>2025-10-05T12:37:08.000Z</time>
      </trkpt>
      <trkpt lat="49.60933" lon="3.44201">
        <ele>117.1</ele>
        <time>2025-10-05T12:37:09.000Z</time>
      </trkpt>
      <trkpt lat="49.60933" lon="3.44201">
        <ele>117.1</ele>
        <time>2025-10-05T12:37:10.000Z</time>
      </trkpt>
      <trkpt lat="49.60933" lon="3.44201">
        <ele>117.1</ele>
        <time>2025-10-05T12:37:11.000Z</time>
      </trkpt>
      <trkpt lat="49.60933" lon="3.44201">
        <ele>117.1</ele>
        <time>2025-10-05T12:37:12.000Z</time>
      </trkpt>
      <trkpt lat="49.60933" lon="3.44201">
        <ele>117.1</ele>
        <time>2025-10-05T12:37:13.000Z</time>
      </trkpt>
      <trkpt lat="49.60933" lon="3.44201">
        <ele>117.1</ele>
        <time>2025-10-05T12:37:14.000Z</time>
      </trkpt>
      <trkpt lat="49.60933" lon="3.44201">
        <ele>117.1</ele>
        <time>2025-10-05T12:37:15.000Z</time>
      </trkpt>
      <trkpt lat="49.60933" lon="3.44201">
        <ele>117.1</ele>
        <time>2025-10-05T12:37:16.000Z</time>
      </trkpt>
      <trkpt lat="49.60933" lon="3.44201">
        <ele>117.1</ele>
        <time>2025-10-05T12:37:17.000Z</time>
      </trkpt>
      <trkpt lat="49.60933" lon="3.44201">
        <ele>117.1</ele>
        <time>2025-10-05T12:37:18.000Z</time>
      </trkpt>
      <trkpt lat="49.60933" lon="3.44201">
        <ele>117.1</ele>
        <time>2025-10-05T12:37:19.000Z</time>
      </trkpt>
      <trkpt lat="49.60933" lon="3.44201">
        <ele>117.1</ele>
        <time>2025-10-05T12:37:20.000Z</time>
      </trkpt>
      <trkpt lat="49.60933" lon="3.44201">
        <ele>117.1</ele>
        <time>2025-10-05T12:37:21.000Z</time>
      </trkpt>
      <trkpt lat="49.60933" lon="3.44201">
        <ele>117.1</ele>
        <time>2025-10-05T12:37:22.000Z</time>
      </trkpt>
      <trkpt lat="49.60933" lon="3.44201">
        <ele>117.1</ele>
        <time>2025-10-05T12:37:23.000Z</time>
      </trkpt>
      <trkpt lat="49.60933" lon="3.44201">
        <ele>117.2</ele>
        <time>2025-10-05T12:37:24.000Z</time>
      </trkpt>
      <trkpt lat="49.60933" lon="3.44201">
        <ele>117.1</ele>
        <time>2025-10-05T12:37:25.000Z</time>
      </trkpt>
      <trkpt lat="49.60933" lon="3.44201">
        <ele>117.1</ele>
        <time>2025-10-05T12:37:26.000Z</time>
      </trkpt>
      <trkpt lat="49.60933" lon="3.44201">
        <ele>117.1</ele>
        <time>2025-10-05T12:37:27.000Z</time>
      </trkpt>
      <trkpt lat="49.60933" lon="3.44201">
        <ele>117.1</ele>
        <time>2025-10-05T12:37:28.000Z</time>
      </trkpt>
      <trkpt lat="49.60933" lon="3.44201">
        <ele>117.1</ele>
        <time>2025-10-05T12:37:29.000Z</time>
      </trkpt>
      <trkpt lat="49.60933" lon="3.44201">
        <ele>117.1</ele>
        <time>2025-10-05T12:37:30.000Z</time>
      </trkpt>
      <trkpt lat="49.60933" lon="3.44201">
        <ele>117.1</ele>
        <time>2025-10-05T12:37:31.000Z</time>
      </trkpt>
      <trkpt lat="49.60933" lon="3.44201">
        <ele>117.1</ele>
        <time>2025-10-05T12:37:32.000Z</time>
      </trkpt>
      <trkpt lat="49.60933" lon="3.44201">
        <ele>117.1</ele>
        <time>2025-10-05T12:37:33.000Z</time>
      </trkpt>
      <trkpt lat="49.60933" lon="3.44201">
        <ele>117.1</ele>
        <time>2025-10-05T12:37:34.000Z</time>
      </trkpt>
      <trkpt lat="49.60933" lon="3.44201">
        <ele>117.1</ele>
        <time>2025-10-05T12:37:35.000Z</time>
      </trkpt>
      <trkpt lat="49.60933" lon="3.44201">
        <ele>117.1</ele>
        <time>2025-10-05T12:37:36.000Z</time>
      </trkpt>
      <trkpt lat="49.60933" lon="3.44201">
        <ele>117.1</ele>
        <time>2025-10-05T12:37:37.000Z</time>
      </trkpt>
      <trkpt lat="49.60933" lon="3.44201">
        <ele>117.1</ele>
        <time>2025-10-05T12:37:38.000Z</time>
      </trkpt>
      <trkpt lat="49.60933" lon="3.44201">
        <ele>117.1</ele>
        <time>2025-10-05T12:37:39.000Z</time>
      </trkpt>
      <trkpt lat="49.60933" lon="3.44201">
        <ele>117.1</ele>
        <time>2025-10-05T12:37:40.000Z</time>
      </trkpt>
      <trkpt lat="49.60933" lon="3.44201">
        <ele>117.1</ele>
        <time>2025-10-05T12:37:41.000Z</time>
      </trkpt>
      <trkpt lat="49.60933" lon="3.44201">
        <ele>117.2</ele>
        <time>2025-10-05T12:37:42.000Z</time>
      </trkpt>
      <trkpt lat="49.60933" lon="3.44201">
        <ele>117.1</ele>
        <time>2025-10-05T12:37:43.000Z</time>
      </trkpt>
      <trkpt lat="49.60933" lon="3.44201">
        <ele>117.1</ele>
        <time>2025-10-05T12:37:44.000Z</time>
      </trkpt>
      <trkpt lat="49.60933" lon="3.44201">
        <ele>117.1</ele>
        <time>2025-10-05T12:37:45.000Z</time>
      </trkpt>
      <trkpt lat="49.60933" lon="3.44201">
        <ele>117.1</ele>
        <time>2025-10-05T12:37:46.000Z</time>
      </trkpt>
      <trkpt lat="49.60933" lon="3.44201">
        <ele>117.1</ele>
        <time>2025-10-05T12:37:47.000Z</time>
      </trkpt>
      <trkpt lat="49.60933" lon="3.44201">
        <ele>117.1</ele>
        <time>2025-10-05T12:37:48.000Z</time>
      </trkpt>
      <trkpt lat="49.60933" lon="3.44201">
        <ele>117.1</ele>
        <time>2025-10-05T12:37:49.000Z</time>
      </trkpt>
      <trkpt lat="49.60933" lon="3.44201">
        <ele>117.1</ele>
        <time>2025-10-05T12:37:50.000Z</time>
      </trkpt>
      <trkpt lat="49.60933" lon="3.44201">
        <ele>117.1</ele>
        <time>2025-10-05T12:37:51.000Z</time>
      </trkpt>
      <trkpt lat="49.60933" lon="3.44201">
        <ele>117.2</ele>
        <time>2025-10-05T12:37:52.000Z</time>
      </trkpt>
      <trkpt lat="49.60933" lon="3.44201">
        <ele>117.1</ele>
        <time>2025-10-05T12:37:53.000Z</time>
      </trkpt>
      <trkpt lat="49.60933" lon="3.44201">
        <ele>117.1</ele>
        <time>2025-10-05T12:37:54.000Z</time>
      </trkpt>
      <trkpt lat="49.60933" lon="3.44201">
        <ele>117.1</ele>
        <time>2025-10-05T12:37:55.000Z</time>
      </trkpt>
      <trkpt lat="49.60933" lon="3.44201">
        <ele>117.1</ele>
        <time>2025-10-05T12:37:56.000Z</time>
      </trkpt>
      <trkpt lat="49.60933" lon="3.44201">
        <ele>117.1</ele>
        <time>2025-10-05T12:37:57.000Z</time>
      </trkpt>
      <trkpt lat="49.60933" lon="3.44201">
        <ele>117.1</ele>
        <time>2025-10-05T12:37:58.000Z</time>
      </trkpt>
      <trkpt lat="49.60933" lon="3.44201">
        <ele>117.1</ele>
        <time>2025-10-05T12:37:59.000Z</time>
      </trkpt>
      <trkpt lat="49.60933" lon="3.44201">
        <ele>117.1</ele>
        <time>2025-10-05T12:38:00.000Z</time>
      </trkpt>
      <trkpt lat="49.60933" lon="3.44201">
        <ele>117.1</ele>
        <time>2025-10-05T12:38:01.000Z</time>
      </trkpt>
      <trkpt lat="49.60933" lon="3.44201">
        <ele>117.1</ele>
        <time>2025-10-05T12:38:02.000Z</time>
      </trkpt>
      <trkpt lat="49.60933" lon="3.44201">
        <ele>117.1</ele>
        <time>2025-10-05T12:38:03.000Z</time>
      </trkpt>
      <trkpt lat="49.60933" lon="3.44201">
        <ele>117.1</ele>
        <time>2025-10-05T12:38:04.000Z</time>
      </trkpt>
      <trkpt lat="49.60933" lon="3.44201">
        <ele>117.1</ele>
        <time>2025-10-05T12:38:05.000Z</time>
      </trkpt>
      <trkpt lat="49.60933" lon="3.44201">
        <ele>117.1</ele>
        <time>2025-10-05T12:38:06.000Z</time>
      </trkpt>
      <trkpt lat="49.60933" lon="3.44201">
        <ele>117.1</ele>
        <time>2025-10-05T12:38:07.000Z</time>
      </trkpt>
      <trkpt lat="49.60933" lon="3.44201">
        <ele>117.1</ele>
        <time>2025-10-05T12:38:08.000Z</time>
      </trkpt>
      <trkpt lat="49.60933" lon="3.44201">
        <ele>117.1</ele>
        <time>2025-10-05T12:38:09.000Z</time>
      </trkpt>
      <trkpt lat="49.60933" lon="3.44201">
        <ele>117.1</ele>
        <time>2025-10-05T12:38:10.000Z</time>
      </trkpt>
      <trkpt lat="49.60933" lon="3.44201">
        <ele>117.1</ele>
        <time>2025-10-05T12:38:11.000Z</time>
      </trkpt>
      <trkpt lat="49.60933" lon="3.44201">
        <ele>117.1</ele>
        <time>2025-10-05T12:38:12.000Z</time>
      </trkpt>
      <trkpt lat="49.60933" lon="3.44201">
        <ele>117.1</ele>
        <time>2025-10-05T12:38:13.000Z</time>
      </trkpt>
      <trkpt lat="49.60933" lon="3.44201">
        <ele>117.1</ele>
        <time>2025-10-05T12:38:14.000Z</time>
      </trkpt>
      <trkpt lat="49.60933" lon="3.44201">
        <ele>117.1</ele>
        <time>2025-10-05T12:38:15.000Z</time>
      </trkpt>
      <trkpt lat="49.60933" lon="3.44201">
        <ele>117.1</ele>
        <time>2025-10-05T12:38:16.000Z</time>
      </trkpt>
      <trkpt lat="49.60933" lon="3.44201">
        <ele>117.1</ele>
        <time>2025-10-05T12:38:17.000Z</time>
      </trkpt>
      <trkpt lat="49.60933" lon="3.44201">
        <ele>117.1</ele>
        <time>2025-10-05T12:38:18.000Z</time>
      </trkpt>
      <trkpt lat="49.60933" lon="3.44201">
        <ele>117.1</ele>
        <time>2025-10-05T12:38:19.000Z</time>
      </trkpt>
      <trkpt lat="49.60933" lon="3.44201">
        <ele>117.1</ele>
        <time>2025-10-05T12:38:20.000Z</time>
      </trkpt>
      <trkpt lat="49.60933" lon="3.44201">
        <ele>117.1</ele>
        <time>2025-10-05T12:38:21.000Z</time>
      </trkpt>
      <trkpt lat="49.60933" lon="3.44201">
        <ele>117.1</ele>
        <time>2025-10-05T12:38:22.000Z</time>
      </trkpt>
      <trkpt lat="49.60933" lon="3.44201">
        <ele>117.1</ele>
        <time>2025-10-05T12:38:23.000Z</time>
      </trkpt>
      <trkpt lat="49.60933" lon="3.44201">
        <ele>117.2</ele>
        <time>2025-10-05T12:38:24.000Z</time>
      </trkpt>
      <trkpt lat="49.60933" lon="3.44201">
        <ele>117.2</ele>
        <time>2025-10-05T12:38:25.000Z</time>
      </trkpt>
      <trkpt lat="49.60933" lon="3.44201">
        <ele>117.1</ele>
        <time>2025-10-05T12:38:26.000Z</time>
      </trkpt>
      <trkpt lat="49.60933" lon="3.44201">
        <ele>117.1</ele>
        <time>2025-10-05T12:38:27.000Z</time>
      </trkpt>
      <trkpt lat="49.60933" lon="3.44201">
        <ele>117.1</ele>
        <time>2025-10-05T12:38:28.000Z</time>
      </trkpt>
      <trkpt lat="49.60933" lon="3.44201">
        <ele>117.1</ele>
        <time>2025-10-05T12:38:29.000Z</time>
      </trkpt>
      <trkpt lat="49.60933" lon="3.44201">
        <ele>117.1</ele>
        <time>2025-10-05T12:38:30.000Z</time>
      </trkpt>
      <trkpt lat="49.60933" lon="3.44201">
        <ele>117.1</ele>
        <time>2025-10-05T12:38:31.000Z</time>
      </trkpt>
      <trkpt lat="49.60933" lon="3.44201">
        <ele>117.1</ele>
        <time>2025-10-05T12:38:32.000Z</time>
      </trkpt>
      <trkpt lat="49.60933" lon="3.44201">
        <ele>117.1</ele>
        <time>2025-10-05T12:38:33.000Z</time>
      </trkpt>
      <trkpt lat="49.60933" lon="3.44201">
        <ele>117.1</ele>
        <time>2025-10-05T12:38:34.000Z</time>
      </trkpt>
      <trkpt lat="49.60933" lon="3.44201">
        <ele>117.1</ele>
        <time>2025-10-05T12:38:35.000Z</time>
      </trkpt>
      <trkpt lat="49.60933" lon="3.44201">
        <ele>117.1</ele>
        <time>2025-10-05T12:38:36.000Z</time>
      </trkpt>
      <trkpt lat="49.60933" lon="3.44201">
        <ele>117.1</ele>
        <time>2025-10-05T12:38:37.000Z</time>
      </trkpt>
      <trkpt lat="49.60933" lon="3.44201">
        <ele>117.1</ele>
        <time>2025-10-05T12:38:38.000Z</time>
      </trkpt>
      <trkpt lat="49.60933" lon="3.44201">
        <ele>117.1</ele>
        <time>2025-10-05T12:38:39.000Z</time>
      </trkpt>
      <trkpt lat="49.60933" lon="3.44201">
        <ele>117.1</ele>
        <time>2025-10-05T12:38:40.000Z</time>
      </trkpt>
      <trkpt lat="49.60933" lon="3.44201">
        <ele>117.1</ele>
        <time>2025-10-05T12:38:41.000Z</time>
      </trkpt>
      <trkpt lat="49.60933" lon="3.44201">
        <ele>117.1</ele>
        <time>2025-10-05T12:38:42.000Z</time>
      </trkpt>
      <trkpt lat="49.60933" lon="3.44201">
        <ele>117.1</ele>
        <time>2025-10-05T12:38:43.000Z</time>
      </trkpt>
      <trkpt lat="49.60933" lon="3.44201">
        <ele>117.1</ele>
        <time>2025-10-05T12:38:44.000Z</time>
      </trkpt>
      <trkpt lat="49.60933" lon="3.44201">
        <ele>117.1</ele>
        <time>2025-10-05T12:38:45.000Z</time>
      </trkpt>
      <trkpt lat="49.60933" lon="3.44201">
        <ele>117.1</ele>
        <time>2025-10-05T12:38:46.000Z</time>
      </trkpt>
      <trkpt lat="49.60933" lon="3.44201">
        <ele>117.1</ele>
        <time>2025-10-05T12:38:47.000Z</time>
      </trkpt>
      <trkpt lat="49.60933" lon="3.44201">
        <ele>117.1</ele>
        <time>2025-10-05T12:38:48.000Z</time>
      </trkpt>
      <trkpt lat="49.60933" lon="3.44201">
        <ele>117.1</ele>
        <time>2025-10-05T12:38:49.000Z</time>
      </trkpt>
      <trkpt lat="49.60933" lon="3.44201">
        <ele>117.1</ele>
        <time>2025-10-05T12:38:50.000Z</time>
      </trkpt>
      <trkpt lat="49.60933" lon="3.44201">
        <ele>117.1</ele>
        <time>2025-10-05T12:38:51.000Z</time>
      </trkpt>
      <trkpt lat="49.60933" lon="3.44201">
        <ele>117.1</ele>
        <time>2025-10-05T12:38:52.000Z</time>
      </trkpt>
      <trkpt lat="49.60933" lon="3.44201">
        <ele>117.1</ele>
        <time>2025-10-05T12:38:53.000Z</time>
      </trkpt>
      <trkpt lat="49.60933" lon="3.44201">
        <ele>117.1</ele>
        <time>2025-10-05T12:38:54.000Z</time>
      </trkpt>
      <trkpt lat="49.60933" lon="3.44201">
        <ele>117.1</ele>
        <time>2025-10-05T12:38:55.000Z</time>
      </trkpt>
      <trkpt lat="49.60933" lon="3.44201">
        <ele>117.1</ele>
        <time>2025-10-05T12:38:56.000Z</time>
      </trkpt>
      <trkpt lat="49.60933" lon="3.44201">
        <ele>117.1</ele>
        <time>2025-10-05T12:38:57.000Z</time>
      </trkpt>
      <trkpt lat="49.60933" lon="3.44201">
        <ele>117.1</ele>
        <time>2025-10-05T12:38:58.000Z</time>
      </trkpt>
      <trkpt lat="49.60933" lon="3.44201">
        <ele>117.1</ele>
        <time>2025-10-05T12:38:59.000Z</time>
      </trkpt>
      <trkpt lat="49.60933" lon="3.44201">
        <ele>117.1</ele>
        <time>2025-10-05T12:39:00.000Z</time>
      </trkpt>
      <trkpt lat="49.60933" lon="3.44201">
        <ele>117.1</ele>
        <time>2025-10-05T12:39:01.000Z</time>
      </trkpt>
      <trkpt lat="49.60933" lon="3.44201">
        <ele>117.1</ele>
        <time>2025-10-05T12:39:02.000Z</time>
      </trkpt>
      <trkpt lat="49.60933" lon="3.44201">
        <ele>117.1</ele>
        <time>2025-10-05T12:39:03.000Z</time>
      </trkpt>
      <trkpt lat="49.60933" lon="3.44201">
        <ele>117.1</ele>
        <time>2025-10-05T12:39:04.000Z</time>
      </trkpt>
      <trkpt lat="49.60933" lon="3.44201">
        <ele>117.1</ele>
        <time>2025-10-05T12:39:05.000Z</time>
      </trkpt>
      <trkpt lat="49.60933" lon="3.44201">
        <ele>117.1</ele>
        <time>2025-10-05T12:39:06.000Z</time>
      </trkpt>
      <trkpt lat="49.60933" lon="3.44201">
        <ele>117.1</ele>
        <time>2025-10-05T12:39:07.000Z</time>
      </trkpt>
      <trkpt lat="49.60933" lon="3.44201">
        <ele>117.1</ele>
        <time>2025-10-05T12:39:08.000Z</time>
      </trkpt>
      <trkpt lat="49.60933" lon="3.44201">
        <ele>117.1</ele>
        <time>2025-10-05T12:39:09.000Z</time>
      </trkpt>
      <trkpt lat="49.60933" lon="3.44201">
        <ele>117.1</ele>
        <time>2025-10-05T12:39:10.000Z</time>
      </trkpt>
      <trkpt lat="49.60933" lon="3.44201">
        <ele>117.1</ele>
        <time>2025-10-05T12:39:11.000Z</time>
      </trkpt>
      <trkpt lat="49.60933" lon="3.44201">
        <ele>117.1</ele>
        <time>2025-10-05T12:39:12.000Z</time>
      </trkpt>
      <trkpt lat="49.60933" lon="3.44201">
        <ele>117.1</ele>
        <time>2025-10-05T12:39:13.000Z</time>
      </trkpt>
      <trkpt lat="49.60933" lon="3.44201">
        <ele>117.1</ele>
        <time>2025-10-05T12:39:14.000Z</time>
      </trkpt>
      <trkpt lat="49.60933" lon="3.44201">
        <ele>117.1</ele>
        <time>2025-10-05T12:39:15.000Z</time>
      </trkpt>
      <trkpt lat="49.60933" lon="3.44201">
        <ele>117.1</ele>
        <time>2025-10-05T12:39:16.000Z</time>
      </trkpt>
      <trkpt lat="49.60933" lon="3.44201">
        <ele>117.1</ele>
        <time>2025-10-05T12:39:17.000Z</time>
      </trkpt>
      <trkpt lat="49.60933" lon="3.44201">
        <ele>117.1</ele>
        <time>2025-10-05T12:39:18.000Z</time>
      </trkpt>
      <trkpt lat="49.60933" lon="3.44201">
        <ele>117.1</ele>
        <time>2025-10-05T12:39:19.000Z</time>
      </trkpt>
      <trkpt lat="49.60933" lon="3.44201">
        <ele>117.1</ele>
        <time>2025-10-05T12:39:20.000Z</time>
      </trkpt>
      <trkpt lat="49.60933" lon="3.44201">
        <ele>117.1</ele>
        <time>2025-10-05T12:39:21.000Z</time>
      </trkpt>
      <trkpt lat="49.60933" lon="3.44201">
        <ele>117.1</ele>
        <time>2025-10-05T12:39:22.000Z</time>
      </trkpt>
      <trkpt lat="49.60933" lon="3.44201">
        <ele>117.1</ele>
        <time>2025-10-05T12:39:23.000Z</time>
      </trkpt>
      <trkpt lat="49.60933" lon="3.44201">
        <ele>117.1</ele>
        <time>2025-10-05T12:39:24.000Z</time>
      </trkpt>
      <trkpt lat="49.60933" lon="3.44201">
        <ele>117.1</ele>
        <time>2025-10-05T12:39:25.000Z</time>
      </trkpt>
      <trkpt lat="49.60931" lon="3.44199">
        <ele>116.3</ele>
        <time>2025-10-05T12:39:26.000Z</time>
      </trkpt>
      <trkpt lat="49.60931" lon="3.44199">
        <ele>116.3</ele>
        <time>2025-10-05T12:39:27.000Z</time>
      </trkpt>
      <trkpt lat="49.60931" lon="3.442">
        <ele>116.1</ele>
        <time>2025-10-05T12:39:28.000Z</time>
      </trkpt>
      <trkpt lat="49.60931" lon="3.442">
        <ele>116</ele>
        <time>2025-10-05T12:39:29.000Z</time>
      </trkpt>
      <trkpt lat="49.60931" lon="3.44201">
        <ele>115.8</ele>
        <time>2025-10-05T12:39:30.000Z</time>
      </trkpt>
      <trkpt lat="49.60931" lon="3.44201">
        <ele>115.8</ele>
        <time>2025-10-05T12:39:31.000Z</time>
      </trkpt>
      <trkpt lat="49.60931" lon="3.44201">
        <ele>115.8</ele>
        <time>2025-10-05T12:39:32.000Z</time>
      </trkpt>
      <trkpt lat="49.60931" lon="3.44201">
        <ele>115.8</ele>
        <time>2025-10-05T12:39:33.000Z</time>
      </trkpt>
      <trkpt lat="49.60931" lon="3.44201">
        <ele>115.8</ele>
        <time>2025-10-05T12:39:34.000Z</time>
      </trkpt>
      <trkpt lat="49.60931" lon="3.44201">
        <ele>115.8</ele>
        <time>2025-10-05T12:39:35.000Z</time>
      </trkpt>
      <trkpt lat="49.60931" lon="3.44201">
        <ele>115.8</ele>
        <time>2025-10-05T12:39:36.000Z</time>
      </trkpt>
      <trkpt lat="49.60931" lon="3.44201">
        <ele>115.8</ele>
        <time>2025-10-05T12:39:37.000Z</time>
      </trkpt>
      <trkpt lat="49.60931" lon="3.44201">
        <ele>115.8</ele>
        <time>2025-10-05T12:39:38.000Z</time>
      </trkpt>
      <trkpt lat="49.60931" lon="3.44201">
        <ele>115.8</ele>
        <time>2025-10-05T12:39:39.000Z</time>
      </trkpt>
      <trkpt lat="49.60931" lon="3.44201">
        <ele>115.8</ele>
        <time>2025-10-05T12:39:40.000Z</time>
      </trkpt>
      <trkpt lat="49.60931" lon="3.44201">
        <ele>115.8</ele>
        <time>2025-10-05T12:39:41.000Z</time>
      </trkpt>
      <trkpt lat="49.60931" lon="3.44201">
        <ele>115.8</ele>
        <time>2025-10-05T12:39:42.000Z</time>
      </trkpt>
      <trkpt lat="49.60931" lon="3.44201">
        <ele>115.8</ele>
        <time>2025-10-05T12:39:43.000Z</time>
      </trkpt>
      <trkpt lat="49.60931" lon="3.44201">
        <ele>115.8</ele>
        <time>2025-10-05T12:39:44.000Z</time>
      </trkpt>
      <trkpt lat="49.60931" lon="3.44201">
        <ele>115.8</ele>
        <time>2025-10-05T12:39:45.000Z</time>
      </trkpt>
      <trkpt lat="49.60931" lon="3.44201">
        <ele>115.8</ele>
        <time>2025-10-05T12:39:46.000Z</time>
      </trkpt>
      <trkpt lat="49.60931" lon="3.44201">
        <ele>115.8</ele>
        <time>2025-10-05T12:39:47.000Z</time>
      </trkpt>
      <trkpt lat="49.60931" lon="3.44201">
        <ele>115.8</ele>
        <time>2025-10-05T12:39:48.000Z</time>
      </trkpt>
      <trkpt lat="49.60931" lon="3.44201">
        <ele>115.8</ele>
        <time>2025-10-05T12:39:49.000Z</time>
      </trkpt>
      <trkpt lat="49.60931" lon="3.44201">
        <ele>115.8</ele>
        <time>2025-10-05T12:39:50.000Z</time>
      </trkpt>
      <trkpt lat="49.60931" lon="3.44201">
        <ele>115.8</ele>
        <time>2025-10-05T12:39:51.000Z</time>
      </trkpt>
      <trkpt lat="49.60931" lon="3.44201">
        <ele>115.8</ele>
        <time>2025-10-05T12:39:52.000Z</time>
      </trkpt>
      <trkpt lat="49.60931" lon="3.44201">
        <ele>115.8</ele>
        <time>2025-10-05T12:39:53.000Z</time>
      </trkpt>
      <trkpt lat="49.60931" lon="3.44201">
        <ele>115.8</ele>
        <time>2025-10-05T12:39:54.000Z</time>
      </trkpt>
      <trkpt lat="49.60931" lon="3.44201">
        <ele>115.8</ele>
        <time>2025-10-05T12:39:55.000Z</time>
      </trkpt>
      <trkpt lat="49.60931" lon="3.44201">
        <ele>115.8</ele>
        <time>2025-10-05T12:39:56.000Z</time>
      </trkpt>
      <trkpt lat="49.60931" lon="3.44201">
        <ele>115.8</ele>
        <time>2025-10-05T12:39:57.000Z</time>
      </trkpt>
      <trkpt lat="49.60931" lon="3.44201">
        <ele>115.8</ele>
        <time>2025-10-05T12:39:58.000Z</time>
      </trkpt>
      <trkpt lat="49.60931" lon="3.44201">
        <ele>115.8</ele>
        <time>2025-10-05T12:39:59.000Z</time>
      </trkpt>
      <trkpt lat="49.60931" lon="3.44201">
        <ele>115.8</ele>
        <time>2025-10-05T12:40:00.000Z</time>
      </trkpt>
      <trkpt lat="49.60931" lon="3.44201">
        <ele>115.8</ele>
        <time>2025-10-05T12:40:01.000Z</time>
      </trkpt>
      <trkpt lat="49.60931" lon="3.44201">
        <ele>115.8</ele>
        <time>2025-10-05T12:40:02.000Z</time>
      </trkpt>
      <trkpt lat="49.60931" lon="3.44201">
        <ele>115.8</ele>
        <time>2025-10-05T12:40:03.000Z</time>
      </trkpt>
      <trkpt lat="49.60931" lon="3.44201">
        <ele>115.8</ele>
        <time>2025-10-05T12:40:04.000Z</time>
      </trkpt>
      <trkpt lat="49.60931" lon="3.44201">
        <ele>115.8</ele>
        <time>2025-10-05T12:40:05.000Z</time>
      </trkpt>
      <trkpt lat="49.60931" lon="3.44201">
        <ele>115.8</ele>
        <time>2025-10-05T12:40:06.000Z</time>
      </trkpt>
      <trkpt lat="49.60931" lon="3.44201">
        <ele>115.8</ele>
        <time>2025-10-05T12:40:07.000Z</time>
      </trkpt>
      <trkpt lat="49.60931" lon="3.44201">
        <ele>115.8</ele>
        <time>2025-10-05T12:40:08.000Z</time>
      </trkpt>
      <trkpt lat="49.60931" lon="3.44201">
        <ele>115.8</ele>
        <time>2025-10-05T12:40:09.000Z</time>
      </trkpt>
      <trkpt lat="49.60931" lon="3.44201">
        <ele>115.8</ele>
        <time>2025-10-05T12:40:10.000Z</time>
      </trkpt>
      <trkpt lat="49.60931" lon="3.44201">
        <ele>115.8</ele>
        <time>2025-10-05T12:40:11.000Z</time>
      </trkpt>
      <trkpt lat="49.60931" lon="3.44201">
        <ele>115.8</ele>
        <time>2025-10-05T12:40:12.000Z</time>
      </trkpt>
      <trkpt lat="49.60931" lon="3.44201">
        <ele>115.8</ele>
        <time>2025-10-05T12:40:13.000Z</time>
      </trkpt>
      <trkpt lat="49.60931" lon="3.44201">
        <ele>115.8</ele>
        <time>2025-10-05T12:40:14.000Z</time>
      </trkpt>
      <trkpt lat="49.60931" lon="3.44201">
        <ele>115.8</ele>
        <time>2025-10-05T12:40:15.000Z</time>
      </trkpt>
      <trkpt lat="49.60931" lon="3.44201">
        <ele>115.8</ele>
        <time>2025-10-05T12:40:16.000Z</time>
      </trkpt>
      <trkpt lat="49.60931" lon="3.44201">
        <ele>115.8</ele>
        <time>2025-10-05T12:40:17.000Z</time>
      </trkpt>
      <trkpt lat="49.60931" lon="3.44201">
        <ele>115.8</ele>
        <time>2025-10-05T12:40:18.000Z</time>
      </trkpt>
      <trkpt lat="49.60931" lon="3.44201">
        <ele>115.8</ele>
        <time>2025-10-05T12:40:19.000Z</time>
      </trkpt>
      <trkpt lat="49.60931" lon="3.44201">
        <ele>115.8</ele>
        <time>2025-10-05T12:40:20.000Z</time>
      </trkpt>
      <trkpt lat="49.60931" lon="3.44201">
        <ele>115.8</ele>
        <time>2025-10-05T12:40:21.000Z</time>
      </trkpt>
      <trkpt lat="49.60931" lon="3.44201">
        <ele>115.8</ele>
        <time>2025-10-05T12:40:22.000Z</time>
      </trkpt>
      <trkpt lat="49.60931" lon="3.44201">
        <ele>115.8</ele>
        <time>2025-10-05T12:40:23.000Z</time>
      </trkpt>
      <trkpt lat="49.60931" lon="3.44201">
        <ele>115.8</ele>
        <time>2025-10-05T12:40:24.000Z</time>
      </trkpt>
      <trkpt lat="49.60931" lon="3.44201">
        <ele>115.8</ele>
        <time>2025-10-05T12:40:25.000Z</time>
      </trkpt>
      <trkpt lat="49.60931" lon="3.44201">
        <ele>115.8</ele>
        <time>2025-10-05T12:40:26.000Z</time>
      </trkpt>
      <trkpt lat="49.60931" lon="3.44201">
        <ele>115.8</ele>
        <time>2025-10-05T12:40:27.000Z</time>
      </trkpt>
      <trkpt lat="49.60931" lon="3.44201">
        <ele>115.8</ele>
        <time>2025-10-05T12:40:28.000Z</time>
      </trkpt>
      <trkpt lat="49.60931" lon="3.44201">
        <ele>115.8</ele>
        <time>2025-10-05T12:40:29.000Z</time>
      </trkpt>
      <trkpt lat="49.60931" lon="3.44201">
        <ele>115.8</ele>
        <time>2025-10-05T12:40:30.000Z</time>
      </trkpt>
      <trkpt lat="49.60931" lon="3.44201">
        <ele>115.8</ele>
        <time>2025-10-05T12:40:31.000Z</time>
      </trkpt>
      <trkpt lat="49.60931" lon="3.44201">
        <ele>115.8</ele>
        <time>2025-10-05T12:40:32.000Z</time>
      </trkpt>
      <trkpt lat="49.60931" lon="3.44201">
        <ele>115.8</ele>
        <time>2025-10-05T12:40:33.000Z</time>
      </trkpt>
      <trkpt lat="49.60931" lon="3.44201">
        <ele>115.8</ele>
        <time>2025-10-05T12:40:34.000Z</time>
      </trkpt>
      <trkpt lat="49.60931" lon="3.44201">
        <ele>115.8</ele>
        <time>2025-10-05T12:40:35.000Z</time>
      </trkpt>
      <trkpt lat="49.60931" lon="3.44201">
        <ele>115.8</ele>
        <time>2025-10-05T12:40:36.000Z</time>
      </trkpt>
      <trkpt lat="49.60931" lon="3.44201">
        <ele>115.8</ele>
        <time>2025-10-05T12:40:37.000Z</time>
      </trkpt>
      <trkpt lat="49.60931" lon="3.44201">
        <ele>115.8</ele>
        <time>2025-10-05T12:40:38.000Z</time>
      </trkpt>
      <trkpt lat="49.60931" lon="3.44201">
        <ele>115.8</ele>
        <time>2025-10-05T12:40:39.000Z</time>
      </trkpt>
      <trkpt lat="49.60931" lon="3.44201">
        <ele>115.8</ele>
        <time>2025-10-05T12:40:40.000Z</time>
      </trkpt>
      <trkpt lat="49.60931" lon="3.44201">
        <ele>115.8</ele>
        <time>2025-10-05T12:40:41.000Z</time>
      </trkpt>
      <trkpt lat="49.60931" lon="3.44201">
        <ele>115.8</ele>
        <time>2025-10-05T12:40:42.000Z</time>
      </trkpt>
      <trkpt lat="49.60931" lon="3.44201">
        <ele>115.8</ele>
        <time>2025-10-05T12:40:43.000Z</time>
      </trkpt>
      <trkpt lat="49.60931" lon="3.44201">
        <ele>115.8</ele>
        <time>2025-10-05T12:40:44.000Z</time>
      </trkpt>
      <trkpt lat="49.60931" lon="3.44201">
        <ele>115.8</ele>
        <time>2025-10-05T12:40:45.000Z</time>
      </trkpt>
      <trkpt lat="49.60931" lon="3.44201">
        <ele>115.8</ele>
        <time>2025-10-05T12:40:46.000Z</time>
      </trkpt>
      <trkpt lat="49.60931" lon="3.44201">
        <ele>115.8</ele>
        <time>2025-10-05T12:40:47.000Z</time>
      </trkpt>
      <trkpt lat="49.60931" lon="3.44201">
        <ele>115.8</ele>
        <time>2025-10-05T12:40:48.000Z</time>
      </trkpt>
      <trkpt lat="49.60931" lon="3.44201">
        <ele>115.8</ele>
        <time>2025-10-05T12:40:49.000Z</time>
      </trkpt>
      <trkpt lat="49.60931" lon="3.44201">
        <ele>115.8</ele>
        <time>2025-10-05T12:40:50.000Z</time>
      </trkpt>
      <trkpt lat="49.60931" lon="3.44201">
        <ele>115.8</ele>
        <time>2025-10-05T12:40:51.000Z</time>
      </trkpt>
      <trkpt lat="49.60931" lon="3.44201">
        <ele>115.8</ele>
        <time>2025-10-05T12:40:52.000Z</time>
      </trkpt>
      <trkpt lat="49.60931" lon="3.44201">
        <ele>115.8</ele>
        <time>2025-10-05T12:40:53.000Z</time>
      </trkpt>
      <trkpt lat="49.60931" lon="3.44201">
        <ele>115.8</ele>
        <time>2025-10-05T12:40:54.000Z</time>
      </trkpt>
      <trkpt lat="49.60931" lon="3.44201">
        <ele>115.8</ele>
        <time>2025-10-05T12:40:55.000Z</time>
      </trkpt>
      <trkpt lat="49.60931" lon="3.44201">
        <ele>115.8</ele>
        <time>2025-10-05T12:40:56.000Z</time>
      </trkpt>
      <trkpt lat="49.60931" lon="3.44201">
        <ele>115.8</ele>
        <time>2025-10-05T12:40:57.000Z</time>
      </trkpt>
      <trkpt lat="49.60931" lon="3.44201">
        <ele>115.8</ele>
        <time>2025-10-05T12:40:58.000Z</time>
      </trkpt>
      <trkpt lat="49.60931" lon="3.44201">
        <ele>115.8</ele>
        <time>2025-10-05T12:40:59.000Z</time>
      </trkpt>
      <trkpt lat="49.60931" lon="3.44201">
        <ele>115.8</ele>
        <time>2025-10-05T12:41:00.000Z</time>
      </trkpt>
      <trkpt lat="49.60931" lon="3.44201">
        <ele>115.8</ele>
        <time>2025-10-05T12:41:01.000Z</time>
      </trkpt>
      <trkpt lat="49.60931" lon="3.44201">
        <ele>115.8</ele>
        <time>2025-10-05T12:41:02.000Z</time>
      </trkpt>
      <trkpt lat="49.60931" lon="3.44201">
        <ele>115.8</ele>
        <time>2025-10-05T12:41:03.000Z</time>
      </trkpt>
      <trkpt lat="49.60931" lon="3.44201">
        <ele>115.8</ele>
        <time>2025-10-05T12:41:04.000Z</time>
      </trkpt>
      <trkpt lat="49.60931" lon="3.44201">
        <ele>115.8</ele>
        <time>2025-10-05T12:41:05.000Z</time>
      </trkpt>
      <trkpt lat="49.60931" lon="3.44201">
        <ele>115.8</ele>
        <time>2025-10-05T12:41:06.000Z</time>
      </trkpt>
      <trkpt lat="49.60931" lon="3.44201">
        <ele>115.8</ele>
        <time>2025-10-05T12:41:07.000Z</time>
      </trkpt>
      <trkpt lat="49.60931" lon="3.44201">
        <ele>115.8</ele>
        <time>2025-10-05T12:41:08.000Z</time>
      </trkpt>
      <trkpt lat="49.60931" lon="3.44201">
        <ele>115.8</ele>
        <time>2025-10-05T12:41:09.000Z</time>
      </trkpt>
      <trkpt lat="49.60931" lon="3.44201">
        <ele>115.8</ele>
        <time>2025-10-05T12:41:10.000Z</time>
      </trkpt>
      <trkpt lat="49.60931" lon="3.44201">
        <ele>115.8</ele>
        <time>2025-10-05T12:41:11.000Z</time>
      </trkpt>
      <trkpt lat="49.60931" lon="3.44201">
        <ele>115.8</ele>
        <time>2025-10-05T12:41:12.000Z</time>
      </trkpt>
      <trkpt lat="49.60931" lon="3.44201">
        <ele>115.8</ele>
        <time>2025-10-05T12:41:13.000Z</time>
      </trkpt>
      <trkpt lat="49.60931" lon="3.44201">
        <ele>115.8</ele>
        <time>2025-10-05T12:41:14.000Z</time>
      </trkpt>
      <trkpt lat="49.60931" lon="3.44201">
        <ele>115.8</ele>
        <time>2025-10-05T12:41:15.000Z</time>
      </trkpt>
      <trkpt lat="49.60931" lon="3.44201">
        <ele>115.8</ele>
        <time>2025-10-05T12:41:16.000Z</time>
      </trkpt>
      <trkpt lat="49.60931" lon="3.44201">
        <ele>115.8</ele>
        <time>2025-10-05T12:41:17.000Z</time>
      </trkpt>
      <trkpt lat="49.60931" lon="3.44201">
        <ele>115.8</ele>
        <time>2025-10-05T12:41:18.000Z</time>
      </trkpt>
      <trkpt lat="49.60931" lon="3.44201">
        <ele>115.8</ele>
        <time>2025-10-05T12:41:19.000Z</time>
      </trkpt>
      <trkpt lat="49.60931" lon="3.44201">
        <ele>115.8</ele>
        <time>2025-10-05T12:41:20.000Z</time>
      </trkpt>
      <trkpt lat="49.60931" lon="3.44201">
        <ele>115.8</ele>
        <time>2025-10-05T12:41:21.000Z</time>
      </trkpt>
      <trkpt lat="49.60931" lon="3.44201">
        <ele>115.8</ele>
        <time>2025-10-05T12:41:22.000Z</time>
      </trkpt>
      <trkpt lat="49.60931" lon="3.44201">
        <ele>115.8</ele>
        <time>2025-10-05T12:41:23.000Z</time>
      </trkpt>
      <trkpt lat="49.60931" lon="3.44201">
        <ele>115.8</ele>
        <time>2025-10-05T12:41:24.000Z</time>
      </trkpt>
      <trkpt lat="49.60931" lon="3.44201">
        <ele>115.8</ele>
        <time>2025-10-05T12:41:25.000Z</time>
      </trkpt>
      <trkpt lat="49.60931" lon="3.44201">
        <ele>115.8</ele>
        <time>2025-10-05T12:41:26.000Z</time>
      </trkpt>
      <trkpt lat="49.60931" lon="3.44201">
        <ele>115.8</ele>
        <time>2025-10-05T12:41:27.000Z</time>
      </trkpt>
      <trkpt lat="49.60931" lon="3.44201">
        <ele>115.8</ele>
        <time>2025-10-05T12:41:28.000Z</time>
      </trkpt>
      <trkpt lat="49.60931" lon="3.44201">
        <ele>115.8</ele>
        <time>2025-10-05T12:41:29.000Z</time>
      </trkpt>
      <trkpt lat="49.60931" lon="3.44201">
        <ele>115.8</ele>
        <time>2025-10-05T12:41:30.000Z</time>
      </trkpt>
      <trkpt lat="49.60931" lon="3.44201">
        <ele>115.8</ele>
        <time>2025-10-05T12:41:31.000Z</time>
      </trkpt>
      <trkpt lat="49.60931" lon="3.44201">
        <ele>115.8</ele>
        <time>2025-10-05T12:41:32.000Z</time>
      </trkpt>
      <trkpt lat="49.60931" lon="3.44201">
        <ele>115.8</ele>
        <time>2025-10-05T12:41:33.000Z</time>
      </trkpt>
      <trkpt lat="49.60931" lon="3.44201">
        <ele>115.8</ele>
        <time>2025-10-05T12:41:34.000Z</time>
      </trkpt>
      <trkpt lat="49.60931" lon="3.44201">
        <ele>115.8</ele>
        <time>2025-10-05T12:41:35.000Z</time>
      </trkpt>
      <trkpt lat="49.60931" lon="3.44201">
        <ele>115.8</ele>
        <time>2025-10-05T12:41:36.000Z</time>
      </trkpt>
      <trkpt lat="49.60931" lon="3.44201">
        <ele>115.8</ele>
        <time>2025-10-05T12:41:37.000Z</time>
      </trkpt>
      <trkpt lat="49.60931" lon="3.44201">
        <ele>115.8</ele>
        <time>2025-10-05T12:41:38.000Z</time>
      </trkpt>
      <trkpt lat="49.60931" lon="3.44201">
        <ele>115.8</ele>
        <time>2025-10-05T12:41:39.000Z</time>
      </trkpt>
      <trkpt lat="49.60931" lon="3.44201">
        <ele>115.8</ele>
        <time>2025-10-05T12:41:40.000Z</time>
      </trkpt>
      <trkpt lat="49.60931" lon="3.44201">
        <ele>115.8</ele>
        <time>2025-10-05T12:41:41.000Z</time>
      </trkpt>
      <trkpt lat="49.60931" lon="3.44201">
        <ele>115.8</ele>
        <time>2025-10-05T12:41:42.000Z</time>
      </trkpt>
      <trkpt lat="49.60931" lon="3.44201">
        <ele>115.8</ele>
        <time>2025-10-05T12:41:43.000Z</time>
      </trkpt>
      <trkpt lat="49.60931" lon="3.44201">
        <ele>115.8</ele>
        <time>2025-10-05T12:41:44.000Z</time>
      </trkpt>
      <trkpt lat="49.60931" lon="3.44201">
        <ele>115.8</ele>
        <time>2025-10-05T12:41:45.000Z</time>
      </trkpt>
      <trkpt lat="49.60931" lon="3.44201">
        <ele>115.8</ele>
        <time>2025-10-05T12:41:46.000Z</time>
      </trkpt>
      <trkpt lat="49.60931" lon="3.44201">
        <ele>115.8</ele>
        <time>2025-10-05T12:41:47.000Z</time>
      </trkpt>
      <trkpt lat="49.60931" lon="3.44201">
        <ele>115.8</ele>
        <time>2025-10-05T12:41:48.000Z</time>
      </trkpt>
      <trkpt lat="49.60931" lon="3.44201">
        <ele>115.8</ele>
        <time>2025-10-05T12:41:49.000Z</time>
      </trkpt>
      <trkpt lat="49.60931" lon="3.44201">
        <ele>115.8</ele>
        <time>2025-10-05T12:41:50.000Z</time>
      </trkpt>
      <trkpt lat="49.60931" lon="3.44201">
        <ele>115.8</ele>
        <time>2025-10-05T12:41:51.000Z</time>
      </trkpt>
      <trkpt lat="49.60931" lon="3.44201">
        <ele>115.8</ele>
        <time>2025-10-05T12:41:52.000Z</time>
      </trkpt>
      <trkpt lat="49.60931" lon="3.44201">
        <ele>115.8</ele>
        <time>2025-10-05T12:41:53.000Z</time>
      </trkpt>
      <trkpt lat="49.60931" lon="3.44201">
        <ele>115.8</ele>
        <time>2025-10-05T12:41:54.000Z</time>
      </trkpt>
      <trkpt lat="49.60931" lon="3.44201">
        <ele>115.8</ele>
        <time>2025-10-05T12:41:55.000Z</time>
      </trkpt>
      <trkpt lat="49.60931" lon="3.44201">
        <ele>115.8</ele>
        <time>2025-10-05T12:41:56.000Z</time>
      </trkpt>
      <trkpt lat="49.60931" lon="3.44201">
        <ele>115.8</ele>
        <time>2025-10-05T12:41:57.000Z</time>
      </trkpt>
      <trkpt lat="49.60931" lon="3.44201">
        <ele>115.8</ele>
        <time>2025-10-05T12:41:58.000Z</time>
      </trkpt>
      <trkpt lat="49.60931" lon="3.44201">
        <ele>115.8</ele>
        <time>2025-10-05T12:41:59.000Z</time>
      </trkpt>
      <trkpt lat="49.60931" lon="3.44201">
        <ele>115.8</ele>
        <time>2025-10-05T12:42:00.000Z</time>
      </trkpt>
      <trkpt lat="49.60931" lon="3.44201">
        <ele>115.8</ele>
        <time>2025-10-05T12:42:01.000Z</time>
      </trkpt>
      <trkpt lat="49.60931" lon="3.44201">
        <ele>115.8</ele>
        <time>2025-10-05T12:42:02.000Z</time>
      </trkpt>
      <trkpt lat="49.60931" lon="3.44201">
        <ele>115.8</ele>
        <time>2025-10-05T12:42:03.000Z</time>
      </trkpt>
      <trkpt lat="49.60931" lon="3.44201">
        <ele>115.8</ele>
        <time>2025-10-05T12:42:04.000Z</time>
      </trkpt>
      <trkpt lat="49.60931" lon="3.44201">
        <ele>115.8</ele>
        <time>2025-10-05T12:42:05.000Z</time>
      </trkpt>
      <trkpt lat="49.60931" lon="3.44201">
        <ele>115.8</ele>
        <time>2025-10-05T12:42:06.000Z</time>
      </trkpt>
      <trkpt lat="49.60931" lon="3.44199">
        <ele>114.4</ele>
        <time>2025-10-05T12:42:07.000Z</time>
      </trkpt>
      <trkpt lat="49.6093" lon="3.44199">
        <ele>114.5</ele>
        <time>2025-10-05T12:42:08.000Z</time>
      </trkpt>
      <trkpt lat="49.60928" lon="3.44199">
        <ele>114.6</ele>
        <time>2025-10-05T12:42:09.000Z</time>
      </trkpt>
      <trkpt lat="49.60927" lon="3.44199">
        <ele>114.8</ele>
        <time>2025-10-05T12:42:10.000Z</time>
      </trkpt>
      <trkpt lat="49.60925" lon="3.44199">
        <ele>115</ele>
        <time>2025-10-05T12:42:11.000Z</time>
      </trkpt>
      <trkpt lat="49.60924" lon="3.44198">
        <ele>115.4</ele>
        <time>2025-10-05T12:42:12.000Z</time>
      </trkpt>
      <trkpt lat="49.60923" lon="3.44199">
        <ele>115.8</ele>
        <time>2025-10-05T12:42:13.000Z</time>
      </trkpt>
      <trkpt lat="49.60923" lon="3.44199">
        <ele>116</ele>
        <time>2025-10-05T12:42:14.000Z</time>
      </trkpt>
      <trkpt lat="49.60921" lon="3.442">
        <ele>116.2</ele>
        <time>2025-10-05T12:42:15.000Z</time>
      </trkpt>
      <trkpt lat="49.6092" lon="3.442">
        <ele>116.5</ele>
        <time>2025-10-05T12:42:16.000Z</time>
      </trkpt>
      <trkpt lat="49.60918" lon="3.442">
        <ele>116.9</ele>
        <time>2025-10-05T12:42:17.000Z</time>
      </trkpt>
      <trkpt lat="49.60917" lon="3.44199">
        <ele>117.1</ele>
        <time>2025-10-05T12:42:18.000Z</time>
      </trkpt>
      <trkpt lat="49.60916" lon="3.44198">
        <ele>117.4</ele>
        <time>2025-10-05T12:42:19.000Z</time>
      </trkpt>
      <trkpt lat="49.60915" lon="3.44197">
        <ele>117.4</ele>
        <time>2025-10-05T12:42:20.000Z</time>
      </trkpt>
      <trkpt lat="49.60914" lon="3.44196">
        <ele>117.4</ele>
        <time>2025-10-05T12:42:21.000Z</time>
      </trkpt>
      <trkpt lat="49.60913" lon="3.44194">
        <ele>117.2</ele>
        <time>2025-10-05T12:42:22.000Z</time>
      </trkpt>
      <trkpt lat="49.60911" lon="3.44194">
        <ele>117.4</ele>
        <time>2025-10-05T12:42:23.000Z</time>
      </trkpt>
      <trkpt lat="49.6091" lon="3.44193">
        <ele>116.8</ele>
        <time>2025-10-05T12:42:24.000Z</time>
      </trkpt>
      <trkpt lat="49.60909" lon="3.44192">
        <ele>116.7</ele>
        <time>2025-10-05T12:42:25.000Z</time>
      </trkpt>
      <trkpt lat="49.60909" lon="3.44192">
        <ele>116.7</ele>
        <time>2025-10-05T12:42:26.000Z</time>
      </trkpt>
      <trkpt lat="49.60908" lon="3.44191">
        <ele>116.5</ele>
        <time>2025-10-05T12:42:27.000Z</time>
      </trkpt>
      <trkpt lat="49.60908" lon="3.44191">
        <ele>116.5</ele>
        <time>2025-10-05T12:42:28.000Z</time>
      </trkpt>
      <trkpt lat="49.60907" lon="3.4419">
        <ele>116.3</ele>
        <time>2025-10-05T12:42:29.000Z</time>
      </trkpt>
      <trkpt lat="49.60906" lon="3.4419">
        <ele>116.2</ele>
        <time>2025-10-05T12:42:30.000Z</time>
      </trkpt>
      <trkpt lat="49.60905" lon="3.44189">
        <ele>116</ele>
        <time>2025-10-05T12:42:31.000Z</time>
      </trkpt>
      <trkpt lat="49.60904" lon="3.44189">
        <ele>115.7</ele>
        <time>2025-10-05T12:42:32.000Z</time>
      </trkpt>
      <trkpt lat="49.60903" lon="3.44188">
        <ele>115.7</ele>
        <time>2025-10-05T12:42:33.000Z</time>
      </trkpt>
      <trkpt lat="49.60903" lon="3.44187">
        <ele>115.6</ele>
        <time>2025-10-05T12:42:34.000Z</time>
      </trkpt>
      <trkpt lat="49.60901" lon="3.44186">
        <ele>115.7</ele>
        <time>2025-10-05T12:42:35.000Z</time>
      </trkpt>
      <trkpt lat="49.609" lon="3.44185">
        <ele>115.5</ele>
        <time>2025-10-05T12:42:36.000Z</time>
      </trkpt>
      <trkpt lat="49.60899" lon="3.44184">
        <ele>115.4</ele>
        <time>2025-10-05T12:42:37.000Z</time>
      </trkpt>
      <trkpt lat="49.60899" lon="3.44184">
        <ele>115.3</ele>
        <time>2025-10-05T12:42:38.000Z</time>
      </trkpt>
      <trkpt lat="49.60898" lon="3.44183">
        <ele>115.1</ele>
        <time>2025-10-05T12:42:39.000Z</time>
      </trkpt>
      <trkpt lat="49.60898" lon="3.44183">
        <ele>115.2</ele>
        <time>2025-10-05T12:42:40.000Z</time>
      </trkpt>
      <trkpt lat="49.60897" lon="3.44183">
        <ele>115.2</ele>
        <time>2025-10-05T12:42:41.000Z</time>
      </trkpt>
      <trkpt lat="49.60896" lon="3.44182">
        <ele>115.2</ele>
        <time>2025-10-05T12:42:42.000Z</time>
      </trkpt>
      <trkpt lat="49.60895" lon="3.44182">
        <ele>114.9</ele>
        <time>2025-10-05T12:42:43.000Z</time>
      </trkpt>
      <trkpt lat="49.60894" lon="3.44181">
        <ele>114.5</ele>
        <time>2025-10-05T12:42:44.000Z</time>
      </trkpt>
      <trkpt lat="49.60893" lon="3.4418">
        <ele>114.2</ele>
        <time>2025-10-05T12:42:45.000Z</time>
      </trkpt>
      <trkpt lat="49.60892" lon="3.44179">
        <ele>113.9</ele>
        <time>2025-10-05T12:42:46.000Z</time>
      </trkpt>
      <trkpt lat="49.60891" lon="3.44179">
        <ele>113.8</ele>
        <time>2025-10-05T12:42:47.000Z</time>
      </trkpt>
      <trkpt lat="49.60889" lon="3.44178">
        <ele>113.8</ele>
        <time>2025-10-05T12:42:48.000Z</time>
      </trkpt>
      <trkpt lat="49.60888" lon="3.44176">
        <ele>113.6</ele>
        <time>2025-10-05T12:42:49.000Z</time>
      </trkpt>
      <trkpt lat="49.60887" lon="3.44175">
        <ele>113.2</ele>
        <time>2025-10-05T12:42:50.000Z</time>
      </trkpt>
      <trkpt lat="49.60886" lon="3.44174">
        <ele>112.9</ele>
        <time>2025-10-05T12:42:51.000Z</time>
      </trkpt>
      <trkpt lat="49.60886" lon="3.44174">
        <ele>112.9</ele>
        <time>2025-10-05T12:42:52.000Z</time>
      </trkpt>
      <trkpt lat="49.60885" lon="3.44174">
        <ele>113</ele>
        <time>2025-10-05T12:42:53.000Z</time>
      </trkpt>
      <trkpt lat="49.60885" lon="3.44173">
        <ele>113.1</ele>
        <time>2025-10-05T12:42:54.000Z</time>
      </trkpt>
      <trkpt lat="49.60884" lon="3.44173">
        <ele>113.1</ele>
        <time>2025-10-05T12:42:55.000Z</time>
      </trkpt>
      <trkpt lat="49.60883" lon="3.44172">
        <ele>113.3</ele>
        <time>2025-10-05T12:42:56.000Z</time>
      </trkpt>
      <trkpt lat="49.60881" lon="3.44171">
        <ele>113.5</ele>
        <time>2025-10-05T12:42:57.000Z</time>
      </trkpt>
      <trkpt lat="49.6088" lon="3.44171">
        <ele>113.4</ele>
        <time>2025-10-05T12:42:58.000Z</time>
      </trkpt>
      <trkpt lat="49.60879" lon="3.4417">
        <ele>113.2</ele>
        <time>2025-10-05T12:42:59.000Z</time>
      </trkpt>
      <trkpt lat="49.60878" lon="3.44169">
        <ele>112.9</ele>
        <time>2025-10-05T12:43:00.000Z</time>
      </trkpt>
      <trkpt lat="49.60877" lon="3.44168">
        <ele>112.6</ele>
        <time>2025-10-05T12:43:01.000Z</time>
      </trkpt>
      <trkpt lat="49.60876" lon="3.44167">
        <ele>112.5</ele>
        <time>2025-10-05T12:43:02.000Z</time>
      </trkpt>
      <trkpt lat="49.60875" lon="3.44166">
        <ele>112.5</ele>
        <time>2025-10-05T12:43:03.000Z</time>
      </trkpt>
      <trkpt lat="49.60874" lon="3.44165">
        <ele>112.8</ele>
        <time>2025-10-05T12:43:04.000Z</time>
      </trkpt>
      <trkpt lat="49.60873" lon="3.44166">
        <ele>113.1</ele>
        <time>2025-10-05T12:43:05.000Z</time>
      </trkpt>
      <trkpt lat="49.60873" lon="3.44166">
        <ele>113.2</ele>
        <time>2025-10-05T12:43:06.000Z</time>
      </trkpt>
      <trkpt lat="49.60872" lon="3.44165">
        <ele>113.4</ele>
        <time>2025-10-05T12:43:07.000Z</time>
      </trkpt>
      <trkpt lat="49.60871" lon="3.44165">
        <ele>113.4</ele>
        <time>2025-10-05T12:43:08.000Z</time>
      </trkpt>
      <trkpt lat="49.6087" lon="3.44164">
        <ele>113.6</ele>
        <time>2025-10-05T12:43:09.000Z</time>
      </trkpt>
      <trkpt lat="49.60869" lon="3.44163">
        <ele>114</ele>
        <time>2025-10-05T12:43:10.000Z</time>
      </trkpt>
      <trkpt lat="49.60868" lon="3.44163">
        <ele>114.1</ele>
        <time>2025-10-05T12:43:11.000Z</time>
      </trkpt>
      <trkpt lat="49.60866" lon="3.44161">
        <ele>114</ele>
        <time>2025-10-05T12:43:12.000Z</time>
      </trkpt>
      <trkpt lat="49.60865" lon="3.4416">
        <ele>113.9</ele>
        <time>2025-10-05T12:43:13.000Z</time>
      </trkpt>
      <trkpt lat="49.60863" lon="3.44159">
        <ele>113.7</ele>
        <time>2025-10-05T12:43:14.000Z</time>
      </trkpt>
      <trkpt lat="49.60862" lon="3.44158">
        <ele>113.4</ele>
        <time>2025-10-05T12:43:15.000Z</time>
      </trkpt>
      <trkpt lat="49.6086" lon="3.44157">
        <ele>113.1</ele>
        <time>2025-10-05T12:43:16.000Z</time>
      </trkpt>
      <trkpt lat="49.60859" lon="3.44156">
        <ele>113.2</ele>
        <time>2025-10-05T12:43:17.000Z</time>
      </trkpt>
      <trkpt lat="49.60858" lon="3.44155">
        <ele>113.3</ele>
        <time>2025-10-05T12:43:18.000Z</time>
      </trkpt>
      <trkpt lat="49.60858" lon="3.44155">
        <ele>113.3</ele>
        <time>2025-10-05T12:43:19.000Z</time>
      </trkpt>
      <trkpt lat="49.60858" lon="3.44155">
        <ele>113.4</ele>
        <time>2025-10-05T12:43:20.000Z</time>
      </trkpt>
      <trkpt lat="49.60858" lon="3.44156">
        <ele>113.6</ele>
        <time>2025-10-05T12:43:21.000Z</time>
      </trkpt>
      <trkpt lat="49.60857" lon="3.44156">
        <ele>114</ele>
        <time>2025-10-05T12:43:22.000Z</time>
      </trkpt>
      <trkpt lat="49.60856" lon="3.44155">
        <ele>114.3</ele>
        <time>2025-10-05T12:43:23.000Z</time>
      </trkpt>
      <trkpt lat="49.60855" lon="3.44155">
        <ele>114.3</ele>
        <time>2025-10-05T12:43:24.000Z</time>
      </trkpt>
      <trkpt lat="49.60854" lon="3.44154">
        <ele>114.6</ele>
        <time>2025-10-05T12:43:25.000Z</time>
      </trkpt>
      <trkpt lat="49.60853" lon="3.44154">
        <ele>114.8</ele>
        <time>2025-10-05T12:43:26.000Z</time>
      </trkpt>
      <trkpt lat="49.60852" lon="3.44153">
        <ele>114.9</ele>
        <time>2025-10-05T12:43:27.000Z</time>
      </trkpt>
      <trkpt lat="49.6085" lon="3.44152">
        <ele>115</ele>
        <time>2025-10-05T12:43:28.000Z</time>
      </trkpt>
      <trkpt lat="49.60849" lon="3.44151">
        <ele>115.3</ele>
        <time>2025-10-05T12:43:29.000Z</time>
      </trkpt>
      <trkpt lat="49.60847" lon="3.4415">
        <ele>115.5</ele>
        <time>2025-10-05T12:43:30.000Z</time>
      </trkpt>
      <trkpt lat="49.60846" lon="3.44149">
        <ele>115.7</ele>
        <time>2025-10-05T12:43:31.000Z</time>
      </trkpt>
      <trkpt lat="49.60844" lon="3.44148">
        <ele>115.7</ele>
        <time>2025-10-05T12:43:32.000Z</time>
      </trkpt>
      <trkpt lat="49.60843" lon="3.44147">
        <ele>115.8</ele>
        <time>2025-10-05T12:43:33.000Z</time>
      </trkpt>
      <trkpt lat="49.60842" lon="3.44146">
        <ele>115.8</ele>
        <time>2025-10-05T12:43:34.000Z</time>
      </trkpt>
      <trkpt lat="49.6084" lon="3.44145">
        <ele>115.6</ele>
        <time>2025-10-05T12:43:35.000Z</time>
      </trkpt>
      <trkpt lat="49.60839" lon="3.44144">
        <ele>115.3</ele>
        <time>2025-10-05T12:43:36.000Z</time>
      </trkpt>
      <trkpt lat="49.60838" lon="3.44143">
        <ele>115</ele>
        <time>2025-10-05T12:43:37.000Z</time>
      </trkpt>
      <trkpt lat="49.60837" lon="3.44143">
        <ele>114.8</ele>
        <time>2025-10-05T12:43:38.000Z</time>
      </trkpt>
      <trkpt lat="49.60836" lon="3.44142">
        <ele>114.5</ele>
        <time>2025-10-05T12:43:39.000Z</time>
      </trkpt>
      <trkpt lat="49.60836" lon="3.44141">
        <ele>114.3</ele>
        <time>2025-10-05T12:43:40.000Z</time>
      </trkpt>
      <trkpt lat="49.60835" lon="3.44141">
        <ele>114.2</ele>
        <time>2025-10-05T12:43:41.000Z</time>
      </trkpt>
      <trkpt lat="49.60835" lon="3.44141">
        <ele>114</ele>
        <time>2025-10-05T12:43:42.000Z</time>
      </trkpt>
      <trkpt lat="49.60834" lon="3.44141">
        <ele>113.8</ele>
        <time>2025-10-05T12:43:43.000Z</time>
      </trkpt>
      <trkpt lat="49.60833" lon="3.4414">
        <ele>113.8</ele>
        <time>2025-10-05T12:43:44.000Z</time>
      </trkpt>
      <trkpt lat="49.60832" lon="3.44139">
        <ele>113.8</ele>
        <time>2025-10-05T12:43:45.000Z</time>
      </trkpt>
      <trkpt lat="49.6083" lon="3.44138">
        <ele>114</ele>
        <time>2025-10-05T12:43:46.000Z</time>
      </trkpt>
      <trkpt lat="49.60829" lon="3.44138">
        <ele>114.1</ele>
        <time>2025-10-05T12:43:47.000Z</time>
      </trkpt>
      <trkpt lat="49.60828" lon="3.44137">
        <ele>114</ele>
        <time>2025-10-05T12:43:48.000Z</time>
      </trkpt>
      <trkpt lat="49.60827" lon="3.44136">
        <ele>113.9</ele>
        <time>2025-10-05T12:43:49.000Z</time>
      </trkpt>
      <trkpt lat="49.60826" lon="3.44134">
        <ele>113.8</ele>
        <time>2025-10-05T12:43:50.000Z</time>
      </trkpt>
      <trkpt lat="49.60825" lon="3.44133">
        <ele>113.8</ele>
        <time>2025-10-05T12:43:51.000Z</time>
      </trkpt>
      <trkpt lat="49.60824" lon="3.44133">
        <ele>113.6</ele>
        <time>2025-10-05T12:43:52.000Z</time>
      </trkpt>
      <trkpt lat="49.60822" lon="3.44132">
        <ele>113.6</ele>
        <time>2025-10-05T12:43:53.000Z</time>
      </trkpt>
      <trkpt lat="49.60821" lon="3.44132">
        <ele>113.5</ele>
        <time>2025-10-05T12:43:54.000Z</time>
      </trkpt>
      <trkpt lat="49.6082" lon="3.44131">
        <ele>113.5</ele>
        <time>2025-10-05T12:43:55.000Z</time>
      </trkpt>
      <trkpt lat="49.60819" lon="3.4413">
        <ele>113.5</ele>
        <time>2025-10-05T12:43:56.000Z</time>
      </trkpt>
      <trkpt lat="49.60819" lon="3.4413">
        <ele>113.5</ele>
        <time>2025-10-05T12:43:57.000Z</time>
      </trkpt>
      <trkpt lat="49.60818" lon="3.44129">
        <ele>113.5</ele>
        <time>2025-10-05T12:43:58.000Z</time>
      </trkpt>
      <trkpt lat="49.60817" lon="3.44129">
        <ele>113.4</ele>
        <time>2025-10-05T12:43:59.000Z</time>
      </trkpt>
      <trkpt lat="49.60817" lon="3.44129">
        <ele>113.4</ele>
        <time>2025-10-05T12:44:00.000Z</time>
      </trkpt>
      <trkpt lat="49.60816" lon="3.44128">
        <ele>113.5</ele>
        <time>2025-10-05T12:44:01.000Z</time>
      </trkpt>
      <trkpt lat="49.60815" lon="3.44128">
        <ele>113.4</ele>
        <time>2025-10-05T12:44:02.000Z</time>
      </trkpt>
      <trkpt lat="49.60814" lon="3.44128">
        <ele>113.3</ele>
        <time>2025-10-05T12:44:03.000Z</time>
      </trkpt>
      <trkpt lat="49.60813" lon="3.44128">
        <ele>113.2</ele>
        <time>2025-10-05T12:44:04.000Z</time>
      </trkpt>
      <trkpt lat="49.60812" lon="3.44128">
        <ele>113.1</ele>
        <time>2025-10-05T12:44:05.000Z</time>
      </trkpt>
      <trkpt lat="49.60811" lon="3.44127">
        <ele>113.1</ele>
        <time>2025-10-05T12:44:06.000Z</time>
      </trkpt>
      <trkpt lat="49.60809" lon="3.44127">
        <ele>113.1</ele>
        <time>2025-10-05T12:44:07.000Z</time>
      </trkpt>
      <trkpt lat="49.60808" lon="3.44126">
        <ele>113.2</ele>
        <time>2025-10-05T12:44:08.000Z</time>
      </trkpt>
      <trkpt lat="49.60806" lon="3.44126">
        <ele>113.2</ele>
        <time>2025-10-05T12:44:09.000Z</time>
      </trkpt>
      <trkpt lat="49.60805" lon="3.44124">
        <ele>113.2</ele>
        <time>2025-10-05T12:44:10.000Z</time>
      </trkpt>
      <trkpt lat="49.60803" lon="3.44123">
        <ele>113.4</ele>
        <time>2025-10-05T12:44:11.000Z</time>
      </trkpt>
      <trkpt lat="49.60802" lon="3.44123">
        <ele>113.6</ele>
        <time>2025-10-05T12:44:12.000Z</time>
      </trkpt>
      <trkpt lat="49.608" lon="3.44123">
        <ele>113.6</ele>
        <time>2025-10-05T12:44:13.000Z</time>
      </trkpt>
      <trkpt lat="49.60799" lon="3.44122">
        <ele>113.7</ele>
        <time>2025-10-05T12:44:14.000Z</time>
      </trkpt>
      <trkpt lat="49.60798" lon="3.44121">
        <ele>113.8</ele>
        <time>2025-10-05T12:44:15.000Z</time>
      </trkpt>
      <trkpt lat="49.60797" lon="3.44121">
        <ele>113.9</ele>
        <time>2025-10-05T12:44:16.000Z</time>
      </trkpt>
      <trkpt lat="49.60795" lon="3.4412">
        <ele>114.2</ele>
        <time>2025-10-05T12:44:17.000Z</time>
      </trkpt>
      <trkpt lat="49.60794" lon="3.44119">
        <ele>114.5</ele>
        <time>2025-10-05T12:44:18.000Z</time>
      </trkpt>
      <trkpt lat="49.60793" lon="3.44118">
        <ele>114.5</ele>
        <time>2025-10-05T12:44:19.000Z</time>
      </trkpt>
      <trkpt lat="49.60791" lon="3.44117">
        <ele>114.8</ele>
        <time>2025-10-05T12:44:20.000Z</time>
      </trkpt>
      <trkpt lat="49.6079" lon="3.44116">
        <ele>115</ele>
        <time>2025-10-05T12:44:21.000Z</time>
      </trkpt>
      <trkpt lat="49.60788" lon="3.44115">
        <ele>115.1</ele>
        <time>2025-10-05T12:44:22.000Z</time>
      </trkpt>
      <trkpt lat="49.60787" lon="3.44115">
        <ele>115.1</ele>
        <time>2025-10-05T12:44:23.000Z</time>
      </trkpt>
      <trkpt lat="49.60786" lon="3.44114">
        <ele>114.9</ele>
        <time>2025-10-05T12:44:24.000Z</time>
      </trkpt>
      <trkpt lat="49.60785" lon="3.44113">
        <ele>114.8</ele>
        <time>2025-10-05T12:44:25.000Z</time>
      </trkpt>
      <trkpt lat="49.60784" lon="3.44112">
        <ele>114.9</ele>
        <time>2025-10-05T12:44:26.000Z</time>
      </trkpt>
      <trkpt lat="49.60784" lon="3.44112">
        <ele>115</ele>
        <time>2025-10-05T12:44:27.000Z</time>
      </trkpt>
      <trkpt lat="49.60783" lon="3.44111">
        <ele>115.1</ele>
        <time>2025-10-05T12:44:28.000Z</time>
      </trkpt>
      <trkpt lat="49.60782" lon="3.44111">
        <ele>115.6</ele>
        <time>2025-10-05T12:44:29.000Z</time>
      </trkpt>
      <trkpt lat="49.60781" lon="3.44111">
        <ele>115.9</ele>
        <time>2025-10-05T12:44:30.000Z</time>
      </trkpt>
      <trkpt lat="49.6078" lon="3.44111">
        <ele>116.1</ele>
        <time>2025-10-05T12:44:31.000Z</time>
      </trkpt>
      <trkpt lat="49.60779" lon="3.44111">
        <ele>116.1</ele>
        <time>2025-10-05T12:44:32.000Z</time>
      </trkpt>
      <trkpt lat="49.60779" lon="3.4411">
        <ele>116</ele>
        <time>2025-10-05T12:44:33.000Z</time>
      </trkpt>
      <trkpt lat="49.60778" lon="3.4411">
        <ele>116.1</ele>
        <time>2025-10-05T12:44:34.000Z</time>
      </trkpt>
      <trkpt lat="49.60776" lon="3.44109">
        <ele>116.4</ele>
        <time>2025-10-05T12:44:35.000Z</time>
      </trkpt>
      <trkpt lat="49.60775" lon="3.44109">
        <ele>116.4</ele>
        <time>2025-10-05T12:44:36.000Z</time>
      </trkpt>
      <trkpt lat="49.60773" lon="3.44108">
        <ele>116.8</ele>
        <time>2025-10-05T12:44:37.000Z</time>
      </trkpt>
      <trkpt lat="49.60772" lon="3.44106">
        <ele>116.8</ele>
        <time>2025-10-05T12:44:38.000Z</time>
      </trkpt>
      <trkpt lat="49.6077" lon="3.44105">
        <ele>116.8</ele>
        <time>2025-10-05T12:44:39.000Z</time>
      </trkpt>
      <trkpt lat="49.60769" lon="3.44104">
        <ele>116.6</ele>
        <time>2025-10-05T12:44:40.000Z</time>
      </trkpt>
      <trkpt lat="49.60768" lon="3.44104">
        <ele>116.9</ele>
        <time>2025-10-05T12:44:41.000Z</time>
      </trkpt>
      <trkpt lat="49.60767" lon="3.44103">
        <ele>117</ele>
        <time>2025-10-05T12:44:42.000Z</time>
      </trkpt>
      <trkpt lat="49.60766" lon="3.44102">
        <ele>117.1</ele>
        <time>2025-10-05T12:44:43.000Z</time>
      </trkpt>
      <trkpt lat="49.60764" lon="3.44102">
        <ele>117.1</ele>
        <time>2025-10-05T12:44:44.000Z</time>
      </trkpt>
      <trkpt lat="49.60762" lon="3.44101">
        <ele>116.8</ele>
        <time>2025-10-05T12:44:45.000Z</time>
      </trkpt>
      <trkpt lat="49.6076" lon="3.44101">
        <ele>116.5</ele>
        <time>2025-10-05T12:44:46.000Z</time>
      </trkpt>
      <trkpt lat="49.60759" lon="3.441">
        <ele>116.4</ele>
        <time>2025-10-05T12:44:47.000Z</time>
      </trkpt>
      <trkpt lat="49.60758" lon="3.44099">
        <ele>116</ele>
        <time>2025-10-05T12:44:48.000Z</time>
      </trkpt>
      <trkpt lat="49.60757" lon="3.44099">
        <ele>115.8</ele>
        <time>2025-10-05T12:44:49.000Z</time>
      </trkpt>
      <trkpt lat="49.60757" lon="3.44098">
        <ele>115.8</ele>
        <time>2025-10-05T12:44:50.000Z</time>
      </trkpt>
      <trkpt lat="49.60757" lon="3.44098">
        <ele>116</ele>
        <time>2025-10-05T12:44:51.000Z</time>
      </trkpt>
      <trkpt lat="49.60756" lon="3.44098">
        <ele>116.3</ele>
        <time>2025-10-05T12:44:52.000Z</time>
      </trkpt>
      <trkpt lat="49.60755" lon="3.44098">
        <ele>116.7</ele>
        <time>2025-10-05T12:44:53.000Z</time>
      </trkpt>
      <trkpt lat="49.60754" lon="3.44098">
        <ele>116.9</ele>
        <time>2025-10-05T12:44:54.000Z</time>
      </trkpt>
      <trkpt lat="49.60753" lon="3.44097">
        <ele>116.9</ele>
        <time>2025-10-05T12:44:55.000Z</time>
      </trkpt>
      <trkpt lat="49.60752" lon="3.44097">
        <ele>116.9</ele>
        <time>2025-10-05T12:44:56.000Z</time>
      </trkpt>
      <trkpt lat="49.60751" lon="3.44097">
        <ele>116.9</ele>
        <time>2025-10-05T12:44:57.000Z</time>
      </trkpt>
      <trkpt lat="49.60749" lon="3.44096">
        <ele>117</ele>
        <time>2025-10-05T12:44:58.000Z</time>
      </trkpt>
      <trkpt lat="49.60748" lon="3.44096">
        <ele>117.2</ele>
        <time>2025-10-05T12:44:59.000Z</time>
      </trkpt>
      <trkpt lat="49.60747" lon="3.44096">
        <ele>117.7</ele>
        <time>2025-10-05T12:45:00.000Z</time>
      </trkpt>
      <trkpt lat="49.60746" lon="3.44095">
        <ele>118.2</ele>
        <time>2025-10-05T12:45:01.000Z</time>
      </trkpt>
      <trkpt lat="49.60744" lon="3.44095">
        <ele>118.7</ele>
        <time>2025-10-05T12:45:02.000Z</time>
      </trkpt>
      <trkpt lat="49.60743" lon="3.44094">
        <ele>119</ele>
        <time>2025-10-05T12:45:03.000Z</time>
      </trkpt>
      <trkpt lat="49.60741" lon="3.44093">
        <ele>119.2</ele>
        <time>2025-10-05T12:45:04.000Z</time>
      </trkpt>
      <trkpt lat="49.6074" lon="3.44092">
        <ele>119.4</ele>
        <time>2025-10-05T12:45:05.000Z</time>
      </trkpt>
      <trkpt lat="49.60739" lon="3.44091">
        <ele>119.5</ele>
        <time>2025-10-05T12:45:06.000Z</time>
      </trkpt>
      <trkpt lat="49.60739" lon="3.44091">
        <ele>119.5</ele>
        <time>2025-10-05T12:45:07.000Z</time>
      </trkpt>
      <trkpt lat="49.60738" lon="3.4409">
        <ele>119.6</ele>
        <time>2025-10-05T12:45:08.000Z</time>
      </trkpt>
      <trkpt lat="49.60737" lon="3.4409">
        <ele>119.6</ele>
        <time>2025-10-05T12:45:09.000Z</time>
      </trkpt>
      <trkpt lat="49.60737" lon="3.4409">
        <ele>119.8</ele>
        <time>2025-10-05T12:45:10.000Z</time>
      </trkpt>
      <trkpt lat="49.60736" lon="3.44089">
        <ele>119.9</ele>
        <time>2025-10-05T12:45:11.000Z</time>
      </trkpt>
      <trkpt lat="49.60735" lon="3.44089">
        <ele>120.1</ele>
        <time>2025-10-05T12:45:12.000Z</time>
      </trkpt>
      <trkpt lat="49.60733" lon="3.44088">
        <ele>119.9</ele>
        <time>2025-10-05T12:45:13.000Z</time>
      </trkpt>
      <trkpt lat="49.60732" lon="3.44087">
        <ele>119.9</ele>
        <time>2025-10-05T12:45:14.000Z</time>
      </trkpt>
      <trkpt lat="49.60731" lon="3.44085">
        <ele>119.8</ele>
        <time>2025-10-05T12:45:15.000Z</time>
      </trkpt>
      <trkpt lat="49.6073" lon="3.44084">
        <ele>119.7</ele>
        <time>2025-10-05T12:45:16.000Z</time>
      </trkpt>
      <trkpt lat="49.60729" lon="3.44083">
        <ele>119.6</ele>
        <time>2025-10-05T12:45:17.000Z</time>
      </trkpt>
      <trkpt lat="49.60728" lon="3.44082">
        <ele>119.5</ele>
        <time>2025-10-05T12:45:18.000Z</time>
      </trkpt>
      <trkpt lat="49.60726" lon="3.44082">
        <ele>119.2</ele>
        <time>2025-10-05T12:45:19.000Z</time>
      </trkpt>
      <trkpt lat="49.60724" lon="3.44081">
        <ele>118.9</ele>
        <time>2025-10-05T12:45:20.000Z</time>
      </trkpt>
      <trkpt lat="49.60723" lon="3.44081">
        <ele>118.5</ele>
        <time>2025-10-05T12:45:21.000Z</time>
      </trkpt>
      <trkpt lat="49.60722" lon="3.4408">
        <ele>118.2</ele>
        <time>2025-10-05T12:45:22.000Z</time>
      </trkpt>
      <trkpt lat="49.60721" lon="3.44079">
        <ele>118.2</ele>
        <time>2025-10-05T12:45:23.000Z</time>
      </trkpt>
      <trkpt lat="49.6072" lon="3.44078">
        <ele>118</ele>
        <time>2025-10-05T12:45:24.000Z</time>
      </trkpt>
      <trkpt lat="49.6072" lon="3.44078">
        <ele>117.9</ele>
        <time>2025-10-05T12:45:25.000Z</time>
      </trkpt>
      <trkpt lat="49.60719" lon="3.44078">
        <ele>118</ele>
        <time>2025-10-05T12:45:26.000Z</time>
      </trkpt>
      <trkpt lat="49.60718" lon="3.44078">
        <ele>118.1</ele>
        <time>2025-10-05T12:45:27.000Z</time>
      </trkpt>
      <trkpt lat="49.60718" lon="3.44078">
        <ele>118.3</ele>
        <time>2025-10-05T12:45:28.000Z</time>
      </trkpt>
      <trkpt lat="49.60717" lon="3.44079">
        <ele>118.9</ele>
        <time>2025-10-05T12:45:29.000Z</time>
      </trkpt>
      <trkpt lat="49.60716" lon="3.44078">
        <ele>119.5</ele>
        <time>2025-10-05T12:45:30.000Z</time>
      </trkpt>
      <trkpt lat="49.60715" lon="3.44078">
        <ele>120.1</ele>
        <time>2025-10-05T12:45:31.000Z</time>
      </trkpt>
      <trkpt lat="49.60714" lon="3.44078">
        <ele>120.8</ele>
        <time>2025-10-05T12:45:32.000Z</time>
      </trkpt>
      <trkpt lat="49.60712" lon="3.44077">
        <ele>121.3</ele>
        <time>2025-10-05T12:45:33.000Z</time>
      </trkpt>
      <trkpt lat="49.60711" lon="3.44075">
        <ele>121.4</ele>
        <time>2025-10-05T12:45:34.000Z</time>
      </trkpt>
      <trkpt lat="49.6071" lon="3.44074">
        <ele>121.5</ele>
        <time>2025-10-05T12:45:35.000Z</time>
      </trkpt>
      <trkpt lat="49.60709" lon="3.44075">
        <ele>121.4</ele>
        <time>2025-10-05T12:45:36.000Z</time>
      </trkpt>
      <trkpt lat="49.60709" lon="3.44075">
        <ele>121.3</ele>
        <time>2025-10-05T12:45:37.000Z</time>
      </trkpt>
      <trkpt lat="49.60709" lon="3.44074">
        <ele>121.1</ele>
        <time>2025-10-05T12:45:38.000Z</time>
      </trkpt>
      <trkpt lat="49.60709" lon="3.44072">
        <ele>120.9</ele>
        <time>2025-10-05T12:45:39.000Z</time>
      </trkpt>
      <trkpt lat="49.60709" lon="3.4407">
        <ele>120.9</ele>
        <time>2025-10-05T12:45:40.000Z</time>
      </trkpt>
      <trkpt lat="49.60708" lon="3.44068">
        <ele>120.7</ele>
        <time>2025-10-05T12:45:41.000Z</time>
      </trkpt>
      <trkpt lat="49.60708" lon="3.44067">
        <ele>120.6</ele>
        <time>2025-10-05T12:45:42.000Z</time>
      </trkpt>
      <trkpt lat="49.60708" lon="3.44066">
        <ele>120.5</ele>
        <time>2025-10-05T12:45:43.000Z</time>
      </trkpt>
      <trkpt lat="49.60708" lon="3.44065">
        <ele>120.3</ele>
        <time>2025-10-05T12:45:44.000Z</time>
      </trkpt>
      <trkpt lat="49.60708" lon="3.44064">
        <ele>120.5</ele>
        <time>2025-10-05T12:45:45.000Z</time>
      </trkpt>
      <trkpt lat="49.60707" lon="3.44062">
        <ele>120.6</ele>
        <time>2025-10-05T12:45:46.000Z</time>
      </trkpt>
      <trkpt lat="49.60707" lon="3.44062">
        <ele>120.8</ele>
        <time>2025-10-05T12:45:47.000Z</time>
      </trkpt>
      <trkpt lat="49.60707" lon="3.44062">
        <ele>120.8</ele>
        <time>2025-10-05T12:45:48.000Z</time>
      </trkpt>
      <trkpt lat="49.60708" lon="3.44062">
        <ele>120.7</ele>
        <time>2025-10-05T12:45:49.000Z</time>
      </trkpt>
      <trkpt lat="49.60708" lon="3.44062">
        <ele>120.6</ele>
        <time>2025-10-05T12:45:50.000Z</time>
      </trkpt>
      <trkpt lat="49.60707" lon="3.44061">
        <ele>120.2</ele>
        <time>2025-10-05T12:45:51.000Z</time>
      </trkpt>
      <trkpt lat="49.60707" lon="3.44061">
        <ele>120.2</ele>
        <time>2025-10-05T12:45:52.000Z</time>
      </trkpt>
      <trkpt lat="49.60707" lon="3.4406">
        <ele>120.1</ele>
        <time>2025-10-05T12:45:53.000Z</time>
      </trkpt>
      <trkpt lat="49.60707" lon="3.4406">
        <ele>120.1</ele>
        <time>2025-10-05T12:45:54.000Z</time>
      </trkpt>
      <trkpt lat="49.60707" lon="3.4406">
        <ele>120.1</ele>
        <time>2025-10-05T12:45:55.000Z</time>
      </trkpt>
      <trkpt lat="49.60707" lon="3.4406">
        <ele>120.1</ele>
        <time>2025-10-05T12:45:56.000Z</time>
      </trkpt>
      <trkpt lat="49.60707" lon="3.4406">
        <ele>120.1</ele>
        <time>2025-10-05T12:45:57.000Z</time>
      </trkpt>
      <trkpt lat="49.60707" lon="3.4406">
        <ele>120.1</ele>
        <time>2025-10-05T12:45:58.000Z</time>
      </trkpt>
      <trkpt lat="49.60707" lon="3.4406">
        <ele>120.1</ele>
        <time>2025-10-05T12:45:59.000Z</time>
      </trkpt>
      <trkpt lat="49.60707" lon="3.4406">
        <ele>120.1</ele>
        <time>2025-10-05T12:46:00.000Z</time>
      </trkpt>
      <trkpt lat="49.60707" lon="3.4406">
        <ele>120.1</ele>
        <time>2025-10-05T12:46:01.000Z</time>
      </trkpt>
      <trkpt lat="49.60707" lon="3.4406">
        <ele>120.1</ele>
        <time>2025-10-05T12:46:02.000Z</time>
      </trkpt>
      <trkpt lat="49.60707" lon="3.4406">
        <ele>120.1</ele>
        <time>2025-10-05T12:46:03.000Z</time>
      </trkpt>
      <trkpt lat="49.60707" lon="3.4406">
        <ele>120.1</ele>
        <time>2025-10-05T12:46:04.000Z</time>
      </trkpt>
      <trkpt lat="49.60707" lon="3.4406">
        <ele>120.1</ele>
        <time>2025-10-05T12:46:05.000Z</time>
      </trkpt>
      <trkpt lat="49.60707" lon="3.4406">
        <ele>120.1</ele>
        <time>2025-10-05T12:46:06.000Z</time>
      </trkpt>
      <trkpt lat="49.60707" lon="3.4406">
        <ele>120.1</ele>
        <time>2025-10-05T12:46:07.000Z</time>
      </trkpt>
      <trkpt lat="49.60707" lon="3.4406">
        <ele>120.1</ele>
        <time>2025-10-05T12:46:08.000Z</time>
      </trkpt>
      <trkpt lat="49.60707" lon="3.4406">
        <ele>120.1</ele>
        <time>2025-10-05T12:46:09.000Z</time>
      </trkpt>
      <trkpt lat="49.60707" lon="3.4406">
        <ele>120.1</ele>
        <time>2025-10-05T12:46:10.000Z</time>
      </trkpt>
      <trkpt lat="49.60707" lon="3.4406">
        <ele>120.1</ele>
        <time>2025-10-05T12:46:11.000Z</time>
      </trkpt>
      <trkpt lat="49.60707" lon="3.4406">
        <ele>120.1</ele>
        <time>2025-10-05T12:46:12.000Z</time>
      </trkpt>
      <trkpt lat="49.60707" lon="3.4406">
        <ele>120.1</ele>
        <time>2025-10-05T12:46:13.000Z</time>
      </trkpt>
      <trkpt lat="49.60707" lon="3.4406">
        <ele>120.1</ele>
        <time>2025-10-05T12:46:14.000Z</time>
      </trkpt>
      <trkpt lat="49.60707" lon="3.4406">
        <ele>120.1</ele>
        <time>2025-10-05T12:46:15.000Z</time>
      </trkpt>
      <trkpt lat="49.60707" lon="3.4406">
        <ele>120.1</ele>
        <time>2025-10-05T12:46:16.000Z</time>
      </trkpt>
      <trkpt lat="49.60707" lon="3.4406">
        <ele>120.1</ele>
        <time>2025-10-05T12:46:17.000Z</time>
      </trkpt>
      <trkpt lat="49.60707" lon="3.4406">
        <ele>120.1</ele>
        <time>2025-10-05T12:46:18.000Z</time>
      </trkpt>
      <trkpt lat="49.60707" lon="3.4406">
        <ele>120.1</ele>
        <time>2025-10-05T12:46:19.000Z</time>
      </trkpt>
      <trkpt lat="49.60707" lon="3.4406">
        <ele>120.1</ele>
        <time>2025-10-05T12:46:20.000Z</time>
      </trkpt>
      <trkpt lat="49.60707" lon="3.4406">
        <ele>120.1</ele>
        <time>2025-10-05T12:46:21.000Z</time>
      </trkpt>
      <trkpt lat="49.60707" lon="3.4406">
        <ele>120.1</ele>
        <time>2025-10-05T12:46:22.000Z</time>
      </trkpt>
      <trkpt lat="49.60707" lon="3.4406">
        <ele>120.1</ele>
        <time>2025-10-05T12:46:23.000Z</time>
      </trkpt>
      <trkpt lat="49.60707" lon="3.4406">
        <ele>120.1</ele>
        <time>2025-10-05T12:46:24.000Z</time>
      </trkpt>
      <trkpt lat="49.60707" lon="3.4406">
        <ele>120.1</ele>
        <time>2025-10-05T12:46:25.000Z</time>
      </trkpt>
      <trkpt lat="49.60707" lon="3.4406">
        <ele>120.1</ele>
        <time>2025-10-05T12:46:26.000Z</time>
      </trkpt>
      <trkpt lat="49.60707" lon="3.4406">
        <ele>120.1</ele>
        <time>2025-10-05T12:46:27.000Z</time>
      </trkpt>
      <trkpt lat="49.60707" lon="3.4406">
        <ele>120.1</ele>
        <time>2025-10-05T12:46:28.000Z</time>
      </trkpt>
      <trkpt lat="49.60707" lon="3.4406">
        <ele>120.1</ele>
        <time>2025-10-05T12:46:29.000Z</time>
      </trkpt>
      <trkpt lat="49.60707" lon="3.4406">
        <ele>120.1</ele>
        <time>2025-10-05T12:46:30.000Z</time>
      </trkpt>
      <trkpt lat="49.60707" lon="3.4406">
        <ele>120.1</ele>
        <time>2025-10-05T12:46:31.000Z</time>
      </trkpt>
      <trkpt lat="49.60707" lon="3.4406">
        <ele>120.1</ele>
        <time>2025-10-05T12:46:32.000Z</time>
      </trkpt>
      <trkpt lat="49.60707" lon="3.4406">
        <ele>120.1</ele>
        <time>2025-10-05T12:46:33.000Z</time>
      </trkpt>
      <trkpt lat="49.60707" lon="3.4406">
        <ele>120.1</ele>
        <time>2025-10-05T12:46:34.000Z</time>
      </trkpt>
      <trkpt lat="49.60707" lon="3.4406">
        <ele>120.1</ele>
        <time>2025-10-05T12:46:35.000Z</time>
      </trkpt>
      <trkpt lat="49.60707" lon="3.4406">
        <ele>120.1</ele>
        <time>2025-10-05T12:46:36.000Z</time>
      </trkpt>
      <trkpt lat="49.60707" lon="3.4406">
        <ele>120.1</ele>
        <time>2025-10-05T12:46:37.000Z</time>
      </trkpt>
      <trkpt lat="49.60707" lon="3.4406">
        <ele>120.1</ele>
        <time>2025-10-05T12:46:38.000Z</time>
      </trkpt>
      <trkpt lat="49.60707" lon="3.4406">
        <ele>120.1</ele>
        <time>2025-10-05T12:46:39.000Z</time>
      </trkpt>
      <trkpt lat="49.60707" lon="3.4406">
        <ele>120.1</ele>
        <time>2025-10-05T12:46:40.000Z</time>
      </trkpt>
      <trkpt lat="49.60707" lon="3.4406">
        <ele>120.1</ele>
        <time>2025-10-05T12:46:41.000Z</time>
      </trkpt>
      <trkpt lat="49.60707" lon="3.4406">
        <ele>120.1</ele>
        <time>2025-10-05T12:46:42.000Z</time>
      </trkpt>
      <trkpt lat="49.60707" lon="3.4406">
        <ele>120.1</ele>
        <time>2025-10-05T12:46:43.000Z</time>
      </trkpt>
      <trkpt lat="49.60707" lon="3.4406">
        <ele>120.1</ele>
        <time>2025-10-05T12:46:44.000Z</time>
      </trkpt>
      <trkpt lat="49.60707" lon="3.4406">
        <ele>120.1</ele>
        <time>2025-10-05T12:46:45.000Z</time>
      </trkpt>
      <trkpt lat="49.60707" lon="3.4406">
        <ele>120.1</ele>
        <time>2025-10-05T12:46:46.000Z</time>
      </trkpt>
      <trkpt lat="49.60707" lon="3.4406">
        <ele>120.1</ele>
        <time>2025-10-05T12:46:47.000Z</time>
      </trkpt>
      <trkpt lat="49.60707" lon="3.4406">
        <ele>120.1</ele>
        <time>2025-10-05T12:46:48.000Z</time>
      </trkpt>
      <trkpt lat="49.60707" lon="3.4406">
        <ele>120.1</ele>
        <time>2025-10-05T12:46:49.000Z</time>
      </trkpt>
      <trkpt lat="49.60707" lon="3.4406">
        <ele>120.1</ele>
        <time>2025-10-05T12:46:50.000Z</time>
      </trkpt>
      <trkpt lat="49.60707" lon="3.4406">
        <ele>120.1</ele>
        <time>2025-10-05T12:46:51.000Z</time>
      </trkpt>
      <trkpt lat="49.60707" lon="3.4406">
        <ele>120.1</ele>
        <time>2025-10-05T12:46:52.000Z</time>
      </trkpt>
      <trkpt lat="49.60707" lon="3.4406">
        <ele>120.1</ele>
        <time>2025-10-05T12:46:53.000Z</time>
      </trkpt>
      <trkpt lat="49.60707" lon="3.4406">
        <ele>120.1</ele>
        <time>2025-10-05T12:46:54.000Z</time>
      </trkpt>
      <trkpt lat="49.60707" lon="3.4406">
        <ele>120.1</ele>
        <time>2025-10-05T12:46:55.000Z</time>
      </trkpt>
      <trkpt lat="49.60707" lon="3.4406">
        <ele>120.1</ele>
        <time>2025-10-05T12:46:56.000Z</time>
      </trkpt>
      <trkpt lat="49.60707" lon="3.4406">
        <ele>120.1</ele>
        <time>2025-10-05T12:46:57.000Z</time>
      </trkpt>
      <trkpt lat="49.60707" lon="3.4406">
        <ele>120.1</ele>
        <time>2025-10-05T12:46:58.000Z</time>
      </trkpt>
      <trkpt lat="49.60707" lon="3.4406">
        <ele>120.1</ele>
        <time>2025-10-05T12:46:59.000Z</time>
      </trkpt>
      <trkpt lat="49.60707" lon="3.4406">
        <ele>120.1</ele>
        <time>2025-10-05T12:47:00.000Z</time>
      </trkpt>
      <trkpt lat="49.60707" lon="3.4406">
        <ele>123.4</ele>
        <time>2025-10-05T12:47:01.000Z</time>
      </trkpt>
      <trkpt lat="49.60707" lon="3.4406">
        <ele>123.4</ele>
        <time>2025-10-05T12:47:02.000Z</time>
      </trkpt>
      <trkpt lat="49.60707" lon="3.4406">
        <ele>123.4</ele>
        <time>2025-10-05T12:47:03.000Z</time>
      </trkpt>
      <trkpt lat="49.60707" lon="3.4406">
        <ele>123.4</ele>
        <time>2025-10-05T12:47:04.000Z</time>
      </trkpt>
      <trkpt lat="49.60707" lon="3.4406">
        <ele>123.4</ele>
        <time>2025-10-05T12:47:05.000Z</time>
      </trkpt>
      <trkpt lat="49.60707" lon="3.4406">
        <ele>123.4</ele>
        <time>2025-10-05T12:47:06.000Z</time>
      </trkpt>
      <trkpt lat="49.60707" lon="3.4406">
        <ele>123.4</ele>
        <time>2025-10-05T12:47:07.000Z</time>
      </trkpt>
      <trkpt lat="49.60707" lon="3.4406">
        <ele>123.4</ele>
        <time>2025-10-05T12:47:08.000Z</time>
      </trkpt>
      <trkpt lat="49.60707" lon="3.4406">
        <ele>123.4</ele>
        <time>2025-10-05T12:47:09.000Z</time>
      </trkpt>
      <trkpt lat="49.60707" lon="3.4406">
        <ele>123.4</ele>
        <time>2025-10-05T12:47:10.000Z</time>
      </trkpt>
      <trkpt lat="49.60707" lon="3.4406">
        <ele>123.4</ele>
        <time>2025-10-05T12:47:11.000Z</time>
      </trkpt>
      <trkpt lat="49.60707" lon="3.4406">
        <ele>123.4</ele>
        <time>2025-10-05T12:47:12.000Z</time>
      </trkpt>
      <trkpt lat="49.60707" lon="3.4406">
        <ele>123.4</ele>
        <time>2025-10-05T12:47:13.000Z</time>
      </trkpt>
      <trkpt lat="49.60707" lon="3.4406">
        <ele>123.4</ele>
        <time>2025-10-05T12:47:14.000Z</time>
      </trkpt>
      <trkpt lat="49.60707" lon="3.4406">
        <ele>123.4</ele>
        <time>2025-10-05T12:47:15.000Z</time>
      </trkpt>
      <trkpt lat="49.60707" lon="3.4406">
        <ele>123.4</ele>
        <time>2025-10-05T12:47:16.000Z</time>
      </trkpt>
      <trkpt lat="49.60707" lon="3.4406">
        <ele>123.4</ele>
        <time>2025-10-05T12:47:17.000Z</time>
      </trkpt>
      <trkpt lat="49.60707" lon="3.4406">
        <ele>123.4</ele>
        <time>2025-10-05T12:47:18.000Z</time>
      </trkpt>
      <trkpt lat="49.60707" lon="3.4406">
        <ele>123.4</ele>
        <time>2025-10-05T12:47:19.000Z</time>
      </trkpt>
      <trkpt lat="49.60707" lon="3.4406">
        <ele>123.4</ele>
        <time>2025-10-05T12:47:20.000Z</time>
      </trkpt>
      <trkpt lat="49.60707" lon="3.4406">
        <ele>123.4</ele>
        <time>2025-10-05T12:47:21.000Z</time>
      </trkpt>
      <trkpt lat="49.60707" lon="3.4406">
        <ele>123.4</ele>
        <time>2025-10-05T12:47:22.000Z</time>
      </trkpt>
      <trkpt lat="49.60707" lon="3.4406">
        <ele>123.4</ele>
        <time>2025-10-05T12:47:23.000Z</time>
      </trkpt>
      <trkpt lat="49.60707" lon="3.4406">
        <ele>123.4</ele>
        <time>2025-10-05T12:47:24.000Z</time>
      </trkpt>
      <trkpt lat="49.60707" lon="3.4406">
        <ele>123.4</ele>
        <time>2025-10-05T12:47:25.000Z</time>
      </trkpt>
      <trkpt lat="49.60707" lon="3.4406">
        <ele>123.4</ele>
        <time>2025-10-05T12:47:26.000Z</time>
      </trkpt>
      <trkpt lat="49.60707" lon="3.4406">
        <ele>123.4</ele>
        <time>2025-10-05T12:47:27.000Z</time>
      </trkpt>
      <trkpt lat="49.60707" lon="3.4406">
        <ele>123.4</ele>
        <time>2025-10-05T12:47:28.000Z</time>
      </trkpt>
      <trkpt lat="49.60707" lon="3.4406">
        <ele>123.4</ele>
        <time>2025-10-05T12:47:29.000Z</time>
      </trkpt>
      <trkpt lat="49.60707" lon="3.4406">
        <ele>123.4</ele>
        <time>2025-10-05T12:47:30.000Z</time>
      </trkpt>
      <trkpt lat="49.60707" lon="3.4406">
        <ele>123.4</ele>
        <time>2025-10-05T12:47:31.000Z</time>
      </trkpt>
      <trkpt lat="49.60707" lon="3.4406">
        <ele>123.4</ele>
        <time>2025-10-05T12:47:32.000Z</time>
      </trkpt>
      <trkpt lat="49.60707" lon="3.4406">
        <ele>123.4</ele>
        <time>2025-10-05T12:47:33.000Z</time>
      </trkpt>
      <trkpt lat="49.60707" lon="3.4406">
        <ele>123.4</ele>
        <time>2025-10-05T12:47:34.000Z</time>
      </trkpt>
      <trkpt lat="49.60707" lon="3.4406">
        <ele>123.4</ele>
        <time>2025-10-05T12:47:35.000Z</time>
      </trkpt>
      <trkpt lat="49.60707" lon="3.4406">
        <ele>123.4</ele>
        <time>2025-10-05T12:47:36.000Z</time>
      </trkpt>
      <trkpt lat="49.60707" lon="3.4406">
        <ele>123.4</ele>
        <time>2025-10-05T12:47:37.000Z</time>
      </trkpt>
      <trkpt lat="49.60707" lon="3.4406">
        <ele>123.4</ele>
        <time>2025-10-05T12:47:38.000Z</time>
      </trkpt>
      <trkpt lat="49.60707" lon="3.4406">
        <ele>123.4</ele>
        <time>2025-10-05T12:47:39.000Z</time>
      </trkpt>
      <trkpt lat="49.60707" lon="3.4406">
        <ele>123.4</ele>
        <time>2025-10-05T12:47:40.000Z</time>
      </trkpt>
      <trkpt lat="49.60707" lon="3.4406">
        <ele>123.4</ele>
        <time>2025-10-05T12:47:41.000Z</time>
      </trkpt>
      <trkpt lat="49.60707" lon="3.4406">
        <ele>123.4</ele>
        <time>2025-10-05T12:47:42.000Z</time>
      </trkpt>
      <trkpt lat="49.60707" lon="3.4406">
        <ele>123.4</ele>
        <time>2025-10-05T12:47:43.000Z</time>
      </trkpt>
      <trkpt lat="49.60707" lon="3.4406">
        <ele>123.4</ele>
        <time>2025-10-05T12:47:44.000Z</time>
      </trkpt>
      <trkpt lat="49.60707" lon="3.4406">
        <ele>123.4</ele>
        <time>2025-10-05T12:47:45.000Z</time>
      </trkpt>
      <trkpt lat="49.60707" lon="3.4406">
        <ele>123.4</ele>
        <time>2025-10-05T12:47:46.000Z</time>
      </trkpt>
      <trkpt lat="49.60707" lon="3.4406">
        <ele>123.4</ele>
        <time>2025-10-05T12:47:47.000Z</time>
      </trkpt>
      <trkpt lat="49.60707" lon="3.4406">
        <ele>123.4</ele>
        <time>2025-10-05T12:47:48.000Z</time>
      </trkpt>
      <trkpt lat="49.60707" lon="3.4406">
        <ele>123.4</ele>
        <time>2025-10-05T12:47:49.000Z</time>
      </trkpt>
      <trkpt lat="49.60707" lon="3.4406">
        <ele>123.4</ele>
        <time>2025-10-05T12:47:50.000Z</time>
      </trkpt>
      <trkpt lat="49.60707" lon="3.4406">
        <ele>123.4</ele>
        <time>2025-10-05T12:47:51.000Z</time>
      </trkpt>
      <trkpt lat="49.60707" lon="3.4406">
        <ele>123.4</ele>
        <time>2025-10-05T12:47:52.000Z</time>
      </trkpt>
      <trkpt lat="49.60707" lon="3.4406">
        <ele>123.4</ele>
        <time>2025-10-05T12:47:53.000Z</time>
      </trkpt>
      <trkpt lat="49.60707" lon="3.4406">
        <ele>123.4</ele>
        <time>2025-10-05T12:47:54.000Z</time>
      </trkpt>
      <trkpt lat="49.60707" lon="3.4406">
        <ele>123.4</ele>
        <time>2025-10-05T12:47:55.000Z</time>
      </trkpt>
      <trkpt lat="49.60707" lon="3.4406">
        <ele>123.4</ele>
        <time>2025-10-05T12:47:56.000Z</time>
      </trkpt>
      <trkpt lat="49.60707" lon="3.4406">
        <ele>123.4</ele>
        <time>2025-10-05T12:47:57.000Z</time>
      </trkpt>
      <trkpt lat="49.60707" lon="3.4406">
        <ele>123.4</ele>
        <time>2025-10-05T12:47:58.000Z</time>
      </trkpt>
      <trkpt lat="49.60707" lon="3.4406">
        <ele>123.4</ele>
        <time>2025-10-05T12:47:59.000Z</time>
      </trkpt>
      <trkpt lat="49.60707" lon="3.4406">
        <ele>123.4</ele>
        <time>2025-10-05T12:48:00.000Z</time>
      </trkpt>
      <trkpt lat="49.60707" lon="3.4406">
        <ele>123.4</ele>
        <time>2025-10-05T12:48:01.000Z</time>
      </trkpt>
      <trkpt lat="49.60707" lon="3.4406">
        <ele>123.4</ele>
        <time>2025-10-05T12:48:02.000Z</time>
      </trkpt>
      <trkpt lat="49.60707" lon="3.4406">
        <ele>123.4</ele>
        <time>2025-10-05T12:48:03.000Z</time>
      </trkpt>
      <trkpt lat="49.60707" lon="3.4406">
        <ele>123.4</ele>
        <time>2025-10-05T12:48:04.000Z</time>
      </trkpt>
      <trkpt lat="49.60707" lon="3.4406">
        <ele>123.4</ele>
        <time>2025-10-05T12:48:05.000Z</time>
      </trkpt>
      <trkpt lat="49.60707" lon="3.4406">
        <ele>123.4</ele>
        <time>2025-10-05T12:48:06.000Z</time>
      </trkpt>
      <trkpt lat="49.60707" lon="3.4406">
        <ele>123.4</ele>
        <time>2025-10-05T12:48:07.000Z</time>
      </trkpt>
      <trkpt lat="49.60707" lon="3.4406">
        <ele>123.4</ele>
        <time>2025-10-05T12:48:08.000Z</time>
      </trkpt>
      <trkpt lat="49.60707" lon="3.4406">
        <ele>123.4</ele>
        <time>2025-10-05T12:48:09.000Z</time>
      </trkpt>
      <trkpt lat="49.60707" lon="3.4406">
        <ele>123.4</ele>
        <time>2025-10-05T12:48:10.000Z</time>
      </trkpt>
      <trkpt lat="49.60707" lon="3.4406">
        <ele>123.4</ele>
        <time>2025-10-05T12:48:11.000Z</time>
      </trkpt>
      <trkpt lat="49.60707" lon="3.4406">
        <ele>123.4</ele>
        <time>2025-10-05T12:48:12.000Z</time>
      </trkpt>
      <trkpt lat="49.60707" lon="3.4406">
        <ele>123.4</ele>
        <time>2025-10-05T12:48:13.000Z</time>
      </trkpt>
      <trkpt lat="49.60707" lon="3.4406">
        <ele>123.4</ele>
        <time>2025-10-05T12:48:14.000Z</time>
      </trkpt>
      <trkpt lat="49.60707" lon="3.4406">
        <ele>123.4</ele>
        <time>2025-10-05T12:48:15.000Z</time>
      </trkpt>
      <trkpt lat="49.60707" lon="3.4406">
        <ele>123.4</ele>
        <time>2025-10-05T12:48:16.000Z</time>
      </trkpt>
      <trkpt lat="49.60707" lon="3.4406">
        <ele>123.4</ele>
        <time>2025-10-05T12:48:17.000Z</time>
      </trkpt>
      <trkpt lat="49.60707" lon="3.4406">
        <ele>123.4</ele>
        <time>2025-10-05T12:48:18.000Z</time>
      </trkpt>
      <trkpt lat="49.60707" lon="3.4406">
        <ele>123.4</ele>
        <time>2025-10-05T12:48:19.000Z</time>
      </trkpt>
      <trkpt lat="49.60707" lon="3.4406">
        <ele>123.4</ele>
        <time>2025-10-05T12:48:20.000Z</time>
      </trkpt>
      <trkpt lat="49.60707" lon="3.4406">
        <ele>123.4</ele>
        <time>2025-10-05T12:48:21.000Z</time>
      </trkpt>
      <trkpt lat="49.60707" lon="3.4406">
        <ele>123.4</ele>
        <time>2025-10-05T12:48:22.000Z</time>
      </trkpt>
      <trkpt lat="49.60707" lon="3.4406">
        <ele>123.4</ele>
        <time>2025-10-05T12:48:23.000Z</time>
      </trkpt>
      <trkpt lat="49.60707" lon="3.4406">
        <ele>123.4</ele>
        <time>2025-10-05T12:48:24.000Z</time>
      </trkpt>
      <trkpt lat="49.60707" lon="3.4406">
        <ele>123.4</ele>
        <time>2025-10-05T12:48:25.000Z</time>
      </trkpt>
      <trkpt lat="49.60707" lon="3.4406">
        <ele>123.4</ele>
        <time>2025-10-05T12:48:26.000Z</time>
      </trkpt>
      <trkpt lat="49.60707" lon="3.4406">
        <ele>123.4</ele>
        <time>2025-10-05T12:48:27.000Z</time>
      </trkpt>
      <trkpt lat="49.60707" lon="3.4406">
        <ele>123.4</ele>
        <time>2025-10-05T12:48:28.000Z</time>
      </trkpt>
      <trkpt lat="49.60707" lon="3.4406">
        <ele>123.4</ele>
        <time>2025-10-05T12:48:29.000Z</time>
      </trkpt>
      <trkpt lat="49.60707" lon="3.4406">
        <ele>123.4</ele>
        <time>2025-10-05T12:48:30.000Z</time>
      </trkpt>
      <trkpt lat="49.60707" lon="3.4406">
        <ele>123.4</ele>
        <time>2025-10-05T12:48:31.000Z</time>
      </trkpt>
      <trkpt lat="49.60707" lon="3.4406">
        <ele>123.4</ele>
        <time>2025-10-05T12:48:32.000Z</time>
      </trkpt>
      <trkpt lat="49.60707" lon="3.4406">
        <ele>123.4</ele>
        <time>2025-10-05T12:48:33.000Z</time>
      </trkpt>
      <trkpt lat="49.60707" lon="3.4406">
        <ele>123.4</ele>
        <time>2025-10-05T12:48:34.000Z</time>
      </trkpt>
      <trkpt lat="49.60707" lon="3.4406">
        <ele>123.4</ele>
        <time>2025-10-05T12:48:35.000Z</time>
      </trkpt>
      <trkpt lat="49.60707" lon="3.4406">
        <ele>123.4</ele>
        <time>2025-10-05T12:48:36.000Z</time>
      </trkpt>
      <trkpt lat="49.60707" lon="3.4406">
        <ele>123.4</ele>
        <time>2025-10-05T12:48:37.000Z</time>
      </trkpt>
      <trkpt lat="49.60707" lon="3.4406">
        <ele>123.4</ele>
        <time>2025-10-05T12:48:38.000Z</time>
      </trkpt>
      <trkpt lat="49.60707" lon="3.4406">
        <ele>123.4</ele>
        <time>2025-10-05T12:48:39.000Z</time>
      </trkpt>
      <trkpt lat="49.60707" lon="3.4406">
        <ele>123.4</ele>
        <time>2025-10-05T12:48:40.000Z</time>
      </trkpt>
      <trkpt lat="49.60707" lon="3.4406">
        <ele>123.4</ele>
        <time>2025-10-05T12:48:41.000Z</time>
      </trkpt>
      <trkpt lat="49.60707" lon="3.4406">
        <ele>123.4</ele>
        <time>2025-10-05T12:48:42.000Z</time>
      </trkpt>
      <trkpt lat="49.60707" lon="3.4406">
        <ele>123.4</ele>
        <time>2025-10-05T12:48:43.000Z</time>
      </trkpt>
      <trkpt lat="49.60707" lon="3.4406">
        <ele>123.4</ele>
        <time>2025-10-05T12:48:44.000Z</time>
      </trkpt>
      <trkpt lat="49.60707" lon="3.4406">
        <ele>123.4</ele>
        <time>2025-10-05T12:48:45.000Z</time>
      </trkpt>
      <trkpt lat="49.60707" lon="3.4406">
        <ele>123.4</ele>
        <time>2025-10-05T12:48:46.000Z</time>
      </trkpt>
      <trkpt lat="49.60707" lon="3.4406">
        <ele>123.4</ele>
        <time>2025-10-05T12:48:47.000Z</time>
      </trkpt>
      <trkpt lat="49.60707" lon="3.4406">
        <ele>123.4</ele>
        <time>2025-10-05T12:48:48.000Z</time>
      </trkpt>
      <trkpt lat="49.60707" lon="3.4406">
        <ele>123.4</ele>
        <time>2025-10-05T12:48:49.000Z</time>
      </trkpt>
      <trkpt lat="49.60707" lon="3.4406">
        <ele>123.4</ele>
        <time>2025-10-05T12:48:50.000Z</time>
      </trkpt>
      <trkpt lat="49.60707" lon="3.4406">
        <ele>123.4</ele>
        <time>2025-10-05T12:48:51.000Z</time>
      </trkpt>
      <trkpt lat="49.60707" lon="3.4406">
        <ele>123.4</ele>
        <time>2025-10-05T12:48:52.000Z</time>
      </trkpt>
      <trkpt lat="49.60707" lon="3.4406">
        <ele>123.4</ele>
        <time>2025-10-05T12:48:53.000Z</time>
      </trkpt>
      <trkpt lat="49.60707" lon="3.4406">
        <ele>123.4</ele>
        <time>2025-10-05T12:48:54.000Z</time>
      </trkpt>
      <trkpt lat="49.60707" lon="3.4406">
        <ele>123.4</ele>
        <time>2025-10-05T12:48:55.000Z</time>
      </trkpt>
      <trkpt lat="49.60707" lon="3.4406">
        <ele>123.4</ele>
        <time>2025-10-05T12:48:56.000Z</time>
      </trkpt>
      <trkpt lat="49.60707" lon="3.4406">
        <ele>123.4</ele>
        <time>2025-10-05T12:48:57.000Z</time>
      </trkpt>
      <trkpt lat="49.60707" lon="3.4406">
        <ele>123.4</ele>
        <time>2025-10-05T12:48:58.000Z</time>
      </trkpt>
      <trkpt lat="49.60707" lon="3.4406">
        <ele>123.4</ele>
        <time>2025-10-05T12:48:59.000Z</time>
      </trkpt>
      <trkpt lat="49.60707" lon="3.4406">
        <ele>123.4</ele>
        <time>2025-10-05T12:49:00.000Z</time>
      </trkpt>
      <trkpt lat="49.60707" lon="3.4406">
        <ele>123.4</ele>
        <time>2025-10-05T12:49:01.000Z</time>
      </trkpt>
      <trkpt lat="49.60707" lon="3.4406">
        <ele>123.4</ele>
        <time>2025-10-05T12:49:02.000Z</time>
      </trkpt>
      <trkpt lat="49.60707" lon="3.4406">
        <ele>123.4</ele>
        <time>2025-10-05T12:49:03.000Z</time>
      </trkpt>
      <trkpt lat="49.60707" lon="3.4406">
        <ele>123.4</ele>
        <time>2025-10-05T12:49:04.000Z</time>
      </trkpt>
      <trkpt lat="49.60707" lon="3.4406">
        <ele>123.4</ele>
        <time>2025-10-05T12:49:05.000Z</time>
      </trkpt>
      <trkpt lat="49.60707" lon="3.4406">
        <ele>123.4</ele>
        <time>2025-10-05T12:49:06.000Z</time>
      </trkpt>
      <trkpt lat="49.60707" lon="3.4406">
        <ele>123.4</ele>
        <time>2025-10-05T12:49:07.000Z</time>
      </trkpt>
      <trkpt lat="49.60707" lon="3.4406">
        <ele>123.4</ele>
        <time>2025-10-05T12:49:08.000Z</time>
      </trkpt>
      <trkpt lat="49.60707" lon="3.4406">
        <ele>123.4</ele>
        <time>2025-10-05T12:49:09.000Z</time>
      </trkpt>
      <trkpt lat="49.60707" lon="3.4406">
        <ele>123.4</ele>
        <time>2025-10-05T12:49:10.000Z</time>
      </trkpt>
      <trkpt lat="49.60707" lon="3.4406">
        <ele>123.4</ele>
        <time>2025-10-05T12:49:11.000Z</time>
      </trkpt>
      <trkpt lat="49.60707" lon="3.4406">
        <ele>123.4</ele>
        <time>2025-10-05T12:49:12.000Z</time>
      </trkpt>
      <trkpt lat="49.60707" lon="3.4406">
        <ele>123.4</ele>
        <time>2025-10-05T12:49:13.000Z</time>
      </trkpt>
      <trkpt lat="49.60707" lon="3.4406">
        <ele>123.4</ele>
        <time>2025-10-05T12:49:14.000Z</time>
      </trkpt>
      <trkpt lat="49.60707" lon="3.4406">
        <ele>123.4</ele>
        <time>2025-10-05T12:49:15.000Z</time>
      </trkpt>
      <trkpt lat="49.60707" lon="3.4406">
        <ele>123.4</ele>
        <time>2025-10-05T12:49:16.000Z</time>
      </trkpt>
      <trkpt lat="49.60707" lon="3.4406">
        <ele>123.4</ele>
        <time>2025-10-05T12:49:17.000Z</time>
      </trkpt>
      <trkpt lat="49.60707" lon="3.4406">
        <ele>123.4</ele>
        <time>2025-10-05T12:49:18.000Z</time>
      </trkpt>
      <trkpt lat="49.60707" lon="3.4406">
        <ele>123.4</ele>
        <time>2025-10-05T12:49:19.000Z</time>
      </trkpt>
      <trkpt lat="49.60707" lon="3.4406">
        <ele>123.4</ele>
        <time>2025-10-05T12:49:20.000Z</time>
      </trkpt>
      <trkpt lat="49.60707" lon="3.4406">
        <ele>123.4</ele>
        <time>2025-10-05T12:49:21.000Z</time>
      </trkpt>
      <trkpt lat="49.60707" lon="3.4406">
        <ele>123.4</ele>
        <time>2025-10-05T12:49:22.000Z</time>
      </trkpt>
      <trkpt lat="49.60707" lon="3.4406">
        <ele>123.4</ele>
        <time>2025-10-05T12:49:23.000Z</time>
      </trkpt>
      <trkpt lat="49.60707" lon="3.4406">
        <ele>123.4</ele>
        <time>2025-10-05T12:49:24.000Z</time>
      </trkpt>
      <trkpt lat="49.60707" lon="3.4406">
        <ele>123.4</ele>
        <time>2025-10-05T12:49:25.000Z</time>
      </trkpt>
      <trkpt lat="49.60707" lon="3.4406">
        <ele>123.4</ele>
        <time>2025-10-05T12:49:26.000Z</time>
      </trkpt>
      <trkpt lat="49.60707" lon="3.4406">
        <ele>123.4</ele>
        <time>2025-10-05T12:49:27.000Z</time>
      </trkpt>
      <trkpt lat="49.60707" lon="3.4406">
        <ele>123.4</ele>
        <time>2025-10-05T12:49:28.000Z</time>
      </trkpt>
      <trkpt lat="49.60707" lon="3.4406">
        <ele>123.4</ele>
        <time>2025-10-05T12:49:29.000Z</time>
      </trkpt>
      <trkpt lat="49.60707" lon="3.4406">
        <ele>123.4</ele>
        <time>2025-10-05T12:49:30.000Z</time>
      </trkpt>
      <trkpt lat="49.60707" lon="3.4406">
        <ele>123.4</ele>
        <time>2025-10-05T12:49:31.000Z</time>
      </trkpt>
      <trkpt lat="49.60707" lon="3.4406">
        <ele>123.4</ele>
        <time>2025-10-05T12:49:32.000Z</time>
      </trkpt>
      <trkpt lat="49.60707" lon="3.4406">
        <ele>123.4</ele>
        <time>2025-10-05T12:49:33.000Z</time>
      </trkpt>
      <trkpt lat="49.60707" lon="3.4406">
        <ele>123.4</ele>
        <time>2025-10-05T12:49:34.000Z</time>
      </trkpt>
      <trkpt lat="49.60707" lon="3.4406">
        <ele>123.4</ele>
        <time>2025-10-05T12:49:35.000Z</time>
      </trkpt>
      <trkpt lat="49.60707" lon="3.4406">
        <ele>123.4</ele>
        <time>2025-10-05T12:49:36.000Z</time>
      </trkpt>
      <trkpt lat="49.60707" lon="3.4406">
        <ele>123.4</ele>
        <time>2025-10-05T12:49:37.000Z</time>
      </trkpt>
      <trkpt lat="49.60707" lon="3.4406">
        <ele>123.4</ele>
        <time>2025-10-05T12:49:38.000Z</time>
      </trkpt>
      <trkpt lat="49.60707" lon="3.4406">
        <ele>123.4</ele>
        <time>2025-10-05T12:49:39.000Z</time>
      </trkpt>
      <trkpt lat="49.60707" lon="3.4406">
        <ele>123.4</ele>
        <time>2025-10-05T12:49:40.000Z</time>
      </trkpt>
      <trkpt lat="49.60707" lon="3.4406">
        <ele>123.4</ele>
        <time>2025-10-05T12:49:41.000Z</time>
      </trkpt>
      <trkpt lat="49.60707" lon="3.4406">
        <ele>123.4</ele>
        <time>2025-10-05T12:49:42.000Z</time>
      </trkpt>
      <trkpt lat="49.60707" lon="3.4406">
        <ele>123.4</ele>
        <time>2025-10-05T12:49:43.000Z</time>
      </trkpt>
      <trkpt lat="49.60707" lon="3.4406">
        <ele>123.4</ele>
        <time>2025-10-05T12:49:44.000Z</time>
      </trkpt>
      <trkpt lat="49.60707" lon="3.4406">
        <ele>123.4</ele>
        <time>2025-10-05T12:49:45.000Z</time>
      </trkpt>
      <trkpt lat="49.60707" lon="3.4406">
        <ele>123.4</ele>
        <time>2025-10-05T12:49:46.000Z</time>
      </trkpt>
      <trkpt lat="49.60707" lon="3.4406">
        <ele>123.4</ele>
        <time>2025-10-05T12:49:47.000Z</time>
      </trkpt>
      <trkpt lat="49.60707" lon="3.4406">
        <ele>123.4</ele>
        <time>2025-10-05T12:49:48.000Z</time>
      </trkpt>
      <trkpt lat="49.60707" lon="3.4406">
        <ele>123.4</ele>
        <time>2025-10-05T12:49:49.000Z</time>
      </trkpt>
      <trkpt lat="49.60707" lon="3.4406">
        <ele>123.4</ele>
        <time>2025-10-05T12:49:50.000Z</time>
      </trkpt>
      <trkpt lat="49.60707" lon="3.4406">
        <ele>123.4</ele>
        <time>2025-10-05T12:49:51.000Z</time>
      </trkpt>
      <trkpt lat="49.60707" lon="3.4406">
        <ele>123.4</ele>
        <time>2025-10-05T12:49:52.000Z</time>
      </trkpt>
      <trkpt lat="49.60707" lon="3.4406">
        <ele>123.4</ele>
        <time>2025-10-05T12:49:53.000Z</time>
      </trkpt>
      <trkpt lat="49.60707" lon="3.4406">
        <ele>123.4</ele>
        <time>2025-10-05T12:49:54.000Z</time>
      </trkpt>
      <trkpt lat="49.60707" lon="3.4406">
        <ele>123.4</ele>
        <time>2025-10-05T12:49:55.000Z</time>
      </trkpt>
      <trkpt lat="49.60707" lon="3.4406">
        <ele>123.4</ele>
        <time>2025-10-05T12:49:56.000Z</time>
      </trkpt>
      <trkpt lat="49.60707" lon="3.4406">
        <ele>123.4</ele>
        <time>2025-10-05T12:49:57.000Z</time>
      </trkpt>
      <trkpt lat="49.60707" lon="3.4406">
        <ele>123.4</ele>
        <time>2025-10-05T12:49:58.000Z</time>
      </trkpt>
      <trkpt lat="49.60707" lon="3.4406">
        <ele>123.4</ele>
        <time>2025-10-05T12:49:59.000Z</time>
      </trkpt>
      <trkpt lat="49.60707" lon="3.4406">
        <ele>123.4</ele>
        <time>2025-10-05T12:50:00.000Z</time>
      </trkpt>
      <trkpt lat="49.60707" lon="3.4406">
        <ele>123.4</ele>
        <time>2025-10-05T12:50:01.000Z</time>
      </trkpt>
      <trkpt lat="49.60707" lon="3.4406">
        <ele>123.4</ele>
        <time>2025-10-05T12:50:02.000Z</time>
      </trkpt>
      <trkpt lat="49.60707" lon="3.4406">
        <ele>123.4</ele>
        <time>2025-10-05T12:50:03.000Z</time>
      </trkpt>
      <trkpt lat="49.60707" lon="3.4406">
        <ele>123.4</ele>
        <time>2025-10-05T12:50:04.000Z</time>
      </trkpt>
      <trkpt lat="49.60707" lon="3.4406">
        <ele>123.4</ele>
        <time>2025-10-05T12:50:05.000Z</time>
      </trkpt>
      <trkpt lat="49.60707" lon="3.4406">
        <ele>123.4</ele>
        <time>2025-10-05T12:50:06.000Z</time>
      </trkpt>
      <trkpt lat="49.60707" lon="3.4406">
        <ele>123.4</ele>
        <time>2025-10-05T12:50:07.000Z</time>
      </trkpt>
      <trkpt lat="49.60707" lon="3.4406">
        <ele>123.4</ele>
        <time>2025-10-05T12:50:08.000Z</time>
      </trkpt>
      <trkpt lat="49.60707" lon="3.4406">
        <ele>123.4</ele>
        <time>2025-10-05T12:50:09.000Z</time>
      </trkpt>
      <trkpt lat="49.60707" lon="3.4406">
        <ele>123.4</ele>
        <time>2025-10-05T12:50:10.000Z</time>
      </trkpt>
      <trkpt lat="49.60707" lon="3.4406">
        <ele>123.4</ele>
        <time>2025-10-05T12:50:11.000Z</time>
      </trkpt>
      <trkpt lat="49.60707" lon="3.4406">
        <ele>123.4</ele>
        <time>2025-10-05T12:50:12.000Z</time>
      </trkpt>
      <trkpt lat="49.60707" lon="3.4406">
        <ele>123.4</ele>
        <time>2025-10-05T12:50:13.000Z</time>
      </trkpt>
      <trkpt lat="49.60707" lon="3.4406">
        <ele>123.4</ele>
        <time>2025-10-05T12:50:14.000Z</time>
      </trkpt>
      <trkpt lat="49.60707" lon="3.4406">
        <ele>123.4</ele>
        <time>2025-10-05T12:50:15.000Z</time>
      </trkpt>
      <trkpt lat="49.60707" lon="3.4406">
        <ele>123.4</ele>
        <time>2025-10-05T12:50:16.000Z</time>
      </trkpt>
      <trkpt lat="49.60707" lon="3.4406">
        <ele>123.4</ele>
        <time>2025-10-05T12:50:17.000Z</time>
      </trkpt>
      <trkpt lat="49.60707" lon="3.4406">
        <ele>123.4</ele>
        <time>2025-10-05T12:50:18.000Z</time>
      </trkpt>
      <trkpt lat="49.60707" lon="3.4406">
        <ele>123.4</ele>
        <time>2025-10-05T12:50:19.000Z</time>
      </trkpt>
      <trkpt lat="49.60707" lon="3.4406">
        <ele>123.4</ele>
        <time>2025-10-05T12:50:20.000Z</time>
      </trkpt>
      <trkpt lat="49.60707" lon="3.4406">
        <ele>123.4</ele>
        <time>2025-10-05T12:50:21.000Z</time>
      </trkpt>
      <trkpt lat="49.60707" lon="3.4406">
        <ele>123.4</ele>
        <time>2025-10-05T12:50:22.000Z</time>
      </trkpt>
      <trkpt lat="49.60707" lon="3.4406">
        <ele>123.4</ele>
        <time>2025-10-05T12:50:23.000Z</time>
      </trkpt>
      <trkpt lat="49.60707" lon="3.4406">
        <ele>123.4</ele>
        <time>2025-10-05T12:50:24.000Z</time>
      </trkpt>
      <trkpt lat="49.60707" lon="3.4406">
        <ele>123.4</ele>
        <time>2025-10-05T12:50:25.000Z</time>
      </trkpt>
      <trkpt lat="49.60707" lon="3.4406">
        <ele>123.4</ele>
        <time>2025-10-05T12:50:26.000Z</time>
      </trkpt>
      <trkpt lat="49.60707" lon="3.4406">
        <ele>123.4</ele>
        <time>2025-10-05T12:50:27.000Z</time>
      </trkpt>
      <trkpt lat="49.60707" lon="3.4406">
        <ele>123.4</ele>
        <time>2025-10-05T12:50:28.000Z</time>
      </trkpt>
      <trkpt lat="49.60707" lon="3.4406">
        <ele>123.4</ele>
        <time>2025-10-05T12:50:29.000Z</time>
      </trkpt>
      <trkpt lat="49.60707" lon="3.4406">
        <ele>123.4</ele>
        <time>2025-10-05T12:50:30.000Z</time>
      </trkpt>
      <trkpt lat="49.60707" lon="3.4406">
        <ele>123.4</ele>
        <time>2025-10-05T12:50:31.000Z</time>
      </trkpt>
      <trkpt lat="49.60707" lon="3.4406">
        <ele>123.4</ele>
        <time>2025-10-05T12:50:32.000Z</time>
      </trkpt>
      <trkpt lat="49.60707" lon="3.4406">
        <ele>123.4</ele>
        <time>2025-10-05T12:50:33.000Z</time>
      </trkpt>
      <trkpt lat="49.60707" lon="3.4406">
        <ele>123.4</ele>
        <time>2025-10-05T12:50:34.000Z</time>
      </trkpt>
      <trkpt lat="49.60707" lon="3.4406">
        <ele>123.4</ele>
        <time>2025-10-05T12:50:35.000Z</time>
      </trkpt>
      <trkpt lat="49.60707" lon="3.4406">
        <ele>123.4</ele>
        <time>2025-10-05T12:50:36.000Z</time>
      </trkpt>
      <trkpt lat="49.60707" lon="3.4406">
        <ele>123.4</ele>
        <time>2025-10-05T12:50:37.000Z</time>
      </trkpt>
      <trkpt lat="49.60707" lon="3.4406">
        <ele>123.4</ele>
        <time>2025-10-05T12:50:38.000Z</time>
      </trkpt>
      <trkpt lat="49.60707" lon="3.4406">
        <ele>123.4</ele>
        <time>2025-10-05T12:50:39.000Z</time>
      </trkpt>
      <trkpt lat="49.60707" lon="3.4406">
        <ele>123.4</ele>
        <time>2025-10-05T12:50:40.000Z</time>
      </trkpt>
      <trkpt lat="49.60707" lon="3.4406">
        <ele>123.4</ele>
        <time>2025-10-05T12:50:41.000Z</time>
      </trkpt>
      <trkpt lat="49.60707" lon="3.4406">
        <ele>123.4</ele>
        <time>2025-10-05T12:50:42.000Z</time>
      </trkpt>
      <trkpt lat="49.60707" lon="3.4406">
        <ele>123.4</ele>
        <time>2025-10-05T12:50:43.000Z</time>
      </trkpt>
      <trkpt lat="49.60707" lon="3.4406">
        <ele>123.4</ele>
        <time>2025-10-05T12:50:44.000Z</time>
      </trkpt>
      <trkpt lat="49.60707" lon="3.4406">
        <ele>123.4</ele>
        <time>2025-10-05T12:50:45.000Z</time>
      </trkpt>
      <trkpt lat="49.60707" lon="3.4406">
        <ele>123.4</ele>
        <time>2025-10-05T12:50:46.000Z</time>
      </trkpt>
      <trkpt lat="49.60707" lon="3.4406">
        <ele>123.4</ele>
        <time>2025-10-05T12:50:47.000Z</time>
      </trkpt>
      <trkpt lat="49.60707" lon="3.4406">
        <ele>123.4</ele>
        <time>2025-10-05T12:50:48.000Z</time>
      </trkpt>
      <trkpt lat="49.60707" lon="3.4406">
        <ele>123.4</ele>
        <time>2025-10-05T12:50:49.000Z</time>
      </trkpt>
      <trkpt lat="49.60707" lon="3.4406">
        <ele>123.4</ele>
        <time>2025-10-05T12:50:50.000Z</time>
      </trkpt>
      <trkpt lat="49.60707" lon="3.4406">
        <ele>123.4</ele>
        <time>2025-10-05T12:50:51.000Z</time>
      </trkpt>
      <trkpt lat="49.60707" lon="3.4406">
        <ele>123.4</ele>
        <time>2025-10-05T12:50:52.000Z</time>
      </trkpt>
      <trkpt lat="49.60707" lon="3.4406">
        <ele>123.4</ele>
        <time>2025-10-05T12:50:53.000Z</time>
      </trkpt>
      <trkpt lat="49.60707" lon="3.4406">
        <ele>123.4</ele>
        <time>2025-10-05T12:50:54.000Z</time>
      </trkpt>
      <trkpt lat="49.60707" lon="3.4406">
        <ele>123.4</ele>
        <time>2025-10-05T12:50:55.000Z</time>
      </trkpt>
      <trkpt lat="49.60707" lon="3.4406">
        <ele>123.4</ele>
        <time>2025-10-05T12:50:56.000Z</time>
      </trkpt>
      <trkpt lat="49.60707" lon="3.4406">
        <ele>123.4</ele>
        <time>2025-10-05T12:50:57.000Z</time>
      </trkpt>
      <trkpt lat="49.60707" lon="3.4406">
        <ele>123.4</ele>
        <time>2025-10-05T12:50:58.000Z</time>
      </trkpt>
      <trkpt lat="49.60707" lon="3.4406">
        <ele>123.4</ele>
        <time>2025-10-05T12:50:59.000Z</time>
      </trkpt>
      <trkpt lat="49.60707" lon="3.4406">
        <ele>123.4</ele>
        <time>2025-10-05T12:51:00.000Z</time>
      </trkpt>
      <trkpt lat="49.60707" lon="3.4406">
        <ele>123.4</ele>
        <time>2025-10-05T12:51:01.000Z</time>
      </trkpt>
      <trkpt lat="49.60707" lon="3.4406">
        <ele>123.4</ele>
        <time>2025-10-05T12:51:02.000Z</time>
      </trkpt>
      <trkpt lat="49.60707" lon="3.4406">
        <ele>123.4</ele>
        <time>2025-10-05T12:51:03.000Z</time>
      </trkpt>
      <trkpt lat="49.60707" lon="3.4406">
        <ele>123.4</ele>
        <time>2025-10-05T12:51:04.000Z</time>
      </trkpt>
      <trkpt lat="49.60707" lon="3.4406">
        <ele>123.4</ele>
        <time>2025-10-05T12:51:05.000Z</time>
      </trkpt>
      <trkpt lat="49.60707" lon="3.4406">
        <ele>123.4</ele>
        <time>2025-10-05T12:51:06.000Z</time>
      </trkpt>
      <trkpt lat="49.60707" lon="3.4406">
        <ele>123.4</ele>
        <time>2025-10-05T12:51:07.000Z</time>
      </trkpt>
      <trkpt lat="49.60707" lon="3.4406">
        <ele>123.4</ele>
        <time>2025-10-05T12:51:08.000Z</time>
      </trkpt>
      <trkpt lat="49.60707" lon="3.4406">
        <ele>123.4</ele>
        <time>2025-10-05T12:51:09.000Z</time>
      </trkpt>
      <trkpt lat="49.60707" lon="3.4406">
        <ele>123.4</ele>
        <time>2025-10-05T12:51:10.000Z</time>
      </trkpt>
      <trkpt lat="49.60707" lon="3.4406">
        <ele>123.4</ele>
        <time>2025-10-05T12:51:11.000Z</time>
      </trkpt>
      <trkpt lat="49.60707" lon="3.4406">
        <ele>123.4</ele>
        <time>2025-10-05T12:51:12.000Z</time>
      </trkpt>
      <trkpt lat="49.60707" lon="3.4406">
        <ele>123.4</ele>
        <time>2025-10-05T12:51:13.000Z</time>
      </trkpt>
      <trkpt lat="49.60707" lon="3.4406">
        <ele>123.4</ele>
        <time>2025-10-05T12:51:14.000Z</time>
      </trkpt>
      <trkpt lat="49.60707" lon="3.4406">
        <ele>123.4</ele>
        <time>2025-10-05T12:51:15.000Z</time>
      </trkpt>
      <trkpt lat="49.60707" lon="3.4406">
        <ele>123.4</ele>
        <time>2025-10-05T12:51:16.000Z</time>
      </trkpt>
      <trkpt lat="49.60707" lon="3.4406">
        <ele>123.4</ele>
        <time>2025-10-05T12:51:17.000Z</time>
      </trkpt>
      <trkpt lat="49.60707" lon="3.4406">
        <ele>123.4</ele>
        <time>2025-10-05T12:51:18.000Z</time>
      </trkpt>
      <trkpt lat="49.60707" lon="3.4406">
        <ele>123.4</ele>
        <time>2025-10-05T12:51:19.000Z</time>
      </trkpt>
      <trkpt lat="49.60707" lon="3.4406">
        <ele>123.4</ele>
        <time>2025-10-05T12:51:20.000Z</time>
      </trkpt>
      <trkpt lat="49.60707" lon="3.4406">
        <ele>123.4</ele>
        <time>2025-10-05T12:51:21.000Z</time>
      </trkpt>
      <trkpt lat="49.60707" lon="3.4406">
        <ele>123.4</ele>
        <time>2025-10-05T12:51:22.000Z</time>
      </trkpt>
      <trkpt lat="49.60707" lon="3.4406">
        <ele>123.4</ele>
        <time>2025-10-05T12:51:23.000Z</time>
      </trkpt>
      <trkpt lat="49.60707" lon="3.4406">
        <ele>123.4</ele>
        <time>2025-10-05T12:51:24.000Z</time>
      </trkpt>
      <trkpt lat="49.60707" lon="3.4406">
        <ele>123.4</ele>
        <time>2025-10-05T12:51:25.000Z</time>
      </trkpt>
      <trkpt lat="49.60707" lon="3.4406">
        <ele>123.4</ele>
        <time>2025-10-05T12:51:26.000Z</time>
      </trkpt>
      <trkpt lat="49.60707" lon="3.4406">
        <ele>123.4</ele>
        <time>2025-10-05T12:51:27.000Z</time>
      </trkpt>
      <trkpt lat="49.60707" lon="3.4406">
        <ele>123.4</ele>
        <time>2025-10-05T12:51:28.000Z</time>
      </trkpt>
      <trkpt lat="49.60707" lon="3.4406">
        <ele>123.4</ele>
        <time>2025-10-05T12:51:29.000Z</time>
      </trkpt>
      <trkpt lat="49.60707" lon="3.4406">
        <ele>123.4</ele>
        <time>2025-10-05T12:51:30.000Z</time>
      </trkpt>
      <trkpt lat="49.60707" lon="3.4406">
        <ele>123.4</ele>
        <time>2025-10-05T12:51:31.000Z</time>
      </trkpt>
      <trkpt lat="49.60707" lon="3.4406">
        <ele>123.4</ele>
        <time>2025-10-05T12:51:32.000Z</time>
      </trkpt>
      <trkpt lat="49.60707" lon="3.4406">
        <ele>123.4</ele>
        <time>2025-10-05T12:51:33.000Z</time>
      </trkpt>
      <trkpt lat="49.60707" lon="3.4406">
        <ele>123.4</ele>
        <time>2025-10-05T12:51:34.000Z</time>
      </trkpt>
      <trkpt lat="49.60707" lon="3.4406">
        <ele>123.4</ele>
        <time>2025-10-05T12:51:35.000Z</time>
      </trkpt>
      <trkpt lat="49.60707" lon="3.4406">
        <ele>123.4</ele>
        <time>2025-10-05T12:51:36.000Z</time>
      </trkpt>
      <trkpt lat="49.60707" lon="3.4406">
        <ele>123.4</ele>
        <time>2025-10-05T12:51:37.000Z</time>
      </trkpt>
      <trkpt lat="49.60707" lon="3.4406">
        <ele>123.4</ele>
        <time>2025-10-05T12:51:38.000Z</time>
      </trkpt>
      <trkpt lat="49.60707" lon="3.4406">
        <ele>123.4</ele>
        <time>2025-10-05T12:51:39.000Z</time>
      </trkpt>
      <trkpt lat="49.60707" lon="3.4406">
        <ele>123.4</ele>
        <time>2025-10-05T12:51:40.000Z</time>
      </trkpt>
      <trkpt lat="49.60707" lon="3.4406">
        <ele>123.4</ele>
        <time>2025-10-05T12:51:41.000Z</time>
      </trkpt>
      <trkpt lat="49.60707" lon="3.4406">
        <ele>123.4</ele>
        <time>2025-10-05T12:51:42.000Z</time>
      </trkpt>
      <trkpt lat="49.60707" lon="3.4406">
        <ele>123.4</ele>
        <time>2025-10-05T12:51:43.000Z</time>
      </trkpt>
      <trkpt lat="49.60707" lon="3.4406">
        <ele>123.4</ele>
        <time>2025-10-05T12:51:44.000Z</time>
      </trkpt>
      <trkpt lat="49.60707" lon="3.4406">
        <ele>123.4</ele>
        <time>2025-10-05T12:51:45.000Z</time>
      </trkpt>
      <trkpt lat="49.60707" lon="3.4406">
        <ele>123.4</ele>
        <time>2025-10-05T12:51:46.000Z</time>
      </trkpt>
      <trkpt lat="49.60707" lon="3.4406">
        <ele>123.4</ele>
        <time>2025-10-05T12:51:47.000Z</time>
      </trkpt>
      <trkpt lat="49.60707" lon="3.4406">
        <ele>123.4</ele>
        <time>2025-10-05T12:51:48.000Z</time>
      </trkpt>
      <trkpt lat="49.60707" lon="3.4406">
        <ele>123.4</ele>
        <time>2025-10-05T12:51:49.000Z</time>
      </trkpt>
      <trkpt lat="49.60705" lon="3.44057">
        <ele>117.2</ele>
        <time>2025-10-05T12:51:50.000Z</time>
      </trkpt>
      <trkpt lat="49.60706" lon="3.44058">
        <ele>117.2</ele>
        <time>2025-10-05T12:51:51.000Z</time>
      </trkpt>
      <trkpt lat="49.60707" lon="3.44059">
        <ele>117.2</ele>
        <time>2025-10-05T12:51:52.000Z</time>
      </trkpt>
      <trkpt lat="49.60707" lon="3.44061">
        <ele>117.3</ele>
        <time>2025-10-05T12:51:53.000Z</time>
      </trkpt>
      <trkpt lat="49.60708" lon="3.44063">
        <ele>117.4</ele>
        <time>2025-10-05T12:51:54.000Z</time>
      </trkpt>
      <trkpt lat="49.60707" lon="3.44064">
        <ele>117.6</ele>
        <time>2025-10-05T12:51:55.000Z</time>
      </trkpt>
      <trkpt lat="49.60707" lon="3.44065">
        <ele>117.8</ele>
        <time>2025-10-05T12:51:56.000Z</time>
      </trkpt>
      <trkpt lat="49.60707" lon="3.44066">
        <ele>117.9</ele>
        <time>2025-10-05T12:51:57.000Z</time>
      </trkpt>
      <trkpt lat="49.60707" lon="3.44068">
        <ele>118</ele>
        <time>2025-10-05T12:51:58.000Z</time>
      </trkpt>
      <trkpt lat="49.60708" lon="3.44068">
        <ele>118</ele>
        <time>2025-10-05T12:51:59.000Z</time>
      </trkpt>
      <trkpt lat="49.60708" lon="3.44068">
        <ele>118</ele>
        <time>2025-10-05T12:52:00.000Z</time>
      </trkpt>
      <trkpt lat="49.60709" lon="3.44068">
        <ele>117.9</ele>
        <time>2025-10-05T12:52:01.000Z</time>
      </trkpt>
      <trkpt lat="49.60709" lon="3.44068">
        <ele>117.6</ele>
        <time>2025-10-05T12:52:02.000Z</time>
      </trkpt>
      <trkpt lat="49.6071" lon="3.44068">
        <ele>117.2</ele>
        <time>2025-10-05T12:52:03.000Z</time>
      </trkpt>
      <trkpt lat="49.60711" lon="3.44068">
        <ele>116.6</ele>
        <time>2025-10-05T12:52:04.000Z</time>
      </trkpt>
      <trkpt lat="49.60712" lon="3.44068">
        <ele>116.2</ele>
        <time>2025-10-05T12:52:05.000Z</time>
      </trkpt>
      <trkpt lat="49.60712" lon="3.44067">
        <ele>115.7</ele>
        <time>2025-10-05T12:52:06.000Z</time>
      </trkpt>
      <trkpt lat="49.60712" lon="3.44067">
        <ele>115.6</ele>
        <time>2025-10-05T12:52:07.000Z</time>
      </trkpt>
      <trkpt lat="49.60712" lon="3.44068">
        <ele>115.5</ele>
        <time>2025-10-05T12:52:08.000Z</time>
      </trkpt>
      <trkpt lat="49.60711" lon="3.44068">
        <ele>115.2</ele>
        <time>2025-10-05T12:52:09.000Z</time>
      </trkpt>
      <trkpt lat="49.60711" lon="3.4407">
        <ele>115</ele>
        <time>2025-10-05T12:52:10.000Z</time>
      </trkpt>
      <trkpt lat="49.6071" lon="3.44071">
        <ele>114.9</ele>
        <time>2025-10-05T12:52:11.000Z</time>
      </trkpt>
      <trkpt lat="49.60708" lon="3.44071">
        <ele>114.7</ele>
        <time>2025-10-05T12:52:12.000Z</time>
      </trkpt>
      <trkpt lat="49.60707" lon="3.44071">
        <ele>114.5</ele>
        <time>2025-10-05T12:52:13.000Z</time>
      </trkpt>
      <trkpt lat="49.60706" lon="3.44072">
        <ele>114.4</ele>
        <time>2025-10-05T12:52:14.000Z</time>
      </trkpt>
      <trkpt lat="49.60705" lon="3.44074">
        <ele>114.6</ele>
        <time>2025-10-05T12:52:15.000Z</time>
      </trkpt>
      <trkpt lat="49.60704" lon="3.44074">
        <ele>114.5</ele>
        <time>2025-10-05T12:52:16.000Z</time>
      </trkpt>
      <trkpt lat="49.60703" lon="3.44075">
        <ele>114.5</ele>
        <time>2025-10-05T12:52:17.000Z</time>
      </trkpt>
      <trkpt lat="49.60702" lon="3.44075">
        <ele>114.5</ele>
        <time>2025-10-05T12:52:18.000Z</time>
      </trkpt>
      <trkpt lat="49.60701" lon="3.44076">
        <ele>114.5</ele>
        <time>2025-10-05T12:52:19.000Z</time>
      </trkpt>
      <trkpt lat="49.60701" lon="3.44076">
        <ele>114.5</ele>
        <time>2025-10-05T12:52:20.000Z</time>
      </trkpt>
      <trkpt lat="49.607" lon="3.44077">
        <ele>114.9</ele>
        <time>2025-10-05T12:52:21.000Z</time>
      </trkpt>
      <trkpt lat="49.607" lon="3.44079">
        <ele>115.2</ele>
        <time>2025-10-05T12:52:22.000Z</time>
      </trkpt>
      <trkpt lat="49.60699" lon="3.44081">
        <ele>115.5</ele>
        <time>2025-10-05T12:52:23.000Z</time>
      </trkpt>
      <trkpt lat="49.60699" lon="3.44082">
        <ele>115.9</ele>
        <time>2025-10-05T12:52:24.000Z</time>
      </trkpt>
      <trkpt lat="49.60699" lon="3.44084">
        <ele>116.1</ele>
        <time>2025-10-05T12:52:25.000Z</time>
      </trkpt>
      <trkpt lat="49.60698" lon="3.44085">
        <ele>116.4</ele>
        <time>2025-10-05T12:52:26.000Z</time>
      </trkpt>
      <trkpt lat="49.60698" lon="3.44085">
        <ele>116.5</ele>
        <time>2025-10-05T12:52:27.000Z</time>
      </trkpt>
      <trkpt lat="49.60698" lon="3.44085">
        <ele>116.5</ele>
        <time>2025-10-05T12:52:28.000Z</time>
      </trkpt>
      <trkpt lat="49.60698" lon="3.44085">
        <ele>116.5</ele>
        <time>2025-10-05T12:52:29.000Z</time>
      </trkpt>
      <trkpt lat="49.60698" lon="3.44086">
        <ele>116.7</ele>
        <time>2025-10-05T12:52:30.000Z</time>
      </trkpt>
      <trkpt lat="49.60699" lon="3.44086">
        <ele>117.1</ele>
        <time>2025-10-05T12:52:31.000Z</time>
      </trkpt>
      <trkpt lat="49.60699" lon="3.44086">
        <ele>117.3</ele>
        <time>2025-10-05T12:52:32.000Z</time>
      </trkpt>
      <trkpt lat="49.60699" lon="3.44086">
        <ele>117.4</ele>
        <time>2025-10-05T12:52:33.000Z</time>
      </trkpt>
      <trkpt lat="49.60699" lon="3.44086">
        <ele>117.5</ele>
        <time>2025-10-05T12:52:34.000Z</time>
      </trkpt>
      <trkpt lat="49.60699" lon="3.44086">
        <ele>117.8</ele>
        <time>2025-10-05T12:52:35.000Z</time>
      </trkpt>
      <trkpt lat="49.60699" lon="3.44086">
        <ele>117.8</ele>
        <time>2025-10-05T12:52:36.000Z</time>
      </trkpt>
      <trkpt lat="49.60699" lon="3.44086">
        <ele>117.8</ele>
        <time>2025-10-05T12:52:37.000Z</time>
      </trkpt>
      <trkpt lat="49.60699" lon="3.44086">
        <ele>117.8</ele>
        <time>2025-10-05T12:52:38.000Z</time>
      </trkpt>
      <trkpt lat="49.60699" lon="3.44086">
        <ele>117.8</ele>
        <time>2025-10-05T12:52:39.000Z</time>
      </trkpt>
      <trkpt lat="49.60699" lon="3.44086">
        <ele>117.8</ele>
        <time>2025-10-05T12:52:40.000Z</time>
      </trkpt>
      <trkpt lat="49.60699" lon="3.44086">
        <ele>117.8</ele>
        <time>2025-10-05T12:52:41.000Z</time>
      </trkpt>
      <trkpt lat="49.60699" lon="3.44086">
        <ele>117.8</ele>
        <time>2025-10-05T12:52:42.000Z</time>
      </trkpt>
      <trkpt lat="49.60699" lon="3.44086">
        <ele>117.8</ele>
        <time>2025-10-05T12:52:43.000Z</time>
      </trkpt>
      <trkpt lat="49.60699" lon="3.44086">
        <ele>117.8</ele>
        <time>2025-10-05T12:52:44.000Z</time>
      </trkpt>
      <trkpt lat="49.60699" lon="3.44086">
        <ele>117.8</ele>
        <time>2025-10-05T12:52:45.000Z</time>
      </trkpt>
      <trkpt lat="49.60699" lon="3.44086">
        <ele>117.8</ele>
        <time>2025-10-05T12:52:46.000Z</time>
      </trkpt>
      <trkpt lat="49.60699" lon="3.44086">
        <ele>117.8</ele>
        <time>2025-10-05T12:52:47.000Z</time>
      </trkpt>
      <trkpt lat="49.60699" lon="3.44086">
        <ele>117.8</ele>
        <time>2025-10-05T12:52:48.000Z</time>
      </trkpt>
      <trkpt lat="49.60699" lon="3.44086">
        <ele>117.8</ele>
        <time>2025-10-05T12:52:49.000Z</time>
      </trkpt>
      <trkpt lat="49.60699" lon="3.44086">
        <ele>117.8</ele>
        <time>2025-10-05T12:52:50.000Z</time>
      </trkpt>
      <trkpt lat="49.60699" lon="3.44086">
        <ele>117.8</ele>
        <time>2025-10-05T12:52:51.000Z</time>
      </trkpt>
      <trkpt lat="49.60699" lon="3.44086">
        <ele>117.8</ele>
        <time>2025-10-05T12:52:52.000Z</time>
      </trkpt>
      <trkpt lat="49.60699" lon="3.44086">
        <ele>117.8</ele>
        <time>2025-10-05T12:52:53.000Z</time>
      </trkpt>
      <trkpt lat="49.60699" lon="3.44086">
        <ele>117.8</ele>
        <time>2025-10-05T12:52:54.000Z</time>
      </trkpt>
      <trkpt lat="49.60699" lon="3.44086">
        <ele>117.8</ele>
        <time>2025-10-05T12:52:55.000Z</time>
      </trkpt>
      <trkpt lat="49.60699" lon="3.44086">
        <ele>117.8</ele>
        <time>2025-10-05T12:52:56.000Z</time>
      </trkpt>
      <trkpt lat="49.60699" lon="3.44086">
        <ele>117.8</ele>
        <time>2025-10-05T12:52:57.000Z</time>
      </trkpt>
      <trkpt lat="49.60699" lon="3.44086">
        <ele>117.8</ele>
        <time>2025-10-05T12:52:58.000Z</time>
      </trkpt>
      <trkpt lat="49.60699" lon="3.44086">
        <ele>117.8</ele>
        <time>2025-10-05T12:52:59.000Z</time>
      </trkpt>
      <trkpt lat="49.60699" lon="3.44086">
        <ele>117.8</ele>
        <time>2025-10-05T12:53:00.000Z</time>
      </trkpt>
      <trkpt lat="49.60699" lon="3.44086">
        <ele>117.8</ele>
        <time>2025-10-05T12:53:01.000Z</time>
      </trkpt>
      <trkpt lat="49.60699" lon="3.44086">
        <ele>117.8</ele>
        <time>2025-10-05T12:53:02.000Z</time>
      </trkpt>
      <trkpt lat="49.60699" lon="3.44086">
        <ele>117.8</ele>
        <time>2025-10-05T12:53:03.000Z</time>
      </trkpt>
      <trkpt lat="49.60699" lon="3.44086">
        <ele>117.8</ele>
        <time>2025-10-05T12:53:04.000Z</time>
      </trkpt>
      <trkpt lat="49.60699" lon="3.44086">
        <ele>117.8</ele>
        <time>2025-10-05T12:53:05.000Z</time>
      </trkpt>
      <trkpt lat="49.60699" lon="3.44086">
        <ele>117.8</ele>
        <time>2025-10-05T12:53:06.000Z</time>
      </trkpt>
      <trkpt lat="49.60699" lon="3.44086">
        <ele>117.8</ele>
        <time>2025-10-05T12:53:07.000Z</time>
      </trkpt>
      <trkpt lat="49.60699" lon="3.44086">
        <ele>117.8</ele>
        <time>2025-10-05T12:53:08.000Z</time>
      </trkpt>
      <trkpt lat="49.60699" lon="3.44086">
        <ele>117.8</ele>
        <time>2025-10-05T12:53:09.000Z</time>
      </trkpt>
      <trkpt lat="49.60699" lon="3.44086">
        <ele>117.8</ele>
        <time>2025-10-05T12:53:10.000Z</time>
      </trkpt>
      <trkpt lat="49.60699" lon="3.44086">
        <ele>117.8</ele>
        <time>2025-10-05T12:53:11.000Z</time>
      </trkpt>
      <trkpt lat="49.60699" lon="3.44086">
        <ele>117.8</ele>
        <time>2025-10-05T12:53:12.000Z</time>
      </trkpt>
      <trkpt lat="49.60699" lon="3.44086">
        <ele>117.8</ele>
        <time>2025-10-05T12:53:13.000Z</time>
      </trkpt>
      <trkpt lat="49.60699" lon="3.44086">
        <ele>117.8</ele>
        <time>2025-10-05T12:53:14.000Z</time>
      </trkpt>
      <trkpt lat="49.60699" lon="3.44086">
        <ele>117.8</ele>
        <time>2025-10-05T12:53:15.000Z</time>
      </trkpt>
      <trkpt lat="49.60699" lon="3.44086">
        <ele>117.8</ele>
        <time>2025-10-05T12:53:16.000Z</time>
      </trkpt>
      <trkpt lat="49.60699" lon="3.44086">
        <ele>117.8</ele>
        <time>2025-10-05T12:53:17.000Z</time>
      </trkpt>
      <trkpt lat="49.60699" lon="3.44086">
        <ele>117.8</ele>
        <time>2025-10-05T12:53:18.000Z</time>
      </trkpt>
      <trkpt lat="49.60699" lon="3.44086">
        <ele>117.8</ele>
        <time>2025-10-05T12:53:19.000Z</time>
      </trkpt>
      <trkpt lat="49.60699" lon="3.44086">
        <ele>117.8</ele>
        <time>2025-10-05T12:53:20.000Z</time>
      </trkpt>
      <trkpt lat="49.60699" lon="3.44086">
        <ele>117.8</ele>
        <time>2025-10-05T12:53:21.000Z</time>
      </trkpt>
      <trkpt lat="49.60699" lon="3.44086">
        <ele>117.8</ele>
        <time>2025-10-05T12:53:22.000Z</time>
      </trkpt>
      <trkpt lat="49.60699" lon="3.44086">
        <ele>117.8</ele>
        <time>2025-10-05T12:53:23.000Z</time>
      </trkpt>
      <trkpt lat="49.60699" lon="3.44086">
        <ele>117.8</ele>
        <time>2025-10-05T12:53:24.000Z</time>
      </trkpt>
      <trkpt lat="49.60699" lon="3.44086">
        <ele>117.8</ele>
        <time>2025-10-05T12:53:25.000Z</time>
      </trkpt>
      <trkpt lat="49.60699" lon="3.44086">
        <ele>117.8</ele>
        <time>2025-10-05T12:53:26.000Z</time>
      </trkpt>
      <trkpt lat="49.60699" lon="3.44086">
        <ele>117.8</ele>
        <time>2025-10-05T12:53:27.000Z</time>
      </trkpt>
      <trkpt lat="49.60699" lon="3.44086">
        <ele>117.8</ele>
        <time>2025-10-05T12:53:28.000Z</time>
      </trkpt>
      <trkpt lat="49.60699" lon="3.44086">
        <ele>117.8</ele>
        <time>2025-10-05T12:53:29.000Z</time>
      </trkpt>
      <trkpt lat="49.60699" lon="3.44086">
        <ele>117.8</ele>
        <time>2025-10-05T12:53:30.000Z</time>
      </trkpt>
      <trkpt lat="49.60699" lon="3.44086">
        <ele>117.8</ele>
        <time>2025-10-05T12:53:31.000Z</time>
      </trkpt>
      <trkpt lat="49.60699" lon="3.44086">
        <ele>117.8</ele>
        <time>2025-10-05T12:53:32.000Z</time>
      </trkpt>
      <trkpt lat="49.60699" lon="3.44086">
        <ele>117.8</ele>
        <time>2025-10-05T12:53:33.000Z</time>
      </trkpt>
      <trkpt lat="49.60699" lon="3.44086">
        <ele>117.8</ele>
        <time>2025-10-05T12:53:34.000Z</time>
      </trkpt>
      <trkpt lat="49.60699" lon="3.44086">
        <ele>117.8</ele>
        <time>2025-10-05T12:53:35.000Z</time>
      </trkpt>
      <trkpt lat="49.60699" lon="3.44086">
        <ele>117.8</ele>
        <time>2025-10-05T12:53:36.000Z</time>
      </trkpt>
      <trkpt lat="49.60699" lon="3.44086">
        <ele>117.8</ele>
        <time>2025-10-05T12:53:37.000Z</time>
      </trkpt>
      <trkpt lat="49.60699" lon="3.44086">
        <ele>117.8</ele>
        <time>2025-10-05T12:53:38.000Z</time>
      </trkpt>
      <trkpt lat="49.60699" lon="3.44086">
        <ele>117.8</ele>
        <time>2025-10-05T12:53:39.000Z</time>
      </trkpt>
      <trkpt lat="49.60699" lon="3.44086">
        <ele>117.8</ele>
        <time>2025-10-05T12:53:40.000Z</time>
      </trkpt>
      <trkpt lat="49.60699" lon="3.44086">
        <ele>117.8</ele>
        <time>2025-10-05T12:53:41.000Z</time>
      </trkpt>
      <trkpt lat="49.60699" lon="3.44086">
        <ele>117.8</ele>
        <time>2025-10-05T12:53:42.000Z</time>
      </trkpt>
      <trkpt lat="49.60699" lon="3.44086">
        <ele>117.8</ele>
        <time>2025-10-05T12:53:43.000Z</time>
      </trkpt>
      <trkpt lat="49.60701" lon="3.44087">
        <ele>121.1</ele>
        <time>2025-10-05T12:53:44.000Z</time>
      </trkpt>
      <trkpt lat="49.607" lon="3.44085">
        <ele>121.1</ele>
        <time>2025-10-05T12:53:45.000Z</time>
      </trkpt>
      <trkpt lat="49.607" lon="3.44084">
        <ele>121.1</ele>
        <time>2025-10-05T12:53:46.000Z</time>
      </trkpt>
      <trkpt lat="49.607" lon="3.44082">
        <ele>121.1</ele>
        <time>2025-10-05T12:53:47.000Z</time>
      </trkpt>
      <trkpt lat="49.607" lon="3.4408">
        <ele>121</ele>
        <time>2025-10-05T12:53:48.000Z</time>
      </trkpt>
      <trkpt lat="49.607" lon="3.44079">
        <ele>120.8</ele>
        <time>2025-10-05T12:53:49.000Z</time>
      </trkpt>
      <trkpt lat="49.607" lon="3.44077">
        <ele>120.9</ele>
        <time>2025-10-05T12:53:50.000Z</time>
      </trkpt>
      <trkpt lat="49.60699" lon="3.44075">
        <ele>121</ele>
        <time>2025-10-05T12:53:51.000Z</time>
      </trkpt>
      <trkpt lat="49.60698" lon="3.44073">
        <ele>120.8</ele>
        <time>2025-10-05T12:53:52.000Z</time>
      </trkpt>
      <trkpt lat="49.60697" lon="3.44071">
        <ele>120.8</ele>
        <time>2025-10-05T12:53:53.000Z</time>
      </trkpt>
      <trkpt lat="49.60696" lon="3.44069">
        <ele>120.9</ele>
        <time>2025-10-05T12:53:54.000Z</time>
      </trkpt>
      <trkpt lat="49.60695" lon="3.44067">
        <ele>120.7</ele>
        <time>2025-10-05T12:53:55.000Z</time>
      </trkpt>
      <trkpt lat="49.60693" lon="3.44066">
        <ele>120.6</ele>
        <time>2025-10-05T12:53:56.000Z</time>
      </trkpt>
      <trkpt lat="49.60691" lon="3.44065">
        <ele>120.2</ele>
        <time>2025-10-05T12:53:57.000Z</time>
      </trkpt>
      <trkpt lat="49.6069" lon="3.44065">
        <ele>119.9</ele>
        <time>2025-10-05T12:53:58.000Z</time>
      </trkpt>
      <trkpt lat="49.60688" lon="3.44065">
        <ele>119.5</ele>
        <time>2025-10-05T12:53:59.000Z</time>
      </trkpt>
      <trkpt lat="49.60686" lon="3.44065">
        <ele>119.3</ele>
        <time>2025-10-05T12:54:00.000Z</time>
      </trkpt>
      <trkpt lat="49.60685" lon="3.44065">
        <ele>119.1</ele>
        <time>2025-10-05T12:54:01.000Z</time>
      </trkpt>
      <trkpt lat="49.60684" lon="3.44064">
        <ele>119.2</ele>
        <time>2025-10-05T12:54:02.000Z</time>
      </trkpt>
      <trkpt lat="49.60683" lon="3.44063">
        <ele>119.7</ele>
        <time>2025-10-05T12:54:03.000Z</time>
      </trkpt>
      <trkpt lat="49.60682" lon="3.44062">
        <ele>119.9</ele>
        <time>2025-10-05T12:54:04.000Z</time>
      </trkpt>
      <trkpt lat="49.60681" lon="3.44061">
        <ele>120.4</ele>
        <time>2025-10-05T12:54:05.000Z</time>
      </trkpt>
      <trkpt lat="49.6068" lon="3.4406">
        <ele>120.4</ele>
        <time>2025-10-05T12:54:06.000Z</time>
      </trkpt>
      <trkpt lat="49.60679" lon="3.44059">
        <ele>120.5</ele>
        <time>2025-10-05T12:54:07.000Z</time>
      </trkpt>
      <trkpt lat="49.60678" lon="3.44059">
        <ele>121</ele>
        <time>2025-10-05T12:54:08.000Z</time>
      </trkpt>
      <trkpt lat="49.60677" lon="3.44058">
        <ele>121.7</ele>
        <time>2025-10-05T12:54:09.000Z</time>
      </trkpt>
      <trkpt lat="49.60675" lon="3.44058">
        <ele>122</ele>
        <time>2025-10-05T12:54:10.000Z</time>
      </trkpt>
      <trkpt lat="49.60674" lon="3.44058">
        <ele>122.1</ele>
        <time>2025-10-05T12:54:11.000Z</time>
      </trkpt>
      <trkpt lat="49.60673" lon="3.44057">
        <ele>122.3</ele>
        <time>2025-10-05T12:54:12.000Z</time>
      </trkpt>
      <trkpt lat="49.60672" lon="3.44057">
        <ele>122.4</ele>
        <time>2025-10-05T12:54:13.000Z</time>
      </trkpt>
      <trkpt lat="49.60671" lon="3.44056">
        <ele>122.5</ele>
        <time>2025-10-05T12:54:14.000Z</time>
      </trkpt>
      <trkpt lat="49.6067" lon="3.44055">
        <ele>122.7</ele>
        <time>2025-10-05T12:54:15.000Z</time>
      </trkpt>
      <trkpt lat="49.60669" lon="3.44055">
        <ele>122.7</ele>
        <time>2025-10-05T12:54:16.000Z</time>
      </trkpt>
      <trkpt lat="49.60667" lon="3.44054">
        <ele>122.8</ele>
        <time>2025-10-05T12:54:17.000Z</time>
      </trkpt>
      <trkpt lat="49.60666" lon="3.44054">
        <ele>122.8</ele>
        <time>2025-10-05T12:54:18.000Z</time>
      </trkpt>
      <trkpt lat="49.60664" lon="3.44052">
        <ele>122.9</ele>
        <time>2025-10-05T12:54:19.000Z</time>
      </trkpt>
      <trkpt lat="49.60663" lon="3.4405">
        <ele>123.1</ele>
        <time>2025-10-05T12:54:20.000Z</time>
      </trkpt>
      <trkpt lat="49.60662" lon="3.44049">
        <ele>123.3</ele>
        <time>2025-10-05T12:54:21.000Z</time>
      </trkpt>
      <trkpt lat="49.60661" lon="3.44048">
        <ele>123.4</ele>
        <time>2025-10-05T12:54:22.000Z</time>
      </trkpt>
      <trkpt lat="49.6066" lon="3.44048">
        <ele>123.3</ele>
        <time>2025-10-05T12:54:23.000Z</time>
      </trkpt>
      <trkpt lat="49.60659" lon="3.44047">
        <ele>122.9</ele>
        <time>2025-10-05T12:54:24.000Z</time>
      </trkpt>
      <trkpt lat="49.60658" lon="3.44045">
        <ele>122.5</ele>
        <time>2025-10-05T12:54:25.000Z</time>
      </trkpt>
      <trkpt lat="49.60657" lon="3.44044">
        <ele>122.2</ele>
        <time>2025-10-05T12:54:26.000Z</time>
      </trkpt>
      <trkpt lat="49.60656" lon="3.44043">
        <ele>122</ele>
        <time>2025-10-05T12:54:27.000Z</time>
      </trkpt>
      <trkpt lat="49.60655" lon="3.44042">
        <ele>121.8</ele>
        <time>2025-10-05T12:54:28.000Z</time>
      </trkpt>
      <trkpt lat="49.60654" lon="3.44042">
        <ele>121.7</ele>
        <time>2025-10-05T12:54:29.000Z</time>
      </trkpt>
      <trkpt lat="49.60653" lon="3.44041">
        <ele>121.7</ele>
        <time>2025-10-05T12:54:30.000Z</time>
      </trkpt>
      <trkpt lat="49.60651" lon="3.44041">
        <ele>121.7</ele>
        <time>2025-10-05T12:54:31.000Z</time>
      </trkpt>
      <trkpt lat="49.6065" lon="3.4404">
        <ele>121.7</ele>
        <time>2025-10-05T12:54:32.000Z</time>
      </trkpt>
      <trkpt lat="49.60649" lon="3.4404">
        <ele>121.7</ele>
        <time>2025-10-05T12:54:33.000Z</time>
      </trkpt>
      <trkpt lat="49.60648" lon="3.4404">
        <ele>121.8</ele>
        <time>2025-10-05T12:54:34.000Z</time>
      </trkpt>
      <trkpt lat="49.60646" lon="3.44039">
        <ele>121.7</ele>
        <time>2025-10-05T12:54:35.000Z</time>
      </trkpt>
      <trkpt lat="49.60645" lon="3.44038">
        <ele>121.7</ele>
        <time>2025-10-05T12:54:36.000Z</time>
      </trkpt>
      <trkpt lat="49.60643" lon="3.44037">
        <ele>121.8</ele>
        <time>2025-10-05T12:54:37.000Z</time>
      </trkpt>
      <trkpt lat="49.60642" lon="3.44036">
        <ele>122.1</ele>
        <time>2025-10-05T12:54:38.000Z</time>
      </trkpt>
      <trkpt lat="49.6064" lon="3.44035">
        <ele>122.1</ele>
        <time>2025-10-05T12:54:39.000Z</time>
      </trkpt>
      <trkpt lat="49.60638" lon="3.44034">
        <ele>122</ele>
        <time>2025-10-05T12:54:40.000Z</time>
      </trkpt>
      <trkpt lat="49.60637" lon="3.44033">
        <ele>121.7</ele>
        <time>2025-10-05T12:54:41.000Z</time>
      </trkpt>
      <trkpt lat="49.60636" lon="3.44033">
        <ele>121.4</ele>
        <time>2025-10-05T12:54:42.000Z</time>
      </trkpt>
      <trkpt lat="49.60634" lon="3.44032">
        <ele>121.1</ele>
        <time>2025-10-05T12:54:43.000Z</time>
      </trkpt>
      <trkpt lat="49.60633" lon="3.44032">
        <ele>121.2</ele>
        <time>2025-10-05T12:54:44.000Z</time>
      </trkpt>
      <trkpt lat="49.60631" lon="3.44032">
        <ele>121.1</ele>
        <time>2025-10-05T12:54:45.000Z</time>
      </trkpt>
      <trkpt lat="49.6063" lon="3.44031">
        <ele>121</ele>
        <time>2025-10-05T12:54:46.000Z</time>
      </trkpt>
      <trkpt lat="49.60628" lon="3.4403">
        <ele>121</ele>
        <time>2025-10-05T12:54:47.000Z</time>
      </trkpt>
      <trkpt lat="49.60627" lon="3.4403">
        <ele>120.9</ele>
        <time>2025-10-05T12:54:48.000Z</time>
      </trkpt>
      <trkpt lat="49.60626" lon="3.4403">
        <ele>120.7</ele>
        <time>2025-10-05T12:54:49.000Z</time>
      </trkpt>
      <trkpt lat="49.60625" lon="3.44029">
        <ele>120.6</ele>
        <time>2025-10-05T12:54:50.000Z</time>
      </trkpt>
      <trkpt lat="49.60624" lon="3.44028">
        <ele>120.3</ele>
        <time>2025-10-05T12:54:51.000Z</time>
      </trkpt>
      <trkpt lat="49.60623" lon="3.44028">
        <ele>120.1</ele>
        <time>2025-10-05T12:54:52.000Z</time>
      </trkpt>
      <trkpt lat="49.60621" lon="3.44027">
        <ele>119.6</ele>
        <time>2025-10-05T12:54:53.000Z</time>
      </trkpt>
      <trkpt lat="49.6062" lon="3.44026">
        <ele>119.8</ele>
        <time>2025-10-05T12:54:54.000Z</time>
      </trkpt>
      <trkpt lat="49.60619" lon="3.44026">
        <ele>119.9</ele>
        <time>2025-10-05T12:54:55.000Z</time>
      </trkpt>
      <trkpt lat="49.60617" lon="3.44025">
        <ele>119.9</ele>
        <time>2025-10-05T12:54:56.000Z</time>
      </trkpt>
      <trkpt lat="49.60616" lon="3.44024">
        <ele>119.8</ele>
        <time>2025-10-05T12:54:57.000Z</time>
      </trkpt>
      <trkpt lat="49.60615" lon="3.44023">
        <ele>119.7</ele>
        <time>2025-10-05T12:54:58.000Z</time>
      </trkpt>
      <trkpt lat="49.60614" lon="3.44023">
        <ele>119.6</ele>
        <time>2025-10-05T12:54:59.000Z</time>
      </trkpt>
      <trkpt lat="49.60613" lon="3.44022">
        <ele>119.6</ele>
        <time>2025-10-05T12:55:00.000Z</time>
      </trkpt>
      <trkpt lat="49.60612" lon="3.44022">
        <ele>119.7</ele>
        <time>2025-10-05T12:55:01.000Z</time>
      </trkpt>
      <trkpt lat="49.6061" lon="3.44021">
        <ele>119.8</ele>
        <time>2025-10-05T12:55:02.000Z</time>
      </trkpt>
      <trkpt lat="49.60609" lon="3.44021">
        <ele>119.8</ele>
        <time>2025-10-05T12:55:03.000Z</time>
      </trkpt>
      <trkpt lat="49.60608" lon="3.44021">
        <ele>119.9</ele>
        <time>2025-10-05T12:55:04.000Z</time>
      </trkpt>
      <trkpt lat="49.60606" lon="3.4402">
        <ele>120</ele>
        <time>2025-10-05T12:55:05.000Z</time>
      </trkpt>
      <trkpt lat="49.60605" lon="3.44019">
        <ele>120</ele>
        <time>2025-10-05T12:55:06.000Z</time>
      </trkpt>
      <trkpt lat="49.60603" lon="3.44017">
        <ele>120.3</ele>
        <time>2025-10-05T12:55:07.000Z</time>
      </trkpt>
      <trkpt lat="49.60601" lon="3.44016">
        <ele>120.4</ele>
        <time>2025-10-05T12:55:08.000Z</time>
      </trkpt>
      <trkpt lat="49.60599" lon="3.44015">
        <ele>120.7</ele>
        <time>2025-10-05T12:55:09.000Z</time>
      </trkpt>
      <trkpt lat="49.60597" lon="3.44014">
        <ele>120.9</ele>
        <time>2025-10-05T12:55:10.000Z</time>
      </trkpt>
      <trkpt lat="49.60596" lon="3.44013">
        <ele>120.6</ele>
        <time>2025-10-05T12:55:11.000Z</time>
      </trkpt>
      <trkpt lat="49.60595" lon="3.44013">
        <ele>120.3</ele>
        <time>2025-10-05T12:55:12.000Z</time>
      </trkpt>
      <trkpt lat="49.60594" lon="3.44012">
        <ele>121</ele>
        <time>2025-10-05T12:55:13.000Z</time>
      </trkpt>
      <trkpt lat="49.60592" lon="3.44011">
        <ele>121.3</ele>
        <time>2025-10-05T12:55:14.000Z</time>
      </trkpt>
      <trkpt lat="49.60591" lon="3.4401">
        <ele>121.5</ele>
        <time>2025-10-05T12:55:15.000Z</time>
      </trkpt>
      <trkpt lat="49.60589" lon="3.4401">
        <ele>120.8</ele>
        <time>2025-10-05T12:55:16.000Z</time>
      </trkpt>
      <trkpt lat="49.60588" lon="3.4401">
        <ele>121.2</ele>
        <time>2025-10-05T12:55:17.000Z</time>
      </trkpt>
      <trkpt lat="49.60587" lon="3.44009">
        <ele>121.4</ele>
        <time>2025-10-05T12:55:18.000Z</time>
      </trkpt>
      <trkpt lat="49.60586" lon="3.44009">
        <ele>121.6</ele>
        <time>2025-10-05T12:55:19.000Z</time>
      </trkpt>
      <trkpt lat="49.60586" lon="3.44008">
        <ele>121.6</ele>
        <time>2025-10-05T12:55:20.000Z</time>
      </trkpt>
      <trkpt lat="49.60585" lon="3.44007">
        <ele>121.4</ele>
        <time>2025-10-05T12:55:21.000Z</time>
      </trkpt>
      <trkpt lat="49.60584" lon="3.44007">
        <ele>121.4</ele>
        <time>2025-10-05T12:55:22.000Z</time>
      </trkpt>
      <trkpt lat="49.60583" lon="3.44006">
        <ele>121.6</ele>
        <time>2025-10-05T12:55:23.000Z</time>
      </trkpt>
      <trkpt lat="49.60582" lon="3.44006">
        <ele>121.8</ele>
        <time>2025-10-05T12:55:24.000Z</time>
      </trkpt>
      <trkpt lat="49.60581" lon="3.44006">
        <ele>122</ele>
        <time>2025-10-05T12:55:25.000Z</time>
      </trkpt>
      <trkpt lat="49.6058" lon="3.44006">
        <ele>122.1</ele>
        <time>2025-10-05T12:55:26.000Z</time>
      </trkpt>
      <trkpt lat="49.60579" lon="3.44006">
        <ele>122.2</ele>
        <time>2025-10-05T12:55:27.000Z</time>
      </trkpt>
      <trkpt lat="49.60578" lon="3.44005">
        <ele>122.2</ele>
        <time>2025-10-05T12:55:28.000Z</time>
      </trkpt>
      <trkpt lat="49.60578" lon="3.44004">
        <ele>122.2</ele>
        <time>2025-10-05T12:55:29.000Z</time>
      </trkpt>
      <trkpt lat="49.60577" lon="3.44004">
        <ele>122.4</ele>
        <time>2025-10-05T12:55:30.000Z</time>
      </trkpt>
      <trkpt lat="49.60577" lon="3.44003">
        <ele>122.7</ele>
        <time>2025-10-05T12:55:31.000Z</time>
      </trkpt>
      <trkpt lat="49.60577" lon="3.44003">
        <ele>123</ele>
        <time>2025-10-05T12:55:32.000Z</time>
      </trkpt>
      <trkpt lat="49.60576" lon="3.44003">
        <ele>123.4</ele>
        <time>2025-10-05T12:55:33.000Z</time>
      </trkpt>
      <trkpt lat="49.60575" lon="3.44004">
        <ele>123.5</ele>
        <time>2025-10-05T12:55:34.000Z</time>
      </trkpt>
      <trkpt lat="49.60573" lon="3.44004">
        <ele>123.8</ele>
        <time>2025-10-05T12:55:35.000Z</time>
      </trkpt>
      <trkpt lat="49.60572" lon="3.44003">
        <ele>124.1</ele>
        <time>2025-10-05T12:55:36.000Z</time>
      </trkpt>
      <trkpt lat="49.60571" lon="3.44002">
        <ele>124.4</ele>
        <time>2025-10-05T12:55:37.000Z</time>
      </trkpt>
      <trkpt lat="49.60569" lon="3.44001">
        <ele>124.7</ele>
        <time>2025-10-05T12:55:38.000Z</time>
      </trkpt>
      <trkpt lat="49.60568" lon="3.44">
        <ele>124.9</ele>
        <time>2025-10-05T12:55:39.000Z</time>
      </trkpt>
      <trkpt lat="49.60566" lon="3.43999">
        <ele>125.1</ele>
        <time>2025-10-05T12:55:40.000Z</time>
      </trkpt>
      <trkpt lat="49.60564" lon="3.43997">
        <ele>125.3</ele>
        <time>2025-10-05T12:55:41.000Z</time>
      </trkpt>
      <trkpt lat="49.60562" lon="3.43995">
        <ele>125.3</ele>
        <time>2025-10-05T12:55:42.000Z</time>
      </trkpt>
      <trkpt lat="49.6056" lon="3.43994">
        <ele>125.2</ele>
        <time>2025-10-05T12:55:43.000Z</time>
      </trkpt>
      <trkpt lat="49.60558" lon="3.43993">
        <ele>125</ele>
        <time>2025-10-05T12:55:44.000Z</time>
      </trkpt>
      <trkpt lat="49.60556" lon="3.43992">
        <ele>124.8</ele>
        <time>2025-10-05T12:55:45.000Z</time>
      </trkpt>
      <trkpt lat="49.60555" lon="3.43992">
        <ele>124.5</ele>
        <time>2025-10-05T12:55:46.000Z</time>
      </trkpt>
      <trkpt lat="49.60553" lon="3.43991">
        <ele>124.2</ele>
        <time>2025-10-05T12:55:47.000Z</time>
      </trkpt>
      <trkpt lat="49.60551" lon="3.4399">
        <ele>123.5</ele>
        <time>2025-10-05T12:55:48.000Z</time>
      </trkpt>
      <trkpt lat="49.6055" lon="3.43989">
        <ele>123.3</ele>
        <time>2025-10-05T12:55:49.000Z</time>
      </trkpt>
      <trkpt lat="49.60549" lon="3.43989">
        <ele>122.6</ele>
        <time>2025-10-05T12:55:50.000Z</time>
      </trkpt>
      <trkpt lat="49.60547" lon="3.43988">
        <ele>123.3</ele>
        <time>2025-10-05T12:55:51.000Z</time>
      </trkpt>
      <trkpt lat="49.60546" lon="3.43987">
        <ele>123.1</ele>
        <time>2025-10-05T12:55:52.000Z</time>
      </trkpt>
      <trkpt lat="49.60544" lon="3.43986">
        <ele>123.8</ele>
        <time>2025-10-05T12:55:53.000Z</time>
      </trkpt>
      <trkpt lat="49.60543" lon="3.43986">
        <ele>123.4</ele>
        <time>2025-10-05T12:55:54.000Z</time>
      </trkpt>
      <trkpt lat="49.60541" lon="3.43985">
        <ele>123.4</ele>
        <time>2025-10-05T12:55:55.000Z</time>
      </trkpt>
      <trkpt lat="49.60541" lon="3.43985">
        <ele>123.1</ele>
        <time>2025-10-05T12:55:56.000Z</time>
      </trkpt>
      <trkpt lat="49.6054" lon="3.43984">
        <ele>122.5</ele>
        <time>2025-10-05T12:55:57.000Z</time>
      </trkpt>
      <trkpt lat="49.60539" lon="3.43984">
        <ele>122</ele>
        <time>2025-10-05T12:55:58.000Z</time>
      </trkpt>
      <trkpt lat="49.60538" lon="3.43983">
        <ele>121.7</ele>
        <time>2025-10-05T12:55:59.000Z</time>
      </trkpt>
      <trkpt lat="49.60537" lon="3.43983">
        <ele>121.8</ele>
        <time>2025-10-05T12:56:00.000Z</time>
      </trkpt>
      <trkpt lat="49.60536" lon="3.43982">
        <ele>121.8</ele>
        <time>2025-10-05T12:56:01.000Z</time>
      </trkpt>
      <trkpt lat="49.60536" lon="3.43981">
        <ele>122</ele>
        <time>2025-10-05T12:56:02.000Z</time>
      </trkpt>
      <trkpt lat="49.60535" lon="3.43981">
        <ele>122.1</ele>
        <time>2025-10-05T12:56:03.000Z</time>
      </trkpt>
      <trkpt lat="49.60535" lon="3.4398">
        <ele>122.1</ele>
        <time>2025-10-05T12:56:04.000Z</time>
      </trkpt>
      <trkpt lat="49.60534" lon="3.4398">
        <ele>122.1</ele>
        <time>2025-10-05T12:56:05.000Z</time>
      </trkpt>
      <trkpt lat="49.60533" lon="3.4398">
        <ele>122</ele>
        <time>2025-10-05T12:56:06.000Z</time>
      </trkpt>
      <trkpt lat="49.60533" lon="3.4398">
        <ele>122.1</ele>
        <time>2025-10-05T12:56:07.000Z</time>
      </trkpt>
      <trkpt lat="49.60532" lon="3.4398">
        <ele>122.2</ele>
        <time>2025-10-05T12:56:08.000Z</time>
      </trkpt>
      <trkpt lat="49.60531" lon="3.4398">
        <ele>122.4</ele>
        <time>2025-10-05T12:56:09.000Z</time>
      </trkpt>
      <trkpt lat="49.60529" lon="3.43979">
        <ele>122.4</ele>
        <time>2025-10-05T12:56:10.000Z</time>
      </trkpt>
      <trkpt lat="49.60528" lon="3.43978">
        <ele>122.6</ele>
        <time>2025-10-05T12:56:11.000Z</time>
      </trkpt>
      <trkpt lat="49.60525" lon="3.43976">
        <ele>122.7</ele>
        <time>2025-10-05T12:56:12.000Z</time>
      </trkpt>
      <trkpt lat="49.60523" lon="3.43974">
        <ele>122.9</ele>
        <time>2025-10-05T12:56:13.000Z</time>
      </trkpt>
      <trkpt lat="49.6052" lon="3.43973">
        <ele>122.9</ele>
        <time>2025-10-05T12:56:14.000Z</time>
      </trkpt>
      <trkpt lat="49.60518" lon="3.43972">
        <ele>122.9</ele>
        <time>2025-10-05T12:56:15.000Z</time>
      </trkpt>
      <trkpt lat="49.60516" lon="3.43971">
        <ele>122.7</ele>
        <time>2025-10-05T12:56:16.000Z</time>
      </trkpt>
      <trkpt lat="49.60514" lon="3.4397">
        <ele>122.5</ele>
        <time>2025-10-05T12:56:17.000Z</time>
      </trkpt>
      <trkpt lat="49.60512" lon="3.43969">
        <ele>122.4</ele>
        <time>2025-10-05T12:56:18.000Z</time>
      </trkpt>
      <trkpt lat="49.60511" lon="3.43969">
        <ele>122.1</ele>
        <time>2025-10-05T12:56:19.000Z</time>
      </trkpt>
      <trkpt lat="49.60509" lon="3.43968">
        <ele>122</ele>
        <time>2025-10-05T12:56:20.000Z</time>
      </trkpt>
      <trkpt lat="49.60509" lon="3.43968">
        <ele>121.6</ele>
        <time>2025-10-05T12:56:21.000Z</time>
      </trkpt>
      <trkpt lat="49.60507" lon="3.43968">
        <ele>121.6</ele>
        <time>2025-10-05T12:56:22.000Z</time>
      </trkpt>
      <trkpt lat="49.60506" lon="3.43967">
        <ele>121.9</ele>
        <time>2025-10-05T12:56:23.000Z</time>
      </trkpt>
      <trkpt lat="49.60505" lon="3.43966">
        <ele>122.1</ele>
        <time>2025-10-05T12:56:24.000Z</time>
      </trkpt>
      <trkpt lat="49.60504" lon="3.43966">
        <ele>122.3</ele>
        <time>2025-10-05T12:56:25.000Z</time>
      </trkpt>
      <trkpt lat="49.60502" lon="3.43965">
        <ele>122.7</ele>
        <time>2025-10-05T12:56:26.000Z</time>
      </trkpt>
      <trkpt lat="49.60501" lon="3.43964">
        <ele>123</ele>
        <time>2025-10-05T12:56:27.000Z</time>
      </trkpt>
      <trkpt lat="49.605" lon="3.43964">
        <ele>123</ele>
        <time>2025-10-05T12:56:28.000Z</time>
      </trkpt>
      <trkpt lat="49.60499" lon="3.43963">
        <ele>123.1</ele>
        <time>2025-10-05T12:56:29.000Z</time>
      </trkpt>
      <trkpt lat="49.60498" lon="3.43963">
        <ele>123.2</ele>
        <time>2025-10-05T12:56:30.000Z</time>
      </trkpt>
      <trkpt lat="49.60497" lon="3.43963">
        <ele>123.2</ele>
        <time>2025-10-05T12:56:31.000Z</time>
      </trkpt>
      <trkpt lat="49.60496" lon="3.43962">
        <ele>123.3</ele>
        <time>2025-10-05T12:56:32.000Z</time>
      </trkpt>
      <trkpt lat="49.60495" lon="3.43961">
        <ele>123.5</ele>
        <time>2025-10-05T12:56:33.000Z</time>
      </trkpt>
      <trkpt lat="49.60495" lon="3.43961">
        <ele>124.1</ele>
        <time>2025-10-05T12:56:34.000Z</time>
      </trkpt>
      <trkpt lat="49.60495" lon="3.43961">
        <ele>124.2</ele>
        <time>2025-10-05T12:56:35.000Z</time>
      </trkpt>
      <trkpt lat="49.60494" lon="3.4396">
        <ele>124.5</ele>
        <time>2025-10-05T12:56:36.000Z</time>
      </trkpt>
      <trkpt lat="49.60494" lon="3.4396">
        <ele>124.4</ele>
        <time>2025-10-05T12:56:37.000Z</time>
      </trkpt>
      <trkpt lat="49.60493" lon="3.4396">
        <ele>124.6</ele>
        <time>2025-10-05T12:56:38.000Z</time>
      </trkpt>
      <trkpt lat="49.60493" lon="3.43959">
        <ele>124.8</ele>
        <time>2025-10-05T12:56:39.000Z</time>
      </trkpt>
      <trkpt lat="49.60492" lon="3.43959">
        <ele>125</ele>
        <time>2025-10-05T12:56:40.000Z</time>
      </trkpt>
      <trkpt lat="49.60491" lon="3.43959">
        <ele>125.1</ele>
        <time>2025-10-05T12:56:41.000Z</time>
      </trkpt>
      <trkpt lat="49.6049" lon="3.43958">
        <ele>125</ele>
        <time>2025-10-05T12:56:42.000Z</time>
      </trkpt>
      <trkpt lat="49.60488" lon="3.43957">
        <ele>125.1</ele>
        <time>2025-10-05T12:56:43.000Z</time>
      </trkpt>
      <trkpt lat="49.60487" lon="3.43956">
        <ele>125.3</ele>
        <time>2025-10-05T12:56:44.000Z</time>
      </trkpt>
      <trkpt lat="49.60485" lon="3.43955">
        <ele>125.5</ele>
        <time>2025-10-05T12:56:45.000Z</time>
      </trkpt>
      <trkpt lat="49.60483" lon="3.43953">
        <ele>125.8</ele>
        <time>2025-10-05T12:56:46.000Z</time>
      </trkpt>
      <trkpt lat="49.60481" lon="3.43952">
        <ele>126.1</ele>
        <time>2025-10-05T12:56:47.000Z</time>
      </trkpt>
      <trkpt lat="49.60479" lon="3.4395">
        <ele>126.3</ele>
        <time>2025-10-05T12:56:48.000Z</time>
      </trkpt>
      <trkpt lat="49.60477" lon="3.43948">
        <ele>126.2</ele>
        <time>2025-10-05T12:56:49.000Z</time>
      </trkpt>
      <trkpt lat="49.60475" lon="3.43947">
        <ele>126.3</ele>
        <time>2025-10-05T12:56:50.000Z</time>
      </trkpt>
      <trkpt lat="49.60474" lon="3.43946">
        <ele>126.4</ele>
        <time>2025-10-05T12:56:51.000Z</time>
      </trkpt>
      <trkpt lat="49.60472" lon="3.43945">
        <ele>126.1</ele>
        <time>2025-10-05T12:56:52.000Z</time>
      </trkpt>
      <trkpt lat="49.6047" lon="3.43945">
        <ele>126.1</ele>
        <time>2025-10-05T12:56:53.000Z</time>
      </trkpt>
      <trkpt lat="49.60469" lon="3.43944">
        <ele>125.1</ele>
        <time>2025-10-05T12:56:54.000Z</time>
      </trkpt>
      <trkpt lat="49.60468" lon="3.43943">
        <ele>125.3</ele>
        <time>2025-10-05T12:56:55.000Z</time>
      </trkpt>
      <trkpt lat="49.60466" lon="3.43942">
        <ele>125.8</ele>
        <time>2025-10-05T12:56:56.000Z</time>
      </trkpt>
      <trkpt lat="49.60464" lon="3.43941">
        <ele>126</ele>
        <time>2025-10-05T12:56:57.000Z</time>
      </trkpt>
      <trkpt lat="49.60463" lon="3.43941">
        <ele>125.9</ele>
        <time>2025-10-05T12:56:58.000Z</time>
      </trkpt>
      <trkpt lat="49.60462" lon="3.4394">
        <ele>125.5</ele>
        <time>2025-10-05T12:56:59.000Z</time>
      </trkpt>
      <trkpt lat="49.60461" lon="3.4394">
        <ele>125.9</ele>
        <time>2025-10-05T12:57:00.000Z</time>
      </trkpt>
      <trkpt lat="49.6046" lon="3.43939">
        <ele>125.7</ele>
        <time>2025-10-05T12:57:01.000Z</time>
      </trkpt>
      <trkpt lat="49.60459" lon="3.43939">
        <ele>126.1</ele>
        <time>2025-10-05T12:57:02.000Z</time>
      </trkpt>
      <trkpt lat="49.60458" lon="3.43938">
        <ele>126.6</ele>
        <time>2025-10-05T12:57:03.000Z</time>
      </trkpt>
      <trkpt lat="49.60458" lon="3.43937">
        <ele>126.8</ele>
        <time>2025-10-05T12:57:04.000Z</time>
      </trkpt>
      <trkpt lat="49.60457" lon="3.43936">
        <ele>127</ele>
        <time>2025-10-05T12:57:05.000Z</time>
      </trkpt>
      <trkpt lat="49.60456" lon="3.43936">
        <ele>127.1</ele>
        <time>2025-10-05T12:57:06.000Z</time>
      </trkpt>
      <trkpt lat="49.60455" lon="3.43935">
        <ele>127.2</ele>
        <time>2025-10-05T12:57:07.000Z</time>
      </trkpt>
      <trkpt lat="49.60455" lon="3.43934">
        <ele>127.8</ele>
        <time>2025-10-05T12:57:08.000Z</time>
      </trkpt>
      <trkpt lat="49.60454" lon="3.43933">
        <ele>128.4</ele>
        <time>2025-10-05T12:57:09.000Z</time>
      </trkpt>
      <trkpt lat="49.60453" lon="3.43932">
        <ele>128.8</ele>
        <time>2025-10-05T12:57:10.000Z</time>
      </trkpt>
      <trkpt lat="49.60451" lon="3.43932">
        <ele>129.4</ele>
        <time>2025-10-05T12:57:11.000Z</time>
      </trkpt>
      <trkpt lat="49.6045" lon="3.43931">
        <ele>129.7</ele>
        <time>2025-10-05T12:57:12.000Z</time>
      </trkpt>
      <trkpt lat="49.60448" lon="3.4393">
        <ele>129.8</ele>
        <time>2025-10-05T12:57:13.000Z</time>
      </trkpt>
      <trkpt lat="49.60446" lon="3.43929">
        <ele>130.2</ele>
        <time>2025-10-05T12:57:14.000Z</time>
      </trkpt>
      <trkpt lat="49.60445" lon="3.43928">
        <ele>130.4</ele>
        <time>2025-10-05T12:57:15.000Z</time>
      </trkpt>
      <trkpt lat="49.60443" lon="3.43927">
        <ele>130.5</ele>
        <time>2025-10-05T12:57:16.000Z</time>
      </trkpt>
      <trkpt lat="49.60442" lon="3.43925">
        <ele>130.5</ele>
        <time>2025-10-05T12:57:17.000Z</time>
      </trkpt>
      <trkpt lat="49.6044" lon="3.43924">
        <ele>130.5</ele>
        <time>2025-10-05T12:57:18.000Z</time>
      </trkpt>
      <trkpt lat="49.60438" lon="3.43922">
        <ele>130.3</ele>
        <time>2025-10-05T12:57:19.000Z</time>
      </trkpt>
      <trkpt lat="49.60436" lon="3.43921">
        <ele>130.4</ele>
        <time>2025-10-05T12:57:20.000Z</time>
      </trkpt>
      <trkpt lat="49.60434" lon="3.4392">
        <ele>130.5</ele>
        <time>2025-10-05T12:57:21.000Z</time>
      </trkpt>
      <trkpt lat="49.60433" lon="3.43919">
        <ele>130.4</ele>
        <time>2025-10-05T12:57:22.000Z</time>
      </trkpt>
      <trkpt lat="49.60432" lon="3.43918">
        <ele>130.2</ele>
        <time>2025-10-05T12:57:23.000Z</time>
      </trkpt>
      <trkpt lat="49.60431" lon="3.43917">
        <ele>130.1</ele>
        <time>2025-10-05T12:57:24.000Z</time>
      </trkpt>
      <trkpt lat="49.60429" lon="3.43916">
        <ele>129.7</ele>
        <time>2025-10-05T12:57:25.000Z</time>
      </trkpt>
      <trkpt lat="49.60428" lon="3.43915">
        <ele>129.8</ele>
        <time>2025-10-05T12:57:26.000Z</time>
      </trkpt>
      <trkpt lat="49.60427" lon="3.43914">
        <ele>129.9</ele>
        <time>2025-10-05T12:57:27.000Z</time>
      </trkpt>
      <trkpt lat="49.60426" lon="3.43913">
        <ele>129.7</ele>
        <time>2025-10-05T12:57:28.000Z</time>
      </trkpt>
      <trkpt lat="49.60424" lon="3.43912">
        <ele>129.5</ele>
        <time>2025-10-05T12:57:29.000Z</time>
      </trkpt>
      <trkpt lat="49.60423" lon="3.43911">
        <ele>128.8</ele>
        <time>2025-10-05T12:57:30.000Z</time>
      </trkpt>
      <trkpt lat="49.60422" lon="3.4391">
        <ele>129</ele>
        <time>2025-10-05T12:57:31.000Z</time>
      </trkpt>
      <trkpt lat="49.60421" lon="3.43909">
        <ele>128.4</ele>
        <time>2025-10-05T12:57:32.000Z</time>
      </trkpt>
      <trkpt lat="49.6042" lon="3.43908">
        <ele>128</ele>
        <time>2025-10-05T12:57:33.000Z</time>
      </trkpt>
      <trkpt lat="49.60419" lon="3.43907">
        <ele>128.4</ele>
        <time>2025-10-05T12:57:34.000Z</time>
      </trkpt>
      <trkpt lat="49.60418" lon="3.43906">
        <ele>128.7</ele>
        <time>2025-10-05T12:57:35.000Z</time>
      </trkpt>
      <trkpt lat="49.60417" lon="3.43906">
        <ele>129</ele>
        <time>2025-10-05T12:57:36.000Z</time>
      </trkpt>
      <trkpt lat="49.60416" lon="3.43905">
        <ele>129.3</ele>
        <time>2025-10-05T12:57:37.000Z</time>
      </trkpt>
      <trkpt lat="49.60415" lon="3.43904">
        <ele>129.7</ele>
        <time>2025-10-05T12:57:38.000Z</time>
      </trkpt>
      <trkpt lat="49.60414" lon="3.43903">
        <ele>129.9</ele>
        <time>2025-10-05T12:57:39.000Z</time>
      </trkpt>
      <trkpt lat="49.60412" lon="3.43902">
        <ele>130</ele>
        <time>2025-10-05T12:57:40.000Z</time>
      </trkpt>
      <trkpt lat="49.60411" lon="3.43901">
        <ele>130.2</ele>
        <time>2025-10-05T12:57:41.000Z</time>
      </trkpt>
      <trkpt lat="49.6041" lon="3.439">
        <ele>130.3</ele>
        <time>2025-10-05T12:57:42.000Z</time>
      </trkpt>
      <trkpt lat="49.60409" lon="3.43899">
        <ele>130.5</ele>
        <time>2025-10-05T12:57:43.000Z</time>
      </trkpt>
      <trkpt lat="49.60408" lon="3.43898">
        <ele>130.8</ele>
        <time>2025-10-05T12:57:44.000Z</time>
      </trkpt>
      <trkpt lat="49.60407" lon="3.43896">
        <ele>131.4</ele>
        <time>2025-10-05T12:57:45.000Z</time>
      </trkpt>
      <trkpt lat="49.60406" lon="3.43895">
        <ele>131.9</ele>
        <time>2025-10-05T12:57:46.000Z</time>
      </trkpt>
      <trkpt lat="49.60405" lon="3.43894">
        <ele>132.2</ele>
        <time>2025-10-05T12:57:47.000Z</time>
      </trkpt>
      <trkpt lat="49.60404" lon="3.43893">
        <ele>132.4</ele>
        <time>2025-10-05T12:57:48.000Z</time>
      </trkpt>
      <trkpt lat="49.60403" lon="3.43892">
        <ele>132.3</ele>
        <time>2025-10-05T12:57:49.000Z</time>
      </trkpt>
      <trkpt lat="49.60401" lon="3.4389">
        <ele>131.4</ele>
        <time>2025-10-05T12:57:50.000Z</time>
      </trkpt>
      <trkpt lat="49.60399" lon="3.4389">
        <ele>130.8</ele>
        <time>2025-10-05T12:57:51.000Z</time>
      </trkpt>
      <trkpt lat="49.60398" lon="3.4389">
        <ele>130.8</ele>
        <time>2025-10-05T12:57:52.000Z</time>
      </trkpt>
      <trkpt lat="49.60396" lon="3.43891">
        <ele>130.6</ele>
        <time>2025-10-05T12:57:53.000Z</time>
      </trkpt>
      <trkpt lat="49.60394" lon="3.43891">
        <ele>129.9</ele>
        <time>2025-10-05T12:57:54.000Z</time>
      </trkpt>
      <trkpt lat="49.60393" lon="3.43892">
        <ele>130</ele>
        <time>2025-10-05T12:57:55.000Z</time>
      </trkpt>
      <trkpt lat="49.60392" lon="3.43893">
        <ele>129.5</ele>
        <time>2025-10-05T12:57:56.000Z</time>
      </trkpt>
      <trkpt lat="49.6039" lon="3.43895">
        <ele>128.9</ele>
        <time>2025-10-05T12:57:57.000Z</time>
      </trkpt>
      <trkpt lat="49.6039" lon="3.43897">
        <ele>128.7</ele>
        <time>2025-10-05T12:57:58.000Z</time>
      </trkpt>
      <trkpt lat="49.6039" lon="3.43899">
        <ele>128.4</ele>
        <time>2025-10-05T12:57:59.000Z</time>
      </trkpt>
      <trkpt lat="49.6039" lon="3.439">
        <ele>128.5</ele>
        <time>2025-10-05T12:58:00.000Z</time>
      </trkpt>
      <trkpt lat="49.6039" lon="3.43901">
        <ele>128.7</ele>
        <time>2025-10-05T12:58:01.000Z</time>
      </trkpt>
      <trkpt lat="49.6039" lon="3.43902">
        <ele>129.1</ele>
        <time>2025-10-05T12:58:02.000Z</time>
      </trkpt>
      <trkpt lat="49.6039" lon="3.43902">
        <ele>129.1</ele>
        <time>2025-10-05T12:58:03.000Z</time>
      </trkpt>
      <trkpt lat="49.6039" lon="3.43902">
        <ele>129.2</ele>
        <time>2025-10-05T12:58:04.000Z</time>
      </trkpt>
      <trkpt lat="49.60391" lon="3.43902">
        <ele>128.8</ele>
        <time>2025-10-05T12:58:05.000Z</time>
      </trkpt>
      <trkpt lat="49.60391" lon="3.43903">
        <ele>129</ele>
        <time>2025-10-05T12:58:06.000Z</time>
      </trkpt>
      <trkpt lat="49.60391" lon="3.43903">
        <ele>129.1</ele>
        <time>2025-10-05T12:58:07.000Z</time>
      </trkpt>
      <trkpt lat="49.60392" lon="3.43904">
        <ele>129.4</ele>
        <time>2025-10-05T12:58:08.000Z</time>
      </trkpt>
      <trkpt lat="49.60392" lon="3.43904">
        <ele>129.5</ele>
        <time>2025-10-05T12:58:09.000Z</time>
      </trkpt>
      <trkpt lat="49.60392" lon="3.43904">
        <ele>129.5</ele>
        <time>2025-10-05T12:58:10.000Z</time>
      </trkpt>
      <trkpt lat="49.60393" lon="3.43904">
        <ele>129.6</ele>
        <time>2025-10-05T12:58:11.000Z</time>
      </trkpt>
      <trkpt lat="49.60393" lon="3.43904">
        <ele>129.7</ele>
        <time>2025-10-05T12:58:12.000Z</time>
      </trkpt>
      <trkpt lat="49.60393" lon="3.43904">
        <ele>129.5</ele>
        <time>2025-10-05T12:58:13.000Z</time>
      </trkpt>
      <trkpt lat="49.60393" lon="3.43904">
        <ele>129.5</ele>
        <time>2025-10-05T12:58:14.000Z</time>
      </trkpt>
      <trkpt lat="49.60393" lon="3.43904">
        <ele>129.5</ele>
        <time>2025-10-05T12:58:15.000Z</time>
      </trkpt>
      <trkpt lat="49.60393" lon="3.43904">
        <ele>129.5</ele>
        <time>2025-10-05T12:58:16.000Z</time>
      </trkpt>
      <trkpt lat="49.60393" lon="3.43904">
        <ele>129.5</ele>
        <time>2025-10-05T12:58:17.000Z</time>
      </trkpt>
      <trkpt lat="49.60393" lon="3.43904">
        <ele>129.5</ele>
        <time>2025-10-05T12:58:18.000Z</time>
      </trkpt>
      <trkpt lat="49.60393" lon="3.43904">
        <ele>129.5</ele>
        <time>2025-10-05T12:58:19.000Z</time>
      </trkpt>
      <trkpt lat="49.60393" lon="3.43904">
        <ele>129.5</ele>
        <time>2025-10-05T12:58:20.000Z</time>
      </trkpt>
      <trkpt lat="49.60393" lon="3.43904">
        <ele>129.5</ele>
        <time>2025-10-05T12:58:21.000Z</time>
      </trkpt>
      <trkpt lat="49.60393" lon="3.43904">
        <ele>129.5</ele>
        <time>2025-10-05T12:58:22.000Z</time>
      </trkpt>
      <trkpt lat="49.60393" lon="3.43904">
        <ele>129.5</ele>
        <time>2025-10-05T12:58:23.000Z</time>
      </trkpt>
      <trkpt lat="49.60393" lon="3.43904">
        <ele>129.5</ele>
        <time>2025-10-05T12:58:24.000Z</time>
      </trkpt>
      <trkpt lat="49.60393" lon="3.43904">
        <ele>129.5</ele>
        <time>2025-10-05T12:58:25.000Z</time>
      </trkpt>
      <trkpt lat="49.60393" lon="3.43904">
        <ele>129.5</ele>
        <time>2025-10-05T12:58:26.000Z</time>
      </trkpt>
      <trkpt lat="49.60393" lon="3.43904">
        <ele>129.5</ele>
        <time>2025-10-05T12:58:27.000Z</time>
      </trkpt>
      <trkpt lat="49.60393" lon="3.43904">
        <ele>129.5</ele>
        <time>2025-10-05T12:58:28.000Z</time>
      </trkpt>
      <trkpt lat="49.60393" lon="3.43904">
        <ele>129.5</ele>
        <time>2025-10-05T12:58:29.000Z</time>
      </trkpt>
      <trkpt lat="49.60393" lon="3.43904">
        <ele>129.5</ele>
        <time>2025-10-05T12:58:30.000Z</time>
      </trkpt>
      <trkpt lat="49.60393" lon="3.43904">
        <ele>129.5</ele>
        <time>2025-10-05T12:58:31.000Z</time>
      </trkpt>
      <trkpt lat="49.60393" lon="3.43904">
        <ele>129.5</ele>
        <time>2025-10-05T12:58:32.000Z</time>
      </trkpt>
      <trkpt lat="49.60393" lon="3.43904">
        <ele>126</ele>
        <time>2025-10-05T12:58:33.000Z</time>
      </trkpt>
      <trkpt lat="49.60393" lon="3.43904">
        <ele>126</ele>
        <time>2025-10-05T12:58:34.000Z</time>
      </trkpt>
      <trkpt lat="49.60393" lon="3.43904">
        <ele>126</ele>
        <time>2025-10-05T12:58:35.000Z</time>
      </trkpt>
      <trkpt lat="49.60393" lon="3.43904">
        <ele>126</ele>
        <time>2025-10-05T12:58:36.000Z</time>
      </trkpt>
      <trkpt lat="49.60393" lon="3.43904">
        <ele>126</ele>
        <time>2025-10-05T12:58:37.000Z</time>
      </trkpt>
      <trkpt lat="49.60393" lon="3.43904">
        <ele>126</ele>
        <time>2025-10-05T12:58:38.000Z</time>
      </trkpt>
      <trkpt lat="49.60393" lon="3.43904">
        <ele>126</ele>
        <time>2025-10-05T12:58:39.000Z</time>
      </trkpt>
      <trkpt lat="49.60393" lon="3.43904">
        <ele>126</ele>
        <time>2025-10-05T12:58:40.000Z</time>
      </trkpt>
      <trkpt lat="49.60393" lon="3.43904">
        <ele>126</ele>
        <time>2025-10-05T12:58:41.000Z</time>
      </trkpt>
      <trkpt lat="49.60394" lon="3.43907">
        <ele>129.7</ele>
        <time>2025-10-05T12:58:42.000Z</time>
      </trkpt>
      <trkpt lat="49.60393" lon="3.43907">
        <ele>130.1</ele>
        <time>2025-10-05T12:58:43.000Z</time>
      </trkpt>
      <trkpt lat="49.60393" lon="3.43908">
        <ele>130.4</ele>
        <time>2025-10-05T12:58:44.000Z</time>
      </trkpt>
      <trkpt lat="49.60392" lon="3.43909">
        <ele>130.7</ele>
        <time>2025-10-05T12:58:45.000Z</time>
      </trkpt>
      <trkpt lat="49.60392" lon="3.4391">
        <ele>131</ele>
        <time>2025-10-05T12:58:46.000Z</time>
      </trkpt>
      <trkpt lat="49.60392" lon="3.43912">
        <ele>131.1</ele>
        <time>2025-10-05T12:58:47.000Z</time>
      </trkpt>
      <trkpt lat="49.60392" lon="3.43913">
        <ele>131.3</ele>
        <time>2025-10-05T12:58:48.000Z</time>
      </trkpt>
      <trkpt lat="49.60391" lon="3.43915">
        <ele>131.5</ele>
        <time>2025-10-05T12:58:49.000Z</time>
      </trkpt>
      <trkpt lat="49.60391" lon="3.43917">
        <ele>131.6</ele>
        <time>2025-10-05T12:58:50.000Z</time>
      </trkpt>
      <trkpt lat="49.6039" lon="3.43919">
        <ele>131.7</ele>
        <time>2025-10-05T12:58:51.000Z</time>
      </trkpt>
      <trkpt lat="49.60389" lon="3.43921">
        <ele>131.6</ele>
        <time>2025-10-05T12:58:52.000Z</time>
      </trkpt>
      <trkpt lat="49.60388" lon="3.43923">
        <ele>131.2</ele>
        <time>2025-10-05T12:58:53.000Z</time>
      </trkpt>
      <trkpt lat="49.60386" lon="3.43924">
        <ele>130.7</ele>
        <time>2025-10-05T12:58:54.000Z</time>
      </trkpt>
      <trkpt lat="49.60385" lon="3.43926">
        <ele>130.3</ele>
        <time>2025-10-05T12:58:55.000Z</time>
      </trkpt>
      <trkpt lat="49.60383" lon="3.43927">
        <ele>129.8</ele>
        <time>2025-10-05T12:58:56.000Z</time>
      </trkpt>
      <trkpt lat="49.60382" lon="3.43929">
        <ele>129.9</ele>
        <time>2025-10-05T12:58:57.000Z</time>
      </trkpt>
      <trkpt lat="49.60381" lon="3.4393">
        <ele>129.9</ele>
        <time>2025-10-05T12:58:58.000Z</time>
      </trkpt>
      <trkpt lat="49.60381" lon="3.43931">
        <ele>129.5</ele>
        <time>2025-10-05T12:58:59.000Z</time>
      </trkpt>
      <trkpt lat="49.60381" lon="3.43932">
        <ele>130</ele>
        <time>2025-10-05T12:59:00.000Z</time>
      </trkpt>
      <trkpt lat="49.60381" lon="3.43933">
        <ele>130.3</ele>
        <time>2025-10-05T12:59:01.000Z</time>
      </trkpt>
      <trkpt lat="49.6038" lon="3.43933">
        <ele>130.8</ele>
        <time>2025-10-05T12:59:02.000Z</time>
      </trkpt>
      <trkpt lat="49.6038" lon="3.43934">
        <ele>131.1</ele>
        <time>2025-10-05T12:59:03.000Z</time>
      </trkpt>
      <trkpt lat="49.6038" lon="3.43935">
        <ele>131.2</ele>
        <time>2025-10-05T12:59:04.000Z</time>
      </trkpt>
      <trkpt lat="49.6038" lon="3.43936">
        <ele>131.3</ele>
        <time>2025-10-05T12:59:05.000Z</time>
      </trkpt>
      <trkpt lat="49.60379" lon="3.43938">
        <ele>131.3</ele>
        <time>2025-10-05T12:59:06.000Z</time>
      </trkpt>
      <trkpt lat="49.60379" lon="3.43939">
        <ele>131.5</ele>
        <time>2025-10-05T12:59:07.000Z</time>
      </trkpt>
      <trkpt lat="49.60378" lon="3.43941">
        <ele>131.6</ele>
        <time>2025-10-05T12:59:08.000Z</time>
      </trkpt>
      <trkpt lat="49.60377" lon="3.43943">
        <ele>131.8</ele>
        <time>2025-10-05T12:59:09.000Z</time>
      </trkpt>
      <trkpt lat="49.60377" lon="3.43945">
        <ele>132</ele>
        <time>2025-10-05T12:59:10.000Z</time>
      </trkpt>
      <trkpt lat="49.60376" lon="3.43947">
        <ele>132.4</ele>
        <time>2025-10-05T12:59:11.000Z</time>
      </trkpt>
      <trkpt lat="49.60375" lon="3.43949">
        <ele>133</ele>
        <time>2025-10-05T12:59:12.000Z</time>
      </trkpt>
      <trkpt lat="49.60374" lon="3.4395">
        <ele>133.6</ele>
        <time>2025-10-05T12:59:13.000Z</time>
      </trkpt>
      <trkpt lat="49.60373" lon="3.43951">
        <ele>134.3</ele>
        <time>2025-10-05T12:59:14.000Z</time>
      </trkpt>
      <trkpt lat="49.60372" lon="3.43952">
        <ele>135.1</ele>
        <time>2025-10-05T12:59:15.000Z</time>
      </trkpt>
      <trkpt lat="49.60372" lon="3.43953">
        <ele>135.8</ele>
        <time>2025-10-05T12:59:16.000Z</time>
      </trkpt>
      <trkpt lat="49.60372" lon="3.43953">
        <ele>136.4</ele>
        <time>2025-10-05T12:59:17.000Z</time>
      </trkpt>
      <trkpt lat="49.60371" lon="3.43953">
        <ele>136.7</ele>
        <time>2025-10-05T12:59:18.000Z</time>
      </trkpt>
      <trkpt lat="49.60371" lon="3.43953">
        <ele>136.9</ele>
        <time>2025-10-05T12:59:19.000Z</time>
      </trkpt>
      <trkpt lat="49.60371" lon="3.43954">
        <ele>137</ele>
        <time>2025-10-05T12:59:20.000Z</time>
      </trkpt>
      <trkpt lat="49.6037" lon="3.43955">
        <ele>137</ele>
        <time>2025-10-05T12:59:21.000Z</time>
      </trkpt>
      <trkpt lat="49.6037" lon="3.43956">
        <ele>137.2</ele>
        <time>2025-10-05T12:59:22.000Z</time>
      </trkpt>
      <trkpt lat="49.60369" lon="3.43957">
        <ele>137.4</ele>
        <time>2025-10-05T12:59:23.000Z</time>
      </trkpt>
      <trkpt lat="49.60369" lon="3.43958">
        <ele>137.6</ele>
        <time>2025-10-05T12:59:24.000Z</time>
      </trkpt>
      <trkpt lat="49.60368" lon="3.4396">
        <ele>137.9</ele>
        <time>2025-10-05T12:59:25.000Z</time>
      </trkpt>
      <trkpt lat="49.60367" lon="3.43962">
        <ele>137.9</ele>
        <time>2025-10-05T12:59:26.000Z</time>
      </trkpt>
      <trkpt lat="49.60367" lon="3.43964">
        <ele>138.1</ele>
        <time>2025-10-05T12:59:27.000Z</time>
      </trkpt>
      <trkpt lat="49.60366" lon="3.43966">
        <ele>138.3</ele>
        <time>2025-10-05T12:59:28.000Z</time>
      </trkpt>
      <trkpt lat="49.60365" lon="3.43968">
        <ele>138.7</ele>
        <time>2025-10-05T12:59:29.000Z</time>
      </trkpt>
      <trkpt lat="49.60364" lon="3.4397">
        <ele>139</ele>
        <time>2025-10-05T12:59:30.000Z</time>
      </trkpt>
      <trkpt lat="49.60364" lon="3.43972">
        <ele>139.5</ele>
        <time>2025-10-05T12:59:31.000Z</time>
      </trkpt>
      <trkpt lat="49.60363" lon="3.43974">
        <ele>140.3</ele>
        <time>2025-10-05T12:59:32.000Z</time>
      </trkpt>
      <trkpt lat="49.60363" lon="3.43975">
        <ele>140.6</ele>
        <time>2025-10-05T12:59:33.000Z</time>
      </trkpt>
      <trkpt lat="49.60362" lon="3.43976">
        <ele>141</ele>
        <time>2025-10-05T12:59:34.000Z</time>
      </trkpt>
      <trkpt lat="49.60362" lon="3.43976">
        <ele>141.2</ele>
        <time>2025-10-05T12:59:35.000Z</time>
      </trkpt>
      <trkpt lat="49.60361" lon="3.43977">
        <ele>141.7</ele>
        <time>2025-10-05T12:59:36.000Z</time>
      </trkpt>
      <trkpt lat="49.60361" lon="3.43977">
        <ele>142.4</ele>
        <time>2025-10-05T12:59:37.000Z</time>
      </trkpt>
      <trkpt lat="49.60361" lon="3.43977">
        <ele>143</ele>
        <time>2025-10-05T12:59:38.000Z</time>
      </trkpt>
      <trkpt lat="49.60361" lon="3.43977">
        <ele>143.6</ele>
        <time>2025-10-05T12:59:39.000Z</time>
      </trkpt>
      <trkpt lat="49.6036" lon="3.43978">
        <ele>143.7</ele>
        <time>2025-10-05T12:59:40.000Z</time>
      </trkpt>
      <trkpt lat="49.6036" lon="3.43979">
        <ele>144</ele>
        <time>2025-10-05T12:59:41.000Z</time>
      </trkpt>
      <trkpt lat="49.60359" lon="3.4398">
        <ele>144.2</ele>
        <time>2025-10-05T12:59:42.000Z</time>
      </trkpt>
      <trkpt lat="49.60358" lon="3.43981">
        <ele>144.3</ele>
        <time>2025-10-05T12:59:43.000Z</time>
      </trkpt>
      <trkpt lat="49.60357" lon="3.43982">
        <ele>144.2</ele>
        <time>2025-10-05T12:59:44.000Z</time>
      </trkpt>
      <trkpt lat="49.60357" lon="3.43982">
        <ele>144</ele>
        <time>2025-10-05T12:59:45.000Z</time>
      </trkpt>
      <trkpt lat="49.60357" lon="3.43982">
        <ele>143.8</ele>
        <time>2025-10-05T12:59:46.000Z</time>
      </trkpt>
      <trkpt lat="49.60356" lon="3.43982">
        <ele>144.1</ele>
        <time>2025-10-05T12:59:47.000Z</time>
      </trkpt>
      <trkpt lat="49.60356" lon="3.43983">
        <ele>144</ele>
        <time>2025-10-05T12:59:48.000Z</time>
      </trkpt>
      <trkpt lat="49.60356" lon="3.43983">
        <ele>144.2</ele>
        <time>2025-10-05T12:59:49.000Z</time>
      </trkpt>
      <trkpt lat="49.60356" lon="3.43983">
        <ele>143.8</ele>
        <time>2025-10-05T12:59:50.000Z</time>
      </trkpt>
      <trkpt lat="49.60356" lon="3.43983">
        <ele>143.6</ele>
        <time>2025-10-05T12:59:51.000Z</time>
      </trkpt>
      <trkpt lat="49.60356" lon="3.43983">
        <ele>143.2</ele>
        <time>2025-10-05T12:59:52.000Z</time>
      </trkpt>
      <trkpt lat="49.60356" lon="3.43983">
        <ele>143.3</ele>
        <time>2025-10-05T12:59:53.000Z</time>
      </trkpt>
      <trkpt lat="49.60356" lon="3.43984">
        <ele>143.1</ele>
        <time>2025-10-05T12:59:54.000Z</time>
      </trkpt>
      <trkpt lat="49.60356" lon="3.43984">
        <ele>142.8</ele>
        <time>2025-10-05T12:59:55.000Z</time>
      </trkpt>
      <trkpt lat="49.60356" lon="3.43984">
        <ele>142.8</ele>
        <time>2025-10-05T12:59:56.000Z</time>
      </trkpt>
      <trkpt lat="49.60356" lon="3.43984">
        <ele>142.8</ele>
        <time>2025-10-05T12:59:57.000Z</time>
      </trkpt>
      <trkpt lat="49.60356" lon="3.43984">
        <ele>142.8</ele>
        <time>2025-10-05T12:59:58.000Z</time>
      </trkpt>
      <trkpt lat="49.60356" lon="3.43984">
        <ele>142.8</ele>
        <time>2025-10-05T12:59:59.000Z</time>
      </trkpt>
      <trkpt lat="49.60356" lon="3.43984">
        <ele>142.8</ele>
        <time>2025-10-05T13:00:00.000Z</time>
      </trkpt>
      <trkpt lat="49.60356" lon="3.43984">
        <ele>142.8</ele>
        <time>2025-10-05T13:00:01.000Z</time>
      </trkpt>
      <trkpt lat="49.60356" lon="3.43984">
        <ele>142.8</ele>
        <time>2025-10-05T13:00:02.000Z</time>
      </trkpt>
      <trkpt lat="49.60356" lon="3.43984">
        <ele>142.8</ele>
        <time>2025-10-05T13:00:03.000Z</time>
      </trkpt>
      <trkpt lat="49.60357" lon="3.43986">
        <ele>141.9</ele>
        <time>2025-10-05T13:00:04.000Z</time>
      </trkpt>
      <trkpt lat="49.60357" lon="3.43985">
        <ele>141.9</ele>
        <time>2025-10-05T13:00:05.000Z</time>
      </trkpt>
      <trkpt lat="49.60357" lon="3.43985">
        <ele>141.9</ele>
        <time>2025-10-05T13:00:06.000Z</time>
      </trkpt>
      <trkpt lat="49.60357" lon="3.43985">
        <ele>141.8</ele>
        <time>2025-10-05T13:00:07.000Z</time>
      </trkpt>
      <trkpt lat="49.60357" lon="3.43985">
        <ele>141.9</ele>
        <time>2025-10-05T13:00:08.000Z</time>
      </trkpt>
      <trkpt lat="49.60357" lon="3.43985">
        <ele>141.8</ele>
        <time>2025-10-05T13:00:09.000Z</time>
      </trkpt>
      <trkpt lat="49.60356" lon="3.43985">
        <ele>142</ele>
        <time>2025-10-05T13:00:10.000Z</time>
      </trkpt>
      <trkpt lat="49.60356" lon="3.43984">
        <ele>142.1</ele>
        <time>2025-10-05T13:00:11.000Z</time>
      </trkpt>
      <trkpt lat="49.60356" lon="3.43984">
        <ele>142.1</ele>
        <time>2025-10-05T13:00:12.000Z</time>
      </trkpt>
      <trkpt lat="49.60356" lon="3.43984">
        <ele>142.1</ele>
        <time>2025-10-05T13:00:13.000Z</time>
      </trkpt>
      <trkpt lat="49.60355" lon="3.43981">
        <ele>143</ele>
        <time>2025-10-05T13:00:14.000Z</time>
      </trkpt>
      <trkpt lat="49.60355" lon="3.43981">
        <ele>143.4</ele>
        <time>2025-10-05T13:00:15.000Z</time>
      </trkpt>
      <trkpt lat="49.60354" lon="3.4398">
        <ele>143.7</ele>
        <time>2025-10-05T13:00:16.000Z</time>
      </trkpt>
      <trkpt lat="49.60354" lon="3.43979">
        <ele>143.7</ele>
        <time>2025-10-05T13:00:17.000Z</time>
      </trkpt>
      <trkpt lat="49.60353" lon="3.43978">
        <ele>143.7</ele>
        <time>2025-10-05T13:00:18.000Z</time>
      </trkpt>
      <trkpt lat="49.60353" lon="3.43976">
        <ele>143.7</ele>
        <time>2025-10-05T13:00:19.000Z</time>
      </trkpt>
      <trkpt lat="49.60353" lon="3.43976">
        <ele>144.1</ele>
        <time>2025-10-05T13:00:20.000Z</time>
      </trkpt>
      <trkpt lat="49.60353" lon="3.43976">
        <ele>144.4</ele>
        <time>2025-10-05T13:00:21.000Z</time>
      </trkpt>
      <trkpt lat="49.60353" lon="3.43975">
        <ele>144.5</ele>
        <time>2025-10-05T13:00:22.000Z</time>
      </trkpt>
      <trkpt lat="49.60352" lon="3.43975">
        <ele>144.4</ele>
        <time>2025-10-05T13:00:23.000Z</time>
      </trkpt>
      <trkpt lat="49.60352" lon="3.43975">
        <ele>144.3</ele>
        <time>2025-10-05T13:00:24.000Z</time>
      </trkpt>
      <trkpt lat="49.60352" lon="3.43975">
        <ele>144.2</ele>
        <time>2025-10-05T13:00:25.000Z</time>
      </trkpt>
      <trkpt lat="49.60352" lon="3.43975">
        <ele>144.1</ele>
        <time>2025-10-05T13:00:26.000Z</time>
      </trkpt>
      <trkpt lat="49.60352" lon="3.43975">
        <ele>144</ele>
        <time>2025-10-05T13:00:27.000Z</time>
      </trkpt>
      <trkpt lat="49.60353" lon="3.43975">
        <ele>143.8</ele>
        <time>2025-10-05T13:00:28.000Z</time>
      </trkpt>
      <trkpt lat="49.60353" lon="3.43975">
        <ele>143.8</ele>
        <time>2025-10-05T13:00:29.000Z</time>
      </trkpt>
      <trkpt lat="49.60353" lon="3.43975">
        <ele>143.8</ele>
        <time>2025-10-05T13:00:30.000Z</time>
      </trkpt>
      <trkpt lat="49.60353" lon="3.43975">
        <ele>143.8</ele>
        <time>2025-10-05T13:00:31.000Z</time>
      </trkpt>
      <trkpt lat="49.60353" lon="3.43975">
        <ele>143.8</ele>
        <time>2025-10-05T13:00:32.000Z</time>
      </trkpt>
      <trkpt lat="49.60352" lon="3.43976">
        <ele>144.1</ele>
        <time>2025-10-05T13:00:33.000Z</time>
      </trkpt>
      <trkpt lat="49.60352" lon="3.43976">
        <ele>144.1</ele>
        <time>2025-10-05T13:00:34.000Z</time>
      </trkpt>
      <trkpt lat="49.60353" lon="3.43976">
        <ele>144.2</ele>
        <time>2025-10-05T13:00:35.000Z</time>
      </trkpt>
      <trkpt lat="49.60353" lon="3.43976">
        <ele>144.4</ele>
        <time>2025-10-05T13:00:36.000Z</time>
      </trkpt>
      <trkpt lat="49.60353" lon="3.43976">
        <ele>144.5</ele>
        <time>2025-10-05T13:00:37.000Z</time>
      </trkpt>
      <trkpt lat="49.60353" lon="3.43976">
        <ele>144.5</ele>
        <time>2025-10-05T13:00:38.000Z</time>
      </trkpt>
      <trkpt lat="49.60354" lon="3.43976">
        <ele>144.4</ele>
        <time>2025-10-05T13:00:39.000Z</time>
      </trkpt>
      <trkpt lat="49.60354" lon="3.43977">
        <ele>144.4</ele>
        <time>2025-10-05T13:00:40.000Z</time>
      </trkpt>
      <trkpt lat="49.60354" lon="3.43977">
        <ele>144.4</ele>
        <time>2025-10-05T13:00:41.000Z</time>
      </trkpt>
      <trkpt lat="49.60354" lon="3.43977">
        <ele>144.4</ele>
        <time>2025-10-05T13:00:42.000Z</time>
      </trkpt>
      <trkpt lat="49.60354" lon="3.43977">
        <ele>144.4</ele>
        <time>2025-10-05T13:00:43.000Z</time>
      </trkpt>
      <trkpt lat="49.60354" lon="3.43977">
        <ele>144.4</ele>
        <time>2025-10-05T13:00:44.000Z</time>
      </trkpt>
      <trkpt lat="49.60354" lon="3.43977">
        <ele>144.4</ele>
        <time>2025-10-05T13:00:45.000Z</time>
      </trkpt>
      <trkpt lat="49.60354" lon="3.43977">
        <ele>144.4</ele>
        <time>2025-10-05T13:00:46.000Z</time>
      </trkpt>
      <trkpt lat="49.60354" lon="3.43977">
        <ele>144.4</ele>
        <time>2025-10-05T13:00:47.000Z</time>
      </trkpt>
      <trkpt lat="49.60354" lon="3.43977">
        <ele>144.4</ele>
        <time>2025-10-05T13:00:48.000Z</time>
      </trkpt>
      <trkpt lat="49.60354" lon="3.43977">
        <ele>144.4</ele>
        <time>2025-10-05T13:00:49.000Z</time>
      </trkpt>
      <trkpt lat="49.60353" lon="3.43983">
        <ele>143.5</ele>
        <time>2025-10-05T13:00:50.000Z</time>
      </trkpt>
      <trkpt lat="49.60351" lon="3.43983">
        <ele>143.5</ele>
        <time>2025-10-05T13:00:51.000Z</time>
      </trkpt>
      <trkpt lat="49.6035" lon="3.43983">
        <ele>143.8</ele>
        <time>2025-10-05T13:00:52.000Z</time>
      </trkpt>
      <trkpt lat="49.60349" lon="3.43982">
        <ele>143.9</ele>
        <time>2025-10-05T13:00:53.000Z</time>
      </trkpt>
      <trkpt lat="49.60349" lon="3.43981">
        <ele>143.7</ele>
        <time>2025-10-05T13:00:54.000Z</time>
      </trkpt>
      <trkpt lat="49.60348" lon="3.4398">
        <ele>143.7</ele>
        <time>2025-10-05T13:00:55.000Z</time>
      </trkpt>
      <trkpt lat="49.60347" lon="3.43979">
        <ele>143.8</ele>
        <time>2025-10-05T13:00:56.000Z</time>
      </trkpt>
      <trkpt lat="49.60347" lon="3.43979">
        <ele>144</ele>
        <time>2025-10-05T13:00:57.000Z</time>
      </trkpt>
      <trkpt lat="49.60346" lon="3.43978">
        <ele>144</ele>
        <time>2025-10-05T13:00:58.000Z</time>
      </trkpt>
      <trkpt lat="49.60346" lon="3.43978">
        <ele>144</ele>
        <time>2025-10-05T13:00:59.000Z</time>
      </trkpt>
      <trkpt lat="49.60345" lon="3.43976">
        <ele>144.5</ele>
        <time>2025-10-05T13:01:00.000Z</time>
      </trkpt>
      <trkpt lat="49.60346" lon="3.43976">
        <ele>144.7</ele>
        <time>2025-10-05T13:01:01.000Z</time>
      </trkpt>
      <trkpt lat="49.60346" lon="3.43975">
        <ele>145</ele>
        <time>2025-10-05T13:01:02.000Z</time>
      </trkpt>
      <trkpt lat="49.60347" lon="3.43974">
        <ele>145.3</ele>
        <time>2025-10-05T13:01:03.000Z</time>
      </trkpt>
      <trkpt lat="49.60348" lon="3.43974">
        <ele>145.7</ele>
        <time>2025-10-05T13:01:04.000Z</time>
      </trkpt>
      <trkpt lat="49.60349" lon="3.43974">
        <ele>146.1</ele>
        <time>2025-10-05T13:01:05.000Z</time>
      </trkpt>
      <trkpt lat="49.60349" lon="3.43974">
        <ele>146.5</ele>
        <time>2025-10-05T13:01:06.000Z</time>
      </trkpt>
      <trkpt lat="49.6035" lon="3.43973">
        <ele>146.9</ele>
        <time>2025-10-05T13:01:07.000Z</time>
      </trkpt>
      <trkpt lat="49.60351" lon="3.43974">
        <ele>147.1</ele>
        <time>2025-10-05T13:01:08.000Z</time>
      </trkpt>
      <trkpt lat="49.60351" lon="3.43974">
        <ele>147.1</ele>
        <time>2025-10-05T13:01:09.000Z</time>
      </trkpt>
      <trkpt lat="49.60351" lon="3.43974">
        <ele>147.1</ele>
        <time>2025-10-05T13:01:10.000Z</time>
      </trkpt>
      <trkpt lat="49.60351" lon="3.43974">
        <ele>147.1</ele>
        <time>2025-10-05T13:01:11.000Z</time>
      </trkpt>
      <trkpt lat="49.60351" lon="3.43974">
        <ele>147.1</ele>
        <time>2025-10-05T13:01:12.000Z</time>
      </trkpt>
      <trkpt lat="49.60351" lon="3.43974">
        <ele>147.1</ele>
        <time>2025-10-05T13:01:13.000Z</time>
      </trkpt>
      <trkpt lat="49.60351" lon="3.43974">
        <ele>147.1</ele>
        <time>2025-10-05T13:01:14.000Z</time>
      </trkpt>
      <trkpt lat="49.60351" lon="3.43974">
        <ele>147.1</ele>
        <time>2025-10-05T13:01:15.000Z</time>
      </trkpt>
      <trkpt lat="49.60351" lon="3.43974">
        <ele>147.1</ele>
        <time>2025-10-05T13:01:16.000Z</time>
      </trkpt>
      <trkpt lat="49.60351" lon="3.43974">
        <ele>147.1</ele>
        <time>2025-10-05T13:01:17.000Z</time>
      </trkpt>
      <trkpt lat="49.60351" lon="3.43974">
        <ele>147.1</ele>
        <time>2025-10-05T13:01:18.000Z</time>
      </trkpt>
      <trkpt lat="49.60351" lon="3.43974">
        <ele>147.1</ele>
        <time>2025-10-05T13:01:19.000Z</time>
      </trkpt>
      <trkpt lat="49.60351" lon="3.43974">
        <ele>147.1</ele>
        <time>2025-10-05T13:01:20.000Z</time>
      </trkpt>
      <trkpt lat="49.60351" lon="3.43974">
        <ele>147.1</ele>
        <time>2025-10-05T13:01:21.000Z</time>
      </trkpt>
      <trkpt lat="49.60351" lon="3.43974">
        <ele>147.1</ele>
        <time>2025-10-05T13:01:22.000Z</time>
      </trkpt>
      <trkpt lat="49.60351" lon="3.43974">
        <ele>147.1</ele>
        <time>2025-10-05T13:01:23.000Z</time>
      </trkpt>
      <trkpt lat="49.60351" lon="3.43974">
        <ele>147.1</ele>
        <time>2025-10-05T13:01:24.000Z</time>
      </trkpt>
      <trkpt lat="49.60351" lon="3.43974">
        <ele>147.1</ele>
        <time>2025-10-05T13:01:25.000Z</time>
      </trkpt>
      <trkpt lat="49.60351" lon="3.43974">
        <ele>147.1</ele>
        <time>2025-10-05T13:01:26.000Z</time>
      </trkpt>
      <trkpt lat="49.60351" lon="3.43974">
        <ele>147.1</ele>
        <time>2025-10-05T13:01:27.000Z</time>
      </trkpt>
      <trkpt lat="49.60351" lon="3.43974">
        <ele>147.1</ele>
        <time>2025-10-05T13:01:28.000Z</time>
      </trkpt>
      <trkpt lat="49.60351" lon="3.43974">
        <ele>147.1</ele>
        <time>2025-10-05T13:01:29.000Z</time>
      </trkpt>
      <trkpt lat="49.60351" lon="3.43974">
        <ele>147.1</ele>
        <time>2025-10-05T13:01:30.000Z</time>
      </trkpt>
      <trkpt lat="49.60351" lon="3.43974">
        <ele>147.1</ele>
        <time>2025-10-05T13:01:31.000Z</time>
      </trkpt>
      <trkpt lat="49.60351" lon="3.43974">
        <ele>147.1</ele>
        <time>2025-10-05T13:01:32.000Z</time>
      </trkpt>
      <trkpt lat="49.60351" lon="3.43974">
        <ele>147.1</ele>
        <time>2025-10-05T13:01:33.000Z</time>
      </trkpt>
      <trkpt lat="49.60351" lon="3.43974">
        <ele>147.1</ele>
        <time>2025-10-05T13:01:34.000Z</time>
      </trkpt>
      <trkpt lat="49.60351" lon="3.43974">
        <ele>147.1</ele>
        <time>2025-10-05T13:01:35.000Z</time>
      </trkpt>
      <trkpt lat="49.60351" lon="3.43974">
        <ele>147.1</ele>
        <time>2025-10-05T13:01:36.000Z</time>
      </trkpt>
      <trkpt lat="49.60351" lon="3.43974">
        <ele>147.1</ele>
        <time>2025-10-05T13:01:37.000Z</time>
      </trkpt>
      <trkpt lat="49.60351" lon="3.43974">
        <ele>147.1</ele>
        <time>2025-10-05T13:01:38.000Z</time>
      </trkpt>
      <trkpt lat="49.60351" lon="3.43974">
        <ele>147.1</ele>
        <time>2025-10-05T13:01:39.000Z</time>
      </trkpt>
      <trkpt lat="49.60351" lon="3.43974">
        <ele>147.1</ele>
        <time>2025-10-05T13:01:40.000Z</time>
      </trkpt>
      <trkpt lat="49.60351" lon="3.43974">
        <ele>147.1</ele>
        <time>2025-10-05T13:01:41.000Z</time>
      </trkpt>
      <trkpt lat="49.60351" lon="3.43974">
        <ele>147.1</ele>
        <time>2025-10-05T13:01:42.000Z</time>
      </trkpt>
      <trkpt lat="49.60351" lon="3.43974">
        <ele>147.1</ele>
        <time>2025-10-05T13:01:43.000Z</time>
      </trkpt>
      <trkpt lat="49.60351" lon="3.43974">
        <ele>147.1</ele>
        <time>2025-10-05T13:01:44.000Z</time>
      </trkpt>
      <trkpt lat="49.60351" lon="3.43974">
        <ele>147.1</ele>
        <time>2025-10-05T13:01:45.000Z</time>
      </trkpt>
      <trkpt lat="49.60351" lon="3.43974">
        <ele>147.1</ele>
        <time>2025-10-05T13:01:46.000Z</time>
      </trkpt>
      <trkpt lat="49.60351" lon="3.43974">
        <ele>147.1</ele>
        <time>2025-10-05T13:01:47.000Z</time>
      </trkpt>
      <trkpt lat="49.60351" lon="3.43974">
        <ele>147.1</ele>
        <time>2025-10-05T13:01:48.000Z</time>
      </trkpt>
      <trkpt lat="49.60351" lon="3.43974">
        <ele>147.1</ele>
        <time>2025-10-05T13:01:49.000Z</time>
      </trkpt>
      <trkpt lat="49.60351" lon="3.43974">
        <ele>147.1</ele>
        <time>2025-10-05T13:01:50.000Z</time>
      </trkpt>
      <trkpt lat="49.60351" lon="3.43974">
        <ele>147.1</ele>
        <time>2025-10-05T13:01:51.000Z</time>
      </trkpt>
      <trkpt lat="49.60351" lon="3.43974">
        <ele>147.1</ele>
        <time>2025-10-05T13:01:52.000Z</time>
      </trkpt>
      <trkpt lat="49.60351" lon="3.43974">
        <ele>147.1</ele>
        <time>2025-10-05T13:01:53.000Z</time>
      </trkpt>
      <trkpt lat="49.60351" lon="3.43974">
        <ele>147.1</ele>
        <time>2025-10-05T13:01:54.000Z</time>
      </trkpt>
      <trkpt lat="49.60351" lon="3.43974">
        <ele>147.1</ele>
        <time>2025-10-05T13:01:55.000Z</time>
      </trkpt>
      <trkpt lat="49.60351" lon="3.43974">
        <ele>147.1</ele>
        <time>2025-10-05T13:01:56.000Z</time>
      </trkpt>
      <trkpt lat="49.60351" lon="3.43974">
        <ele>147.1</ele>
        <time>2025-10-05T13:01:57.000Z</time>
      </trkpt>
      <trkpt lat="49.60351" lon="3.43974">
        <ele>147.1</ele>
        <time>2025-10-05T13:01:58.000Z</time>
      </trkpt>
      <trkpt lat="49.6035" lon="3.43983">
        <ele>149.3</ele>
        <time>2025-10-05T13:01:59.000Z</time>
      </trkpt>
      <trkpt lat="49.6035" lon="3.43983">
        <ele>149.3</ele>
        <time>2025-10-05T13:02:00.000Z</time>
      </trkpt>
      <trkpt lat="49.6035" lon="3.43982">
        <ele>149.4</ele>
        <time>2025-10-05T13:02:01.000Z</time>
      </trkpt>
      <trkpt lat="49.60349" lon="3.43981">
        <ele>149.5</ele>
        <time>2025-10-05T13:02:02.000Z</time>
      </trkpt>
      <trkpt lat="49.60349" lon="3.43981">
        <ele>149.5</ele>
        <time>2025-10-05T13:02:03.000Z</time>
      </trkpt>
      <trkpt lat="49.60349" lon="3.43981">
        <ele>149.7</ele>
        <time>2025-10-05T13:02:04.000Z</time>
      </trkpt>
      <trkpt lat="49.60349" lon="3.43981">
        <ele>149.7</ele>
        <time>2025-10-05T13:02:05.000Z</time>
      </trkpt>
      <trkpt lat="49.60348" lon="3.43981">
        <ele>150</ele>
        <time>2025-10-05T13:02:06.000Z</time>
      </trkpt>
      <trkpt lat="49.60346" lon="3.43982">
        <ele>150.2</ele>
        <time>2025-10-05T13:02:07.000Z</time>
      </trkpt>
      <trkpt lat="49.60346" lon="3.43982">
        <ele>150.3</ele>
        <time>2025-10-05T13:02:08.000Z</time>
      </trkpt>
      <trkpt lat="49.60345" lon="3.43981">
        <ele>150.3</ele>
        <time>2025-10-05T13:02:09.000Z</time>
      </trkpt>
      <trkpt lat="49.60344" lon="3.43981">
        <ele>150.4</ele>
        <time>2025-10-05T13:02:10.000Z</time>
      </trkpt>
      <trkpt lat="49.60343" lon="3.43981">
        <ele>150.6</ele>
        <time>2025-10-05T13:02:11.000Z</time>
      </trkpt>
      <trkpt lat="49.60342" lon="3.43981">
        <ele>151.1</ele>
        <time>2025-10-05T13:02:12.000Z</time>
      </trkpt>
      <trkpt lat="49.6034" lon="3.4398">
        <ele>151.4</ele>
        <time>2025-10-05T13:02:13.000Z</time>
      </trkpt>
      <trkpt lat="49.60338" lon="3.43979">
        <ele>151.6</ele>
        <time>2025-10-05T13:02:14.000Z</time>
      </trkpt>
      <trkpt lat="49.60337" lon="3.43979">
        <ele>151.8</ele>
        <time>2025-10-05T13:02:15.000Z</time>
      </trkpt>
      <trkpt lat="49.60336" lon="3.43979">
        <ele>152</ele>
        <time>2025-10-05T13:02:16.000Z</time>
      </trkpt>
      <trkpt lat="49.60335" lon="3.43979">
        <ele>152.5</ele>
        <time>2025-10-05T13:02:17.000Z</time>
      </trkpt>
      <trkpt lat="49.60334" lon="3.43979">
        <ele>152.6</ele>
        <time>2025-10-05T13:02:18.000Z</time>
      </trkpt>
      <trkpt lat="49.60333" lon="3.43979">
        <ele>152.6</ele>
        <time>2025-10-05T13:02:19.000Z</time>
      </trkpt>
      <trkpt lat="49.60332" lon="3.43979">
        <ele>152.9</ele>
        <time>2025-10-05T13:02:20.000Z</time>
      </trkpt>
      <trkpt lat="49.60332" lon="3.43979">
        <ele>153.2</ele>
        <time>2025-10-05T13:02:21.000Z</time>
      </trkpt>
      <trkpt lat="49.60331" lon="3.43979">
        <ele>153.4</ele>
        <time>2025-10-05T13:02:22.000Z</time>
      </trkpt>
      <trkpt lat="49.6033" lon="3.43978">
        <ele>153.1</ele>
        <time>2025-10-05T13:02:23.000Z</time>
      </trkpt>
      <trkpt lat="49.6033" lon="3.43978">
        <ele>152.8</ele>
        <time>2025-10-05T13:02:24.000Z</time>
      </trkpt>
      <trkpt lat="49.60329" lon="3.43978">
        <ele>152.9</ele>
        <time>2025-10-05T13:02:25.000Z</time>
      </trkpt>
      <trkpt lat="49.60328" lon="3.43978">
        <ele>152.8</ele>
        <time>2025-10-05T13:02:26.000Z</time>
      </trkpt>
      <trkpt lat="49.60327" lon="3.43977">
        <ele>152.9</ele>
        <time>2025-10-05T13:02:27.000Z</time>
      </trkpt>
      <trkpt lat="49.60326" lon="3.43977">
        <ele>152.8</ele>
        <time>2025-10-05T13:02:28.000Z</time>
      </trkpt>
      <trkpt lat="49.60325" lon="3.43977">
        <ele>152.3</ele>
        <time>2025-10-05T13:02:29.000Z</time>
      </trkpt>
      <trkpt lat="49.60324" lon="3.43978">
        <ele>152</ele>
        <time>2025-10-05T13:02:30.000Z</time>
      </trkpt>
      <trkpt lat="49.60323" lon="3.43978">
        <ele>151.7</ele>
        <time>2025-10-05T13:02:31.000Z</time>
      </trkpt>
      <trkpt lat="49.60322" lon="3.43978">
        <ele>151.3</ele>
        <time>2025-10-05T13:02:32.000Z</time>
      </trkpt>
      <trkpt lat="49.60322" lon="3.43978">
        <ele>151.2</ele>
        <time>2025-10-05T13:02:33.000Z</time>
      </trkpt>
      <trkpt lat="49.60321" lon="3.43978">
        <ele>151.3</ele>
        <time>2025-10-05T13:02:34.000Z</time>
      </trkpt>
      <trkpt lat="49.6032" lon="3.43977">
        <ele>151.1</ele>
        <time>2025-10-05T13:02:35.000Z</time>
      </trkpt>
      <trkpt lat="49.60319" lon="3.43977">
        <ele>150.8</ele>
        <time>2025-10-05T13:02:36.000Z</time>
      </trkpt>
      <trkpt lat="49.60318" lon="3.43976">
        <ele>150.7</ele>
        <time>2025-10-05T13:02:37.000Z</time>
      </trkpt>
      <trkpt lat="49.60317" lon="3.43976">
        <ele>150.5</ele>
        <time>2025-10-05T13:02:38.000Z</time>
      </trkpt>
      <trkpt lat="49.60316" lon="3.43976">
        <ele>150.5</ele>
        <time>2025-10-05T13:02:39.000Z</time>
      </trkpt>
      <trkpt lat="49.60315" lon="3.43976">
        <ele>150.6</ele>
        <time>2025-10-05T13:02:40.000Z</time>
      </trkpt>
      <trkpt lat="49.60314" lon="3.43975">
        <ele>150.7</ele>
        <time>2025-10-05T13:02:41.000Z</time>
      </trkpt>
      <trkpt lat="49.60313" lon="3.43975">
        <ele>151</ele>
        <time>2025-10-05T13:02:42.000Z</time>
      </trkpt>
      <trkpt lat="49.60311" lon="3.43974">
        <ele>151</ele>
        <time>2025-10-05T13:02:43.000Z</time>
      </trkpt>
      <trkpt lat="49.6031" lon="3.43973">
        <ele>151</ele>
        <time>2025-10-05T13:02:44.000Z</time>
      </trkpt>
      <trkpt lat="49.60309" lon="3.43972">
        <ele>151.1</ele>
        <time>2025-10-05T13:02:45.000Z</time>
      </trkpt>
      <trkpt lat="49.60309" lon="3.43972">
        <ele>151.2</ele>
        <time>2025-10-05T13:02:46.000Z</time>
      </trkpt>
      <trkpt lat="49.60308" lon="3.43971">
        <ele>151.3</ele>
        <time>2025-10-05T13:02:47.000Z</time>
      </trkpt>
      <trkpt lat="49.60308" lon="3.43971">
        <ele>151.5</ele>
        <time>2025-10-05T13:02:48.000Z</time>
      </trkpt>
      <trkpt lat="49.60307" lon="3.4397">
        <ele>151.7</ele>
        <time>2025-10-05T13:02:49.000Z</time>
      </trkpt>
      <trkpt lat="49.60306" lon="3.4397">
        <ele>151.9</ele>
        <time>2025-10-05T13:02:50.000Z</time>
      </trkpt>
      <trkpt lat="49.60305" lon="3.43969">
        <ele>152</ele>
        <time>2025-10-05T13:02:51.000Z</time>
      </trkpt>
      <trkpt lat="49.60304" lon="3.43969">
        <ele>152.2</ele>
        <time>2025-10-05T13:02:52.000Z</time>
      </trkpt>
      <trkpt lat="49.60303" lon="3.43969">
        <ele>152.4</ele>
        <time>2025-10-05T13:02:53.000Z</time>
      </trkpt>
      <trkpt lat="49.60301" lon="3.43968">
        <ele>152.5</ele>
        <time>2025-10-05T13:02:54.000Z</time>
      </trkpt>
      <trkpt lat="49.603" lon="3.43967">
        <ele>152.5</ele>
        <time>2025-10-05T13:02:55.000Z</time>
      </trkpt>
      <trkpt lat="49.60299" lon="3.43967">
        <ele>152.7</ele>
        <time>2025-10-05T13:02:56.000Z</time>
      </trkpt>
      <trkpt lat="49.60298" lon="3.43967">
        <ele>152.7</ele>
        <time>2025-10-05T13:02:57.000Z</time>
      </trkpt>
      <trkpt lat="49.60297" lon="3.43967">
        <ele>152.6</ele>
        <time>2025-10-05T13:02:58.000Z</time>
      </trkpt>
      <trkpt lat="49.60296" lon="3.43966">
        <ele>152.6</ele>
        <time>2025-10-05T13:02:59.000Z</time>
      </trkpt>
      <trkpt lat="49.60295" lon="3.43965">
        <ele>152.6</ele>
        <time>2025-10-05T13:03:00.000Z</time>
      </trkpt>
      <trkpt lat="49.60294" lon="3.43965">
        <ele>152.6</ele>
        <time>2025-10-05T13:03:01.000Z</time>
      </trkpt>
      <trkpt lat="49.60293" lon="3.43965">
        <ele>152.7</ele>
        <time>2025-10-05T13:03:02.000Z</time>
      </trkpt>
      <trkpt lat="49.60292" lon="3.43964">
        <ele>152.5</ele>
        <time>2025-10-05T13:03:03.000Z</time>
      </trkpt>
      <trkpt lat="49.60292" lon="3.43964">
        <ele>152.4</ele>
        <time>2025-10-05T13:03:04.000Z</time>
      </trkpt>
      <trkpt lat="49.60291" lon="3.43963">
        <ele>152.1</ele>
        <time>2025-10-05T13:03:05.000Z</time>
      </trkpt>
      <trkpt lat="49.60289" lon="3.43962">
        <ele>151.9</ele>
        <time>2025-10-05T13:03:06.000Z</time>
      </trkpt>
      <trkpt lat="49.60288" lon="3.43962">
        <ele>152</ele>
        <time>2025-10-05T13:03:07.000Z</time>
      </trkpt>
      <trkpt lat="49.60287" lon="3.43962">
        <ele>151.9</ele>
        <time>2025-10-05T13:03:08.000Z</time>
      </trkpt>
      <trkpt lat="49.60286" lon="3.43962">
        <ele>152.3</ele>
        <time>2025-10-05T13:03:09.000Z</time>
      </trkpt>
      <trkpt lat="49.60285" lon="3.43962">
        <ele>152.5</ele>
        <time>2025-10-05T13:03:10.000Z</time>
      </trkpt>
      <trkpt lat="49.60285" lon="3.43961">
        <ele>152.8</ele>
        <time>2025-10-05T13:03:11.000Z</time>
      </trkpt>
      <trkpt lat="49.60284" lon="3.4396">
        <ele>153.1</ele>
        <time>2025-10-05T13:03:12.000Z</time>
      </trkpt>
      <trkpt lat="49.60283" lon="3.43961">
        <ele>153.3</ele>
        <time>2025-10-05T13:03:13.000Z</time>
      </trkpt>
      <trkpt lat="49.60282" lon="3.4396">
        <ele>153.6</ele>
        <time>2025-10-05T13:03:14.000Z</time>
      </trkpt>
      <trkpt lat="49.6028" lon="3.4396">
        <ele>153.6</ele>
        <time>2025-10-05T13:03:15.000Z</time>
      </trkpt>
      <trkpt lat="49.60278" lon="3.4396">
        <ele>153.8</ele>
        <time>2025-10-05T13:03:16.000Z</time>
      </trkpt>
      <trkpt lat="49.60277" lon="3.4396">
        <ele>154</ele>
        <time>2025-10-05T13:03:17.000Z</time>
      </trkpt>
      <trkpt lat="49.60276" lon="3.43959">
        <ele>154.1</ele>
        <time>2025-10-05T13:03:18.000Z</time>
      </trkpt>
      <trkpt lat="49.60276" lon="3.4396">
        <ele>154.4</ele>
        <time>2025-10-05T13:03:19.000Z</time>
      </trkpt>
      <trkpt lat="49.60275" lon="3.4396">
        <ele>154.8</ele>
        <time>2025-10-05T13:03:20.000Z</time>
      </trkpt>
      <trkpt lat="49.60274" lon="3.43959">
        <ele>155.2</ele>
        <time>2025-10-05T13:03:21.000Z</time>
      </trkpt>
      <trkpt lat="49.60273" lon="3.43959">
        <ele>155.3</ele>
        <time>2025-10-05T13:03:22.000Z</time>
      </trkpt>
      <trkpt lat="49.60273" lon="3.43959">
        <ele>155.6</ele>
        <time>2025-10-05T13:03:23.000Z</time>
      </trkpt>
      <trkpt lat="49.60272" lon="3.4396">
        <ele>155.9</ele>
        <time>2025-10-05T13:03:24.000Z</time>
      </trkpt>
      <trkpt lat="49.60271" lon="3.4396">
        <ele>155.8</ele>
        <time>2025-10-05T13:03:25.000Z</time>
      </trkpt>
      <trkpt lat="49.60271" lon="3.4396">
        <ele>155.3</ele>
        <time>2025-10-05T13:03:26.000Z</time>
      </trkpt>
      <trkpt lat="49.6027" lon="3.43961">
        <ele>154.9</ele>
        <time>2025-10-05T13:03:27.000Z</time>
      </trkpt>
      <trkpt lat="49.6027" lon="3.43961">
        <ele>154.7</ele>
        <time>2025-10-05T13:03:28.000Z</time>
      </trkpt>
      <trkpt lat="49.60269" lon="3.43961">
        <ele>154.3</ele>
        <time>2025-10-05T13:03:29.000Z</time>
      </trkpt>
      <trkpt lat="49.60268" lon="3.43961">
        <ele>153.9</ele>
        <time>2025-10-05T13:03:30.000Z</time>
      </trkpt>
      <trkpt lat="49.60267" lon="3.43961">
        <ele>153.3</ele>
        <time>2025-10-05T13:03:31.000Z</time>
      </trkpt>
      <trkpt lat="49.60267" lon="3.43962">
        <ele>152.8</ele>
        <time>2025-10-05T13:03:32.000Z</time>
      </trkpt>
      <trkpt lat="49.60266" lon="3.43963">
        <ele>152.4</ele>
        <time>2025-10-05T13:03:33.000Z</time>
      </trkpt>
      <trkpt lat="49.60265" lon="3.43963">
        <ele>152</ele>
        <time>2025-10-05T13:03:34.000Z</time>
      </trkpt>
      <trkpt lat="49.60263" lon="3.43964">
        <ele>152.1</ele>
        <time>2025-10-05T13:03:35.000Z</time>
      </trkpt>
      <trkpt lat="49.60262" lon="3.43965">
        <ele>152</ele>
        <time>2025-10-05T13:03:36.000Z</time>
      </trkpt>
      <trkpt lat="49.6026" lon="3.43966">
        <ele>151.5</ele>
        <time>2025-10-05T13:03:37.000Z</time>
      </trkpt>
      <trkpt lat="49.60259" lon="3.43967">
        <ele>151.2</ele>
        <time>2025-10-05T13:03:38.000Z</time>
      </trkpt>
      <trkpt lat="49.60257" lon="3.43968">
        <ele>150.9</ele>
        <time>2025-10-05T13:03:39.000Z</time>
      </trkpt>
      <trkpt lat="49.60255" lon="3.43969">
        <ele>150.7</ele>
        <time>2025-10-05T13:03:40.000Z</time>
      </trkpt>
      <trkpt lat="49.60254" lon="3.4397">
        <ele>150.4</ele>
        <time>2025-10-05T13:03:41.000Z</time>
      </trkpt>
      <trkpt lat="49.60253" lon="3.43971">
        <ele>149.8</ele>
        <time>2025-10-05T13:03:42.000Z</time>
      </trkpt>
      <trkpt lat="49.60252" lon="3.43971">
        <ele>149.7</ele>
        <time>2025-10-05T13:03:43.000Z</time>
      </trkpt>
      <trkpt lat="49.6025" lon="3.43971">
        <ele>149.6</ele>
        <time>2025-10-05T13:03:44.000Z</time>
      </trkpt>
      <trkpt lat="49.6025" lon="3.43971">
        <ele>149.6</ele>
        <time>2025-10-05T13:03:45.000Z</time>
      </trkpt>
      <trkpt lat="49.60249" lon="3.43972">
        <ele>150</ele>
        <time>2025-10-05T13:03:46.000Z</time>
      </trkpt>
      <trkpt lat="49.60248" lon="3.43972">
        <ele>149.8</ele>
        <time>2025-10-05T13:03:47.000Z</time>
      </trkpt>
      <trkpt lat="49.60248" lon="3.43973">
        <ele>149.8</ele>
        <time>2025-10-05T13:03:48.000Z</time>
      </trkpt>
      <trkpt lat="49.60248" lon="3.43973">
        <ele>150.1</ele>
        <time>2025-10-05T13:03:49.000Z</time>
      </trkpt>
      <trkpt lat="49.60247" lon="3.43973">
        <ele>150.2</ele>
        <time>2025-10-05T13:03:50.000Z</time>
      </trkpt>
      <trkpt lat="49.60246" lon="3.43974">
        <ele>150.3</ele>
        <time>2025-10-05T13:03:51.000Z</time>
      </trkpt>
      <trkpt lat="49.60245" lon="3.43975">
        <ele>150.5</ele>
        <time>2025-10-05T13:03:52.000Z</time>
      </trkpt>
      <trkpt lat="49.60244" lon="3.43976">
        <ele>150.4</ele>
        <time>2025-10-05T13:03:53.000Z</time>
      </trkpt>
      <trkpt lat="49.60243" lon="3.43976">
        <ele>150.3</ele>
        <time>2025-10-05T13:03:54.000Z</time>
      </trkpt>
      <trkpt lat="49.60242" lon="3.43977">
        <ele>150.2</ele>
        <time>2025-10-05T13:03:55.000Z</time>
      </trkpt>
      <trkpt lat="49.6024" lon="3.43978">
        <ele>149.8</ele>
        <time>2025-10-05T13:03:56.000Z</time>
      </trkpt>
      <trkpt lat="49.60239" lon="3.43978">
        <ele>149.8</ele>
        <time>2025-10-05T13:03:57.000Z</time>
      </trkpt>
      <trkpt lat="49.60238" lon="3.43979">
        <ele>149.5</ele>
        <time>2025-10-05T13:03:58.000Z</time>
      </trkpt>
      <trkpt lat="49.60238" lon="3.43979">
        <ele>149.2</ele>
        <time>2025-10-05T13:03:59.000Z</time>
      </trkpt>
      <trkpt lat="49.60237" lon="3.43979">
        <ele>149</ele>
        <time>2025-10-05T13:04:00.000Z</time>
      </trkpt>
      <trkpt lat="49.60237" lon="3.43979">
        <ele>148.8</ele>
        <time>2025-10-05T13:04:01.000Z</time>
      </trkpt>
      <trkpt lat="49.60235" lon="3.4398">
        <ele>148.7</ele>
        <time>2025-10-05T13:04:02.000Z</time>
      </trkpt>
      <trkpt lat="49.60235" lon="3.43981">
        <ele>148.5</ele>
        <time>2025-10-05T13:04:03.000Z</time>
      </trkpt>
      <trkpt lat="49.60234" lon="3.43982">
        <ele>148.3</ele>
        <time>2025-10-05T13:04:04.000Z</time>
      </trkpt>
      <trkpt lat="49.60232" lon="3.43982">
        <ele>148.1</ele>
        <time>2025-10-05T13:04:05.000Z</time>
      </trkpt>
      <trkpt lat="49.60231" lon="3.43984">
        <ele>147.8</ele>
        <time>2025-10-05T13:04:06.000Z</time>
      </trkpt>
      <trkpt lat="49.6023" lon="3.43984">
        <ele>147.6</ele>
        <time>2025-10-05T13:04:07.000Z</time>
      </trkpt>
      <trkpt lat="49.60228" lon="3.43985">
        <ele>147.6</ele>
        <time>2025-10-05T13:04:08.000Z</time>
      </trkpt>
      <trkpt lat="49.60227" lon="3.43985">
        <ele>147.3</ele>
        <time>2025-10-05T13:04:09.000Z</time>
      </trkpt>
      <trkpt lat="49.60226" lon="3.43986">
        <ele>147.2</ele>
        <time>2025-10-05T13:04:10.000Z</time>
      </trkpt>
      <trkpt lat="49.60224" lon="3.43986">
        <ele>146.9</ele>
        <time>2025-10-05T13:04:11.000Z</time>
      </trkpt>
      <trkpt lat="49.60223" lon="3.43987">
        <ele>146.6</ele>
        <time>2025-10-05T13:04:12.000Z</time>
      </trkpt>
      <trkpt lat="49.60221" lon="3.43987">
        <ele>146.4</ele>
        <time>2025-10-05T13:04:13.000Z</time>
      </trkpt>
      <trkpt lat="49.6022" lon="3.43987">
        <ele>146.2</ele>
        <time>2025-10-05T13:04:14.000Z</time>
      </trkpt>
      <trkpt lat="49.60219" lon="3.43986">
        <ele>146.1</ele>
        <time>2025-10-05T13:04:15.000Z</time>
      </trkpt>
      <trkpt lat="49.60219" lon="3.43987">
        <ele>146</ele>
        <time>2025-10-05T13:04:16.000Z</time>
      </trkpt>
      <trkpt lat="49.60218" lon="3.43987">
        <ele>145.9</ele>
        <time>2025-10-05T13:04:17.000Z</time>
      </trkpt>
      <trkpt lat="49.60217" lon="3.43986">
        <ele>145.7</ele>
        <time>2025-10-05T13:04:18.000Z</time>
      </trkpt>
      <trkpt lat="49.60216" lon="3.43987">
        <ele>145.4</ele>
        <time>2025-10-05T13:04:19.000Z</time>
      </trkpt>
      <trkpt lat="49.60215" lon="3.43986">
        <ele>145.3</ele>
        <time>2025-10-05T13:04:20.000Z</time>
      </trkpt>
      <trkpt lat="49.60214" lon="3.43987">
        <ele>145.1</ele>
        <time>2025-10-05T13:04:21.000Z</time>
      </trkpt>
      <trkpt lat="49.60213" lon="3.43987">
        <ele>145</ele>
        <time>2025-10-05T13:04:22.000Z</time>
      </trkpt>
      <trkpt lat="49.60212" lon="3.43988">
        <ele>144.8</ele>
        <time>2025-10-05T13:04:23.000Z</time>
      </trkpt>
      <trkpt lat="49.60211" lon="3.43988">
        <ele>144.7</ele>
        <time>2025-10-05T13:04:24.000Z</time>
      </trkpt>
      <trkpt lat="49.6021" lon="3.43988">
        <ele>144.7</ele>
        <time>2025-10-05T13:04:25.000Z</time>
      </trkpt>
      <trkpt lat="49.60208" lon="3.43988">
        <ele>144.8</ele>
        <time>2025-10-05T13:04:26.000Z</time>
      </trkpt>
      <trkpt lat="49.60207" lon="3.43989">
        <ele>144.6</ele>
        <time>2025-10-05T13:04:27.000Z</time>
      </trkpt>
      <trkpt lat="49.60206" lon="3.43988">
        <ele>144.5</ele>
        <time>2025-10-05T13:04:28.000Z</time>
      </trkpt>
      <trkpt lat="49.60205" lon="3.43989">
        <ele>144.4</ele>
        <time>2025-10-05T13:04:29.000Z</time>
      </trkpt>
      <trkpt lat="49.60205" lon="3.43989">
        <ele>144.5</ele>
        <time>2025-10-05T13:04:30.000Z</time>
      </trkpt>
      <trkpt lat="49.60203" lon="3.43988">
        <ele>144.7</ele>
        <time>2025-10-05T13:04:31.000Z</time>
      </trkpt>
      <trkpt lat="49.60202" lon="3.43988">
        <ele>144.7</ele>
        <time>2025-10-05T13:04:32.000Z</time>
      </trkpt>
      <trkpt lat="49.60201" lon="3.43988">
        <ele>144.6</ele>
        <time>2025-10-05T13:04:33.000Z</time>
      </trkpt>
      <trkpt lat="49.602" lon="3.43987">
        <ele>144.8</ele>
        <time>2025-10-05T13:04:34.000Z</time>
      </trkpt>
      <trkpt lat="49.60199" lon="3.43985">
        <ele>144.8</ele>
        <time>2025-10-05T13:04:35.000Z</time>
      </trkpt>
      <trkpt lat="49.60197" lon="3.43985">
        <ele>145.3</ele>
        <time>2025-10-05T13:04:36.000Z</time>
      </trkpt>
      <trkpt lat="49.60196" lon="3.43984">
        <ele>145.4</ele>
        <time>2025-10-05T13:04:37.000Z</time>
      </trkpt>
      <trkpt lat="49.60194" lon="3.43982">
        <ele>145.7</ele>
        <time>2025-10-05T13:04:38.000Z</time>
      </trkpt>
      <trkpt lat="49.60194" lon="3.4398">
        <ele>145.5</ele>
        <time>2025-10-05T13:04:39.000Z</time>
      </trkpt>
      <trkpt lat="49.60193" lon="3.43979">
        <ele>145.3</ele>
        <time>2025-10-05T13:04:40.000Z</time>
      </trkpt>
      <trkpt lat="49.60191" lon="3.43978">
        <ele>145.2</ele>
        <time>2025-10-05T13:04:41.000Z</time>
      </trkpt>
      <trkpt lat="49.60191" lon="3.43977">
        <ele>144.7</ele>
        <time>2025-10-05T13:04:42.000Z</time>
      </trkpt>
      <trkpt lat="49.6019" lon="3.43976">
        <ele>144.5</ele>
        <time>2025-10-05T13:04:43.000Z</time>
      </trkpt>
      <trkpt lat="49.60189" lon="3.43976">
        <ele>144.5</ele>
        <time>2025-10-05T13:04:44.000Z</time>
      </trkpt>
      <trkpt lat="49.60188" lon="3.43975">
        <ele>144.6</ele>
        <time>2025-10-05T13:04:45.000Z</time>
      </trkpt>
      <trkpt lat="49.60187" lon="3.43975">
        <ele>144.8</ele>
        <time>2025-10-05T13:04:46.000Z</time>
      </trkpt>
      <trkpt lat="49.60186" lon="3.43975">
        <ele>145.4</ele>
        <time>2025-10-05T13:04:47.000Z</time>
      </trkpt>
      <trkpt lat="49.60185" lon="3.43975">
        <ele>145.5</ele>
        <time>2025-10-05T13:04:48.000Z</time>
      </trkpt>
      <trkpt lat="49.60184" lon="3.43974">
        <ele>145.6</ele>
        <time>2025-10-05T13:04:49.000Z</time>
      </trkpt>
      <trkpt lat="49.60184" lon="3.43974">
        <ele>145.2</ele>
        <time>2025-10-05T13:04:50.000Z</time>
      </trkpt>
      <trkpt lat="49.60183" lon="3.43974">
        <ele>145</ele>
        <time>2025-10-05T13:04:51.000Z</time>
      </trkpt>
      <trkpt lat="49.60183" lon="3.43974">
        <ele>144.5</ele>
        <time>2025-10-05T13:04:52.000Z</time>
      </trkpt>
      <trkpt lat="49.60182" lon="3.43973">
        <ele>144.8</ele>
        <time>2025-10-05T13:04:53.000Z</time>
      </trkpt>
      <trkpt lat="49.60182" lon="3.43973">
        <ele>145.2</ele>
        <time>2025-10-05T13:04:54.000Z</time>
      </trkpt>
      <trkpt lat="49.60182" lon="3.43973">
        <ele>145.4</ele>
        <time>2025-10-05T13:04:55.000Z</time>
      </trkpt>
      <trkpt lat="49.60182" lon="3.43973">
        <ele>145.7</ele>
        <time>2025-10-05T13:04:56.000Z</time>
      </trkpt>
      <trkpt lat="49.60182" lon="3.43973">
        <ele>145.6</ele>
        <time>2025-10-05T13:04:57.000Z</time>
      </trkpt>
      <trkpt lat="49.60181" lon="3.43973">
        <ele>145.6</ele>
        <time>2025-10-05T13:04:58.000Z</time>
      </trkpt>
      <trkpt lat="49.6018" lon="3.43972">
        <ele>145.8</ele>
        <time>2025-10-05T13:04:59.000Z</time>
      </trkpt>
      <trkpt lat="49.6018" lon="3.43971">
        <ele>146</ele>
        <time>2025-10-05T13:05:00.000Z</time>
      </trkpt>
      <trkpt lat="49.60179" lon="3.43971">
        <ele>146.1</ele>
        <time>2025-10-05T13:05:01.000Z</time>
      </trkpt>
      <trkpt lat="49.60178" lon="3.4397">
        <ele>146.4</ele>
        <time>2025-10-05T13:05:02.000Z</time>
      </trkpt>
      <trkpt lat="49.60177" lon="3.43969">
        <ele>146.7</ele>
        <time>2025-10-05T13:05:03.000Z</time>
      </trkpt>
      <trkpt lat="49.60176" lon="3.43969">
        <ele>146.8</ele>
        <time>2025-10-05T13:05:04.000Z</time>
      </trkpt>
      <trkpt lat="49.60175" lon="3.43969">
        <ele>147.3</ele>
        <time>2025-10-05T13:05:05.000Z</time>
      </trkpt>
      <trkpt lat="49.60174" lon="3.43968">
        <ele>147.6</ele>
        <time>2025-10-05T13:05:06.000Z</time>
      </trkpt>
      <trkpt lat="49.60174" lon="3.43968">
        <ele>147.7</ele>
        <time>2025-10-05T13:05:07.000Z</time>
      </trkpt>
      <trkpt lat="49.60173" lon="3.43967">
        <ele>147.6</ele>
        <time>2025-10-05T13:05:08.000Z</time>
      </trkpt>
      <trkpt lat="49.60173" lon="3.43966">
        <ele>147.7</ele>
        <time>2025-10-05T13:05:09.000Z</time>
      </trkpt>
      <trkpt lat="49.60173" lon="3.43964">
        <ele>147.7</ele>
        <time>2025-10-05T13:05:10.000Z</time>
      </trkpt>
      <trkpt lat="49.60173" lon="3.43963">
        <ele>147.9</ele>
        <time>2025-10-05T13:05:11.000Z</time>
      </trkpt>
      <trkpt lat="49.60172" lon="3.43962">
        <ele>148</ele>
        <time>2025-10-05T13:05:12.000Z</time>
      </trkpt>
      <trkpt lat="49.60172" lon="3.43961">
        <ele>148</ele>
        <time>2025-10-05T13:05:13.000Z</time>
      </trkpt>
      <trkpt lat="49.60171" lon="3.4396">
        <ele>147.8</ele>
        <time>2025-10-05T13:05:14.000Z</time>
      </trkpt>
      <trkpt lat="49.60171" lon="3.4396">
        <ele>147.8</ele>
        <time>2025-10-05T13:05:15.000Z</time>
      </trkpt>
      <trkpt lat="49.6017" lon="3.43958">
        <ele>147.8</ele>
        <time>2025-10-05T13:05:16.000Z</time>
      </trkpt>
      <trkpt lat="49.60169" lon="3.43957">
        <ele>148</ele>
        <time>2025-10-05T13:05:17.000Z</time>
      </trkpt>
      <trkpt lat="49.60168" lon="3.43956">
        <ele>148.2</ele>
        <time>2025-10-05T13:05:18.000Z</time>
      </trkpt>
      <trkpt lat="49.60167" lon="3.43955">
        <ele>148.3</ele>
        <time>2025-10-05T13:05:19.000Z</time>
      </trkpt>
      <trkpt lat="49.60166" lon="3.43954">
        <ele>148.4</ele>
        <time>2025-10-05T13:05:20.000Z</time>
      </trkpt>
      <trkpt lat="49.60165" lon="3.43954">
        <ele>148.4</ele>
        <time>2025-10-05T13:05:21.000Z</time>
      </trkpt>
      <trkpt lat="49.60164" lon="3.43954">
        <ele>148.4</ele>
        <time>2025-10-05T13:05:22.000Z</time>
      </trkpt>
      <trkpt lat="49.60163" lon="3.43954">
        <ele>148.3</ele>
        <time>2025-10-05T13:05:23.000Z</time>
      </trkpt>
      <trkpt lat="49.60162" lon="3.43953">
        <ele>148.1</ele>
        <time>2025-10-05T13:05:24.000Z</time>
      </trkpt>
      <trkpt lat="49.6016" lon="3.43952">
        <ele>148</ele>
        <time>2025-10-05T13:05:25.000Z</time>
      </trkpt>
      <trkpt lat="49.60159" lon="3.43951">
        <ele>147.8</ele>
        <time>2025-10-05T13:05:26.000Z</time>
      </trkpt>
      <trkpt lat="49.60158" lon="3.4395">
        <ele>147.9</ele>
        <time>2025-10-05T13:05:27.000Z</time>
      </trkpt>
      <trkpt lat="49.60158" lon="3.43949">
        <ele>148.1</ele>
        <time>2025-10-05T13:05:28.000Z</time>
      </trkpt>
      <trkpt lat="49.60158" lon="3.43948">
        <ele>148</ele>
        <time>2025-10-05T13:05:29.000Z</time>
      </trkpt>
      <trkpt lat="49.60158" lon="3.43947">
        <ele>148.2</ele>
        <time>2025-10-05T13:05:30.000Z</time>
      </trkpt>
      <trkpt lat="49.60158" lon="3.43946">
        <ele>148</ele>
        <time>2025-10-05T13:05:31.000Z</time>
      </trkpt>
      <trkpt lat="49.60158" lon="3.43945">
        <ele>147.7</ele>
        <time>2025-10-05T13:05:32.000Z</time>
      </trkpt>
      <trkpt lat="49.60157" lon="3.43944">
        <ele>147.2</ele>
        <time>2025-10-05T13:05:33.000Z</time>
      </trkpt>
      <trkpt lat="49.60157" lon="3.43942">
        <ele>147.5</ele>
        <time>2025-10-05T13:05:34.000Z</time>
      </trkpt>
      <trkpt lat="49.60156" lon="3.43942">
        <ele>147.7</ele>
        <time>2025-10-05T13:05:35.000Z</time>
      </trkpt>
      <trkpt lat="49.60156" lon="3.43941">
        <ele>147.8</ele>
        <time>2025-10-05T13:05:36.000Z</time>
      </trkpt>
      <trkpt lat="49.60155" lon="3.4394">
        <ele>147.8</ele>
        <time>2025-10-05T13:05:37.000Z</time>
      </trkpt>
      <trkpt lat="49.60154" lon="3.43939">
        <ele>147.7</ele>
        <time>2025-10-05T13:05:38.000Z</time>
      </trkpt>
      <trkpt lat="49.60154" lon="3.43938">
        <ele>147.7</ele>
        <time>2025-10-05T13:05:39.000Z</time>
      </trkpt>
      <trkpt lat="49.60154" lon="3.43937">
        <ele>147.9</ele>
        <time>2025-10-05T13:05:40.000Z</time>
      </trkpt>
      <trkpt lat="49.60153" lon="3.43937">
        <ele>147.8</ele>
        <time>2025-10-05T13:05:41.000Z</time>
      </trkpt>
      <trkpt lat="49.60153" lon="3.43936">
        <ele>147.5</ele>
        <time>2025-10-05T13:05:42.000Z</time>
      </trkpt>
      <trkpt lat="49.60152" lon="3.43935">
        <ele>147.6</ele>
        <time>2025-10-05T13:05:43.000Z</time>
      </trkpt>
      <trkpt lat="49.60152" lon="3.43935">
        <ele>147.4</ele>
        <time>2025-10-05T13:05:44.000Z</time>
      </trkpt>
      <trkpt lat="49.60152" lon="3.43934">
        <ele>147.4</ele>
        <time>2025-10-05T13:05:45.000Z</time>
      </trkpt>
      <trkpt lat="49.60153" lon="3.43932">
        <ele>147.4</ele>
        <time>2025-10-05T13:05:46.000Z</time>
      </trkpt>
      <trkpt lat="49.60153" lon="3.4393">
        <ele>147.1</ele>
        <time>2025-10-05T13:05:47.000Z</time>
      </trkpt>
      <trkpt lat="49.60152" lon="3.4393">
        <ele>147</ele>
        <time>2025-10-05T13:05:48.000Z</time>
      </trkpt>
      <trkpt lat="49.60152" lon="3.43928">
        <ele>147</ele>
        <time>2025-10-05T13:05:49.000Z</time>
      </trkpt>
      <trkpt lat="49.60151" lon="3.43927">
        <ele>147.1</ele>
        <time>2025-10-05T13:05:50.000Z</time>
      </trkpt>
      <trkpt lat="49.60151" lon="3.43926">
        <ele>146.9</ele>
        <time>2025-10-05T13:05:51.000Z</time>
      </trkpt>
      <trkpt lat="49.6015" lon="3.43926">
        <ele>147</ele>
        <time>2025-10-05T13:05:52.000Z</time>
      </trkpt>
      <trkpt lat="49.60149" lon="3.43925">
        <ele>147.2</ele>
        <time>2025-10-05T13:05:53.000Z</time>
      </trkpt>
      <trkpt lat="49.60149" lon="3.43924">
        <ele>147.4</ele>
        <time>2025-10-05T13:05:54.000Z</time>
      </trkpt>
      <trkpt lat="49.60148" lon="3.43922">
        <ele>147.8</ele>
        <time>2025-10-05T13:05:55.000Z</time>
      </trkpt>
      <trkpt lat="49.60147" lon="3.43921">
        <ele>148.2</ele>
        <time>2025-10-05T13:05:56.000Z</time>
      </trkpt>
      <trkpt lat="49.60147" lon="3.4392">
        <ele>148.5</ele>
        <time>2025-10-05T13:05:57.000Z</time>
      </trkpt>
      <trkpt lat="49.60146" lon="3.43919">
        <ele>148.9</ele>
        <time>2025-10-05T13:05:58.000Z</time>
      </trkpt>
      <trkpt lat="49.60145" lon="3.43918">
        <ele>149.1</ele>
        <time>2025-10-05T13:05:59.000Z</time>
      </trkpt>
      <trkpt lat="49.60144" lon="3.43916">
        <ele>149.2</ele>
        <time>2025-10-05T13:06:00.000Z</time>
      </trkpt>
      <trkpt lat="49.60143" lon="3.43915">
        <ele>149.4</ele>
        <time>2025-10-05T13:06:01.000Z</time>
      </trkpt>
      <trkpt lat="49.60142" lon="3.43915">
        <ele>149.5</ele>
        <time>2025-10-05T13:06:02.000Z</time>
      </trkpt>
      <trkpt lat="49.60142" lon="3.43913">
        <ele>149.7</ele>
        <time>2025-10-05T13:06:03.000Z</time>
      </trkpt>
      <trkpt lat="49.60141" lon="3.43913">
        <ele>149.7</ele>
        <time>2025-10-05T13:06:04.000Z</time>
      </trkpt>
      <trkpt lat="49.60141" lon="3.43913">
        <ele>149.3</ele>
        <time>2025-10-05T13:06:05.000Z</time>
      </trkpt>
      <trkpt lat="49.6014" lon="3.43912">
        <ele>149.4</ele>
        <time>2025-10-05T13:06:06.000Z</time>
      </trkpt>
      <trkpt lat="49.60139" lon="3.43911">
        <ele>149.4</ele>
        <time>2025-10-05T13:06:07.000Z</time>
      </trkpt>
      <trkpt lat="49.60138" lon="3.43911">
        <ele>149.8</ele>
        <time>2025-10-05T13:06:08.000Z</time>
      </trkpt>
      <trkpt lat="49.60137" lon="3.4391">
        <ele>150</ele>
        <time>2025-10-05T13:06:09.000Z</time>
      </trkpt>
      <trkpt lat="49.60137" lon="3.43909">
        <ele>150</ele>
        <time>2025-10-05T13:06:10.000Z</time>
      </trkpt>
      <trkpt lat="49.60135" lon="3.43909">
        <ele>150.3</ele>
        <time>2025-10-05T13:06:11.000Z</time>
      </trkpt>
      <trkpt lat="49.60135" lon="3.43907">
        <ele>150.4</ele>
        <time>2025-10-05T13:06:12.000Z</time>
      </trkpt>
      <trkpt lat="49.60134" lon="3.43907">
        <ele>150.8</ele>
        <time>2025-10-05T13:06:13.000Z</time>
      </trkpt>
      <trkpt lat="49.60134" lon="3.43906">
        <ele>151.2</ele>
        <time>2025-10-05T13:06:14.000Z</time>
      </trkpt>
      <trkpt lat="49.60133" lon="3.43905">
        <ele>151.4</ele>
        <time>2025-10-05T13:06:15.000Z</time>
      </trkpt>
      <trkpt lat="49.60133" lon="3.43904">
        <ele>151.2</ele>
        <time>2025-10-05T13:06:16.000Z</time>
      </trkpt>
      <trkpt lat="49.60133" lon="3.43902">
        <ele>150.6</ele>
        <time>2025-10-05T13:06:17.000Z</time>
      </trkpt>
      <trkpt lat="49.60132" lon="3.439">
        <ele>149.9</ele>
        <time>2025-10-05T13:06:18.000Z</time>
      </trkpt>
      <trkpt lat="49.60131" lon="3.43899">
        <ele>149.5</ele>
        <time>2025-10-05T13:06:19.000Z</time>
      </trkpt>
      <trkpt lat="49.6013" lon="3.43898">
        <ele>148.9</ele>
        <time>2025-10-05T13:06:20.000Z</time>
      </trkpt>
      <trkpt lat="49.60129" lon="3.43897">
        <ele>148.5</ele>
        <time>2025-10-05T13:06:21.000Z</time>
      </trkpt>
      <trkpt lat="49.60129" lon="3.43896">
        <ele>148</ele>
        <time>2025-10-05T13:06:22.000Z</time>
      </trkpt>
      <trkpt lat="49.60128" lon="3.43895">
        <ele>147.6</ele>
        <time>2025-10-05T13:06:23.000Z</time>
      </trkpt>
      <trkpt lat="49.60127" lon="3.43893">
        <ele>147</ele>
        <time>2025-10-05T13:06:24.000Z</time>
      </trkpt>
      <trkpt lat="49.60127" lon="3.43892">
        <ele>146.8</ele>
        <time>2025-10-05T13:06:25.000Z</time>
      </trkpt>
      <trkpt lat="49.60126" lon="3.4389">
        <ele>146.9</ele>
        <time>2025-10-05T13:06:26.000Z</time>
      </trkpt>
      <trkpt lat="49.60126" lon="3.43889">
        <ele>146.9</ele>
        <time>2025-10-05T13:06:27.000Z</time>
      </trkpt>
      <trkpt lat="49.60125" lon="3.43888">
        <ele>146.9</ele>
        <time>2025-10-05T13:06:28.000Z</time>
      </trkpt>
      <trkpt lat="49.60124" lon="3.43888">
        <ele>146.9</ele>
        <time>2025-10-05T13:06:29.000Z</time>
      </trkpt>
      <trkpt lat="49.60123" lon="3.43887">
        <ele>147</ele>
        <time>2025-10-05T13:06:30.000Z</time>
      </trkpt>
      <trkpt lat="49.60122" lon="3.43886">
        <ele>146.8</ele>
        <time>2025-10-05T13:06:31.000Z</time>
      </trkpt>
      <trkpt lat="49.60122" lon="3.43886">
        <ele>146.8</ele>
        <time>2025-10-05T13:06:32.000Z</time>
      </trkpt>
      <trkpt lat="49.60121" lon="3.43886">
        <ele>147.1</ele>
        <time>2025-10-05T13:06:33.000Z</time>
      </trkpt>
      <trkpt lat="49.6012" lon="3.43886">
        <ele>147.1</ele>
        <time>2025-10-05T13:06:34.000Z</time>
      </trkpt>
      <trkpt lat="49.60119" lon="3.43885">
        <ele>147.2</ele>
        <time>2025-10-05T13:06:35.000Z</time>
      </trkpt>
      <trkpt lat="49.60118" lon="3.43885">
        <ele>147.4</ele>
        <time>2025-10-05T13:06:36.000Z</time>
      </trkpt>
      <trkpt lat="49.60116" lon="3.43885">
        <ele>147.7</ele>
        <time>2025-10-05T13:06:37.000Z</time>
      </trkpt>
      <trkpt lat="49.60116" lon="3.43885">
        <ele>148.2</ele>
        <time>2025-10-05T13:06:38.000Z</time>
      </trkpt>
      <trkpt lat="49.60116" lon="3.43882">
        <ele>148.6</ele>
        <time>2025-10-05T13:06:39.000Z</time>
      </trkpt>
      <trkpt lat="49.60116" lon="3.43881">
        <ele>148.6</ele>
        <time>2025-10-05T13:06:40.000Z</time>
      </trkpt>
      <trkpt lat="49.60115" lon="3.4388">
        <ele>148.9</ele>
        <time>2025-10-05T13:06:41.000Z</time>
      </trkpt>
      <trkpt lat="49.60115" lon="3.4388">
        <ele>149.1</ele>
        <time>2025-10-05T13:06:42.000Z</time>
      </trkpt>
      <trkpt lat="49.60115" lon="3.43878">
        <ele>149.2</ele>
        <time>2025-10-05T13:06:43.000Z</time>
      </trkpt>
      <trkpt lat="49.60115" lon="3.43877">
        <ele>149.4</ele>
        <time>2025-10-05T13:06:44.000Z</time>
      </trkpt>
      <trkpt lat="49.60114" lon="3.43876">
        <ele>149.5</ele>
        <time>2025-10-05T13:06:45.000Z</time>
      </trkpt>
      <trkpt lat="49.60114" lon="3.43876">
        <ele>149.5</ele>
        <time>2025-10-05T13:06:46.000Z</time>
      </trkpt>
      <trkpt lat="49.60114" lon="3.43876">
        <ele>149.5</ele>
        <time>2025-10-05T13:06:47.000Z</time>
      </trkpt>
      <trkpt lat="49.60114" lon="3.43875">
        <ele>149.4</ele>
        <time>2025-10-05T13:06:48.000Z</time>
      </trkpt>
      <trkpt lat="49.60114" lon="3.43873">
        <ele>149.5</ele>
        <time>2025-10-05T13:06:49.000Z</time>
      </trkpt>
      <trkpt lat="49.60114" lon="3.43873">
        <ele>149.5</ele>
        <time>2025-10-05T13:06:50.000Z</time>
      </trkpt>
      <trkpt lat="49.60114" lon="3.43871">
        <ele>149.9</ele>
        <time>2025-10-05T13:06:51.000Z</time>
      </trkpt>
      <trkpt lat="49.60113" lon="3.43871">
        <ele>150.1</ele>
        <time>2025-10-05T13:06:52.000Z</time>
      </trkpt>
      <trkpt lat="49.60113" lon="3.4387">
        <ele>150.6</ele>
        <time>2025-10-05T13:06:53.000Z</time>
      </trkpt>
      <trkpt lat="49.60112" lon="3.4387">
        <ele>150.9</ele>
        <time>2025-10-05T13:06:54.000Z</time>
      </trkpt>
      <trkpt lat="49.60111" lon="3.43869">
        <ele>150.9</ele>
        <time>2025-10-05T13:06:55.000Z</time>
      </trkpt>
      <trkpt lat="49.60111" lon="3.43869">
        <ele>150.9</ele>
        <time>2025-10-05T13:06:56.000Z</time>
      </trkpt>
      <trkpt lat="49.60111" lon="3.43868">
        <ele>151</ele>
        <time>2025-10-05T13:06:57.000Z</time>
      </trkpt>
      <trkpt lat="49.6011" lon="3.43868">
        <ele>151.2</ele>
        <time>2025-10-05T13:06:58.000Z</time>
      </trkpt>
      <trkpt lat="49.60108" lon="3.43868">
        <ele>151.2</ele>
        <time>2025-10-05T13:06:59.000Z</time>
      </trkpt>
      <trkpt lat="49.60108" lon="3.43868">
        <ele>150.8</ele>
        <time>2025-10-05T13:07:00.000Z</time>
      </trkpt>
      <trkpt lat="49.60107" lon="3.43867">
        <ele>150.5</ele>
        <time>2025-10-05T13:07:01.000Z</time>
      </trkpt>
      <trkpt lat="49.60106" lon="3.43867">
        <ele>150.1</ele>
        <time>2025-10-05T13:07:02.000Z</time>
      </trkpt>
      <trkpt lat="49.60105" lon="3.43868">
        <ele>149.8</ele>
        <time>2025-10-05T13:07:03.000Z</time>
      </trkpt>
      <trkpt lat="49.60105" lon="3.43868">
        <ele>149.3</ele>
        <time>2025-10-05T13:07:04.000Z</time>
      </trkpt>
      <trkpt lat="49.60104" lon="3.43867">
        <ele>148.8</ele>
        <time>2025-10-05T13:07:05.000Z</time>
      </trkpt>
      <trkpt lat="49.60104" lon="3.43867">
        <ele>148.2</ele>
        <time>2025-10-05T13:07:06.000Z</time>
      </trkpt>
      <trkpt lat="49.60104" lon="3.43867">
        <ele>148</ele>
        <time>2025-10-05T13:07:07.000Z</time>
      </trkpt>
      <trkpt lat="49.60103" lon="3.43867">
        <ele>147.9</ele>
        <time>2025-10-05T13:07:08.000Z</time>
      </trkpt>
      <trkpt lat="49.60103" lon="3.43867">
        <ele>147.3</ele>
        <time>2025-10-05T13:07:09.000Z</time>
      </trkpt>
      <trkpt lat="49.60102" lon="3.43867">
        <ele>146.9</ele>
        <time>2025-10-05T13:07:10.000Z</time>
      </trkpt>
      <trkpt lat="49.60102" lon="3.43866">
        <ele>146.7</ele>
        <time>2025-10-05T13:07:11.000Z</time>
      </trkpt>
      <trkpt lat="49.60101" lon="3.43865">
        <ele>146.6</ele>
        <time>2025-10-05T13:07:12.000Z</time>
      </trkpt>
      <trkpt lat="49.601" lon="3.43864">
        <ele>146.5</ele>
        <time>2025-10-05T13:07:13.000Z</time>
      </trkpt>
      <trkpt lat="49.60099" lon="3.43863">
        <ele>146.4</ele>
        <time>2025-10-05T13:07:14.000Z</time>
      </trkpt>
      <trkpt lat="49.60098" lon="3.43862">
        <ele>146.4</ele>
        <time>2025-10-05T13:07:15.000Z</time>
      </trkpt>
      <trkpt lat="49.60098" lon="3.43861">
        <ele>146.3</ele>
        <time>2025-10-05T13:07:16.000Z</time>
      </trkpt>
      <trkpt lat="49.60097" lon="3.4386">
        <ele>146.2</ele>
        <time>2025-10-05T13:07:17.000Z</time>
      </trkpt>
      <trkpt lat="49.60097" lon="3.43859">
        <ele>146.2</ele>
        <time>2025-10-05T13:07:18.000Z</time>
      </trkpt>
      <trkpt lat="49.60096" lon="3.43859">
        <ele>146.1</ele>
        <time>2025-10-05T13:07:19.000Z</time>
      </trkpt>
      <trkpt lat="49.60095" lon="3.43859">
        <ele>145.6</ele>
        <time>2025-10-05T13:07:20.000Z</time>
      </trkpt>
      <trkpt lat="49.60094" lon="3.4386">
        <ele>145.3</ele>
        <time>2025-10-05T13:07:21.000Z</time>
      </trkpt>
      <trkpt lat="49.60094" lon="3.4386">
        <ele>145.2</ele>
        <time>2025-10-05T13:07:22.000Z</time>
      </trkpt>
      <trkpt lat="49.60093" lon="3.4386">
        <ele>145.2</ele>
        <time>2025-10-05T13:07:23.000Z</time>
      </trkpt>
      <trkpt lat="49.60092" lon="3.4386">
        <ele>145.1</ele>
        <time>2025-10-05T13:07:24.000Z</time>
      </trkpt>
      <trkpt lat="49.6009" lon="3.43859">
        <ele>144.9</ele>
        <time>2025-10-05T13:07:25.000Z</time>
      </trkpt>
      <trkpt lat="49.60089" lon="3.43859">
        <ele>144.8</ele>
        <time>2025-10-05T13:07:26.000Z</time>
      </trkpt>
      <trkpt lat="49.60088" lon="3.43858">
        <ele>144.7</ele>
        <time>2025-10-05T13:07:27.000Z</time>
      </trkpt>
      <trkpt lat="49.60086" lon="3.43857">
        <ele>144.8</ele>
        <time>2025-10-05T13:07:28.000Z</time>
      </trkpt>
      <trkpt lat="49.60086" lon="3.43857">
        <ele>145.1</ele>
        <time>2025-10-05T13:07:29.000Z</time>
      </trkpt>
      <trkpt lat="49.60086" lon="3.43857">
        <ele>145.4</ele>
        <time>2025-10-05T13:07:30.000Z</time>
      </trkpt>
      <trkpt lat="49.60086" lon="3.43856">
        <ele>145.9</ele>
        <time>2025-10-05T13:07:31.000Z</time>
      </trkpt>
      <trkpt lat="49.60085" lon="3.43856">
        <ele>146</ele>
        <time>2025-10-05T13:07:32.000Z</time>
      </trkpt>
      <trkpt lat="49.60084" lon="3.43856">
        <ele>146.2</ele>
        <time>2025-10-05T13:07:33.000Z</time>
      </trkpt>
      <trkpt lat="49.60083" lon="3.43856">
        <ele>146.5</ele>
        <time>2025-10-05T13:07:34.000Z</time>
      </trkpt>
      <trkpt lat="49.60083" lon="3.43856">
        <ele>146.6</ele>
        <time>2025-10-05T13:07:35.000Z</time>
      </trkpt>
      <trkpt lat="49.60082" lon="3.43856">
        <ele>146.7</ele>
        <time>2025-10-05T13:07:36.000Z</time>
      </trkpt>
      <trkpt lat="49.60081" lon="3.43856">
        <ele>146.8</ele>
        <time>2025-10-05T13:07:37.000Z</time>
      </trkpt>
      <trkpt lat="49.6008" lon="3.43855">
        <ele>147.1</ele>
        <time>2025-10-05T13:07:38.000Z</time>
      </trkpt>
      <trkpt lat="49.60079" lon="3.43855">
        <ele>147</ele>
        <time>2025-10-05T13:07:39.000Z</time>
      </trkpt>
      <trkpt lat="49.60079" lon="3.43854">
        <ele>147</ele>
        <time>2025-10-05T13:07:40.000Z</time>
      </trkpt>
      <trkpt lat="49.60078" lon="3.43853">
        <ele>146.7</ele>
        <time>2025-10-05T13:07:41.000Z</time>
      </trkpt>
      <trkpt lat="49.60077" lon="3.43854">
        <ele>146.4</ele>
        <time>2025-10-05T13:07:42.000Z</time>
      </trkpt>
      <trkpt lat="49.60076" lon="3.43854">
        <ele>146</ele>
        <time>2025-10-05T13:07:43.000Z</time>
      </trkpt>
      <trkpt lat="49.60075" lon="3.43854">
        <ele>145.7</ele>
        <time>2025-10-05T13:07:44.000Z</time>
      </trkpt>
      <trkpt lat="49.60075" lon="3.43854">
        <ele>145.5</ele>
        <time>2025-10-05T13:07:45.000Z</time>
      </trkpt>
      <trkpt lat="49.60074" lon="3.43854">
        <ele>145.3</ele>
        <time>2025-10-05T13:07:46.000Z</time>
      </trkpt>
      <trkpt lat="49.60072" lon="3.43854">
        <ele>145.1</ele>
        <time>2025-10-05T13:07:47.000Z</time>
      </trkpt>
      <trkpt lat="49.60072" lon="3.43853">
        <ele>144.7</ele>
        <time>2025-10-05T13:07:48.000Z</time>
      </trkpt>
      <trkpt lat="49.6007" lon="3.43853">
        <ele>144.3</ele>
        <time>2025-10-05T13:07:49.000Z</time>
      </trkpt>
      <trkpt lat="49.60069" lon="3.43853">
        <ele>144.3</ele>
        <time>2025-10-05T13:07:50.000Z</time>
      </trkpt>
      <trkpt lat="49.60068" lon="3.43853">
        <ele>144.3</ele>
        <time>2025-10-05T13:07:51.000Z</time>
      </trkpt>
      <trkpt lat="49.60067" lon="3.43853">
        <ele>144.1</ele>
        <time>2025-10-05T13:07:52.000Z</time>
      </trkpt>
      <trkpt lat="49.60066" lon="3.43853">
        <ele>144</ele>
        <time>2025-10-05T13:07:53.000Z</time>
      </trkpt>
      <trkpt lat="49.60065" lon="3.43853">
        <ele>143.7</ele>
        <time>2025-10-05T13:07:54.000Z</time>
      </trkpt>
      <trkpt lat="49.60064" lon="3.43853">
        <ele>143.6</ele>
        <time>2025-10-05T13:07:55.000Z</time>
      </trkpt>
      <trkpt lat="49.60063" lon="3.43853">
        <ele>143.5</ele>
        <time>2025-10-05T13:07:56.000Z</time>
      </trkpt>
      <trkpt lat="49.60062" lon="3.43852">
        <ele>143.4</ele>
        <time>2025-10-05T13:07:57.000Z</time>
      </trkpt>
      <trkpt lat="49.60061" lon="3.43851">
        <ele>143.5</ele>
        <time>2025-10-05T13:07:58.000Z</time>
      </trkpt>
      <trkpt lat="49.6006" lon="3.43851">
        <ele>143.2</ele>
        <time>2025-10-05T13:07:59.000Z</time>
      </trkpt>
      <trkpt lat="49.6006" lon="3.4385">
        <ele>143.1</ele>
        <time>2025-10-05T13:08:00.000Z</time>
      </trkpt>
      <trkpt lat="49.60059" lon="3.43849">
        <ele>142.6</ele>
        <time>2025-10-05T13:08:01.000Z</time>
      </trkpt>
      <trkpt lat="49.60058" lon="3.43849">
        <ele>142.4</ele>
        <time>2025-10-05T13:08:02.000Z</time>
      </trkpt>
      <trkpt lat="49.60057" lon="3.43849">
        <ele>142.4</ele>
        <time>2025-10-05T13:08:03.000Z</time>
      </trkpt>
      <trkpt lat="49.60056" lon="3.43849">
        <ele>142</ele>
        <time>2025-10-05T13:08:04.000Z</time>
      </trkpt>
      <trkpt lat="49.60055" lon="3.43849">
        <ele>141.7</ele>
        <time>2025-10-05T13:08:05.000Z</time>
      </trkpt>
      <trkpt lat="49.60055" lon="3.43849">
        <ele>141.3</ele>
        <time>2025-10-05T13:08:06.000Z</time>
      </trkpt>
      <trkpt lat="49.60055" lon="3.43849">
        <ele>140.8</ele>
        <time>2025-10-05T13:08:07.000Z</time>
      </trkpt>
      <trkpt lat="49.60054" lon="3.4385">
        <ele>140.4</ele>
        <time>2025-10-05T13:08:08.000Z</time>
      </trkpt>
      <trkpt lat="49.60054" lon="3.43851">
        <ele>140.5</ele>
        <time>2025-10-05T13:08:09.000Z</time>
      </trkpt>
      <trkpt lat="49.60053" lon="3.43851">
        <ele>140.6</ele>
        <time>2025-10-05T13:08:10.000Z</time>
      </trkpt>
      <trkpt lat="49.60053" lon="3.43852">
        <ele>140.8</ele>
        <time>2025-10-05T13:08:11.000Z</time>
      </trkpt>
      <trkpt lat="49.60053" lon="3.43852">
        <ele>140.9</ele>
        <time>2025-10-05T13:08:12.000Z</time>
      </trkpt>
      <trkpt lat="49.60052" lon="3.43852">
        <ele>141</ele>
        <time>2025-10-05T13:08:13.000Z</time>
      </trkpt>
      <trkpt lat="49.60052" lon="3.43851">
        <ele>141</ele>
        <time>2025-10-05T13:08:14.000Z</time>
      </trkpt>
      <trkpt lat="49.60051" lon="3.43851">
        <ele>140.7</ele>
        <time>2025-10-05T13:08:15.000Z</time>
      </trkpt>
      <trkpt lat="49.6005" lon="3.4385">
        <ele>140.5</ele>
        <time>2025-10-05T13:08:16.000Z</time>
      </trkpt>
      <trkpt lat="49.6005" lon="3.4385">
        <ele>140.5</ele>
        <time>2025-10-05T13:08:17.000Z</time>
      </trkpt>
      <trkpt lat="49.60049" lon="3.4385">
        <ele>140.4</ele>
        <time>2025-10-05T13:08:18.000Z</time>
      </trkpt>
      <trkpt lat="49.60048" lon="3.43849">
        <ele>140.5</ele>
        <time>2025-10-05T13:08:19.000Z</time>
      </trkpt>
      <trkpt lat="49.60048" lon="3.43849">
        <ele>140.5</ele>
        <time>2025-10-05T13:08:20.000Z</time>
      </trkpt>
      <trkpt lat="49.60047" lon="3.43848">
        <ele>140.7</ele>
        <time>2025-10-05T13:08:21.000Z</time>
      </trkpt>
      <trkpt lat="49.60047" lon="3.43849">
        <ele>140.8</ele>
        <time>2025-10-05T13:08:22.000Z</time>
      </trkpt>
      <trkpt lat="49.60046" lon="3.43849">
        <ele>141</ele>
        <time>2025-10-05T13:08:23.000Z</time>
      </trkpt>
      <trkpt lat="49.60045" lon="3.43849">
        <ele>141.1</ele>
        <time>2025-10-05T13:08:24.000Z</time>
      </trkpt>
      <trkpt lat="49.60044" lon="3.43849">
        <ele>141.4</ele>
        <time>2025-10-05T13:08:25.000Z</time>
      </trkpt>
      <trkpt lat="49.60044" lon="3.4385">
        <ele>141.3</ele>
        <time>2025-10-05T13:08:26.000Z</time>
      </trkpt>
      <trkpt lat="49.60044" lon="3.4385">
        <ele>141.3</ele>
        <time>2025-10-05T13:08:27.000Z</time>
      </trkpt>
      <trkpt lat="49.60044" lon="3.43851">
        <ele>141.5</ele>
        <time>2025-10-05T13:08:28.000Z</time>
      </trkpt>
      <trkpt lat="49.60044" lon="3.43851">
        <ele>141.8</ele>
        <time>2025-10-05T13:08:29.000Z</time>
      </trkpt>
      <trkpt lat="49.60043" lon="3.43851">
        <ele>141.9</ele>
        <time>2025-10-05T13:08:30.000Z</time>
      </trkpt>
      <trkpt lat="49.60043" lon="3.43851">
        <ele>142.2</ele>
        <time>2025-10-05T13:08:31.000Z</time>
      </trkpt>
      <trkpt lat="49.60042" lon="3.43851">
        <ele>142.5</ele>
        <time>2025-10-05T13:08:32.000Z</time>
      </trkpt>
      <trkpt lat="49.60042" lon="3.43851">
        <ele>142.6</ele>
        <time>2025-10-05T13:08:33.000Z</time>
      </trkpt>
      <trkpt lat="49.60041" lon="3.4385">
        <ele>142.8</ele>
        <time>2025-10-05T13:08:34.000Z</time>
      </trkpt>
      <trkpt lat="49.6004" lon="3.4385">
        <ele>142.8</ele>
        <time>2025-10-05T13:08:35.000Z</time>
      </trkpt>
      <trkpt lat="49.60039" lon="3.4385">
        <ele>142.5</ele>
        <time>2025-10-05T13:08:36.000Z</time>
      </trkpt>
      <trkpt lat="49.60038" lon="3.43851">
        <ele>141.9</ele>
        <time>2025-10-05T13:08:37.000Z</time>
      </trkpt>
      <trkpt lat="49.60036" lon="3.43851">
        <ele>141.5</ele>
        <time>2025-10-05T13:08:38.000Z</time>
      </trkpt>
      <trkpt lat="49.60034" lon="3.43851">
        <ele>141.4</ele>
        <time>2025-10-05T13:08:39.000Z</time>
      </trkpt>
      <trkpt lat="49.60032" lon="3.43851">
        <ele>141.1</ele>
        <time>2025-10-05T13:08:40.000Z</time>
      </trkpt>
      <trkpt lat="49.60031" lon="3.4385">
        <ele>141</ele>
        <time>2025-10-05T13:08:41.000Z</time>
      </trkpt>
      <trkpt lat="49.6003" lon="3.4385">
        <ele>140.7</ele>
        <time>2025-10-05T13:08:42.000Z</time>
      </trkpt>
      <trkpt lat="49.60029" lon="3.4385">
        <ele>140.7</ele>
        <time>2025-10-05T13:08:43.000Z</time>
      </trkpt>
      <trkpt lat="49.60028" lon="3.43849">
        <ele>140.5</ele>
        <time>2025-10-05T13:08:44.000Z</time>
      </trkpt>
      <trkpt lat="49.60028" lon="3.4385">
        <ele>140.2</ele>
        <time>2025-10-05T13:08:45.000Z</time>
      </trkpt>
      <trkpt lat="49.60028" lon="3.4385">
        <ele>140.1</ele>
        <time>2025-10-05T13:08:46.000Z</time>
      </trkpt>
      <trkpt lat="49.60027" lon="3.4385">
        <ele>139.7</ele>
        <time>2025-10-05T13:08:47.000Z</time>
      </trkpt>
      <trkpt lat="49.60027" lon="3.43851">
        <ele>139.3</ele>
        <time>2025-10-05T13:08:48.000Z</time>
      </trkpt>
      <trkpt lat="49.60026" lon="3.43852">
        <ele>139.1</ele>
        <time>2025-10-05T13:08:49.000Z</time>
      </trkpt>
      <trkpt lat="49.60026" lon="3.43852">
        <ele>138.9</ele>
        <time>2025-10-05T13:08:50.000Z</time>
      </trkpt>
      <trkpt lat="49.60025" lon="3.43852">
        <ele>138.8</ele>
        <time>2025-10-05T13:08:51.000Z</time>
      </trkpt>
      <trkpt lat="49.60023" lon="3.43852">
        <ele>138.4</ele>
        <time>2025-10-05T13:08:52.000Z</time>
      </trkpt>
      <trkpt lat="49.60023" lon="3.43852">
        <ele>138.2</ele>
        <time>2025-10-05T13:08:53.000Z</time>
      </trkpt>
      <trkpt lat="49.60021" lon="3.43852">
        <ele>138.1</ele>
        <time>2025-10-05T13:08:54.000Z</time>
      </trkpt>
      <trkpt lat="49.6002" lon="3.43853">
        <ele>138.3</ele>
        <time>2025-10-05T13:08:55.000Z</time>
      </trkpt>
      <trkpt lat="49.60019" lon="3.43853">
        <ele>138</ele>
        <time>2025-10-05T13:08:56.000Z</time>
      </trkpt>
      <trkpt lat="49.60018" lon="3.43853">
        <ele>138</ele>
        <time>2025-10-05T13:08:57.000Z</time>
      </trkpt>
      <trkpt lat="49.60017" lon="3.43853">
        <ele>138.2</ele>
        <time>2025-10-05T13:08:58.000Z</time>
      </trkpt>
      <trkpt lat="49.60017" lon="3.43853">
        <ele>138.3</ele>
        <time>2025-10-05T13:08:59.000Z</time>
      </trkpt>
      <trkpt lat="49.60016" lon="3.43853">
        <ele>138.2</ele>
        <time>2025-10-05T13:09:00.000Z</time>
      </trkpt>
      <trkpt lat="49.60015" lon="3.43853">
        <ele>138.2</ele>
        <time>2025-10-05T13:09:01.000Z</time>
      </trkpt>
      <trkpt lat="49.60014" lon="3.43854">
        <ele>138.4</ele>
        <time>2025-10-05T13:09:02.000Z</time>
      </trkpt>
      <trkpt lat="49.60013" lon="3.43855">
        <ele>138.5</ele>
        <time>2025-10-05T13:09:03.000Z</time>
      </trkpt>
      <trkpt lat="49.60012" lon="3.43856">
        <ele>138.3</ele>
        <time>2025-10-05T13:09:04.000Z</time>
      </trkpt>
      <trkpt lat="49.60011" lon="3.43856">
        <ele>138.1</ele>
        <time>2025-10-05T13:09:05.000Z</time>
      </trkpt>
      <trkpt lat="49.6001" lon="3.43856">
        <ele>137.8</ele>
        <time>2025-10-05T13:09:06.000Z</time>
      </trkpt>
      <trkpt lat="49.60009" lon="3.43856">
        <ele>137.1</ele>
        <time>2025-10-05T13:09:07.000Z</time>
      </trkpt>
      <trkpt lat="49.60007" lon="3.43854">
        <ele>136.8</ele>
        <time>2025-10-05T13:09:08.000Z</time>
      </trkpt>
      <trkpt lat="49.60007" lon="3.43854">
        <ele>136.8</ele>
        <time>2025-10-05T13:09:09.000Z</time>
      </trkpt>
      <trkpt lat="49.60006" lon="3.43854">
        <ele>136.8</ele>
        <time>2025-10-05T13:09:10.000Z</time>
      </trkpt>
      <trkpt lat="49.60005" lon="3.43853">
        <ele>136.7</ele>
        <time>2025-10-05T13:09:11.000Z</time>
      </trkpt>
      <trkpt lat="49.60005" lon="3.43853">
        <ele>136.8</ele>
        <time>2025-10-05T13:09:12.000Z</time>
      </trkpt>
      <trkpt lat="49.60003" lon="3.43854">
        <ele>136.9</ele>
        <time>2025-10-05T13:09:13.000Z</time>
      </trkpt>
      <trkpt lat="49.60003" lon="3.43853">
        <ele>137.2</ele>
        <time>2025-10-05T13:09:14.000Z</time>
      </trkpt>
      <trkpt lat="49.60002" lon="3.43853">
        <ele>137.5</ele>
        <time>2025-10-05T13:09:15.000Z</time>
      </trkpt>
      <trkpt lat="49.60001" lon="3.43853">
        <ele>137.7</ele>
        <time>2025-10-05T13:09:16.000Z</time>
      </trkpt>
      <trkpt lat="49.59999" lon="3.43852">
        <ele>137.5</ele>
        <time>2025-10-05T13:09:17.000Z</time>
      </trkpt>
      <trkpt lat="49.59997" lon="3.43851">
        <ele>137.2</ele>
        <time>2025-10-05T13:09:18.000Z</time>
      </trkpt>
      <trkpt lat="49.59997" lon="3.43851">
        <ele>137.8</ele>
        <time>2025-10-05T13:09:19.000Z</time>
      </trkpt>
      <trkpt lat="49.59996" lon="3.43851">
        <ele>138.1</ele>
        <time>2025-10-05T13:09:20.000Z</time>
      </trkpt>
      <trkpt lat="49.59996" lon="3.43852">
        <ele>138.4</ele>
        <time>2025-10-05T13:09:21.000Z</time>
      </trkpt>
      <trkpt lat="49.59996" lon="3.43852">
        <ele>138.6</ele>
        <time>2025-10-05T13:09:22.000Z</time>
      </trkpt>
      <trkpt lat="49.59995" lon="3.43853">
        <ele>138.7</ele>
        <time>2025-10-05T13:09:23.000Z</time>
      </trkpt>
      <trkpt lat="49.59994" lon="3.43853">
        <ele>139.3</ele>
        <time>2025-10-05T13:09:24.000Z</time>
      </trkpt>
      <trkpt lat="49.59994" lon="3.43853">
        <ele>139.6</ele>
        <time>2025-10-05T13:09:25.000Z</time>
      </trkpt>
      <trkpt lat="49.59993" lon="3.43854">
        <ele>139.9</ele>
        <time>2025-10-05T13:09:26.000Z</time>
      </trkpt>
      <trkpt lat="49.59993" lon="3.43853">
        <ele>139.9</ele>
        <time>2025-10-05T13:09:27.000Z</time>
      </trkpt>
      <trkpt lat="49.59992" lon="3.43853">
        <ele>139.6</ele>
        <time>2025-10-05T13:09:28.000Z</time>
      </trkpt>
      <trkpt lat="49.59991" lon="3.43853">
        <ele>139.2</ele>
        <time>2025-10-05T13:09:29.000Z</time>
      </trkpt>
      <trkpt lat="49.59991" lon="3.43853">
        <ele>139.2</ele>
        <time>2025-10-05T13:09:30.000Z</time>
      </trkpt>
      <trkpt lat="49.5999" lon="3.43852">
        <ele>139.6</ele>
        <time>2025-10-05T13:09:31.000Z</time>
      </trkpt>
      <trkpt lat="49.5999" lon="3.43852">
        <ele>139.8</ele>
        <time>2025-10-05T13:09:32.000Z</time>
      </trkpt>
      <trkpt lat="49.59989" lon="3.43853">
        <ele>139.7</ele>
        <time>2025-10-05T13:09:33.000Z</time>
      </trkpt>
      <trkpt lat="49.59988" lon="3.43853">
        <ele>139.2</ele>
        <time>2025-10-05T13:09:34.000Z</time>
      </trkpt>
      <trkpt lat="49.59988" lon="3.43853">
        <ele>139.1</ele>
        <time>2025-10-05T13:09:35.000Z</time>
      </trkpt>
      <trkpt lat="49.59987" lon="3.43852">
        <ele>139.3</ele>
        <time>2025-10-05T13:09:36.000Z</time>
      </trkpt>
      <trkpt lat="49.59986" lon="3.43852">
        <ele>139.3</ele>
        <time>2025-10-05T13:09:37.000Z</time>
      </trkpt>
      <trkpt lat="49.59985" lon="3.43852">
        <ele>139.3</ele>
        <time>2025-10-05T13:09:38.000Z</time>
      </trkpt>
      <trkpt lat="49.59984" lon="3.43852">
        <ele>139.4</ele>
        <time>2025-10-05T13:09:39.000Z</time>
      </trkpt>
      <trkpt lat="49.59983" lon="3.43852">
        <ele>139.2</ele>
        <time>2025-10-05T13:09:40.000Z</time>
      </trkpt>
      <trkpt lat="49.59982" lon="3.43852">
        <ele>139.2</ele>
        <time>2025-10-05T13:09:41.000Z</time>
      </trkpt>
      <trkpt lat="49.5998" lon="3.43852">
        <ele>138.9</ele>
        <time>2025-10-05T13:09:42.000Z</time>
      </trkpt>
      <trkpt lat="49.59979" lon="3.43853">
        <ele>139</ele>
        <time>2025-10-05T13:09:43.000Z</time>
      </trkpt>
      <trkpt lat="49.59978" lon="3.43853">
        <ele>139</ele>
        <time>2025-10-05T13:09:44.000Z</time>
      </trkpt>
      <trkpt lat="49.59978" lon="3.43854">
        <ele>139.1</ele>
        <time>2025-10-05T13:09:45.000Z</time>
      </trkpt>
      <trkpt lat="49.59977" lon="3.43854">
        <ele>139.3</ele>
        <time>2025-10-05T13:09:46.000Z</time>
      </trkpt>
      <trkpt lat="49.59976" lon="3.43855">
        <ele>139.4</ele>
        <time>2025-10-05T13:09:47.000Z</time>
      </trkpt>
      <trkpt lat="49.59975" lon="3.43856">
        <ele>139.3</ele>
        <time>2025-10-05T13:09:48.000Z</time>
      </trkpt>
      <trkpt lat="49.59974" lon="3.43856">
        <ele>139.2</ele>
        <time>2025-10-05T13:09:49.000Z</time>
      </trkpt>
      <trkpt lat="49.59973" lon="3.43857">
        <ele>138.9</ele>
        <time>2025-10-05T13:09:50.000Z</time>
      </trkpt>
      <trkpt lat="49.59973" lon="3.43857">
        <ele>139</ele>
        <time>2025-10-05T13:09:51.000Z</time>
      </trkpt>
      <trkpt lat="49.59972" lon="3.43857">
        <ele>139.3</ele>
        <time>2025-10-05T13:09:52.000Z</time>
      </trkpt>
      <trkpt lat="49.59971" lon="3.43858">
        <ele>139.4</ele>
        <time>2025-10-05T13:09:53.000Z</time>
      </trkpt>
      <trkpt lat="49.59971" lon="3.43858">
        <ele>139.6</ele>
        <time>2025-10-05T13:09:54.000Z</time>
      </trkpt>
      <trkpt lat="49.5997" lon="3.43859">
        <ele>139.8</ele>
        <time>2025-10-05T13:09:55.000Z</time>
      </trkpt>
      <trkpt lat="49.5997" lon="3.43859">
        <ele>140.1</ele>
        <time>2025-10-05T13:09:56.000Z</time>
      </trkpt>
      <trkpt lat="49.59969" lon="3.43859">
        <ele>140.3</ele>
        <time>2025-10-05T13:09:57.000Z</time>
      </trkpt>
      <trkpt lat="49.59968" lon="3.43859">
        <ele>140.6</ele>
        <time>2025-10-05T13:09:58.000Z</time>
      </trkpt>
      <trkpt lat="49.59967" lon="3.43859">
        <ele>140.5</ele>
        <time>2025-10-05T13:09:59.000Z</time>
      </trkpt>
      <trkpt lat="49.59967" lon="3.43859">
        <ele>140.4</ele>
        <time>2025-10-05T13:10:00.000Z</time>
      </trkpt>
      <trkpt lat="49.59966" lon="3.43859">
        <ele>140.5</ele>
        <time>2025-10-05T13:10:01.000Z</time>
      </trkpt>
      <trkpt lat="49.59965" lon="3.4386">
        <ele>140.6</ele>
        <time>2025-10-05T13:10:02.000Z</time>
      </trkpt>
      <trkpt lat="49.59965" lon="3.43861">
        <ele>140.8</ele>
        <time>2025-10-05T13:10:03.000Z</time>
      </trkpt>
      <trkpt lat="49.59964" lon="3.43861">
        <ele>141</ele>
        <time>2025-10-05T13:10:04.000Z</time>
      </trkpt>
      <trkpt lat="49.59963" lon="3.43861">
        <ele>141.2</ele>
        <time>2025-10-05T13:10:05.000Z</time>
      </trkpt>
      <trkpt lat="49.59961" lon="3.43861">
        <ele>140.9</ele>
        <time>2025-10-05T13:10:06.000Z</time>
      </trkpt>
      <trkpt lat="49.5996" lon="3.43862">
        <ele>140.8</ele>
        <time>2025-10-05T13:10:07.000Z</time>
      </trkpt>
      <trkpt lat="49.5996" lon="3.43862">
        <ele>140.6</ele>
        <time>2025-10-05T13:10:08.000Z</time>
      </trkpt>
      <trkpt lat="49.59958" lon="3.43862">
        <ele>140.9</ele>
        <time>2025-10-05T13:10:09.000Z</time>
      </trkpt>
      <trkpt lat="49.59957" lon="3.43862">
        <ele>140.8</ele>
        <time>2025-10-05T13:10:10.000Z</time>
      </trkpt>
      <trkpt lat="49.59956" lon="3.43862">
        <ele>140.8</ele>
        <time>2025-10-05T13:10:11.000Z</time>
      </trkpt>
      <trkpt lat="49.59955" lon="3.43863">
        <ele>140.7</ele>
        <time>2025-10-05T13:10:12.000Z</time>
      </trkpt>
      <trkpt lat="49.59954" lon="3.43863">
        <ele>140.5</ele>
        <time>2025-10-05T13:10:13.000Z</time>
      </trkpt>
      <trkpt lat="49.59952" lon="3.43863">
        <ele>140.6</ele>
        <time>2025-10-05T13:10:14.000Z</time>
      </trkpt>
      <trkpt lat="49.59951" lon="3.43863">
        <ele>140.3</ele>
        <time>2025-10-05T13:10:15.000Z</time>
      </trkpt>
      <trkpt lat="49.5995" lon="3.43862">
        <ele>140.4</ele>
        <time>2025-10-05T13:10:16.000Z</time>
      </trkpt>
      <trkpt lat="49.59949" lon="3.43862">
        <ele>140.4</ele>
        <time>2025-10-05T13:10:17.000Z</time>
      </trkpt>
      <trkpt lat="49.59948" lon="3.43862">
        <ele>140.3</ele>
        <time>2025-10-05T13:10:18.000Z</time>
      </trkpt>
      <trkpt lat="49.59946" lon="3.43863">
        <ele>140.1</ele>
        <time>2025-10-05T13:10:19.000Z</time>
      </trkpt>
      <trkpt lat="49.59945" lon="3.43863">
        <ele>140</ele>
        <time>2025-10-05T13:10:20.000Z</time>
      </trkpt>
      <trkpt lat="49.59944" lon="3.43863">
        <ele>139.5</ele>
        <time>2025-10-05T13:10:21.000Z</time>
      </trkpt>
      <trkpt lat="49.59943" lon="3.43864">
        <ele>139.2</ele>
        <time>2025-10-05T13:10:22.000Z</time>
      </trkpt>
      <trkpt lat="49.59942" lon="3.43864">
        <ele>139.1</ele>
        <time>2025-10-05T13:10:23.000Z</time>
      </trkpt>
      <trkpt lat="49.59941" lon="3.43864">
        <ele>139.7</ele>
        <time>2025-10-05T13:10:24.000Z</time>
      </trkpt>
      <trkpt lat="49.5994" lon="3.43863">
        <ele>139.7</ele>
        <time>2025-10-05T13:10:25.000Z</time>
      </trkpt>
      <trkpt lat="49.59939" lon="3.43862">
        <ele>139.8</ele>
        <time>2025-10-05T13:10:26.000Z</time>
      </trkpt>
      <trkpt lat="49.59938" lon="3.43861">
        <ele>139.4</ele>
        <time>2025-10-05T13:10:27.000Z</time>
      </trkpt>
      <trkpt lat="49.59937" lon="3.43861">
        <ele>138.7</ele>
        <time>2025-10-05T13:10:28.000Z</time>
      </trkpt>
      <trkpt lat="49.59936" lon="3.43861">
        <ele>138.5</ele>
        <time>2025-10-05T13:10:29.000Z</time>
      </trkpt>
      <trkpt lat="49.59936" lon="3.43861">
        <ele>138.1</ele>
        <time>2025-10-05T13:10:30.000Z</time>
      </trkpt>
      <trkpt lat="49.59935" lon="3.43861">
        <ele>138.3</ele>
        <time>2025-10-05T13:10:31.000Z</time>
      </trkpt>
      <trkpt lat="49.59934" lon="3.43861">
        <ele>138.1</ele>
        <time>2025-10-05T13:10:32.000Z</time>
      </trkpt>
      <trkpt lat="49.59933" lon="3.43861">
        <ele>138</ele>
        <time>2025-10-05T13:10:33.000Z</time>
      </trkpt>
      <trkpt lat="49.59932" lon="3.43861">
        <ele>138.3</ele>
        <time>2025-10-05T13:10:34.000Z</time>
      </trkpt>
      <trkpt lat="49.59931" lon="3.4386">
        <ele>139.1</ele>
        <time>2025-10-05T13:10:35.000Z</time>
      </trkpt>
      <trkpt lat="49.5993" lon="3.4386">
        <ele>139.7</ele>
        <time>2025-10-05T13:10:36.000Z</time>
      </trkpt>
      <trkpt lat="49.59929" lon="3.4386">
        <ele>139.8</ele>
        <time>2025-10-05T13:10:37.000Z</time>
      </trkpt>
      <trkpt lat="49.59927" lon="3.43861">
        <ele>140.2</ele>
        <time>2025-10-05T13:10:38.000Z</time>
      </trkpt>
      <trkpt lat="49.59926" lon="3.43863">
        <ele>140.4</ele>
        <time>2025-10-05T13:10:39.000Z</time>
      </trkpt>
      <trkpt lat="49.59925" lon="3.43863">
        <ele>140.2</ele>
        <time>2025-10-05T13:10:40.000Z</time>
      </trkpt>
      <trkpt lat="49.59923" lon="3.43863">
        <ele>140.5</ele>
        <time>2025-10-05T13:10:41.000Z</time>
      </trkpt>
      <trkpt lat="49.59922" lon="3.43863">
        <ele>140.6</ele>
        <time>2025-10-05T13:10:42.000Z</time>
      </trkpt>
      <trkpt lat="49.59922" lon="3.43863">
        <ele>140.7</ele>
        <time>2025-10-05T13:10:43.000Z</time>
      </trkpt>
      <trkpt lat="49.59922" lon="3.43863">
        <ele>141.1</ele>
        <time>2025-10-05T13:10:44.000Z</time>
      </trkpt>
      <trkpt lat="49.59921" lon="3.43863">
        <ele>141.1</ele>
        <time>2025-10-05T13:10:45.000Z</time>
      </trkpt>
      <trkpt lat="49.5992" lon="3.43863">
        <ele>141</ele>
        <time>2025-10-05T13:10:46.000Z</time>
      </trkpt>
      <trkpt lat="49.59919" lon="3.43863">
        <ele>141</ele>
        <time>2025-10-05T13:10:47.000Z</time>
      </trkpt>
      <trkpt lat="49.59919" lon="3.43862">
        <ele>140.9</ele>
        <time>2025-10-05T13:10:48.000Z</time>
      </trkpt>
      <trkpt lat="49.59918" lon="3.43861">
        <ele>140.7</ele>
        <time>2025-10-05T13:10:49.000Z</time>
      </trkpt>
      <trkpt lat="49.59917" lon="3.43861">
        <ele>140.6</ele>
        <time>2025-10-05T13:10:50.000Z</time>
      </trkpt>
      <trkpt lat="49.59916" lon="3.43861">
        <ele>140.5</ele>
        <time>2025-10-05T13:10:51.000Z</time>
      </trkpt>
      <trkpt lat="49.59914" lon="3.43861">
        <ele>140.4</ele>
        <time>2025-10-05T13:10:52.000Z</time>
      </trkpt>
      <trkpt lat="49.59913" lon="3.4386">
        <ele>140.5</ele>
        <time>2025-10-05T13:10:53.000Z</time>
      </trkpt>
      <trkpt lat="49.59912" lon="3.43861">
        <ele>140.5</ele>
        <time>2025-10-05T13:10:54.000Z</time>
      </trkpt>
      <trkpt lat="49.59911" lon="3.4386">
        <ele>140.5</ele>
        <time>2025-10-05T13:10:55.000Z</time>
      </trkpt>
      <trkpt lat="49.59911" lon="3.4386">
        <ele>140.5</ele>
        <time>2025-10-05T13:10:56.000Z</time>
      </trkpt>
      <trkpt lat="49.5991" lon="3.43861">
        <ele>140.3</ele>
        <time>2025-10-05T13:10:57.000Z</time>
      </trkpt>
      <trkpt lat="49.59909" lon="3.43861">
        <ele>140</ele>
        <time>2025-10-05T13:10:58.000Z</time>
      </trkpt>
      <trkpt lat="49.59909" lon="3.43861">
        <ele>139.6</ele>
        <time>2025-10-05T13:10:59.000Z</time>
      </trkpt>
      <trkpt lat="49.59908" lon="3.43862">
        <ele>139.6</ele>
        <time>2025-10-05T13:11:00.000Z</time>
      </trkpt>
      <trkpt lat="49.59907" lon="3.43862">
        <ele>139.3</ele>
        <time>2025-10-05T13:11:01.000Z</time>
      </trkpt>
      <trkpt lat="49.59906" lon="3.43863">
        <ele>139.3</ele>
        <time>2025-10-05T13:11:02.000Z</time>
      </trkpt>
      <trkpt lat="49.59904" lon="3.43864">
        <ele>139.2</ele>
        <time>2025-10-05T13:11:03.000Z</time>
      </trkpt>
      <trkpt lat="49.59904" lon="3.43864">
        <ele>139.4</ele>
        <time>2025-10-05T13:11:04.000Z</time>
      </trkpt>
      <trkpt lat="49.59903" lon="3.43865">
        <ele>139.3</ele>
        <time>2025-10-05T13:11:05.000Z</time>
      </trkpt>
      <trkpt lat="49.59902" lon="3.43865">
        <ele>139</ele>
        <time>2025-10-05T13:11:06.000Z</time>
      </trkpt>
      <trkpt lat="49.59902" lon="3.43865">
        <ele>139.1</ele>
        <time>2025-10-05T13:11:07.000Z</time>
      </trkpt>
      <trkpt lat="49.59901" lon="3.43866">
        <ele>139.3</ele>
        <time>2025-10-05T13:11:08.000Z</time>
      </trkpt>
      <trkpt lat="49.59901" lon="3.43866">
        <ele>139.5</ele>
        <time>2025-10-05T13:11:09.000Z</time>
      </trkpt>
      <trkpt lat="49.59901" lon="3.43866">
        <ele>139.6</ele>
        <time>2025-10-05T13:11:10.000Z</time>
      </trkpt>
      <trkpt lat="49.599" lon="3.43866">
        <ele>139.7</ele>
        <time>2025-10-05T13:11:11.000Z</time>
      </trkpt>
      <trkpt lat="49.59899" lon="3.43866">
        <ele>139.7</ele>
        <time>2025-10-05T13:11:12.000Z</time>
      </trkpt>
      <trkpt lat="49.59899" lon="3.43867">
        <ele>140.1</ele>
        <time>2025-10-05T13:11:13.000Z</time>
      </trkpt>
      <trkpt lat="49.59898" lon="3.43866">
        <ele>140</ele>
        <time>2025-10-05T13:11:14.000Z</time>
      </trkpt>
      <trkpt lat="49.59898" lon="3.43866">
        <ele>140</ele>
        <time>2025-10-05T13:11:15.000Z</time>
      </trkpt>
      <trkpt lat="49.59897" lon="3.43866">
        <ele>140.4</ele>
        <time>2025-10-05T13:11:16.000Z</time>
      </trkpt>
      <trkpt lat="49.59897" lon="3.43867">
        <ele>140.2</ele>
        <time>2025-10-05T13:11:17.000Z</time>
      </trkpt>
      <trkpt lat="49.59896" lon="3.43867">
        <ele>139.9</ele>
        <time>2025-10-05T13:11:18.000Z</time>
      </trkpt>
      <trkpt lat="49.59895" lon="3.43869">
        <ele>139.7</ele>
        <time>2025-10-05T13:11:19.000Z</time>
      </trkpt>
      <trkpt lat="49.59895" lon="3.43869">
        <ele>139.5</ele>
        <time>2025-10-05T13:11:20.000Z</time>
      </trkpt>
      <trkpt lat="49.59895" lon="3.4387">
        <ele>139.2</ele>
        <time>2025-10-05T13:11:21.000Z</time>
      </trkpt>
      <trkpt lat="49.59895" lon="3.43871">
        <ele>139.3</ele>
        <time>2025-10-05T13:11:22.000Z</time>
      </trkpt>
      <trkpt lat="49.59894" lon="3.43873">
        <ele>139.2</ele>
        <time>2025-10-05T13:11:23.000Z</time>
      </trkpt>
      <trkpt lat="49.59894" lon="3.43875">
        <ele>139.4</ele>
        <time>2025-10-05T13:11:24.000Z</time>
      </trkpt>
      <trkpt lat="49.59894" lon="3.43876">
        <ele>139.3</ele>
        <time>2025-10-05T13:11:25.000Z</time>
      </trkpt>
      <trkpt lat="49.59893" lon="3.43877">
        <ele>139.3</ele>
        <time>2025-10-05T13:11:26.000Z</time>
      </trkpt>
      <trkpt lat="49.59893" lon="3.43878">
        <ele>139.7</ele>
        <time>2025-10-05T13:11:27.000Z</time>
      </trkpt>
      <trkpt lat="49.59892" lon="3.43879">
        <ele>140</ele>
        <time>2025-10-05T13:11:28.000Z</time>
      </trkpt>
      <trkpt lat="49.5989" lon="3.4388">
        <ele>139.9</ele>
        <time>2025-10-05T13:11:29.000Z</time>
      </trkpt>
      <trkpt lat="49.59889" lon="3.43881">
        <ele>140</ele>
        <time>2025-10-05T13:11:30.000Z</time>
      </trkpt>
      <trkpt lat="49.59888" lon="3.43882">
        <ele>139.7</ele>
        <time>2025-10-05T13:11:31.000Z</time>
      </trkpt>
      <trkpt lat="49.59887" lon="3.43883">
        <ele>139.6</ele>
        <time>2025-10-05T13:11:32.000Z</time>
      </trkpt>
      <trkpt lat="49.59887" lon="3.43884">
        <ele>139.5</ele>
        <time>2025-10-05T13:11:33.000Z</time>
      </trkpt>
      <trkpt lat="49.59886" lon="3.43886">
        <ele>139.5</ele>
        <time>2025-10-05T13:11:34.000Z</time>
      </trkpt>
      <trkpt lat="49.59884" lon="3.43887">
        <ele>139.4</ele>
        <time>2025-10-05T13:11:35.000Z</time>
      </trkpt>
      <trkpt lat="49.59883" lon="3.43888">
        <ele>139.5</ele>
        <time>2025-10-05T13:11:36.000Z</time>
      </trkpt>
      <trkpt lat="49.59882" lon="3.43889">
        <ele>139.4</ele>
        <time>2025-10-05T13:11:37.000Z</time>
      </trkpt>
      <trkpt lat="49.59882" lon="3.4389">
        <ele>139.6</ele>
        <time>2025-10-05T13:11:38.000Z</time>
      </trkpt>
      <trkpt lat="49.59881" lon="3.43892">
        <ele>139.9</ele>
        <time>2025-10-05T13:11:39.000Z</time>
      </trkpt>
      <trkpt lat="49.5988" lon="3.43893">
        <ele>140.1</ele>
        <time>2025-10-05T13:11:40.000Z</time>
      </trkpt>
      <trkpt lat="49.5988" lon="3.43894">
        <ele>140.1</ele>
        <time>2025-10-05T13:11:41.000Z</time>
      </trkpt>
      <trkpt lat="49.59879" lon="3.43895">
        <ele>139.8</ele>
        <time>2025-10-05T13:11:42.000Z</time>
      </trkpt>
      <trkpt lat="49.59877" lon="3.43895">
        <ele>139.6</ele>
        <time>2025-10-05T13:11:43.000Z</time>
      </trkpt>
      <trkpt lat="49.59876" lon="3.43894">
        <ele>139.4</ele>
        <time>2025-10-05T13:11:44.000Z</time>
      </trkpt>
      <trkpt lat="49.59876" lon="3.43894">
        <ele>139.2</ele>
        <time>2025-10-05T13:11:45.000Z</time>
      </trkpt>
      <trkpt lat="49.59875" lon="3.43894">
        <ele>139.1</ele>
        <time>2025-10-05T13:11:46.000Z</time>
      </trkpt>
      <trkpt lat="49.59875" lon="3.43895">
        <ele>138.8</ele>
        <time>2025-10-05T13:11:47.000Z</time>
      </trkpt>
      <trkpt lat="49.59874" lon="3.43896">
        <ele>138.4</ele>
        <time>2025-10-05T13:11:48.000Z</time>
      </trkpt>
      <trkpt lat="49.59874" lon="3.43897">
        <ele>138.2</ele>
        <time>2025-10-05T13:11:49.000Z</time>
      </trkpt>
      <trkpt lat="49.59873" lon="3.43897">
        <ele>138.1</ele>
        <time>2025-10-05T13:11:50.000Z</time>
      </trkpt>
      <trkpt lat="49.59873" lon="3.43898">
        <ele>137.8</ele>
        <time>2025-10-05T13:11:51.000Z</time>
      </trkpt>
      <trkpt lat="49.59873" lon="3.439">
        <ele>137.9</ele>
        <time>2025-10-05T13:11:52.000Z</time>
      </trkpt>
      <trkpt lat="49.59873" lon="3.43901">
        <ele>138.2</ele>
        <time>2025-10-05T13:11:53.000Z</time>
      </trkpt>
      <trkpt lat="49.59873" lon="3.43903">
        <ele>138.3</ele>
        <time>2025-10-05T13:11:54.000Z</time>
      </trkpt>
      <trkpt lat="49.59872" lon="3.43904">
        <ele>138.2</ele>
        <time>2025-10-05T13:11:55.000Z</time>
      </trkpt>
      <trkpt lat="49.59872" lon="3.43905">
        <ele>138.7</ele>
        <time>2025-10-05T13:11:56.000Z</time>
      </trkpt>
      <trkpt lat="49.59871" lon="3.43906">
        <ele>139</ele>
        <time>2025-10-05T13:11:57.000Z</time>
      </trkpt>
      <trkpt lat="49.59871" lon="3.43907">
        <ele>139.5</ele>
        <time>2025-10-05T13:11:58.000Z</time>
      </trkpt>
      <trkpt lat="49.5987" lon="3.43908">
        <ele>139.9</ele>
        <time>2025-10-05T13:11:59.000Z</time>
      </trkpt>
      <trkpt lat="49.5987" lon="3.4391">
        <ele>140.3</ele>
        <time>2025-10-05T13:12:00.000Z</time>
      </trkpt>
      <trkpt lat="49.59869" lon="3.43911">
        <ele>140.7</ele>
        <time>2025-10-05T13:12:01.000Z</time>
      </trkpt>
      <trkpt lat="49.59868" lon="3.43912">
        <ele>140.9</ele>
        <time>2025-10-05T13:12:02.000Z</time>
      </trkpt>
      <trkpt lat="49.59867" lon="3.43913">
        <ele>141.2</ele>
        <time>2025-10-05T13:12:03.000Z</time>
      </trkpt>
      <trkpt lat="49.59867" lon="3.43914">
        <ele>141.4</ele>
        <time>2025-10-05T13:12:04.000Z</time>
      </trkpt>
      <trkpt lat="49.59867" lon="3.43915">
        <ele>141.7</ele>
        <time>2025-10-05T13:12:05.000Z</time>
      </trkpt>
      <trkpt lat="49.59867" lon="3.43916">
        <ele>141.9</ele>
        <time>2025-10-05T13:12:06.000Z</time>
      </trkpt>
      <trkpt lat="49.59866" lon="3.43918">
        <ele>142.1</ele>
        <time>2025-10-05T13:12:07.000Z</time>
      </trkpt>
      <trkpt lat="49.59865" lon="3.4392">
        <ele>142.4</ele>
        <time>2025-10-05T13:12:08.000Z</time>
      </trkpt>
      <trkpt lat="49.59865" lon="3.43921">
        <ele>142.7</ele>
        <time>2025-10-05T13:12:09.000Z</time>
      </trkpt>
      <trkpt lat="49.59864" lon="3.43922">
        <ele>142.8</ele>
        <time>2025-10-05T13:12:10.000Z</time>
      </trkpt>
      <trkpt lat="49.59864" lon="3.43922">
        <ele>142.7</ele>
        <time>2025-10-05T13:12:11.000Z</time>
      </trkpt>
      <trkpt lat="49.59863" lon="3.43922">
        <ele>142.5</ele>
        <time>2025-10-05T13:12:12.000Z</time>
      </trkpt>
      <trkpt lat="49.59863" lon="3.43923">
        <ele>142.5</ele>
        <time>2025-10-05T13:12:13.000Z</time>
      </trkpt>
      <trkpt lat="49.59862" lon="3.43923">
        <ele>142.6</ele>
        <time>2025-10-05T13:12:14.000Z</time>
      </trkpt>
      <trkpt lat="49.59861" lon="3.43923">
        <ele>142.8</ele>
        <time>2025-10-05T13:12:15.000Z</time>
      </trkpt>
      <trkpt lat="49.5986" lon="3.43924">
        <ele>142.9</ele>
        <time>2025-10-05T13:12:16.000Z</time>
      </trkpt>
      <trkpt lat="49.5986" lon="3.43925">
        <ele>143.2</ele>
        <time>2025-10-05T13:12:17.000Z</time>
      </trkpt>
      <trkpt lat="49.59859" lon="3.43926">
        <ele>143</ele>
        <time>2025-10-05T13:12:18.000Z</time>
      </trkpt>
      <trkpt lat="49.59858" lon="3.43927">
        <ele>142.9</ele>
        <time>2025-10-05T13:12:19.000Z</time>
      </trkpt>
      <trkpt lat="49.59857" lon="3.43928">
        <ele>142.5</ele>
        <time>2025-10-05T13:12:20.000Z</time>
      </trkpt>
      <trkpt lat="49.59856" lon="3.43929">
        <ele>142</ele>
        <time>2025-10-05T13:12:21.000Z</time>
      </trkpt>
      <trkpt lat="49.59856" lon="3.4393">
        <ele>141.6</ele>
        <time>2025-10-05T13:12:22.000Z</time>
      </trkpt>
      <trkpt lat="49.59855" lon="3.43931">
        <ele>141.3</ele>
        <time>2025-10-05T13:12:23.000Z</time>
      </trkpt>
      <trkpt lat="49.59854" lon="3.43932">
        <ele>141.5</ele>
        <time>2025-10-05T13:12:24.000Z</time>
      </trkpt>
      <trkpt lat="49.59854" lon="3.43933">
        <ele>141.7</ele>
        <time>2025-10-05T13:12:25.000Z</time>
      </trkpt>
      <trkpt lat="49.59853" lon="3.43934">
        <ele>141.8</ele>
        <time>2025-10-05T13:12:26.000Z</time>
      </trkpt>
      <trkpt lat="49.59853" lon="3.43935">
        <ele>141.7</ele>
        <time>2025-10-05T13:12:27.000Z</time>
      </trkpt>
      <trkpt lat="49.59853" lon="3.43936">
        <ele>142</ele>
        <time>2025-10-05T13:12:28.000Z</time>
      </trkpt>
      <trkpt lat="49.59853" lon="3.43937">
        <ele>142.4</ele>
        <time>2025-10-05T13:12:29.000Z</time>
      </trkpt>
      <trkpt lat="49.59852" lon="3.43939">
        <ele>143.1</ele>
        <time>2025-10-05T13:12:30.000Z</time>
      </trkpt>
      <trkpt lat="49.59852" lon="3.4394">
        <ele>143.8</ele>
        <time>2025-10-05T13:12:31.000Z</time>
      </trkpt>
      <trkpt lat="49.59852" lon="3.43941">
        <ele>144.6</ele>
        <time>2025-10-05T13:12:32.000Z</time>
      </trkpt>
      <trkpt lat="49.59852" lon="3.43941">
        <ele>145.1</ele>
        <time>2025-10-05T13:12:33.000Z</time>
      </trkpt>
      <trkpt lat="49.59852" lon="3.43941">
        <ele>145.7</ele>
        <time>2025-10-05T13:12:34.000Z</time>
      </trkpt>
      <trkpt lat="49.59852" lon="3.43941">
        <ele>146.3</ele>
        <time>2025-10-05T13:12:35.000Z</time>
      </trkpt>
      <trkpt lat="49.59851" lon="3.43942">
        <ele>147</ele>
        <time>2025-10-05T13:12:36.000Z</time>
      </trkpt>
      <trkpt lat="49.59851" lon="3.43942">
        <ele>147.3</ele>
        <time>2025-10-05T13:12:37.000Z</time>
      </trkpt>
      <trkpt lat="49.5985" lon="3.43942">
        <ele>147.6</ele>
        <time>2025-10-05T13:12:38.000Z</time>
      </trkpt>
      <trkpt lat="49.59849" lon="3.43943">
        <ele>147.8</ele>
        <time>2025-10-05T13:12:39.000Z</time>
      </trkpt>
      <trkpt lat="49.59849" lon="3.43944">
        <ele>147.7</ele>
        <time>2025-10-05T13:12:40.000Z</time>
      </trkpt>
      <trkpt lat="49.59848" lon="3.43944">
        <ele>147.7</ele>
        <time>2025-10-05T13:12:41.000Z</time>
      </trkpt>
      <trkpt lat="49.59847" lon="3.43945">
        <ele>147.6</ele>
        <time>2025-10-05T13:12:42.000Z</time>
      </trkpt>
      <trkpt lat="49.59846" lon="3.43945">
        <ele>147.5</ele>
        <time>2025-10-05T13:12:43.000Z</time>
      </trkpt>
      <trkpt lat="49.59845" lon="3.43946">
        <ele>147.4</ele>
        <time>2025-10-05T13:12:44.000Z</time>
      </trkpt>
      <trkpt lat="49.59843" lon="3.43946">
        <ele>147.2</ele>
        <time>2025-10-05T13:12:45.000Z</time>
      </trkpt>
      <trkpt lat="49.59842" lon="3.43947">
        <ele>147.1</ele>
        <time>2025-10-05T13:12:46.000Z</time>
      </trkpt>
      <trkpt lat="49.59841" lon="3.43948">
        <ele>146.7</ele>
        <time>2025-10-05T13:12:47.000Z</time>
      </trkpt>
      <trkpt lat="49.5984" lon="3.43948">
        <ele>146.2</ele>
        <time>2025-10-05T13:12:48.000Z</time>
      </trkpt>
      <trkpt lat="49.5984" lon="3.43949">
        <ele>146.1</ele>
        <time>2025-10-05T13:12:49.000Z</time>
      </trkpt>
      <trkpt lat="49.59839" lon="3.4395">
        <ele>145.9</ele>
        <time>2025-10-05T13:12:50.000Z</time>
      </trkpt>
      <trkpt lat="49.59838" lon="3.43951">
        <ele>145.6</ele>
        <time>2025-10-05T13:12:51.000Z</time>
      </trkpt>
      <trkpt lat="49.59837" lon="3.43952">
        <ele>145.2</ele>
        <time>2025-10-05T13:12:52.000Z</time>
      </trkpt>
      <trkpt lat="49.59836" lon="3.43954">
        <ele>144.5</ele>
        <time>2025-10-05T13:12:53.000Z</time>
      </trkpt>
      <trkpt lat="49.59836" lon="3.43955">
        <ele>144.4</ele>
        <time>2025-10-05T13:12:54.000Z</time>
      </trkpt>
      <trkpt lat="49.59835" lon="3.43956">
        <ele>144.3</ele>
        <time>2025-10-05T13:12:55.000Z</time>
      </trkpt>
      <trkpt lat="49.59834" lon="3.43957">
        <ele>144</ele>
        <time>2025-10-05T13:12:56.000Z</time>
      </trkpt>
      <trkpt lat="49.59834" lon="3.43958">
        <ele>143.7</ele>
        <time>2025-10-05T13:12:57.000Z</time>
      </trkpt>
      <trkpt lat="49.59833" lon="3.4396">
        <ele>143.8</ele>
        <time>2025-10-05T13:12:58.000Z</time>
      </trkpt>
      <trkpt lat="49.59833" lon="3.43961">
        <ele>143.9</ele>
        <time>2025-10-05T13:12:59.000Z</time>
      </trkpt>
      <trkpt lat="49.59832" lon="3.43961">
        <ele>144</ele>
        <time>2025-10-05T13:13:00.000Z</time>
      </trkpt>
      <trkpt lat="49.59832" lon="3.43961">
        <ele>144.2</ele>
        <time>2025-10-05T13:13:01.000Z</time>
      </trkpt>
      <trkpt lat="49.59832" lon="3.43962">
        <ele>144.4</ele>
        <time>2025-10-05T13:13:02.000Z</time>
      </trkpt>
      <trkpt lat="49.59832" lon="3.43963">
        <ele>144.5</ele>
        <time>2025-10-05T13:13:03.000Z</time>
      </trkpt>
      <trkpt lat="49.59831" lon="3.43964">
        <ele>144.6</ele>
        <time>2025-10-05T13:13:04.000Z</time>
      </trkpt>
      <trkpt lat="49.59831" lon="3.43965">
        <ele>144.9</ele>
        <time>2025-10-05T13:13:05.000Z</time>
      </trkpt>
      <trkpt lat="49.59831" lon="3.43966">
        <ele>145</ele>
        <time>2025-10-05T13:13:06.000Z</time>
      </trkpt>
      <trkpt lat="49.59831" lon="3.43967">
        <ele>145.1</ele>
        <time>2025-10-05T13:13:07.000Z</time>
      </trkpt>
      <trkpt lat="49.59831" lon="3.43967">
        <ele>145.2</ele>
        <time>2025-10-05T13:13:08.000Z</time>
      </trkpt>
      <trkpt lat="49.59831" lon="3.43969">
        <ele>144.5</ele>
        <time>2025-10-05T13:13:09.000Z</time>
      </trkpt>
      <trkpt lat="49.59831" lon="3.43969">
        <ele>143.9</ele>
        <time>2025-10-05T13:13:10.000Z</time>
      </trkpt>
      <trkpt lat="49.59831" lon="3.43969">
        <ele>143.7</ele>
        <time>2025-10-05T13:13:11.000Z</time>
      </trkpt>
      <trkpt lat="49.5983" lon="3.4397">
        <ele>143.7</ele>
        <time>2025-10-05T13:13:12.000Z</time>
      </trkpt>
      <trkpt lat="49.5983" lon="3.4397">
        <ele>143.5</ele>
        <time>2025-10-05T13:13:13.000Z</time>
      </trkpt>
      <trkpt lat="49.5983" lon="3.4397">
        <ele>143.4</ele>
        <time>2025-10-05T13:13:14.000Z</time>
      </trkpt>
      <trkpt lat="49.59829" lon="3.4397">
        <ele>143.2</ele>
        <time>2025-10-05T13:13:15.000Z</time>
      </trkpt>
      <trkpt lat="49.59829" lon="3.4397">
        <ele>143</ele>
        <time>2025-10-05T13:13:16.000Z</time>
      </trkpt>
      <trkpt lat="49.59828" lon="3.4397">
        <ele>143</ele>
        <time>2025-10-05T13:13:17.000Z</time>
      </trkpt>
      <trkpt lat="49.59828" lon="3.43971">
        <ele>143</ele>
        <time>2025-10-05T13:13:18.000Z</time>
      </trkpt>
      <trkpt lat="49.59827" lon="3.43972">
        <ele>143.2</ele>
        <time>2025-10-05T13:13:19.000Z</time>
      </trkpt>
      <trkpt lat="49.59827" lon="3.43973">
        <ele>143.6</ele>
        <time>2025-10-05T13:13:20.000Z</time>
      </trkpt>
      <trkpt lat="49.59826" lon="3.43974">
        <ele>144.2</ele>
        <time>2025-10-05T13:13:21.000Z</time>
      </trkpt>
      <trkpt lat="49.59827" lon="3.43976">
        <ele>144.6</ele>
        <time>2025-10-05T13:13:22.000Z</time>
      </trkpt>
      <trkpt lat="49.59826" lon="3.43977">
        <ele>144.6</ele>
        <time>2025-10-05T13:13:23.000Z</time>
      </trkpt>
      <trkpt lat="49.59826" lon="3.43978">
        <ele>144.7</ele>
        <time>2025-10-05T13:13:24.000Z</time>
      </trkpt>
      <trkpt lat="49.59825" lon="3.43979">
        <ele>144.9</ele>
        <time>2025-10-05T13:13:25.000Z</time>
      </trkpt>
      <trkpt lat="49.59825" lon="3.4398">
        <ele>145</ele>
        <time>2025-10-05T13:13:26.000Z</time>
      </trkpt>
      <trkpt lat="49.59825" lon="3.43981">
        <ele>145.1</ele>
        <time>2025-10-05T13:13:27.000Z</time>
      </trkpt>
      <trkpt lat="49.59824" lon="3.43983">
        <ele>145.1</ele>
        <time>2025-10-05T13:13:28.000Z</time>
      </trkpt>
      <trkpt lat="49.59823" lon="3.43984">
        <ele>145.1</ele>
        <time>2025-10-05T13:13:29.000Z</time>
      </trkpt>
      <trkpt lat="49.59822" lon="3.43985">
        <ele>144.8</ele>
        <time>2025-10-05T13:13:30.000Z</time>
      </trkpt>
      <trkpt lat="49.59821" lon="3.43985">
        <ele>144.6</ele>
        <time>2025-10-05T13:13:31.000Z</time>
      </trkpt>
      <trkpt lat="49.5982" lon="3.43986">
        <ele>144.3</ele>
        <time>2025-10-05T13:13:32.000Z</time>
      </trkpt>
      <trkpt lat="49.59819" lon="3.43987">
        <ele>144</ele>
        <time>2025-10-05T13:13:33.000Z</time>
      </trkpt>
      <trkpt lat="49.59818" lon="3.43988">
        <ele>144</ele>
        <time>2025-10-05T13:13:34.000Z</time>
      </trkpt>
      <trkpt lat="49.59817" lon="3.43989">
        <ele>144.2</ele>
        <time>2025-10-05T13:13:35.000Z</time>
      </trkpt>
      <trkpt lat="49.59817" lon="3.4399">
        <ele>144.1</ele>
        <time>2025-10-05T13:13:36.000Z</time>
      </trkpt>
      <trkpt lat="49.59816" lon="3.43991">
        <ele>144.1</ele>
        <time>2025-10-05T13:13:37.000Z</time>
      </trkpt>
      <trkpt lat="49.59816" lon="3.43992">
        <ele>144</ele>
        <time>2025-10-05T13:13:38.000Z</time>
      </trkpt>
      <trkpt lat="49.59815" lon="3.43993">
        <ele>143.9</ele>
        <time>2025-10-05T13:13:39.000Z</time>
      </trkpt>
      <trkpt lat="49.59815" lon="3.43994">
        <ele>143.8</ele>
        <time>2025-10-05T13:13:40.000Z</time>
      </trkpt>
      <trkpt lat="49.59814" lon="3.43995">
        <ele>143.5</ele>
        <time>2025-10-05T13:13:41.000Z</time>
      </trkpt>
      <trkpt lat="49.59813" lon="3.43996">
        <ele>143.4</ele>
        <time>2025-10-05T13:13:42.000Z</time>
      </trkpt>
      <trkpt lat="49.59813" lon="3.43997">
        <ele>143.2</ele>
        <time>2025-10-05T13:13:43.000Z</time>
      </trkpt>
      <trkpt lat="49.59812" lon="3.43998">
        <ele>143.4</ele>
        <time>2025-10-05T13:13:44.000Z</time>
      </trkpt>
      <trkpt lat="49.59811" lon="3.43999">
        <ele>143.4</ele>
        <time>2025-10-05T13:13:45.000Z</time>
      </trkpt>
      <trkpt lat="49.5981" lon="3.43999">
        <ele>143.4</ele>
        <time>2025-10-05T13:13:46.000Z</time>
      </trkpt>
      <trkpt lat="49.5981" lon="3.44">
        <ele>143.5</ele>
        <time>2025-10-05T13:13:47.000Z</time>
      </trkpt>
      <trkpt lat="49.59809" lon="3.44001">
        <ele>143.9</ele>
        <time>2025-10-05T13:13:48.000Z</time>
      </trkpt>
      <trkpt lat="49.59809" lon="3.44002">
        <ele>144.3</ele>
        <time>2025-10-05T13:13:49.000Z</time>
      </trkpt>
      <trkpt lat="49.59808" lon="3.44004">
        <ele>144.5</ele>
        <time>2025-10-05T13:13:50.000Z</time>
      </trkpt>
      <trkpt lat="49.59808" lon="3.44005">
        <ele>144.9</ele>
        <time>2025-10-05T13:13:51.000Z</time>
      </trkpt>
      <trkpt lat="49.59808" lon="3.44007">
        <ele>145.1</ele>
        <time>2025-10-05T13:13:52.000Z</time>
      </trkpt>
      <trkpt lat="49.59809" lon="3.44008">
        <ele>145.5</ele>
        <time>2025-10-05T13:13:53.000Z</time>
      </trkpt>
      <trkpt lat="49.59808" lon="3.4401">
        <ele>146</ele>
        <time>2025-10-05T13:13:54.000Z</time>
      </trkpt>
      <trkpt lat="49.59808" lon="3.4401">
        <ele>146.7</ele>
        <time>2025-10-05T13:13:55.000Z</time>
      </trkpt>
      <trkpt lat="49.59807" lon="3.44012">
        <ele>146.8</ele>
        <time>2025-10-05T13:13:56.000Z</time>
      </trkpt>
      <trkpt lat="49.59806" lon="3.44013">
        <ele>147.3</ele>
        <time>2025-10-05T13:13:57.000Z</time>
      </trkpt>
      <trkpt lat="49.59805" lon="3.44015">
        <ele>147.2</ele>
        <time>2025-10-05T13:13:58.000Z</time>
      </trkpt>
      <trkpt lat="49.59804" lon="3.44016">
        <ele>147.2</ele>
        <time>2025-10-05T13:13:59.000Z</time>
      </trkpt>
      <trkpt lat="49.59803" lon="3.44017">
        <ele>147.1</ele>
        <time>2025-10-05T13:14:00.000Z</time>
      </trkpt>
      <trkpt lat="49.59803" lon="3.44018">
        <ele>146.9</ele>
        <time>2025-10-05T13:14:01.000Z</time>
      </trkpt>
      <trkpt lat="49.59802" lon="3.44019">
        <ele>146.9</ele>
        <time>2025-10-05T13:14:02.000Z</time>
      </trkpt>
      <trkpt lat="49.59801" lon="3.4402">
        <ele>146.7</ele>
        <time>2025-10-05T13:14:03.000Z</time>
      </trkpt>
      <trkpt lat="49.59801" lon="3.44021">
        <ele>146.5</ele>
        <time>2025-10-05T13:14:04.000Z</time>
      </trkpt>
      <trkpt lat="49.598" lon="3.44023">
        <ele>146.4</ele>
        <time>2025-10-05T13:14:05.000Z</time>
      </trkpt>
      <trkpt lat="49.59799" lon="3.44025">
        <ele>146.3</ele>
        <time>2025-10-05T13:14:06.000Z</time>
      </trkpt>
      <trkpt lat="49.59798" lon="3.44026">
        <ele>145.9</ele>
        <time>2025-10-05T13:14:07.000Z</time>
      </trkpt>
      <trkpt lat="49.59798" lon="3.44027">
        <ele>145.6</ele>
        <time>2025-10-05T13:14:08.000Z</time>
      </trkpt>
      <trkpt lat="49.59798" lon="3.44028">
        <ele>145.3</ele>
        <time>2025-10-05T13:14:09.000Z</time>
      </trkpt>
      <trkpt lat="49.59797" lon="3.44028">
        <ele>145.1</ele>
        <time>2025-10-05T13:14:10.000Z</time>
      </trkpt>
      <trkpt lat="49.59796" lon="3.44029">
        <ele>145.1</ele>
        <time>2025-10-05T13:14:11.000Z</time>
      </trkpt>
      <trkpt lat="49.59795" lon="3.4403">
        <ele>145.3</ele>
        <time>2025-10-05T13:14:12.000Z</time>
      </trkpt>
      <trkpt lat="49.59794" lon="3.44032">
        <ele>145.2</ele>
        <time>2025-10-05T13:14:13.000Z</time>
      </trkpt>
      <trkpt lat="49.59794" lon="3.44033">
        <ele>145.4</ele>
        <time>2025-10-05T13:14:14.000Z</time>
      </trkpt>
      <trkpt lat="49.59793" lon="3.44034">
        <ele>145.3</ele>
        <time>2025-10-05T13:14:15.000Z</time>
      </trkpt>
      <trkpt lat="49.59792" lon="3.44036">
        <ele>145.1</ele>
        <time>2025-10-05T13:14:16.000Z</time>
      </trkpt>
      <trkpt lat="49.59792" lon="3.44038">
        <ele>144.9</ele>
        <time>2025-10-05T13:14:17.000Z</time>
      </trkpt>
      <trkpt lat="49.59791" lon="3.44039">
        <ele>144.8</ele>
        <time>2025-10-05T13:14:18.000Z</time>
      </trkpt>
      <trkpt lat="49.5979" lon="3.4404">
        <ele>144.8</ele>
        <time>2025-10-05T13:14:19.000Z</time>
      </trkpt>
      <trkpt lat="49.5979" lon="3.44041">
        <ele>144.5</ele>
        <time>2025-10-05T13:14:20.000Z</time>
      </trkpt>
      <trkpt lat="49.5979" lon="3.44043">
        <ele>144</ele>
        <time>2025-10-05T13:14:21.000Z</time>
      </trkpt>
      <trkpt lat="49.5979" lon="3.44044">
        <ele>144.3</ele>
        <time>2025-10-05T13:14:22.000Z</time>
      </trkpt>
      <trkpt lat="49.5979" lon="3.44045">
        <ele>144.3</ele>
        <time>2025-10-05T13:14:23.000Z</time>
      </trkpt>
      <trkpt lat="49.59789" lon="3.44046">
        <ele>144.5</ele>
        <time>2025-10-05T13:14:24.000Z</time>
      </trkpt>
      <trkpt lat="49.59789" lon="3.44047">
        <ele>145.1</ele>
        <time>2025-10-05T13:14:25.000Z</time>
      </trkpt>
      <trkpt lat="49.59788" lon="3.44049">
        <ele>145.5</ele>
        <time>2025-10-05T13:14:26.000Z</time>
      </trkpt>
      <trkpt lat="49.59787" lon="3.44051">
        <ele>145.4</ele>
        <time>2025-10-05T13:14:27.000Z</time>
      </trkpt>
      <trkpt lat="49.59787" lon="3.44052">
        <ele>145.3</ele>
        <time>2025-10-05T13:14:28.000Z</time>
      </trkpt>
      <trkpt lat="49.59787" lon="3.44053">
        <ele>145.5</ele>
        <time>2025-10-05T13:14:29.000Z</time>
      </trkpt>
      <trkpt lat="49.59786" lon="3.44053">
        <ele>145.5</ele>
        <time>2025-10-05T13:14:30.000Z</time>
      </trkpt>
      <trkpt lat="49.59786" lon="3.44054">
        <ele>145.7</ele>
        <time>2025-10-05T13:14:31.000Z</time>
      </trkpt>
      <trkpt lat="49.59786" lon="3.44055">
        <ele>145.6</ele>
        <time>2025-10-05T13:14:32.000Z</time>
      </trkpt>
      <trkpt lat="49.59785" lon="3.44056">
        <ele>145.4</ele>
        <time>2025-10-05T13:14:33.000Z</time>
      </trkpt>
      <trkpt lat="49.59784" lon="3.44057">
        <ele>145</ele>
        <time>2025-10-05T13:14:34.000Z</time>
      </trkpt>
      <trkpt lat="49.59784" lon="3.44059">
        <ele>144.9</ele>
        <time>2025-10-05T13:14:35.000Z</time>
      </trkpt>
      <trkpt lat="49.59783" lon="3.44061">
        <ele>145.1</ele>
        <time>2025-10-05T13:14:36.000Z</time>
      </trkpt>
      <trkpt lat="49.59784" lon="3.44063">
        <ele>145.3</ele>
        <time>2025-10-05T13:14:37.000Z</time>
      </trkpt>
      <trkpt lat="49.59783" lon="3.44065">
        <ele>145.4</ele>
        <time>2025-10-05T13:14:38.000Z</time>
      </trkpt>
      <trkpt lat="49.59783" lon="3.44067">
        <ele>145.5</ele>
        <time>2025-10-05T13:14:39.000Z</time>
      </trkpt>
      <trkpt lat="49.59783" lon="3.44069">
        <ele>145.9</ele>
        <time>2025-10-05T13:14:40.000Z</time>
      </trkpt>
      <trkpt lat="49.59783" lon="3.4407">
        <ele>146.1</ele>
        <time>2025-10-05T13:14:41.000Z</time>
      </trkpt>
      <trkpt lat="49.59782" lon="3.44072">
        <ele>146.5</ele>
        <time>2025-10-05T13:14:42.000Z</time>
      </trkpt>
      <trkpt lat="49.59782" lon="3.44073">
        <ele>146.6</ele>
        <time>2025-10-05T13:14:43.000Z</time>
      </trkpt>
      <trkpt lat="49.59782" lon="3.44075">
        <ele>146.7</ele>
        <time>2025-10-05T13:14:44.000Z</time>
      </trkpt>
      <trkpt lat="49.59782" lon="3.44076">
        <ele>147</ele>
        <time>2025-10-05T13:14:45.000Z</time>
      </trkpt>
      <trkpt lat="49.59782" lon="3.44077">
        <ele>147.2</ele>
        <time>2025-10-05T13:14:46.000Z</time>
      </trkpt>
      <trkpt lat="49.59783" lon="3.44079">
        <ele>147.4</ele>
        <time>2025-10-05T13:14:47.000Z</time>
      </trkpt>
      <trkpt lat="49.59783" lon="3.4408">
        <ele>147.5</ele>
        <time>2025-10-05T13:14:48.000Z</time>
      </trkpt>
      <trkpt lat="49.59783" lon="3.44082">
        <ele>147.8</ele>
        <time>2025-10-05T13:14:49.000Z</time>
      </trkpt>
      <trkpt lat="49.59783" lon="3.44084">
        <ele>148</ele>
        <time>2025-10-05T13:14:50.000Z</time>
      </trkpt>
      <trkpt lat="49.59782" lon="3.44086">
        <ele>148.6</ele>
        <time>2025-10-05T13:14:51.000Z</time>
      </trkpt>
      <trkpt lat="49.59782" lon="3.44087">
        <ele>148.9</ele>
        <time>2025-10-05T13:14:52.000Z</time>
      </trkpt>
      <trkpt lat="49.59782" lon="3.44088">
        <ele>149</ele>
        <time>2025-10-05T13:14:53.000Z</time>
      </trkpt>
      <trkpt lat="49.59782" lon="3.44089">
        <ele>148.9</ele>
        <time>2025-10-05T13:14:54.000Z</time>
      </trkpt>
      <trkpt lat="49.59781" lon="3.4409">
        <ele>148.9</ele>
        <time>2025-10-05T13:14:55.000Z</time>
      </trkpt>
      <trkpt lat="49.59781" lon="3.44091">
        <ele>148.6</ele>
        <time>2025-10-05T13:14:56.000Z</time>
      </trkpt>
      <trkpt lat="49.59781" lon="3.44091">
        <ele>148.9</ele>
        <time>2025-10-05T13:14:57.000Z</time>
      </trkpt>
      <trkpt lat="49.59782" lon="3.44092">
        <ele>149.2</ele>
        <time>2025-10-05T13:14:58.000Z</time>
      </trkpt>
      <trkpt lat="49.59782" lon="3.44093">
        <ele>149.6</ele>
        <time>2025-10-05T13:14:59.000Z</time>
      </trkpt>
      <trkpt lat="49.59782" lon="3.44093">
        <ele>149.9</ele>
        <time>2025-10-05T13:15:00.000Z</time>
      </trkpt>
      <trkpt lat="49.59782" lon="3.44093">
        <ele>150.3</ele>
        <time>2025-10-05T13:15:01.000Z</time>
      </trkpt>
      <trkpt lat="49.59782" lon="3.44094">
        <ele>150.8</ele>
        <time>2025-10-05T13:15:02.000Z</time>
      </trkpt>
      <trkpt lat="49.59782" lon="3.44095">
        <ele>151.1</ele>
        <time>2025-10-05T13:15:03.000Z</time>
      </trkpt>
      <trkpt lat="49.59782" lon="3.44096">
        <ele>151.3</ele>
        <time>2025-10-05T13:15:04.000Z</time>
      </trkpt>
      <trkpt lat="49.59782" lon="3.44097">
        <ele>151.7</ele>
        <time>2025-10-05T13:15:05.000Z</time>
      </trkpt>
      <trkpt lat="49.59783" lon="3.44099">
        <ele>152</ele>
        <time>2025-10-05T13:15:06.000Z</time>
      </trkpt>
      <trkpt lat="49.59783" lon="3.441">
        <ele>152.5</ele>
        <time>2025-10-05T13:15:07.000Z</time>
      </trkpt>
      <trkpt lat="49.59784" lon="3.44101">
        <ele>152.7</ele>
        <time>2025-10-05T13:15:08.000Z</time>
      </trkpt>
      <trkpt lat="49.59785" lon="3.44102">
        <ele>152.7</ele>
        <time>2025-10-05T13:15:09.000Z</time>
      </trkpt>
      <trkpt lat="49.59785" lon="3.44103">
        <ele>152.9</ele>
        <time>2025-10-05T13:15:10.000Z</time>
      </trkpt>
      <trkpt lat="49.59786" lon="3.44104">
        <ele>153</ele>
        <time>2025-10-05T13:15:11.000Z</time>
      </trkpt>
      <trkpt lat="49.59786" lon="3.44106">
        <ele>153.5</ele>
        <time>2025-10-05T13:15:12.000Z</time>
      </trkpt>
      <trkpt lat="49.59785" lon="3.44107">
        <ele>153.7</ele>
        <time>2025-10-05T13:15:13.000Z</time>
      </trkpt>
      <trkpt lat="49.59785" lon="3.44109">
        <ele>153.9</ele>
        <time>2025-10-05T13:15:14.000Z</time>
      </trkpt>
      <trkpt lat="49.59785" lon="3.4411">
        <ele>153.9</ele>
        <time>2025-10-05T13:15:15.000Z</time>
      </trkpt>
      <trkpt lat="49.59784" lon="3.44112">
        <ele>154</ele>
        <time>2025-10-05T13:15:16.000Z</time>
      </trkpt>
      <trkpt lat="49.59785" lon="3.44113">
        <ele>154.1</ele>
        <time>2025-10-05T13:15:17.000Z</time>
      </trkpt>
      <trkpt lat="49.59785" lon="3.44114">
        <ele>154.7</ele>
        <time>2025-10-05T13:15:18.000Z</time>
      </trkpt>
      <trkpt lat="49.59785" lon="3.44115">
        <ele>155.2</ele>
        <time>2025-10-05T13:15:19.000Z</time>
      </trkpt>
      <trkpt lat="49.59786" lon="3.44117">
        <ele>155.4</ele>
        <time>2025-10-05T13:15:20.000Z</time>
      </trkpt>
      <trkpt lat="49.59786" lon="3.44118">
        <ele>155.7</ele>
        <time>2025-10-05T13:15:21.000Z</time>
      </trkpt>
      <trkpt lat="49.59786" lon="3.44119">
        <ele>156</ele>
        <time>2025-10-05T13:15:22.000Z</time>
      </trkpt>
      <trkpt lat="49.59786" lon="3.4412">
        <ele>156</ele>
        <time>2025-10-05T13:15:23.000Z</time>
      </trkpt>
      <trkpt lat="49.59787" lon="3.4412">
        <ele>156.1</ele>
        <time>2025-10-05T13:15:24.000Z</time>
      </trkpt>
      <trkpt lat="49.59787" lon="3.44121">
        <ele>156.2</ele>
        <time>2025-10-05T13:15:25.000Z</time>
      </trkpt>
      <trkpt lat="49.59787" lon="3.44122">
        <ele>156.3</ele>
        <time>2025-10-05T13:15:26.000Z</time>
      </trkpt>
      <trkpt lat="49.59787" lon="3.44123">
        <ele>156.6</ele>
        <time>2025-10-05T13:15:27.000Z</time>
      </trkpt>
      <trkpt lat="49.59787" lon="3.44124">
        <ele>156.5</ele>
        <time>2025-10-05T13:15:28.000Z</time>
      </trkpt>
      <trkpt lat="49.59787" lon="3.44125">
        <ele>156.3</ele>
        <time>2025-10-05T13:15:29.000Z</time>
      </trkpt>
      <trkpt lat="49.59786" lon="3.44125">
        <ele>155.9</ele>
        <time>2025-10-05T13:15:30.000Z</time>
      </trkpt>
      <trkpt lat="49.59786" lon="3.44126">
        <ele>155.4</ele>
        <time>2025-10-05T13:15:31.000Z</time>
      </trkpt>
      <trkpt lat="49.59786" lon="3.44128">
        <ele>154.9</ele>
        <time>2025-10-05T13:15:32.000Z</time>
      </trkpt>
      <trkpt lat="49.59786" lon="3.44129">
        <ele>154.7</ele>
        <time>2025-10-05T13:15:33.000Z</time>
      </trkpt>
      <trkpt lat="49.59786" lon="3.4413">
        <ele>154.9</ele>
        <time>2025-10-05T13:15:34.000Z</time>
      </trkpt>
      <trkpt lat="49.59787" lon="3.44132">
        <ele>154.9</ele>
        <time>2025-10-05T13:15:35.000Z</time>
      </trkpt>
      <trkpt lat="49.59787" lon="3.44133">
        <ele>154.6</ele>
        <time>2025-10-05T13:15:36.000Z</time>
      </trkpt>
      <trkpt lat="49.59786" lon="3.44133">
        <ele>154.5</ele>
        <time>2025-10-05T13:15:37.000Z</time>
      </trkpt>
      <trkpt lat="49.59786" lon="3.44135">
        <ele>154.5</ele>
        <time>2025-10-05T13:15:38.000Z</time>
      </trkpt>
      <trkpt lat="49.59786" lon="3.44136">
        <ele>154.5</ele>
        <time>2025-10-05T13:15:39.000Z</time>
      </trkpt>
      <trkpt lat="49.59786" lon="3.44137">
        <ele>154.2</ele>
        <time>2025-10-05T13:15:40.000Z</time>
      </trkpt>
      <trkpt lat="49.59786" lon="3.44138">
        <ele>153.9</ele>
        <time>2025-10-05T13:15:41.000Z</time>
      </trkpt>
      <trkpt lat="49.59786" lon="3.44139">
        <ele>153.7</ele>
        <time>2025-10-05T13:15:42.000Z</time>
      </trkpt>
      <trkpt lat="49.59786" lon="3.4414">
        <ele>153.5</ele>
        <time>2025-10-05T13:15:43.000Z</time>
      </trkpt>
      <trkpt lat="49.59785" lon="3.44141">
        <ele>153.4</ele>
        <time>2025-10-05T13:15:44.000Z</time>
      </trkpt>
      <trkpt lat="49.59785" lon="3.44142">
        <ele>153.3</ele>
        <time>2025-10-05T13:15:45.000Z</time>
      </trkpt>
      <trkpt lat="49.59785" lon="3.44142">
        <ele>153.1</ele>
        <time>2025-10-05T13:15:46.000Z</time>
      </trkpt>
      <trkpt lat="49.59784" lon="3.44143">
        <ele>152.9</ele>
        <time>2025-10-05T13:15:47.000Z</time>
      </trkpt>
      <trkpt lat="49.59784" lon="3.44144">
        <ele>152.6</ele>
        <time>2025-10-05T13:15:48.000Z</time>
      </trkpt>
      <trkpt lat="49.59784" lon="3.44144">
        <ele>152.2</ele>
        <time>2025-10-05T13:15:49.000Z</time>
      </trkpt>
      <trkpt lat="49.59784" lon="3.44145">
        <ele>152.1</ele>
        <time>2025-10-05T13:15:50.000Z</time>
      </trkpt>
      <trkpt lat="49.59784" lon="3.44146">
        <ele>152.1</ele>
        <time>2025-10-05T13:15:51.000Z</time>
      </trkpt>
      <trkpt lat="49.59785" lon="3.44148">
        <ele>152</ele>
        <time>2025-10-05T13:15:52.000Z</time>
      </trkpt>
      <trkpt lat="49.59785" lon="3.44148">
        <ele>152</ele>
        <time>2025-10-05T13:15:53.000Z</time>
      </trkpt>
      <trkpt lat="49.59785" lon="3.44149">
        <ele>152</ele>
        <time>2025-10-05T13:15:54.000Z</time>
      </trkpt>
      <trkpt lat="49.59786" lon="3.44148">
        <ele>151.8</ele>
        <time>2025-10-05T13:15:55.000Z</time>
      </trkpt>
      <trkpt lat="49.59787" lon="3.44148">
        <ele>151.8</ele>
        <time>2025-10-05T13:15:56.000Z</time>
      </trkpt>
      <trkpt lat="49.59787" lon="3.44148">
        <ele>151.7</ele>
        <time>2025-10-05T13:15:57.000Z</time>
      </trkpt>
      <trkpt lat="49.59787" lon="3.44149">
        <ele>151.7</ele>
        <time>2025-10-05T13:15:58.000Z</time>
      </trkpt>
      <trkpt lat="49.59787" lon="3.44149">
        <ele>151.8</ele>
        <time>2025-10-05T13:15:59.000Z</time>
      </trkpt>
      <trkpt lat="49.59788" lon="3.44151">
        <ele>151.5</ele>
        <time>2025-10-05T13:16:00.000Z</time>
      </trkpt>
      <trkpt lat="49.59788" lon="3.44152">
        <ele>151.2</ele>
        <time>2025-10-05T13:16:01.000Z</time>
      </trkpt>
      <trkpt lat="49.59788" lon="3.44153">
        <ele>151.1</ele>
        <time>2025-10-05T13:16:02.000Z</time>
      </trkpt>
      <trkpt lat="49.59788" lon="3.44154">
        <ele>151.1</ele>
        <time>2025-10-05T13:16:03.000Z</time>
      </trkpt>
      <trkpt lat="49.59788" lon="3.44155">
        <ele>151</ele>
        <time>2025-10-05T13:16:04.000Z</time>
      </trkpt>
      <trkpt lat="49.59788" lon="3.44156">
        <ele>151.3</ele>
        <time>2025-10-05T13:16:05.000Z</time>
      </trkpt>
      <trkpt lat="49.59787" lon="3.44158">
        <ele>151.3</ele>
        <time>2025-10-05T13:16:06.000Z</time>
      </trkpt>
      <trkpt lat="49.59788" lon="3.44159">
        <ele>151.4</ele>
        <time>2025-10-05T13:16:07.000Z</time>
      </trkpt>
      <trkpt lat="49.59787" lon="3.4416">
        <ele>151.5</ele>
        <time>2025-10-05T13:16:08.000Z</time>
      </trkpt>
      <trkpt lat="49.59788" lon="3.4416">
        <ele>152.2</ele>
        <time>2025-10-05T13:16:09.000Z</time>
      </trkpt>
      <trkpt lat="49.59788" lon="3.44161">
        <ele>152.6</ele>
        <time>2025-10-05T13:16:10.000Z</time>
      </trkpt>
      <trkpt lat="49.59788" lon="3.44162">
        <ele>152.9</ele>
        <time>2025-10-05T13:16:11.000Z</time>
      </trkpt>
      <trkpt lat="49.59789" lon="3.44163">
        <ele>153.2</ele>
        <time>2025-10-05T13:16:12.000Z</time>
      </trkpt>
      <trkpt lat="49.59789" lon="3.44163">
        <ele>153.6</ele>
        <time>2025-10-05T13:16:13.000Z</time>
      </trkpt>
      <trkpt lat="49.5979" lon="3.44163">
        <ele>154</ele>
        <time>2025-10-05T13:16:14.000Z</time>
      </trkpt>
      <trkpt lat="49.5979" lon="3.44164">
        <ele>154.4</ele>
        <time>2025-10-05T13:16:15.000Z</time>
      </trkpt>
      <trkpt lat="49.59791" lon="3.44164">
        <ele>154.7</ele>
        <time>2025-10-05T13:16:16.000Z</time>
      </trkpt>
      <trkpt lat="49.59791" lon="3.44165">
        <ele>155</ele>
        <time>2025-10-05T13:16:17.000Z</time>
      </trkpt>
      <trkpt lat="49.59791" lon="3.44165">
        <ele>155</ele>
        <time>2025-10-05T13:16:18.000Z</time>
      </trkpt>
      <trkpt lat="49.59791" lon="3.44165">
        <ele>155</ele>
        <time>2025-10-05T13:16:19.000Z</time>
      </trkpt>
      <trkpt lat="49.59791" lon="3.44165">
        <ele>155</ele>
        <time>2025-10-05T13:16:20.000Z</time>
      </trkpt>
      <trkpt lat="49.59791" lon="3.44165">
        <ele>155</ele>
        <time>2025-10-05T13:16:21.000Z</time>
      </trkpt>
      <trkpt lat="49.59791" lon="3.44165">
        <ele>155</ele>
        <time>2025-10-05T13:16:22.000Z</time>
      </trkpt>
      <trkpt lat="49.59791" lon="3.44165">
        <ele>155</ele>
        <time>2025-10-05T13:16:23.000Z</time>
      </trkpt>
      <trkpt lat="49.59791" lon="3.44165">
        <ele>155</ele>
        <time>2025-10-05T13:16:24.000Z</time>
      </trkpt>
      <trkpt lat="49.59791" lon="3.44165">
        <ele>155</ele>
        <time>2025-10-05T13:16:25.000Z</time>
      </trkpt>
      <trkpt lat="49.59791" lon="3.44165">
        <ele>155</ele>
        <time>2025-10-05T13:16:26.000Z</time>
      </trkpt>
      <trkpt lat="49.59791" lon="3.44165">
        <ele>155</ele>
        <time>2025-10-05T13:16:27.000Z</time>
      </trkpt>
      <trkpt lat="49.59791" lon="3.44165">
        <ele>155</ele>
        <time>2025-10-05T13:16:28.000Z</time>
      </trkpt>
      <trkpt lat="49.59791" lon="3.44165">
        <ele>155</ele>
        <time>2025-10-05T13:16:29.000Z</time>
      </trkpt>
      <trkpt lat="49.59791" lon="3.44165">
        <ele>155</ele>
        <time>2025-10-05T13:16:30.000Z</time>
      </trkpt>
      <trkpt lat="49.59791" lon="3.44165">
        <ele>155</ele>
        <time>2025-10-05T13:16:31.000Z</time>
      </trkpt>
      <trkpt lat="49.59791" lon="3.44165">
        <ele>155</ele>
        <time>2025-10-05T13:16:32.000Z</time>
      </trkpt>
      <trkpt lat="49.59791" lon="3.44165">
        <ele>155</ele>
        <time>2025-10-05T13:16:33.000Z</time>
      </trkpt>
      <trkpt lat="49.59791" lon="3.44165">
        <ele>155</ele>
        <time>2025-10-05T13:16:34.000Z</time>
      </trkpt>
      <trkpt lat="49.59791" lon="3.44165">
        <ele>155</ele>
        <time>2025-10-05T13:16:35.000Z</time>
      </trkpt>
      <trkpt lat="49.59791" lon="3.44165">
        <ele>155</ele>
        <time>2025-10-05T13:16:36.000Z</time>
      </trkpt>
      <trkpt lat="49.59791" lon="3.44165">
        <ele>155</ele>
        <time>2025-10-05T13:16:37.000Z</time>
      </trkpt>
      <trkpt lat="49.59791" lon="3.44165">
        <ele>155</ele>
        <time>2025-10-05T13:16:38.000Z</time>
      </trkpt>
      <trkpt lat="49.59791" lon="3.44165">
        <ele>155</ele>
        <time>2025-10-05T13:16:39.000Z</time>
      </trkpt>
      <trkpt lat="49.59791" lon="3.44165">
        <ele>155</ele>
        <time>2025-10-05T13:16:40.000Z</time>
      </trkpt>
      <trkpt lat="49.59791" lon="3.44165">
        <ele>155</ele>
        <time>2025-10-05T13:16:41.000Z</time>
      </trkpt>
      <trkpt lat="49.59791" lon="3.44165">
        <ele>155</ele>
        <time>2025-10-05T13:16:42.000Z</time>
      </trkpt>
      <trkpt lat="49.59791" lon="3.44165">
        <ele>155</ele>
        <time>2025-10-05T13:16:43.000Z</time>
      </trkpt>
      <trkpt lat="49.59791" lon="3.44165">
        <ele>155</ele>
        <time>2025-10-05T13:16:44.000Z</time>
      </trkpt>
      <trkpt lat="49.59791" lon="3.44165">
        <ele>155</ele>
        <time>2025-10-05T13:16:45.000Z</time>
      </trkpt>
      <trkpt lat="49.59791" lon="3.44165">
        <ele>155</ele>
        <time>2025-10-05T13:16:46.000Z</time>
      </trkpt>
      <trkpt lat="49.59791" lon="3.44165">
        <ele>155</ele>
        <time>2025-10-05T13:16:47.000Z</time>
      </trkpt>
      <trkpt lat="49.59791" lon="3.44165">
        <ele>155</ele>
        <time>2025-10-05T13:16:48.000Z</time>
      </trkpt>
      <trkpt lat="49.59791" lon="3.44165">
        <ele>155</ele>
        <time>2025-10-05T13:16:49.000Z</time>
      </trkpt>
      <trkpt lat="49.59791" lon="3.44165">
        <ele>155</ele>
        <time>2025-10-05T13:16:50.000Z</time>
      </trkpt>
      <trkpt lat="49.59791" lon="3.44165">
        <ele>155</ele>
        <time>2025-10-05T13:16:51.000Z</time>
      </trkpt>
      <trkpt lat="49.59791" lon="3.44165">
        <ele>155</ele>
        <time>2025-10-05T13:16:52.000Z</time>
      </trkpt>
      <trkpt lat="49.59791" lon="3.44165">
        <ele>155</ele>
        <time>2025-10-05T13:16:53.000Z</time>
      </trkpt>
      <trkpt lat="49.59791" lon="3.44165">
        <ele>155</ele>
        <time>2025-10-05T13:16:54.000Z</time>
      </trkpt>
      <trkpt lat="49.59791" lon="3.44165">
        <ele>155</ele>
        <time>2025-10-05T13:16:55.000Z</time>
      </trkpt>
      <trkpt lat="49.59791" lon="3.44165">
        <ele>155</ele>
        <time>2025-10-05T13:16:56.000Z</time>
      </trkpt>
      <trkpt lat="49.59791" lon="3.44165">
        <ele>155</ele>
        <time>2025-10-05T13:16:57.000Z</time>
      </trkpt>
      <trkpt lat="49.59791" lon="3.44165">
        <ele>155</ele>
        <time>2025-10-05T13:16:58.000Z</time>
      </trkpt>
      <trkpt lat="49.59791" lon="3.44165">
        <ele>155</ele>
        <time>2025-10-05T13:16:59.000Z</time>
      </trkpt>
      <trkpt lat="49.59791" lon="3.44165">
        <ele>155</ele>
        <time>2025-10-05T13:17:00.000Z</time>
      </trkpt>
      <trkpt lat="49.59791" lon="3.44165">
        <ele>155</ele>
        <time>2025-10-05T13:17:01.000Z</time>
      </trkpt>
      <trkpt lat="49.59791" lon="3.44165">
        <ele>155</ele>
        <time>2025-10-05T13:17:02.000Z</time>
      </trkpt>
      <trkpt lat="49.59791" lon="3.44165">
        <ele>155</ele>
        <time>2025-10-05T13:17:03.000Z</time>
      </trkpt>
      <trkpt lat="49.59791" lon="3.44165">
        <ele>155</ele>
        <time>2025-10-05T13:17:04.000Z</time>
      </trkpt>
      <trkpt lat="49.59791" lon="3.44165">
        <ele>155</ele>
        <time>2025-10-05T13:17:05.000Z</time>
      </trkpt>
      <trkpt lat="49.59791" lon="3.44165">
        <ele>155</ele>
        <time>2025-10-05T13:17:06.000Z</time>
      </trkpt>
      <trkpt lat="49.59791" lon="3.44165">
        <ele>155</ele>
        <time>2025-10-05T13:17:07.000Z</time>
      </trkpt>
      <trkpt lat="49.59791" lon="3.44165">
        <ele>155</ele>
        <time>2025-10-05T13:17:08.000Z</time>
      </trkpt>
      <trkpt lat="49.59791" lon="3.44165">
        <ele>155</ele>
        <time>2025-10-05T13:17:09.000Z</time>
      </trkpt>
      <trkpt lat="49.59791" lon="3.44165">
        <ele>155</ele>
        <time>2025-10-05T13:17:10.000Z</time>
      </trkpt>
      <trkpt lat="49.59791" lon="3.44165">
        <ele>155</ele>
        <time>2025-10-05T13:17:11.000Z</time>
      </trkpt>
      <trkpt lat="49.59791" lon="3.44165">
        <ele>155</ele>
        <time>2025-10-05T13:17:12.000Z</time>
      </trkpt>
      <trkpt lat="49.59791" lon="3.44165">
        <ele>155</ele>
        <time>2025-10-05T13:17:13.000Z</time>
      </trkpt>
      <trkpt lat="49.59791" lon="3.44165">
        <ele>155</ele>
        <time>2025-10-05T13:17:14.000Z</time>
      </trkpt>
      <trkpt lat="49.59791" lon="3.44165">
        <ele>155</ele>
        <time>2025-10-05T13:17:15.000Z</time>
      </trkpt>
      <trkpt lat="49.59791" lon="3.44165">
        <ele>155</ele>
        <time>2025-10-05T13:17:16.000Z</time>
      </trkpt>
      <trkpt lat="49.59791" lon="3.44165">
        <ele>155</ele>
        <time>2025-10-05T13:17:17.000Z</time>
      </trkpt>
      <trkpt lat="49.59791" lon="3.44165">
        <ele>155</ele>
        <time>2025-10-05T13:17:18.000Z</time>
      </trkpt>
      <trkpt lat="49.59791" lon="3.44165">
        <ele>155</ele>
        <time>2025-10-05T13:17:19.000Z</time>
      </trkpt>
      <trkpt lat="49.59791" lon="3.44165">
        <ele>155</ele>
        <time>2025-10-05T13:17:20.000Z</time>
      </trkpt>
      <trkpt lat="49.59791" lon="3.44165">
        <ele>155</ele>
        <time>2025-10-05T13:17:21.000Z</time>
      </trkpt>
      <trkpt lat="49.59791" lon="3.44165">
        <ele>155</ele>
        <time>2025-10-05T13:17:22.000Z</time>
      </trkpt>
      <trkpt lat="49.59791" lon="3.44165">
        <ele>155</ele>
        <time>2025-10-05T13:17:23.000Z</time>
      </trkpt>
      <trkpt lat="49.59791" lon="3.44165">
        <ele>155</ele>
        <time>2025-10-05T13:17:24.000Z</time>
      </trkpt>
      <trkpt lat="49.59791" lon="3.44165">
        <ele>155</ele>
        <time>2025-10-05T13:17:25.000Z</time>
      </trkpt>
      <trkpt lat="49.59791" lon="3.44165">
        <ele>155</ele>
        <time>2025-10-05T13:17:26.000Z</time>
      </trkpt>
      <trkpt lat="49.59791" lon="3.44165">
        <ele>155</ele>
        <time>2025-10-05T13:17:27.000Z</time>
      </trkpt>
      <trkpt lat="49.59791" lon="3.44165">
        <ele>155</ele>
        <time>2025-10-05T13:17:28.000Z</time>
      </trkpt>
      <trkpt lat="49.59791" lon="3.44165">
        <ele>155</ele>
        <time>2025-10-05T13:17:29.000Z</time>
      </trkpt>
      <trkpt lat="49.59788" lon="3.44158">
        <ele>152.4</ele>
        <time>2025-10-05T13:17:30.000Z</time>
      </trkpt>
      <trkpt lat="49.59789" lon="3.44158">
        <ele>152.2</ele>
        <time>2025-10-05T13:17:31.000Z</time>
      </trkpt>
      <trkpt lat="49.59789" lon="3.44159">
        <ele>152.1</ele>
        <time>2025-10-05T13:17:32.000Z</time>
      </trkpt>
      <trkpt lat="49.59789" lon="3.44159">
        <ele>152.1</ele>
        <time>2025-10-05T13:17:33.000Z</time>
      </trkpt>
      <trkpt lat="49.59788" lon="3.44159">
        <ele>152.1</ele>
        <time>2025-10-05T13:17:34.000Z</time>
      </trkpt>
      <trkpt lat="49.59788" lon="3.4416">
        <ele>152</ele>
        <time>2025-10-05T13:17:35.000Z</time>
      </trkpt>
      <trkpt lat="49.59788" lon="3.4416">
        <ele>152</ele>
        <time>2025-10-05T13:17:36.000Z</time>
      </trkpt>
      <trkpt lat="49.59788" lon="3.4416">
        <ele>152</ele>
        <time>2025-10-05T13:17:37.000Z</time>
      </trkpt>
      <trkpt lat="49.59788" lon="3.4416">
        <ele>152</ele>
        <time>2025-10-05T13:17:38.000Z</time>
      </trkpt>
      <trkpt lat="49.59788" lon="3.4416">
        <ele>152</ele>
        <time>2025-10-05T13:17:39.000Z</time>
      </trkpt>
      <trkpt lat="49.59788" lon="3.4416">
        <ele>152</ele>
        <time>2025-10-05T13:17:40.000Z</time>
      </trkpt>
      <trkpt lat="49.59788" lon="3.4416">
        <ele>152</ele>
        <time>2025-10-05T13:17:41.000Z</time>
      </trkpt>
      <trkpt lat="49.59788" lon="3.4416">
        <ele>152</ele>
        <time>2025-10-05T13:17:42.000Z</time>
      </trkpt>
      <trkpt lat="49.59788" lon="3.4416">
        <ele>152</ele>
        <time>2025-10-05T13:17:43.000Z</time>
      </trkpt>
      <trkpt lat="49.59788" lon="3.4416">
        <ele>152</ele>
        <time>2025-10-05T13:17:44.000Z</time>
      </trkpt>
      <trkpt lat="49.59788" lon="3.4416">
        <ele>152</ele>
        <time>2025-10-05T13:17:45.000Z</time>
      </trkpt>
      <trkpt lat="49.59788" lon="3.4416">
        <ele>152</ele>
        <time>2025-10-05T13:17:46.000Z</time>
      </trkpt>
      <trkpt lat="49.59788" lon="3.4416">
        <ele>152</ele>
        <time>2025-10-05T13:17:47.000Z</time>
      </trkpt>
      <trkpt lat="49.59788" lon="3.4416">
        <ele>152</ele>
        <time>2025-10-05T13:17:48.000Z</time>
      </trkpt>
      <trkpt lat="49.59788" lon="3.4416">
        <ele>152</ele>
        <time>2025-10-05T13:17:49.000Z</time>
      </trkpt>
      <trkpt lat="49.59788" lon="3.4416">
        <ele>152</ele>
        <time>2025-10-05T13:17:50.000Z</time>
      </trkpt>
      <trkpt lat="49.59788" lon="3.4416">
        <ele>152</ele>
        <time>2025-10-05T13:17:51.000Z</time>
      </trkpt>
      <trkpt lat="49.59788" lon="3.4416">
        <ele>152</ele>
        <time>2025-10-05T13:17:52.000Z</time>
      </trkpt>
      <trkpt lat="49.59788" lon="3.4416">
        <ele>152</ele>
        <time>2025-10-05T13:17:53.000Z</time>
      </trkpt>
      <trkpt lat="49.59788" lon="3.4416">
        <ele>152</ele>
        <time>2025-10-05T13:17:54.000Z</time>
      </trkpt>
      <trkpt lat="49.59788" lon="3.4416">
        <ele>152</ele>
        <time>2025-10-05T13:17:55.000Z</time>
      </trkpt>
      <trkpt lat="49.59788" lon="3.4416">
        <ele>152</ele>
        <time>2025-10-05T13:17:56.000Z</time>
      </trkpt>
      <trkpt lat="49.59788" lon="3.4416">
        <ele>152</ele>
        <time>2025-10-05T13:17:57.000Z</time>
      </trkpt>
      <trkpt lat="49.59788" lon="3.4416">
        <ele>152</ele>
        <time>2025-10-05T13:17:58.000Z</time>
      </trkpt>
      <trkpt lat="49.59788" lon="3.4416">
        <ele>152</ele>
        <time>2025-10-05T13:17:59.000Z</time>
      </trkpt>
      <trkpt lat="49.59788" lon="3.4416">
        <ele>152</ele>
        <time>2025-10-05T13:18:00.000Z</time>
      </trkpt>
      <trkpt lat="49.59788" lon="3.4416">
        <ele>152</ele>
        <time>2025-10-05T13:18:01.000Z</time>
      </trkpt>
      <trkpt lat="49.59788" lon="3.4416">
        <ele>152</ele>
        <time>2025-10-05T13:18:02.000Z</time>
      </trkpt>
      <trkpt lat="49.59788" lon="3.4416">
        <ele>152</ele>
        <time>2025-10-05T13:18:03.000Z</time>
      </trkpt>
      <trkpt lat="49.59788" lon="3.4416">
        <ele>152</ele>
        <time>2025-10-05T13:18:04.000Z</time>
      </trkpt>
      <trkpt lat="49.59788" lon="3.4416">
        <ele>152</ele>
        <time>2025-10-05T13:18:05.000Z</time>
      </trkpt>
      <trkpt lat="49.59788" lon="3.4416">
        <ele>152</ele>
        <time>2025-10-05T13:18:06.000Z</time>
      </trkpt>
      <trkpt lat="49.59788" lon="3.4416">
        <ele>152</ele>
        <time>2025-10-05T13:18:07.000Z</time>
      </trkpt>
      <trkpt lat="49.59788" lon="3.4416">
        <ele>152</ele>
        <time>2025-10-05T13:18:08.000Z</time>
      </trkpt>
      <trkpt lat="49.59788" lon="3.4416">
        <ele>152</ele>
        <time>2025-10-05T13:18:09.000Z</time>
      </trkpt>
      <trkpt lat="49.59788" lon="3.4416">
        <ele>152</ele>
        <time>2025-10-05T13:18:10.000Z</time>
      </trkpt>
      <trkpt lat="49.59788" lon="3.4416">
        <ele>152</ele>
        <time>2025-10-05T13:18:11.000Z</time>
      </trkpt>
      <trkpt lat="49.59788" lon="3.4416">
        <ele>152</ele>
        <time>2025-10-05T13:18:12.000Z</time>
      </trkpt>
      <trkpt lat="49.59788" lon="3.4416">
        <ele>152</ele>
        <time>2025-10-05T13:18:13.000Z</time>
      </trkpt>
      <trkpt lat="49.59788" lon="3.4416">
        <ele>152</ele>
        <time>2025-10-05T13:18:14.000Z</time>
      </trkpt>
      <trkpt lat="49.59788" lon="3.4416">
        <ele>152</ele>
        <time>2025-10-05T13:18:15.000Z</time>
      </trkpt>
      <trkpt lat="49.59788" lon="3.4416">
        <ele>152</ele>
        <time>2025-10-05T13:18:16.000Z</time>
      </trkpt>
      <trkpt lat="49.59788" lon="3.4416">
        <ele>152</ele>
        <time>2025-10-05T13:18:17.000Z</time>
      </trkpt>
      <trkpt lat="49.59788" lon="3.4416">
        <ele>152</ele>
        <time>2025-10-05T13:18:18.000Z</time>
      </trkpt>
      <trkpt lat="49.59788" lon="3.4416">
        <ele>152</ele>
        <time>2025-10-05T13:18:19.000Z</time>
      </trkpt>
      <trkpt lat="49.59788" lon="3.44167">
        <ele>151.3</ele>
        <time>2025-10-05T13:18:20.000Z</time>
      </trkpt>
      <trkpt lat="49.59789" lon="3.44168">
        <ele>151.3</ele>
        <time>2025-10-05T13:18:21.000Z</time>
      </trkpt>
      <trkpt lat="49.59788" lon="3.44168">
        <ele>151.2</ele>
        <time>2025-10-05T13:18:22.000Z</time>
      </trkpt>
      <trkpt lat="49.59788" lon="3.44169">
        <ele>151.3</ele>
        <time>2025-10-05T13:18:23.000Z</time>
      </trkpt>
      <trkpt lat="49.59788" lon="3.44169">
        <ele>151.5</ele>
        <time>2025-10-05T13:18:24.000Z</time>
      </trkpt>
      <trkpt lat="49.59788" lon="3.44169">
        <ele>151.5</ele>
        <time>2025-10-05T13:18:25.000Z</time>
      </trkpt>
      <trkpt lat="49.59788" lon="3.44169">
        <ele>151.5</ele>
        <time>2025-10-05T13:18:26.000Z</time>
      </trkpt>
      <trkpt lat="49.59788" lon="3.44169">
        <ele>151.5</ele>
        <time>2025-10-05T13:18:27.000Z</time>
      </trkpt>
      <trkpt lat="49.59788" lon="3.44169">
        <ele>151.5</ele>
        <time>2025-10-05T13:18:28.000Z</time>
      </trkpt>
      <trkpt lat="49.59788" lon="3.44169">
        <ele>151.5</ele>
        <time>2025-10-05T13:18:29.000Z</time>
      </trkpt>
      <trkpt lat="49.59788" lon="3.44169">
        <ele>151.5</ele>
        <time>2025-10-05T13:18:30.000Z</time>
      </trkpt>
      <trkpt lat="49.59788" lon="3.44169">
        <ele>151.5</ele>
        <time>2025-10-05T13:18:31.000Z</time>
      </trkpt>
      <trkpt lat="49.59788" lon="3.44169">
        <ele>151.5</ele>
        <time>2025-10-05T13:18:32.000Z</time>
      </trkpt>
      <trkpt lat="49.59788" lon="3.44169">
        <ele>151.5</ele>
        <time>2025-10-05T13:18:33.000Z</time>
      </trkpt>
      <trkpt lat="49.59788" lon="3.44169">
        <ele>151.5</ele>
        <time>2025-10-05T13:18:34.000Z</time>
      </trkpt>
      <trkpt lat="49.59788" lon="3.44169">
        <ele>151.5</ele>
        <time>2025-10-05T13:18:35.000Z</time>
      </trkpt>
      <trkpt lat="49.59788" lon="3.44169">
        <ele>151.5</ele>
        <time>2025-10-05T13:18:36.000Z</time>
      </trkpt>
      <trkpt lat="49.59788" lon="3.44169">
        <ele>151.5</ele>
        <time>2025-10-05T13:18:37.000Z</time>
      </trkpt>
      <trkpt lat="49.59788" lon="3.44169">
        <ele>151.5</ele>
        <time>2025-10-05T13:18:38.000Z</time>
      </trkpt>
      <trkpt lat="49.59788" lon="3.44169">
        <ele>151.5</ele>
        <time>2025-10-05T13:18:39.000Z</time>
      </trkpt>
      <trkpt lat="49.59788" lon="3.44169">
        <ele>151.5</ele>
        <time>2025-10-05T13:18:40.000Z</time>
      </trkpt>
      <trkpt lat="49.59788" lon="3.44169">
        <ele>151.5</ele>
        <time>2025-10-05T13:18:41.000Z</time>
      </trkpt>
      <trkpt lat="49.59788" lon="3.44169">
        <ele>151.5</ele>
        <time>2025-10-05T13:18:42.000Z</time>
      </trkpt>
      <trkpt lat="49.59788" lon="3.44169">
        <ele>151.5</ele>
        <time>2025-10-05T13:18:43.000Z</time>
      </trkpt>
      <trkpt lat="49.59788" lon="3.44169">
        <ele>151.5</ele>
        <time>2025-10-05T13:18:44.000Z</time>
      </trkpt>
      <trkpt lat="49.59788" lon="3.44169">
        <ele>151.5</ele>
        <time>2025-10-05T13:18:45.000Z</time>
      </trkpt>
      <trkpt lat="49.59788" lon="3.44169">
        <ele>151.5</ele>
        <time>2025-10-05T13:18:46.000Z</time>
      </trkpt>
      <trkpt lat="49.59788" lon="3.44169">
        <ele>151.5</ele>
        <time>2025-10-05T13:18:47.000Z</time>
      </trkpt>
      <trkpt lat="49.59788" lon="3.44169">
        <ele>151.5</ele>
        <time>2025-10-05T13:18:48.000Z</time>
      </trkpt>
      <trkpt lat="49.59788" lon="3.44169">
        <ele>151.5</ele>
        <time>2025-10-05T13:18:49.000Z</time>
      </trkpt>
      <trkpt lat="49.59788" lon="3.44169">
        <ele>151.5</ele>
        <time>2025-10-05T13:18:50.000Z</time>
      </trkpt>
      <trkpt lat="49.59788" lon="3.44169">
        <ele>151.5</ele>
        <time>2025-10-05T13:18:51.000Z</time>
      </trkpt>
      <trkpt lat="49.59788" lon="3.44169">
        <ele>151.5</ele>
        <time>2025-10-05T13:18:52.000Z</time>
      </trkpt>
      <trkpt lat="49.59788" lon="3.44169">
        <ele>151.5</ele>
        <time>2025-10-05T13:18:53.000Z</time>
      </trkpt>
      <trkpt lat="49.59788" lon="3.44169">
        <ele>151.5</ele>
        <time>2025-10-05T13:18:54.000Z</time>
      </trkpt>
      <trkpt lat="49.59788" lon="3.44169">
        <ele>151.5</ele>
        <time>2025-10-05T13:18:55.000Z</time>
      </trkpt>
      <trkpt lat="49.59788" lon="3.44169">
        <ele>151.5</ele>
        <time>2025-10-05T13:18:56.000Z</time>
      </trkpt>
      <trkpt lat="49.59788" lon="3.44169">
        <ele>151.5</ele>
        <time>2025-10-05T13:18:57.000Z</time>
      </trkpt>
      <trkpt lat="49.59788" lon="3.44169">
        <ele>151.5</ele>
        <time>2025-10-05T13:18:58.000Z</time>
      </trkpt>
      <trkpt lat="49.59788" lon="3.44169">
        <ele>151.5</ele>
        <time>2025-10-05T13:18:59.000Z</time>
      </trkpt>
      <trkpt lat="49.59788" lon="3.44169">
        <ele>151.5</ele>
        <time>2025-10-05T13:19:00.000Z</time>
      </trkpt>
      <trkpt lat="49.59788" lon="3.44169">
        <ele>151.5</ele>
        <time>2025-10-05T13:19:01.000Z</time>
      </trkpt>
      <trkpt lat="49.59788" lon="3.44169">
        <ele>151.5</ele>
        <time>2025-10-05T13:19:02.000Z</time>
      </trkpt>
      <trkpt lat="49.59788" lon="3.44169">
        <ele>151.5</ele>
        <time>2025-10-05T13:19:03.000Z</time>
      </trkpt>
      <trkpt lat="49.59788" lon="3.44169">
        <ele>151.5</ele>
        <time>2025-10-05T13:19:04.000Z</time>
      </trkpt>
      <trkpt lat="49.59788" lon="3.44169">
        <ele>151.5</ele>
        <time>2025-10-05T13:19:05.000Z</time>
      </trkpt>
      <trkpt lat="49.59788" lon="3.44169">
        <ele>151.5</ele>
        <time>2025-10-05T13:19:06.000Z</time>
      </trkpt>
      <trkpt lat="49.59788" lon="3.44169">
        <ele>151.5</ele>
        <time>2025-10-05T13:19:07.000Z</time>
      </trkpt>
      <trkpt lat="49.59788" lon="3.44169">
        <ele>151.5</ele>
        <time>2025-10-05T13:19:08.000Z</time>
      </trkpt>
      <trkpt lat="49.59788" lon="3.44169">
        <ele>151.5</ele>
        <time>2025-10-05T13:19:09.000Z</time>
      </trkpt>
      <trkpt lat="49.59788" lon="3.44169">
        <ele>151.5</ele>
        <time>2025-10-05T13:19:10.000Z</time>
      </trkpt>
      <trkpt lat="49.59788" lon="3.44169">
        <ele>151.5</ele>
        <time>2025-10-05T13:19:11.000Z</time>
      </trkpt>
      <trkpt lat="49.59788" lon="3.44169">
        <ele>151.5</ele>
        <time>2025-10-05T13:19:12.000Z</time>
      </trkpt>
      <trkpt lat="49.59788" lon="3.44169">
        <ele>151.5</ele>
        <time>2025-10-05T13:19:13.000Z</time>
      </trkpt>
      <trkpt lat="49.59788" lon="3.44169">
        <ele>151.5</ele>
        <time>2025-10-05T13:19:14.000Z</time>
      </trkpt>
      <trkpt lat="49.59788" lon="3.44169">
        <ele>151.5</ele>
        <time>2025-10-05T13:19:15.000Z</time>
      </trkpt>
      <trkpt lat="49.59788" lon="3.44169">
        <ele>151.5</ele>
        <time>2025-10-05T13:19:16.000Z</time>
      </trkpt>
      <trkpt lat="49.59788" lon="3.44169">
        <ele>151.5</ele>
        <time>2025-10-05T13:19:17.000Z</time>
      </trkpt>
      <trkpt lat="49.59788" lon="3.44169">
        <ele>151.5</ele>
        <time>2025-10-05T13:19:18.000Z</time>
      </trkpt>
      <trkpt lat="49.59788" lon="3.44169">
        <ele>151.5</ele>
        <time>2025-10-05T13:19:19.000Z</time>
      </trkpt>
      <trkpt lat="49.59788" lon="3.44169">
        <ele>151.5</ele>
        <time>2025-10-05T13:19:20.000Z</time>
      </trkpt>
      <trkpt lat="49.59788" lon="3.44169">
        <ele>151.5</ele>
        <time>2025-10-05T13:19:21.000Z</time>
      </trkpt>
      <trkpt lat="49.59788" lon="3.44169">
        <ele>151.5</ele>
        <time>2025-10-05T13:19:22.000Z</time>
      </trkpt>
      <trkpt lat="49.59788" lon="3.44169">
        <ele>151.5</ele>
        <time>2025-10-05T13:19:23.000Z</time>
      </trkpt>
      <trkpt lat="49.59788" lon="3.44169">
        <ele>151.5</ele>
        <time>2025-10-05T13:19:24.000Z</time>
      </trkpt>
      <trkpt lat="49.59788" lon="3.44169">
        <ele>151.5</ele>
        <time>2025-10-05T13:19:25.000Z</time>
      </trkpt>
      <trkpt lat="49.59788" lon="3.44169">
        <ele>151.5</ele>
        <time>2025-10-05T13:19:26.000Z</time>
      </trkpt>
      <trkpt lat="49.59788" lon="3.44169">
        <ele>151.5</ele>
        <time>2025-10-05T13:19:27.000Z</time>
      </trkpt>
      <trkpt lat="49.59788" lon="3.44169">
        <ele>151.5</ele>
        <time>2025-10-05T13:19:28.000Z</time>
      </trkpt>
      <trkpt lat="49.59788" lon="3.44169">
        <ele>151.5</ele>
        <time>2025-10-05T13:19:29.000Z</time>
      </trkpt>
      <trkpt lat="49.59788" lon="3.44169">
        <ele>151.5</ele>
        <time>2025-10-05T13:19:30.000Z</time>
      </trkpt>
      <trkpt lat="49.59788" lon="3.44169">
        <ele>151.5</ele>
        <time>2025-10-05T13:19:31.000Z</time>
      </trkpt>
      <trkpt lat="49.59788" lon="3.44169">
        <ele>151.5</ele>
        <time>2025-10-05T13:19:32.000Z</time>
      </trkpt>
      <trkpt lat="49.59788" lon="3.44169">
        <ele>151.5</ele>
        <time>2025-10-05T13:19:33.000Z</time>
      </trkpt>
      <trkpt lat="49.59788" lon="3.44169">
        <ele>151.5</ele>
        <time>2025-10-05T13:19:34.000Z</time>
      </trkpt>
      <trkpt lat="49.59788" lon="3.44169">
        <ele>151.5</ele>
        <time>2025-10-05T13:19:35.000Z</time>
      </trkpt>
      <trkpt lat="49.59788" lon="3.44169">
        <ele>151.5</ele>
        <time>2025-10-05T13:19:36.000Z</time>
      </trkpt>
      <trkpt lat="49.59788" lon="3.44169">
        <ele>151.5</ele>
        <time>2025-10-05T13:19:37.000Z</time>
      </trkpt>
      <trkpt lat="49.59788" lon="3.44169">
        <ele>151.5</ele>
        <time>2025-10-05T13:19:38.000Z</time>
      </trkpt>
      <trkpt lat="49.59788" lon="3.44169">
        <ele>151.5</ele>
        <time>2025-10-05T13:19:39.000Z</time>
      </trkpt>
      <trkpt lat="49.59788" lon="3.44169">
        <ele>151.5</ele>
        <time>2025-10-05T13:19:40.000Z</time>
      </trkpt>
      <trkpt lat="49.59788" lon="3.44169">
        <ele>151.5</ele>
        <time>2025-10-05T13:19:41.000Z</time>
      </trkpt>
      <trkpt lat="49.59788" lon="3.44169">
        <ele>151.5</ele>
        <time>2025-10-05T13:19:42.000Z</time>
      </trkpt>
      <trkpt lat="49.59788" lon="3.44169">
        <ele>151.5</ele>
        <time>2025-10-05T13:19:43.000Z</time>
      </trkpt>
      <trkpt lat="49.59788" lon="3.44169">
        <ele>151.5</ele>
        <time>2025-10-05T13:19:44.000Z</time>
      </trkpt>
      <trkpt lat="49.59788" lon="3.44169">
        <ele>151.5</ele>
        <time>2025-10-05T13:19:45.000Z</time>
      </trkpt>
      <trkpt lat="49.59788" lon="3.44169">
        <ele>151.5</ele>
        <time>2025-10-05T13:19:46.000Z</time>
      </trkpt>
      <trkpt lat="49.59788" lon="3.44169">
        <ele>151.5</ele>
        <time>2025-10-05T13:19:47.000Z</time>
      </trkpt>
      <trkpt lat="49.59788" lon="3.44169">
        <ele>151.5</ele>
        <time>2025-10-05T13:19:48.000Z</time>
      </trkpt>
      <trkpt lat="49.59788" lon="3.44169">
        <ele>151.5</ele>
        <time>2025-10-05T13:19:49.000Z</time>
      </trkpt>
      <trkpt lat="49.59788" lon="3.44169">
        <ele>151.5</ele>
        <time>2025-10-05T13:19:50.000Z</time>
      </trkpt>
      <trkpt lat="49.59788" lon="3.44169">
        <ele>151.5</ele>
        <time>2025-10-05T13:19:51.000Z</time>
      </trkpt>
      <trkpt lat="49.59788" lon="3.44169">
        <ele>151.5</ele>
        <time>2025-10-05T13:19:52.000Z</time>
      </trkpt>
      <trkpt lat="49.59788" lon="3.44169">
        <ele>151.5</ele>
        <time>2025-10-05T13:19:53.000Z</time>
      </trkpt>
      <trkpt lat="49.59788" lon="3.44169">
        <ele>151.5</ele>
        <time>2025-10-05T13:19:54.000Z</time>
      </trkpt>
      <trkpt lat="49.59785" lon="3.44171">
        <ele>151.9</ele>
        <time>2025-10-05T13:19:55.000Z</time>
      </trkpt>
      <trkpt lat="49.59786" lon="3.44171">
        <ele>152</ele>
        <time>2025-10-05T13:19:56.000Z</time>
      </trkpt>
      <trkpt lat="49.59787" lon="3.44171">
        <ele>152.1</ele>
        <time>2025-10-05T13:19:57.000Z</time>
      </trkpt>
      <trkpt lat="49.59788" lon="3.44171">
        <ele>152.2</ele>
        <time>2025-10-05T13:19:58.000Z</time>
      </trkpt>
      <trkpt lat="49.59789" lon="3.44172">
        <ele>152.4</ele>
        <time>2025-10-05T13:19:59.000Z</time>
      </trkpt>
      <trkpt lat="49.59789" lon="3.44173">
        <ele>152.5</ele>
        <time>2025-10-05T13:20:00.000Z</time>
      </trkpt>
      <trkpt lat="49.5979" lon="3.44174">
        <ele>152.7</ele>
        <time>2025-10-05T13:20:01.000Z</time>
      </trkpt>
      <trkpt lat="49.5979" lon="3.44175">
        <ele>153.1</ele>
        <time>2025-10-05T13:20:02.000Z</time>
      </trkpt>
      <trkpt lat="49.59791" lon="3.44176">
        <ele>153.4</ele>
        <time>2025-10-05T13:20:03.000Z</time>
      </trkpt>
      <trkpt lat="49.59791" lon="3.44178">
        <ele>153.7</ele>
        <time>2025-10-05T13:20:04.000Z</time>
      </trkpt>
      <trkpt lat="49.59791" lon="3.4418">
        <ele>154</ele>
        <time>2025-10-05T13:20:05.000Z</time>
      </trkpt>
      <trkpt lat="49.59791" lon="3.44181">
        <ele>154.3</ele>
        <time>2025-10-05T13:20:06.000Z</time>
      </trkpt>
      <trkpt lat="49.59792" lon="3.44182">
        <ele>154.4</ele>
        <time>2025-10-05T13:20:07.000Z</time>
      </trkpt>
      <trkpt lat="49.59793" lon="3.44183">
        <ele>154.8</ele>
        <time>2025-10-05T13:20:08.000Z</time>
      </trkpt>
      <trkpt lat="49.59793" lon="3.44185">
        <ele>155.1</ele>
        <time>2025-10-05T13:20:09.000Z</time>
      </trkpt>
      <trkpt lat="49.59794" lon="3.44186">
        <ele>155.2</ele>
        <time>2025-10-05T13:20:10.000Z</time>
      </trkpt>
      <trkpt lat="49.59793" lon="3.44187">
        <ele>155.6</ele>
        <time>2025-10-05T13:20:11.000Z</time>
      </trkpt>
      <trkpt lat="49.59794" lon="3.44188">
        <ele>155.8</ele>
        <time>2025-10-05T13:20:12.000Z</time>
      </trkpt>
      <trkpt lat="49.59794" lon="3.44189">
        <ele>156.1</ele>
        <time>2025-10-05T13:20:13.000Z</time>
      </trkpt>
      <trkpt lat="49.59794" lon="3.44189">
        <ele>156.3</ele>
        <time>2025-10-05T13:20:14.000Z</time>
      </trkpt>
      <trkpt lat="49.59794" lon="3.4419">
        <ele>156.4</ele>
        <time>2025-10-05T13:20:15.000Z</time>
      </trkpt>
      <trkpt lat="49.59794" lon="3.44192">
        <ele>157</ele>
        <time>2025-10-05T13:20:16.000Z</time>
      </trkpt>
      <trkpt lat="49.59795" lon="3.44193">
        <ele>157.5</ele>
        <time>2025-10-05T13:20:17.000Z</time>
      </trkpt>
      <trkpt lat="49.59795" lon="3.44194">
        <ele>157.8</ele>
        <time>2025-10-05T13:20:18.000Z</time>
      </trkpt>
      <trkpt lat="49.59795" lon="3.44195">
        <ele>158</ele>
        <time>2025-10-05T13:20:19.000Z</time>
      </trkpt>
      <trkpt lat="49.59795" lon="3.44196">
        <ele>158.3</ele>
        <time>2025-10-05T13:20:20.000Z</time>
      </trkpt>
      <trkpt lat="49.59795" lon="3.44197">
        <ele>158.6</ele>
        <time>2025-10-05T13:20:21.000Z</time>
      </trkpt>
      <trkpt lat="49.59795" lon="3.44199">
        <ele>158.8</ele>
        <time>2025-10-05T13:20:22.000Z</time>
      </trkpt>
      <trkpt lat="49.59795" lon="3.442">
        <ele>158.9</ele>
        <time>2025-10-05T13:20:23.000Z</time>
      </trkpt>
      <trkpt lat="49.59796" lon="3.44202">
        <ele>159.1</ele>
        <time>2025-10-05T13:20:24.000Z</time>
      </trkpt>
      <trkpt lat="49.59796" lon="3.44203">
        <ele>159.3</ele>
        <time>2025-10-05T13:20:25.000Z</time>
      </trkpt>
      <trkpt lat="49.59796" lon="3.44204">
        <ele>159.3</ele>
        <time>2025-10-05T13:20:26.000Z</time>
      </trkpt>
      <trkpt lat="49.59796" lon="3.44206">
        <ele>159.3</ele>
        <time>2025-10-05T13:20:27.000Z</time>
      </trkpt>
      <trkpt lat="49.59797" lon="3.44207">
        <ele>159.2</ele>
        <time>2025-10-05T13:20:28.000Z</time>
      </trkpt>
      <trkpt lat="49.59797" lon="3.44209">
        <ele>159.2</ele>
        <time>2025-10-05T13:20:29.000Z</time>
      </trkpt>
      <trkpt lat="49.59798" lon="3.4421">
        <ele>159.4</ele>
        <time>2025-10-05T13:20:30.000Z</time>
      </trkpt>
      <trkpt lat="49.59798" lon="3.4421">
        <ele>159.7</ele>
        <time>2025-10-05T13:20:31.000Z</time>
      </trkpt>
      <trkpt lat="49.59799" lon="3.44211">
        <ele>160</ele>
        <time>2025-10-05T13:20:32.000Z</time>
      </trkpt>
      <trkpt lat="49.59798" lon="3.44212">
        <ele>160.3</ele>
        <time>2025-10-05T13:20:33.000Z</time>
      </trkpt>
      <trkpt lat="49.59798" lon="3.44213">
        <ele>160.7</ele>
        <time>2025-10-05T13:20:34.000Z</time>
      </trkpt>
      <trkpt lat="49.59798" lon="3.44214">
        <ele>161.1</ele>
        <time>2025-10-05T13:20:35.000Z</time>
      </trkpt>
      <trkpt lat="49.59799" lon="3.44215">
        <ele>161</ele>
        <time>2025-10-05T13:20:36.000Z</time>
      </trkpt>
      <trkpt lat="49.59799" lon="3.44217">
        <ele>161.3</ele>
        <time>2025-10-05T13:20:37.000Z</time>
      </trkpt>
      <trkpt lat="49.598" lon="3.44219">
        <ele>161.6</ele>
        <time>2025-10-05T13:20:38.000Z</time>
      </trkpt>
      <trkpt lat="49.598" lon="3.44221">
        <ele>161.8</ele>
        <time>2025-10-05T13:20:39.000Z</time>
      </trkpt>
      <trkpt lat="49.59801" lon="3.44223">
        <ele>161.7</ele>
        <time>2025-10-05T13:20:40.000Z</time>
      </trkpt>
      <trkpt lat="49.59801" lon="3.44225">
        <ele>161.7</ele>
        <time>2025-10-05T13:20:41.000Z</time>
      </trkpt>
      <trkpt lat="49.59802" lon="3.44225">
        <ele>161.9</ele>
        <time>2025-10-05T13:20:42.000Z</time>
      </trkpt>
      <trkpt lat="49.59802" lon="3.44226">
        <ele>161.9</ele>
        <time>2025-10-05T13:20:43.000Z</time>
      </trkpt>
      <trkpt lat="49.59802" lon="3.44227">
        <ele>162</ele>
        <time>2025-10-05T13:20:44.000Z</time>
      </trkpt>
      <trkpt lat="49.59803" lon="3.44228">
        <ele>162.2</ele>
        <time>2025-10-05T13:20:45.000Z</time>
      </trkpt>
      <trkpt lat="49.59803" lon="3.44229">
        <ele>162.3</ele>
        <time>2025-10-05T13:20:46.000Z</time>
      </trkpt>
      <trkpt lat="49.59802" lon="3.4423">
        <ele>162.6</ele>
        <time>2025-10-05T13:20:47.000Z</time>
      </trkpt>
      <trkpt lat="49.59802" lon="3.44232">
        <ele>162.8</ele>
        <time>2025-10-05T13:20:48.000Z</time>
      </trkpt>
      <trkpt lat="49.59801" lon="3.44233">
        <ele>162.9</ele>
        <time>2025-10-05T13:20:49.000Z</time>
      </trkpt>
      <trkpt lat="49.598" lon="3.44234">
        <ele>163.1</ele>
        <time>2025-10-05T13:20:50.000Z</time>
      </trkpt>
      <trkpt lat="49.598" lon="3.44236">
        <ele>163.1</ele>
        <time>2025-10-05T13:20:51.000Z</time>
      </trkpt>
      <trkpt lat="49.598" lon="3.44237">
        <ele>162.9</ele>
        <time>2025-10-05T13:20:52.000Z</time>
      </trkpt>
      <trkpt lat="49.59799" lon="3.44238">
        <ele>163.4</ele>
        <time>2025-10-05T13:20:53.000Z</time>
      </trkpt>
      <trkpt lat="49.59799" lon="3.44239">
        <ele>163.6</ele>
        <time>2025-10-05T13:20:54.000Z</time>
      </trkpt>
      <trkpt lat="49.59799" lon="3.4424">
        <ele>163.9</ele>
        <time>2025-10-05T13:20:55.000Z</time>
      </trkpt>
      <trkpt lat="49.59799" lon="3.44242">
        <ele>164.3</ele>
        <time>2025-10-05T13:20:56.000Z</time>
      </trkpt>
      <trkpt lat="49.598" lon="3.44243">
        <ele>164.7</ele>
        <time>2025-10-05T13:20:57.000Z</time>
      </trkpt>
      <trkpt lat="49.598" lon="3.44244">
        <ele>164.9</ele>
        <time>2025-10-05T13:20:58.000Z</time>
      </trkpt>
      <trkpt lat="49.59801" lon="3.44245">
        <ele>165.1</ele>
        <time>2025-10-05T13:20:59.000Z</time>
      </trkpt>
      <trkpt lat="49.59801" lon="3.44246">
        <ele>165.5</ele>
        <time>2025-10-05T13:21:00.000Z</time>
      </trkpt>
      <trkpt lat="49.59802" lon="3.44247">
        <ele>165.9</ele>
        <time>2025-10-05T13:21:01.000Z</time>
      </trkpt>
      <trkpt lat="49.59802" lon="3.44248">
        <ele>166.3</ele>
        <time>2025-10-05T13:21:02.000Z</time>
      </trkpt>
      <trkpt lat="49.59803" lon="3.44249">
        <ele>167</ele>
        <time>2025-10-05T13:21:03.000Z</time>
      </trkpt>
      <trkpt lat="49.59803" lon="3.44251">
        <ele>167.4</ele>
        <time>2025-10-05T13:21:04.000Z</time>
      </trkpt>
      <trkpt lat="49.59803" lon="3.44253">
        <ele>167.8</ele>
        <time>2025-10-05T13:21:05.000Z</time>
      </trkpt>
      <trkpt lat="49.59803" lon="3.44254">
        <ele>168.5</ele>
        <time>2025-10-05T13:21:07.000Z</time>
      </trkpt>
      <trkpt lat="49.59803" lon="3.44255">
        <ele>168.8</ele>
        <time>2025-10-05T13:21:08.000Z</time>
      </trkpt>
      <trkpt lat="49.59803" lon="3.44256">
        <ele>169.1</ele>
        <time>2025-10-05T13:21:09.000Z</time>
      </trkpt>
      <trkpt lat="49.59803" lon="3.44257">
        <ele>169.5</ele>
        <time>2025-10-05T13:21:10.000Z</time>
      </trkpt>
      <trkpt lat="49.59803" lon="3.44258">
        <ele>169.5</ele>
        <time>2025-10-05T13:21:11.000Z</time>
      </trkpt>
      <trkpt lat="49.59802" lon="3.44258">
        <ele>169.4</ele>
        <time>2025-10-05T13:21:12.000Z</time>
      </trkpt>
      <trkpt lat="49.59802" lon="3.44259">
        <ele>169</ele>
        <time>2025-10-05T13:21:13.000Z</time>
      </trkpt>
      <trkpt lat="49.59802" lon="3.44259">
        <ele>169</ele>
        <time>2025-10-05T13:21:14.000Z</time>
      </trkpt>
      <trkpt lat="49.59803" lon="3.4426">
        <ele>168.7</ele>
        <time>2025-10-05T13:21:15.000Z</time>
      </trkpt>
      <trkpt lat="49.59803" lon="3.4426">
        <ele>168.7</ele>
        <time>2025-10-05T13:21:16.000Z</time>
      </trkpt>
      <trkpt lat="49.59803" lon="3.4426">
        <ele>168.4</ele>
        <time>2025-10-05T13:21:17.000Z</time>
      </trkpt>
      <trkpt lat="49.59802" lon="3.44262">
        <ele>168.4</ele>
        <time>2025-10-05T13:21:18.000Z</time>
      </trkpt>
      <trkpt lat="49.59802" lon="3.44263">
        <ele>168.3</ele>
        <time>2025-10-05T13:21:19.000Z</time>
      </trkpt>
      <trkpt lat="49.59801" lon="3.44263">
        <ele>168</ele>
        <time>2025-10-05T13:21:20.000Z</time>
      </trkpt>
      <trkpt lat="49.598" lon="3.44263">
        <ele>167.7</ele>
        <time>2025-10-05T13:21:21.000Z</time>
      </trkpt>
      <trkpt lat="49.598" lon="3.44264">
        <ele>167.6</ele>
        <time>2025-10-05T13:21:22.000Z</time>
      </trkpt>
      <trkpt lat="49.598" lon="3.44264">
        <ele>167.5</ele>
        <time>2025-10-05T13:21:23.000Z</time>
      </trkpt>
      <trkpt lat="49.59799" lon="3.44264">
        <ele>167.3</ele>
        <time>2025-10-05T13:21:24.000Z</time>
      </trkpt>
      <trkpt lat="49.59799" lon="3.44265">
        <ele>167.3</ele>
        <time>2025-10-05T13:21:25.000Z</time>
      </trkpt>
      <trkpt lat="49.59799" lon="3.44265">
        <ele>167.3</ele>
        <time>2025-10-05T13:21:26.000Z</time>
      </trkpt>
      <trkpt lat="49.59799" lon="3.44265">
        <ele>167.3</ele>
        <time>2025-10-05T13:21:27.000Z</time>
      </trkpt>
      <trkpt lat="49.59799" lon="3.44265">
        <ele>167.3</ele>
        <time>2025-10-05T13:21:28.000Z</time>
      </trkpt>
      <trkpt lat="49.59799" lon="3.44265">
        <ele>167.3</ele>
        <time>2025-10-05T13:21:29.000Z</time>
      </trkpt>
      <trkpt lat="49.59799" lon="3.44265">
        <ele>167.3</ele>
        <time>2025-10-05T13:21:30.000Z</time>
      </trkpt>
      <trkpt lat="49.59799" lon="3.44265">
        <ele>167.3</ele>
        <time>2025-10-05T13:21:31.000Z</time>
      </trkpt>
      <trkpt lat="49.59799" lon="3.44265">
        <ele>167.3</ele>
        <time>2025-10-05T13:21:32.000Z</time>
      </trkpt>
      <trkpt lat="49.59799" lon="3.44265">
        <ele>167.3</ele>
        <time>2025-10-05T13:21:33.000Z</time>
      </trkpt>
      <trkpt lat="49.59799" lon="3.44265">
        <ele>167.3</ele>
        <time>2025-10-05T13:21:34.000Z</time>
      </trkpt>
      <trkpt lat="49.59795" lon="3.44266">
        <ele>165.8</ele>
        <time>2025-10-05T13:21:35.000Z</time>
      </trkpt>
      <trkpt lat="49.59795" lon="3.44267">
        <ele>165.5</ele>
        <time>2025-10-05T13:21:36.000Z</time>
      </trkpt>
      <trkpt lat="49.59795" lon="3.44267">
        <ele>165.5</ele>
        <time>2025-10-05T13:21:37.000Z</time>
      </trkpt>
      <trkpt lat="49.59794" lon="3.44267">
        <ele>165.5</ele>
        <time>2025-10-05T13:21:38.000Z</time>
      </trkpt>
      <trkpt lat="49.59794" lon="3.44267">
        <ele>165.7</ele>
        <time>2025-10-05T13:21:39.000Z</time>
      </trkpt>
      <trkpt lat="49.59793" lon="3.44266">
        <ele>165.9</ele>
        <time>2025-10-05T13:21:40.000Z</time>
      </trkpt>
      <trkpt lat="49.59792" lon="3.44266">
        <ele>166.1</ele>
        <time>2025-10-05T13:21:41.000Z</time>
      </trkpt>
      <trkpt lat="49.59791" lon="3.44266">
        <ele>166.5</ele>
        <time>2025-10-05T13:21:42.000Z</time>
      </trkpt>
      <trkpt lat="49.5979" lon="3.44266">
        <ele>166.9</ele>
        <time>2025-10-05T13:21:43.000Z</time>
      </trkpt>
      <trkpt lat="49.59789" lon="3.44265">
        <ele>167.1</ele>
        <time>2025-10-05T13:21:44.000Z</time>
      </trkpt>
      <trkpt lat="49.59788" lon="3.44265">
        <ele>167.2</ele>
        <time>2025-10-05T13:21:45.000Z</time>
      </trkpt>
      <trkpt lat="49.59788" lon="3.44264">
        <ele>167</ele>
        <time>2025-10-05T13:21:46.000Z</time>
      </trkpt>
      <trkpt lat="49.59787" lon="3.44264">
        <ele>166.6</ele>
        <time>2025-10-05T13:21:47.000Z</time>
      </trkpt>
      <trkpt lat="49.59787" lon="3.44264">
        <ele>166.2</ele>
        <time>2025-10-05T13:21:48.000Z</time>
      </trkpt>
      <trkpt lat="49.59786" lon="3.44265">
        <ele>165.9</ele>
        <time>2025-10-05T13:21:49.000Z</time>
      </trkpt>
      <trkpt lat="49.59785" lon="3.44265">
        <ele>165.6</ele>
        <time>2025-10-05T13:21:50.000Z</time>
      </trkpt>
      <trkpt lat="49.59785" lon="3.44265">
        <ele>165.4</ele>
        <time>2025-10-05T13:21:51.000Z</time>
      </trkpt>
      <trkpt lat="49.59784" lon="3.44265">
        <ele>165.4</ele>
        <time>2025-10-05T13:21:52.000Z</time>
      </trkpt>
      <trkpt lat="49.59782" lon="3.44266">
        <ele>165.2</ele>
        <time>2025-10-05T13:21:53.000Z</time>
      </trkpt>
      <trkpt lat="49.59781" lon="3.44266">
        <ele>164.9</ele>
        <time>2025-10-05T13:21:54.000Z</time>
      </trkpt>
      <trkpt lat="49.59779" lon="3.44266">
        <ele>164.7</ele>
        <time>2025-10-05T13:21:55.000Z</time>
      </trkpt>
      <trkpt lat="49.59778" lon="3.44266">
        <ele>164.4</ele>
        <time>2025-10-05T13:21:56.000Z</time>
      </trkpt>
      <trkpt lat="49.59777" lon="3.44266">
        <ele>164.1</ele>
        <time>2025-10-05T13:21:57.000Z</time>
      </trkpt>
      <trkpt lat="49.59775" lon="3.44265">
        <ele>163.7</ele>
        <time>2025-10-05T13:21:58.000Z</time>
      </trkpt>
      <trkpt lat="49.59774" lon="3.44264">
        <ele>163.3</ele>
        <time>2025-10-05T13:21:59.000Z</time>
      </trkpt>
      <trkpt lat="49.59774" lon="3.44263">
        <ele>163.3</ele>
        <time>2025-10-05T13:22:00.000Z</time>
      </trkpt>
      <trkpt lat="49.59773" lon="3.44263">
        <ele>163</ele>
        <time>2025-10-05T13:22:01.000Z</time>
      </trkpt>
      <trkpt lat="49.59772" lon="3.44262">
        <ele>162.5</ele>
        <time>2025-10-05T13:22:02.000Z</time>
      </trkpt>
      <trkpt lat="49.59772" lon="3.44261">
        <ele>161.9</ele>
        <time>2025-10-05T13:22:03.000Z</time>
      </trkpt>
      <trkpt lat="49.59772" lon="3.4426">
        <ele>161.6</ele>
        <time>2025-10-05T13:22:04.000Z</time>
      </trkpt>
      <trkpt lat="49.59771" lon="3.44259">
        <ele>161.5</ele>
        <time>2025-10-05T13:22:05.000Z</time>
      </trkpt>
      <trkpt lat="49.5977" lon="3.44258">
        <ele>160.9</ele>
        <time>2025-10-05T13:22:06.000Z</time>
      </trkpt>
      <trkpt lat="49.59769" lon="3.44257">
        <ele>160.5</ele>
        <time>2025-10-05T13:22:07.000Z</time>
      </trkpt>
      <trkpt lat="49.59768" lon="3.44255">
        <ele>160.2</ele>
        <time>2025-10-05T13:22:08.000Z</time>
      </trkpt>
      <trkpt lat="49.59767" lon="3.44254">
        <ele>159.1</ele>
        <time>2025-10-05T13:22:09.000Z</time>
      </trkpt>
      <trkpt lat="49.59766" lon="3.44252">
        <ele>158.1</ele>
        <time>2025-10-05T13:22:10.000Z</time>
      </trkpt>
      <trkpt lat="49.59765" lon="3.4425">
        <ele>157.1</ele>
        <time>2025-10-05T13:22:11.000Z</time>
      </trkpt>
      <trkpt lat="49.59764" lon="3.44248">
        <ele>156.2</ele>
        <time>2025-10-05T13:22:12.000Z</time>
      </trkpt>
      <trkpt lat="49.59762" lon="3.44245">
        <ele>155.7</ele>
        <time>2025-10-05T13:22:13.000Z</time>
      </trkpt>
      <trkpt lat="49.59761" lon="3.44243">
        <ele>154.9</ele>
        <time>2025-10-05T13:22:14.000Z</time>
      </trkpt>
      <trkpt lat="49.5976" lon="3.44241">
        <ele>153.5</ele>
        <time>2025-10-05T13:22:15.000Z</time>
      </trkpt>
      <trkpt lat="49.59759" lon="3.4424">
        <ele>153.3</ele>
        <time>2025-10-05T13:22:16.000Z</time>
      </trkpt>
      <trkpt lat="49.59759" lon="3.44237">
        <ele>152.8</ele>
        <time>2025-10-05T13:22:17.000Z</time>
      </trkpt>
      <trkpt lat="49.59759" lon="3.44235">
        <ele>152.5</ele>
        <time>2025-10-05T13:22:18.000Z</time>
      </trkpt>
      <trkpt lat="49.59759" lon="3.44234">
        <ele>152.1</ele>
        <time>2025-10-05T13:22:19.000Z</time>
      </trkpt>
      <trkpt lat="49.59758" lon="3.44232">
        <ele>151.9</ele>
        <time>2025-10-05T13:22:20.000Z</time>
      </trkpt>
      <trkpt lat="49.59758" lon="3.44231">
        <ele>151.9</ele>
        <time>2025-10-05T13:22:21.000Z</time>
      </trkpt>
      <trkpt lat="49.59757" lon="3.44231">
        <ele>152.1</ele>
        <time>2025-10-05T13:22:22.000Z</time>
      </trkpt>
      <trkpt lat="49.59757" lon="3.44229">
        <ele>152</ele>
        <time>2025-10-05T13:22:23.000Z</time>
      </trkpt>
      <trkpt lat="49.59756" lon="3.44228">
        <ele>151.8</ele>
        <time>2025-10-05T13:22:24.000Z</time>
      </trkpt>
      <trkpt lat="49.59755" lon="3.44227">
        <ele>151.8</ele>
        <time>2025-10-05T13:22:25.000Z</time>
      </trkpt>
      <trkpt lat="49.59754" lon="3.44226">
        <ele>151.5</ele>
        <time>2025-10-05T13:22:26.000Z</time>
      </trkpt>
      <trkpt lat="49.59753" lon="3.44226">
        <ele>151.3</ele>
        <time>2025-10-05T13:22:27.000Z</time>
      </trkpt>
      <trkpt lat="49.59753" lon="3.44224">
        <ele>151.2</ele>
        <time>2025-10-05T13:22:28.000Z</time>
      </trkpt>
      <trkpt lat="49.59751" lon="3.44223">
        <ele>151.1</ele>
        <time>2025-10-05T13:22:29.000Z</time>
      </trkpt>
      <trkpt lat="49.59751" lon="3.44222">
        <ele>151.1</ele>
        <time>2025-10-05T13:22:30.000Z</time>
      </trkpt>
      <trkpt lat="49.5975" lon="3.4422">
        <ele>151.2</ele>
        <time>2025-10-05T13:22:31.000Z</time>
      </trkpt>
      <trkpt lat="49.5975" lon="3.44218">
        <ele>151.2</ele>
        <time>2025-10-05T13:22:32.000Z</time>
      </trkpt>
      <trkpt lat="49.5975" lon="3.44216">
        <ele>151.6</ele>
        <time>2025-10-05T13:22:33.000Z</time>
      </trkpt>
      <trkpt lat="49.59749" lon="3.44215">
        <ele>151.6</ele>
        <time>2025-10-05T13:22:34.000Z</time>
      </trkpt>
      <trkpt lat="49.59749" lon="3.44213">
        <ele>151.6</ele>
        <time>2025-10-05T13:22:35.000Z</time>
      </trkpt>
      <trkpt lat="49.59749" lon="3.44212">
        <ele>151.7</ele>
        <time>2025-10-05T13:22:36.000Z</time>
      </trkpt>
      <trkpt lat="49.59748" lon="3.44211">
        <ele>151.9</ele>
        <time>2025-10-05T13:22:37.000Z</time>
      </trkpt>
      <trkpt lat="49.59748" lon="3.44209">
        <ele>152.2</ele>
        <time>2025-10-05T13:22:38.000Z</time>
      </trkpt>
      <trkpt lat="49.59747" lon="3.44206">
        <ele>152.4</ele>
        <time>2025-10-05T13:22:39.000Z</time>
      </trkpt>
      <trkpt lat="49.59746" lon="3.44205">
        <ele>152.5</ele>
        <time>2025-10-05T13:22:40.000Z</time>
      </trkpt>
      <trkpt lat="49.59744" lon="3.44203">
        <ele>153.3</ele>
        <time>2025-10-05T13:22:41.000Z</time>
      </trkpt>
      <trkpt lat="49.59744" lon="3.44202">
        <ele>153.6</ele>
        <time>2025-10-05T13:22:42.000Z</time>
      </trkpt>
      <trkpt lat="49.59743" lon="3.442">
        <ele>153.7</ele>
        <time>2025-10-05T13:22:43.000Z</time>
      </trkpt>
      <trkpt lat="49.59743" lon="3.44199">
        <ele>153.6</ele>
        <time>2025-10-05T13:22:44.000Z</time>
      </trkpt>
      <trkpt lat="49.59743" lon="3.44197">
        <ele>153.6</ele>
        <time>2025-10-05T13:22:45.000Z</time>
      </trkpt>
      <trkpt lat="49.59742" lon="3.44195">
        <ele>153.9</ele>
        <time>2025-10-05T13:22:46.000Z</time>
      </trkpt>
      <trkpt lat="49.59742" lon="3.44194">
        <ele>154</ele>
        <time>2025-10-05T13:22:47.000Z</time>
      </trkpt>
      <trkpt lat="49.59742" lon="3.44193">
        <ele>154</ele>
        <time>2025-10-05T13:22:48.000Z</time>
      </trkpt>
      <trkpt lat="49.59742" lon="3.44191">
        <ele>154</ele>
        <time>2025-10-05T13:22:49.000Z</time>
      </trkpt>
      <trkpt lat="49.59742" lon="3.4419">
        <ele>154.1</ele>
        <time>2025-10-05T13:22:50.000Z</time>
      </trkpt>
      <trkpt lat="49.59742" lon="3.44188">
        <ele>154.1</ele>
        <time>2025-10-05T13:22:51.000Z</time>
      </trkpt>
      <trkpt lat="49.59741" lon="3.44186">
        <ele>153.8</ele>
        <time>2025-10-05T13:22:52.000Z</time>
      </trkpt>
      <trkpt lat="49.59741" lon="3.44184">
        <ele>153.6</ele>
        <time>2025-10-05T13:22:53.000Z</time>
      </trkpt>
      <trkpt lat="49.5974" lon="3.44183">
        <ele>153.5</ele>
        <time>2025-10-05T13:22:54.000Z</time>
      </trkpt>
      <trkpt lat="49.5974" lon="3.44182">
        <ele>153.3</ele>
        <time>2025-10-05T13:22:55.000Z</time>
      </trkpt>
      <trkpt lat="49.59739" lon="3.44181">
        <ele>152.9</ele>
        <time>2025-10-05T13:22:56.000Z</time>
      </trkpt>
      <trkpt lat="49.59738" lon="3.4418">
        <ele>152.2</ele>
        <time>2025-10-05T13:22:57.000Z</time>
      </trkpt>
      <trkpt lat="49.59738" lon="3.44179">
        <ele>151.6</ele>
        <time>2025-10-05T13:22:58.000Z</time>
      </trkpt>
      <trkpt lat="49.59738" lon="3.44177">
        <ele>151.3</ele>
        <time>2025-10-05T13:22:59.000Z</time>
      </trkpt>
      <trkpt lat="49.59737" lon="3.44177">
        <ele>151.2</ele>
        <time>2025-10-05T13:23:00.000Z</time>
      </trkpt>
      <trkpt lat="49.59736" lon="3.44176">
        <ele>151</ele>
        <time>2025-10-05T13:23:01.000Z</time>
      </trkpt>
      <trkpt lat="49.59736" lon="3.44174">
        <ele>150.5</ele>
        <time>2025-10-05T13:23:02.000Z</time>
      </trkpt>
      <trkpt lat="49.59736" lon="3.44172">
        <ele>150</ele>
        <time>2025-10-05T13:23:03.000Z</time>
      </trkpt>
      <trkpt lat="49.59735" lon="3.44171">
        <ele>149.4</ele>
        <time>2025-10-05T13:23:04.000Z</time>
      </trkpt>
      <trkpt lat="49.59734" lon="3.44168">
        <ele>149.1</ele>
        <time>2025-10-05T13:23:05.000Z</time>
      </trkpt>
      <trkpt lat="49.59734" lon="3.44166">
        <ele>149</ele>
        <time>2025-10-05T13:23:06.000Z</time>
      </trkpt>
      <trkpt lat="49.59733" lon="3.44165">
        <ele>148.5</ele>
        <time>2025-10-05T13:23:07.000Z</time>
      </trkpt>
      <trkpt lat="49.59732" lon="3.44164">
        <ele>148.2</ele>
        <time>2025-10-05T13:23:08.000Z</time>
      </trkpt>
      <trkpt lat="49.59732" lon="3.44163">
        <ele>147.7</ele>
        <time>2025-10-05T13:23:09.000Z</time>
      </trkpt>
      <trkpt lat="49.59731" lon="3.44161">
        <ele>147.6</ele>
        <time>2025-10-05T13:23:10.000Z</time>
      </trkpt>
      <trkpt lat="49.59731" lon="3.44161">
        <ele>147.5</ele>
        <time>2025-10-05T13:23:11.000Z</time>
      </trkpt>
      <trkpt lat="49.59731" lon="3.4416">
        <ele>147.6</ele>
        <time>2025-10-05T13:23:12.000Z</time>
      </trkpt>
      <trkpt lat="49.5973" lon="3.44159">
        <ele>147.9</ele>
        <time>2025-10-05T13:23:13.000Z</time>
      </trkpt>
      <trkpt lat="49.5973" lon="3.44158">
        <ele>147.9</ele>
        <time>2025-10-05T13:23:14.000Z</time>
      </trkpt>
      <trkpt lat="49.59729" lon="3.44157">
        <ele>148.1</ele>
        <time>2025-10-05T13:23:15.000Z</time>
      </trkpt>
      <trkpt lat="49.59728" lon="3.44155">
        <ele>148.4</ele>
        <time>2025-10-05T13:23:16.000Z</time>
      </trkpt>
      <trkpt lat="49.59727" lon="3.44154">
        <ele>148.7</ele>
        <time>2025-10-05T13:23:17.000Z</time>
      </trkpt>
      <trkpt lat="49.59726" lon="3.44153">
        <ele>148.9</ele>
        <time>2025-10-05T13:23:18.000Z</time>
      </trkpt>
      <trkpt lat="49.59725" lon="3.44152">
        <ele>149</ele>
        <time>2025-10-05T13:23:19.000Z</time>
      </trkpt>
      <trkpt lat="49.59724" lon="3.44151">
        <ele>149</ele>
        <time>2025-10-05T13:23:20.000Z</time>
      </trkpt>
      <trkpt lat="49.59724" lon="3.4415">
        <ele>148.9</ele>
        <time>2025-10-05T13:23:21.000Z</time>
      </trkpt>
      <trkpt lat="49.59723" lon="3.44149">
        <ele>148.8</ele>
        <time>2025-10-05T13:23:22.000Z</time>
      </trkpt>
      <trkpt lat="49.59722" lon="3.44148">
        <ele>148.7</ele>
        <time>2025-10-05T13:23:23.000Z</time>
      </trkpt>
      <trkpt lat="49.59722" lon="3.44147">
        <ele>148.5</ele>
        <time>2025-10-05T13:23:24.000Z</time>
      </trkpt>
      <trkpt lat="49.59721" lon="3.44146">
        <ele>148.4</ele>
        <time>2025-10-05T13:23:25.000Z</time>
      </trkpt>
      <trkpt lat="49.59721" lon="3.44145">
        <ele>148.5</ele>
        <time>2025-10-05T13:23:26.000Z</time>
      </trkpt>
      <trkpt lat="49.5972" lon="3.44145">
        <ele>148.7</ele>
        <time>2025-10-05T13:23:27.000Z</time>
      </trkpt>
      <trkpt lat="49.5972" lon="3.44143">
        <ele>148.6</ele>
        <time>2025-10-05T13:23:28.000Z</time>
      </trkpt>
      <trkpt lat="49.59719" lon="3.44142">
        <ele>149</ele>
        <time>2025-10-05T13:23:29.000Z</time>
      </trkpt>
      <trkpt lat="49.59718" lon="3.44141">
        <ele>149.2</ele>
        <time>2025-10-05T13:23:30.000Z</time>
      </trkpt>
      <trkpt lat="49.59718" lon="3.4414">
        <ele>149.3</ele>
        <time>2025-10-05T13:23:31.000Z</time>
      </trkpt>
      <trkpt lat="49.59718" lon="3.44139">
        <ele>149.5</ele>
        <time>2025-10-05T13:23:32.000Z</time>
      </trkpt>
      <trkpt lat="49.59717" lon="3.44137">
        <ele>149.4</ele>
        <time>2025-10-05T13:23:33.000Z</time>
      </trkpt>
      <trkpt lat="49.59717" lon="3.44137">
        <ele>149.3</ele>
        <time>2025-10-05T13:23:34.000Z</time>
      </trkpt>
      <trkpt lat="49.59716" lon="3.44136">
        <ele>149.4</ele>
        <time>2025-10-05T13:23:35.000Z</time>
      </trkpt>
      <trkpt lat="49.59715" lon="3.44135">
        <ele>149.3</ele>
        <time>2025-10-05T13:23:36.000Z</time>
      </trkpt>
      <trkpt lat="49.59715" lon="3.44135">
        <ele>149.1</ele>
        <time>2025-10-05T13:23:37.000Z</time>
      </trkpt>
      <trkpt lat="49.59714" lon="3.44134">
        <ele>149.1</ele>
        <time>2025-10-05T13:23:38.000Z</time>
      </trkpt>
      <trkpt lat="49.59714" lon="3.44133">
        <ele>149</ele>
        <time>2025-10-05T13:23:39.000Z</time>
      </trkpt>
      <trkpt lat="49.59713" lon="3.44131">
        <ele>149</ele>
        <time>2025-10-05T13:23:40.000Z</time>
      </trkpt>
      <trkpt lat="49.59713" lon="3.4413">
        <ele>149.3</ele>
        <time>2025-10-05T13:23:41.000Z</time>
      </trkpt>
      <trkpt lat="49.59712" lon="3.44128">
        <ele>149.5</ele>
        <time>2025-10-05T13:23:42.000Z</time>
      </trkpt>
      <trkpt lat="49.59712" lon="3.44127">
        <ele>149.5</ele>
        <time>2025-10-05T13:23:43.000Z</time>
      </trkpt>
      <trkpt lat="49.59711" lon="3.44126">
        <ele>149.7</ele>
        <time>2025-10-05T13:23:44.000Z</time>
      </trkpt>
      <trkpt lat="49.59711" lon="3.44125">
        <ele>150.2</ele>
        <time>2025-10-05T13:23:45.000Z</time>
      </trkpt>
      <trkpt lat="49.5971" lon="3.44124">
        <ele>150.3</ele>
        <time>2025-10-05T13:23:46.000Z</time>
      </trkpt>
      <trkpt lat="49.5971" lon="3.44123">
        <ele>150.6</ele>
        <time>2025-10-05T13:23:47.000Z</time>
      </trkpt>
      <trkpt lat="49.59709" lon="3.44122">
        <ele>150.9</ele>
        <time>2025-10-05T13:23:48.000Z</time>
      </trkpt>
      <trkpt lat="49.59709" lon="3.44122">
        <ele>151.2</ele>
        <time>2025-10-05T13:23:49.000Z</time>
      </trkpt>
      <trkpt lat="49.59708" lon="3.44122">
        <ele>151.4</ele>
        <time>2025-10-05T13:23:50.000Z</time>
      </trkpt>
      <trkpt lat="49.59708" lon="3.44122">
        <ele>151.4</ele>
        <time>2025-10-05T13:23:51.000Z</time>
      </trkpt>
      <trkpt lat="49.59707" lon="3.44122">
        <ele>151.7</ele>
        <time>2025-10-05T13:23:52.000Z</time>
      </trkpt>
      <trkpt lat="49.59706" lon="3.44121">
        <ele>152</ele>
        <time>2025-10-05T13:23:53.000Z</time>
      </trkpt>
      <trkpt lat="49.59705" lon="3.44119">
        <ele>152.3</ele>
        <time>2025-10-05T13:23:54.000Z</time>
      </trkpt>
      <trkpt lat="49.59704" lon="3.44119">
        <ele>152.6</ele>
        <time>2025-10-05T13:23:55.000Z</time>
      </trkpt>
      <trkpt lat="49.59704" lon="3.44119">
        <ele>153</ele>
        <time>2025-10-05T13:23:56.000Z</time>
      </trkpt>
      <trkpt lat="49.59703" lon="3.4412">
        <ele>153.1</ele>
        <time>2025-10-05T13:23:57.000Z</time>
      </trkpt>
      <trkpt lat="49.59702" lon="3.4412">
        <ele>152.9</ele>
        <time>2025-10-05T13:23:58.000Z</time>
      </trkpt>
      <trkpt lat="49.597" lon="3.4412">
        <ele>152.8</ele>
        <time>2025-10-05T13:23:59.000Z</time>
      </trkpt>
      <trkpt lat="49.597" lon="3.4412">
        <ele>153.2</ele>
        <time>2025-10-05T13:24:00.000Z</time>
      </trkpt>
      <trkpt lat="49.59699" lon="3.4412">
        <ele>153.2</ele>
        <time>2025-10-05T13:24:01.000Z</time>
      </trkpt>
      <trkpt lat="49.59699" lon="3.4412">
        <ele>152.9</ele>
        <time>2025-10-05T13:24:02.000Z</time>
      </trkpt>
      <trkpt lat="49.59699" lon="3.4412">
        <ele>153.1</ele>
        <time>2025-10-05T13:24:03.000Z</time>
      </trkpt>
      <trkpt lat="49.59699" lon="3.4412">
        <ele>153.7</ele>
        <time>2025-10-05T13:24:04.000Z</time>
      </trkpt>
      <trkpt lat="49.59699" lon="3.44119">
        <ele>154.1</ele>
        <time>2025-10-05T13:24:05.000Z</time>
      </trkpt>
      <trkpt lat="49.59698" lon="3.44119">
        <ele>154.5</ele>
        <time>2025-10-05T13:24:06.000Z</time>
      </trkpt>
      <trkpt lat="49.59697" lon="3.44119">
        <ele>154.6</ele>
        <time>2025-10-05T13:24:07.000Z</time>
      </trkpt>
      <trkpt lat="49.59697" lon="3.44118">
        <ele>154.9</ele>
        <time>2025-10-05T13:24:08.000Z</time>
      </trkpt>
      <trkpt lat="49.59696" lon="3.44117">
        <ele>155.1</ele>
        <time>2025-10-05T13:24:09.000Z</time>
      </trkpt>
      <trkpt lat="49.59695" lon="3.44117">
        <ele>154.9</ele>
        <time>2025-10-05T13:24:10.000Z</time>
      </trkpt>
      <trkpt lat="49.59694" lon="3.44116">
        <ele>154.8</ele>
        <time>2025-10-05T13:24:11.000Z</time>
      </trkpt>
      <trkpt lat="49.59693" lon="3.44116">
        <ele>154.7</ele>
        <time>2025-10-05T13:24:12.000Z</time>
      </trkpt>
      <trkpt lat="49.59692" lon="3.44116">
        <ele>154.5</ele>
        <time>2025-10-05T13:24:13.000Z</time>
      </trkpt>
      <trkpt lat="49.59691" lon="3.44115">
        <ele>154.3</ele>
        <time>2025-10-05T13:24:14.000Z</time>
      </trkpt>
      <trkpt lat="49.59691" lon="3.44113">
        <ele>154.4</ele>
        <time>2025-10-05T13:24:15.000Z</time>
      </trkpt>
      <trkpt lat="49.5969" lon="3.44112">
        <ele>154.7</ele>
        <time>2025-10-05T13:24:16.000Z</time>
      </trkpt>
      <trkpt lat="49.5969" lon="3.4411">
        <ele>155.1</ele>
        <time>2025-10-05T13:24:17.000Z</time>
      </trkpt>
      <trkpt lat="49.5969" lon="3.44108">
        <ele>155.7</ele>
        <time>2025-10-05T13:24:18.000Z</time>
      </trkpt>
      <trkpt lat="49.59689" lon="3.44106">
        <ele>156.2</ele>
        <time>2025-10-05T13:24:19.000Z</time>
      </trkpt>
      <trkpt lat="49.59689" lon="3.44105">
        <ele>156.4</ele>
        <time>2025-10-05T13:24:20.000Z</time>
      </trkpt>
      <trkpt lat="49.59689" lon="3.44103">
        <ele>156.5</ele>
        <time>2025-10-05T13:24:21.000Z</time>
      </trkpt>
      <trkpt lat="49.59689" lon="3.44103">
        <ele>156.7</ele>
        <time>2025-10-05T13:24:22.000Z</time>
      </trkpt>
      <trkpt lat="49.59689" lon="3.44102">
        <ele>157.4</ele>
        <time>2025-10-05T13:24:23.000Z</time>
      </trkpt>
      <trkpt lat="49.59689" lon="3.441">
        <ele>158.1</ele>
        <time>2025-10-05T13:24:24.000Z</time>
      </trkpt>
      <trkpt lat="49.59688" lon="3.44098">
        <ele>158.6</ele>
        <time>2025-10-05T13:24:25.000Z</time>
      </trkpt>
      <trkpt lat="49.59688" lon="3.44096">
        <ele>159.1</ele>
        <time>2025-10-05T13:24:26.000Z</time>
      </trkpt>
      <trkpt lat="49.59688" lon="3.44093">
        <ele>159.1</ele>
        <time>2025-10-05T13:24:27.000Z</time>
      </trkpt>
      <trkpt lat="49.59688" lon="3.44092">
        <ele>159.1</ele>
        <time>2025-10-05T13:24:28.000Z</time>
      </trkpt>
      <trkpt lat="49.59687" lon="3.4409">
        <ele>159.1</ele>
        <time>2025-10-05T13:24:29.000Z</time>
      </trkpt>
      <trkpt lat="49.59688" lon="3.44089">
        <ele>158.7</ele>
        <time>2025-10-05T13:24:30.000Z</time>
      </trkpt>
      <trkpt lat="49.59688" lon="3.44087">
        <ele>158.4</ele>
        <time>2025-10-05T13:24:31.000Z</time>
      </trkpt>
      <trkpt lat="49.59688" lon="3.44087">
        <ele>158.2</ele>
        <time>2025-10-05T13:24:32.000Z</time>
      </trkpt>
      <trkpt lat="49.59688" lon="3.44085">
        <ele>158</ele>
        <time>2025-10-05T13:24:33.000Z</time>
      </trkpt>
      <trkpt lat="49.59688" lon="3.44084">
        <ele>158</ele>
        <time>2025-10-05T13:24:34.000Z</time>
      </trkpt>
      <trkpt lat="49.59688" lon="3.44082">
        <ele>158.3</ele>
        <time>2025-10-05T13:24:35.000Z</time>
      </trkpt>
      <trkpt lat="49.59688" lon="3.4408">
        <ele>159</ele>
        <time>2025-10-05T13:24:36.000Z</time>
      </trkpt>
      <trkpt lat="49.59688" lon="3.44078">
        <ele>159.5</ele>
        <time>2025-10-05T13:24:37.000Z</time>
      </trkpt>
      <trkpt lat="49.59688" lon="3.44075">
        <ele>158.9</ele>
        <time>2025-10-05T13:24:38.000Z</time>
      </trkpt>
      <trkpt lat="49.59688" lon="3.44073">
        <ele>158.9</ele>
        <time>2025-10-05T13:24:39.000Z</time>
      </trkpt>
      <trkpt lat="49.59688" lon="3.44071">
        <ele>158.8</ele>
        <time>2025-10-05T13:24:40.000Z</time>
      </trkpt>
      <trkpt lat="49.59688" lon="3.44069">
        <ele>158.7</ele>
        <time>2025-10-05T13:24:41.000Z</time>
      </trkpt>
      <trkpt lat="49.59688" lon="3.44069">
        <ele>158.6</ele>
        <time>2025-10-05T13:24:42.000Z</time>
      </trkpt>
      <trkpt lat="49.59687" lon="3.44068">
        <ele>158.5</ele>
        <time>2025-10-05T13:24:43.000Z</time>
      </trkpt>
      <trkpt lat="49.59687" lon="3.44066">
        <ele>158.4</ele>
        <time>2025-10-05T13:24:44.000Z</time>
      </trkpt>
      <trkpt lat="49.59687" lon="3.44065">
        <ele>158.3</ele>
        <time>2025-10-05T13:24:45.000Z</time>
      </trkpt>
      <trkpt lat="49.59686" lon="3.44063">
        <ele>158.1</ele>
        <time>2025-10-05T13:24:46.000Z</time>
      </trkpt>
      <trkpt lat="49.59686" lon="3.44061">
        <ele>157.8</ele>
        <time>2025-10-05T13:24:47.000Z</time>
      </trkpt>
      <trkpt lat="49.59685" lon="3.4406">
        <ele>157.7</ele>
        <time>2025-10-05T13:24:48.000Z</time>
      </trkpt>
      <trkpt lat="49.59685" lon="3.44059">
        <ele>157.8</ele>
        <time>2025-10-05T13:24:49.000Z</time>
      </trkpt>
      <trkpt lat="49.59685" lon="3.44058">
        <ele>157.8</ele>
        <time>2025-10-05T13:24:50.000Z</time>
      </trkpt>
      <trkpt lat="49.59685" lon="3.44057">
        <ele>157.7</ele>
        <time>2025-10-05T13:24:51.000Z</time>
      </trkpt>
      <trkpt lat="49.59684" lon="3.44056">
        <ele>157.5</ele>
        <time>2025-10-05T13:24:52.000Z</time>
      </trkpt>
      <trkpt lat="49.59685" lon="3.44055">
        <ele>157.4</ele>
        <time>2025-10-05T13:24:53.000Z</time>
      </trkpt>
      <trkpt lat="49.59684" lon="3.44053">
        <ele>157.4</ele>
        <time>2025-10-05T13:24:54.000Z</time>
      </trkpt>
      <trkpt lat="49.59684" lon="3.44052">
        <ele>157.3</ele>
        <time>2025-10-05T13:24:55.000Z</time>
      </trkpt>
      <trkpt lat="49.59684" lon="3.44051">
        <ele>157.5</ele>
        <time>2025-10-05T13:24:56.000Z</time>
      </trkpt>
      <trkpt lat="49.59683" lon="3.44049">
        <ele>157.5</ele>
        <time>2025-10-05T13:24:57.000Z</time>
      </trkpt>
      <trkpt lat="49.59683" lon="3.44048">
        <ele>157.7</ele>
        <time>2025-10-05T13:24:58.000Z</time>
      </trkpt>
      <trkpt lat="49.59682" lon="3.44047">
        <ele>157.7</ele>
        <time>2025-10-05T13:24:59.000Z</time>
      </trkpt>
      <trkpt lat="49.59682" lon="3.44046">
        <ele>157.4</ele>
        <time>2025-10-05T13:25:00.000Z</time>
      </trkpt>
      <trkpt lat="49.59682" lon="3.44045">
        <ele>157.3</ele>
        <time>2025-10-05T13:25:01.000Z</time>
      </trkpt>
      <trkpt lat="49.59681" lon="3.44044">
        <ele>156.8</ele>
        <time>2025-10-05T13:25:02.000Z</time>
      </trkpt>
      <trkpt lat="49.5968" lon="3.44043">
        <ele>156.3</ele>
        <time>2025-10-05T13:25:03.000Z</time>
      </trkpt>
      <trkpt lat="49.5968" lon="3.44043">
        <ele>156.3</ele>
        <time>2025-10-05T13:25:04.000Z</time>
      </trkpt>
      <trkpt lat="49.59679" lon="3.44042">
        <ele>156.1</ele>
        <time>2025-10-05T13:25:05.000Z</time>
      </trkpt>
      <trkpt lat="49.59679" lon="3.44041">
        <ele>156.1</ele>
        <time>2025-10-05T13:25:06.000Z</time>
      </trkpt>
      <trkpt lat="49.59679" lon="3.44041">
        <ele>155.9</ele>
        <time>2025-10-05T13:25:07.000Z</time>
      </trkpt>
      <trkpt lat="49.59678" lon="3.4404">
        <ele>155.8</ele>
        <time>2025-10-05T13:25:08.000Z</time>
      </trkpt>
      <trkpt lat="49.59678" lon="3.4404">
        <ele>156</ele>
        <time>2025-10-05T13:25:09.000Z</time>
      </trkpt>
      <trkpt lat="49.59677" lon="3.4404">
        <ele>156.4</ele>
        <time>2025-10-05T13:25:10.000Z</time>
      </trkpt>
      <trkpt lat="49.59677" lon="3.4404">
        <ele>156.3</ele>
        <time>2025-10-05T13:25:11.000Z</time>
      </trkpt>
      <trkpt lat="49.59677" lon="3.44039">
        <ele>156.3</ele>
        <time>2025-10-05T13:25:12.000Z</time>
      </trkpt>
      <trkpt lat="49.59678" lon="3.44039">
        <ele>156.3</ele>
        <time>2025-10-05T13:25:13.000Z</time>
      </trkpt>
      <trkpt lat="49.59678" lon="3.44039">
        <ele>156.4</ele>
        <time>2025-10-05T13:25:14.000Z</time>
      </trkpt>
      <trkpt lat="49.59678" lon="3.44039">
        <ele>156.4</ele>
        <time>2025-10-05T13:25:15.000Z</time>
      </trkpt>
      <trkpt lat="49.59678" lon="3.44039">
        <ele>156.4</ele>
        <time>2025-10-05T13:25:16.000Z</time>
      </trkpt>
      <trkpt lat="49.59678" lon="3.44039">
        <ele>156.4</ele>
        <time>2025-10-05T13:25:17.000Z</time>
      </trkpt>
      <trkpt lat="49.59678" lon="3.44039">
        <ele>156.4</ele>
        <time>2025-10-05T13:25:18.000Z</time>
      </trkpt>
      <trkpt lat="49.59678" lon="3.44039">
        <ele>156.4</ele>
        <time>2025-10-05T13:25:19.000Z</time>
      </trkpt>
      <trkpt lat="49.59678" lon="3.44039">
        <ele>156.4</ele>
        <time>2025-10-05T13:25:20.000Z</time>
      </trkpt>
      <trkpt lat="49.59678" lon="3.44039">
        <ele>156.4</ele>
        <time>2025-10-05T13:25:21.000Z</time>
      </trkpt>
      <trkpt lat="49.59678" lon="3.44039">
        <ele>156.4</ele>
        <time>2025-10-05T13:25:22.000Z</time>
      </trkpt>
      <trkpt lat="49.59678" lon="3.44039">
        <ele>156.4</ele>
        <time>2025-10-05T13:25:23.000Z</time>
      </trkpt>
      <trkpt lat="49.59678" lon="3.44039">
        <ele>156.4</ele>
        <time>2025-10-05T13:25:24.000Z</time>
      </trkpt>
      <trkpt lat="49.59678" lon="3.44039">
        <ele>156.4</ele>
        <time>2025-10-05T13:25:25.000Z</time>
      </trkpt>
      <trkpt lat="49.59678" lon="3.44039">
        <ele>156.4</ele>
        <time>2025-10-05T13:25:26.000Z</time>
      </trkpt>
      <trkpt lat="49.59678" lon="3.44039">
        <ele>156.4</ele>
        <time>2025-10-05T13:25:27.000Z</time>
      </trkpt>
      <trkpt lat="49.59678" lon="3.44039">
        <ele>156.4</ele>
        <time>2025-10-05T13:25:28.000Z</time>
      </trkpt>
      <trkpt lat="49.59678" lon="3.44039">
        <ele>156.4</ele>
        <time>2025-10-05T13:25:29.000Z</time>
      </trkpt>
      <trkpt lat="49.59678" lon="3.44039">
        <ele>156.4</ele>
        <time>2025-10-05T13:25:30.000Z</time>
      </trkpt>
      <trkpt lat="49.59678" lon="3.44039">
        <ele>156.4</ele>
        <time>2025-10-05T13:25:31.000Z</time>
      </trkpt>
      <trkpt lat="49.59678" lon="3.44039">
        <ele>156.4</ele>
        <time>2025-10-05T13:25:32.000Z</time>
      </trkpt>
      <trkpt lat="49.59678" lon="3.44039">
        <ele>156.4</ele>
        <time>2025-10-05T13:25:33.000Z</time>
      </trkpt>
      <trkpt lat="49.59678" lon="3.44039">
        <ele>156.4</ele>
        <time>2025-10-05T13:25:34.000Z</time>
      </trkpt>
      <trkpt lat="49.59678" lon="3.44039">
        <ele>156.4</ele>
        <time>2025-10-05T13:25:35.000Z</time>
      </trkpt>
      <trkpt lat="49.59678" lon="3.44039">
        <ele>156.4</ele>
        <time>2025-10-05T13:25:36.000Z</time>
      </trkpt>
      <trkpt lat="49.59678" lon="3.44039">
        <ele>156.4</ele>
        <time>2025-10-05T13:25:37.000Z</time>
      </trkpt>
      <trkpt lat="49.59678" lon="3.44039">
        <ele>156.4</ele>
        <time>2025-10-05T13:25:38.000Z</time>
      </trkpt>
      <trkpt lat="49.59678" lon="3.44039">
        <ele>156.4</ele>
        <time>2025-10-05T13:25:39.000Z</time>
      </trkpt>
      <trkpt lat="49.59678" lon="3.44039">
        <ele>156.4</ele>
        <time>2025-10-05T13:25:40.000Z</time>
      </trkpt>
      <trkpt lat="49.59678" lon="3.44039">
        <ele>156.4</ele>
        <time>2025-10-05T13:25:41.000Z</time>
      </trkpt>
      <trkpt lat="49.59678" lon="3.44039">
        <ele>156.4</ele>
        <time>2025-10-05T13:25:42.000Z</time>
      </trkpt>
      <trkpt lat="49.59678" lon="3.44039">
        <ele>156.4</ele>
        <time>2025-10-05T13:25:43.000Z</time>
      </trkpt>
      <trkpt lat="49.59678" lon="3.44039">
        <ele>156.4</ele>
        <time>2025-10-05T13:25:44.000Z</time>
      </trkpt>
      <trkpt lat="49.59678" lon="3.44039">
        <ele>156.4</ele>
        <time>2025-10-05T13:25:45.000Z</time>
      </trkpt>
      <trkpt lat="49.59678" lon="3.44039">
        <ele>156.4</ele>
        <time>2025-10-05T13:25:46.000Z</time>
      </trkpt>
      <trkpt lat="49.59678" lon="3.44039">
        <ele>156.4</ele>
        <time>2025-10-05T13:25:47.000Z</time>
      </trkpt>
      <trkpt lat="49.59678" lon="3.44039">
        <ele>156.4</ele>
        <time>2025-10-05T13:25:48.000Z</time>
      </trkpt>
      <trkpt lat="49.59678" lon="3.44039">
        <ele>156.4</ele>
        <time>2025-10-05T13:25:49.000Z</time>
      </trkpt>
      <trkpt lat="49.59678" lon="3.44039">
        <ele>156.4</ele>
        <time>2025-10-05T13:25:50.000Z</time>
      </trkpt>
      <trkpt lat="49.59678" lon="3.44039">
        <ele>156.4</ele>
        <time>2025-10-05T13:25:51.000Z</time>
      </trkpt>
      <trkpt lat="49.59678" lon="3.44039">
        <ele>156.4</ele>
        <time>2025-10-05T13:25:52.000Z</time>
      </trkpt>
      <trkpt lat="49.59678" lon="3.44039">
        <ele>156.4</ele>
        <time>2025-10-05T13:25:53.000Z</time>
      </trkpt>
      <trkpt lat="49.59678" lon="3.44039">
        <ele>156.4</ele>
        <time>2025-10-05T13:25:54.000Z</time>
      </trkpt>
      <trkpt lat="49.59678" lon="3.44039">
        <ele>156.4</ele>
        <time>2025-10-05T13:25:55.000Z</time>
      </trkpt>
      <trkpt lat="49.59678" lon="3.44039">
        <ele>156.4</ele>
        <time>2025-10-05T13:25:56.000Z</time>
      </trkpt>
      <trkpt lat="49.59678" lon="3.44039">
        <ele>156.4</ele>
        <time>2025-10-05T13:25:57.000Z</time>
      </trkpt>
      <trkpt lat="49.59678" lon="3.44039">
        <ele>156.4</ele>
        <time>2025-10-05T13:25:58.000Z</time>
      </trkpt>
      <trkpt lat="49.59678" lon="3.44039">
        <ele>156.4</ele>
        <time>2025-10-05T13:25:59.000Z</time>
      </trkpt>
      <trkpt lat="49.59678" lon="3.44039">
        <ele>156.4</ele>
        <time>2025-10-05T13:26:00.000Z</time>
      </trkpt>
      <trkpt lat="49.59678" lon="3.44039">
        <ele>156.4</ele>
        <time>2025-10-05T13:26:01.000Z</time>
      </trkpt>
      <trkpt lat="49.59678" lon="3.44039">
        <ele>156.4</ele>
        <time>2025-10-05T13:26:02.000Z</time>
      </trkpt>
      <trkpt lat="49.59678" lon="3.44044">
        <ele>160</ele>
        <time>2025-10-05T13:26:03.000Z</time>
      </trkpt>
      <trkpt lat="49.59677" lon="3.44043">
        <ele>159.9</ele>
        <time>2025-10-05T13:26:04.000Z</time>
      </trkpt>
      <trkpt lat="49.59677" lon="3.44042">
        <ele>160</ele>
        <time>2025-10-05T13:26:05.000Z</time>
      </trkpt>
      <trkpt lat="49.59676" lon="3.44041">
        <ele>160.3</ele>
        <time>2025-10-05T13:26:06.000Z</time>
      </trkpt>
      <trkpt lat="49.59675" lon="3.44039">
        <ele>160.5</ele>
        <time>2025-10-05T13:26:07.000Z</time>
      </trkpt>
      <trkpt lat="49.59675" lon="3.44038">
        <ele>160.7</ele>
        <time>2025-10-05T13:26:08.000Z</time>
      </trkpt>
      <trkpt lat="49.59674" lon="3.44037">
        <ele>160.9</ele>
        <time>2025-10-05T13:26:09.000Z</time>
      </trkpt>
      <trkpt lat="49.59673" lon="3.44036">
        <ele>161</ele>
        <time>2025-10-05T13:26:10.000Z</time>
      </trkpt>
      <trkpt lat="49.59672" lon="3.44035">
        <ele>161.1</ele>
        <time>2025-10-05T13:26:11.000Z</time>
      </trkpt>
      <trkpt lat="49.59672" lon="3.44034">
        <ele>161.1</ele>
        <time>2025-10-05T13:26:12.000Z</time>
      </trkpt>
      <trkpt lat="49.59671" lon="3.44032">
        <ele>161.1</ele>
        <time>2025-10-05T13:26:13.000Z</time>
      </trkpt>
      <trkpt lat="49.59671" lon="3.44031">
        <ele>160.9</ele>
        <time>2025-10-05T13:26:14.000Z</time>
      </trkpt>
      <trkpt lat="49.5967" lon="3.4403">
        <ele>160.8</ele>
        <time>2025-10-05T13:26:15.000Z</time>
      </trkpt>
      <trkpt lat="49.59669" lon="3.44029">
        <ele>160.7</ele>
        <time>2025-10-05T13:26:16.000Z</time>
      </trkpt>
      <trkpt lat="49.59667" lon="3.44029">
        <ele>160.8</ele>
        <time>2025-10-05T13:26:17.000Z</time>
      </trkpt>
      <trkpt lat="49.59667" lon="3.44029">
        <ele>160.8</ele>
        <time>2025-10-05T13:26:18.000Z</time>
      </trkpt>
      <trkpt lat="49.59666" lon="3.44028">
        <ele>160.9</ele>
        <time>2025-10-05T13:26:19.000Z</time>
      </trkpt>
      <trkpt lat="49.59666" lon="3.44027">
        <ele>161.1</ele>
        <time>2025-10-05T13:26:20.000Z</time>
      </trkpt>
      <trkpt lat="49.59666" lon="3.44027">
        <ele>161.1</ele>
        <time>2025-10-05T13:26:21.000Z</time>
      </trkpt>
      <trkpt lat="49.59665" lon="3.44026">
        <ele>161.2</ele>
        <time>2025-10-05T13:26:22.000Z</time>
      </trkpt>
      <trkpt lat="49.59665" lon="3.44025">
        <ele>161.7</ele>
        <time>2025-10-05T13:26:23.000Z</time>
      </trkpt>
      <trkpt lat="49.59665" lon="3.44024">
        <ele>162.1</ele>
        <time>2025-10-05T13:26:24.000Z</time>
      </trkpt>
      <trkpt lat="49.59664" lon="3.44023">
        <ele>162.5</ele>
        <time>2025-10-05T13:26:25.000Z</time>
      </trkpt>
      <trkpt lat="49.59664" lon="3.44022">
        <ele>162.7</ele>
        <time>2025-10-05T13:26:26.000Z</time>
      </trkpt>
      <trkpt lat="49.59664" lon="3.44021">
        <ele>163.1</ele>
        <time>2025-10-05T13:26:27.000Z</time>
      </trkpt>
      <trkpt lat="49.59664" lon="3.4402">
        <ele>163.3</ele>
        <time>2025-10-05T13:26:28.000Z</time>
      </trkpt>
      <trkpt lat="49.59664" lon="3.4402">
        <ele>163.7</ele>
        <time>2025-10-05T13:26:29.000Z</time>
      </trkpt>
      <trkpt lat="49.59663" lon="3.44019">
        <ele>164</ele>
        <time>2025-10-05T13:26:30.000Z</time>
      </trkpt>
      <trkpt lat="49.59663" lon="3.44019">
        <ele>164.1</ele>
        <time>2025-10-05T13:26:31.000Z</time>
      </trkpt>
      <trkpt lat="49.59662" lon="3.44018">
        <ele>164.2</ele>
        <time>2025-10-05T13:26:32.000Z</time>
      </trkpt>
      <trkpt lat="49.59662" lon="3.44017">
        <ele>164.5</ele>
        <time>2025-10-05T13:26:33.000Z</time>
      </trkpt>
      <trkpt lat="49.59661" lon="3.44016">
        <ele>164.9</ele>
        <time>2025-10-05T13:26:34.000Z</time>
      </trkpt>
      <trkpt lat="49.59661" lon="3.44014">
        <ele>165.2</ele>
        <time>2025-10-05T13:26:35.000Z</time>
      </trkpt>
      <trkpt lat="49.5966" lon="3.44013">
        <ele>165.4</ele>
        <time>2025-10-05T13:26:36.000Z</time>
      </trkpt>
      <trkpt lat="49.59659" lon="3.44012">
        <ele>165.7</ele>
        <time>2025-10-05T13:26:37.000Z</time>
      </trkpt>
      <trkpt lat="49.59658" lon="3.44011">
        <ele>165.9</ele>
        <time>2025-10-05T13:26:38.000Z</time>
      </trkpt>
      <trkpt lat="49.59657" lon="3.4401">
        <ele>165.9</ele>
        <time>2025-10-05T13:26:39.000Z</time>
      </trkpt>
      <trkpt lat="49.59656" lon="3.44009">
        <ele>165.8</ele>
        <time>2025-10-05T13:26:40.000Z</time>
      </trkpt>
      <trkpt lat="49.59654" lon="3.44007">
        <ele>165.6</ele>
        <time>2025-10-05T13:26:41.000Z</time>
      </trkpt>
      <trkpt lat="49.59653" lon="3.44006">
        <ele>165.2</ele>
        <time>2025-10-05T13:26:42.000Z</time>
      </trkpt>
      <trkpt lat="49.59652" lon="3.44005">
        <ele>165</ele>
        <time>2025-10-05T13:26:43.000Z</time>
      </trkpt>
      <trkpt lat="49.59651" lon="3.44005">
        <ele>164.6</ele>
        <time>2025-10-05T13:26:44.000Z</time>
      </trkpt>
      <trkpt lat="49.5965" lon="3.44004">
        <ele>163.8</ele>
        <time>2025-10-05T13:26:45.000Z</time>
      </trkpt>
      <trkpt lat="49.59649" lon="3.44004">
        <ele>163.2</ele>
        <time>2025-10-05T13:26:46.000Z</time>
      </trkpt>
      <trkpt lat="49.59648" lon="3.44004">
        <ele>162.6</ele>
        <time>2025-10-05T13:26:47.000Z</time>
      </trkpt>
      <trkpt lat="49.59647" lon="3.44004">
        <ele>161.9</ele>
        <time>2025-10-05T13:26:48.000Z</time>
      </trkpt>
      <trkpt lat="49.59646" lon="3.44003">
        <ele>161.4</ele>
        <time>2025-10-05T13:26:49.000Z</time>
      </trkpt>
      <trkpt lat="49.59645" lon="3.44002">
        <ele>161.1</ele>
        <time>2025-10-05T13:26:50.000Z</time>
      </trkpt>
      <trkpt lat="49.59644" lon="3.44001">
        <ele>160.9</ele>
        <time>2025-10-05T13:26:51.000Z</time>
      </trkpt>
      <trkpt lat="49.59643" lon="3.44">
        <ele>160.6</ele>
        <time>2025-10-05T13:26:52.000Z</time>
      </trkpt>
      <trkpt lat="49.59642" lon="3.43999">
        <ele>160.3</ele>
        <time>2025-10-05T13:26:53.000Z</time>
      </trkpt>
      <trkpt lat="49.59642" lon="3.43999">
        <ele>160</ele>
        <time>2025-10-05T13:26:54.000Z</time>
      </trkpt>
      <trkpt lat="49.59642" lon="3.43998">
        <ele>160</ele>
        <time>2025-10-05T13:26:55.000Z</time>
      </trkpt>
      <trkpt lat="49.59641" lon="3.43997">
        <ele>159.7</ele>
        <time>2025-10-05T13:26:56.000Z</time>
      </trkpt>
      <trkpt lat="49.5964" lon="3.43997">
        <ele>159.6</ele>
        <time>2025-10-05T13:26:57.000Z</time>
      </trkpt>
      <trkpt lat="49.59639" lon="3.43996">
        <ele>159.3</ele>
        <time>2025-10-05T13:26:58.000Z</time>
      </trkpt>
      <trkpt lat="49.59638" lon="3.43996">
        <ele>159.1</ele>
        <time>2025-10-05T13:26:59.000Z</time>
      </trkpt>
      <trkpt lat="49.59637" lon="3.43995">
        <ele>159.2</ele>
        <time>2025-10-05T13:27:00.000Z</time>
      </trkpt>
      <trkpt lat="49.59637" lon="3.43995">
        <ele>159.3</ele>
        <time>2025-10-05T13:27:01.000Z</time>
      </trkpt>
      <trkpt lat="49.59636" lon="3.43994">
        <ele>159.5</ele>
        <time>2025-10-05T13:27:02.000Z</time>
      </trkpt>
      <trkpt lat="49.59636" lon="3.43992">
        <ele>159.9</ele>
        <time>2025-10-05T13:27:03.000Z</time>
      </trkpt>
      <trkpt lat="49.59635" lon="3.43991">
        <ele>160.3</ele>
        <time>2025-10-05T13:27:04.000Z</time>
      </trkpt>
      <trkpt lat="49.59635" lon="3.4399">
        <ele>160.6</ele>
        <time>2025-10-05T13:27:05.000Z</time>
      </trkpt>
      <trkpt lat="49.59634" lon="3.43989">
        <ele>160.7</ele>
        <time>2025-10-05T13:27:06.000Z</time>
      </trkpt>
      <trkpt lat="49.59634" lon="3.43987">
        <ele>161</ele>
        <time>2025-10-05T13:27:07.000Z</time>
      </trkpt>
      <trkpt lat="49.59634" lon="3.43986">
        <ele>161.3</ele>
        <time>2025-10-05T13:27:08.000Z</time>
      </trkpt>
      <trkpt lat="49.59634" lon="3.43985">
        <ele>161.6</ele>
        <time>2025-10-05T13:27:09.000Z</time>
      </trkpt>
      <trkpt lat="49.59633" lon="3.43984">
        <ele>161.9</ele>
        <time>2025-10-05T13:27:10.000Z</time>
      </trkpt>
      <trkpt lat="49.59633" lon="3.43983">
        <ele>162.2</ele>
        <time>2025-10-05T13:27:11.000Z</time>
      </trkpt>
      <trkpt lat="49.59632" lon="3.43982">
        <ele>162.6</ele>
        <time>2025-10-05T13:27:12.000Z</time>
      </trkpt>
      <trkpt lat="49.59632" lon="3.43982">
        <ele>162.8</ele>
        <time>2025-10-05T13:27:13.000Z</time>
      </trkpt>
      <trkpt lat="49.59631" lon="3.43981">
        <ele>163.3</ele>
        <time>2025-10-05T13:27:14.000Z</time>
      </trkpt>
      <trkpt lat="49.59631" lon="3.4398">
        <ele>163.7</ele>
        <time>2025-10-05T13:27:15.000Z</time>
      </trkpt>
      <trkpt lat="49.5963" lon="3.43979">
        <ele>163.8</ele>
        <time>2025-10-05T13:27:16.000Z</time>
      </trkpt>
      <trkpt lat="49.5963" lon="3.43977">
        <ele>163.8</ele>
        <time>2025-10-05T13:27:17.000Z</time>
      </trkpt>
      <trkpt lat="49.5963" lon="3.43975">
        <ele>163.7</ele>
        <time>2025-10-05T13:27:18.000Z</time>
      </trkpt>
      <trkpt lat="49.59629" lon="3.43974">
        <ele>163.9</ele>
        <time>2025-10-05T13:27:19.000Z</time>
      </trkpt>
      <trkpt lat="49.59629" lon="3.43972">
        <ele>163.8</ele>
        <time>2025-10-05T13:27:20.000Z</time>
      </trkpt>
      <trkpt lat="49.59628" lon="3.4397">
        <ele>163.8</ele>
        <time>2025-10-05T13:27:21.000Z</time>
      </trkpt>
      <trkpt lat="49.59628" lon="3.43969">
        <ele>163.7</ele>
        <time>2025-10-05T13:27:22.000Z</time>
      </trkpt>
      <trkpt lat="49.59627" lon="3.43967">
        <ele>163.7</ele>
        <time>2025-10-05T13:27:23.000Z</time>
      </trkpt>
      <trkpt lat="49.59627" lon="3.43966">
        <ele>163.9</ele>
        <time>2025-10-05T13:27:24.000Z</time>
      </trkpt>
      <trkpt lat="49.59627" lon="3.43965">
        <ele>163.9</ele>
        <time>2025-10-05T13:27:25.000Z</time>
      </trkpt>
      <trkpt lat="49.59626" lon="3.43964">
        <ele>163.9</ele>
        <time>2025-10-05T13:27:26.000Z</time>
      </trkpt>
      <trkpt lat="49.59626" lon="3.43963">
        <ele>164</ele>
        <time>2025-10-05T13:27:27.000Z</time>
      </trkpt>
      <trkpt lat="49.59626" lon="3.43963">
        <ele>164</ele>
        <time>2025-10-05T13:27:28.000Z</time>
      </trkpt>
      <trkpt lat="49.59625" lon="3.43962">
        <ele>163.9</ele>
        <time>2025-10-05T13:27:29.000Z</time>
      </trkpt>
      <trkpt lat="49.59625" lon="3.43961">
        <ele>163.9</ele>
        <time>2025-10-05T13:27:30.000Z</time>
      </trkpt>
      <trkpt lat="49.59625" lon="3.4396">
        <ele>164</ele>
        <time>2025-10-05T13:27:31.000Z</time>
      </trkpt>
      <trkpt lat="49.59624" lon="3.43959">
        <ele>163.9</ele>
        <time>2025-10-05T13:27:32.000Z</time>
      </trkpt>
      <trkpt lat="49.59624" lon="3.43958">
        <ele>164</ele>
        <time>2025-10-05T13:27:33.000Z</time>
      </trkpt>
      <trkpt lat="49.59624" lon="3.43956">
        <ele>164.2</ele>
        <time>2025-10-05T13:27:34.000Z</time>
      </trkpt>
      <trkpt lat="49.59623" lon="3.43954">
        <ele>164.5</ele>
        <time>2025-10-05T13:27:35.000Z</time>
      </trkpt>
      <trkpt lat="49.59623" lon="3.43952">
        <ele>164.8</ele>
        <time>2025-10-05T13:27:36.000Z</time>
      </trkpt>
      <trkpt lat="49.59622" lon="3.4395">
        <ele>164.8</ele>
        <time>2025-10-05T13:27:37.000Z</time>
      </trkpt>
      <trkpt lat="49.59621" lon="3.43948">
        <ele>164.4</ele>
        <time>2025-10-05T13:27:38.000Z</time>
      </trkpt>
      <trkpt lat="49.59621" lon="3.43946">
        <ele>164.1</ele>
        <time>2025-10-05T13:27:39.000Z</time>
      </trkpt>
      <trkpt lat="49.5962" lon="3.43945">
        <ele>163.8</ele>
        <time>2025-10-05T13:27:40.000Z</time>
      </trkpt>
      <trkpt lat="49.5962" lon="3.43944">
        <ele>163.7</ele>
        <time>2025-10-05T13:27:41.000Z</time>
      </trkpt>
      <trkpt lat="49.59619" lon="3.43942">
        <ele>163.7</ele>
        <time>2025-10-05T13:27:42.000Z</time>
      </trkpt>
      <trkpt lat="49.59619" lon="3.43942">
        <ele>163.6</ele>
        <time>2025-10-05T13:27:43.000Z</time>
      </trkpt>
      <trkpt lat="49.59619" lon="3.4394">
        <ele>163.5</ele>
        <time>2025-10-05T13:27:44.000Z</time>
      </trkpt>
      <trkpt lat="49.59618" lon="3.43939">
        <ele>163.3</ele>
        <time>2025-10-05T13:27:45.000Z</time>
      </trkpt>
      <trkpt lat="49.59618" lon="3.43939">
        <ele>163.3</ele>
        <time>2025-10-05T13:27:46.000Z</time>
      </trkpt>
      <trkpt lat="49.59618" lon="3.43938">
        <ele>162.9</ele>
        <time>2025-10-05T13:27:47.000Z</time>
      </trkpt>
      <trkpt lat="49.59618" lon="3.43937">
        <ele>162.5</ele>
        <time>2025-10-05T13:27:48.000Z</time>
      </trkpt>
      <trkpt lat="49.59617" lon="3.43936">
        <ele>162</ele>
        <time>2025-10-05T13:27:49.000Z</time>
      </trkpt>
      <trkpt lat="49.59616" lon="3.43935">
        <ele>161.6</ele>
        <time>2025-10-05T13:27:50.000Z</time>
      </trkpt>
      <trkpt lat="49.59616" lon="3.43934">
        <ele>161.7</ele>
        <time>2025-10-05T13:27:51.000Z</time>
      </trkpt>
      <trkpt lat="49.59616" lon="3.43933">
        <ele>161.6</ele>
        <time>2025-10-05T13:27:52.000Z</time>
      </trkpt>
      <trkpt lat="49.59616" lon="3.43932">
        <ele>161.6</ele>
        <time>2025-10-05T13:27:53.000Z</time>
      </trkpt>
      <trkpt lat="49.59615" lon="3.43931">
        <ele>161.4</ele>
        <time>2025-10-05T13:27:54.000Z</time>
      </trkpt>
      <trkpt lat="49.59615" lon="3.4393">
        <ele>161.2</ele>
        <time>2025-10-05T13:27:55.000Z</time>
      </trkpt>
      <trkpt lat="49.59614" lon="3.43929">
        <ele>161.1</ele>
        <time>2025-10-05T13:27:56.000Z</time>
      </trkpt>
      <trkpt lat="49.59614" lon="3.43929">
        <ele>161</ele>
        <time>2025-10-05T13:27:57.000Z</time>
      </trkpt>
      <trkpt lat="49.59614" lon="3.43928">
        <ele>160.7</ele>
        <time>2025-10-05T13:27:58.000Z</time>
      </trkpt>
      <trkpt lat="49.59613" lon="3.43928">
        <ele>160.6</ele>
        <time>2025-10-05T13:27:59.000Z</time>
      </trkpt>
      <trkpt lat="49.59613" lon="3.43927">
        <ele>160.9</ele>
        <time>2025-10-05T13:28:00.000Z</time>
      </trkpt>
      <trkpt lat="49.59613" lon="3.43926">
        <ele>161.4</ele>
        <time>2025-10-05T13:28:01.000Z</time>
      </trkpt>
      <trkpt lat="49.59613" lon="3.43925">
        <ele>161.8</ele>
        <time>2025-10-05T13:28:02.000Z</time>
      </trkpt>
      <trkpt lat="49.59613" lon="3.43924">
        <ele>162.2</ele>
        <time>2025-10-05T13:28:03.000Z</time>
      </trkpt>
      <trkpt lat="49.59612" lon="3.43922">
        <ele>162.5</ele>
        <time>2025-10-05T13:28:04.000Z</time>
      </trkpt>
      <trkpt lat="49.59611" lon="3.4392">
        <ele>162.5</ele>
        <time>2025-10-05T13:28:05.000Z</time>
      </trkpt>
      <trkpt lat="49.59611" lon="3.43918">
        <ele>162.6</ele>
        <time>2025-10-05T13:28:06.000Z</time>
      </trkpt>
      <trkpt lat="49.59612" lon="3.43916">
        <ele>162.5</ele>
        <time>2025-10-05T13:28:07.000Z</time>
      </trkpt>
      <trkpt lat="49.59612" lon="3.43914">
        <ele>162.3</ele>
        <time>2025-10-05T13:28:08.000Z</time>
      </trkpt>
      <trkpt lat="49.59612" lon="3.43912">
        <ele>162</ele>
        <time>2025-10-05T13:28:09.000Z</time>
      </trkpt>
      <trkpt lat="49.59611" lon="3.43911">
        <ele>161.7</ele>
        <time>2025-10-05T13:28:10.000Z</time>
      </trkpt>
      <trkpt lat="49.59611" lon="3.43909">
        <ele>161.5</ele>
        <time>2025-10-05T13:28:11.000Z</time>
      </trkpt>
      <trkpt lat="49.59611" lon="3.43908">
        <ele>161.4</ele>
        <time>2025-10-05T13:28:12.000Z</time>
      </trkpt>
      <trkpt lat="49.5961" lon="3.43906">
        <ele>161.2</ele>
        <time>2025-10-05T13:28:13.000Z</time>
      </trkpt>
      <trkpt lat="49.5961" lon="3.43905">
        <ele>161.2</ele>
        <time>2025-10-05T13:28:14.000Z</time>
      </trkpt>
      <trkpt lat="49.59609" lon="3.43903">
        <ele>161.2</ele>
        <time>2025-10-05T13:28:15.000Z</time>
      </trkpt>
      <trkpt lat="49.59609" lon="3.43901">
        <ele>161.2</ele>
        <time>2025-10-05T13:28:16.000Z</time>
      </trkpt>
      <trkpt lat="49.59609" lon="3.439">
        <ele>161.6</ele>
        <time>2025-10-05T13:28:17.000Z</time>
      </trkpt>
      <trkpt lat="49.59609" lon="3.43899">
        <ele>161.9</ele>
        <time>2025-10-05T13:28:18.000Z</time>
      </trkpt>
      <trkpt lat="49.59609" lon="3.43898">
        <ele>162.1</ele>
        <time>2025-10-05T13:28:19.000Z</time>
      </trkpt>
      <trkpt lat="49.5961" lon="3.43898">
        <ele>161.9</ele>
        <time>2025-10-05T13:28:20.000Z</time>
      </trkpt>
      <trkpt lat="49.5961" lon="3.43897">
        <ele>161.4</ele>
        <time>2025-10-05T13:28:21.000Z</time>
      </trkpt>
      <trkpt lat="49.5961" lon="3.43895">
        <ele>161</ele>
        <time>2025-10-05T13:28:22.000Z</time>
      </trkpt>
      <trkpt lat="49.5961" lon="3.43893">
        <ele>160.8</ele>
        <time>2025-10-05T13:28:23.000Z</time>
      </trkpt>
      <trkpt lat="49.5961" lon="3.43891">
        <ele>160.6</ele>
        <time>2025-10-05T13:28:24.000Z</time>
      </trkpt>
      <trkpt lat="49.59611" lon="3.43889">
        <ele>160.4</ele>
        <time>2025-10-05T13:28:25.000Z</time>
      </trkpt>
      <trkpt lat="49.59611" lon="3.43887">
        <ele>160</ele>
        <time>2025-10-05T13:28:26.000Z</time>
      </trkpt>
      <trkpt lat="49.59611" lon="3.43886">
        <ele>159.7</ele>
        <time>2025-10-05T13:28:27.000Z</time>
      </trkpt>
      <trkpt lat="49.59612" lon="3.43886">
        <ele>159.4</ele>
        <time>2025-10-05T13:28:28.000Z</time>
      </trkpt>
      <trkpt lat="49.59612" lon="3.43885">
        <ele>159.3</ele>
        <time>2025-10-05T13:28:29.000Z</time>
      </trkpt>
      <trkpt lat="49.59611" lon="3.43884">
        <ele>159.5</ele>
        <time>2025-10-05T13:28:30.000Z</time>
      </trkpt>
      <trkpt lat="49.59611" lon="3.43883">
        <ele>159</ele>
        <time>2025-10-05T13:28:31.000Z</time>
      </trkpt>
      <trkpt lat="49.59611" lon="3.43882">
        <ele>158.4</ele>
        <time>2025-10-05T13:28:32.000Z</time>
      </trkpt>
      <trkpt lat="49.59611" lon="3.4388">
        <ele>157.5</ele>
        <time>2025-10-05T13:28:33.000Z</time>
      </trkpt>
      <trkpt lat="49.59611" lon="3.43879">
        <ele>157.6</ele>
        <time>2025-10-05T13:28:34.000Z</time>
      </trkpt>
      <trkpt lat="49.59611" lon="3.43878">
        <ele>157.9</ele>
        <time>2025-10-05T13:28:35.000Z</time>
      </trkpt>
      <trkpt lat="49.59611" lon="3.43876">
        <ele>158</ele>
        <time>2025-10-05T13:28:36.000Z</time>
      </trkpt>
      <trkpt lat="49.5961" lon="3.43874">
        <ele>158.2</ele>
        <time>2025-10-05T13:28:37.000Z</time>
      </trkpt>
      <trkpt lat="49.5961" lon="3.43872">
        <ele>158.4</ele>
        <time>2025-10-05T13:28:38.000Z</time>
      </trkpt>
      <trkpt lat="49.5961" lon="3.43871">
        <ele>158.6</ele>
        <time>2025-10-05T13:28:39.000Z</time>
      </trkpt>
      <trkpt lat="49.5961" lon="3.43869">
        <ele>158.6</ele>
        <time>2025-10-05T13:28:40.000Z</time>
      </trkpt>
      <trkpt lat="49.5961" lon="3.43867">
        <ele>158.9</ele>
        <time>2025-10-05T13:28:41.000Z</time>
      </trkpt>
      <trkpt lat="49.5961" lon="3.43865">
        <ele>159</ele>
        <time>2025-10-05T13:28:42.000Z</time>
      </trkpt>
      <trkpt lat="49.5961" lon="3.43864">
        <ele>159.1</ele>
        <time>2025-10-05T13:28:43.000Z</time>
      </trkpt>
      <trkpt lat="49.5961" lon="3.43862">
        <ele>159</ele>
        <time>2025-10-05T13:28:44.000Z</time>
      </trkpt>
      <trkpt lat="49.59609" lon="3.43861">
        <ele>158.4</ele>
        <time>2025-10-05T13:28:45.000Z</time>
      </trkpt>
      <trkpt lat="49.59609" lon="3.43859">
        <ele>158</ele>
        <time>2025-10-05T13:28:46.000Z</time>
      </trkpt>
      <trkpt lat="49.59609" lon="3.43858">
        <ele>157.8</ele>
        <time>2025-10-05T13:28:47.000Z</time>
      </trkpt>
      <trkpt lat="49.59609" lon="3.43857">
        <ele>157.4</ele>
        <time>2025-10-05T13:28:48.000Z</time>
      </trkpt>
      <trkpt lat="49.59609" lon="3.43855">
        <ele>157.2</ele>
        <time>2025-10-05T13:28:49.000Z</time>
      </trkpt>
      <trkpt lat="49.59609" lon="3.43854">
        <ele>156.8</ele>
        <time>2025-10-05T13:28:50.000Z</time>
      </trkpt>
      <trkpt lat="49.59608" lon="3.43853">
        <ele>156.6</ele>
        <time>2025-10-05T13:28:51.000Z</time>
      </trkpt>
      <trkpt lat="49.59608" lon="3.43851">
        <ele>156.6</ele>
        <time>2025-10-05T13:28:52.000Z</time>
      </trkpt>
      <trkpt lat="49.59608" lon="3.43849">
        <ele>156.1</ele>
        <time>2025-10-05T13:28:53.000Z</time>
      </trkpt>
      <trkpt lat="49.59608" lon="3.43848">
        <ele>155.8</ele>
        <time>2025-10-05T13:28:54.000Z</time>
      </trkpt>
      <trkpt lat="49.59608" lon="3.43847">
        <ele>155.4</ele>
        <time>2025-10-05T13:28:55.000Z</time>
      </trkpt>
      <trkpt lat="49.59608" lon="3.43846">
        <ele>155.4</ele>
        <time>2025-10-05T13:28:56.000Z</time>
      </trkpt>
      <trkpt lat="49.59608" lon="3.43845">
        <ele>155.2</ele>
        <time>2025-10-05T13:28:57.000Z</time>
      </trkpt>
      <trkpt lat="49.59608" lon="3.43844">
        <ele>155.3</ele>
        <time>2025-10-05T13:28:58.000Z</time>
      </trkpt>
      <trkpt lat="49.59607" lon="3.43844">
        <ele>155.3</ele>
        <time>2025-10-05T13:28:59.000Z</time>
      </trkpt>
      <trkpt lat="49.59607" lon="3.43842">
        <ele>155.3</ele>
        <time>2025-10-05T13:29:00.000Z</time>
      </trkpt>
      <trkpt lat="49.59607" lon="3.43841">
        <ele>155.4</ele>
        <time>2025-10-05T13:29:01.000Z</time>
      </trkpt>
      <trkpt lat="49.59607" lon="3.43839">
        <ele>155.2</ele>
        <time>2025-10-05T13:29:02.000Z</time>
      </trkpt>
      <trkpt lat="49.59607" lon="3.43838">
        <ele>155.2</ele>
        <time>2025-10-05T13:29:03.000Z</time>
      </trkpt>
      <trkpt lat="49.59607" lon="3.43837">
        <ele>155.2</ele>
        <time>2025-10-05T13:29:04.000Z</time>
      </trkpt>
      <trkpt lat="49.59607" lon="3.43836">
        <ele>155.1</ele>
        <time>2025-10-05T13:29:05.000Z</time>
      </trkpt>
      <trkpt lat="49.59607" lon="3.43834">
        <ele>154.6</ele>
        <time>2025-10-05T13:29:06.000Z</time>
      </trkpt>
      <trkpt lat="49.59607" lon="3.43831">
        <ele>154.3</ele>
        <time>2025-10-05T13:29:07.000Z</time>
      </trkpt>
      <trkpt lat="49.59606" lon="3.4383">
        <ele>154</ele>
        <time>2025-10-05T13:29:08.000Z</time>
      </trkpt>
      <trkpt lat="49.59607" lon="3.43829">
        <ele>153.9</ele>
        <time>2025-10-05T13:29:09.000Z</time>
      </trkpt>
      <trkpt lat="49.59606" lon="3.43828">
        <ele>153.8</ele>
        <time>2025-10-05T13:29:10.000Z</time>
      </trkpt>
      <trkpt lat="49.59606" lon="3.43827">
        <ele>153.6</ele>
        <time>2025-10-05T13:29:11.000Z</time>
      </trkpt>
      <trkpt lat="49.59606" lon="3.43826">
        <ele>153.4</ele>
        <time>2025-10-05T13:29:12.000Z</time>
      </trkpt>
      <trkpt lat="49.59606" lon="3.43826">
        <ele>153.5</ele>
        <time>2025-10-05T13:29:13.000Z</time>
      </trkpt>
      <trkpt lat="49.59606" lon="3.43824">
        <ele>153.4</ele>
        <time>2025-10-05T13:29:14.000Z</time>
      </trkpt>
      <trkpt lat="49.59606" lon="3.43823">
        <ele>153.3</ele>
        <time>2025-10-05T13:29:15.000Z</time>
      </trkpt>
      <trkpt lat="49.59606" lon="3.43821">
        <ele>153.1</ele>
        <time>2025-10-05T13:29:16.000Z</time>
      </trkpt>
      <trkpt lat="49.59606" lon="3.4382">
        <ele>152.9</ele>
        <time>2025-10-05T13:29:17.000Z</time>
      </trkpt>
      <trkpt lat="49.59606" lon="3.43818">
        <ele>153</ele>
        <time>2025-10-05T13:29:18.000Z</time>
      </trkpt>
      <trkpt lat="49.59606" lon="3.43817">
        <ele>152.8</ele>
        <time>2025-10-05T13:29:19.000Z</time>
      </trkpt>
      <trkpt lat="49.59606" lon="3.43816">
        <ele>152.9</ele>
        <time>2025-10-05T13:29:20.000Z</time>
      </trkpt>
      <trkpt lat="49.59606" lon="3.43814">
        <ele>152.9</ele>
        <time>2025-10-05T13:29:21.000Z</time>
      </trkpt>
      <trkpt lat="49.59606" lon="3.43813">
        <ele>152.9</ele>
        <time>2025-10-05T13:29:22.000Z</time>
      </trkpt>
      <trkpt lat="49.59606" lon="3.43811">
        <ele>152.9</ele>
        <time>2025-10-05T13:29:23.000Z</time>
      </trkpt>
      <trkpt lat="49.59606" lon="3.4381">
        <ele>152.8</ele>
        <time>2025-10-05T13:29:24.000Z</time>
      </trkpt>
      <trkpt lat="49.59606" lon="3.43807">
        <ele>153</ele>
        <time>2025-10-05T13:29:25.000Z</time>
      </trkpt>
      <trkpt lat="49.59606" lon="3.43806">
        <ele>153.3</ele>
        <time>2025-10-05T13:29:26.000Z</time>
      </trkpt>
      <trkpt lat="49.59606" lon="3.43803">
        <ele>153.2</ele>
        <time>2025-10-05T13:29:27.000Z</time>
      </trkpt>
      <trkpt lat="49.59606" lon="3.43803">
        <ele>153.3</ele>
        <time>2025-10-05T13:29:28.000Z</time>
      </trkpt>
      <trkpt lat="49.59606" lon="3.43802">
        <ele>153.6</ele>
        <time>2025-10-05T13:29:29.000Z</time>
      </trkpt>
      <trkpt lat="49.59607" lon="3.43802">
        <ele>153.8</ele>
        <time>2025-10-05T13:29:30.000Z</time>
      </trkpt>
      <trkpt lat="49.59607" lon="3.43801">
        <ele>153.8</ele>
        <time>2025-10-05T13:29:31.000Z</time>
      </trkpt>
      <trkpt lat="49.59607" lon="3.438">
        <ele>153.7</ele>
        <time>2025-10-05T13:29:32.000Z</time>
      </trkpt>
      <trkpt lat="49.59607" lon="3.43799">
        <ele>153.6</ele>
        <time>2025-10-05T13:29:33.000Z</time>
      </trkpt>
      <trkpt lat="49.59607" lon="3.43797">
        <ele>153.6</ele>
        <time>2025-10-05T13:29:34.000Z</time>
      </trkpt>
      <trkpt lat="49.59607" lon="3.43796">
        <ele>153.7</ele>
        <time>2025-10-05T13:29:35.000Z</time>
      </trkpt>
      <trkpt lat="49.59607" lon="3.43795">
        <ele>154</ele>
        <time>2025-10-05T13:29:36.000Z</time>
      </trkpt>
      <trkpt lat="49.59606" lon="3.43794">
        <ele>154.1</ele>
        <time>2025-10-05T13:29:37.000Z</time>
      </trkpt>
      <trkpt lat="49.59606" lon="3.43792">
        <ele>154.2</ele>
        <time>2025-10-05T13:29:38.000Z</time>
      </trkpt>
      <trkpt lat="49.59607" lon="3.43791">
        <ele>154.1</ele>
        <time>2025-10-05T13:29:39.000Z</time>
      </trkpt>
      <trkpt lat="49.59606" lon="3.43789">
        <ele>154.1</ele>
        <time>2025-10-05T13:29:40.000Z</time>
      </trkpt>
      <trkpt lat="49.59606" lon="3.43787">
        <ele>154</ele>
        <time>2025-10-05T13:29:41.000Z</time>
      </trkpt>
      <trkpt lat="49.59605" lon="3.43786">
        <ele>153.8</ele>
        <time>2025-10-05T13:29:42.000Z</time>
      </trkpt>
      <trkpt lat="49.59605" lon="3.43785">
        <ele>153.6</ele>
        <time>2025-10-05T13:29:43.000Z</time>
      </trkpt>
      <trkpt lat="49.59605" lon="3.43783">
        <ele>153.5</ele>
        <time>2025-10-05T13:29:44.000Z</time>
      </trkpt>
      <trkpt lat="49.59605" lon="3.43781">
        <ele>153.1</ele>
        <time>2025-10-05T13:29:45.000Z</time>
      </trkpt>
      <trkpt lat="49.59604" lon="3.4378">
        <ele>152.9</ele>
        <time>2025-10-05T13:29:46.000Z</time>
      </trkpt>
      <trkpt lat="49.59604" lon="3.43779">
        <ele>152.6</ele>
        <time>2025-10-05T13:29:47.000Z</time>
      </trkpt>
      <trkpt lat="49.59603" lon="3.43777">
        <ele>152.5</ele>
        <time>2025-10-05T13:29:48.000Z</time>
      </trkpt>
      <trkpt lat="49.59603" lon="3.43776">
        <ele>152.3</ele>
        <time>2025-10-05T13:29:49.000Z</time>
      </trkpt>
      <trkpt lat="49.59603" lon="3.43775">
        <ele>152.5</ele>
        <time>2025-10-05T13:29:50.000Z</time>
      </trkpt>
      <trkpt lat="49.59603" lon="3.43773">
        <ele>152.1</ele>
        <time>2025-10-05T13:29:51.000Z</time>
      </trkpt>
      <trkpt lat="49.59604" lon="3.43772">
        <ele>151.9</ele>
        <time>2025-10-05T13:29:52.000Z</time>
      </trkpt>
      <trkpt lat="49.59604" lon="3.43771">
        <ele>152</ele>
        <time>2025-10-05T13:29:53.000Z</time>
      </trkpt>
      <trkpt lat="49.59604" lon="3.43769">
        <ele>152</ele>
        <time>2025-10-05T13:29:54.000Z</time>
      </trkpt>
      <trkpt lat="49.59604" lon="3.43767">
        <ele>152.2</ele>
        <time>2025-10-05T13:29:55.000Z</time>
      </trkpt>
      <trkpt lat="49.59604" lon="3.43766">
        <ele>152.4</ele>
        <time>2025-10-05T13:29:56.000Z</time>
      </trkpt>
      <trkpt lat="49.59604" lon="3.43764">
        <ele>152.5</ele>
        <time>2025-10-05T13:29:57.000Z</time>
      </trkpt>
      <trkpt lat="49.59604" lon="3.43763">
        <ele>152.4</ele>
        <time>2025-10-05T13:29:58.000Z</time>
      </trkpt>
      <trkpt lat="49.59603" lon="3.43762">
        <ele>152.6</ele>
        <time>2025-10-05T13:29:59.000Z</time>
      </trkpt>
      <trkpt lat="49.59603" lon="3.4376">
        <ele>152.7</ele>
        <time>2025-10-05T13:30:00.000Z</time>
      </trkpt>
      <trkpt lat="49.59602" lon="3.43759">
        <ele>152.5</ele>
        <time>2025-10-05T13:30:01.000Z</time>
      </trkpt>
      <trkpt lat="49.59601" lon="3.43758">
        <ele>151.9</ele>
        <time>2025-10-05T13:30:02.000Z</time>
      </trkpt>
      <trkpt lat="49.59601" lon="3.43757">
        <ele>151.8</ele>
        <time>2025-10-05T13:30:03.000Z</time>
      </trkpt>
      <trkpt lat="49.596" lon="3.43755">
        <ele>151.5</ele>
        <time>2025-10-05T13:30:04.000Z</time>
      </trkpt>
      <trkpt lat="49.596" lon="3.43753">
        <ele>151.5</ele>
        <time>2025-10-05T13:30:05.000Z</time>
      </trkpt>
      <trkpt lat="49.596" lon="3.43752">
        <ele>150.7</ele>
        <time>2025-10-05T13:30:06.000Z</time>
      </trkpt>
      <trkpt lat="49.59599" lon="3.43752">
        <ele>149.8</ele>
        <time>2025-10-05T13:30:07.000Z</time>
      </trkpt>
      <trkpt lat="49.59599" lon="3.4375">
        <ele>149.3</ele>
        <time>2025-10-05T13:30:08.000Z</time>
      </trkpt>
      <trkpt lat="49.59599" lon="3.43749">
        <ele>148.9</ele>
        <time>2025-10-05T13:30:09.000Z</time>
      </trkpt>
      <trkpt lat="49.59598" lon="3.43747">
        <ele>148.6</ele>
        <time>2025-10-05T13:30:10.000Z</time>
      </trkpt>
      <trkpt lat="49.59598" lon="3.43746">
        <ele>148.4</ele>
        <time>2025-10-05T13:30:11.000Z</time>
      </trkpt>
      <trkpt lat="49.59598" lon="3.43744">
        <ele>148.3</ele>
        <time>2025-10-05T13:30:12.000Z</time>
      </trkpt>
      <trkpt lat="49.59597" lon="3.43743">
        <ele>148.1</ele>
        <time>2025-10-05T13:30:13.000Z</time>
      </trkpt>
      <trkpt lat="49.59597" lon="3.43742">
        <ele>147.9</ele>
        <time>2025-10-05T13:30:14.000Z</time>
      </trkpt>
      <trkpt lat="49.59596" lon="3.43741">
        <ele>147.5</ele>
        <time>2025-10-05T13:30:15.000Z</time>
      </trkpt>
      <trkpt lat="49.59595" lon="3.4374">
        <ele>147.1</ele>
        <time>2025-10-05T13:30:16.000Z</time>
      </trkpt>
      <trkpt lat="49.59594" lon="3.43739">
        <ele>146.9</ele>
        <time>2025-10-05T13:30:17.000Z</time>
      </trkpt>
      <trkpt lat="49.59593" lon="3.43738">
        <ele>146.6</ele>
        <time>2025-10-05T13:30:18.000Z</time>
      </trkpt>
      <trkpt lat="49.59592" lon="3.43736">
        <ele>146.4</ele>
        <time>2025-10-05T13:30:19.000Z</time>
      </trkpt>
      <trkpt lat="49.59591" lon="3.43735">
        <ele>145.6</ele>
        <time>2025-10-05T13:30:20.000Z</time>
      </trkpt>
      <trkpt lat="49.59591" lon="3.43734">
        <ele>145.2</ele>
        <time>2025-10-05T13:30:21.000Z</time>
      </trkpt>
      <trkpt lat="49.5959" lon="3.43734">
        <ele>144.7</ele>
        <time>2025-10-05T13:30:22.000Z</time>
      </trkpt>
      <trkpt lat="49.59589" lon="3.43734">
        <ele>144.3</ele>
        <time>2025-10-05T13:30:23.000Z</time>
      </trkpt>
      <trkpt lat="49.59588" lon="3.43734">
        <ele>143.9</ele>
        <time>2025-10-05T13:30:24.000Z</time>
      </trkpt>
      <trkpt lat="49.59587" lon="3.43734">
        <ele>143.6</ele>
        <time>2025-10-05T13:30:25.000Z</time>
      </trkpt>
      <trkpt lat="49.59587" lon="3.43734">
        <ele>143.6</ele>
        <time>2025-10-05T13:30:26.000Z</time>
      </trkpt>
      <trkpt lat="49.59586" lon="3.43734">
        <ele>143.2</ele>
        <time>2025-10-05T13:30:27.000Z</time>
      </trkpt>
      <trkpt lat="49.59586" lon="3.43734">
        <ele>143.2</ele>
        <time>2025-10-05T13:30:28.000Z</time>
      </trkpt>
      <trkpt lat="49.59586" lon="3.43734">
        <ele>143.3</ele>
        <time>2025-10-05T13:30:29.000Z</time>
      </trkpt>
      <trkpt lat="49.59585" lon="3.43735">
        <ele>143.3</ele>
        <time>2025-10-05T13:30:30.000Z</time>
      </trkpt>
      <trkpt lat="49.59585" lon="3.43736">
        <ele>143.1</ele>
        <time>2025-10-05T13:30:31.000Z</time>
      </trkpt>
      <trkpt lat="49.59584" lon="3.43736">
        <ele>142.9</ele>
        <time>2025-10-05T13:30:32.000Z</time>
      </trkpt>
      <trkpt lat="49.59582" lon="3.43736">
        <ele>142.4</ele>
        <time>2025-10-05T13:30:33.000Z</time>
      </trkpt>
      <trkpt lat="49.59581" lon="3.43737">
        <ele>142.4</ele>
        <time>2025-10-05T13:30:34.000Z</time>
      </trkpt>
      <trkpt lat="49.5958" lon="3.43737">
        <ele>141.8</ele>
        <time>2025-10-05T13:30:35.000Z</time>
      </trkpt>
      <trkpt lat="49.59579" lon="3.43737">
        <ele>141.3</ele>
        <time>2025-10-05T13:30:36.000Z</time>
      </trkpt>
      <trkpt lat="49.59578" lon="3.43737">
        <ele>141.1</ele>
        <time>2025-10-05T13:30:37.000Z</time>
      </trkpt>
      <trkpt lat="49.59578" lon="3.43734">
        <ele>141.1</ele>
        <time>2025-10-05T13:30:38.000Z</time>
      </trkpt>
      <trkpt lat="49.59578" lon="3.43733">
        <ele>141</ele>
        <time>2025-10-05T13:30:39.000Z</time>
      </trkpt>
      <trkpt lat="49.59577" lon="3.43731">
        <ele>141.1</ele>
        <time>2025-10-05T13:30:40.000Z</time>
      </trkpt>
      <trkpt lat="49.59577" lon="3.43729">
        <ele>141.6</ele>
        <time>2025-10-05T13:30:41.000Z</time>
      </trkpt>
      <trkpt lat="49.59577" lon="3.43726">
        <ele>141.6</ele>
        <time>2025-10-05T13:30:42.000Z</time>
      </trkpt>
      <trkpt lat="49.59578" lon="3.43724">
        <ele>141.9</ele>
        <time>2025-10-05T13:30:43.000Z</time>
      </trkpt>
      <trkpt lat="49.59578" lon="3.43722">
        <ele>142.2</ele>
        <time>2025-10-05T13:30:44.000Z</time>
      </trkpt>
      <trkpt lat="49.59578" lon="3.4372">
        <ele>142.4</ele>
        <time>2025-10-05T13:30:45.000Z</time>
      </trkpt>
      <trkpt lat="49.59579" lon="3.43718">
        <ele>142.6</ele>
        <time>2025-10-05T13:30:46.000Z</time>
      </trkpt>
      <trkpt lat="49.5958" lon="3.43717">
        <ele>142.6</ele>
        <time>2025-10-05T13:30:47.000Z</time>
      </trkpt>
      <trkpt lat="49.5958" lon="3.43716">
        <ele>142.6</ele>
        <time>2025-10-05T13:30:48.000Z</time>
      </trkpt>
      <trkpt lat="49.59581" lon="3.43715">
        <ele>142.5</ele>
        <time>2025-10-05T13:30:49.000Z</time>
      </trkpt>
      <trkpt lat="49.59582" lon="3.43714">
        <ele>142.4</ele>
        <time>2025-10-05T13:30:50.000Z</time>
      </trkpt>
      <trkpt lat="49.59583" lon="3.43713">
        <ele>142.4</ele>
        <time>2025-10-05T13:30:51.000Z</time>
      </trkpt>
      <trkpt lat="49.59583" lon="3.43712">
        <ele>142.4</ele>
        <time>2025-10-05T13:30:52.000Z</time>
      </trkpt>
      <trkpt lat="49.59584" lon="3.43712">
        <ele>142.5</ele>
        <time>2025-10-05T13:30:53.000Z</time>
      </trkpt>
      <trkpt lat="49.59584" lon="3.4371">
        <ele>142.7</ele>
        <time>2025-10-05T13:30:54.000Z</time>
      </trkpt>
      <trkpt lat="49.59585" lon="3.43709">
        <ele>142.5</ele>
        <time>2025-10-05T13:30:55.000Z</time>
      </trkpt>
      <trkpt lat="49.59586" lon="3.43707">
        <ele>142.5</ele>
        <time>2025-10-05T13:30:56.000Z</time>
      </trkpt>
      <trkpt lat="49.59586" lon="3.43705">
        <ele>142.5</ele>
        <time>2025-10-05T13:30:57.000Z</time>
      </trkpt>
      <trkpt lat="49.59587" lon="3.43703">
        <ele>142.3</ele>
        <time>2025-10-05T13:30:58.000Z</time>
      </trkpt>
      <trkpt lat="49.59588" lon="3.43703">
        <ele>142.4</ele>
        <time>2025-10-05T13:30:59.000Z</time>
      </trkpt>
      <trkpt lat="49.59588" lon="3.43702">
        <ele>142.3</ele>
        <time>2025-10-05T13:31:00.000Z</time>
      </trkpt>
      <trkpt lat="49.59588" lon="3.43701">
        <ele>142.2</ele>
        <time>2025-10-05T13:31:01.000Z</time>
      </trkpt>
      <trkpt lat="49.59589" lon="3.43699">
        <ele>142.1</ele>
        <time>2025-10-05T13:31:02.000Z</time>
      </trkpt>
      <trkpt lat="49.59589" lon="3.43699">
        <ele>141.8</ele>
        <time>2025-10-05T13:31:03.000Z</time>
      </trkpt>
      <trkpt lat="49.59589" lon="3.43698">
        <ele>141.4</ele>
        <time>2025-10-05T13:31:04.000Z</time>
      </trkpt>
      <trkpt lat="49.5959" lon="3.43696">
        <ele>141.1</ele>
        <time>2025-10-05T13:31:05.000Z</time>
      </trkpt>
      <trkpt lat="49.5959" lon="3.43695">
        <ele>141</ele>
        <time>2025-10-05T13:31:06.000Z</time>
      </trkpt>
      <trkpt lat="49.59591" lon="3.43692">
        <ele>140.8</ele>
        <time>2025-10-05T13:31:07.000Z</time>
      </trkpt>
      <trkpt lat="49.59592" lon="3.43692">
        <ele>140.8</ele>
        <time>2025-10-05T13:31:08.000Z</time>
      </trkpt>
      <trkpt lat="49.59593" lon="3.4369">
        <ele>141</ele>
        <time>2025-10-05T13:31:09.000Z</time>
      </trkpt>
      <trkpt lat="49.59593" lon="3.43688">
        <ele>141.4</ele>
        <time>2025-10-05T13:31:10.000Z</time>
      </trkpt>
      <trkpt lat="49.59593" lon="3.43687">
        <ele>141.8</ele>
        <time>2025-10-05T13:31:11.000Z</time>
      </trkpt>
      <trkpt lat="49.59594" lon="3.43685">
        <ele>142.3</ele>
        <time>2025-10-05T13:31:12.000Z</time>
      </trkpt>
      <trkpt lat="49.59594" lon="3.43684">
        <ele>142.6</ele>
        <time>2025-10-05T13:31:13.000Z</time>
      </trkpt>
      <trkpt lat="49.59595" lon="3.43682">
        <ele>143.2</ele>
        <time>2025-10-05T13:31:14.000Z</time>
      </trkpt>
      <trkpt lat="49.59595" lon="3.4368">
        <ele>143.2</ele>
        <time>2025-10-05T13:31:15.000Z</time>
      </trkpt>
      <trkpt lat="49.59596" lon="3.43679">
        <ele>143.1</ele>
        <time>2025-10-05T13:31:16.000Z</time>
      </trkpt>
      <trkpt lat="49.59596" lon="3.43677">
        <ele>142.9</ele>
        <time>2025-10-05T13:31:17.000Z</time>
      </trkpt>
      <trkpt lat="49.59597" lon="3.43676">
        <ele>142.6</ele>
        <time>2025-10-05T13:31:18.000Z</time>
      </trkpt>
      <trkpt lat="49.59597" lon="3.43675">
        <ele>142.7</ele>
        <time>2025-10-05T13:31:19.000Z</time>
      </trkpt>
      <trkpt lat="49.59598" lon="3.43674">
        <ele>142.7</ele>
        <time>2025-10-05T13:31:20.000Z</time>
      </trkpt>
      <trkpt lat="49.59598" lon="3.43673">
        <ele>142.5</ele>
        <time>2025-10-05T13:31:21.000Z</time>
      </trkpt>
      <trkpt lat="49.59599" lon="3.43672">
        <ele>142.4</ele>
        <time>2025-10-05T13:31:22.000Z</time>
      </trkpt>
      <trkpt lat="49.59599" lon="3.43671">
        <ele>142.6</ele>
        <time>2025-10-05T13:31:23.000Z</time>
      </trkpt>
      <trkpt lat="49.59599" lon="3.4367">
        <ele>142.5</ele>
        <time>2025-10-05T13:31:24.000Z</time>
      </trkpt>
      <trkpt lat="49.59599" lon="3.43668">
        <ele>142.4</ele>
        <time>2025-10-05T13:31:25.000Z</time>
      </trkpt>
      <trkpt lat="49.596" lon="3.43667">
        <ele>142.3</ele>
        <time>2025-10-05T13:31:26.000Z</time>
      </trkpt>
      <trkpt lat="49.59601" lon="3.43666">
        <ele>142</ele>
        <time>2025-10-05T13:31:27.000Z</time>
      </trkpt>
      <trkpt lat="49.59602" lon="3.43664">
        <ele>141.5</ele>
        <time>2025-10-05T13:31:28.000Z</time>
      </trkpt>
      <trkpt lat="49.59602" lon="3.43663">
        <ele>141</ele>
        <time>2025-10-05T13:31:29.000Z</time>
      </trkpt>
      <trkpt lat="49.59603" lon="3.43662">
        <ele>140.9</ele>
        <time>2025-10-05T13:31:30.000Z</time>
      </trkpt>
      <trkpt lat="49.59603" lon="3.43661">
        <ele>140.8</ele>
        <time>2025-10-05T13:31:31.000Z</time>
      </trkpt>
      <trkpt lat="49.59603" lon="3.4366">
        <ele>140.5</ele>
        <time>2025-10-05T13:31:32.000Z</time>
      </trkpt>
      <trkpt lat="49.59604" lon="3.4366">
        <ele>140.1</ele>
        <time>2025-10-05T13:31:33.000Z</time>
      </trkpt>
      <trkpt lat="49.59605" lon="3.43659">
        <ele>139.9</ele>
        <time>2025-10-05T13:31:34.000Z</time>
      </trkpt>
      <trkpt lat="49.59605" lon="3.43658">
        <ele>139.3</ele>
        <time>2025-10-05T13:31:35.000Z</time>
      </trkpt>
      <trkpt lat="49.59606" lon="3.43657">
        <ele>138.9</ele>
        <time>2025-10-05T13:31:36.000Z</time>
      </trkpt>
      <trkpt lat="49.59607" lon="3.43656">
        <ele>138.7</ele>
        <time>2025-10-05T13:31:37.000Z</time>
      </trkpt>
      <trkpt lat="49.59608" lon="3.43654">
        <ele>138.2</ele>
        <time>2025-10-05T13:31:38.000Z</time>
      </trkpt>
      <trkpt lat="49.59609" lon="3.43653">
        <ele>138</ele>
        <time>2025-10-05T13:31:39.000Z</time>
      </trkpt>
      <trkpt lat="49.5961" lon="3.43651">
        <ele>137.9</ele>
        <time>2025-10-05T13:31:40.000Z</time>
      </trkpt>
      <trkpt lat="49.5961" lon="3.43649">
        <ele>137.9</ele>
        <time>2025-10-05T13:31:41.000Z</time>
      </trkpt>
      <trkpt lat="49.59611" lon="3.43648">
        <ele>138</ele>
        <time>2025-10-05T13:31:42.000Z</time>
      </trkpt>
      <trkpt lat="49.59611" lon="3.43646">
        <ele>137.9</ele>
        <time>2025-10-05T13:31:43.000Z</time>
      </trkpt>
      <trkpt lat="49.59612" lon="3.43645">
        <ele>137.9</ele>
        <time>2025-10-05T13:31:44.000Z</time>
      </trkpt>
      <trkpt lat="49.59613" lon="3.43643">
        <ele>138</ele>
        <time>2025-10-05T13:31:45.000Z</time>
      </trkpt>
      <trkpt lat="49.59614" lon="3.43641">
        <ele>138.2</ele>
        <time>2025-10-05T13:31:46.000Z</time>
      </trkpt>
      <trkpt lat="49.59615" lon="3.4364">
        <ele>138.5</ele>
        <time>2025-10-05T13:31:47.000Z</time>
      </trkpt>
      <trkpt lat="49.59615" lon="3.43638">
        <ele>138.7</ele>
        <time>2025-10-05T13:31:48.000Z</time>
      </trkpt>
      <trkpt lat="49.59616" lon="3.43637">
        <ele>138.8</ele>
        <time>2025-10-05T13:31:49.000Z</time>
      </trkpt>
      <trkpt lat="49.59617" lon="3.43636">
        <ele>139.2</ele>
        <time>2025-10-05T13:31:50.000Z</time>
      </trkpt>
      <trkpt lat="49.59618" lon="3.43635">
        <ele>139.4</ele>
        <time>2025-10-05T13:31:51.000Z</time>
      </trkpt>
      <trkpt lat="49.59618" lon="3.43633">
        <ele>139.8</ele>
        <time>2025-10-05T13:31:52.000Z</time>
      </trkpt>
      <trkpt lat="49.59619" lon="3.43632">
        <ele>140.1</ele>
        <time>2025-10-05T13:31:53.000Z</time>
      </trkpt>
      <trkpt lat="49.5962" lon="3.4363">
        <ele>140.7</ele>
        <time>2025-10-05T13:31:54.000Z</time>
      </trkpt>
      <trkpt lat="49.5962" lon="3.43629">
        <ele>141.2</ele>
        <time>2025-10-05T13:31:55.000Z</time>
      </trkpt>
      <trkpt lat="49.59621" lon="3.43627">
        <ele>141.7</ele>
        <time>2025-10-05T13:31:56.000Z</time>
      </trkpt>
      <trkpt lat="49.59622" lon="3.43625">
        <ele>141.9</ele>
        <time>2025-10-05T13:31:57.000Z</time>
      </trkpt>
      <trkpt lat="49.59623" lon="3.43623">
        <ele>142.3</ele>
        <time>2025-10-05T13:31:58.000Z</time>
      </trkpt>
      <trkpt lat="49.59624" lon="3.43622">
        <ele>142.5</ele>
        <time>2025-10-05T13:31:59.000Z</time>
      </trkpt>
      <trkpt lat="49.59624" lon="3.4362">
        <ele>142</ele>
        <time>2025-10-05T13:32:00.000Z</time>
      </trkpt>
      <trkpt lat="49.59625" lon="3.4362">
        <ele>141.6</ele>
        <time>2025-10-05T13:32:01.000Z</time>
      </trkpt>
      <trkpt lat="49.59625" lon="3.43619">
        <ele>141.5</ele>
        <time>2025-10-05T13:32:02.000Z</time>
      </trkpt>
      <trkpt lat="49.59625" lon="3.43618">
        <ele>141.6</ele>
        <time>2025-10-05T13:32:03.000Z</time>
      </trkpt>
      <trkpt lat="49.59626" lon="3.43617">
        <ele>141.7</ele>
        <time>2025-10-05T13:32:04.000Z</time>
      </trkpt>
      <trkpt lat="49.59626" lon="3.43616">
        <ele>141.8</ele>
        <time>2025-10-05T13:32:05.000Z</time>
      </trkpt>
      <trkpt lat="49.59627" lon="3.43615">
        <ele>141.8</ele>
        <time>2025-10-05T13:32:06.000Z</time>
      </trkpt>
      <trkpt lat="49.59628" lon="3.43613">
        <ele>141.6</ele>
        <time>2025-10-05T13:32:07.000Z</time>
      </trkpt>
      <trkpt lat="49.59628" lon="3.43612">
        <ele>141.7</ele>
        <time>2025-10-05T13:32:08.000Z</time>
      </trkpt>
      <trkpt lat="49.59628" lon="3.43612">
        <ele>141.7</ele>
        <time>2025-10-05T13:32:09.000Z</time>
      </trkpt>
      <trkpt lat="49.59629" lon="3.43611">
        <ele>141.7</ele>
        <time>2025-10-05T13:32:10.000Z</time>
      </trkpt>
      <trkpt lat="49.59629" lon="3.4361">
        <ele>141.8</ele>
        <time>2025-10-05T13:32:11.000Z</time>
      </trkpt>
      <trkpt lat="49.5963" lon="3.43609">
        <ele>142</ele>
        <time>2025-10-05T13:32:12.000Z</time>
      </trkpt>
      <trkpt lat="49.5963" lon="3.43607">
        <ele>142</ele>
        <time>2025-10-05T13:32:13.000Z</time>
      </trkpt>
      <trkpt lat="49.59631" lon="3.43606">
        <ele>142</ele>
        <time>2025-10-05T13:32:14.000Z</time>
      </trkpt>
      <trkpt lat="49.59631" lon="3.43606">
        <ele>142.1</ele>
        <time>2025-10-05T13:32:15.000Z</time>
      </trkpt>
      <trkpt lat="49.59632" lon="3.43604">
        <ele>142.5</ele>
        <time>2025-10-05T13:32:16.000Z</time>
      </trkpt>
      <trkpt lat="49.59632" lon="3.43603">
        <ele>142.4</ele>
        <time>2025-10-05T13:32:17.000Z</time>
      </trkpt>
      <trkpt lat="49.59632" lon="3.43603">
        <ele>142.1</ele>
        <time>2025-10-05T13:32:18.000Z</time>
      </trkpt>
      <trkpt lat="49.59633" lon="3.43603">
        <ele>141.4</ele>
        <time>2025-10-05T13:32:19.000Z</time>
      </trkpt>
      <trkpt lat="49.59633" lon="3.43602">
        <ele>140.9</ele>
        <time>2025-10-05T13:32:20.000Z</time>
      </trkpt>
      <trkpt lat="49.59634" lon="3.43601">
        <ele>140.5</ele>
        <time>2025-10-05T13:32:21.000Z</time>
      </trkpt>
      <trkpt lat="49.59635" lon="3.436">
        <ele>140.2</ele>
        <time>2025-10-05T13:32:22.000Z</time>
      </trkpt>
      <trkpt lat="49.59635" lon="3.43598">
        <ele>140.1</ele>
        <time>2025-10-05T13:32:23.000Z</time>
      </trkpt>
      <trkpt lat="49.59636" lon="3.43596">
        <ele>140</ele>
        <time>2025-10-05T13:32:24.000Z</time>
      </trkpt>
      <trkpt lat="49.59637" lon="3.43595">
        <ele>140</ele>
        <time>2025-10-05T13:32:25.000Z</time>
      </trkpt>
      <trkpt lat="49.59638" lon="3.43594">
        <ele>139.7</ele>
        <time>2025-10-05T13:32:26.000Z</time>
      </trkpt>
      <trkpt lat="49.59639" lon="3.43592">
        <ele>139.5</ele>
        <time>2025-10-05T13:32:27.000Z</time>
      </trkpt>
      <trkpt lat="49.5964" lon="3.4359">
        <ele>139.2</ele>
        <time>2025-10-05T13:32:28.000Z</time>
      </trkpt>
      <trkpt lat="49.59641" lon="3.43589">
        <ele>139.3</ele>
        <time>2025-10-05T13:32:29.000Z</time>
      </trkpt>
      <trkpt lat="49.59642" lon="3.43588">
        <ele>139.3</ele>
        <time>2025-10-05T13:32:30.000Z</time>
      </trkpt>
      <trkpt lat="49.59642" lon="3.43588">
        <ele>139.5</ele>
        <time>2025-10-05T13:32:31.000Z</time>
      </trkpt>
      <trkpt lat="49.59642" lon="3.43587">
        <ele>139.7</ele>
        <time>2025-10-05T13:32:32.000Z</time>
      </trkpt>
      <trkpt lat="49.59642" lon="3.43586">
        <ele>140.3</ele>
        <time>2025-10-05T13:32:33.000Z</time>
      </trkpt>
      <trkpt lat="49.59643" lon="3.43584">
        <ele>140.7</ele>
        <time>2025-10-05T13:32:34.000Z</time>
      </trkpt>
      <trkpt lat="49.59643" lon="3.43582">
        <ele>141.1</ele>
        <time>2025-10-05T13:32:35.000Z</time>
      </trkpt>
      <trkpt lat="49.59644" lon="3.43581">
        <ele>141.2</ele>
        <time>2025-10-05T13:32:36.000Z</time>
      </trkpt>
      <trkpt lat="49.59645" lon="3.4358">
        <ele>140.9</ele>
        <time>2025-10-05T13:32:37.000Z</time>
      </trkpt>
      <trkpt lat="49.59645" lon="3.43578">
        <ele>140.6</ele>
        <time>2025-10-05T13:32:38.000Z</time>
      </trkpt>
      <trkpt lat="49.59645" lon="3.43576">
        <ele>140.3</ele>
        <time>2025-10-05T13:32:39.000Z</time>
      </trkpt>
      <trkpt lat="49.59645" lon="3.43575">
        <ele>140.3</ele>
        <time>2025-10-05T13:32:40.000Z</time>
      </trkpt>
      <trkpt lat="49.59645" lon="3.43574">
        <ele>140.4</ele>
        <time>2025-10-05T13:32:41.000Z</time>
      </trkpt>
      <trkpt lat="49.59645" lon="3.43573">
        <ele>140.5</ele>
        <time>2025-10-05T13:32:42.000Z</time>
      </trkpt>
      <trkpt lat="49.59645" lon="3.43572">
        <ele>140.2</ele>
        <time>2025-10-05T13:32:43.000Z</time>
      </trkpt>
      <trkpt lat="49.59645" lon="3.4357">
        <ele>139.8</ele>
        <time>2025-10-05T13:32:44.000Z</time>
      </trkpt>
      <trkpt lat="49.59645" lon="3.4357">
        <ele>139.5</ele>
        <time>2025-10-05T13:32:45.000Z</time>
      </trkpt>
      <trkpt lat="49.59645" lon="3.43569">
        <ele>139</ele>
        <time>2025-10-05T13:32:46.000Z</time>
      </trkpt>
      <trkpt lat="49.59645" lon="3.43569">
        <ele>138.7</ele>
        <time>2025-10-05T13:32:47.000Z</time>
      </trkpt>
      <trkpt lat="49.59645" lon="3.43568">
        <ele>138.3</ele>
        <time>2025-10-05T13:32:48.000Z</time>
      </trkpt>
      <trkpt lat="49.59645" lon="3.43567">
        <ele>138</ele>
        <time>2025-10-05T13:32:49.000Z</time>
      </trkpt>
      <trkpt lat="49.59645" lon="3.43566">
        <ele>137.7</ele>
        <time>2025-10-05T13:32:50.000Z</time>
      </trkpt>
      <trkpt lat="49.59645" lon="3.43565">
        <ele>137.4</ele>
        <time>2025-10-05T13:32:51.000Z</time>
      </trkpt>
      <trkpt lat="49.59645" lon="3.43565">
        <ele>137.4</ele>
        <time>2025-10-05T13:32:52.000Z</time>
      </trkpt>
      <trkpt lat="49.59645" lon="3.43564">
        <ele>137.6</ele>
        <time>2025-10-05T13:32:53.000Z</time>
      </trkpt>
      <trkpt lat="49.59645" lon="3.43564">
        <ele>137.5</ele>
        <time>2025-10-05T13:32:54.000Z</time>
      </trkpt>
      <trkpt lat="49.59645" lon="3.43564">
        <ele>137.5</ele>
        <time>2025-10-05T13:32:55.000Z</time>
      </trkpt>
      <trkpt lat="49.59644" lon="3.43563">
        <ele>137.4</ele>
        <time>2025-10-05T13:32:56.000Z</time>
      </trkpt>
      <trkpt lat="49.59644" lon="3.43562">
        <ele>137.5</ele>
        <time>2025-10-05T13:32:57.000Z</time>
      </trkpt>
      <trkpt lat="49.59644" lon="3.43562">
        <ele>137.8</ele>
        <time>2025-10-05T13:32:58.000Z</time>
      </trkpt>
      <trkpt lat="49.59645" lon="3.43561">
        <ele>138</ele>
        <time>2025-10-05T13:32:59.000Z</time>
      </trkpt>
      <trkpt lat="49.59645" lon="3.4356">
        <ele>138</ele>
        <time>2025-10-05T13:33:00.000Z</time>
      </trkpt>
      <trkpt lat="49.59645" lon="3.43559">
        <ele>138.1</ele>
        <time>2025-10-05T13:33:01.000Z</time>
      </trkpt>
      <trkpt lat="49.59645" lon="3.4356">
        <ele>138.2</ele>
        <time>2025-10-05T13:33:02.000Z</time>
      </trkpt>
      <trkpt lat="49.59646" lon="3.43559">
        <ele>138</ele>
        <time>2025-10-05T13:33:03.000Z</time>
      </trkpt>
      <trkpt lat="49.59646" lon="3.43559">
        <ele>138</ele>
        <time>2025-10-05T13:33:04.000Z</time>
      </trkpt>
      <trkpt lat="49.59646" lon="3.43558">
        <ele>138</ele>
        <time>2025-10-05T13:33:05.000Z</time>
      </trkpt>
      <trkpt lat="49.59646" lon="3.43558">
        <ele>138.1</ele>
        <time>2025-10-05T13:33:06.000Z</time>
      </trkpt>
      <trkpt lat="49.59646" lon="3.43558">
        <ele>138.3</ele>
        <time>2025-10-05T13:33:07.000Z</time>
      </trkpt>
      <trkpt lat="49.59646" lon="3.43558">
        <ele>138.4</ele>
        <time>2025-10-05T13:33:08.000Z</time>
      </trkpt>
      <trkpt lat="49.59646" lon="3.43558">
        <ele>138.4</ele>
        <time>2025-10-05T13:33:09.000Z</time>
      </trkpt>
      <trkpt lat="49.59647" lon="3.43559">
        <ele>138.4</ele>
        <time>2025-10-05T13:33:10.000Z</time>
      </trkpt>
      <trkpt lat="49.59647" lon="3.43559">
        <ele>138.4</ele>
        <time>2025-10-05T13:33:11.000Z</time>
      </trkpt>
      <trkpt lat="49.59647" lon="3.43559">
        <ele>138.4</ele>
        <time>2025-10-05T13:33:12.000Z</time>
      </trkpt>
      <trkpt lat="49.59647" lon="3.43559">
        <ele>138.4</ele>
        <time>2025-10-05T13:33:13.000Z</time>
      </trkpt>
      <trkpt lat="49.59647" lon="3.43559">
        <ele>138.4</ele>
        <time>2025-10-05T13:33:14.000Z</time>
      </trkpt>
      <trkpt lat="49.59647" lon="3.43559">
        <ele>138.4</ele>
        <time>2025-10-05T13:33:15.000Z</time>
      </trkpt>
      <trkpt lat="49.59647" lon="3.43559">
        <ele>138.4</ele>
        <time>2025-10-05T13:33:16.000Z</time>
      </trkpt>
      <trkpt lat="49.59647" lon="3.43559">
        <ele>138.4</ele>
        <time>2025-10-05T13:33:17.000Z</time>
      </trkpt>
      <trkpt lat="49.59647" lon="3.43559">
        <ele>138.4</ele>
        <time>2025-10-05T13:33:18.000Z</time>
      </trkpt>
      <trkpt lat="49.59647" lon="3.43559">
        <ele>138.4</ele>
        <time>2025-10-05T13:33:19.000Z</time>
      </trkpt>
      <trkpt lat="49.59647" lon="3.43559">
        <ele>138.4</ele>
        <time>2025-10-05T13:33:20.000Z</time>
      </trkpt>
      <trkpt lat="49.59647" lon="3.43559">
        <ele>138.4</ele>
        <time>2025-10-05T13:33:21.000Z</time>
      </trkpt>
      <trkpt lat="49.59647" lon="3.43559">
        <ele>138.4</ele>
        <time>2025-10-05T13:33:22.000Z</time>
      </trkpt>
      <trkpt lat="49.59647" lon="3.43559">
        <ele>138.4</ele>
        <time>2025-10-05T13:33:23.000Z</time>
      </trkpt>
      <trkpt lat="49.59647" lon="3.43559">
        <ele>138.4</ele>
        <time>2025-10-05T13:33:24.000Z</time>
      </trkpt>
      <trkpt lat="49.59647" lon="3.43559">
        <ele>138.4</ele>
        <time>2025-10-05T13:33:25.000Z</time>
      </trkpt>
      <trkpt lat="49.59647" lon="3.43559">
        <ele>138.4</ele>
        <time>2025-10-05T13:33:26.000Z</time>
      </trkpt>
      <trkpt lat="49.59647" lon="3.43559">
        <ele>138.4</ele>
        <time>2025-10-05T13:33:27.000Z</time>
      </trkpt>
      <trkpt lat="49.59647" lon="3.43559">
        <ele>138.4</ele>
        <time>2025-10-05T13:33:28.000Z</time>
      </trkpt>
      <trkpt lat="49.59647" lon="3.43559">
        <ele>138.4</ele>
        <time>2025-10-05T13:33:29.000Z</time>
      </trkpt>
      <trkpt lat="49.59647" lon="3.43559">
        <ele>138.4</ele>
        <time>2025-10-05T13:33:30.000Z</time>
      </trkpt>
      <trkpt lat="49.59647" lon="3.43559">
        <ele>138.4</ele>
        <time>2025-10-05T13:33:31.000Z</time>
      </trkpt>
      <trkpt lat="49.59647" lon="3.43559">
        <ele>141.8</ele>
        <time>2025-10-05T13:33:32.000Z</time>
      </trkpt>
      <trkpt lat="49.59647" lon="3.43559">
        <ele>141.8</ele>
        <time>2025-10-05T13:33:33.000Z</time>
      </trkpt>
      <trkpt lat="49.59647" lon="3.43559">
        <ele>141.8</ele>
        <time>2025-10-05T13:33:34.000Z</time>
      </trkpt>
      <trkpt lat="49.59647" lon="3.43559">
        <ele>141.8</ele>
        <time>2025-10-05T13:33:35.000Z</time>
      </trkpt>
      <trkpt lat="49.59647" lon="3.43559">
        <ele>141.8</ele>
        <time>2025-10-05T13:33:36.000Z</time>
      </trkpt>
      <trkpt lat="49.59647" lon="3.43559">
        <ele>141.8</ele>
        <time>2025-10-05T13:33:37.000Z</time>
      </trkpt>
      <trkpt lat="49.59647" lon="3.43559">
        <ele>141.8</ele>
        <time>2025-10-05T13:33:38.000Z</time>
      </trkpt>
      <trkpt lat="49.59647" lon="3.43559">
        <ele>141.8</ele>
        <time>2025-10-05T13:33:39.000Z</time>
      </trkpt>
      <trkpt lat="49.59647" lon="3.43559">
        <ele>141.8</ele>
        <time>2025-10-05T13:33:40.000Z</time>
      </trkpt>
      <trkpt lat="49.59647" lon="3.43559">
        <ele>141.8</ele>
        <time>2025-10-05T13:33:41.000Z</time>
      </trkpt>
      <trkpt lat="49.59647" lon="3.43559">
        <ele>141.8</ele>
        <time>2025-10-05T13:33:42.000Z</time>
      </trkpt>
      <trkpt lat="49.59647" lon="3.43559">
        <ele>141.8</ele>
        <time>2025-10-05T13:33:43.000Z</time>
      </trkpt>
      <trkpt lat="49.59647" lon="3.43559">
        <ele>141.8</ele>
        <time>2025-10-05T13:33:44.000Z</time>
      </trkpt>
      <trkpt lat="49.59647" lon="3.43559">
        <ele>141.8</ele>
        <time>2025-10-05T13:33:45.000Z</time>
      </trkpt>
      <trkpt lat="49.59647" lon="3.43559">
        <ele>141.8</ele>
        <time>2025-10-05T13:33:46.000Z</time>
      </trkpt>
      <trkpt lat="49.59647" lon="3.43559">
        <ele>141.8</ele>
        <time>2025-10-05T13:33:47.000Z</time>
      </trkpt>
      <trkpt lat="49.59647" lon="3.43559">
        <ele>141.8</ele>
        <time>2025-10-05T13:33:48.000Z</time>
      </trkpt>
      <trkpt lat="49.59647" lon="3.43559">
        <ele>141.8</ele>
        <time>2025-10-05T13:33:49.000Z</time>
      </trkpt>
      <trkpt lat="49.59647" lon="3.43559">
        <ele>141.8</ele>
        <time>2025-10-05T13:33:50.000Z</time>
      </trkpt>
      <trkpt lat="49.59647" lon="3.43559">
        <ele>141.8</ele>
        <time>2025-10-05T13:33:51.000Z</time>
      </trkpt>
      <trkpt lat="49.59647" lon="3.43559">
        <ele>141.8</ele>
        <time>2025-10-05T13:33:52.000Z</time>
      </trkpt>
      <trkpt lat="49.59647" lon="3.43559">
        <ele>141.8</ele>
        <time>2025-10-05T13:33:53.000Z</time>
      </trkpt>
      <trkpt lat="49.59647" lon="3.43559">
        <ele>141.8</ele>
        <time>2025-10-05T13:33:54.000Z</time>
      </trkpt>
      <trkpt lat="49.59647" lon="3.43559">
        <ele>141.8</ele>
        <time>2025-10-05T13:33:55.000Z</time>
      </trkpt>
      <trkpt lat="49.59647" lon="3.43559">
        <ele>141.8</ele>
        <time>2025-10-05T13:33:56.000Z</time>
      </trkpt>
      <trkpt lat="49.59647" lon="3.43559">
        <ele>141.8</ele>
        <time>2025-10-05T13:33:57.000Z</time>
      </trkpt>
      <trkpt lat="49.59647" lon="3.43559">
        <ele>141.8</ele>
        <time>2025-10-05T13:33:58.000Z</time>
      </trkpt>
      <trkpt lat="49.59647" lon="3.43559">
        <ele>141.8</ele>
        <time>2025-10-05T13:33:59.000Z</time>
      </trkpt>
      <trkpt lat="49.59647" lon="3.43559">
        <ele>141.8</ele>
        <time>2025-10-05T13:34:00.000Z</time>
      </trkpt>
      <trkpt lat="49.59647" lon="3.43559">
        <ele>141.8</ele>
        <time>2025-10-05T13:34:01.000Z</time>
      </trkpt>
      <trkpt lat="49.59648" lon="3.43555">
        <ele>141.8</ele>
        <time>2025-10-05T13:34:02.000Z</time>
      </trkpt>
      <trkpt lat="49.59649" lon="3.43554">
        <ele>141.5</ele>
        <time>2025-10-05T13:34:03.000Z</time>
      </trkpt>
      <trkpt lat="49.59649" lon="3.43554">
        <ele>141.4</ele>
        <time>2025-10-05T13:34:04.000Z</time>
      </trkpt>
      <trkpt lat="49.5965" lon="3.43553">
        <ele>141.3</ele>
        <time>2025-10-05T13:34:05.000Z</time>
      </trkpt>
      <trkpt lat="49.5965" lon="3.43551">
        <ele>140.9</ele>
        <time>2025-10-05T13:34:06.000Z</time>
      </trkpt>
      <trkpt lat="49.5965" lon="3.4355">
        <ele>140.4</ele>
        <time>2025-10-05T13:34:07.000Z</time>
      </trkpt>
      <trkpt lat="49.59651" lon="3.43549">
        <ele>139.9</ele>
        <time>2025-10-05T13:34:08.000Z</time>
      </trkpt>
      <trkpt lat="49.59651" lon="3.43547">
        <ele>139.3</ele>
        <time>2025-10-05T13:34:09.000Z</time>
      </trkpt>
      <trkpt lat="49.59651" lon="3.43547">
        <ele>138.9</ele>
        <time>2025-10-05T13:34:10.000Z</time>
      </trkpt>
      <trkpt lat="49.59651" lon="3.43546">
        <ele>138.8</ele>
        <time>2025-10-05T13:34:11.000Z</time>
      </trkpt>
      <trkpt lat="49.59652" lon="3.43545">
        <ele>138.4</ele>
        <time>2025-10-05T13:34:12.000Z</time>
      </trkpt>
      <trkpt lat="49.59652" lon="3.43545">
        <ele>137.7</ele>
        <time>2025-10-05T13:34:13.000Z</time>
      </trkpt>
      <trkpt lat="49.59652" lon="3.43545">
        <ele>137.2</ele>
        <time>2025-10-05T13:34:14.000Z</time>
      </trkpt>
      <trkpt lat="49.59652" lon="3.43546">
        <ele>136.9</ele>
        <time>2025-10-05T13:34:15.000Z</time>
      </trkpt>
      <trkpt lat="49.59653" lon="3.43547">
        <ele>136.7</ele>
        <time>2025-10-05T13:34:16.000Z</time>
      </trkpt>
      <trkpt lat="49.59652" lon="3.43546">
        <ele>136.6</ele>
        <time>2025-10-05T13:34:17.000Z</time>
      </trkpt>
      <trkpt lat="49.59652" lon="3.43546">
        <ele>136.6</ele>
        <time>2025-10-05T13:34:18.000Z</time>
      </trkpt>
      <trkpt lat="49.59652" lon="3.43546">
        <ele>136.6</ele>
        <time>2025-10-05T13:34:19.000Z</time>
      </trkpt>
      <trkpt lat="49.59652" lon="3.43546">
        <ele>136.6</ele>
        <time>2025-10-05T13:34:20.000Z</time>
      </trkpt>
      <trkpt lat="49.59652" lon="3.43546">
        <ele>136.6</ele>
        <time>2025-10-05T13:34:21.000Z</time>
      </trkpt>
      <trkpt lat="49.59652" lon="3.43546">
        <ele>136.6</ele>
        <time>2025-10-05T13:34:22.000Z</time>
      </trkpt>
      <trkpt lat="49.59652" lon="3.43546">
        <ele>136.6</ele>
        <time>2025-10-05T13:34:23.000Z</time>
      </trkpt>
      <trkpt lat="49.59652" lon="3.43546">
        <ele>136.6</ele>
        <time>2025-10-05T13:34:24.000Z</time>
      </trkpt>
      <trkpt lat="49.59652" lon="3.43546">
        <ele>136.6</ele>
        <time>2025-10-05T13:34:25.000Z</time>
      </trkpt>
      <trkpt lat="49.59652" lon="3.43546">
        <ele>136.6</ele>
        <time>2025-10-05T13:34:26.000Z</time>
      </trkpt>
      <trkpt lat="49.59652" lon="3.43546">
        <ele>136.6</ele>
        <time>2025-10-05T13:34:27.000Z</time>
      </trkpt>
      <trkpt lat="49.59652" lon="3.43546">
        <ele>136.6</ele>
        <time>2025-10-05T13:34:28.000Z</time>
      </trkpt>
      <trkpt lat="49.59652" lon="3.43546">
        <ele>136.6</ele>
        <time>2025-10-05T13:34:29.000Z</time>
      </trkpt>
      <trkpt lat="49.59652" lon="3.43546">
        <ele>136.6</ele>
        <time>2025-10-05T13:34:30.000Z</time>
      </trkpt>
      <trkpt lat="49.59652" lon="3.43546">
        <ele>136.6</ele>
        <time>2025-10-05T13:34:31.000Z</time>
      </trkpt>
      <trkpt lat="49.59652" lon="3.43546">
        <ele>136.6</ele>
        <time>2025-10-05T13:34:32.000Z</time>
      </trkpt>
      <trkpt lat="49.59652" lon="3.43546">
        <ele>136.6</ele>
        <time>2025-10-05T13:34:33.000Z</time>
      </trkpt>
      <trkpt lat="49.59652" lon="3.43546">
        <ele>136.6</ele>
        <time>2025-10-05T13:34:34.000Z</time>
      </trkpt>
      <trkpt lat="49.59652" lon="3.43546">
        <ele>136.6</ele>
        <time>2025-10-05T13:34:35.000Z</time>
      </trkpt>
      <trkpt lat="49.59652" lon="3.43546">
        <ele>136.6</ele>
        <time>2025-10-05T13:34:36.000Z</time>
      </trkpt>
      <trkpt lat="49.59652" lon="3.43546">
        <ele>136.6</ele>
        <time>2025-10-05T13:34:37.000Z</time>
      </trkpt>
      <trkpt lat="49.59652" lon="3.43546">
        <ele>136.6</ele>
        <time>2025-10-05T13:34:38.000Z</time>
      </trkpt>
      <trkpt lat="49.59652" lon="3.43546">
        <ele>136.6</ele>
        <time>2025-10-05T13:34:39.000Z</time>
      </trkpt>
      <trkpt lat="49.59652" lon="3.43546">
        <ele>136.6</ele>
        <time>2025-10-05T13:34:40.000Z</time>
      </trkpt>
      <trkpt lat="49.59652" lon="3.43546">
        <ele>136.6</ele>
        <time>2025-10-05T13:34:41.000Z</time>
      </trkpt>
      <trkpt lat="49.59652" lon="3.43546">
        <ele>136.6</ele>
        <time>2025-10-05T13:34:42.000Z</time>
      </trkpt>
      <trkpt lat="49.59652" lon="3.43546">
        <ele>136.6</ele>
        <time>2025-10-05T13:34:43.000Z</time>
      </trkpt>
      <trkpt lat="49.59652" lon="3.43546">
        <ele>136.6</ele>
        <time>2025-10-05T13:34:44.000Z</time>
      </trkpt>
      <trkpt lat="49.59652" lon="3.43546">
        <ele>136.6</ele>
        <time>2025-10-05T13:34:45.000Z</time>
      </trkpt>
      <trkpt lat="49.59653" lon="3.43543">
        <ele>133.2</ele>
        <time>2025-10-05T13:34:46.000Z</time>
      </trkpt>
      <trkpt lat="49.59654" lon="3.43542">
        <ele>133.3</ele>
        <time>2025-10-05T13:34:47.000Z</time>
      </trkpt>
      <trkpt lat="49.59654" lon="3.4354">
        <ele>133.4</ele>
        <time>2025-10-05T13:34:48.000Z</time>
      </trkpt>
      <trkpt lat="49.59654" lon="3.43539">
        <ele>133.3</ele>
        <time>2025-10-05T13:34:49.000Z</time>
      </trkpt>
      <trkpt lat="49.59653" lon="3.43537">
        <ele>133.1</ele>
        <time>2025-10-05T13:34:50.000Z</time>
      </trkpt>
      <trkpt lat="49.59651" lon="3.43535">
        <ele>133.1</ele>
        <time>2025-10-05T13:34:51.000Z</time>
      </trkpt>
      <trkpt lat="49.5965" lon="3.43534">
        <ele>133.5</ele>
        <time>2025-10-05T13:34:52.000Z</time>
      </trkpt>
      <trkpt lat="49.59649" lon="3.43534">
        <ele>133.5</ele>
        <time>2025-10-05T13:34:53.000Z</time>
      </trkpt>
      <trkpt lat="49.59649" lon="3.43534">
        <ele>133.4</ele>
        <time>2025-10-05T13:34:54.000Z</time>
      </trkpt>
      <trkpt lat="49.59648" lon="3.43534">
        <ele>133.5</ele>
        <time>2025-10-05T13:34:55.000Z</time>
      </trkpt>
      <trkpt lat="49.59648" lon="3.43534">
        <ele>133.4</ele>
        <time>2025-10-05T13:34:56.000Z</time>
      </trkpt>
      <trkpt lat="49.59647" lon="3.43534">
        <ele>133.3</ele>
        <time>2025-10-05T13:34:57.000Z</time>
      </trkpt>
      <trkpt lat="49.59646" lon="3.43533">
        <ele>133.1</ele>
        <time>2025-10-05T13:34:58.000Z</time>
      </trkpt>
      <trkpt lat="49.59645" lon="3.43533">
        <ele>132.8</ele>
        <time>2025-10-05T13:34:59.000Z</time>
      </trkpt>
      <trkpt lat="49.59644" lon="3.43533">
        <ele>132.9</ele>
        <time>2025-10-05T13:35:00.000Z</time>
      </trkpt>
      <trkpt lat="49.59643" lon="3.43533">
        <ele>132.9</ele>
        <time>2025-10-05T13:35:01.000Z</time>
      </trkpt>
      <trkpt lat="49.59642" lon="3.43533">
        <ele>133.2</ele>
        <time>2025-10-05T13:35:02.000Z</time>
      </trkpt>
      <trkpt lat="49.59641" lon="3.43533">
        <ele>133.4</ele>
        <time>2025-10-05T13:35:03.000Z</time>
      </trkpt>
      <trkpt lat="49.5964" lon="3.43532">
        <ele>133.6</ele>
        <time>2025-10-05T13:35:04.000Z</time>
      </trkpt>
      <trkpt lat="49.5964" lon="3.43531">
        <ele>133.4</ele>
        <time>2025-10-05T13:35:05.000Z</time>
      </trkpt>
      <trkpt lat="49.59639" lon="3.43531">
        <ele>133.3</ele>
        <time>2025-10-05T13:35:06.000Z</time>
      </trkpt>
      <trkpt lat="49.59638" lon="3.43531">
        <ele>132.9</ele>
        <time>2025-10-05T13:35:07.000Z</time>
      </trkpt>
      <trkpt lat="49.59638" lon="3.43532">
        <ele>132.6</ele>
        <time>2025-10-05T13:35:08.000Z</time>
      </trkpt>
      <trkpt lat="49.59637" lon="3.43532">
        <ele>132.4</ele>
        <time>2025-10-05T13:35:09.000Z</time>
      </trkpt>
      <trkpt lat="49.59636" lon="3.43532">
        <ele>132.4</ele>
        <time>2025-10-05T13:35:10.000Z</time>
      </trkpt>
      <trkpt lat="49.59635" lon="3.43532">
        <ele>132.1</ele>
        <time>2025-10-05T13:35:11.000Z</time>
      </trkpt>
      <trkpt lat="49.59635" lon="3.43531">
        <ele>131.7</ele>
        <time>2025-10-05T13:35:12.000Z</time>
      </trkpt>
      <trkpt lat="49.59634" lon="3.43531">
        <ele>131.5</ele>
        <time>2025-10-05T13:35:13.000Z</time>
      </trkpt>
      <trkpt lat="49.59633" lon="3.43531">
        <ele>131.2</ele>
        <time>2025-10-05T13:35:14.000Z</time>
      </trkpt>
      <trkpt lat="49.59632" lon="3.43532">
        <ele>130.9</ele>
        <time>2025-10-05T13:35:15.000Z</time>
      </trkpt>
      <trkpt lat="49.59631" lon="3.43532">
        <ele>130.7</ele>
        <time>2025-10-05T13:35:16.000Z</time>
      </trkpt>
      <trkpt lat="49.5963" lon="3.43532">
        <ele>130.8</ele>
        <time>2025-10-05T13:35:17.000Z</time>
      </trkpt>
      <trkpt lat="49.59629" lon="3.43532">
        <ele>130.8</ele>
        <time>2025-10-05T13:35:18.000Z</time>
      </trkpt>
      <trkpt lat="49.59628" lon="3.43532">
        <ele>130.8</ele>
        <time>2025-10-05T13:35:19.000Z</time>
      </trkpt>
      <trkpt lat="49.59626" lon="3.43532">
        <ele>131.3</ele>
        <time>2025-10-05T13:35:20.000Z</time>
      </trkpt>
      <trkpt lat="49.59625" lon="3.43532">
        <ele>131.2</ele>
        <time>2025-10-05T13:35:21.000Z</time>
      </trkpt>
      <trkpt lat="49.59624" lon="3.43532">
        <ele>131.3</ele>
        <time>2025-10-05T13:35:22.000Z</time>
      </trkpt>
      <trkpt lat="49.59623" lon="3.43533">
        <ele>131.6</ele>
        <time>2025-10-05T13:35:23.000Z</time>
      </trkpt>
      <trkpt lat="49.59622" lon="3.43533">
        <ele>131.8</ele>
        <time>2025-10-05T13:35:24.000Z</time>
      </trkpt>
      <trkpt lat="49.59621" lon="3.43533">
        <ele>131.7</ele>
        <time>2025-10-05T13:35:25.000Z</time>
      </trkpt>
      <trkpt lat="49.59621" lon="3.43533">
        <ele>131.4</ele>
        <time>2025-10-05T13:35:26.000Z</time>
      </trkpt>
      <trkpt lat="49.5962" lon="3.43533">
        <ele>131.6</ele>
        <time>2025-10-05T13:35:27.000Z</time>
      </trkpt>
      <trkpt lat="49.59619" lon="3.43534">
        <ele>131.5</ele>
        <time>2025-10-05T13:35:28.000Z</time>
      </trkpt>
      <trkpt lat="49.59617" lon="3.43534">
        <ele>131.5</ele>
        <time>2025-10-05T13:35:29.000Z</time>
      </trkpt>
      <trkpt lat="49.59615" lon="3.43534">
        <ele>131.6</ele>
        <time>2025-10-05T13:35:30.000Z</time>
      </trkpt>
      <trkpt lat="49.59614" lon="3.43535">
        <ele>131.5</ele>
        <time>2025-10-05T13:35:31.000Z</time>
      </trkpt>
      <trkpt lat="49.59612" lon="3.43535">
        <ele>131.7</ele>
        <time>2025-10-05T13:35:32.000Z</time>
      </trkpt>
      <trkpt lat="49.59611" lon="3.43534">
        <ele>131.8</ele>
        <time>2025-10-05T13:35:33.000Z</time>
      </trkpt>
      <trkpt lat="49.59611" lon="3.43534">
        <ele>131.8</ele>
        <time>2025-10-05T13:35:34.000Z</time>
      </trkpt>
      <trkpt lat="49.59611" lon="3.43533">
        <ele>131.7</ele>
        <time>2025-10-05T13:35:35.000Z</time>
      </trkpt>
      <trkpt lat="49.5961" lon="3.43533">
        <ele>131.7</ele>
        <time>2025-10-05T13:35:36.000Z</time>
      </trkpt>
      <trkpt lat="49.59609" lon="3.43534">
        <ele>131.8</ele>
        <time>2025-10-05T13:35:37.000Z</time>
      </trkpt>
      <trkpt lat="49.59608" lon="3.43534">
        <ele>131.8</ele>
        <time>2025-10-05T13:35:38.000Z</time>
      </trkpt>
      <trkpt lat="49.59607" lon="3.43534">
        <ele>131.9</ele>
        <time>2025-10-05T13:35:39.000Z</time>
      </trkpt>
      <trkpt lat="49.59607" lon="3.43534">
        <ele>131.9</ele>
        <time>2025-10-05T13:35:40.000Z</time>
      </trkpt>
      <trkpt lat="49.59606" lon="3.43534">
        <ele>131.9</ele>
        <time>2025-10-05T13:35:41.000Z</time>
      </trkpt>
      <trkpt lat="49.59604" lon="3.43534">
        <ele>132</ele>
        <time>2025-10-05T13:35:42.000Z</time>
      </trkpt>
      <trkpt lat="49.59603" lon="3.43534">
        <ele>132.1</ele>
        <time>2025-10-05T13:35:43.000Z</time>
      </trkpt>
      <trkpt lat="49.59601" lon="3.43535">
        <ele>132.1</ele>
        <time>2025-10-05T13:35:44.000Z</time>
      </trkpt>
      <trkpt lat="49.596" lon="3.43534">
        <ele>131.9</ele>
        <time>2025-10-05T13:35:45.000Z</time>
      </trkpt>
      <trkpt lat="49.59599" lon="3.43534">
        <ele>131.8</ele>
        <time>2025-10-05T13:35:46.000Z</time>
      </trkpt>
      <trkpt lat="49.59598" lon="3.43534">
        <ele>131.8</ele>
        <time>2025-10-05T13:35:47.000Z</time>
      </trkpt>
      <trkpt lat="49.59597" lon="3.43534">
        <ele>131.7</ele>
        <time>2025-10-05T13:35:48.000Z</time>
      </trkpt>
      <trkpt lat="49.59596" lon="3.43534">
        <ele>131.8</ele>
        <time>2025-10-05T13:35:49.000Z</time>
      </trkpt>
      <trkpt lat="49.59595" lon="3.43535">
        <ele>131.8</ele>
        <time>2025-10-05T13:35:50.000Z</time>
      </trkpt>
      <trkpt lat="49.59594" lon="3.43535">
        <ele>132.1</ele>
        <time>2025-10-05T13:35:51.000Z</time>
      </trkpt>
      <trkpt lat="49.59593" lon="3.43535">
        <ele>132.5</ele>
        <time>2025-10-05T13:35:52.000Z</time>
      </trkpt>
      <trkpt lat="49.59593" lon="3.43535">
        <ele>132.3</ele>
        <time>2025-10-05T13:35:53.000Z</time>
      </trkpt>
      <trkpt lat="49.59592" lon="3.43535">
        <ele>132.2</ele>
        <time>2025-10-05T13:35:54.000Z</time>
      </trkpt>
      <trkpt lat="49.59591" lon="3.43536">
        <ele>132.2</ele>
        <time>2025-10-05T13:35:55.000Z</time>
      </trkpt>
      <trkpt lat="49.59589" lon="3.43536">
        <ele>132.3</ele>
        <time>2025-10-05T13:35:56.000Z</time>
      </trkpt>
      <trkpt lat="49.59587" lon="3.43537">
        <ele>132.4</ele>
        <time>2025-10-05T13:35:57.000Z</time>
      </trkpt>
      <trkpt lat="49.59586" lon="3.43536">
        <ele>132.6</ele>
        <time>2025-10-05T13:35:58.000Z</time>
      </trkpt>
      <trkpt lat="49.59586" lon="3.43537">
        <ele>132.5</ele>
        <time>2025-10-05T13:35:59.000Z</time>
      </trkpt>
      <trkpt lat="49.59585" lon="3.43537">
        <ele>132.5</ele>
        <time>2025-10-05T13:36:00.000Z</time>
      </trkpt>
      <trkpt lat="49.59584" lon="3.43537">
        <ele>132.3</ele>
        <time>2025-10-05T13:36:01.000Z</time>
      </trkpt>
      <trkpt lat="49.59583" lon="3.43537">
        <ele>132.4</ele>
        <time>2025-10-05T13:36:02.000Z</time>
      </trkpt>
      <trkpt lat="49.59582" lon="3.43537">
        <ele>132.5</ele>
        <time>2025-10-05T13:36:03.000Z</time>
      </trkpt>
      <trkpt lat="49.59581" lon="3.43537">
        <ele>132.3</ele>
        <time>2025-10-05T13:36:04.000Z</time>
      </trkpt>
      <trkpt lat="49.5958" lon="3.43538">
        <ele>132.1</ele>
        <time>2025-10-05T13:36:05.000Z</time>
      </trkpt>
      <trkpt lat="49.59579" lon="3.43538">
        <ele>131.8</ele>
        <time>2025-10-05T13:36:06.000Z</time>
      </trkpt>
      <trkpt lat="49.59578" lon="3.43539">
        <ele>131.7</ele>
        <time>2025-10-05T13:36:07.000Z</time>
      </trkpt>
      <trkpt lat="49.59577" lon="3.43538">
        <ele>131.6</ele>
        <time>2025-10-05T13:36:08.000Z</time>
      </trkpt>
      <trkpt lat="49.59575" lon="3.43538">
        <ele>131.5</ele>
        <time>2025-10-05T13:36:09.000Z</time>
      </trkpt>
      <trkpt lat="49.59574" lon="3.43539">
        <ele>131.4</ele>
        <time>2025-10-05T13:36:10.000Z</time>
      </trkpt>
      <trkpt lat="49.59572" lon="3.43539">
        <ele>131.4</ele>
        <time>2025-10-05T13:36:11.000Z</time>
      </trkpt>
      <trkpt lat="49.59572" lon="3.43539">
        <ele>131.4</ele>
        <time>2025-10-05T13:36:12.000Z</time>
      </trkpt>
      <trkpt lat="49.5957" lon="3.43539">
        <ele>131.4</ele>
        <time>2025-10-05T13:36:13.000Z</time>
      </trkpt>
      <trkpt lat="49.5957" lon="3.43539">
        <ele>131.3</ele>
        <time>2025-10-05T13:36:14.000Z</time>
      </trkpt>
      <trkpt lat="49.59569" lon="3.4354">
        <ele>131.2</ele>
        <time>2025-10-05T13:36:15.000Z</time>
      </trkpt>
      <trkpt lat="49.59568" lon="3.4354">
        <ele>131.4</ele>
        <time>2025-10-05T13:36:16.000Z</time>
      </trkpt>
      <trkpt lat="49.59568" lon="3.43539">
        <ele>131.5</ele>
        <time>2025-10-05T13:36:17.000Z</time>
      </trkpt>
      <trkpt lat="49.59567" lon="3.43539">
        <ele>131.3</ele>
        <time>2025-10-05T13:36:18.000Z</time>
      </trkpt>
      <trkpt lat="49.59566" lon="3.43539">
        <ele>131.7</ele>
        <time>2025-10-05T13:36:19.000Z</time>
      </trkpt>
      <trkpt lat="49.59565" lon="3.43539">
        <ele>131.7</ele>
        <time>2025-10-05T13:36:20.000Z</time>
      </trkpt>
      <trkpt lat="49.59565" lon="3.43539">
        <ele>131.6</ele>
        <time>2025-10-05T13:36:21.000Z</time>
      </trkpt>
      <trkpt lat="49.59564" lon="3.43539">
        <ele>131.6</ele>
        <time>2025-10-05T13:36:22.000Z</time>
      </trkpt>
      <trkpt lat="49.59562" lon="3.43539">
        <ele>131.6</ele>
        <time>2025-10-05T13:36:23.000Z</time>
      </trkpt>
      <trkpt lat="49.59561" lon="3.43539">
        <ele>131.6</ele>
        <time>2025-10-05T13:36:24.000Z</time>
      </trkpt>
      <trkpt lat="49.5956" lon="3.43538">
        <ele>131.5</ele>
        <time>2025-10-05T13:36:25.000Z</time>
      </trkpt>
      <trkpt lat="49.59559" lon="3.43538">
        <ele>131.5</ele>
        <time>2025-10-05T13:36:26.000Z</time>
      </trkpt>
      <trkpt lat="49.59559" lon="3.43536">
        <ele>131.4</ele>
        <time>2025-10-05T13:36:27.000Z</time>
      </trkpt>
      <trkpt lat="49.59558" lon="3.43536">
        <ele>131.1</ele>
        <time>2025-10-05T13:36:28.000Z</time>
      </trkpt>
      <trkpt lat="49.59558" lon="3.43536">
        <ele>130.8</ele>
        <time>2025-10-05T13:36:29.000Z</time>
      </trkpt>
      <trkpt lat="49.59557" lon="3.43536">
        <ele>130.4</ele>
        <time>2025-10-05T13:36:30.000Z</time>
      </trkpt>
      <trkpt lat="49.59556" lon="3.43536">
        <ele>130.3</ele>
        <time>2025-10-05T13:36:31.000Z</time>
      </trkpt>
      <trkpt lat="49.59555" lon="3.43536">
        <ele>130.4</ele>
        <time>2025-10-05T13:36:32.000Z</time>
      </trkpt>
      <trkpt lat="49.59554" lon="3.43536">
        <ele>130.3</ele>
        <time>2025-10-05T13:36:33.000Z</time>
      </trkpt>
      <trkpt lat="49.59553" lon="3.43535">
        <ele>130.3</ele>
        <time>2025-10-05T13:36:34.000Z</time>
      </trkpt>
      <trkpt lat="49.59552" lon="3.43535">
        <ele>130.2</ele>
        <time>2025-10-05T13:36:35.000Z</time>
      </trkpt>
      <trkpt lat="49.59551" lon="3.43535">
        <ele>130.1</ele>
        <time>2025-10-05T13:36:36.000Z</time>
      </trkpt>
      <trkpt lat="49.5955" lon="3.43535">
        <ele>130.2</ele>
        <time>2025-10-05T13:36:37.000Z</time>
      </trkpt>
      <trkpt lat="49.59549" lon="3.43535">
        <ele>130.3</ele>
        <time>2025-10-05T13:36:38.000Z</time>
      </trkpt>
      <trkpt lat="49.59547" lon="3.43536">
        <ele>130.2</ele>
        <time>2025-10-05T13:36:39.000Z</time>
      </trkpt>
      <trkpt lat="49.59546" lon="3.43537">
        <ele>129.8</ele>
        <time>2025-10-05T13:36:40.000Z</time>
      </trkpt>
      <trkpt lat="49.59545" lon="3.43537">
        <ele>129.7</ele>
        <time>2025-10-05T13:36:41.000Z</time>
      </trkpt>
      <trkpt lat="49.59544" lon="3.43537">
        <ele>129.5</ele>
        <time>2025-10-05T13:36:42.000Z</time>
      </trkpt>
      <trkpt lat="49.59543" lon="3.43537">
        <ele>129.8</ele>
        <time>2025-10-05T13:36:43.000Z</time>
      </trkpt>
      <trkpt lat="49.59542" lon="3.43537">
        <ele>130.1</ele>
        <time>2025-10-05T13:36:44.000Z</time>
      </trkpt>
      <trkpt lat="49.59541" lon="3.43537">
        <ele>130.6</ele>
        <time>2025-10-05T13:36:45.000Z</time>
      </trkpt>
      <trkpt lat="49.5954" lon="3.43536">
        <ele>130.7</ele>
        <time>2025-10-05T13:36:46.000Z</time>
      </trkpt>
      <trkpt lat="49.59539" lon="3.43536">
        <ele>130.7</ele>
        <time>2025-10-05T13:36:47.000Z</time>
      </trkpt>
      <trkpt lat="49.59538" lon="3.43536">
        <ele>131</ele>
        <time>2025-10-05T13:36:48.000Z</time>
      </trkpt>
      <trkpt lat="49.59537" lon="3.43536">
        <ele>131.4</ele>
        <time>2025-10-05T13:36:49.000Z</time>
      </trkpt>
      <trkpt lat="49.59536" lon="3.43536">
        <ele>131.5</ele>
        <time>2025-10-05T13:36:50.000Z</time>
      </trkpt>
      <trkpt lat="49.59535" lon="3.43535">
        <ele>131.6</ele>
        <time>2025-10-05T13:36:51.000Z</time>
      </trkpt>
      <trkpt lat="49.59534" lon="3.43535">
        <ele>131.3</ele>
        <time>2025-10-05T13:36:52.000Z</time>
      </trkpt>
      <trkpt lat="49.59533" lon="3.43535">
        <ele>131</ele>
        <time>2025-10-05T13:36:53.000Z</time>
      </trkpt>
      <trkpt lat="49.59532" lon="3.43535">
        <ele>130.8</ele>
        <time>2025-10-05T13:36:54.000Z</time>
      </trkpt>
      <trkpt lat="49.59531" lon="3.43534">
        <ele>130.5</ele>
        <time>2025-10-05T13:36:55.000Z</time>
      </trkpt>
      <trkpt lat="49.5953" lon="3.43534">
        <ele>130.4</ele>
        <time>2025-10-05T13:36:56.000Z</time>
      </trkpt>
      <trkpt lat="49.59529" lon="3.43534">
        <ele>130.7</ele>
        <time>2025-10-05T13:36:57.000Z</time>
      </trkpt>
      <trkpt lat="49.59529" lon="3.43534">
        <ele>130.8</ele>
        <time>2025-10-05T13:36:58.000Z</time>
      </trkpt>
      <trkpt lat="49.59528" lon="3.43533">
        <ele>131</ele>
        <time>2025-10-05T13:36:59.000Z</time>
      </trkpt>
      <trkpt lat="49.59527" lon="3.43533">
        <ele>131</ele>
        <time>2025-10-05T13:37:00.000Z</time>
      </trkpt>
      <trkpt lat="49.59526" lon="3.43533">
        <ele>130.8</ele>
        <time>2025-10-05T13:37:01.000Z</time>
      </trkpt>
      <trkpt lat="49.59525" lon="3.43532">
        <ele>130.4</ele>
        <time>2025-10-05T13:37:02.000Z</time>
      </trkpt>
      <trkpt lat="49.59524" lon="3.43531">
        <ele>130.1</ele>
        <time>2025-10-05T13:37:03.000Z</time>
      </trkpt>
      <trkpt lat="49.59524" lon="3.4353">
        <ele>129.9</ele>
        <time>2025-10-05T13:37:04.000Z</time>
      </trkpt>
      <trkpt lat="49.59523" lon="3.43529">
        <ele>130</ele>
        <time>2025-10-05T13:37:05.000Z</time>
      </trkpt>
      <trkpt lat="49.59521" lon="3.43529">
        <ele>129.8</ele>
        <time>2025-10-05T13:37:06.000Z</time>
      </trkpt>
      <trkpt lat="49.59519" lon="3.43529">
        <ele>129.4</ele>
        <time>2025-10-05T13:37:07.000Z</time>
      </trkpt>
      <trkpt lat="49.59518" lon="3.43529">
        <ele>129.2</ele>
        <time>2025-10-05T13:37:08.000Z</time>
      </trkpt>
      <trkpt lat="49.59517" lon="3.43528">
        <ele>129.2</ele>
        <time>2025-10-05T13:37:09.000Z</time>
      </trkpt>
      <trkpt lat="49.59517" lon="3.43528">
        <ele>129.3</ele>
        <time>2025-10-05T13:37:10.000Z</time>
      </trkpt>
      <trkpt lat="49.59516" lon="3.43527">
        <ele>129.5</ele>
        <time>2025-10-05T13:37:11.000Z</time>
      </trkpt>
      <trkpt lat="49.59516" lon="3.43527">
        <ele>129.4</ele>
        <time>2025-10-05T13:37:12.000Z</time>
      </trkpt>
      <trkpt lat="49.59515" lon="3.43527">
        <ele>129.2</ele>
        <time>2025-10-05T13:37:13.000Z</time>
      </trkpt>
      <trkpt lat="49.59515" lon="3.43527">
        <ele>129.3</ele>
        <time>2025-10-05T13:37:14.000Z</time>
      </trkpt>
      <trkpt lat="49.59514" lon="3.43526">
        <ele>129.4</ele>
        <time>2025-10-05T13:37:15.000Z</time>
      </trkpt>
      <trkpt lat="49.59513" lon="3.43526">
        <ele>129.3</ele>
        <time>2025-10-05T13:37:16.000Z</time>
      </trkpt>
      <trkpt lat="49.59512" lon="3.43526">
        <ele>129.2</ele>
        <time>2025-10-05T13:37:17.000Z</time>
      </trkpt>
      <trkpt lat="49.59511" lon="3.43526">
        <ele>129.1</ele>
        <time>2025-10-05T13:37:18.000Z</time>
      </trkpt>
      <trkpt lat="49.5951" lon="3.43526">
        <ele>129</ele>
        <time>2025-10-05T13:37:19.000Z</time>
      </trkpt>
      <trkpt lat="49.59509" lon="3.43524">
        <ele>128.9</ele>
        <time>2025-10-05T13:37:20.000Z</time>
      </trkpt>
      <trkpt lat="49.59508" lon="3.43524">
        <ele>128.8</ele>
        <time>2025-10-05T13:37:21.000Z</time>
      </trkpt>
      <trkpt lat="49.59506" lon="3.43524">
        <ele>128.5</ele>
        <time>2025-10-05T13:37:22.000Z</time>
      </trkpt>
      <trkpt lat="49.59505" lon="3.43523">
        <ele>128</ele>
        <time>2025-10-05T13:37:23.000Z</time>
      </trkpt>
      <trkpt lat="49.59504" lon="3.43522">
        <ele>127.3</ele>
        <time>2025-10-05T13:37:24.000Z</time>
      </trkpt>
      <trkpt lat="49.59503" lon="3.43521">
        <ele>127</ele>
        <time>2025-10-05T13:37:25.000Z</time>
      </trkpt>
      <trkpt lat="49.59502" lon="3.43521">
        <ele>126.7</ele>
        <time>2025-10-05T13:37:26.000Z</time>
      </trkpt>
      <trkpt lat="49.59502" lon="3.43521">
        <ele>126.3</ele>
        <time>2025-10-05T13:37:27.000Z</time>
      </trkpt>
      <trkpt lat="49.595" lon="3.43521">
        <ele>125.9</ele>
        <time>2025-10-05T13:37:28.000Z</time>
      </trkpt>
      <trkpt lat="49.59499" lon="3.4352">
        <ele>125.7</ele>
        <time>2025-10-05T13:37:29.000Z</time>
      </trkpt>
      <trkpt lat="49.59499" lon="3.43519">
        <ele>125.5</ele>
        <time>2025-10-05T13:37:30.000Z</time>
      </trkpt>
      <trkpt lat="49.59498" lon="3.43518">
        <ele>125.4</ele>
        <time>2025-10-05T13:37:31.000Z</time>
      </trkpt>
      <trkpt lat="49.59497" lon="3.43517">
        <ele>125.2</ele>
        <time>2025-10-05T13:37:32.000Z</time>
      </trkpt>
      <trkpt lat="49.59496" lon="3.43517">
        <ele>125.2</ele>
        <time>2025-10-05T13:37:33.000Z</time>
      </trkpt>
      <trkpt lat="49.59495" lon="3.43516">
        <ele>125</ele>
        <time>2025-10-05T13:37:34.000Z</time>
      </trkpt>
      <trkpt lat="49.59493" lon="3.43515">
        <ele>124.8</ele>
        <time>2025-10-05T13:37:35.000Z</time>
      </trkpt>
      <trkpt lat="49.59492" lon="3.43514">
        <ele>124.9</ele>
        <time>2025-10-05T13:37:36.000Z</time>
      </trkpt>
      <trkpt lat="49.59491" lon="3.43515">
        <ele>125.2</ele>
        <time>2025-10-05T13:37:37.000Z</time>
      </trkpt>
      <trkpt lat="49.59491" lon="3.43514">
        <ele>125.7</ele>
        <time>2025-10-05T13:37:38.000Z</time>
      </trkpt>
      <trkpt lat="49.59491" lon="3.43515">
        <ele>126.5</ele>
        <time>2025-10-05T13:37:39.000Z</time>
      </trkpt>
      <trkpt lat="49.59489" lon="3.43515">
        <ele>126.8</ele>
        <time>2025-10-05T13:37:40.000Z</time>
      </trkpt>
      <trkpt lat="49.59488" lon="3.43515">
        <ele>127.3</ele>
        <time>2025-10-05T13:37:41.000Z</time>
      </trkpt>
      <trkpt lat="49.59487" lon="3.43516">
        <ele>128.1</ele>
        <time>2025-10-05T13:37:42.000Z</time>
      </trkpt>
      <trkpt lat="49.59485" lon="3.43516">
        <ele>128.4</ele>
        <time>2025-10-05T13:37:43.000Z</time>
      </trkpt>
      <trkpt lat="49.59484" lon="3.43516">
        <ele>128.7</ele>
        <time>2025-10-05T13:37:44.000Z</time>
      </trkpt>
      <trkpt lat="49.59483" lon="3.43516">
        <ele>128.9</ele>
        <time>2025-10-05T13:37:45.000Z</time>
      </trkpt>
      <trkpt lat="49.59482" lon="3.43516">
        <ele>129.2</ele>
        <time>2025-10-05T13:37:46.000Z</time>
      </trkpt>
      <trkpt lat="49.59481" lon="3.43515">
        <ele>129.9</ele>
        <time>2025-10-05T13:37:47.000Z</time>
      </trkpt>
      <trkpt lat="49.5948" lon="3.43516">
        <ele>130.3</ele>
        <time>2025-10-05T13:37:48.000Z</time>
      </trkpt>
      <trkpt lat="49.59479" lon="3.43516">
        <ele>130.5</ele>
        <time>2025-10-05T13:37:49.000Z</time>
      </trkpt>
      <trkpt lat="49.59477" lon="3.43516">
        <ele>130.1</ele>
        <time>2025-10-05T13:37:50.000Z</time>
      </trkpt>
      <trkpt lat="49.59476" lon="3.43517">
        <ele>129.8</ele>
        <time>2025-10-05T13:37:51.000Z</time>
      </trkpt>
      <trkpt lat="49.59474" lon="3.43516">
        <ele>130.2</ele>
        <time>2025-10-05T13:37:52.000Z</time>
      </trkpt>
      <trkpt lat="49.59473" lon="3.43517">
        <ele>130.3</ele>
        <time>2025-10-05T13:37:53.000Z</time>
      </trkpt>
      <trkpt lat="49.59472" lon="3.43517">
        <ele>130.6</ele>
        <time>2025-10-05T13:37:54.000Z</time>
      </trkpt>
      <trkpt lat="49.59471" lon="3.43517">
        <ele>130.9</ele>
        <time>2025-10-05T13:37:55.000Z</time>
      </trkpt>
      <trkpt lat="49.59471" lon="3.43517">
        <ele>130.8</ele>
        <time>2025-10-05T13:37:56.000Z</time>
      </trkpt>
      <trkpt lat="49.59471" lon="3.43517">
        <ele>130.9</ele>
        <time>2025-10-05T13:37:57.000Z</time>
      </trkpt>
      <trkpt lat="49.5947" lon="3.43517">
        <ele>131</ele>
        <time>2025-10-05T13:37:58.000Z</time>
      </trkpt>
      <trkpt lat="49.59469" lon="3.43516">
        <ele>131</ele>
        <time>2025-10-05T13:37:59.000Z</time>
      </trkpt>
      <trkpt lat="49.59468" lon="3.43516">
        <ele>130.8</ele>
        <time>2025-10-05T13:38:00.000Z</time>
      </trkpt>
      <trkpt lat="49.59467" lon="3.43516">
        <ele>130.9</ele>
        <time>2025-10-05T13:38:01.000Z</time>
      </trkpt>
      <trkpt lat="49.59467" lon="3.43516">
        <ele>131.1</ele>
        <time>2025-10-05T13:38:02.000Z</time>
      </trkpt>
      <trkpt lat="49.59466" lon="3.43516">
        <ele>131.2</ele>
        <time>2025-10-05T13:38:03.000Z</time>
      </trkpt>
      <trkpt lat="49.59465" lon="3.43515">
        <ele>131.3</ele>
        <time>2025-10-05T13:38:04.000Z</time>
      </trkpt>
      <trkpt lat="49.59464" lon="3.43514">
        <ele>131.1</ele>
        <time>2025-10-05T13:38:05.000Z</time>
      </trkpt>
      <trkpt lat="49.59464" lon="3.43513">
        <ele>131.2</ele>
        <time>2025-10-05T13:38:06.000Z</time>
      </trkpt>
      <trkpt lat="49.59463" lon="3.43512">
        <ele>131</ele>
        <time>2025-10-05T13:38:07.000Z</time>
      </trkpt>
      <trkpt lat="49.59462" lon="3.43511">
        <ele>130.8</ele>
        <time>2025-10-05T13:38:08.000Z</time>
      </trkpt>
      <trkpt lat="49.59461" lon="3.4351">
        <ele>130.6</ele>
        <time>2025-10-05T13:38:09.000Z</time>
      </trkpt>
      <trkpt lat="49.59461" lon="3.4351">
        <ele>130.5</ele>
        <time>2025-10-05T13:38:10.000Z</time>
      </trkpt>
      <trkpt lat="49.59461" lon="3.4351">
        <ele>130.2</ele>
        <time>2025-10-05T13:38:11.000Z</time>
      </trkpt>
      <trkpt lat="49.5946" lon="3.43509">
        <ele>130</ele>
        <time>2025-10-05T13:38:12.000Z</time>
      </trkpt>
      <trkpt lat="49.59459" lon="3.43509">
        <ele>130</ele>
        <time>2025-10-05T13:38:13.000Z</time>
      </trkpt>
      <trkpt lat="49.59458" lon="3.4351">
        <ele>129.8</ele>
        <time>2025-10-05T13:38:14.000Z</time>
      </trkpt>
      <trkpt lat="49.59457" lon="3.4351">
        <ele>129.7</ele>
        <time>2025-10-05T13:38:15.000Z</time>
      </trkpt>
      <trkpt lat="49.59456" lon="3.4351">
        <ele>129.6</ele>
        <time>2025-10-05T13:38:16.000Z</time>
      </trkpt>
      <trkpt lat="49.59455" lon="3.4351">
        <ele>129.6</ele>
        <time>2025-10-05T13:38:17.000Z</time>
      </trkpt>
      <trkpt lat="49.59454" lon="3.43511">
        <ele>129.8</ele>
        <time>2025-10-05T13:38:18.000Z</time>
      </trkpt>
      <trkpt lat="49.59454" lon="3.43512">
        <ele>130.1</ele>
        <time>2025-10-05T13:38:19.000Z</time>
      </trkpt>
      <trkpt lat="49.59453" lon="3.43511">
        <ele>130.4</ele>
        <time>2025-10-05T13:38:20.000Z</time>
      </trkpt>
      <trkpt lat="49.59452" lon="3.4351">
        <ele>130.6</ele>
        <time>2025-10-05T13:38:21.000Z</time>
      </trkpt>
      <trkpt lat="49.59451" lon="3.4351">
        <ele>130.5</ele>
        <time>2025-10-05T13:38:22.000Z</time>
      </trkpt>
      <trkpt lat="49.5945" lon="3.4351">
        <ele>130.7</ele>
        <time>2025-10-05T13:38:23.000Z</time>
      </trkpt>
      <trkpt lat="49.5945" lon="3.43509">
        <ele>130.9</ele>
        <time>2025-10-05T13:38:24.000Z</time>
      </trkpt>
      <trkpt lat="49.59449" lon="3.43508">
        <ele>131.1</ele>
        <time>2025-10-05T13:38:25.000Z</time>
      </trkpt>
      <trkpt lat="49.59449" lon="3.43508">
        <ele>131.2</ele>
        <time>2025-10-05T13:38:26.000Z</time>
      </trkpt>
      <trkpt lat="49.59449" lon="3.43508">
        <ele>131.5</ele>
        <time>2025-10-05T13:38:27.000Z</time>
      </trkpt>
      <trkpt lat="49.59448" lon="3.43508">
        <ele>131.7</ele>
        <time>2025-10-05T13:38:28.000Z</time>
      </trkpt>
      <trkpt lat="49.59447" lon="3.43507">
        <ele>131.9</ele>
        <time>2025-10-05T13:38:29.000Z</time>
      </trkpt>
      <trkpt lat="49.59446" lon="3.43507">
        <ele>132.3</ele>
        <time>2025-10-05T13:38:30.000Z</time>
      </trkpt>
      <trkpt lat="49.59445" lon="3.43507">
        <ele>132.8</ele>
        <time>2025-10-05T13:38:31.000Z</time>
      </trkpt>
      <trkpt lat="49.59444" lon="3.43507">
        <ele>133</ele>
        <time>2025-10-05T13:38:32.000Z</time>
      </trkpt>
      <trkpt lat="49.59443" lon="3.43509">
        <ele>133</ele>
        <time>2025-10-05T13:38:33.000Z</time>
      </trkpt>
      <trkpt lat="49.59442" lon="3.43509">
        <ele>132.8</ele>
        <time>2025-10-05T13:38:34.000Z</time>
      </trkpt>
      <trkpt lat="49.59441" lon="3.43509">
        <ele>132.8</ele>
        <time>2025-10-05T13:38:35.000Z</time>
      </trkpt>
      <trkpt lat="49.5944" lon="3.43509">
        <ele>132.6</ele>
        <time>2025-10-05T13:38:36.000Z</time>
      </trkpt>
      <trkpt lat="49.5944" lon="3.43509">
        <ele>132.4</ele>
        <time>2025-10-05T13:38:37.000Z</time>
      </trkpt>
      <trkpt lat="49.59439" lon="3.43509">
        <ele>132.3</ele>
        <time>2025-10-05T13:38:38.000Z</time>
      </trkpt>
      <trkpt lat="49.59438" lon="3.43509">
        <ele>132.2</ele>
        <time>2025-10-05T13:38:39.000Z</time>
      </trkpt>
      <trkpt lat="49.59437" lon="3.43509">
        <ele>132</ele>
        <time>2025-10-05T13:38:40.000Z</time>
      </trkpt>
      <trkpt lat="49.59436" lon="3.43508">
        <ele>131.7</ele>
        <time>2025-10-05T13:38:41.000Z</time>
      </trkpt>
      <trkpt lat="49.59435" lon="3.43507">
        <ele>131.4</ele>
        <time>2025-10-05T13:38:42.000Z</time>
      </trkpt>
      <trkpt lat="49.59435" lon="3.43507">
        <ele>131.1</ele>
        <time>2025-10-05T13:38:43.000Z</time>
      </trkpt>
      <trkpt lat="49.59433" lon="3.43508">
        <ele>131</ele>
        <time>2025-10-05T13:38:44.000Z</time>
      </trkpt>
      <trkpt lat="49.59432" lon="3.43509">
        <ele>131.4</ele>
        <time>2025-10-05T13:38:45.000Z</time>
      </trkpt>
      <trkpt lat="49.59431" lon="3.43509">
        <ele>131.5</ele>
        <time>2025-10-05T13:38:46.000Z</time>
      </trkpt>
      <trkpt lat="49.5943" lon="3.43509">
        <ele>131.5</ele>
        <time>2025-10-05T13:38:47.000Z</time>
      </trkpt>
      <trkpt lat="49.59429" lon="3.43509">
        <ele>131.6</ele>
        <time>2025-10-05T13:38:48.000Z</time>
      </trkpt>
      <trkpt lat="49.59428" lon="3.43509">
        <ele>131.7</ele>
        <time>2025-10-05T13:38:49.000Z</time>
      </trkpt>
      <trkpt lat="49.59427" lon="3.43509">
        <ele>131.8</ele>
        <time>2025-10-05T13:38:50.000Z</time>
      </trkpt>
      <trkpt lat="49.59426" lon="3.4351">
        <ele>132.1</ele>
        <time>2025-10-05T13:38:51.000Z</time>
      </trkpt>
      <trkpt lat="49.59426" lon="3.43511">
        <ele>132.4</ele>
        <time>2025-10-05T13:38:52.000Z</time>
      </trkpt>
      <trkpt lat="49.59426" lon="3.43511">
        <ele>132.8</ele>
        <time>2025-10-05T13:38:53.000Z</time>
      </trkpt>
      <trkpt lat="49.59426" lon="3.4351">
        <ele>133.1</ele>
        <time>2025-10-05T13:38:54.000Z</time>
      </trkpt>
      <trkpt lat="49.59424" lon="3.4351">
        <ele>133.6</ele>
        <time>2025-10-05T13:38:55.000Z</time>
      </trkpt>
      <trkpt lat="49.59423" lon="3.4351">
        <ele>133.9</ele>
        <time>2025-10-05T13:38:56.000Z</time>
      </trkpt>
      <trkpt lat="49.59422" lon="3.4351">
        <ele>134.3</ele>
        <time>2025-10-05T13:38:57.000Z</time>
      </trkpt>
      <trkpt lat="49.59422" lon="3.43511">
        <ele>134.9</ele>
        <time>2025-10-05T13:38:58.000Z</time>
      </trkpt>
      <trkpt lat="49.59421" lon="3.43511">
        <ele>135.3</ele>
        <time>2025-10-05T13:38:59.000Z</time>
      </trkpt>
      <trkpt lat="49.5942" lon="3.43511">
        <ele>135.7</ele>
        <time>2025-10-05T13:39:00.000Z</time>
      </trkpt>
      <trkpt lat="49.59419" lon="3.43512">
        <ele>135.9</ele>
        <time>2025-10-05T13:39:01.000Z</time>
      </trkpt>
      <trkpt lat="49.59418" lon="3.43512">
        <ele>136.3</ele>
        <time>2025-10-05T13:39:02.000Z</time>
      </trkpt>
      <trkpt lat="49.59417" lon="3.43513">
        <ele>136.7</ele>
        <time>2025-10-05T13:39:03.000Z</time>
      </trkpt>
      <trkpt lat="49.59416" lon="3.43513">
        <ele>136.6</ele>
        <time>2025-10-05T13:39:04.000Z</time>
      </trkpt>
      <trkpt lat="49.59415" lon="3.43512">
        <ele>136.9</ele>
        <time>2025-10-05T13:39:05.000Z</time>
      </trkpt>
      <trkpt lat="49.59414" lon="3.43512">
        <ele>137.1</ele>
        <time>2025-10-05T13:39:06.000Z</time>
      </trkpt>
      <trkpt lat="49.59413" lon="3.43512">
        <ele>137.1</ele>
        <time>2025-10-05T13:39:07.000Z</time>
      </trkpt>
      <trkpt lat="49.59412" lon="3.43511">
        <ele>137.1</ele>
        <time>2025-10-05T13:39:08.000Z</time>
      </trkpt>
      <trkpt lat="49.59411" lon="3.43511">
        <ele>137.2</ele>
        <time>2025-10-05T13:39:09.000Z</time>
      </trkpt>
      <trkpt lat="49.59411" lon="3.4351">
        <ele>137</ele>
        <time>2025-10-05T13:39:10.000Z</time>
      </trkpt>
      <trkpt lat="49.5941" lon="3.43509">
        <ele>136.5</ele>
        <time>2025-10-05T13:39:11.000Z</time>
      </trkpt>
      <trkpt lat="49.59409" lon="3.43509">
        <ele>136.2</ele>
        <time>2025-10-05T13:39:12.000Z</time>
      </trkpt>
      <trkpt lat="49.59408" lon="3.43508">
        <ele>136</ele>
        <time>2025-10-05T13:39:13.000Z</time>
      </trkpt>
      <trkpt lat="49.59407" lon="3.43506">
        <ele>136.1</ele>
        <time>2025-10-05T13:39:14.000Z</time>
      </trkpt>
      <trkpt lat="49.59406" lon="3.43505">
        <ele>136.1</ele>
        <time>2025-10-05T13:39:15.000Z</time>
      </trkpt>
      <trkpt lat="49.59405" lon="3.43503">
        <ele>136.1</ele>
        <time>2025-10-05T13:39:16.000Z</time>
      </trkpt>
      <trkpt lat="49.59404" lon="3.43502">
        <ele>135.7</ele>
        <time>2025-10-05T13:39:17.000Z</time>
      </trkpt>
      <trkpt lat="49.59404" lon="3.435">
        <ele>135.5</ele>
        <time>2025-10-05T13:39:18.000Z</time>
      </trkpt>
      <trkpt lat="49.59404" lon="3.435">
        <ele>135.4</ele>
        <time>2025-10-05T13:39:19.000Z</time>
      </trkpt>
      <trkpt lat="49.59404" lon="3.43498">
        <ele>134.8</ele>
        <time>2025-10-05T13:39:20.000Z</time>
      </trkpt>
      <trkpt lat="49.59404" lon="3.43497">
        <ele>134.5</ele>
        <time>2025-10-05T13:39:21.000Z</time>
      </trkpt>
      <trkpt lat="49.59404" lon="3.43495">
        <ele>134</ele>
        <time>2025-10-05T13:39:22.000Z</time>
      </trkpt>
      <trkpt lat="49.59403" lon="3.43493">
        <ele>133.4</ele>
        <time>2025-10-05T13:39:23.000Z</time>
      </trkpt>
      <trkpt lat="49.59403" lon="3.43491">
        <ele>132.6</ele>
        <time>2025-10-05T13:39:24.000Z</time>
      </trkpt>
      <trkpt lat="49.59403" lon="3.4349">
        <ele>132.3</ele>
        <time>2025-10-05T13:39:25.000Z</time>
      </trkpt>
      <trkpt lat="49.59404" lon="3.43489">
        <ele>131.6</ele>
        <time>2025-10-05T13:39:26.000Z</time>
      </trkpt>
      <trkpt lat="49.59403" lon="3.43487">
        <ele>131.3</ele>
        <time>2025-10-05T13:39:27.000Z</time>
      </trkpt>
      <trkpt lat="49.59403" lon="3.43486">
        <ele>131.1</ele>
        <time>2025-10-05T13:39:28.000Z</time>
      </trkpt>
      <trkpt lat="49.59404" lon="3.43484">
        <ele>130.6</ele>
        <time>2025-10-05T13:39:29.000Z</time>
      </trkpt>
      <trkpt lat="49.59404" lon="3.43483">
        <ele>130.5</ele>
        <time>2025-10-05T13:39:30.000Z</time>
      </trkpt>
      <trkpt lat="49.59404" lon="3.43481">
        <ele>130</ele>
        <time>2025-10-05T13:39:31.000Z</time>
      </trkpt>
      <trkpt lat="49.59405" lon="3.43479">
        <ele>129.5</ele>
        <time>2025-10-05T13:39:32.000Z</time>
      </trkpt>
      <trkpt lat="49.59404" lon="3.43478">
        <ele>129.1</ele>
        <time>2025-10-05T13:39:33.000Z</time>
      </trkpt>
      <trkpt lat="49.59405" lon="3.43476">
        <ele>128.4</ele>
        <time>2025-10-05T13:39:34.000Z</time>
      </trkpt>
      <trkpt lat="49.59405" lon="3.43474">
        <ele>127.8</ele>
        <time>2025-10-05T13:39:35.000Z</time>
      </trkpt>
      <trkpt lat="49.59405" lon="3.43472">
        <ele>127.4</ele>
        <time>2025-10-05T13:39:36.000Z</time>
      </trkpt>
      <trkpt lat="49.59406" lon="3.43471">
        <ele>126.9</ele>
        <time>2025-10-05T13:39:37.000Z</time>
      </trkpt>
      <trkpt lat="49.59406" lon="3.43469">
        <ele>126.4</ele>
        <time>2025-10-05T13:39:38.000Z</time>
      </trkpt>
      <trkpt lat="49.59406" lon="3.43467">
        <ele>125.9</ele>
        <time>2025-10-05T13:39:39.000Z</time>
      </trkpt>
      <trkpt lat="49.59406" lon="3.43465">
        <ele>125.3</ele>
        <time>2025-10-05T13:39:40.000Z</time>
      </trkpt>
      <trkpt lat="49.59406" lon="3.43465">
        <ele>124.9</ele>
        <time>2025-10-05T13:39:41.000Z</time>
      </trkpt>
      <trkpt lat="49.59405" lon="3.43464">
        <ele>124.4</ele>
        <time>2025-10-05T13:39:42.000Z</time>
      </trkpt>
      <trkpt lat="49.59405" lon="3.43463">
        <ele>123.9</ele>
        <time>2025-10-05T13:39:43.000Z</time>
      </trkpt>
      <trkpt lat="49.59405" lon="3.43462">
        <ele>123.5</ele>
        <time>2025-10-05T13:39:44.000Z</time>
      </trkpt>
      <trkpt lat="49.59406" lon="3.43461">
        <ele>123.4</ele>
        <time>2025-10-05T13:39:45.000Z</time>
      </trkpt>
      <trkpt lat="49.59406" lon="3.4346">
        <ele>123.4</ele>
        <time>2025-10-05T13:39:46.000Z</time>
      </trkpt>
      <trkpt lat="49.59406" lon="3.43458">
        <ele>123.6</ele>
        <time>2025-10-05T13:39:47.000Z</time>
      </trkpt>
      <trkpt lat="49.59407" lon="3.43457">
        <ele>123.7</ele>
        <time>2025-10-05T13:39:48.000Z</time>
      </trkpt>
      <trkpt lat="49.59407" lon="3.43455">
        <ele>123.7</ele>
        <time>2025-10-05T13:39:49.000Z</time>
      </trkpt>
      <trkpt lat="49.59407" lon="3.43454">
        <ele>123.7</ele>
        <time>2025-10-05T13:39:50.000Z</time>
      </trkpt>
      <trkpt lat="49.59407" lon="3.43452">
        <ele>123.8</ele>
        <time>2025-10-05T13:39:51.000Z</time>
      </trkpt>
      <trkpt lat="49.59407" lon="3.43452">
        <ele>124</ele>
        <time>2025-10-05T13:39:52.000Z</time>
      </trkpt>
      <trkpt lat="49.59407" lon="3.4345">
        <ele>124.1</ele>
        <time>2025-10-05T13:39:53.000Z</time>
      </trkpt>
      <trkpt lat="49.59407" lon="3.43449">
        <ele>124.2</ele>
        <time>2025-10-05T13:39:54.000Z</time>
      </trkpt>
      <trkpt lat="49.59407" lon="3.43447">
        <ele>124.3</ele>
        <time>2025-10-05T13:39:55.000Z</time>
      </trkpt>
      <trkpt lat="49.59407" lon="3.43446">
        <ele>124.5</ele>
        <time>2025-10-05T13:39:56.000Z</time>
      </trkpt>
      <trkpt lat="49.59407" lon="3.43445">
        <ele>124.1</ele>
        <time>2025-10-05T13:39:57.000Z</time>
      </trkpt>
      <trkpt lat="49.59406" lon="3.43443">
        <ele>124.1</ele>
        <time>2025-10-05T13:39:58.000Z</time>
      </trkpt>
      <trkpt lat="49.59407" lon="3.43441">
        <ele>124.3</ele>
        <time>2025-10-05T13:39:59.000Z</time>
      </trkpt>
      <trkpt lat="49.59406" lon="3.43439">
        <ele>124.1</ele>
        <time>2025-10-05T13:40:00.000Z</time>
      </trkpt>
      <trkpt lat="49.59406" lon="3.43438">
        <ele>124.2</ele>
        <time>2025-10-05T13:40:01.000Z</time>
      </trkpt>
      <trkpt lat="49.59406" lon="3.43437">
        <ele>124.7</ele>
        <time>2025-10-05T13:40:02.000Z</time>
      </trkpt>
      <trkpt lat="49.59406" lon="3.43435">
        <ele>124.9</ele>
        <time>2025-10-05T13:40:03.000Z</time>
      </trkpt>
      <trkpt lat="49.59406" lon="3.43434">
        <ele>125.3</ele>
        <time>2025-10-05T13:40:04.000Z</time>
      </trkpt>
      <trkpt lat="49.59406" lon="3.43432">
        <ele>125.6</ele>
        <time>2025-10-05T13:40:05.000Z</time>
      </trkpt>
      <trkpt lat="49.59406" lon="3.4343">
        <ele>125.9</ele>
        <time>2025-10-05T13:40:06.000Z</time>
      </trkpt>
      <trkpt lat="49.59406" lon="3.43428">
        <ele>126.2</ele>
        <time>2025-10-05T13:40:07.000Z</time>
      </trkpt>
      <trkpt lat="49.59406" lon="3.43427">
        <ele>126.4</ele>
        <time>2025-10-05T13:40:08.000Z</time>
      </trkpt>
      <trkpt lat="49.59405" lon="3.43426">
        <ele>126.6</ele>
        <time>2025-10-05T13:40:09.000Z</time>
      </trkpt>
      <trkpt lat="49.59405" lon="3.43425">
        <ele>126.5</ele>
        <time>2025-10-05T13:40:10.000Z</time>
      </trkpt>
      <trkpt lat="49.59405" lon="3.43424">
        <ele>126.3</ele>
        <time>2025-10-05T13:40:11.000Z</time>
      </trkpt>
      <trkpt lat="49.59405" lon="3.43422">
        <ele>126.3</ele>
        <time>2025-10-05T13:40:12.000Z</time>
      </trkpt>
      <trkpt lat="49.59405" lon="3.4342">
        <ele>126.3</ele>
        <time>2025-10-05T13:40:13.000Z</time>
      </trkpt>
      <trkpt lat="49.59405" lon="3.43418">
        <ele>126.3</ele>
        <time>2025-10-05T13:40:14.000Z</time>
      </trkpt>
      <trkpt lat="49.59405" lon="3.43417">
        <ele>126.2</ele>
        <time>2025-10-05T13:40:15.000Z</time>
      </trkpt>
      <trkpt lat="49.59405" lon="3.43417">
        <ele>126.1</ele>
        <time>2025-10-05T13:40:16.000Z</time>
      </trkpt>
      <trkpt lat="49.59404" lon="3.43416">
        <ele>126</ele>
        <time>2025-10-05T13:40:17.000Z</time>
      </trkpt>
      <trkpt lat="49.59404" lon="3.43415">
        <ele>126.2</ele>
        <time>2025-10-05T13:40:18.000Z</time>
      </trkpt>
      <trkpt lat="49.59402" lon="3.43414">
        <ele>126.2</ele>
        <time>2025-10-05T13:40:19.000Z</time>
      </trkpt>
      <trkpt lat="49.59401" lon="3.43414">
        <ele>126.3</ele>
        <time>2025-10-05T13:40:20.000Z</time>
      </trkpt>
      <trkpt lat="49.594" lon="3.43412">
        <ele>126.6</ele>
        <time>2025-10-05T13:40:21.000Z</time>
      </trkpt>
      <trkpt lat="49.59399" lon="3.43411">
        <ele>126.7</ele>
        <time>2025-10-05T13:40:22.000Z</time>
      </trkpt>
      <trkpt lat="49.59397" lon="3.4341">
        <ele>126.8</ele>
        <time>2025-10-05T13:40:23.000Z</time>
      </trkpt>
      <trkpt lat="49.59396" lon="3.43409">
        <ele>126.9</ele>
        <time>2025-10-05T13:40:24.000Z</time>
      </trkpt>
      <trkpt lat="49.59396" lon="3.43408">
        <ele>126.9</ele>
        <time>2025-10-05T13:40:25.000Z</time>
      </trkpt>
      <trkpt lat="49.59395" lon="3.43408">
        <ele>126.8</ele>
        <time>2025-10-05T13:40:26.000Z</time>
      </trkpt>
      <trkpt lat="49.59394" lon="3.43408">
        <ele>127</ele>
        <time>2025-10-05T13:40:27.000Z</time>
      </trkpt>
      <trkpt lat="49.59393" lon="3.43407">
        <ele>127.1</ele>
        <time>2025-10-05T13:40:28.000Z</time>
      </trkpt>
      <trkpt lat="49.59392" lon="3.43407">
        <ele>127.5</ele>
        <time>2025-10-05T13:40:29.000Z</time>
      </trkpt>
      <trkpt lat="49.59391" lon="3.43407">
        <ele>128</ele>
        <time>2025-10-05T13:40:30.000Z</time>
      </trkpt>
      <trkpt lat="49.5939" lon="3.43408">
        <ele>128</ele>
        <time>2025-10-05T13:40:31.000Z</time>
      </trkpt>
      <trkpt lat="49.59389" lon="3.43407">
        <ele>128.4</ele>
        <time>2025-10-05T13:40:32.000Z</time>
      </trkpt>
      <trkpt lat="49.59388" lon="3.43407">
        <ele>128.7</ele>
        <time>2025-10-05T13:40:33.000Z</time>
      </trkpt>
      <trkpt lat="49.59387" lon="3.43407">
        <ele>128.6</ele>
        <time>2025-10-05T13:40:34.000Z</time>
      </trkpt>
      <trkpt lat="49.59386" lon="3.43408">
        <ele>128.5</ele>
        <time>2025-10-05T13:40:35.000Z</time>
      </trkpt>
      <trkpt lat="49.59386" lon="3.43408">
        <ele>128.4</ele>
        <time>2025-10-05T13:40:36.000Z</time>
      </trkpt>
      <trkpt lat="49.59385" lon="3.43408">
        <ele>128.2</ele>
        <time>2025-10-05T13:40:37.000Z</time>
      </trkpt>
      <trkpt lat="49.59384" lon="3.43408">
        <ele>128</ele>
        <time>2025-10-05T13:40:38.000Z</time>
      </trkpt>
      <trkpt lat="49.59383" lon="3.43408">
        <ele>128</ele>
        <time>2025-10-05T13:40:39.000Z</time>
      </trkpt>
      <trkpt lat="49.59382" lon="3.43408">
        <ele>128.1</ele>
        <time>2025-10-05T13:40:40.000Z</time>
      </trkpt>
      <trkpt lat="49.59382" lon="3.43409">
        <ele>128</ele>
        <time>2025-10-05T13:40:41.000Z</time>
      </trkpt>
      <trkpt lat="49.59381" lon="3.43408">
        <ele>128.1</ele>
        <time>2025-10-05T13:40:42.000Z</time>
      </trkpt>
      <trkpt lat="49.5938" lon="3.43409">
        <ele>128.2</ele>
        <time>2025-10-05T13:40:43.000Z</time>
      </trkpt>
      <trkpt lat="49.59379" lon="3.43409">
        <ele>128.2</ele>
        <time>2025-10-05T13:40:44.000Z</time>
      </trkpt>
      <trkpt lat="49.59377" lon="3.43409">
        <ele>128.2</ele>
        <time>2025-10-05T13:40:45.000Z</time>
      </trkpt>
      <trkpt lat="49.59376" lon="3.43409">
        <ele>128.2</ele>
        <time>2025-10-05T13:40:46.000Z</time>
      </trkpt>
      <trkpt lat="49.59376" lon="3.43409">
        <ele>128.2</ele>
        <time>2025-10-05T13:40:47.000Z</time>
      </trkpt>
      <trkpt lat="49.59375" lon="3.4341">
        <ele>127.9</ele>
        <time>2025-10-05T13:40:48.000Z</time>
      </trkpt>
      <trkpt lat="49.59374" lon="3.4341">
        <ele>127.8</ele>
        <time>2025-10-05T13:40:49.000Z</time>
      </trkpt>
      <trkpt lat="49.59373" lon="3.4341">
        <ele>127.8</ele>
        <time>2025-10-05T13:40:50.000Z</time>
      </trkpt>
      <trkpt lat="49.59372" lon="3.4341">
        <ele>127.8</ele>
        <time>2025-10-05T13:40:51.000Z</time>
      </trkpt>
      <trkpt lat="49.59371" lon="3.43409">
        <ele>127.8</ele>
        <time>2025-10-05T13:40:52.000Z</time>
      </trkpt>
      <trkpt lat="49.5937" lon="3.4341">
        <ele>128</ele>
        <time>2025-10-05T13:40:53.000Z</time>
      </trkpt>
      <trkpt lat="49.59368" lon="3.43409">
        <ele>128.2</ele>
        <time>2025-10-05T13:40:54.000Z</time>
      </trkpt>
      <trkpt lat="49.59368" lon="3.43409">
        <ele>128.2</ele>
        <time>2025-10-05T13:40:55.000Z</time>
      </trkpt>
      <trkpt lat="49.59367" lon="3.43409">
        <ele>128.3</ele>
        <time>2025-10-05T13:40:56.000Z</time>
      </trkpt>
      <trkpt lat="49.59367" lon="3.43409">
        <ele>128.5</ele>
        <time>2025-10-05T13:40:57.000Z</time>
      </trkpt>
      <trkpt lat="49.59366" lon="3.43409">
        <ele>128.6</ele>
        <time>2025-10-05T13:40:58.000Z</time>
      </trkpt>
      <trkpt lat="49.59365" lon="3.43409">
        <ele>128.5</ele>
        <time>2025-10-05T13:40:59.000Z</time>
      </trkpt>
      <trkpt lat="49.59364" lon="3.43409">
        <ele>128.5</ele>
        <time>2025-10-05T13:41:00.000Z</time>
      </trkpt>
      <trkpt lat="49.59364" lon="3.43409">
        <ele>128.4</ele>
        <time>2025-10-05T13:41:01.000Z</time>
      </trkpt>
      <trkpt lat="49.59363" lon="3.43408">
        <ele>128.7</ele>
        <time>2025-10-05T13:41:02.000Z</time>
      </trkpt>
      <trkpt lat="49.59363" lon="3.43408">
        <ele>128.9</ele>
        <time>2025-10-05T13:41:03.000Z</time>
      </trkpt>
      <trkpt lat="49.59362" lon="3.43408">
        <ele>129.3</ele>
        <time>2025-10-05T13:41:04.000Z</time>
      </trkpt>
      <trkpt lat="49.59361" lon="3.43407">
        <ele>129.6</ele>
        <time>2025-10-05T13:41:05.000Z</time>
      </trkpt>
      <trkpt lat="49.5936" lon="3.43408">
        <ele>129.7</ele>
        <time>2025-10-05T13:41:06.000Z</time>
      </trkpt>
      <trkpt lat="49.59359" lon="3.43408">
        <ele>129.6</ele>
        <time>2025-10-05T13:41:07.000Z</time>
      </trkpt>
      <trkpt lat="49.59358" lon="3.43408">
        <ele>129.6</ele>
        <time>2025-10-05T13:41:08.000Z</time>
      </trkpt>
      <trkpt lat="49.59357" lon="3.43408">
        <ele>129.6</ele>
        <time>2025-10-05T13:41:09.000Z</time>
      </trkpt>
      <trkpt lat="49.59357" lon="3.43408">
        <ele>129.7</ele>
        <time>2025-10-05T13:41:10.000Z</time>
      </trkpt>
      <trkpt lat="49.59356" lon="3.43408">
        <ele>130.2</ele>
        <time>2025-10-05T13:41:11.000Z</time>
      </trkpt>
      <trkpt lat="49.59355" lon="3.43408">
        <ele>130.2</ele>
        <time>2025-10-05T13:41:12.000Z</time>
      </trkpt>
      <trkpt lat="49.59354" lon="3.43407">
        <ele>130.7</ele>
        <time>2025-10-05T13:41:13.000Z</time>
      </trkpt>
      <trkpt lat="49.59353" lon="3.43407">
        <ele>131.1</ele>
        <time>2025-10-05T13:41:14.000Z</time>
      </trkpt>
      <trkpt lat="49.59352" lon="3.43406">
        <ele>131.7</ele>
        <time>2025-10-05T13:41:15.000Z</time>
      </trkpt>
      <trkpt lat="49.59351" lon="3.43407">
        <ele>132.4</ele>
        <time>2025-10-05T13:41:16.000Z</time>
      </trkpt>
      <trkpt lat="49.59351" lon="3.43406">
        <ele>132.8</ele>
        <time>2025-10-05T13:41:17.000Z</time>
      </trkpt>
      <trkpt lat="49.5935" lon="3.43406">
        <ele>133.1</ele>
        <time>2025-10-05T13:41:18.000Z</time>
      </trkpt>
      <trkpt lat="49.59349" lon="3.43406">
        <ele>133.7</ele>
        <time>2025-10-05T13:41:19.000Z</time>
      </trkpt>
      <trkpt lat="49.59348" lon="3.43405">
        <ele>134</ele>
        <time>2025-10-05T13:41:20.000Z</time>
      </trkpt>
      <trkpt lat="49.59347" lon="3.43405">
        <ele>134.2</ele>
        <time>2025-10-05T13:41:21.000Z</time>
      </trkpt>
      <trkpt lat="49.59346" lon="3.43404">
        <ele>134.3</ele>
        <time>2025-10-05T13:41:22.000Z</time>
      </trkpt>
      <trkpt lat="49.59346" lon="3.43404">
        <ele>135</ele>
        <time>2025-10-05T13:41:23.000Z</time>
      </trkpt>
      <trkpt lat="49.59345" lon="3.43403">
        <ele>135.3</ele>
        <time>2025-10-05T13:41:24.000Z</time>
      </trkpt>
      <trkpt lat="49.59345" lon="3.43402">
        <ele>135.4</ele>
        <time>2025-10-05T13:41:25.000Z</time>
      </trkpt>
      <trkpt lat="49.59344" lon="3.43401">
        <ele>135.9</ele>
        <time>2025-10-05T13:41:26.000Z</time>
      </trkpt>
      <trkpt lat="49.59344" lon="3.43401">
        <ele>136.3</ele>
        <time>2025-10-05T13:41:27.000Z</time>
      </trkpt>
      <trkpt lat="49.59343" lon="3.434">
        <ele>136.5</ele>
        <time>2025-10-05T13:41:28.000Z</time>
      </trkpt>
      <trkpt lat="49.59343" lon="3.43399">
        <ele>136.8</ele>
        <time>2025-10-05T13:41:29.000Z</time>
      </trkpt>
      <trkpt lat="49.59342" lon="3.43398">
        <ele>137.2</ele>
        <time>2025-10-05T13:41:30.000Z</time>
      </trkpt>
      <trkpt lat="49.59342" lon="3.43396">
        <ele>137.7</ele>
        <time>2025-10-05T13:41:31.000Z</time>
      </trkpt>
      <trkpt lat="49.59341" lon="3.43395">
        <ele>138</ele>
        <time>2025-10-05T13:41:32.000Z</time>
      </trkpt>
      <trkpt lat="49.59341" lon="3.43394">
        <ele>138.4</ele>
        <time>2025-10-05T13:41:33.000Z</time>
      </trkpt>
      <trkpt lat="49.5934" lon="3.43392">
        <ele>138.5</ele>
        <time>2025-10-05T13:41:34.000Z</time>
      </trkpt>
      <trkpt lat="49.5934" lon="3.43391">
        <ele>138.3</ele>
        <time>2025-10-05T13:41:35.000Z</time>
      </trkpt>
      <trkpt lat="49.59339" lon="3.43389">
        <ele>138.2</ele>
        <time>2025-10-05T13:41:36.000Z</time>
      </trkpt>
      <trkpt lat="49.59338" lon="3.43387">
        <ele>138.1</ele>
        <time>2025-10-05T13:41:37.000Z</time>
      </trkpt>
      <trkpt lat="49.59338" lon="3.43386">
        <ele>137.9</ele>
        <time>2025-10-05T13:41:38.000Z</time>
      </trkpt>
      <trkpt lat="49.59337" lon="3.43384">
        <ele>137.5</ele>
        <time>2025-10-05T13:41:39.000Z</time>
      </trkpt>
      <trkpt lat="49.59337" lon="3.43383">
        <ele>137.5</ele>
        <time>2025-10-05T13:41:40.000Z</time>
      </trkpt>
      <trkpt lat="49.59336" lon="3.43382">
        <ele>137.6</ele>
        <time>2025-10-05T13:41:41.000Z</time>
      </trkpt>
      <trkpt lat="49.59336" lon="3.4338">
        <ele>137.7</ele>
        <time>2025-10-05T13:41:42.000Z</time>
      </trkpt>
      <trkpt lat="49.59335" lon="3.43379">
        <ele>137.6</ele>
        <time>2025-10-05T13:41:43.000Z</time>
      </trkpt>
      <trkpt lat="49.59335" lon="3.43377">
        <ele>137.5</ele>
        <time>2025-10-05T13:41:44.000Z</time>
      </trkpt>
      <trkpt lat="49.59334" lon="3.43376">
        <ele>137.4</ele>
        <time>2025-10-05T13:41:45.000Z</time>
      </trkpt>
      <trkpt lat="49.59333" lon="3.43374">
        <ele>137.3</ele>
        <time>2025-10-05T13:41:46.000Z</time>
      </trkpt>
      <trkpt lat="49.59333" lon="3.43373">
        <ele>137.6</ele>
        <time>2025-10-05T13:41:47.000Z</time>
      </trkpt>
      <trkpt lat="49.59333" lon="3.43372">
        <ele>137.3</ele>
        <time>2025-10-05T13:41:48.000Z</time>
      </trkpt>
      <trkpt lat="49.59332" lon="3.43372">
        <ele>137.6</ele>
        <time>2025-10-05T13:41:49.000Z</time>
      </trkpt>
      <trkpt lat="49.59331" lon="3.43371">
        <ele>137.7</ele>
        <time>2025-10-05T13:41:50.000Z</time>
      </trkpt>
      <trkpt lat="49.5933" lon="3.4337">
        <ele>137.6</ele>
        <time>2025-10-05T13:41:51.000Z</time>
      </trkpt>
      <trkpt lat="49.5933" lon="3.4337">
        <ele>137.5</ele>
        <time>2025-10-05T13:41:52.000Z</time>
      </trkpt>
      <trkpt lat="49.59329" lon="3.43369">
        <ele>137.8</ele>
        <time>2025-10-05T13:41:53.000Z</time>
      </trkpt>
      <trkpt lat="49.59328" lon="3.43368">
        <ele>137.7</ele>
        <time>2025-10-05T13:41:54.000Z</time>
      </trkpt>
      <trkpt lat="49.59327" lon="3.43366">
        <ele>137.9</ele>
        <time>2025-10-05T13:41:55.000Z</time>
      </trkpt>
      <trkpt lat="49.59326" lon="3.43365">
        <ele>138</ele>
        <time>2025-10-05T13:41:56.000Z</time>
      </trkpt>
      <trkpt lat="49.59325" lon="3.43364">
        <ele>138.1</ele>
        <time>2025-10-05T13:41:57.000Z</time>
      </trkpt>
      <trkpt lat="49.59324" lon="3.43363">
        <ele>137.8</ele>
        <time>2025-10-05T13:41:58.000Z</time>
      </trkpt>
      <trkpt lat="49.59323" lon="3.43362">
        <ele>137.9</ele>
        <time>2025-10-05T13:41:59.000Z</time>
      </trkpt>
      <trkpt lat="49.59323" lon="3.43362">
        <ele>137.8</ele>
        <time>2025-10-05T13:42:00.000Z</time>
      </trkpt>
      <trkpt lat="49.59322" lon="3.4336">
        <ele>137.9</ele>
        <time>2025-10-05T13:42:01.000Z</time>
      </trkpt>
      <trkpt lat="49.59322" lon="3.4336">
        <ele>137.9</ele>
        <time>2025-10-05T13:42:02.000Z</time>
      </trkpt>
      <trkpt lat="49.59321" lon="3.4336">
        <ele>137.9</ele>
        <time>2025-10-05T13:42:03.000Z</time>
      </trkpt>
      <trkpt lat="49.5932" lon="3.43359">
        <ele>138.1</ele>
        <time>2025-10-05T13:42:04.000Z</time>
      </trkpt>
      <trkpt lat="49.59319" lon="3.43358">
        <ele>138</ele>
        <time>2025-10-05T13:42:05.000Z</time>
      </trkpt>
      <trkpt lat="49.59319" lon="3.43358">
        <ele>138.1</ele>
        <time>2025-10-05T13:42:06.000Z</time>
      </trkpt>
      <trkpt lat="49.59318" lon="3.43357">
        <ele>138.1</ele>
        <time>2025-10-05T13:42:07.000Z</time>
      </trkpt>
      <trkpt lat="49.59317" lon="3.43356">
        <ele>138</ele>
        <time>2025-10-05T13:42:08.000Z</time>
      </trkpt>
      <trkpt lat="49.59316" lon="3.43356">
        <ele>138.2</ele>
        <time>2025-10-05T13:42:09.000Z</time>
      </trkpt>
      <trkpt lat="49.59315" lon="3.43355">
        <ele>138.4</ele>
        <time>2025-10-05T13:42:10.000Z</time>
      </trkpt>
      <trkpt lat="49.59314" lon="3.43354">
        <ele>138.4</ele>
        <time>2025-10-05T13:42:11.000Z</time>
      </trkpt>
      <trkpt lat="49.59313" lon="3.43353">
        <ele>138</ele>
        <time>2025-10-05T13:42:12.000Z</time>
      </trkpt>
      <trkpt lat="49.59312" lon="3.43352">
        <ele>137.9</ele>
        <time>2025-10-05T13:42:13.000Z</time>
      </trkpt>
      <trkpt lat="49.59311" lon="3.43351">
        <ele>137.5</ele>
        <time>2025-10-05T13:42:14.000Z</time>
      </trkpt>
      <trkpt lat="49.5931" lon="3.4335">
        <ele>137.3</ele>
        <time>2025-10-05T13:42:15.000Z</time>
      </trkpt>
      <trkpt lat="49.59309" lon="3.43349">
        <ele>137.5</ele>
        <time>2025-10-05T13:42:16.000Z</time>
      </trkpt>
      <trkpt lat="49.59308" lon="3.43347">
        <ele>137.5</ele>
        <time>2025-10-05T13:42:17.000Z</time>
      </trkpt>
      <trkpt lat="49.59308" lon="3.43346">
        <ele>137.5</ele>
        <time>2025-10-05T13:42:18.000Z</time>
      </trkpt>
      <trkpt lat="49.59307" lon="3.43346">
        <ele>137.4</ele>
        <time>2025-10-05T13:42:19.000Z</time>
      </trkpt>
      <trkpt lat="49.59306" lon="3.43345">
        <ele>137.1</ele>
        <time>2025-10-05T13:42:20.000Z</time>
      </trkpt>
      <trkpt lat="49.59306" lon="3.43344">
        <ele>136.7</ele>
        <time>2025-10-05T13:42:21.000Z</time>
      </trkpt>
      <trkpt lat="49.59305" lon="3.43344">
        <ele>136.7</ele>
        <time>2025-10-05T13:42:22.000Z</time>
      </trkpt>
      <trkpt lat="49.59304" lon="3.43343">
        <ele>136.5</ele>
        <time>2025-10-05T13:42:23.000Z</time>
      </trkpt>
      <trkpt lat="49.59303" lon="3.43342">
        <ele>136.4</ele>
        <time>2025-10-05T13:42:24.000Z</time>
      </trkpt>
      <trkpt lat="49.59303" lon="3.43342">
        <ele>136.9</ele>
        <time>2025-10-05T13:42:25.000Z</time>
      </trkpt>
      <trkpt lat="49.59302" lon="3.43341">
        <ele>137.1</ele>
        <time>2025-10-05T13:42:26.000Z</time>
      </trkpt>
      <trkpt lat="49.59302" lon="3.43341">
        <ele>137.4</ele>
        <time>2025-10-05T13:42:27.000Z</time>
      </trkpt>
      <trkpt lat="49.59301" lon="3.4334">
        <ele>137.7</ele>
        <time>2025-10-05T13:42:28.000Z</time>
      </trkpt>
      <trkpt lat="49.59301" lon="3.4334">
        <ele>137.8</ele>
        <time>2025-10-05T13:42:29.000Z</time>
      </trkpt>
      <trkpt lat="49.593" lon="3.43339">
        <ele>137.9</ele>
        <time>2025-10-05T13:42:30.000Z</time>
      </trkpt>
      <trkpt lat="49.59299" lon="3.43338">
        <ele>138.1</ele>
        <time>2025-10-05T13:42:31.000Z</time>
      </trkpt>
      <trkpt lat="49.59298" lon="3.43337">
        <ele>138.5</ele>
        <time>2025-10-05T13:42:32.000Z</time>
      </trkpt>
      <trkpt lat="49.59298" lon="3.43336">
        <ele>138.5</ele>
        <time>2025-10-05T13:42:33.000Z</time>
      </trkpt>
      <trkpt lat="49.59297" lon="3.43335">
        <ele>138.6</ele>
        <time>2025-10-05T13:42:34.000Z</time>
      </trkpt>
      <trkpt lat="49.59297" lon="3.43335">
        <ele>138.9</ele>
        <time>2025-10-05T13:42:35.000Z</time>
      </trkpt>
      <trkpt lat="49.59297" lon="3.43334">
        <ele>139.1</ele>
        <time>2025-10-05T13:42:36.000Z</time>
      </trkpt>
      <trkpt lat="49.59297" lon="3.43332">
        <ele>139.2</ele>
        <time>2025-10-05T13:42:37.000Z</time>
      </trkpt>
      <trkpt lat="49.59295" lon="3.43331">
        <ele>138.5</ele>
        <time>2025-10-05T13:42:38.000Z</time>
      </trkpt>
      <trkpt lat="49.59295" lon="3.4333">
        <ele>138</ele>
        <time>2025-10-05T13:42:39.000Z</time>
      </trkpt>
      <trkpt lat="49.59294" lon="3.43329">
        <ele>137.5</ele>
        <time>2025-10-05T13:42:40.000Z</time>
      </trkpt>
      <trkpt lat="49.59293" lon="3.43328">
        <ele>137.3</ele>
        <time>2025-10-05T13:42:41.000Z</time>
      </trkpt>
      <trkpt lat="49.59292" lon="3.43328">
        <ele>137.3</ele>
        <time>2025-10-05T13:42:42.000Z</time>
      </trkpt>
      <trkpt lat="49.59292" lon="3.43327">
        <ele>137.3</ele>
        <time>2025-10-05T13:42:43.000Z</time>
      </trkpt>
      <trkpt lat="49.59291" lon="3.43326">
        <ele>137.5</ele>
        <time>2025-10-05T13:42:44.000Z</time>
      </trkpt>
      <trkpt lat="49.59289" lon="3.43325">
        <ele>137.9</ele>
        <time>2025-10-05T13:42:45.000Z</time>
      </trkpt>
      <trkpt lat="49.59288" lon="3.43325">
        <ele>138.2</ele>
        <time>2025-10-05T13:42:46.000Z</time>
      </trkpt>
      <trkpt lat="49.59287" lon="3.43324">
        <ele>138.5</ele>
        <time>2025-10-05T13:42:47.000Z</time>
      </trkpt>
      <trkpt lat="49.59286" lon="3.43323">
        <ele>138.8</ele>
        <time>2025-10-05T13:42:48.000Z</time>
      </trkpt>
      <trkpt lat="49.59285" lon="3.43322">
        <ele>139.2</ele>
        <time>2025-10-05T13:42:49.000Z</time>
      </trkpt>
      <trkpt lat="49.59284" lon="3.4332">
        <ele>139.2</ele>
        <time>2025-10-05T13:42:50.000Z</time>
      </trkpt>
      <trkpt lat="49.59284" lon="3.43318">
        <ele>138.9</ele>
        <time>2025-10-05T13:42:51.000Z</time>
      </trkpt>
      <trkpt lat="49.59283" lon="3.43317">
        <ele>138.9</ele>
        <time>2025-10-05T13:42:52.000Z</time>
      </trkpt>
      <trkpt lat="49.59283" lon="3.43316">
        <ele>138.7</ele>
        <time>2025-10-05T13:42:53.000Z</time>
      </trkpt>
      <trkpt lat="49.59283" lon="3.43315">
        <ele>138.4</ele>
        <time>2025-10-05T13:42:54.000Z</time>
      </trkpt>
      <trkpt lat="49.59283" lon="3.43314">
        <ele>138.2</ele>
        <time>2025-10-05T13:42:55.000Z</time>
      </trkpt>
      <trkpt lat="49.59283" lon="3.43313">
        <ele>137.9</ele>
        <time>2025-10-05T13:42:56.000Z</time>
      </trkpt>
      <trkpt lat="49.59283" lon="3.43312">
        <ele>137.5</ele>
        <time>2025-10-05T13:42:57.000Z</time>
      </trkpt>
      <trkpt lat="49.59283" lon="3.43311">
        <ele>137.2</ele>
        <time>2025-10-05T13:42:58.000Z</time>
      </trkpt>
      <trkpt lat="49.59283" lon="3.4331">
        <ele>137.1</ele>
        <time>2025-10-05T13:42:59.000Z</time>
      </trkpt>
      <trkpt lat="49.59284" lon="3.4331">
        <ele>137.2</ele>
        <time>2025-10-05T13:43:00.000Z</time>
      </trkpt>
      <trkpt lat="49.59284" lon="3.43309">
        <ele>136.7</ele>
        <time>2025-10-05T13:43:01.000Z</time>
      </trkpt>
      <trkpt lat="49.59284" lon="3.43309">
        <ele>136.4</ele>
        <time>2025-10-05T13:43:02.000Z</time>
      </trkpt>
      <trkpt lat="49.59284" lon="3.43308">
        <ele>136.5</ele>
        <time>2025-10-05T13:43:03.000Z</time>
      </trkpt>
      <trkpt lat="49.59284" lon="3.43308">
        <ele>136.7</ele>
        <time>2025-10-05T13:43:04.000Z</time>
      </trkpt>
      <trkpt lat="49.59284" lon="3.43308">
        <ele>136.7</ele>
        <time>2025-10-05T13:43:05.000Z</time>
      </trkpt>
      <trkpt lat="49.59284" lon="3.43308">
        <ele>136.7</ele>
        <time>2025-10-05T13:43:06.000Z</time>
      </trkpt>
      <trkpt lat="49.59284" lon="3.43308">
        <ele>136.7</ele>
        <time>2025-10-05T13:43:07.000Z</time>
      </trkpt>
      <trkpt lat="49.59284" lon="3.43308">
        <ele>136.7</ele>
        <time>2025-10-05T13:43:08.000Z</time>
      </trkpt>
      <trkpt lat="49.59284" lon="3.43308">
        <ele>136.7</ele>
        <time>2025-10-05T13:43:09.000Z</time>
      </trkpt>
      <trkpt lat="49.59284" lon="3.43308">
        <ele>136.7</ele>
        <time>2025-10-05T13:43:10.000Z</time>
      </trkpt>
      <trkpt lat="49.59284" lon="3.43308">
        <ele>136.7</ele>
        <time>2025-10-05T13:43:11.000Z</time>
      </trkpt>
      <trkpt lat="49.59284" lon="3.43308">
        <ele>136.7</ele>
        <time>2025-10-05T13:43:12.000Z</time>
      </trkpt>
      <trkpt lat="49.59284" lon="3.43308">
        <ele>136.7</ele>
        <time>2025-10-05T13:43:13.000Z</time>
      </trkpt>
      <trkpt lat="49.59284" lon="3.43308">
        <ele>136.7</ele>
        <time>2025-10-05T13:43:14.000Z</time>
      </trkpt>
      <trkpt lat="49.59284" lon="3.43308">
        <ele>136.7</ele>
        <time>2025-10-05T13:43:15.000Z</time>
      </trkpt>
      <trkpt lat="49.59284" lon="3.43308">
        <ele>136.7</ele>
        <time>2025-10-05T13:43:16.000Z</time>
      </trkpt>
      <trkpt lat="49.59284" lon="3.43308">
        <ele>136.7</ele>
        <time>2025-10-05T13:43:17.000Z</time>
      </trkpt>
      <trkpt lat="49.59284" lon="3.43308">
        <ele>136.7</ele>
        <time>2025-10-05T13:43:18.000Z</time>
      </trkpt>
      <trkpt lat="49.59284" lon="3.43308">
        <ele>136.7</ele>
        <time>2025-10-05T13:43:19.000Z</time>
      </trkpt>
      <trkpt lat="49.59284" lon="3.43308">
        <ele>136.7</ele>
        <time>2025-10-05T13:43:20.000Z</time>
      </trkpt>
      <trkpt lat="49.59284" lon="3.43308">
        <ele>136.7</ele>
        <time>2025-10-05T13:43:21.000Z</time>
      </trkpt>
      <trkpt lat="49.59284" lon="3.43308">
        <ele>136.7</ele>
        <time>2025-10-05T13:43:22.000Z</time>
      </trkpt>
      <trkpt lat="49.59284" lon="3.43308">
        <ele>136.7</ele>
        <time>2025-10-05T13:43:23.000Z</time>
      </trkpt>
      <trkpt lat="49.59284" lon="3.43308">
        <ele>136.7</ele>
        <time>2025-10-05T13:43:24.000Z</time>
      </trkpt>
      <trkpt lat="49.59284" lon="3.43308">
        <ele>136.7</ele>
        <time>2025-10-05T13:43:25.000Z</time>
      </trkpt>
      <trkpt lat="49.59284" lon="3.43308">
        <ele>136.7</ele>
        <time>2025-10-05T13:43:26.000Z</time>
      </trkpt>
      <trkpt lat="49.59284" lon="3.43308">
        <ele>136.7</ele>
        <time>2025-10-05T13:43:27.000Z</time>
      </trkpt>
      <trkpt lat="49.59284" lon="3.43308">
        <ele>136.7</ele>
        <time>2025-10-05T13:43:28.000Z</time>
      </trkpt>
      <trkpt lat="49.59284" lon="3.43308">
        <ele>136.7</ele>
        <time>2025-10-05T13:43:29.000Z</time>
      </trkpt>
      <trkpt lat="49.59284" lon="3.43308">
        <ele>136.7</ele>
        <time>2025-10-05T13:43:30.000Z</time>
      </trkpt>
      <trkpt lat="49.59284" lon="3.43308">
        <ele>136.7</ele>
        <time>2025-10-05T13:43:31.000Z</time>
      </trkpt>
      <trkpt lat="49.59284" lon="3.43308">
        <ele>136.7</ele>
        <time>2025-10-05T13:43:32.000Z</time>
      </trkpt>
      <trkpt lat="49.59284" lon="3.43308">
        <ele>136.7</ele>
        <time>2025-10-05T13:43:33.000Z</time>
      </trkpt>
      <trkpt lat="49.59284" lon="3.43308">
        <ele>136.7</ele>
        <time>2025-10-05T13:43:34.000Z</time>
      </trkpt>
      <trkpt lat="49.59284" lon="3.43308">
        <ele>136.7</ele>
        <time>2025-10-05T13:43:35.000Z</time>
      </trkpt>
      <trkpt lat="49.59284" lon="3.43308">
        <ele>136.7</ele>
        <time>2025-10-05T13:43:36.000Z</time>
      </trkpt>
      <trkpt lat="49.59284" lon="3.43308">
        <ele>136.7</ele>
        <time>2025-10-05T13:43:37.000Z</time>
      </trkpt>
      <trkpt lat="49.59284" lon="3.43308">
        <ele>136.7</ele>
        <time>2025-10-05T13:43:38.000Z</time>
      </trkpt>
      <trkpt lat="49.59284" lon="3.43308">
        <ele>136.7</ele>
        <time>2025-10-05T13:43:39.000Z</time>
      </trkpt>
      <trkpt lat="49.59284" lon="3.43308">
        <ele>136.7</ele>
        <time>2025-10-05T13:43:40.000Z</time>
      </trkpt>
      <trkpt lat="49.59284" lon="3.43308">
        <ele>136.7</ele>
        <time>2025-10-05T13:43:41.000Z</time>
      </trkpt>
      <trkpt lat="49.59284" lon="3.43308">
        <ele>136.7</ele>
        <time>2025-10-05T13:43:42.000Z</time>
      </trkpt>
      <trkpt lat="49.59284" lon="3.43308">
        <ele>136.7</ele>
        <time>2025-10-05T13:43:43.000Z</time>
      </trkpt>
      <trkpt lat="49.59284" lon="3.43308">
        <ele>136.7</ele>
        <time>2025-10-05T13:43:44.000Z</time>
      </trkpt>
      <trkpt lat="49.59284" lon="3.43308">
        <ele>136.7</ele>
        <time>2025-10-05T13:43:45.000Z</time>
      </trkpt>
      <trkpt lat="49.59284" lon="3.43308">
        <ele>136.7</ele>
        <time>2025-10-05T13:43:46.000Z</time>
      </trkpt>
      <trkpt lat="49.59284" lon="3.43308">
        <ele>136.7</ele>
        <time>2025-10-05T13:43:47.000Z</time>
      </trkpt>
      <trkpt lat="49.59284" lon="3.43308">
        <ele>136.7</ele>
        <time>2025-10-05T13:43:48.000Z</time>
      </trkpt>
      <trkpt lat="49.59284" lon="3.43308">
        <ele>136.7</ele>
        <time>2025-10-05T13:43:49.000Z</time>
      </trkpt>
      <trkpt lat="49.59284" lon="3.43308">
        <ele>136.7</ele>
        <time>2025-10-05T13:43:50.000Z</time>
      </trkpt>
      <trkpt lat="49.59284" lon="3.43308">
        <ele>136.7</ele>
        <time>2025-10-05T13:43:51.000Z</time>
      </trkpt>
      <trkpt lat="49.59284" lon="3.43308">
        <ele>136.7</ele>
        <time>2025-10-05T13:43:52.000Z</time>
      </trkpt>
      <trkpt lat="49.59284" lon="3.43308">
        <ele>136.7</ele>
        <time>2025-10-05T13:43:53.000Z</time>
      </trkpt>
      <trkpt lat="49.59284" lon="3.43308">
        <ele>136.7</ele>
        <time>2025-10-05T13:43:54.000Z</time>
      </trkpt>
      <trkpt lat="49.59284" lon="3.43308">
        <ele>136.7</ele>
        <time>2025-10-05T13:43:55.000Z</time>
      </trkpt>
      <trkpt lat="49.59284" lon="3.43308">
        <ele>136.7</ele>
        <time>2025-10-05T13:43:56.000Z</time>
      </trkpt>
      <trkpt lat="49.59284" lon="3.43308">
        <ele>136.7</ele>
        <time>2025-10-05T13:43:57.000Z</time>
      </trkpt>
      <trkpt lat="49.59284" lon="3.43308">
        <ele>136.7</ele>
        <time>2025-10-05T13:43:58.000Z</time>
      </trkpt>
      <trkpt lat="49.59284" lon="3.43308">
        <ele>136.7</ele>
        <time>2025-10-05T13:43:59.000Z</time>
      </trkpt>
      <trkpt lat="49.59284" lon="3.43308">
        <ele>136.7</ele>
        <time>2025-10-05T13:44:00.000Z</time>
      </trkpt>
      <trkpt lat="49.59284" lon="3.43308">
        <ele>136.7</ele>
        <time>2025-10-05T13:44:01.000Z</time>
      </trkpt>
      <trkpt lat="49.59284" lon="3.43308">
        <ele>136.7</ele>
        <time>2025-10-05T13:44:02.000Z</time>
      </trkpt>
      <trkpt lat="49.59284" lon="3.43308">
        <ele>136.7</ele>
        <time>2025-10-05T13:44:03.000Z</time>
      </trkpt>
      <trkpt lat="49.59284" lon="3.43308">
        <ele>136.7</ele>
        <time>2025-10-05T13:44:04.000Z</time>
      </trkpt>
      <trkpt lat="49.59284" lon="3.43308">
        <ele>136.7</ele>
        <time>2025-10-05T13:44:05.000Z</time>
      </trkpt>
      <trkpt lat="49.59282" lon="3.4331">
        <ele>138.3</ele>
        <time>2025-10-05T13:44:06.000Z</time>
      </trkpt>
      <trkpt lat="49.59282" lon="3.43309">
        <ele>138</ele>
        <time>2025-10-05T13:44:07.000Z</time>
      </trkpt>
      <trkpt lat="49.59282" lon="3.43308">
        <ele>137.6</ele>
        <time>2025-10-05T13:44:08.000Z</time>
      </trkpt>
      <trkpt lat="49.59281" lon="3.43307">
        <ele>137.4</ele>
        <time>2025-10-05T13:44:09.000Z</time>
      </trkpt>
      <trkpt lat="49.5928" lon="3.43306">
        <ele>137.4</ele>
        <time>2025-10-05T13:44:10.000Z</time>
      </trkpt>
      <trkpt lat="49.5928" lon="3.43306">
        <ele>137.3</ele>
        <time>2025-10-05T13:44:11.000Z</time>
      </trkpt>
      <trkpt lat="49.5928" lon="3.43305">
        <ele>137.5</ele>
        <time>2025-10-05T13:44:12.000Z</time>
      </trkpt>
      <trkpt lat="49.59279" lon="3.43304">
        <ele>137.6</ele>
        <time>2025-10-05T13:44:13.000Z</time>
      </trkpt>
      <trkpt lat="49.59279" lon="3.43303">
        <ele>137.5</ele>
        <time>2025-10-05T13:44:14.000Z</time>
      </trkpt>
      <trkpt lat="49.59279" lon="3.43301">
        <ele>137.2</ele>
        <time>2025-10-05T13:44:15.000Z</time>
      </trkpt>
      <trkpt lat="49.59279" lon="3.43299">
        <ele>137.2</ele>
        <time>2025-10-05T13:44:16.000Z</time>
      </trkpt>
      <trkpt lat="49.59279" lon="3.43297">
        <ele>137.2</ele>
        <time>2025-10-05T13:44:17.000Z</time>
      </trkpt>
      <trkpt lat="49.59279" lon="3.43296">
        <ele>137.4</ele>
        <time>2025-10-05T13:44:18.000Z</time>
      </trkpt>
      <trkpt lat="49.59278" lon="3.43294">
        <ele>137.4</ele>
        <time>2025-10-05T13:44:19.000Z</time>
      </trkpt>
      <trkpt lat="49.59278" lon="3.43292">
        <ele>137.5</ele>
        <time>2025-10-05T13:44:20.000Z</time>
      </trkpt>
      <trkpt lat="49.59278" lon="3.4329">
        <ele>137.7</ele>
        <time>2025-10-05T13:44:21.000Z</time>
      </trkpt>
      <trkpt lat="49.59278" lon="3.43289">
        <ele>137.9</ele>
        <time>2025-10-05T13:44:22.000Z</time>
      </trkpt>
      <trkpt lat="49.59277" lon="3.43287">
        <ele>138.4</ele>
        <time>2025-10-05T13:44:23.000Z</time>
      </trkpt>
      <trkpt lat="49.59277" lon="3.43286">
        <ele>138.5</ele>
        <time>2025-10-05T13:44:24.000Z</time>
      </trkpt>
      <trkpt lat="49.59276" lon="3.43284">
        <ele>138.3</ele>
        <time>2025-10-05T13:44:25.000Z</time>
      </trkpt>
      <trkpt lat="49.59276" lon="3.43283">
        <ele>138.3</ele>
        <time>2025-10-05T13:44:26.000Z</time>
      </trkpt>
      <trkpt lat="49.59276" lon="3.43281">
        <ele>138.2</ele>
        <time>2025-10-05T13:44:27.000Z</time>
      </trkpt>
      <trkpt lat="49.59276" lon="3.43279">
        <ele>138</ele>
        <time>2025-10-05T13:44:28.000Z</time>
      </trkpt>
      <trkpt lat="49.59276" lon="3.43278">
        <ele>137.7</ele>
        <time>2025-10-05T13:44:29.000Z</time>
      </trkpt>
      <trkpt lat="49.59276" lon="3.43277">
        <ele>137.6</ele>
        <time>2025-10-05T13:44:30.000Z</time>
      </trkpt>
      <trkpt lat="49.59275" lon="3.43275">
        <ele>137.5</ele>
        <time>2025-10-05T13:44:31.000Z</time>
      </trkpt>
      <trkpt lat="49.59275" lon="3.43274">
        <ele>137.5</ele>
        <time>2025-10-05T13:44:32.000Z</time>
      </trkpt>
      <trkpt lat="49.59274" lon="3.43273">
        <ele>137.4</ele>
        <time>2025-10-05T13:44:33.000Z</time>
      </trkpt>
      <trkpt lat="49.59274" lon="3.43272">
        <ele>137.2</ele>
        <time>2025-10-05T13:44:34.000Z</time>
      </trkpt>
      <trkpt lat="49.59274" lon="3.43271">
        <ele>137.3</ele>
        <time>2025-10-05T13:44:35.000Z</time>
      </trkpt>
      <trkpt lat="49.59273" lon="3.4327">
        <ele>137.4</ele>
        <time>2025-10-05T13:44:36.000Z</time>
      </trkpt>
      <trkpt lat="49.59273" lon="3.43269">
        <ele>137.7</ele>
        <time>2025-10-05T13:44:37.000Z</time>
      </trkpt>
      <trkpt lat="49.59273" lon="3.43268">
        <ele>137.7</ele>
        <time>2025-10-05T13:44:38.000Z</time>
      </trkpt>
      <trkpt lat="49.59272" lon="3.43267">
        <ele>137.9</ele>
        <time>2025-10-05T13:44:39.000Z</time>
      </trkpt>
      <trkpt lat="49.59272" lon="3.43266">
        <ele>137.8</ele>
        <time>2025-10-05T13:44:40.000Z</time>
      </trkpt>
      <trkpt lat="49.59271" lon="3.43265">
        <ele>137.6</ele>
        <time>2025-10-05T13:44:41.000Z</time>
      </trkpt>
      <trkpt lat="49.59271" lon="3.43264">
        <ele>137.3</ele>
        <time>2025-10-05T13:44:42.000Z</time>
      </trkpt>
      <trkpt lat="49.59271" lon="3.43263">
        <ele>137.4</ele>
        <time>2025-10-05T13:44:43.000Z</time>
      </trkpt>
      <trkpt lat="49.59271" lon="3.43263">
        <ele>137.4</ele>
        <time>2025-10-05T13:44:44.000Z</time>
      </trkpt>
      <trkpt lat="49.5927" lon="3.43262">
        <ele>137.6</ele>
        <time>2025-10-05T13:44:45.000Z</time>
      </trkpt>
      <trkpt lat="49.5927" lon="3.4326">
        <ele>137.7</ele>
        <time>2025-10-05T13:44:46.000Z</time>
      </trkpt>
      <trkpt lat="49.59269" lon="3.43259">
        <ele>137.8</ele>
        <time>2025-10-05T13:44:47.000Z</time>
      </trkpt>
      <trkpt lat="49.59269" lon="3.43258">
        <ele>137.8</ele>
        <time>2025-10-05T13:44:48.000Z</time>
      </trkpt>
      <trkpt lat="49.59268" lon="3.43258">
        <ele>137.9</ele>
        <time>2025-10-05T13:44:49.000Z</time>
      </trkpt>
      <trkpt lat="49.59268" lon="3.43256">
        <ele>137.6</ele>
        <time>2025-10-05T13:44:50.000Z</time>
      </trkpt>
      <trkpt lat="49.59267" lon="3.43253">
        <ele>137.1</ele>
        <time>2025-10-05T13:44:51.000Z</time>
      </trkpt>
      <trkpt lat="49.59266" lon="3.43252">
        <ele>136.5</ele>
        <time>2025-10-05T13:44:52.000Z</time>
      </trkpt>
      <trkpt lat="49.59265" lon="3.43251">
        <ele>136.3</ele>
        <time>2025-10-05T13:44:53.000Z</time>
      </trkpt>
      <trkpt lat="49.59265" lon="3.43251">
        <ele>136</ele>
        <time>2025-10-05T13:44:54.000Z</time>
      </trkpt>
      <trkpt lat="49.59264" lon="3.4325">
        <ele>135.7</ele>
        <time>2025-10-05T13:44:55.000Z</time>
      </trkpt>
      <trkpt lat="49.59264" lon="3.43249">
        <ele>135.4</ele>
        <time>2025-10-05T13:44:56.000Z</time>
      </trkpt>
      <trkpt lat="49.59263" lon="3.43249">
        <ele>135.2</ele>
        <time>2025-10-05T13:44:57.000Z</time>
      </trkpt>
      <trkpt lat="49.59262" lon="3.43249">
        <ele>135</ele>
        <time>2025-10-05T13:44:58.000Z</time>
      </trkpt>
      <trkpt lat="49.59261" lon="3.43248">
        <ele>134.8</ele>
        <time>2025-10-05T13:44:59.000Z</time>
      </trkpt>
      <trkpt lat="49.5926" lon="3.43248">
        <ele>135</ele>
        <time>2025-10-05T13:45:00.000Z</time>
      </trkpt>
      <trkpt lat="49.59258" lon="3.43247">
        <ele>135.4</ele>
        <time>2025-10-05T13:45:01.000Z</time>
      </trkpt>
      <trkpt lat="49.59257" lon="3.43246">
        <ele>135.9</ele>
        <time>2025-10-05T13:45:02.000Z</time>
      </trkpt>
      <trkpt lat="49.59256" lon="3.43246">
        <ele>136.2</ele>
        <time>2025-10-05T13:45:03.000Z</time>
      </trkpt>
      <trkpt lat="49.59254" lon="3.43245">
        <ele>136.4</ele>
        <time>2025-10-05T13:45:04.000Z</time>
      </trkpt>
      <trkpt lat="49.59253" lon="3.43245">
        <ele>136.5</ele>
        <time>2025-10-05T13:45:05.000Z</time>
      </trkpt>
      <trkpt lat="49.59251" lon="3.43244">
        <ele>136.4</ele>
        <time>2025-10-05T13:45:06.000Z</time>
      </trkpt>
      <trkpt lat="49.59249" lon="3.43243">
        <ele>136.4</ele>
        <time>2025-10-05T13:45:07.000Z</time>
      </trkpt>
      <trkpt lat="49.59248" lon="3.43243">
        <ele>136.4</ele>
        <time>2025-10-05T13:45:08.000Z</time>
      </trkpt>
      <trkpt lat="49.59248" lon="3.43242">
        <ele>136.7</ele>
        <time>2025-10-05T13:45:09.000Z</time>
      </trkpt>
      <trkpt lat="49.59247" lon="3.43242">
        <ele>136.9</ele>
        <time>2025-10-05T13:45:10.000Z</time>
      </trkpt>
      <trkpt lat="49.59247" lon="3.43242">
        <ele>137</ele>
        <time>2025-10-05T13:45:11.000Z</time>
      </trkpt>
      <trkpt lat="49.59246" lon="3.43242">
        <ele>137.2</ele>
        <time>2025-10-05T13:45:12.000Z</time>
      </trkpt>
      <trkpt lat="49.59245" lon="3.43242">
        <ele>137.3</ele>
        <time>2025-10-05T13:45:13.000Z</time>
      </trkpt>
      <trkpt lat="49.59244" lon="3.43242">
        <ele>137.1</ele>
        <time>2025-10-05T13:45:14.000Z</time>
      </trkpt>
      <trkpt lat="49.59243" lon="3.43241">
        <ele>136.8</ele>
        <time>2025-10-05T13:45:15.000Z</time>
      </trkpt>
      <trkpt lat="49.59243" lon="3.4324">
        <ele>136.6</ele>
        <time>2025-10-05T13:45:16.000Z</time>
      </trkpt>
      <trkpt lat="49.59242" lon="3.4324">
        <ele>136.4</ele>
        <time>2025-10-05T13:45:17.000Z</time>
      </trkpt>
      <trkpt lat="49.59241" lon="3.43239">
        <ele>135.7</ele>
        <time>2025-10-05T13:45:18.000Z</time>
      </trkpt>
      <trkpt lat="49.59239" lon="3.4324">
        <ele>135.6</ele>
        <time>2025-10-05T13:45:19.000Z</time>
      </trkpt>
      <trkpt lat="49.59238" lon="3.43239">
        <ele>135.5</ele>
        <time>2025-10-05T13:45:20.000Z</time>
      </trkpt>
      <trkpt lat="49.59236" lon="3.43239">
        <ele>135.5</ele>
        <time>2025-10-05T13:45:21.000Z</time>
      </trkpt>
      <trkpt lat="49.59235" lon="3.43238">
        <ele>135.3</ele>
        <time>2025-10-05T13:45:22.000Z</time>
      </trkpt>
      <trkpt lat="49.59234" lon="3.43237">
        <ele>135.2</ele>
        <time>2025-10-05T13:45:23.000Z</time>
      </trkpt>
      <trkpt lat="49.59234" lon="3.43237">
        <ele>135.2</ele>
        <time>2025-10-05T13:45:24.000Z</time>
      </trkpt>
      <trkpt lat="49.59233" lon="3.43236">
        <ele>135.2</ele>
        <time>2025-10-05T13:45:25.000Z</time>
      </trkpt>
      <trkpt lat="49.59232" lon="3.43236">
        <ele>135.4</ele>
        <time>2025-10-05T13:45:26.000Z</time>
      </trkpt>
      <trkpt lat="49.59232" lon="3.43236">
        <ele>135.6</ele>
        <time>2025-10-05T13:45:27.000Z</time>
      </trkpt>
      <trkpt lat="49.59231" lon="3.43236">
        <ele>135.7</ele>
        <time>2025-10-05T13:45:28.000Z</time>
      </trkpt>
      <trkpt lat="49.5923" lon="3.43236">
        <ele>135.8</ele>
        <time>2025-10-05T13:45:29.000Z</time>
      </trkpt>
      <trkpt lat="49.59229" lon="3.43235">
        <ele>135.8</ele>
        <time>2025-10-05T13:45:30.000Z</time>
      </trkpt>
      <trkpt lat="49.59228" lon="3.43235">
        <ele>136</ele>
        <time>2025-10-05T13:45:31.000Z</time>
      </trkpt>
      <trkpt lat="49.59227" lon="3.43234">
        <ele>136.1</ele>
        <time>2025-10-05T13:45:32.000Z</time>
      </trkpt>
      <trkpt lat="49.59226" lon="3.43233">
        <ele>136.5</ele>
        <time>2025-10-05T13:45:33.000Z</time>
      </trkpt>
      <trkpt lat="49.59225" lon="3.43233">
        <ele>136.7</ele>
        <time>2025-10-05T13:45:34.000Z</time>
      </trkpt>
      <trkpt lat="49.59224" lon="3.43232">
        <ele>136.7</ele>
        <time>2025-10-05T13:45:35.000Z</time>
      </trkpt>
      <trkpt lat="49.59223" lon="3.43231">
        <ele>136.5</ele>
        <time>2025-10-05T13:45:36.000Z</time>
      </trkpt>
      <trkpt lat="49.59223" lon="3.43229">
        <ele>136</ele>
        <time>2025-10-05T13:45:37.000Z</time>
      </trkpt>
      <trkpt lat="49.59222" lon="3.43226">
        <ele>135.8</ele>
        <time>2025-10-05T13:45:38.000Z</time>
      </trkpt>
      <trkpt lat="49.59222" lon="3.43223">
        <ele>135.4</ele>
        <time>2025-10-05T13:45:39.000Z</time>
      </trkpt>
      <trkpt lat="49.59221" lon="3.43221">
        <ele>135.2</ele>
        <time>2025-10-05T13:45:40.000Z</time>
      </trkpt>
      <trkpt lat="49.59222" lon="3.43219">
        <ele>134.8</ele>
        <time>2025-10-05T13:45:41.000Z</time>
      </trkpt>
      <trkpt lat="49.59222" lon="3.43218">
        <ele>134.5</ele>
        <time>2025-10-05T13:45:42.000Z</time>
      </trkpt>
      <trkpt lat="49.59223" lon="3.43216">
        <ele>134.5</ele>
        <time>2025-10-05T13:45:43.000Z</time>
      </trkpt>
      <trkpt lat="49.59223" lon="3.43214">
        <ele>134.6</ele>
        <time>2025-10-05T13:45:44.000Z</time>
      </trkpt>
      <trkpt lat="49.59223" lon="3.43213">
        <ele>134.8</ele>
        <time>2025-10-05T13:45:45.000Z</time>
      </trkpt>
      <trkpt lat="49.59222" lon="3.43211">
        <ele>135.2</ele>
        <time>2025-10-05T13:45:46.000Z</time>
      </trkpt>
      <trkpt lat="49.59222" lon="3.4321">
        <ele>135.5</ele>
        <time>2025-10-05T13:45:47.000Z</time>
      </trkpt>
      <trkpt lat="49.59222" lon="3.4321">
        <ele>135.7</ele>
        <time>2025-10-05T13:45:48.000Z</time>
      </trkpt>
      <trkpt lat="49.59223" lon="3.43208">
        <ele>135.9</ele>
        <time>2025-10-05T13:45:49.000Z</time>
      </trkpt>
      <trkpt lat="49.59223" lon="3.43206">
        <ele>136.1</ele>
        <time>2025-10-05T13:45:50.000Z</time>
      </trkpt>
      <trkpt lat="49.59223" lon="3.43204">
        <ele>136.4</ele>
        <time>2025-10-05T13:45:51.000Z</time>
      </trkpt>
      <trkpt lat="49.59224" lon="3.43201">
        <ele>136.7</ele>
        <time>2025-10-05T13:45:52.000Z</time>
      </trkpt>
      <trkpt lat="49.59224" lon="3.43199">
        <ele>136.8</ele>
        <time>2025-10-05T13:45:53.000Z</time>
      </trkpt>
      <trkpt lat="49.59225" lon="3.43198">
        <ele>136.8</ele>
        <time>2025-10-05T13:45:54.000Z</time>
      </trkpt>
      <trkpt lat="49.59225" lon="3.43197">
        <ele>136.6</ele>
        <time>2025-10-05T13:45:55.000Z</time>
      </trkpt>
      <trkpt lat="49.59226" lon="3.43195">
        <ele>136.3</ele>
        <time>2025-10-05T13:45:56.000Z</time>
      </trkpt>
      <trkpt lat="49.59226" lon="3.43194">
        <ele>136</ele>
        <time>2025-10-05T13:45:57.000Z</time>
      </trkpt>
      <trkpt lat="49.59227" lon="3.43192">
        <ele>135.6</ele>
        <time>2025-10-05T13:45:58.000Z</time>
      </trkpt>
      <trkpt lat="49.59227" lon="3.43191">
        <ele>135.2</ele>
        <time>2025-10-05T13:45:59.000Z</time>
      </trkpt>
      <trkpt lat="49.59228" lon="3.4319">
        <ele>135.2</ele>
        <time>2025-10-05T13:46:00.000Z</time>
      </trkpt>
      <trkpt lat="49.59228" lon="3.43189">
        <ele>135.3</ele>
        <time>2025-10-05T13:46:01.000Z</time>
      </trkpt>
      <trkpt lat="49.59228" lon="3.43189">
        <ele>135.2</ele>
        <time>2025-10-05T13:46:02.000Z</time>
      </trkpt>
      <trkpt lat="49.59228" lon="3.43188">
        <ele>135.1</ele>
        <time>2025-10-05T13:46:03.000Z</time>
      </trkpt>
      <trkpt lat="49.59228" lon="3.43187">
        <ele>134.9</ele>
        <time>2025-10-05T13:46:04.000Z</time>
      </trkpt>
      <trkpt lat="49.59227" lon="3.43186">
        <ele>135.1</ele>
        <time>2025-10-05T13:46:05.000Z</time>
      </trkpt>
      <trkpt lat="49.59227" lon="3.43184">
        <ele>135</ele>
        <time>2025-10-05T13:46:06.000Z</time>
      </trkpt>
      <trkpt lat="49.59227" lon="3.43183">
        <ele>134.8</ele>
        <time>2025-10-05T13:46:07.000Z</time>
      </trkpt>
      <trkpt lat="49.59227" lon="3.43181">
        <ele>134.5</ele>
        <time>2025-10-05T13:46:08.000Z</time>
      </trkpt>
      <trkpt lat="49.59227" lon="3.43179">
        <ele>134.3</ele>
        <time>2025-10-05T13:46:09.000Z</time>
      </trkpt>
      <trkpt lat="49.59228" lon="3.43177">
        <ele>134.3</ele>
        <time>2025-10-05T13:46:10.000Z</time>
      </trkpt>
      <trkpt lat="49.59228" lon="3.43175">
        <ele>134</ele>
        <time>2025-10-05T13:46:11.000Z</time>
      </trkpt>
      <trkpt lat="49.59229" lon="3.43173">
        <ele>133.5</ele>
        <time>2025-10-05T13:46:12.000Z</time>
      </trkpt>
      <trkpt lat="49.5923" lon="3.43172">
        <ele>132.8</ele>
        <time>2025-10-05T13:46:13.000Z</time>
      </trkpt>
      <trkpt lat="49.59231" lon="3.43171">
        <ele>132.2</ele>
        <time>2025-10-05T13:46:14.000Z</time>
      </trkpt>
      <trkpt lat="49.59231" lon="3.43169">
        <ele>131.9</ele>
        <time>2025-10-05T13:46:15.000Z</time>
      </trkpt>
      <trkpt lat="49.59232" lon="3.43168">
        <ele>131.6</ele>
        <time>2025-10-05T13:46:16.000Z</time>
      </trkpt>
      <trkpt lat="49.59232" lon="3.43167">
        <ele>131.4</ele>
        <time>2025-10-05T13:46:17.000Z</time>
      </trkpt>
      <trkpt lat="49.59232" lon="3.43166">
        <ele>131.3</ele>
        <time>2025-10-05T13:46:18.000Z</time>
      </trkpt>
      <trkpt lat="49.59232" lon="3.43165">
        <ele>131.1</ele>
        <time>2025-10-05T13:46:19.000Z</time>
      </trkpt>
      <trkpt lat="49.59232" lon="3.43163">
        <ele>130.9</ele>
        <time>2025-10-05T13:46:20.000Z</time>
      </trkpt>
      <trkpt lat="49.59232" lon="3.43161">
        <ele>130.9</ele>
        <time>2025-10-05T13:46:21.000Z</time>
      </trkpt>
      <trkpt lat="49.59232" lon="3.43159">
        <ele>131.1</ele>
        <time>2025-10-05T13:46:22.000Z</time>
      </trkpt>
      <trkpt lat="49.59231" lon="3.43158">
        <ele>131.5</ele>
        <time>2025-10-05T13:46:23.000Z</time>
      </trkpt>
      <trkpt lat="49.59231" lon="3.43157">
        <ele>131.9</ele>
        <time>2025-10-05T13:46:24.000Z</time>
      </trkpt>
      <trkpt lat="49.59231" lon="3.43155">
        <ele>132</ele>
        <time>2025-10-05T13:46:25.000Z</time>
      </trkpt>
      <trkpt lat="49.59231" lon="3.43153">
        <ele>132.8</ele>
        <time>2025-10-05T13:46:26.000Z</time>
      </trkpt>
      <trkpt lat="49.59232" lon="3.43151">
        <ele>132.9</ele>
        <time>2025-10-05T13:46:27.000Z</time>
      </trkpt>
      <trkpt lat="49.59232" lon="3.4315">
        <ele>133.2</ele>
        <time>2025-10-05T13:46:28.000Z</time>
      </trkpt>
      <trkpt lat="49.59232" lon="3.43148">
        <ele>133.6</ele>
        <time>2025-10-05T13:46:29.000Z</time>
      </trkpt>
      <trkpt lat="49.59232" lon="3.43147">
        <ele>134</ele>
        <time>2025-10-05T13:46:30.000Z</time>
      </trkpt>
      <trkpt lat="49.59232" lon="3.43146">
        <ele>134.4</ele>
        <time>2025-10-05T13:46:31.000Z</time>
      </trkpt>
      <trkpt lat="49.59233" lon="3.43145">
        <ele>134.8</ele>
        <time>2025-10-05T13:46:32.000Z</time>
      </trkpt>
      <trkpt lat="49.59233" lon="3.43143">
        <ele>135.1</ele>
        <time>2025-10-05T13:46:33.000Z</time>
      </trkpt>
      <trkpt lat="49.59233" lon="3.43142">
        <ele>135.5</ele>
        <time>2025-10-05T13:46:34.000Z</time>
      </trkpt>
      <trkpt lat="49.59234" lon="3.4314">
        <ele>135.9</ele>
        <time>2025-10-05T13:46:35.000Z</time>
      </trkpt>
      <trkpt lat="49.59235" lon="3.43138">
        <ele>136.2</ele>
        <time>2025-10-05T13:46:36.000Z</time>
      </trkpt>
      <trkpt lat="49.59235" lon="3.43136">
        <ele>136.4</ele>
        <time>2025-10-05T13:46:37.000Z</time>
      </trkpt>
      <trkpt lat="49.59236" lon="3.43134">
        <ele>136.6</ele>
        <time>2025-10-05T13:46:38.000Z</time>
      </trkpt>
      <trkpt lat="49.59237" lon="3.43131">
        <ele>137.4</ele>
        <time>2025-10-05T13:46:39.000Z</time>
      </trkpt>
      <trkpt lat="49.59238" lon="3.43129">
        <ele>137.7</ele>
        <time>2025-10-05T13:46:40.000Z</time>
      </trkpt>
      <trkpt lat="49.59239" lon="3.43128">
        <ele>137.9</ele>
        <time>2025-10-05T13:46:41.000Z</time>
      </trkpt>
      <trkpt lat="49.59238" lon="3.43127">
        <ele>137.4</ele>
        <time>2025-10-05T13:46:42.000Z</time>
      </trkpt>
      <trkpt lat="49.59239" lon="3.43126">
        <ele>137.3</ele>
        <time>2025-10-05T13:46:43.000Z</time>
      </trkpt>
      <trkpt lat="49.59239" lon="3.43125">
        <ele>137.2</ele>
        <time>2025-10-05T13:46:44.000Z</time>
      </trkpt>
      <trkpt lat="49.59239" lon="3.43123">
        <ele>137.7</ele>
        <time>2025-10-05T13:46:45.000Z</time>
      </trkpt>
      <trkpt lat="49.59239" lon="3.43122">
        <ele>138.2</ele>
        <time>2025-10-05T13:46:46.000Z</time>
      </trkpt>
      <trkpt lat="49.5924" lon="3.4312">
        <ele>138.7</ele>
        <time>2025-10-05T13:46:47.000Z</time>
      </trkpt>
      <trkpt lat="49.5924" lon="3.43119">
        <ele>139.2</ele>
        <time>2025-10-05T13:46:48.000Z</time>
      </trkpt>
      <trkpt lat="49.5924" lon="3.43117">
        <ele>139.1</ele>
        <time>2025-10-05T13:46:49.000Z</time>
      </trkpt>
      <trkpt lat="49.5924" lon="3.43116">
        <ele>138.9</ele>
        <time>2025-10-05T13:46:50.000Z</time>
      </trkpt>
      <trkpt lat="49.5924" lon="3.43115">
        <ele>138.9</ele>
        <time>2025-10-05T13:46:51.000Z</time>
      </trkpt>
      <trkpt lat="49.5924" lon="3.43113">
        <ele>138.7</ele>
        <time>2025-10-05T13:46:52.000Z</time>
      </trkpt>
      <trkpt lat="49.59241" lon="3.43112">
        <ele>138.7</ele>
        <time>2025-10-05T13:46:53.000Z</time>
      </trkpt>
      <trkpt lat="49.59241" lon="3.43111">
        <ele>138.8</ele>
        <time>2025-10-05T13:46:54.000Z</time>
      </trkpt>
      <trkpt lat="49.59242" lon="3.4311">
        <ele>139.2</ele>
        <time>2025-10-05T13:46:55.000Z</time>
      </trkpt>
      <trkpt lat="49.59242" lon="3.43108">
        <ele>139.5</ele>
        <time>2025-10-05T13:46:56.000Z</time>
      </trkpt>
      <trkpt lat="49.59242" lon="3.43107">
        <ele>139.9</ele>
        <time>2025-10-05T13:46:57.000Z</time>
      </trkpt>
      <trkpt lat="49.59242" lon="3.43105">
        <ele>140.3</ele>
        <time>2025-10-05T13:46:58.000Z</time>
      </trkpt>
      <trkpt lat="49.59242" lon="3.43103">
        <ele>140.5</ele>
        <time>2025-10-05T13:46:59.000Z</time>
      </trkpt>
      <trkpt lat="49.59243" lon="3.43101">
        <ele>140.2</ele>
        <time>2025-10-05T13:47:00.000Z</time>
      </trkpt>
      <trkpt lat="49.59244" lon="3.431">
        <ele>140.1</ele>
        <time>2025-10-05T13:47:01.000Z</time>
      </trkpt>
      <trkpt lat="49.59244" lon="3.43099">
        <ele>139.9</ele>
        <time>2025-10-05T13:47:02.000Z</time>
      </trkpt>
      <trkpt lat="49.59244" lon="3.43098">
        <ele>139.7</ele>
        <time>2025-10-05T13:47:03.000Z</time>
      </trkpt>
      <trkpt lat="49.59245" lon="3.43097">
        <ele>139.6</ele>
        <time>2025-10-05T13:47:04.000Z</time>
      </trkpt>
      <trkpt lat="49.59245" lon="3.43096">
        <ele>139.3</ele>
        <time>2025-10-05T13:47:05.000Z</time>
      </trkpt>
      <trkpt lat="49.59245" lon="3.43094">
        <ele>139</ele>
        <time>2025-10-05T13:47:06.000Z</time>
      </trkpt>
      <trkpt lat="49.59246" lon="3.43094">
        <ele>138.7</ele>
        <time>2025-10-05T13:47:07.000Z</time>
      </trkpt>
      <trkpt lat="49.59246" lon="3.43093">
        <ele>138.5</ele>
        <time>2025-10-05T13:47:08.000Z</time>
      </trkpt>
      <trkpt lat="49.59246" lon="3.43092">
        <ele>138.5</ele>
        <time>2025-10-05T13:47:09.000Z</time>
      </trkpt>
      <trkpt lat="49.59246" lon="3.43091">
        <ele>138.5</ele>
        <time>2025-10-05T13:47:10.000Z</time>
      </trkpt>
      <trkpt lat="49.59246" lon="3.43091">
        <ele>138.6</ele>
        <time>2025-10-05T13:47:11.000Z</time>
      </trkpt>
      <trkpt lat="49.59247" lon="3.4309">
        <ele>138.3</ele>
        <time>2025-10-05T13:47:12.000Z</time>
      </trkpt>
      <trkpt lat="49.59247" lon="3.4309">
        <ele>138.3</ele>
        <time>2025-10-05T13:47:13.000Z</time>
      </trkpt>
      <trkpt lat="49.59247" lon="3.43089">
        <ele>138.3</ele>
        <time>2025-10-05T13:47:14.000Z</time>
      </trkpt>
      <trkpt lat="49.59247" lon="3.43089">
        <ele>138.3</ele>
        <time>2025-10-05T13:47:15.000Z</time>
      </trkpt>
      <trkpt lat="49.59247" lon="3.43089">
        <ele>138.1</ele>
        <time>2025-10-05T13:47:16.000Z</time>
      </trkpt>
      <trkpt lat="49.59247" lon="3.43089">
        <ele>138.2</ele>
        <time>2025-10-05T13:47:17.000Z</time>
      </trkpt>
      <trkpt lat="49.59247" lon="3.43089">
        <ele>138.2</ele>
        <time>2025-10-05T13:47:18.000Z</time>
      </trkpt>
      <trkpt lat="49.59247" lon="3.43088">
        <ele>138.4</ele>
        <time>2025-10-05T13:47:19.000Z</time>
      </trkpt>
      <trkpt lat="49.59247" lon="3.43088">
        <ele>138.4</ele>
        <time>2025-10-05T13:47:20.000Z</time>
      </trkpt>
      <trkpt lat="49.59247" lon="3.43087">
        <ele>138.7</ele>
        <time>2025-10-05T13:47:21.000Z</time>
      </trkpt>
      <trkpt lat="49.59247" lon="3.43087">
        <ele>138.9</ele>
        <time>2025-10-05T13:47:22.000Z</time>
      </trkpt>
      <trkpt lat="49.59247" lon="3.43087">
        <ele>139</ele>
        <time>2025-10-05T13:47:23.000Z</time>
      </trkpt>
      <trkpt lat="49.59247" lon="3.43087">
        <ele>139.1</ele>
        <time>2025-10-05T13:47:24.000Z</time>
      </trkpt>
      <trkpt lat="49.59247" lon="3.43087">
        <ele>139.1</ele>
        <time>2025-10-05T13:47:25.000Z</time>
      </trkpt>
      <trkpt lat="49.59247" lon="3.43087">
        <ele>139.1</ele>
        <time>2025-10-05T13:47:26.000Z</time>
      </trkpt>
      <trkpt lat="49.59248" lon="3.43086">
        <ele>139.3</ele>
        <time>2025-10-05T13:47:27.000Z</time>
      </trkpt>
      <trkpt lat="49.59248" lon="3.43085">
        <ele>139.6</ele>
        <time>2025-10-05T13:47:28.000Z</time>
      </trkpt>
      <trkpt lat="49.59248" lon="3.43085">
        <ele>139.8</ele>
        <time>2025-10-05T13:47:29.000Z</time>
      </trkpt>
      <trkpt lat="49.59248" lon="3.43085">
        <ele>140</ele>
        <time>2025-10-05T13:47:30.000Z</time>
      </trkpt>
      <trkpt lat="49.59248" lon="3.43085">
        <ele>140</ele>
        <time>2025-10-05T13:47:31.000Z</time>
      </trkpt>
      <trkpt lat="49.59248" lon="3.43085">
        <ele>140</ele>
        <time>2025-10-05T13:47:32.000Z</time>
      </trkpt>
      <trkpt lat="49.59248" lon="3.43085">
        <ele>140</ele>
        <time>2025-10-05T13:47:33.000Z</time>
      </trkpt>
    </trkseg>
  </trk>
</gpx>